<?xml version="1.0" encoding="UTF-8"?>
<gpx version="1.1" creator="https://www.youtrack.es" xsi:schemaLocation="http://www.topografix.com/GPX/1/1 http://www.topografix.com/GPX/1/1/gpx.xsd http://www.garmin.com/xmlschemas/GpxExtensions/v3 http://www.garmin.com/xmlschemas/GpxExtensionsv3.xsd http://www.garmin.com/xmlschemas/TrackPointExtension/v1 http://www.garmin.com/xmlschemas/TrackPointExtensionv1.xsd" xmlns:gpxtpx="http://www.garmin.com/xmlschemas/TrackPointExtension/v1" xmlns:gpxx="http://www.garmin.com/xmlschemas/GpxExtensions/v3" xmlns:xsi="http://www.w3.org/2001/XMLSchema-instance">
  <metadata>
    <link href="https://www.youtrack.es">
      <text>YouTrack.es</text>
    </link>
    <time>2026-05-10T21:15:34Z</time>
  </metadata>
  <trk>
    <src>https://www.youtrack.es</src>
    <link href="https://www.youtrack.es/ruta/19257-cerro-de-la-camorcha-desde-ciudalcampo">
      <text>YouTrack.es</text>
    </link>
    <trkseg>
      <trkpt lat="40.616280" lon="-3.622159">
        <ele>712.781</ele>
        <time>2015-02-15T08:08:49Z</time>
      </trkpt>
      <trkpt lat="40.616281" lon="-3.622191">
        <ele>712.761</ele>
        <time>2015-02-15T08:08:50Z</time>
      </trkpt>
      <trkpt lat="40.616281" lon="-3.622221">
        <ele>712.817</ele>
        <time>2015-02-15T08:08:51Z</time>
      </trkpt>
      <trkpt lat="40.616286" lon="-3.622248">
        <ele>712.907</ele>
        <time>2015-02-15T08:08:52Z</time>
      </trkpt>
      <trkpt lat="40.616300" lon="-3.622280">
        <ele>712.936</ele>
        <time>2015-02-15T08:08:53Z</time>
      </trkpt>
      <trkpt lat="40.616312" lon="-3.622310">
        <ele>713.036</ele>
        <time>2015-02-15T08:08:54Z</time>
      </trkpt>
      <trkpt lat="40.616344" lon="-3.622398">
        <ele>713.165</ele>
        <time>2015-02-15T08:08:57Z</time>
      </trkpt>
      <trkpt lat="40.616378" lon="-3.622481">
        <ele>713.229</ele>
        <time>2015-02-15T08:09:00Z</time>
      </trkpt>
      <trkpt lat="40.616410" lon="-3.622569">
        <ele>713.378</ele>
        <time>2015-02-15T08:09:03Z</time>
      </trkpt>
      <trkpt lat="40.616443" lon="-3.622662">
        <ele>713.454</ele>
        <time>2015-02-15T08:09:06Z</time>
      </trkpt>
      <trkpt lat="40.616472" lon="-3.622725">
        <ele>713.485</ele>
        <time>2015-02-15T08:09:08Z</time>
      </trkpt>
      <trkpt lat="40.616511" lon="-3.622815">
        <ele>713.474</ele>
        <time>2015-02-15T08:09:12Z</time>
      </trkpt>
      <trkpt lat="40.616561" lon="-3.622943">
        <ele>713.456</ele>
        <time>2015-02-15T08:09:16Z</time>
      </trkpt>
      <trkpt lat="40.616599" lon="-3.623041">
        <ele>713.421</ele>
        <time>2015-02-15T08:09:19Z</time>
      </trkpt>
      <trkpt lat="40.616639" lon="-3.623133">
        <ele>713.407</ele>
        <time>2015-02-15T08:09:22Z</time>
      </trkpt>
      <trkpt lat="40.616676" lon="-3.623220">
        <ele>713.325</ele>
        <time>2015-02-15T08:09:25Z</time>
      </trkpt>
      <trkpt lat="40.616686" lon="-3.623251">
        <ele>713.395</ele>
        <time>2015-02-15T08:09:26Z</time>
      </trkpt>
      <trkpt lat="40.616727" lon="-3.623344">
        <ele>713.254</ele>
        <time>2015-02-15T08:09:29Z</time>
      </trkpt>
      <trkpt lat="40.616762" lon="-3.623447">
        <ele>713.158</ele>
        <time>2015-02-15T08:09:32Z</time>
      </trkpt>
      <trkpt lat="40.616806" lon="-3.623545">
        <ele>713.127</ele>
        <time>2015-02-15T08:09:35Z</time>
      </trkpt>
      <trkpt lat="40.616822" lon="-3.623576">
        <ele>713.013</ele>
        <time>2015-02-15T08:09:36Z</time>
      </trkpt>
      <trkpt lat="40.616847" lon="-3.623644">
        <ele>713.074</ele>
        <time>2015-02-15T08:09:38Z</time>
      </trkpt>
      <trkpt lat="40.616887" lon="-3.623736">
        <ele>712.942</ele>
        <time>2015-02-15T08:09:41Z</time>
      </trkpt>
      <trkpt lat="40.616924" lon="-3.623835">
        <ele>712.822</ele>
        <time>2015-02-15T08:09:44Z</time>
      </trkpt>
      <trkpt lat="40.616983" lon="-3.623974">
        <ele>712.614</ele>
        <time>2015-02-15T08:09:47Z</time>
      </trkpt>
      <trkpt lat="40.617024" lon="-3.624068">
        <ele>712.607</ele>
        <time>2015-02-15T08:09:50Z</time>
      </trkpt>
      <trkpt lat="40.617046" lon="-3.624139">
        <ele>712.592</ele>
        <time>2015-02-15T08:09:52Z</time>
      </trkpt>
      <trkpt lat="40.617074" lon="-3.624203">
        <ele>712.442</ele>
        <time>2015-02-15T08:09:54Z</time>
      </trkpt>
      <trkpt lat="40.617121" lon="-3.624294">
        <ele>712.351</ele>
        <time>2015-02-15T08:09:57Z</time>
      </trkpt>
      <trkpt lat="40.617172" lon="-3.624382">
        <ele>712.215</ele>
        <time>2015-02-15T08:10:00Z</time>
      </trkpt>
      <trkpt lat="40.617216" lon="-3.624430">
        <ele>712.124</ele>
        <time>2015-02-15T08:10:02Z</time>
      </trkpt>
      <trkpt lat="40.617238" lon="-3.624451">
        <ele>712.160</ele>
        <time>2015-02-15T08:10:03Z</time>
      </trkpt>
      <trkpt lat="40.617265" lon="-3.624464">
        <ele>712.141</ele>
        <time>2015-02-15T08:10:04Z</time>
      </trkpt>
      <trkpt lat="40.617292" lon="-3.624472">
        <ele>712.026</ele>
        <time>2015-02-15T08:10:05Z</time>
      </trkpt>
      <trkpt lat="40.617325" lon="-3.624480">
        <ele>712.047</ele>
        <time>2015-02-15T08:10:06Z</time>
      </trkpt>
      <trkpt lat="40.617361" lon="-3.624492">
        <ele>711.911</ele>
        <time>2015-02-15T08:10:07Z</time>
      </trkpt>
      <trkpt lat="40.617399" lon="-3.624508">
        <ele>711.907</ele>
        <time>2015-02-15T08:10:08Z</time>
      </trkpt>
      <trkpt lat="40.617512" lon="-3.624552">
        <ele>711.770</ele>
        <time>2015-02-15T08:10:11Z</time>
      </trkpt>
      <trkpt lat="40.617592" lon="-3.624569">
        <ele>711.660</ele>
        <time>2015-02-15T08:10:13Z</time>
      </trkpt>
      <trkpt lat="40.617633" lon="-3.624580">
        <ele>711.539</ele>
        <time>2015-02-15T08:10:14Z</time>
      </trkpt>
      <trkpt lat="40.617673" lon="-3.624587">
        <ele>711.423</ele>
        <time>2015-02-15T08:10:15Z</time>
      </trkpt>
      <trkpt lat="40.617784" lon="-3.624614">
        <ele>711.252</ele>
        <time>2015-02-15T08:10:18Z</time>
      </trkpt>
      <trkpt lat="40.617819" lon="-3.624627">
        <ele>711.298</ele>
        <time>2015-02-15T08:10:19Z</time>
      </trkpt>
      <trkpt lat="40.617846" lon="-3.624654">
        <ele>711.199</ele>
        <time>2015-02-15T08:10:20Z</time>
      </trkpt>
      <trkpt lat="40.617866" lon="-3.624693">
        <ele>711.059</ele>
        <time>2015-02-15T08:10:21Z</time>
      </trkpt>
      <trkpt lat="40.617880" lon="-3.624739">
        <ele>710.903</ele>
        <time>2015-02-15T08:10:22Z</time>
      </trkpt>
      <trkpt lat="40.617883" lon="-3.624792">
        <ele>710.823</ele>
        <time>2015-02-15T08:10:23Z</time>
      </trkpt>
      <trkpt lat="40.617873" lon="-3.624847">
        <ele>710.707</ele>
        <time>2015-02-15T08:10:24Z</time>
      </trkpt>
      <trkpt lat="40.617830" lon="-3.624915">
        <ele>710.653</ele>
        <time>2015-02-15T08:10:25Z</time>
      </trkpt>
      <trkpt lat="40.617799" lon="-3.624978">
        <ele>710.513</ele>
        <time>2015-02-15T08:10:26Z</time>
      </trkpt>
      <trkpt lat="40.617773" lon="-3.625045">
        <ele>710.492</ele>
        <time>2015-02-15T08:10:27Z</time>
      </trkpt>
      <trkpt lat="40.617727" lon="-3.625126">
        <ele>710.366</ele>
        <time>2015-02-15T08:10:28Z</time>
      </trkpt>
      <trkpt lat="40.617666" lon="-3.625223">
        <ele>710.165</ele>
        <time>2015-02-15T08:10:29Z</time>
      </trkpt>
      <trkpt lat="40.617617" lon="-3.625309">
        <ele>709.911</ele>
        <time>2015-02-15T08:10:30Z</time>
      </trkpt>
      <trkpt lat="40.617573" lon="-3.625385">
        <ele>709.882</ele>
        <time>2015-02-15T08:10:31Z</time>
      </trkpt>
      <trkpt lat="40.617525" lon="-3.625448">
        <ele>709.683</ele>
        <time>2015-02-15T08:10:32Z</time>
      </trkpt>
      <trkpt lat="40.617478" lon="-3.625483">
        <ele>709.525</ele>
        <time>2015-02-15T08:10:33Z</time>
      </trkpt>
      <trkpt lat="40.617431" lon="-3.625512">
        <ele>709.317</ele>
        <time>2015-02-15T08:10:34Z</time>
      </trkpt>
      <trkpt lat="40.617385" lon="-3.625532">
        <ele>709.207</ele>
        <time>2015-02-15T08:10:35Z</time>
      </trkpt>
      <trkpt lat="40.617358" lon="-3.625547">
        <ele>709.056</ele>
        <time>2015-02-15T08:10:36Z</time>
      </trkpt>
      <trkpt lat="40.617267" lon="-3.625593">
        <ele>708.686</ele>
        <time>2015-02-15T08:10:39Z</time>
      </trkpt>
      <trkpt lat="40.617206" lon="-3.625617">
        <ele>708.485</ele>
        <time>2015-02-15T08:10:41Z</time>
      </trkpt>
      <trkpt lat="40.617177" lon="-3.625621">
        <ele>708.359</ele>
        <time>2015-02-15T08:10:42Z</time>
      </trkpt>
      <trkpt lat="40.617122" lon="-3.625627">
        <ele>708.118</ele>
        <time>2015-02-15T08:10:44Z</time>
      </trkpt>
      <trkpt lat="40.617072" lon="-3.625653">
        <ele>707.924</ele>
        <time>2015-02-15T08:10:46Z</time>
      </trkpt>
      <trkpt lat="40.617052" lon="-3.625666">
        <ele>707.895</ele>
        <time>2015-02-15T08:10:47Z</time>
      </trkpt>
      <trkpt lat="40.617004" lon="-3.625687">
        <ele>707.659</ele>
        <time>2015-02-15T08:10:49Z</time>
      </trkpt>
      <trkpt lat="40.616980" lon="-3.625689">
        <ele>707.503</ele>
        <time>2015-02-15T08:10:50Z</time>
      </trkpt>
      <trkpt lat="40.616953" lon="-3.625693">
        <ele>707.423</ele>
        <time>2015-02-15T08:10:51Z</time>
      </trkpt>
      <trkpt lat="40.616908" lon="-3.625701">
        <ele>707.307</ele>
        <time>2015-02-15T08:10:53Z</time>
      </trkpt>
      <trkpt lat="40.616867" lon="-3.625718">
        <ele>707.393</ele>
        <time>2015-02-15T08:10:55Z</time>
      </trkpt>
      <trkpt lat="40.616852" lon="-3.625734">
        <ele>707.293</ele>
        <time>2015-02-15T08:10:56Z</time>
      </trkpt>
      <trkpt lat="40.616839" lon="-3.625756">
        <ele>707.272</ele>
        <time>2015-02-15T08:10:57Z</time>
      </trkpt>
      <trkpt lat="40.616836" lon="-3.625786">
        <ele>707.166</ele>
        <time>2015-02-15T08:10:59Z</time>
      </trkpt>
      <trkpt lat="40.616835" lon="-3.625815">
        <ele>707.185</ele>
        <time>2015-02-15T08:10:59Z</time>
      </trkpt>
      <trkpt lat="40.616836" lon="-3.625841">
        <ele>707.181</ele>
        <time>2015-02-15T08:11:01Z</time>
      </trkpt>
      <trkpt lat="40.616837" lon="-3.625882">
        <ele>707.122</ele>
        <time>2015-02-15T08:11:02Z</time>
      </trkpt>
      <trkpt lat="40.616844" lon="-3.625917">
        <ele>707.052</ele>
        <time>2015-02-15T08:11:03Z</time>
      </trkpt>
      <trkpt lat="40.616857" lon="-3.625982">
        <ele>707.053</ele>
        <time>2015-02-15T08:11:05Z</time>
      </trkpt>
      <trkpt lat="40.616861" lon="-3.626020">
        <ele>707.008</ele>
        <time>2015-02-15T08:11:06Z</time>
      </trkpt>
      <trkpt lat="40.616865" lon="-3.626083">
        <ele>707.007</ele>
        <time>2015-02-15T08:11:08Z</time>
      </trkpt>
      <trkpt lat="40.616867" lon="-3.626148">
        <ele>707.163</ele>
        <time>2015-02-15T08:11:10Z</time>
      </trkpt>
      <trkpt lat="40.616865" lon="-3.626213">
        <ele>707.273</ele>
        <time>2015-02-15T08:11:12Z</time>
      </trkpt>
      <trkpt lat="40.616857" lon="-3.626272">
        <ele>707.312</ele>
        <time>2015-02-15T08:11:14Z</time>
      </trkpt>
      <trkpt lat="40.616866" lon="-3.626349">
        <ele>707.476</ele>
        <time>2015-02-15T08:11:17Z</time>
      </trkpt>
      <trkpt lat="40.616879" lon="-3.626379">
        <ele>707.575</ele>
        <time>2015-02-15T08:11:18Z</time>
      </trkpt>
      <trkpt lat="40.616892" lon="-3.626407">
        <ele>707.661</ele>
        <time>2015-02-15T08:11:19Z</time>
      </trkpt>
      <trkpt lat="40.616916" lon="-3.626491">
        <ele>707.822</ele>
        <time>2015-02-15T08:11:22Z</time>
      </trkpt>
      <trkpt lat="40.616933" lon="-3.626528">
        <ele>707.839</ele>
        <time>2015-02-15T08:11:23Z</time>
      </trkpt>
      <trkpt lat="40.616960" lon="-3.626632">
        <ele>708.101</ele>
        <time>2015-02-15T08:11:26Z</time>
      </trkpt>
      <trkpt lat="40.616964" lon="-3.626667">
        <ele>708.121</ele>
        <time>2015-02-15T08:11:27Z</time>
      </trkpt>
      <trkpt lat="40.616974" lon="-3.626737">
        <ele>708.307</ele>
        <time>2015-02-15T08:11:29Z</time>
      </trkpt>
      <trkpt lat="40.616996" lon="-3.626816">
        <ele>708.581</ele>
        <time>2015-02-15T08:11:31Z</time>
      </trkpt>
      <trkpt lat="40.617042" lon="-3.626964">
        <ele>708.721</ele>
        <time>2015-02-15T08:11:34Z</time>
      </trkpt>
      <trkpt lat="40.617074" lon="-3.627042">
        <ele>708.860</ele>
        <time>2015-02-15T08:11:36Z</time>
      </trkpt>
      <trkpt lat="40.617116" lon="-3.627123">
        <ele>708.974</ele>
        <time>2015-02-15T08:11:38Z</time>
      </trkpt>
      <trkpt lat="40.617176" lon="-3.627244">
        <ele>708.943</ele>
        <time>2015-02-15T08:11:41Z</time>
      </trkpt>
      <trkpt lat="40.617236" lon="-3.627387">
        <ele>708.969</ele>
        <time>2015-02-15T08:11:44Z</time>
      </trkpt>
      <trkpt lat="40.617297" lon="-3.627517">
        <ele>708.910</ele>
        <time>2015-02-15T08:11:47Z</time>
      </trkpt>
      <trkpt lat="40.617336" lon="-3.627592">
        <ele>708.995</ele>
        <time>2015-02-15T08:11:49Z</time>
      </trkpt>
      <trkpt lat="40.617403" lon="-3.627698">
        <ele>708.849</ele>
        <time>2015-02-15T08:11:52Z</time>
      </trkpt>
      <trkpt lat="40.617463" lon="-3.627752">
        <ele>708.723</ele>
        <time>2015-02-15T08:11:54Z</time>
      </trkpt>
      <trkpt lat="40.617492" lon="-3.627780">
        <ele>708.707</ele>
        <time>2015-02-15T08:11:55Z</time>
      </trkpt>
      <trkpt lat="40.617518" lon="-3.627809">
        <ele>708.797</ele>
        <time>2015-02-15T08:11:56Z</time>
      </trkpt>
      <trkpt lat="40.617537" lon="-3.627841">
        <ele>708.767</ele>
        <time>2015-02-15T08:11:57Z</time>
      </trkpt>
      <trkpt lat="40.617553" lon="-3.627874">
        <ele>708.736</ele>
        <time>2015-02-15T08:11:58Z</time>
      </trkpt>
      <trkpt lat="40.617612" lon="-3.627972">
        <ele>708.720</ele>
        <time>2015-02-15T08:12:01Z</time>
      </trkpt>
      <trkpt lat="40.617664" lon="-3.628051">
        <ele>708.759</ele>
        <time>2015-02-15T08:12:04Z</time>
      </trkpt>
      <trkpt lat="40.617728" lon="-3.628123">
        <ele>708.655</ele>
        <time>2015-02-15T08:12:07Z</time>
      </trkpt>
      <trkpt lat="40.617765" lon="-3.628169">
        <ele>708.616</ele>
        <time>2015-02-15T08:12:09Z</time>
      </trkpt>
      <trkpt lat="40.617826" lon="-3.628226">
        <ele>708.616</ele>
        <time>2015-02-15T08:12:12Z</time>
      </trkpt>
      <trkpt lat="40.617916" lon="-3.628300">
        <ele>708.576</ele>
        <time>2015-02-15T08:12:16Z</time>
      </trkpt>
      <trkpt lat="40.617972" lon="-3.628333">
        <ele>708.513</ele>
        <time>2015-02-15T08:12:18Z</time>
      </trkpt>
      <trkpt lat="40.618003" lon="-3.628349">
        <ele>708.507</ele>
        <time>2015-02-15T08:12:19Z</time>
      </trkpt>
      <trkpt lat="40.618094" lon="-3.628390">
        <ele>708.429</ele>
        <time>2015-02-15T08:12:22Z</time>
      </trkpt>
      <trkpt lat="40.618171" lon="-3.628415">
        <ele>708.479</ele>
        <time>2015-02-15T08:12:24Z</time>
      </trkpt>
      <trkpt lat="40.618209" lon="-3.628424">
        <ele>708.318</ele>
        <time>2015-02-15T08:12:25Z</time>
      </trkpt>
      <trkpt lat="40.618280" lon="-3.628435">
        <ele>708.322</ele>
        <time>2015-02-15T08:12:27Z</time>
      </trkpt>
      <trkpt lat="40.618358" lon="-3.628447">
        <ele>708.241</ele>
        <time>2015-02-15T08:12:29Z</time>
      </trkpt>
      <trkpt lat="40.618497" lon="-3.628477">
        <ele>708.377</ele>
        <time>2015-02-15T08:12:33Z</time>
      </trkpt>
      <trkpt lat="40.618597" lon="-3.628497">
        <ele>708.378</ele>
        <time>2015-02-15T08:12:35Z</time>
      </trkpt>
      <trkpt lat="40.618643" lon="-3.628501">
        <ele>708.359</ele>
        <time>2015-02-15T08:12:36Z</time>
      </trkpt>
      <trkpt lat="40.618688" lon="-3.628512">
        <ele>708.403</ele>
        <time>2015-02-15T08:12:37Z</time>
      </trkpt>
      <trkpt lat="40.618731" lon="-3.628514">
        <ele>708.423</ele>
        <time>2015-02-15T08:12:38Z</time>
      </trkpt>
      <trkpt lat="40.618770" lon="-3.628516">
        <ele>708.407</ele>
        <time>2015-02-15T08:12:39Z</time>
      </trkpt>
      <trkpt lat="40.618841" lon="-3.628522">
        <ele>708.583</ele>
        <time>2015-02-15T08:12:41Z</time>
      </trkpt>
      <trkpt lat="40.618873" lon="-3.628522">
        <ele>708.643</ele>
        <time>2015-02-15T08:12:42Z</time>
      </trkpt>
      <trkpt lat="40.618936" lon="-3.628529">
        <ele>708.792</ele>
        <time>2015-02-15T08:12:44Z</time>
      </trkpt>
      <trkpt lat="40.618962" lon="-3.628531">
        <ele>708.836</ele>
        <time>2015-02-15T08:12:45Z</time>
      </trkpt>
      <trkpt lat="40.619046" lon="-3.628536">
        <ele>709.095</ele>
        <time>2015-02-15T08:12:48Z</time>
      </trkpt>
      <trkpt lat="40.619119" lon="-3.628549">
        <ele>709.171</ele>
        <time>2015-02-15T08:12:51Z</time>
      </trkpt>
      <trkpt lat="40.619207" lon="-3.628566">
        <ele>709.442</ele>
        <time>2015-02-15T08:12:54Z</time>
      </trkpt>
      <trkpt lat="40.619271" lon="-3.628578">
        <ele>709.617</ele>
        <time>2015-02-15T08:12:57Z</time>
      </trkpt>
      <trkpt lat="40.619338" lon="-3.628578">
        <ele>709.887</ele>
        <time>2015-02-15T08:13:00Z</time>
      </trkpt>
      <trkpt lat="40.619405" lon="-3.628586">
        <ele>709.915</ele>
        <time>2015-02-15T08:13:03Z</time>
      </trkpt>
      <trkpt lat="40.619484" lon="-3.628600">
        <ele>710.207</ele>
        <time>2015-02-15T08:13:06Z</time>
      </trkpt>
      <trkpt lat="40.619524" lon="-3.628630">
        <ele>710.359</ele>
        <time>2015-02-15T08:13:08Z</time>
      </trkpt>
      <trkpt lat="40.619547" lon="-3.628643">
        <ele>710.369</ele>
        <time>2015-02-15T08:13:09Z</time>
      </trkpt>
      <trkpt lat="40.619594" lon="-3.628669">
        <ele>710.448</ele>
        <time>2015-02-15T08:13:11Z</time>
      </trkpt>
      <trkpt lat="40.619609" lon="-3.628691">
        <ele>710.552</ele>
        <time>2015-02-15T08:13:12Z</time>
      </trkpt>
      <trkpt lat="40.619685" lon="-3.628744">
        <ele>710.741</ele>
        <time>2015-02-15T08:13:15Z</time>
      </trkpt>
      <trkpt lat="40.619753" lon="-3.628786">
        <ele>710.817</ele>
        <time>2015-02-15T08:13:17Z</time>
      </trkpt>
      <trkpt lat="40.619788" lon="-3.628808">
        <ele>710.928</ele>
        <time>2015-02-15T08:13:18Z</time>
      </trkpt>
      <trkpt lat="40.619855" lon="-3.628856">
        <ele>711.067</ele>
        <time>2015-02-15T08:13:20Z</time>
      </trkpt>
      <trkpt lat="40.619947" lon="-3.628921">
        <ele>711.281</ele>
        <time>2015-02-15T08:13:23Z</time>
      </trkpt>
      <trkpt lat="40.620049" lon="-3.628985">
        <ele>711.519</ele>
        <time>2015-02-15T08:13:26Z</time>
      </trkpt>
      <trkpt lat="40.620153" lon="-3.629041">
        <ele>711.707</ele>
        <time>2015-02-15T08:13:29Z</time>
      </trkpt>
      <trkpt lat="40.620221" lon="-3.629082">
        <ele>711.864</ele>
        <time>2015-02-15T08:13:31Z</time>
      </trkpt>
      <trkpt lat="40.620305" lon="-3.629147">
        <ele>711.934</ele>
        <time>2015-02-15T08:13:33Z</time>
      </trkpt>
      <trkpt lat="40.620397" lon="-3.629215">
        <ele>712.173</ele>
        <time>2015-02-15T08:13:35Z</time>
      </trkpt>
      <trkpt lat="40.620437" lon="-3.629239">
        <ele>712.117</ele>
        <time>2015-02-15T08:13:36Z</time>
      </trkpt>
      <trkpt lat="40.620492" lon="-3.629243">
        <ele>712.226</ele>
        <time>2015-02-15T08:13:37Z</time>
      </trkpt>
      <trkpt lat="40.620534" lon="-3.629250">
        <ele>712.252</ele>
        <time>2015-02-15T08:13:38Z</time>
      </trkpt>
      <trkpt lat="40.620615" lon="-3.629245">
        <ele>712.343</ele>
        <time>2015-02-15T08:13:40Z</time>
      </trkpt>
      <trkpt lat="40.620717" lon="-3.629241">
        <ele>712.416</ele>
        <time>2015-02-15T08:13:43Z</time>
      </trkpt>
      <trkpt lat="40.620754" lon="-3.629232">
        <ele>712.476</ele>
        <time>2015-02-15T08:13:44Z</time>
      </trkpt>
      <trkpt lat="40.620788" lon="-3.629228">
        <ele>712.413</ele>
        <time>2015-02-15T08:13:45Z</time>
      </trkpt>
      <trkpt lat="40.620815" lon="-3.629229">
        <ele>712.407</ele>
        <time>2015-02-15T08:13:46Z</time>
      </trkpt>
      <trkpt lat="40.620905" lon="-3.629210">
        <ele>712.419</ele>
        <time>2015-02-15T08:13:49Z</time>
      </trkpt>
      <trkpt lat="40.620967" lon="-3.629187">
        <ele>712.489</ele>
        <time>2015-02-15T08:13:51Z</time>
      </trkpt>
      <trkpt lat="40.621067" lon="-3.629157">
        <ele>712.328</ele>
        <time>2015-02-15T08:13:54Z</time>
      </trkpt>
      <trkpt lat="40.621177" lon="-3.629119">
        <ele>712.132</ele>
        <time>2015-02-15T08:13:58Z</time>
      </trkpt>
      <trkpt lat="40.621301" lon="-3.629078">
        <ele>711.951</ele>
        <time>2015-02-15T08:14:01Z</time>
      </trkpt>
      <trkpt lat="40.621393" lon="-3.629074">
        <ele>711.877</ele>
        <time>2015-02-15T08:14:03Z</time>
      </trkpt>
      <trkpt lat="40.621486" lon="-3.629071">
        <ele>711.628</ele>
        <time>2015-02-15T08:14:05Z</time>
      </trkpt>
      <trkpt lat="40.621526" lon="-3.629054">
        <ele>711.555</ele>
        <time>2015-02-15T08:14:06Z</time>
      </trkpt>
      <trkpt lat="40.621566" lon="-3.629039">
        <ele>711.407</ele>
        <time>2015-02-15T08:14:07Z</time>
      </trkpt>
      <trkpt lat="40.621643" lon="-3.629016">
        <ele>711.317</ele>
        <time>2015-02-15T08:14:09Z</time>
      </trkpt>
      <trkpt lat="40.621674" lon="-3.629011">
        <ele>711.207</ele>
        <time>2015-02-15T08:14:10Z</time>
      </trkpt>
      <trkpt lat="40.621741" lon="-3.629006">
        <ele>711.043</ele>
        <time>2015-02-15T08:14:12Z</time>
      </trkpt>
      <trkpt lat="40.621807" lon="-3.628990">
        <ele>710.713</ele>
        <time>2015-02-15T08:14:14Z</time>
      </trkpt>
      <trkpt lat="40.621841" lon="-3.628976">
        <ele>710.672</ele>
        <time>2015-02-15T08:14:15Z</time>
      </trkpt>
      <trkpt lat="40.621930" lon="-3.628933">
        <ele>710.386</ele>
        <time>2015-02-15T08:14:18Z</time>
      </trkpt>
      <trkpt lat="40.621995" lon="-3.628912">
        <ele>710.155</ele>
        <time>2015-02-15T08:14:20Z</time>
      </trkpt>
      <trkpt lat="40.622089" lon="-3.628890">
        <ele>709.841</ele>
        <time>2015-02-15T08:14:23Z</time>
      </trkpt>
      <trkpt lat="40.622182" lon="-3.628868">
        <ele>709.622</ele>
        <time>2015-02-15T08:14:25Z</time>
      </trkpt>
      <trkpt lat="40.622241" lon="-3.628846">
        <ele>709.576</ele>
        <time>2015-02-15T08:14:27Z</time>
      </trkpt>
      <trkpt lat="40.622268" lon="-3.628826">
        <ele>709.590</ele>
        <time>2015-02-15T08:14:28Z</time>
      </trkpt>
      <trkpt lat="40.622304" lon="-3.628820">
        <ele>709.419</ele>
        <time>2015-02-15T08:14:29Z</time>
      </trkpt>
      <trkpt lat="40.622334" lon="-3.628811">
        <ele>709.407</ele>
        <time>2015-02-15T08:14:30Z</time>
      </trkpt>
      <trkpt lat="40.622358" lon="-3.628809">
        <ele>709.495</ele>
        <time>2015-02-15T08:14:31Z</time>
      </trkpt>
      <trkpt lat="40.622450" lon="-3.628777">
        <ele>709.395</ele>
        <time>2015-02-15T08:14:34Z</time>
      </trkpt>
      <trkpt lat="40.622486" lon="-3.628774">
        <ele>709.324</ele>
        <time>2015-02-15T08:14:35Z</time>
      </trkpt>
      <trkpt lat="40.622522" lon="-3.628773">
        <ele>709.228</ele>
        <time>2015-02-15T08:14:36Z</time>
      </trkpt>
      <trkpt lat="40.622559" lon="-3.628780">
        <ele>709.257</ele>
        <time>2015-02-15T08:14:37Z</time>
      </trkpt>
      <trkpt lat="40.622606" lon="-3.628795">
        <ele>709.233</ele>
        <time>2015-02-15T08:14:38Z</time>
      </trkpt>
      <trkpt lat="40.622687" lon="-3.628828">
        <ele>709.284</ele>
        <time>2015-02-15T08:14:40Z</time>
      </trkpt>
      <trkpt lat="40.622777" lon="-3.628867">
        <ele>709.197</ele>
        <time>2015-02-15T08:14:42Z</time>
      </trkpt>
      <trkpt lat="40.622861" lon="-3.628905">
        <ele>708.923</ele>
        <time>2015-02-15T08:14:44Z</time>
      </trkpt>
      <trkpt lat="40.622949" lon="-3.628929">
        <ele>708.825</ele>
        <time>2015-02-15T08:14:46Z</time>
      </trkpt>
      <trkpt lat="40.623050" lon="-3.628958">
        <ele>708.607</ele>
        <time>2015-02-15T08:14:48Z</time>
      </trkpt>
      <trkpt lat="40.623149" lon="-3.629003">
        <ele>708.377</ele>
        <time>2015-02-15T08:14:50Z</time>
      </trkpt>
      <trkpt lat="40.623190" lon="-3.629037">
        <ele>708.227</ele>
        <time>2015-02-15T08:14:51Z</time>
      </trkpt>
      <trkpt lat="40.623272" lon="-3.629114">
        <ele>708.086</ele>
        <time>2015-02-15T08:14:53Z</time>
      </trkpt>
      <trkpt lat="40.623348" lon="-3.629170">
        <ele>707.740</ele>
        <time>2015-02-15T08:14:55Z</time>
      </trkpt>
      <trkpt lat="40.623387" lon="-3.629187">
        <ele>707.619</ele>
        <time>2015-02-15T08:14:56Z</time>
      </trkpt>
      <trkpt lat="40.623421" lon="-3.629199">
        <ele>707.575</ele>
        <time>2015-02-15T08:14:57Z</time>
      </trkpt>
      <trkpt lat="40.623479" lon="-3.629214">
        <ele>707.426</ele>
        <time>2015-02-15T08:14:59Z</time>
      </trkpt>
      <trkpt lat="40.623511" lon="-3.629229">
        <ele>707.319</ele>
        <time>2015-02-15T08:15:00Z</time>
      </trkpt>
      <trkpt lat="40.623605" lon="-3.629263">
        <ele>707.009</ele>
        <time>2015-02-15T08:15:03Z</time>
      </trkpt>
      <trkpt lat="40.623702" lon="-3.629296">
        <ele>706.819</ele>
        <time>2015-02-15T08:15:06Z</time>
      </trkpt>
      <trkpt lat="40.623723" lon="-3.629315">
        <ele>706.707</ele>
        <time>2015-02-15T08:15:07Z</time>
      </trkpt>
      <trkpt lat="40.623805" lon="-3.629353">
        <ele>706.569</ele>
        <time>2015-02-15T08:15:10Z</time>
      </trkpt>
      <trkpt lat="40.623829" lon="-3.629361">
        <ele>706.519</ele>
        <time>2015-02-15T08:15:11Z</time>
      </trkpt>
      <trkpt lat="40.623878" lon="-3.629370">
        <ele>706.388</ele>
        <time>2015-02-15T08:15:13Z</time>
      </trkpt>
      <trkpt lat="40.623897" lon="-3.629387">
        <ele>706.392</ele>
        <time>2015-02-15T08:15:14Z</time>
      </trkpt>
      <trkpt lat="40.623918" lon="-3.629399">
        <ele>706.251</ele>
        <time>2015-02-15T08:15:15Z</time>
      </trkpt>
      <trkpt lat="40.623940" lon="-3.629411">
        <ele>706.297</ele>
        <time>2015-02-15T08:15:16Z</time>
      </trkpt>
      <trkpt lat="40.623959" lon="-3.629413">
        <ele>706.138</ele>
        <time>2015-02-15T08:15:17Z</time>
      </trkpt>
      <trkpt lat="40.623981" lon="-3.629420">
        <ele>706.112</ele>
        <time>2015-02-15T08:15:18Z</time>
      </trkpt>
      <trkpt lat="40.624004" lon="-3.629423">
        <ele>706.132</ele>
        <time>2015-02-15T08:15:19Z</time>
      </trkpt>
      <trkpt lat="40.624024" lon="-3.629425">
        <ele>706.005</ele>
        <time>2015-02-15T08:15:20Z</time>
      </trkpt>
      <trkpt lat="40.624071" lon="-3.629422">
        <ele>705.907</ele>
        <time>2015-02-15T08:15:23Z</time>
      </trkpt>
      <trkpt lat="40.624154" lon="-3.629423">
        <ele>705.869</ele>
        <time>2015-02-15T08:15:26Z</time>
      </trkpt>
      <trkpt lat="40.624175" lon="-3.629431">
        <ele>705.739</ele>
        <time>2015-02-15T08:15:28Z</time>
      </trkpt>
      <trkpt lat="40.624217" lon="-3.629441">
        <ele>705.668</ele>
        <time>2015-02-15T08:15:30Z</time>
      </trkpt>
      <trkpt lat="40.624285" lon="-3.629469">
        <ele>705.592</ele>
        <time>2015-02-15T08:15:33Z</time>
      </trkpt>
      <trkpt lat="40.624352" lon="-3.629504">
        <ele>705.411</ele>
        <time>2015-02-15T08:15:36Z</time>
      </trkpt>
      <trkpt lat="40.624398" lon="-3.629522">
        <ele>705.467</ele>
        <time>2015-02-15T08:15:38Z</time>
      </trkpt>
      <trkpt lat="40.624431" lon="-3.629535">
        <ele>705.438</ele>
        <time>2015-02-15T08:15:39Z</time>
      </trkpt>
      <trkpt lat="40.624472" lon="-3.629552">
        <ele>705.493</ele>
        <time>2015-02-15T08:15:40Z</time>
      </trkpt>
      <trkpt lat="40.624518" lon="-3.629573">
        <ele>705.465</ele>
        <time>2015-02-15T08:15:41Z</time>
      </trkpt>
      <trkpt lat="40.624566" lon="-3.629608">
        <ele>705.421</ele>
        <time>2015-02-15T08:15:42Z</time>
      </trkpt>
      <trkpt lat="40.624662" lon="-3.629650">
        <ele>705.507</ele>
        <time>2015-02-15T08:15:44Z</time>
      </trkpt>
      <trkpt lat="40.624702" lon="-3.629666">
        <ele>705.557</ele>
        <time>2015-02-15T08:15:45Z</time>
      </trkpt>
      <trkpt lat="40.624783" lon="-3.629689">
        <ele>705.747</ele>
        <time>2015-02-15T08:15:47Z</time>
      </trkpt>
      <trkpt lat="40.624809" lon="-3.629705">
        <ele>705.886</ele>
        <time>2015-02-15T08:15:48Z</time>
      </trkpt>
      <trkpt lat="40.624837" lon="-3.629712">
        <ele>705.990</ele>
        <time>2015-02-15T08:15:49Z</time>
      </trkpt>
      <trkpt lat="40.624870" lon="-3.629715">
        <ele>706.169</ele>
        <time>2015-02-15T08:15:50Z</time>
      </trkpt>
      <trkpt lat="40.624963" lon="-3.629732">
        <ele>706.565</ele>
        <time>2015-02-15T08:15:53Z</time>
      </trkpt>
      <trkpt lat="40.625042" lon="-3.629751">
        <ele>707.046</ele>
        <time>2015-02-15T08:15:56Z</time>
      </trkpt>
      <trkpt lat="40.625066" lon="-3.629758">
        <ele>707.125</ele>
        <time>2015-02-15T08:15:57Z</time>
      </trkpt>
      <trkpt lat="40.625147" lon="-3.629800">
        <ele>707.426</ele>
        <time>2015-02-15T08:15:59Z</time>
      </trkpt>
      <trkpt lat="40.625202" lon="-3.629821">
        <ele>707.708</ele>
        <time>2015-02-15T08:16:01Z</time>
      </trkpt>
      <trkpt lat="40.625260" lon="-3.629834">
        <ele>708.007</ele>
        <time>2015-02-15T08:16:03Z</time>
      </trkpt>
      <trkpt lat="40.625290" lon="-3.629842">
        <ele>708.130</ele>
        <time>2015-02-15T08:16:04Z</time>
      </trkpt>
      <trkpt lat="40.625348" lon="-3.629871">
        <ele>708.460</ele>
        <time>2015-02-15T08:16:06Z</time>
      </trkpt>
      <trkpt lat="40.625375" lon="-3.629895">
        <ele>708.599</ele>
        <time>2015-02-15T08:16:07Z</time>
      </trkpt>
      <trkpt lat="40.625407" lon="-3.629922">
        <ele>708.693</ele>
        <time>2015-02-15T08:16:08Z</time>
      </trkpt>
      <trkpt lat="40.625457" lon="-3.629956">
        <ele>708.812</ele>
        <time>2015-02-15T08:16:10Z</time>
      </trkpt>
      <trkpt lat="40.625515" lon="-3.629979">
        <ele>709.058</ele>
        <time>2015-02-15T08:16:12Z</time>
      </trkpt>
      <trkpt lat="40.625545" lon="-3.629996">
        <ele>709.219</ele>
        <time>2015-02-15T08:16:13Z</time>
      </trkpt>
      <trkpt lat="40.625572" lon="-3.630012">
        <ele>709.323</ele>
        <time>2015-02-15T08:16:14Z</time>
      </trkpt>
      <trkpt lat="40.625650" lon="-3.630065">
        <ele>709.683</ele>
        <time>2015-02-15T08:16:17Z</time>
      </trkpt>
      <trkpt lat="40.625725" lon="-3.630105">
        <ele>710.011</ele>
        <time>2015-02-15T08:16:20Z</time>
      </trkpt>
      <trkpt lat="40.625798" lon="-3.630135">
        <ele>710.407</ele>
        <time>2015-02-15T08:16:23Z</time>
      </trkpt>
      <trkpt lat="40.625826" lon="-3.630139">
        <ele>710.570</ele>
        <time>2015-02-15T08:16:24Z</time>
      </trkpt>
      <trkpt lat="40.625850" lon="-3.630131">
        <ele>710.640</ele>
        <time>2015-02-15T08:16:25Z</time>
      </trkpt>
      <trkpt lat="40.625881" lon="-3.630118">
        <ele>710.799</ele>
        <time>2015-02-15T08:16:26Z</time>
      </trkpt>
      <trkpt lat="40.625905" lon="-3.630109">
        <ele>710.823</ele>
        <time>2015-02-15T08:16:27Z</time>
      </trkpt>
      <trkpt lat="40.625980" lon="-3.630067">
        <ele>711.142</ele>
        <time>2015-02-15T08:16:30Z</time>
      </trkpt>
      <trkpt lat="40.626051" lon="-3.630021">
        <ele>711.418</ele>
        <time>2015-02-15T08:16:33Z</time>
      </trkpt>
      <trkpt lat="40.626121" lon="-3.629980">
        <ele>711.729</ele>
        <time>2015-02-15T08:16:36Z</time>
      </trkpt>
      <trkpt lat="40.626208" lon="-3.629947">
        <ele>712.061</ele>
        <time>2015-02-15T08:16:39Z</time>
      </trkpt>
      <trkpt lat="40.626238" lon="-3.629924">
        <ele>712.121</ele>
        <time>2015-02-15T08:16:40Z</time>
      </trkpt>
      <trkpt lat="40.626320" lon="-3.629877">
        <ele>712.313</ele>
        <time>2015-02-15T08:16:43Z</time>
      </trkpt>
      <trkpt lat="40.626403" lon="-3.629834">
        <ele>712.507</ele>
        <time>2015-02-15T08:16:46Z</time>
      </trkpt>
      <trkpt lat="40.626488" lon="-3.629775">
        <ele>712.794</ele>
        <time>2015-02-15T08:16:49Z</time>
      </trkpt>
      <trkpt lat="40.626538" lon="-3.629727">
        <ele>712.754</ele>
        <time>2015-02-15T08:16:51Z</time>
      </trkpt>
      <trkpt lat="40.626569" lon="-3.629697">
        <ele>712.743</ele>
        <time>2015-02-15T08:16:52Z</time>
      </trkpt>
      <trkpt lat="40.626637" lon="-3.629642">
        <ele>712.777</ele>
        <time>2015-02-15T08:16:54Z</time>
      </trkpt>
      <trkpt lat="40.626674" lon="-3.629626">
        <ele>712.756</ele>
        <time>2015-02-15T08:16:55Z</time>
      </trkpt>
      <trkpt lat="40.626714" lon="-3.629614">
        <ele>712.872</ele>
        <time>2015-02-15T08:16:56Z</time>
      </trkpt>
      <trkpt lat="40.626791" lon="-3.629593">
        <ele>712.873</ele>
        <time>2015-02-15T08:16:58Z</time>
      </trkpt>
      <trkpt lat="40.626863" lon="-3.629587">
        <ele>712.897</ele>
        <time>2015-02-15T08:17:00Z</time>
      </trkpt>
      <trkpt lat="40.626901" lon="-3.629595">
        <ele>712.723</ele>
        <time>2015-02-15T08:17:02Z</time>
      </trkpt>
      <trkpt lat="40.626937" lon="-3.629607">
        <ele>712.725</ele>
        <time>2015-02-15T08:17:03Z</time>
      </trkpt>
      <trkpt lat="40.627045" lon="-3.629637">
        <ele>712.707</ele>
        <time>2015-02-15T08:17:06Z</time>
      </trkpt>
      <trkpt lat="40.627112" lon="-3.629638">
        <ele>712.747</ele>
        <time>2015-02-15T08:17:08Z</time>
      </trkpt>
      <trkpt lat="40.627147" lon="-3.629637">
        <ele>712.777</ele>
        <time>2015-02-15T08:17:09Z</time>
      </trkpt>
      <trkpt lat="40.627179" lon="-3.629642">
        <ele>712.676</ele>
        <time>2015-02-15T08:17:10Z</time>
      </trkpt>
      <trkpt lat="40.627210" lon="-3.629648">
        <ele>712.650</ele>
        <time>2015-02-15T08:17:11Z</time>
      </trkpt>
      <trkpt lat="40.627295" lon="-3.629648">
        <ele>712.699</ele>
        <time>2015-02-15T08:17:14Z</time>
      </trkpt>
      <trkpt lat="40.627325" lon="-3.629644">
        <ele>712.615</ele>
        <time>2015-02-15T08:17:15Z</time>
      </trkpt>
      <trkpt lat="40.627410" lon="-3.629649">
        <ele>712.596</ele>
        <time>2015-02-15T08:17:18Z</time>
      </trkpt>
      <trkpt lat="40.627443" lon="-3.629657">
        <ele>712.466</ele>
        <time>2015-02-15T08:17:19Z</time>
      </trkpt>
      <trkpt lat="40.627471" lon="-3.629673">
        <ele>712.429</ele>
        <time>2015-02-15T08:17:20Z</time>
      </trkpt>
      <trkpt lat="40.627503" lon="-3.629694">
        <ele>712.321</ele>
        <time>2015-02-15T08:17:21Z</time>
      </trkpt>
      <trkpt lat="40.627542" lon="-3.629707">
        <ele>712.207</ele>
        <time>2015-02-15T08:17:22Z</time>
      </trkpt>
      <trkpt lat="40.627565" lon="-3.629728">
        <ele>712.134</ele>
        <time>2015-02-15T08:17:23Z</time>
      </trkpt>
      <trkpt lat="40.627588" lon="-3.629749">
        <ele>712.014</ele>
        <time>2015-02-15T08:17:24Z</time>
      </trkpt>
      <trkpt lat="40.627641" lon="-3.629784">
        <ele>711.763</ele>
        <time>2015-02-15T08:17:26Z</time>
      </trkpt>
      <trkpt lat="40.627690" lon="-3.629833">
        <ele>711.477</ele>
        <time>2015-02-15T08:17:28Z</time>
      </trkpt>
      <trkpt lat="40.627744" lon="-3.629875">
        <ele>711.196</ele>
        <time>2015-02-15T08:17:30Z</time>
      </trkpt>
      <trkpt lat="40.627819" lon="-3.629882">
        <ele>710.842</ele>
        <time>2015-02-15T08:17:31Z</time>
      </trkpt>
      <trkpt lat="40.627898" lon="-3.629899">
        <ele>710.463</ele>
        <time>2015-02-15T08:17:33Z</time>
      </trkpt>
      <trkpt lat="40.627936" lon="-3.629917">
        <ele>710.189</ele>
        <time>2015-02-15T08:17:34Z</time>
      </trkpt>
      <trkpt lat="40.628024" lon="-3.629990">
        <ele>709.406</ele>
        <time>2015-02-15T08:17:37Z</time>
      </trkpt>
      <trkpt lat="40.628058" lon="-3.630015">
        <ele>709.126</ele>
        <time>2015-02-15T08:17:38Z</time>
      </trkpt>
      <trkpt lat="40.628088" lon="-3.630045">
        <ele>708.807</ele>
        <time>2015-02-15T08:17:39Z</time>
      </trkpt>
      <trkpt lat="40.628175" lon="-3.630107">
        <ele>708.196</ele>
        <time>2015-02-15T08:17:42Z</time>
      </trkpt>
      <trkpt lat="40.628213" lon="-3.630114">
        <ele>707.886</ele>
        <time>2015-02-15T08:17:43Z</time>
      </trkpt>
      <trkpt lat="40.628311" lon="-3.630171">
        <ele>707.135</ele>
        <time>2015-02-15T08:17:46Z</time>
      </trkpt>
      <trkpt lat="40.628337" lon="-3.630198">
        <ele>706.879</ele>
        <time>2015-02-15T08:17:47Z</time>
      </trkpt>
      <trkpt lat="40.628372" lon="-3.630229">
        <ele>706.698</ele>
        <time>2015-02-15T08:17:48Z</time>
      </trkpt>
      <trkpt lat="40.628428" lon="-3.630304">
        <ele>706.124</ele>
        <time>2015-02-15T08:17:50Z</time>
      </trkpt>
      <trkpt lat="40.628451" lon="-3.630347">
        <ele>705.945</ele>
        <time>2015-02-15T08:17:51Z</time>
      </trkpt>
      <trkpt lat="40.628470" lon="-3.630386">
        <ele>705.795</ele>
        <time>2015-02-15T08:17:52Z</time>
      </trkpt>
      <trkpt lat="40.628495" lon="-3.630420">
        <ele>705.549</ele>
        <time>2015-02-15T08:17:53Z</time>
      </trkpt>
      <trkpt lat="40.628528" lon="-3.630452">
        <ele>705.323</ele>
        <time>2015-02-15T08:17:54Z</time>
      </trkpt>
      <trkpt lat="40.628618" lon="-3.630544">
        <ele>704.607</ele>
        <time>2015-02-15T08:17:57Z</time>
      </trkpt>
      <trkpt lat="40.628651" lon="-3.630557">
        <ele>704.457</ele>
        <time>2015-02-15T08:17:58Z</time>
      </trkpt>
      <trkpt lat="40.628709" lon="-3.630613">
        <ele>703.967</ele>
        <time>2015-02-15T08:18:00Z</time>
      </trkpt>
      <trkpt lat="40.628746" lon="-3.630639">
        <ele>703.726</ele>
        <time>2015-02-15T08:18:01Z</time>
      </trkpt>
      <trkpt lat="40.628767" lon="-3.630667">
        <ele>703.530</ele>
        <time>2015-02-15T08:18:02Z</time>
      </trkpt>
      <trkpt lat="40.628792" lon="-3.630697">
        <ele>703.479</ele>
        <time>2015-02-15T08:18:03Z</time>
      </trkpt>
      <trkpt lat="40.628856" lon="-3.630792">
        <ele>702.845</ele>
        <time>2015-02-15T08:18:06Z</time>
      </trkpt>
      <trkpt lat="40.628917" lon="-3.630887">
        <ele>702.396</ele>
        <time>2015-02-15T08:18:09Z</time>
      </trkpt>
      <trkpt lat="40.628965" lon="-3.630972">
        <ele>701.733</ele>
        <time>2015-02-15T08:18:12Z</time>
      </trkpt>
      <trkpt lat="40.628996" lon="-3.631032">
        <ele>701.323</ele>
        <time>2015-02-15T08:18:14Z</time>
      </trkpt>
      <trkpt lat="40.629038" lon="-3.631074">
        <ele>701.015</ele>
        <time>2015-02-15T08:18:16Z</time>
      </trkpt>
      <trkpt lat="40.629065" lon="-3.631089">
        <ele>700.807</ele>
        <time>2015-02-15T08:18:17Z</time>
      </trkpt>
      <trkpt lat="40.629094" lon="-3.631098">
        <ele>700.651</ele>
        <time>2015-02-15T08:18:18Z</time>
      </trkpt>
      <trkpt lat="40.629158" lon="-3.631138">
        <ele>700.341</ele>
        <time>2015-02-15T08:18:20Z</time>
      </trkpt>
      <trkpt lat="40.629223" lon="-3.631187">
        <ele>699.990</ele>
        <time>2015-02-15T08:18:22Z</time>
      </trkpt>
      <trkpt lat="40.629319" lon="-3.631266">
        <ele>699.424</ele>
        <time>2015-02-15T08:18:25Z</time>
      </trkpt>
      <trkpt lat="40.629418" lon="-3.631357">
        <ele>699.043</ele>
        <time>2015-02-15T08:18:28Z</time>
      </trkpt>
      <trkpt lat="40.629468" lon="-3.631421">
        <ele>698.779</ele>
        <time>2015-02-15T08:18:31Z</time>
      </trkpt>
      <trkpt lat="40.629554" lon="-3.631511">
        <ele>698.310</ele>
        <time>2015-02-15T08:18:34Z</time>
      </trkpt>
      <trkpt lat="40.629587" lon="-3.631544">
        <ele>698.259</ele>
        <time>2015-02-15T08:18:35Z</time>
      </trkpt>
      <trkpt lat="40.629615" lon="-3.631582">
        <ele>698.103</ele>
        <time>2015-02-15T08:18:36Z</time>
      </trkpt>
      <trkpt lat="40.629713" lon="-3.631704">
        <ele>697.723</ele>
        <time>2015-02-15T08:18:39Z</time>
      </trkpt>
      <trkpt lat="40.629749" lon="-3.631744">
        <ele>697.607</ele>
        <time>2015-02-15T08:18:40Z</time>
      </trkpt>
      <trkpt lat="40.629820" lon="-3.631826">
        <ele>697.333</ele>
        <time>2015-02-15T08:18:42Z</time>
      </trkpt>
      <trkpt lat="40.629885" lon="-3.631905">
        <ele>697.043</ele>
        <time>2015-02-15T08:18:44Z</time>
      </trkpt>
      <trkpt lat="40.629899" lon="-3.631932">
        <ele>696.982</ele>
        <time>2015-02-15T08:18:45Z</time>
      </trkpt>
      <trkpt lat="40.629904" lon="-3.631949">
        <ele>696.816</ele>
        <time>2015-02-15T08:18:46Z</time>
      </trkpt>
      <trkpt lat="40.629930" lon="-3.631985">
        <ele>696.635</ele>
        <time>2015-02-15T08:18:48Z</time>
      </trkpt>
      <trkpt lat="40.629962" lon="-3.632028">
        <ele>696.441</ele>
        <time>2015-02-15T08:18:50Z</time>
      </trkpt>
      <trkpt lat="40.630005" lon="-3.632073">
        <ele>696.292</ele>
        <time>2015-02-15T08:18:52Z</time>
      </trkpt>
      <trkpt lat="40.630046" lon="-3.632126">
        <ele>696.033</ele>
        <time>2015-02-15T08:18:53Z</time>
      </trkpt>
      <trkpt lat="40.630110" lon="-3.632190">
        <ele>695.623</ele>
        <time>2015-02-15T08:18:56Z</time>
      </trkpt>
      <trkpt lat="40.630131" lon="-3.632203">
        <ele>695.515</ele>
        <time>2015-02-15T08:18:57Z</time>
      </trkpt>
      <trkpt lat="40.630178" lon="-3.632260">
        <ele>695.107</ele>
        <time>2015-02-15T08:19:00Z</time>
      </trkpt>
      <trkpt lat="40.630192" lon="-3.632282">
        <ele>695.031</ele>
        <time>2015-02-15T08:19:01Z</time>
      </trkpt>
      <trkpt lat="40.630210" lon="-3.632309">
        <ele>694.911</ele>
        <time>2015-02-15T08:19:02Z</time>
      </trkpt>
      <trkpt lat="40.630235" lon="-3.632344">
        <ele>694.750</ele>
        <time>2015-02-15T08:19:04Z</time>
      </trkpt>
      <trkpt lat="40.630284" lon="-3.632393">
        <ele>694.494</ele>
        <time>2015-02-15T08:19:07Z</time>
      </trkpt>
      <trkpt lat="40.630334" lon="-3.632416">
        <ele>694.243</ele>
        <time>2015-02-15T08:19:09Z</time>
      </trkpt>
      <trkpt lat="40.630408" lon="-3.632452">
        <ele>693.959</ele>
        <time>2015-02-15T08:19:12Z</time>
      </trkpt>
      <trkpt lat="40.630423" lon="-3.632468">
        <ele>693.840</ele>
        <time>2015-02-15T08:19:13Z</time>
      </trkpt>
      <trkpt lat="40.630450" lon="-3.632499">
        <ele>693.653</ele>
        <time>2015-02-15T08:19:15Z</time>
      </trkpt>
      <trkpt lat="40.630468" lon="-3.632525">
        <ele>693.504</ele>
        <time>2015-02-15T08:19:16Z</time>
      </trkpt>
      <trkpt lat="40.630499" lon="-3.632563">
        <ele>693.414</ele>
        <time>2015-02-15T08:19:18Z</time>
      </trkpt>
      <trkpt lat="40.630511" lon="-3.632580">
        <ele>693.407</ele>
        <time>2015-02-15T08:19:19Z</time>
      </trkpt>
      <trkpt lat="40.630559" lon="-3.632636">
        <ele>693.273</ele>
        <time>2015-02-15T08:19:22Z</time>
      </trkpt>
      <trkpt lat="40.630587" lon="-3.632685">
        <ele>693.273</ele>
        <time>2015-02-15T08:19:24Z</time>
      </trkpt>
      <trkpt lat="40.630596" lon="-3.632710">
        <ele>693.222</ele>
        <time>2015-02-15T08:19:25Z</time>
      </trkpt>
      <trkpt lat="40.630610" lon="-3.632766">
        <ele>693.376</ele>
        <time>2015-02-15T08:19:27Z</time>
      </trkpt>
      <trkpt lat="40.630637" lon="-3.632811">
        <ele>693.445</ele>
        <time>2015-02-15T08:19:29Z</time>
      </trkpt>
      <trkpt lat="40.630652" lon="-3.632829">
        <ele>693.481</ele>
        <time>2015-02-15T08:19:30Z</time>
      </trkpt>
      <trkpt lat="40.630684" lon="-3.632841">
        <ele>693.522</ele>
        <time>2015-02-15T08:19:31Z</time>
      </trkpt>
      <trkpt lat="40.630707" lon="-3.632856">
        <ele>693.643</ele>
        <time>2015-02-15T08:19:32Z</time>
      </trkpt>
      <trkpt lat="40.630730" lon="-3.632864">
        <ele>693.664</ele>
        <time>2015-02-15T08:19:33Z</time>
      </trkpt>
      <trkpt lat="40.630794" lon="-3.632900">
        <ele>693.910</ele>
        <time>2015-02-15T08:19:36Z</time>
      </trkpt>
      <trkpt lat="40.630842" lon="-3.632937">
        <ele>694.107</ele>
        <time>2015-02-15T08:19:38Z</time>
      </trkpt>
      <trkpt lat="40.630893" lon="-3.632983">
        <ele>694.322</ele>
        <time>2015-02-15T08:19:40Z</time>
      </trkpt>
      <trkpt lat="40.631002" lon="-3.633078">
        <ele>694.612</ele>
        <time>2015-02-15T08:19:44Z</time>
      </trkpt>
      <trkpt lat="40.631089" lon="-3.633138">
        <ele>694.881</ele>
        <time>2015-02-15T08:19:47Z</time>
      </trkpt>
      <trkpt lat="40.631169" lon="-3.633160">
        <ele>694.985</ele>
        <time>2015-02-15T08:19:49Z</time>
      </trkpt>
      <trkpt lat="40.631209" lon="-3.633175">
        <ele>695.084</ele>
        <time>2015-02-15T08:19:50Z</time>
      </trkpt>
      <trkpt lat="40.631254" lon="-3.633194">
        <ele>695.070</ele>
        <time>2015-02-15T08:19:51Z</time>
      </trkpt>
      <trkpt lat="40.631327" lon="-3.633261">
        <ele>695.251</ele>
        <time>2015-02-15T08:19:53Z</time>
      </trkpt>
      <trkpt lat="40.631356" lon="-3.633299">
        <ele>695.356</ele>
        <time>2015-02-15T08:19:54Z</time>
      </trkpt>
      <trkpt lat="40.631417" lon="-3.633354">
        <ele>695.559</ele>
        <time>2015-02-15T08:19:56Z</time>
      </trkpt>
      <trkpt lat="40.631434" lon="-3.633350">
        <ele>695.514</ele>
        <time>2015-02-15T08:19:57Z</time>
      </trkpt>
      <trkpt lat="40.631458" lon="-3.633358">
        <ele>695.607</ele>
        <time>2015-02-15T08:19:58Z</time>
      </trkpt>
      <trkpt lat="40.631481" lon="-3.633364">
        <ele>695.773</ele>
        <time>2015-02-15T08:19:59Z</time>
      </trkpt>
      <trkpt lat="40.631512" lon="-3.633372">
        <ele>695.833</ele>
        <time>2015-02-15T08:20:00Z</time>
      </trkpt>
      <trkpt lat="40.631570" lon="-3.633405">
        <ele>695.912</ele>
        <time>2015-02-15T08:20:02Z</time>
      </trkpt>
      <trkpt lat="40.631624" lon="-3.633433">
        <ele>696.016</ele>
        <time>2015-02-15T08:20:04Z</time>
      </trkpt>
      <trkpt lat="40.631655" lon="-3.633445">
        <ele>696.015</ele>
        <time>2015-02-15T08:20:05Z</time>
      </trkpt>
      <trkpt lat="40.631691" lon="-3.633452">
        <ele>696.091</ele>
        <time>2015-02-15T08:20:07Z</time>
      </trkpt>
      <trkpt lat="40.631730" lon="-3.633463">
        <ele>696.132</ele>
        <time>2015-02-15T08:20:08Z</time>
      </trkpt>
      <trkpt lat="40.631809" lon="-3.633498">
        <ele>696.177</ele>
        <time>2015-02-15T08:20:10Z</time>
      </trkpt>
      <trkpt lat="40.631877" lon="-3.633519">
        <ele>696.261</ele>
        <time>2015-02-15T08:20:12Z</time>
      </trkpt>
      <trkpt lat="40.631909" lon="-3.633522">
        <ele>696.227</ele>
        <time>2015-02-15T08:20:13Z</time>
      </trkpt>
      <trkpt lat="40.631921" lon="-3.633542">
        <ele>696.207</ele>
        <time>2015-02-15T08:20:14Z</time>
      </trkpt>
      <trkpt lat="40.631950" lon="-3.633556">
        <ele>696.255</ele>
        <time>2015-02-15T08:20:15Z</time>
      </trkpt>
      <trkpt lat="40.631977" lon="-3.633575">
        <ele>696.125</ele>
        <time>2015-02-15T08:20:16Z</time>
      </trkpt>
      <trkpt lat="40.632010" lon="-3.633597">
        <ele>696.154</ele>
        <time>2015-02-15T08:20:17Z</time>
      </trkpt>
      <trkpt lat="40.632069" lon="-3.633645">
        <ele>696.188</ele>
        <time>2015-02-15T08:20:19Z</time>
      </trkpt>
      <trkpt lat="40.632127" lon="-3.633684">
        <ele>696.077</ele>
        <time>2015-02-15T08:20:21Z</time>
      </trkpt>
      <trkpt lat="40.632148" lon="-3.633704">
        <ele>695.983</ele>
        <time>2015-02-15T08:20:22Z</time>
      </trkpt>
      <trkpt lat="40.632191" lon="-3.633744">
        <ele>695.994</ele>
        <time>2015-02-15T08:20:24Z</time>
      </trkpt>
      <trkpt lat="40.632235" lon="-3.633757">
        <ele>695.878</ele>
        <time>2015-02-15T08:20:26Z</time>
      </trkpt>
      <trkpt lat="40.632260" lon="-3.633769">
        <ele>695.833</ele>
        <time>2015-02-15T08:20:27Z</time>
      </trkpt>
      <trkpt lat="40.632330" lon="-3.633808">
        <ele>695.726</ele>
        <time>2015-02-15T08:20:30Z</time>
      </trkpt>
      <trkpt lat="40.632350" lon="-3.633830">
        <ele>695.707</ele>
        <time>2015-02-15T08:20:31Z</time>
      </trkpt>
      <trkpt lat="40.632370" lon="-3.633850">
        <ele>695.775</ele>
        <time>2015-02-15T08:20:32Z</time>
      </trkpt>
      <trkpt lat="40.632438" lon="-3.633904">
        <ele>695.715</ele>
        <time>2015-02-15T08:20:34Z</time>
      </trkpt>
      <trkpt lat="40.632482" lon="-3.633906">
        <ele>695.724</ele>
        <time>2015-02-15T08:20:35Z</time>
      </trkpt>
      <trkpt lat="40.632522" lon="-3.633919">
        <ele>695.778</ele>
        <time>2015-02-15T08:20:36Z</time>
      </trkpt>
      <trkpt lat="40.632558" lon="-3.633935">
        <ele>695.717</ele>
        <time>2015-02-15T08:20:37Z</time>
      </trkpt>
      <trkpt lat="40.632589" lon="-3.633952">
        <ele>695.743</ele>
        <time>2015-02-15T08:20:38Z</time>
      </trkpt>
      <trkpt lat="40.632647" lon="-3.633997">
        <ele>695.764</ele>
        <time>2015-02-15T08:20:40Z</time>
      </trkpt>
      <trkpt lat="40.632677" lon="-3.634025">
        <ele>695.736</ele>
        <time>2015-02-15T08:20:41Z</time>
      </trkpt>
      <trkpt lat="40.632748" lon="-3.634088">
        <ele>695.717</ele>
        <time>2015-02-15T08:20:44Z</time>
      </trkpt>
      <trkpt lat="40.632784" lon="-3.634102">
        <ele>695.818</ele>
        <time>2015-02-15T08:20:45Z</time>
      </trkpt>
      <trkpt lat="40.632811" lon="-3.634113">
        <ele>695.807</ele>
        <time>2015-02-15T08:20:46Z</time>
      </trkpt>
      <trkpt lat="40.632866" lon="-3.634128">
        <ele>695.891</ele>
        <time>2015-02-15T08:20:48Z</time>
      </trkpt>
      <trkpt lat="40.632896" lon="-3.634127">
        <ele>695.981</ele>
        <time>2015-02-15T08:20:49Z</time>
      </trkpt>
      <trkpt lat="40.632922" lon="-3.634144">
        <ele>695.930</ele>
        <time>2015-02-15T08:20:50Z</time>
      </trkpt>
      <trkpt lat="40.632953" lon="-3.634161">
        <ele>696.084</ele>
        <time>2015-02-15T08:20:51Z</time>
      </trkpt>
      <trkpt lat="40.633079" lon="-3.634237">
        <ele>696.143</ele>
        <time>2015-02-15T08:20:55Z</time>
      </trkpt>
      <trkpt lat="40.633107" lon="-3.634251">
        <ele>696.189</ele>
        <time>2015-02-15T08:20:56Z</time>
      </trkpt>
      <trkpt lat="40.633189" lon="-3.634304">
        <ele>696.160</ele>
        <time>2015-02-15T08:20:59Z</time>
      </trkpt>
      <trkpt lat="40.633269" lon="-3.634366">
        <ele>696.268</ele>
        <time>2015-02-15T08:21:02Z</time>
      </trkpt>
      <trkpt lat="40.633325" lon="-3.634417">
        <ele>696.242</ele>
        <time>2015-02-15T08:21:04Z</time>
      </trkpt>
      <trkpt lat="40.633398" lon="-3.634487">
        <ele>696.426</ele>
        <time>2015-02-15T08:21:07Z</time>
      </trkpt>
      <trkpt lat="40.633444" lon="-3.634539">
        <ele>696.507</ele>
        <time>2015-02-15T08:21:09Z</time>
      </trkpt>
      <trkpt lat="40.633493" lon="-3.634576">
        <ele>696.634</ele>
        <time>2015-02-15T08:21:11Z</time>
      </trkpt>
      <trkpt lat="40.633519" lon="-3.634588">
        <ele>696.734</ele>
        <time>2015-02-15T08:21:12Z</time>
      </trkpt>
      <trkpt lat="40.633599" lon="-3.634642">
        <ele>696.973</ele>
        <time>2015-02-15T08:21:15Z</time>
      </trkpt>
      <trkpt lat="40.633671" lon="-3.634705">
        <ele>697.217</ele>
        <time>2015-02-15T08:21:18Z</time>
      </trkpt>
      <trkpt lat="40.633759" lon="-3.634789">
        <ele>697.676</ele>
        <time>2015-02-15T08:21:22Z</time>
      </trkpt>
      <trkpt lat="40.633805" lon="-3.634835">
        <ele>697.842</ele>
        <time>2015-02-15T08:21:24Z</time>
      </trkpt>
      <trkpt lat="40.633869" lon="-3.634886">
        <ele>698.193</ele>
        <time>2015-02-15T08:21:27Z</time>
      </trkpt>
      <trkpt lat="40.633926" lon="-3.634943">
        <ele>698.354</ele>
        <time>2015-02-15T08:21:30Z</time>
      </trkpt>
      <trkpt lat="40.633968" lon="-3.634991">
        <ele>698.456</ele>
        <time>2015-02-15T08:21:32Z</time>
      </trkpt>
      <trkpt lat="40.634010" lon="-3.635050">
        <ele>698.511</ele>
        <time>2015-02-15T08:21:34Z</time>
      </trkpt>
      <trkpt lat="40.634051" lon="-3.635072">
        <ele>698.607</ele>
        <time>2015-02-15T08:21:35Z</time>
      </trkpt>
      <trkpt lat="40.634082" lon="-3.635097">
        <ele>698.683</ele>
        <time>2015-02-15T08:21:37Z</time>
      </trkpt>
      <trkpt lat="40.634177" lon="-3.635172">
        <ele>698.813</ele>
        <time>2015-02-15T08:21:40Z</time>
      </trkpt>
      <trkpt lat="40.634204" lon="-3.635208">
        <ele>698.962</ele>
        <time>2015-02-15T08:21:41Z</time>
      </trkpt>
      <trkpt lat="40.634255" lon="-3.635282">
        <ele>699.016</ele>
        <time>2015-02-15T08:21:43Z</time>
      </trkpt>
      <trkpt lat="40.634333" lon="-3.635395">
        <ele>699.175</ele>
        <time>2015-02-15T08:21:46Z</time>
      </trkpt>
      <trkpt lat="40.634366" lon="-3.635425">
        <ele>699.161</ele>
        <time>2015-02-15T08:21:47Z</time>
      </trkpt>
      <trkpt lat="40.634400" lon="-3.635458">
        <ele>699.242</ele>
        <time>2015-02-15T08:21:48Z</time>
      </trkpt>
      <trkpt lat="40.634461" lon="-3.635523">
        <ele>699.336</ele>
        <time>2015-02-15T08:21:50Z</time>
      </trkpt>
      <trkpt lat="40.634486" lon="-3.635556">
        <ele>699.317</ele>
        <time>2015-02-15T08:21:51Z</time>
      </trkpt>
      <trkpt lat="40.634534" lon="-3.635613">
        <ele>699.318</ele>
        <time>2015-02-15T08:21:53Z</time>
      </trkpt>
      <trkpt lat="40.634609" lon="-3.635669">
        <ele>699.507</ele>
        <time>2015-02-15T08:21:56Z</time>
      </trkpt>
      <trkpt lat="40.634638" lon="-3.635684">
        <ele>699.551</ele>
        <time>2015-02-15T08:21:57Z</time>
      </trkpt>
      <trkpt lat="40.634657" lon="-3.635711">
        <ele>699.651</ele>
        <time>2015-02-15T08:21:58Z</time>
      </trkpt>
      <trkpt lat="40.634680" lon="-3.635741">
        <ele>699.650</ele>
        <time>2015-02-15T08:21:59Z</time>
      </trkpt>
      <trkpt lat="40.634785" lon="-3.635821">
        <ele>699.624</ele>
        <time>2015-02-15T08:22:02Z</time>
      </trkpt>
      <trkpt lat="40.634809" lon="-3.635844">
        <ele>699.653</ele>
        <time>2015-02-15T08:22:03Z</time>
      </trkpt>
      <trkpt lat="40.634840" lon="-3.635865">
        <ele>699.639</ele>
        <time>2015-02-15T08:22:04Z</time>
      </trkpt>
      <trkpt lat="40.634884" lon="-3.635897">
        <ele>699.640</ele>
        <time>2015-02-15T08:22:06Z</time>
      </trkpt>
      <trkpt lat="40.634942" lon="-3.635948">
        <ele>699.641</ele>
        <time>2015-02-15T08:22:09Z</time>
      </trkpt>
      <trkpt lat="40.634968" lon="-3.635974">
        <ele>699.581</ele>
        <time>2015-02-15T08:22:10Z</time>
      </trkpt>
      <trkpt lat="40.635039" lon="-3.636027">
        <ele>699.409</ele>
        <time>2015-02-15T08:22:13Z</time>
      </trkpt>
      <trkpt lat="40.635102" lon="-3.636058">
        <ele>699.407</ele>
        <time>2015-02-15T08:22:14Z</time>
      </trkpt>
      <trkpt lat="40.635145" lon="-3.636090">
        <ele>699.352</ele>
        <time>2015-02-15T08:22:15Z</time>
      </trkpt>
      <trkpt lat="40.635182" lon="-3.636130">
        <ele>699.362</ele>
        <time>2015-02-15T08:22:16Z</time>
      </trkpt>
      <trkpt lat="40.635221" lon="-3.636165">
        <ele>699.391</ele>
        <time>2015-02-15T08:22:17Z</time>
      </trkpt>
      <trkpt lat="40.635262" lon="-3.636188">
        <ele>699.285</ele>
        <time>2015-02-15T08:22:18Z</time>
      </trkpt>
      <trkpt lat="40.635301" lon="-3.636199">
        <ele>699.244</ele>
        <time>2015-02-15T08:22:19Z</time>
      </trkpt>
      <trkpt lat="40.635341" lon="-3.636204">
        <ele>699.110</ele>
        <time>2015-02-15T08:22:20Z</time>
      </trkpt>
      <trkpt lat="40.635410" lon="-3.636226">
        <ele>699.071</ele>
        <time>2015-02-15T08:22:22Z</time>
      </trkpt>
      <trkpt lat="40.635474" lon="-3.636254">
        <ele>698.981</ele>
        <time>2015-02-15T08:22:24Z</time>
      </trkpt>
      <trkpt lat="40.635549" lon="-3.636278">
        <ele>698.761</ele>
        <time>2015-02-15T08:22:26Z</time>
      </trkpt>
      <trkpt lat="40.635641" lon="-3.636308">
        <ele>698.417</ele>
        <time>2015-02-15T08:22:29Z</time>
      </trkpt>
      <trkpt lat="40.635733" lon="-3.636337">
        <ele>698.207</ele>
        <time>2015-02-15T08:22:32Z</time>
      </trkpt>
      <trkpt lat="40.635792" lon="-3.636373">
        <ele>698.146</ele>
        <time>2015-02-15T08:22:34Z</time>
      </trkpt>
      <trkpt lat="40.635817" lon="-3.636394">
        <ele>698.046</ele>
        <time>2015-02-15T08:22:35Z</time>
      </trkpt>
      <trkpt lat="40.635848" lon="-3.636403">
        <ele>698.025</ele>
        <time>2015-02-15T08:22:36Z</time>
      </trkpt>
      <trkpt lat="40.635884" lon="-3.636412">
        <ele>697.939</ele>
        <time>2015-02-15T08:22:37Z</time>
      </trkpt>
      <trkpt lat="40.635916" lon="-3.636414">
        <ele>697.838</ele>
        <time>2015-02-15T08:22:38Z</time>
      </trkpt>
      <trkpt lat="40.635949" lon="-3.636412">
        <ele>697.844</ele>
        <time>2015-02-15T08:22:39Z</time>
      </trkpt>
      <trkpt lat="40.635980" lon="-3.636422">
        <ele>697.795</ele>
        <time>2015-02-15T08:22:40Z</time>
      </trkpt>
      <trkpt lat="40.636010" lon="-3.636429">
        <ele>697.764</ele>
        <time>2015-02-15T08:22:41Z</time>
      </trkpt>
      <trkpt lat="40.636106" lon="-3.636463">
        <ele>697.506</ele>
        <time>2015-02-15T08:22:44Z</time>
      </trkpt>
      <trkpt lat="40.636138" lon="-3.636466">
        <ele>697.516</ele>
        <time>2015-02-15T08:22:45Z</time>
      </trkpt>
      <trkpt lat="40.636229" lon="-3.636500">
        <ele>697.407</ele>
        <time>2015-02-15T08:22:48Z</time>
      </trkpt>
      <trkpt lat="40.636284" lon="-3.636509">
        <ele>697.354</ele>
        <time>2015-02-15T08:22:50Z</time>
      </trkpt>
      <trkpt lat="40.636314" lon="-3.636509">
        <ele>697.374</ele>
        <time>2015-02-15T08:22:51Z</time>
      </trkpt>
      <trkpt lat="40.636380" lon="-3.636518">
        <ele>697.263</ele>
        <time>2015-02-15T08:22:53Z</time>
      </trkpt>
      <trkpt lat="40.636449" lon="-3.636525">
        <ele>697.187</ele>
        <time>2015-02-15T08:22:55Z</time>
      </trkpt>
      <trkpt lat="40.636550" lon="-3.636552">
        <ele>697.066</ele>
        <time>2015-02-15T08:22:58Z</time>
      </trkpt>
      <trkpt lat="40.636580" lon="-3.636568">
        <ele>697.062</ele>
        <time>2015-02-15T08:23:00Z</time>
      </trkpt>
      <trkpt lat="40.636673" lon="-3.636606">
        <ele>697.063</ele>
        <time>2015-02-15T08:23:03Z</time>
      </trkpt>
      <trkpt lat="40.636727" lon="-3.636642">
        <ele>697.016</ele>
        <time>2015-02-15T08:23:05Z</time>
      </trkpt>
      <trkpt lat="40.636771" lon="-3.636682">
        <ele>697.176</ele>
        <time>2015-02-15T08:23:07Z</time>
      </trkpt>
      <trkpt lat="40.636791" lon="-3.636696">
        <ele>697.113</ele>
        <time>2015-02-15T08:23:08Z</time>
      </trkpt>
      <trkpt lat="40.636812" lon="-3.636700">
        <ele>697.207</ele>
        <time>2015-02-15T08:23:09Z</time>
      </trkpt>
      <trkpt lat="40.636839" lon="-3.636705">
        <ele>697.259</ele>
        <time>2015-02-15T08:23:10Z</time>
      </trkpt>
      <trkpt lat="40.636860" lon="-3.636726">
        <ele>697.369</ele>
        <time>2015-02-15T08:23:11Z</time>
      </trkpt>
      <trkpt lat="40.636887" lon="-3.636750">
        <ele>697.378</ele>
        <time>2015-02-15T08:23:12Z</time>
      </trkpt>
      <trkpt lat="40.636912" lon="-3.636767">
        <ele>697.382</ele>
        <time>2015-02-15T08:23:13Z</time>
      </trkpt>
      <trkpt lat="40.636974" lon="-3.636831">
        <ele>697.491</ele>
        <time>2015-02-15T08:23:16Z</time>
      </trkpt>
      <trkpt lat="40.637014" lon="-3.636881">
        <ele>697.597</ele>
        <time>2015-02-15T08:23:18Z</time>
      </trkpt>
      <trkpt lat="40.637036" lon="-3.636903">
        <ele>697.588</ele>
        <time>2015-02-15T08:23:19Z</time>
      </trkpt>
      <trkpt lat="40.637100" lon="-3.636972">
        <ele>697.612</ele>
        <time>2015-02-15T08:23:22Z</time>
      </trkpt>
      <trkpt lat="40.637169" lon="-3.637039">
        <ele>697.832</ele>
        <time>2015-02-15T08:23:25Z</time>
      </trkpt>
      <trkpt lat="40.637243" lon="-3.637108">
        <ele>698.005</ele>
        <time>2015-02-15T08:23:28Z</time>
      </trkpt>
      <trkpt lat="40.637313" lon="-3.637162">
        <ele>698.107</ele>
        <time>2015-02-15T08:23:31Z</time>
      </trkpt>
      <trkpt lat="40.637374" lon="-3.637203">
        <ele>698.269</ele>
        <time>2015-02-15T08:23:33Z</time>
      </trkpt>
      <trkpt lat="40.637409" lon="-3.637227">
        <ele>698.379</ele>
        <time>2015-02-15T08:23:34Z</time>
      </trkpt>
      <trkpt lat="40.637488" lon="-3.637279">
        <ele>698.388</ele>
        <time>2015-02-15T08:23:35Z</time>
      </trkpt>
      <trkpt lat="40.637530" lon="-3.637311">
        <ele>698.312</ele>
        <time>2015-02-15T08:23:36Z</time>
      </trkpt>
      <trkpt lat="40.637571" lon="-3.637345">
        <ele>698.321</ele>
        <time>2015-02-15T08:23:37Z</time>
      </trkpt>
      <trkpt lat="40.637606" lon="-3.637385">
        <ele>698.447</ele>
        <time>2015-02-15T08:23:38Z</time>
      </trkpt>
      <trkpt lat="40.637644" lon="-3.637432">
        <ele>698.478</ele>
        <time>2015-02-15T08:23:39Z</time>
      </trkpt>
      <trkpt lat="40.637679" lon="-3.637487">
        <ele>698.438</ele>
        <time>2015-02-15T08:23:40Z</time>
      </trkpt>
      <trkpt lat="40.637751" lon="-3.637604">
        <ele>698.370</ele>
        <time>2015-02-15T08:23:42Z</time>
      </trkpt>
      <trkpt lat="40.637830" lon="-3.637707">
        <ele>698.317</ele>
        <time>2015-02-15T08:23:44Z</time>
      </trkpt>
      <trkpt lat="40.637863" lon="-3.637748">
        <ele>698.207</ele>
        <time>2015-02-15T08:23:45Z</time>
      </trkpt>
      <trkpt lat="40.637921" lon="-3.637826">
        <ele>698.271</ele>
        <time>2015-02-15T08:23:47Z</time>
      </trkpt>
      <trkpt lat="40.637966" lon="-3.637898">
        <ele>698.271</ele>
        <time>2015-02-15T08:23:49Z</time>
      </trkpt>
      <trkpt lat="40.638032" lon="-3.638000">
        <ele>698.110</ele>
        <time>2015-02-15T08:23:52Z</time>
      </trkpt>
      <trkpt lat="40.638080" lon="-3.638071">
        <ele>698.164</ele>
        <time>2015-02-15T08:23:54Z</time>
      </trkpt>
      <trkpt lat="40.638175" lon="-3.638208">
        <ele>698.143</ele>
        <time>2015-02-15T08:23:58Z</time>
      </trkpt>
      <trkpt lat="40.638212" lon="-3.638235">
        <ele>698.159</ele>
        <time>2015-02-15T08:23:59Z</time>
      </trkpt>
      <trkpt lat="40.638300" lon="-3.638316">
        <ele>698.050</ele>
        <time>2015-02-15T08:24:02Z</time>
      </trkpt>
      <trkpt lat="40.638393" lon="-3.638393">
        <ele>698.078</ele>
        <time>2015-02-15T08:24:05Z</time>
      </trkpt>
      <trkpt lat="40.638424" lon="-3.638412">
        <ele>697.933</ele>
        <time>2015-02-15T08:24:06Z</time>
      </trkpt>
      <trkpt lat="40.638517" lon="-3.638480">
        <ele>697.826</ele>
        <time>2015-02-15T08:24:09Z</time>
      </trkpt>
      <trkpt lat="40.638643" lon="-3.638582">
        <ele>697.807</ele>
        <time>2015-02-15T08:24:13Z</time>
      </trkpt>
      <trkpt lat="40.638739" lon="-3.638659">
        <ele>697.885</ele>
        <time>2015-02-15T08:24:16Z</time>
      </trkpt>
      <trkpt lat="40.638824" lon="-3.638741">
        <ele>697.715</ele>
        <time>2015-02-15T08:24:19Z</time>
      </trkpt>
      <trkpt lat="40.638877" lon="-3.638796">
        <ele>697.624</ele>
        <time>2015-02-15T08:24:21Z</time>
      </trkpt>
      <trkpt lat="40.638900" lon="-3.638828">
        <ele>697.658</ele>
        <time>2015-02-15T08:24:22Z</time>
      </trkpt>
      <trkpt lat="40.638922" lon="-3.638865">
        <ele>697.557</ele>
        <time>2015-02-15T08:24:23Z</time>
      </trkpt>
      <trkpt lat="40.638960" lon="-3.638942">
        <ele>697.433</ele>
        <time>2015-02-15T08:24:26Z</time>
      </trkpt>
      <trkpt lat="40.638974" lon="-3.638986">
        <ele>697.344</ele>
        <time>2015-02-15T08:24:26Z</time>
      </trkpt>
      <trkpt lat="40.638999" lon="-3.639070">
        <ele>697.213</ele>
        <time>2015-02-15T08:24:28Z</time>
      </trkpt>
      <trkpt lat="40.639031" lon="-3.639190">
        <ele>697.043</ele>
        <time>2015-02-15T08:24:31Z</time>
      </trkpt>
      <trkpt lat="40.639060" lon="-3.639268">
        <ele>696.907</ele>
        <time>2015-02-15T08:24:34Z</time>
      </trkpt>
      <trkpt lat="40.639092" lon="-3.639338">
        <ele>696.807</ele>
        <time>2015-02-15T08:24:36Z</time>
      </trkpt>
      <trkpt lat="40.639116" lon="-3.639367">
        <ele>696.789</ele>
        <time>2015-02-15T08:24:37Z</time>
      </trkpt>
      <trkpt lat="40.639143" lon="-3.639396">
        <ele>696.739</ele>
        <time>2015-02-15T08:24:38Z</time>
      </trkpt>
      <trkpt lat="40.639199" lon="-3.639451">
        <ele>696.718</ele>
        <time>2015-02-15T08:24:40Z</time>
      </trkpt>
      <trkpt lat="40.639280" lon="-3.639533">
        <ele>696.772</ele>
        <time>2015-02-15T08:24:43Z</time>
      </trkpt>
      <trkpt lat="40.639350" lon="-3.639616">
        <ele>696.761</ele>
        <time>2015-02-15T08:24:46Z</time>
      </trkpt>
      <trkpt lat="40.639418" lon="-3.639712">
        <ele>696.827</ele>
        <time>2015-02-15T08:24:49Z</time>
      </trkpt>
      <trkpt lat="40.639456" lon="-3.639781">
        <ele>696.898</ele>
        <time>2015-02-15T08:24:51Z</time>
      </trkpt>
      <trkpt lat="40.639515" lon="-3.639884">
        <ele>696.938</ele>
        <time>2015-02-15T08:24:54Z</time>
      </trkpt>
      <trkpt lat="40.639556" lon="-3.639988">
        <ele>697.070</ele>
        <time>2015-02-15T08:24:56Z</time>
      </trkpt>
      <trkpt lat="40.639597" lon="-3.640091">
        <ele>697.117</ele>
        <time>2015-02-15T08:24:59Z</time>
      </trkpt>
      <trkpt lat="40.639641" lon="-3.640190">
        <ele>697.207</ele>
        <time>2015-02-15T08:25:02Z</time>
      </trkpt>
      <trkpt lat="40.639658" lon="-3.640220">
        <ele>697.261</ele>
        <time>2015-02-15T08:25:03Z</time>
      </trkpt>
      <trkpt lat="40.639702" lon="-3.640315">
        <ele>697.371</ele>
        <time>2015-02-15T08:25:06Z</time>
      </trkpt>
      <trkpt lat="40.639715" lon="-3.640347">
        <ele>697.440</ele>
        <time>2015-02-15T08:25:07Z</time>
      </trkpt>
      <trkpt lat="40.639759" lon="-3.640439">
        <ele>697.534</ele>
        <time>2015-02-15T08:25:10Z</time>
      </trkpt>
      <trkpt lat="40.639780" lon="-3.640466">
        <ele>697.573</ele>
        <time>2015-02-15T08:25:11Z</time>
      </trkpt>
      <trkpt lat="40.639806" lon="-3.640494">
        <ele>697.599</ele>
        <time>2015-02-15T08:25:12Z</time>
      </trkpt>
      <trkpt lat="40.639859" lon="-3.640537">
        <ele>697.690</ele>
        <time>2015-02-15T08:25:14Z</time>
      </trkpt>
      <trkpt lat="40.639885" lon="-3.640555">
        <ele>697.773</ele>
        <time>2015-02-15T08:25:15Z</time>
      </trkpt>
      <trkpt lat="40.639913" lon="-3.640582">
        <ele>697.785</ele>
        <time>2015-02-15T08:25:16Z</time>
      </trkpt>
      <trkpt lat="40.639935" lon="-3.640613">
        <ele>697.813</ele>
        <time>2015-02-15T08:25:17Z</time>
      </trkpt>
      <trkpt lat="40.639933" lon="-3.640662">
        <ele>697.807</ele>
        <time>2015-02-15T08:25:18Z</time>
      </trkpt>
      <trkpt lat="40.639949" lon="-3.640699">
        <ele>697.965</ele>
        <time>2015-02-15T08:25:19Z</time>
      </trkpt>
      <trkpt lat="40.639963" lon="-3.640740">
        <ele>697.985</ele>
        <time>2015-02-15T08:25:20Z</time>
      </trkpt>
      <trkpt lat="40.640011" lon="-3.640850">
        <ele>698.184</ele>
        <time>2015-02-15T08:25:23Z</time>
      </trkpt>
      <trkpt lat="40.640033" lon="-3.640873">
        <ele>698.118</ele>
        <time>2015-02-15T08:25:24Z</time>
      </trkpt>
      <trkpt lat="40.640087" lon="-3.640956">
        <ele>698.257</ele>
        <time>2015-02-15T08:25:27Z</time>
      </trkpt>
      <trkpt lat="40.640118" lon="-3.641025">
        <ele>698.393</ele>
        <time>2015-02-15T08:25:29Z</time>
      </trkpt>
      <trkpt lat="40.640161" lon="-3.641134">
        <ele>698.394</ele>
        <time>2015-02-15T08:25:32Z</time>
      </trkpt>
      <trkpt lat="40.640174" lon="-3.641183">
        <ele>698.345</ele>
        <time>2015-02-15T08:25:33Z</time>
      </trkpt>
      <trkpt lat="40.640187" lon="-3.641280">
        <ele>698.347</ele>
        <time>2015-02-15T08:25:35Z</time>
      </trkpt>
      <trkpt lat="40.640207" lon="-3.641379">
        <ele>698.411</ele>
        <time>2015-02-15T08:25:37Z</time>
      </trkpt>
      <trkpt lat="40.640242" lon="-3.641531">
        <ele>698.407</ele>
        <time>2015-02-15T08:25:40Z</time>
      </trkpt>
      <trkpt lat="40.640280" lon="-3.641667">
        <ele>698.472</ele>
        <time>2015-02-15T08:25:43Z</time>
      </trkpt>
      <trkpt lat="40.640294" lon="-3.641701">
        <ele>698.472</ele>
        <time>2015-02-15T08:25:44Z</time>
      </trkpt>
      <trkpt lat="40.640343" lon="-3.641807">
        <ele>698.441</ele>
        <time>2015-02-15T08:25:47Z</time>
      </trkpt>
      <trkpt lat="40.640371" lon="-3.641886">
        <ele>698.495</ele>
        <time>2015-02-15T08:25:49Z</time>
      </trkpt>
      <trkpt lat="40.640422" lon="-3.642001">
        <ele>698.494</ele>
        <time>2015-02-15T08:25:52Z</time>
      </trkpt>
      <trkpt lat="40.640476" lon="-3.642107">
        <ele>698.390</ele>
        <time>2015-02-15T08:25:55Z</time>
      </trkpt>
      <trkpt lat="40.640525" lon="-3.642220">
        <ele>698.391</ele>
        <time>2015-02-15T08:25:58Z</time>
      </trkpt>
      <trkpt lat="40.640535" lon="-3.642263">
        <ele>698.329</ele>
        <time>2015-02-15T08:25:59Z</time>
      </trkpt>
      <trkpt lat="40.640572" lon="-3.642401">
        <ele>698.200</ele>
        <time>2015-02-15T08:26:03Z</time>
      </trkpt>
      <trkpt lat="40.640628" lon="-3.642587">
        <ele>698.120</ele>
        <time>2015-02-15T08:26:07Z</time>
      </trkpt>
      <trkpt lat="40.640673" lon="-3.642734">
        <ele>698.007</ele>
        <time>2015-02-15T08:26:10Z</time>
      </trkpt>
      <trkpt lat="40.640723" lon="-3.642888">
        <ele>697.920</ele>
        <time>2015-02-15T08:26:13Z</time>
      </trkpt>
      <trkpt lat="40.640775" lon="-3.643049">
        <ele>697.790</ele>
        <time>2015-02-15T08:26:16Z</time>
      </trkpt>
      <trkpt lat="40.640833" lon="-3.643205">
        <ele>697.589</ele>
        <time>2015-02-15T08:26:19Z</time>
      </trkpt>
      <trkpt lat="40.640904" lon="-3.643399">
        <ele>697.373</ele>
        <time>2015-02-15T08:26:23Z</time>
      </trkpt>
      <trkpt lat="40.640963" lon="-3.643535">
        <ele>697.262</ele>
        <time>2015-02-15T08:26:26Z</time>
      </trkpt>
      <trkpt lat="40.641008" lon="-3.643716">
        <ele>697.188</ele>
        <time>2015-02-15T08:26:29Z</time>
      </trkpt>
      <trkpt lat="40.641023" lon="-3.643845">
        <ele>697.119</ele>
        <time>2015-02-15T08:26:32Z</time>
      </trkpt>
      <trkpt lat="40.641035" lon="-3.643885">
        <ele>697.137</ele>
        <time>2015-02-15T08:26:33Z</time>
      </trkpt>
      <trkpt lat="40.641048" lon="-3.643923">
        <ele>697.149</ele>
        <time>2015-02-15T08:26:34Z</time>
      </trkpt>
      <trkpt lat="40.641080" lon="-3.643999">
        <ele>697.113</ele>
        <time>2015-02-15T08:26:36Z</time>
      </trkpt>
      <trkpt lat="40.641133" lon="-3.644102">
        <ele>697.207</ele>
        <time>2015-02-15T08:26:39Z</time>
      </trkpt>
      <trkpt lat="40.641177" lon="-3.644164">
        <ele>697.281</ele>
        <time>2015-02-15T08:26:41Z</time>
      </trkpt>
      <trkpt lat="40.641204" lon="-3.644192">
        <ele>697.281</ele>
        <time>2015-02-15T08:26:42Z</time>
      </trkpt>
      <trkpt lat="40.641252" lon="-3.644255">
        <ele>697.270</ele>
        <time>2015-02-15T08:26:44Z</time>
      </trkpt>
      <trkpt lat="40.641323" lon="-3.644338">
        <ele>697.394</ele>
        <time>2015-02-15T08:26:47Z</time>
      </trkpt>
      <trkpt lat="40.641399" lon="-3.644417">
        <ele>697.343</ele>
        <time>2015-02-15T08:26:50Z</time>
      </trkpt>
      <trkpt lat="40.641498" lon="-3.644528">
        <ele>697.449</ele>
        <time>2015-02-15T08:26:54Z</time>
      </trkpt>
      <trkpt lat="40.641565" lon="-3.644613">
        <ele>697.480</ele>
        <time>2015-02-15T08:26:57Z</time>
      </trkpt>
      <trkpt lat="40.641628" lon="-3.644701">
        <ele>697.648</ele>
        <time>2015-02-15T08:27:00Z</time>
      </trkpt>
      <trkpt lat="40.641686" lon="-3.644795">
        <ele>697.761</ele>
        <time>2015-02-15T08:27:03Z</time>
      </trkpt>
      <trkpt lat="40.641738" lon="-3.644889">
        <ele>697.817</ele>
        <time>2015-02-15T08:27:06Z</time>
      </trkpt>
      <trkpt lat="40.641797" lon="-3.644985">
        <ele>698.107</ele>
        <time>2015-02-15T08:27:09Z</time>
      </trkpt>
      <trkpt lat="40.641853" lon="-3.645078">
        <ele>698.392</ele>
        <time>2015-02-15T08:27:12Z</time>
      </trkpt>
      <trkpt lat="40.641871" lon="-3.645107">
        <ele>698.472</ele>
        <time>2015-02-15T08:27:13Z</time>
      </trkpt>
      <trkpt lat="40.641922" lon="-3.645200">
        <ele>698.891</ele>
        <time>2015-02-15T08:27:16Z</time>
      </trkpt>
      <trkpt lat="40.641970" lon="-3.645288">
        <ele>699.125</ele>
        <time>2015-02-15T08:27:19Z</time>
      </trkpt>
      <trkpt lat="40.641991" lon="-3.645359">
        <ele>699.374</ele>
        <time>2015-02-15T08:27:21Z</time>
      </trkpt>
      <trkpt lat="40.642027" lon="-3.645470">
        <ele>699.630</ele>
        <time>2015-02-15T08:27:24Z</time>
      </trkpt>
      <trkpt lat="40.642035" lon="-3.645507">
        <ele>699.781</ele>
        <time>2015-02-15T08:27:25Z</time>
      </trkpt>
      <trkpt lat="40.642060" lon="-3.645619">
        <ele>700.028</ele>
        <time>2015-02-15T08:27:28Z</time>
      </trkpt>
      <trkpt lat="40.642078" lon="-3.645734">
        <ele>700.389</ele>
        <time>2015-02-15T08:27:32Z</time>
      </trkpt>
      <trkpt lat="40.642088" lon="-3.645860">
        <ele>700.617</ele>
        <time>2015-02-15T08:27:35Z</time>
      </trkpt>
      <trkpt lat="40.642102" lon="-3.645980">
        <ele>700.907</ele>
        <time>2015-02-15T08:27:38Z</time>
      </trkpt>
      <trkpt lat="40.642126" lon="-3.646098">
        <ele>701.240</ele>
        <time>2015-02-15T08:27:41Z</time>
      </trkpt>
      <trkpt lat="40.642142" lon="-3.646172">
        <ele>701.420</ele>
        <time>2015-02-15T08:27:43Z</time>
      </trkpt>
      <trkpt lat="40.642172" lon="-3.646276">
        <ele>701.789</ele>
        <time>2015-02-15T08:27:46Z</time>
      </trkpt>
      <trkpt lat="40.642206" lon="-3.646379">
        <ele>702.163</ele>
        <time>2015-02-15T08:27:49Z</time>
      </trkpt>
      <trkpt lat="40.642248" lon="-3.646483">
        <ele>702.442</ele>
        <time>2015-02-15T08:27:52Z</time>
      </trkpt>
      <trkpt lat="40.642299" lon="-3.646581">
        <ele>702.768</ele>
        <time>2015-02-15T08:27:55Z</time>
      </trkpt>
      <trkpt lat="40.642371" lon="-3.646740">
        <ele>703.099</ele>
        <time>2015-02-15T08:27:59Z</time>
      </trkpt>
      <trkpt lat="40.642406" lon="-3.646806">
        <ele>703.219</ele>
        <time>2015-02-15T08:28:01Z</time>
      </trkpt>
      <trkpt lat="40.642432" lon="-3.646877">
        <ele>703.309</ele>
        <time>2015-02-15T08:28:03Z</time>
      </trkpt>
      <trkpt lat="40.642481" lon="-3.646989">
        <ele>703.519</ele>
        <time>2015-02-15T08:28:06Z</time>
      </trkpt>
      <trkpt lat="40.642518" lon="-3.647056">
        <ele>703.607</ele>
        <time>2015-02-15T08:28:08Z</time>
      </trkpt>
      <trkpt lat="40.642540" lon="-3.647085">
        <ele>703.749</ele>
        <time>2015-02-15T08:28:09Z</time>
      </trkpt>
      <trkpt lat="40.642561" lon="-3.647112">
        <ele>703.849</ele>
        <time>2015-02-15T08:28:10Z</time>
      </trkpt>
      <trkpt lat="40.642628" lon="-3.647206">
        <ele>703.928</ele>
        <time>2015-02-15T08:28:13Z</time>
      </trkpt>
      <trkpt lat="40.642668" lon="-3.647278">
        <ele>704.032</ele>
        <time>2015-02-15T08:28:15Z</time>
      </trkpt>
      <trkpt lat="40.642702" lon="-3.647357">
        <ele>704.111</ele>
        <time>2015-02-15T08:28:17Z</time>
      </trkpt>
      <trkpt lat="40.642777" lon="-3.647509">
        <ele>704.287</ele>
        <time>2015-02-15T08:28:21Z</time>
      </trkpt>
      <trkpt lat="40.642819" lon="-3.647573">
        <ele>704.368</ele>
        <time>2015-02-15T08:28:23Z</time>
      </trkpt>
      <trkpt lat="40.642844" lon="-3.647602">
        <ele>704.394</ele>
        <time>2015-02-15T08:28:24Z</time>
      </trkpt>
      <trkpt lat="40.642895" lon="-3.647645">
        <ele>704.457</ele>
        <time>2015-02-15T08:28:26Z</time>
      </trkpt>
      <trkpt lat="40.642970" lon="-3.647707">
        <ele>704.522</ele>
        <time>2015-02-15T08:28:29Z</time>
      </trkpt>
      <trkpt lat="40.642991" lon="-3.647733">
        <ele>704.507</ele>
        <time>2015-02-15T08:28:30Z</time>
      </trkpt>
      <trkpt lat="40.643008" lon="-3.647762">
        <ele>704.587</ele>
        <time>2015-02-15T08:28:31Z</time>
      </trkpt>
      <trkpt lat="40.643021" lon="-3.647789">
        <ele>704.697</ele>
        <time>2015-02-15T08:28:32Z</time>
      </trkpt>
      <trkpt lat="40.643082" lon="-3.647866">
        <ele>704.646</ele>
        <time>2015-02-15T08:28:35Z</time>
      </trkpt>
      <trkpt lat="40.643122" lon="-3.647909">
        <ele>704.750</ele>
        <time>2015-02-15T08:28:37Z</time>
      </trkpt>
      <trkpt lat="40.643184" lon="-3.647979">
        <ele>704.739</ele>
        <time>2015-02-15T08:28:40Z</time>
      </trkpt>
      <trkpt lat="40.643219" lon="-3.648032">
        <ele>704.715</ele>
        <time>2015-02-15T08:28:42Z</time>
      </trkpt>
      <trkpt lat="40.643233" lon="-3.648062">
        <ele>704.716</ele>
        <time>2015-02-15T08:28:43Z</time>
      </trkpt>
      <trkpt lat="40.643262" lon="-3.648122">
        <ele>704.699</ele>
        <time>2015-02-15T08:28:45Z</time>
      </trkpt>
      <trkpt lat="40.643284" lon="-3.648153">
        <ele>704.607</ele>
        <time>2015-02-15T08:28:46Z</time>
      </trkpt>
      <trkpt lat="40.643366" lon="-3.648274">
        <ele>704.527</ele>
        <time>2015-02-15T08:28:50Z</time>
      </trkpt>
      <trkpt lat="40.643395" lon="-3.648299">
        <ele>704.507</ele>
        <time>2015-02-15T08:28:51Z</time>
      </trkpt>
      <trkpt lat="40.643462" lon="-3.648375">
        <ele>704.597</ele>
        <time>2015-02-15T08:28:55Z</time>
      </trkpt>
      <trkpt lat="40.643505" lon="-3.648432">
        <ele>704.527</ele>
        <time>2015-02-15T08:28:56Z</time>
      </trkpt>
      <trkpt lat="40.643530" lon="-3.648461">
        <ele>704.536</ele>
        <time>2015-02-15T08:28:57Z</time>
      </trkpt>
      <trkpt lat="40.643590" lon="-3.648531">
        <ele>704.430</ele>
        <time>2015-02-15T08:29:01Z</time>
      </trkpt>
      <trkpt lat="40.643655" lon="-3.648617">
        <ele>704.589</ele>
        <time>2015-02-15T08:29:04Z</time>
      </trkpt>
      <trkpt lat="40.643695" lon="-3.648683">
        <ele>704.545</ele>
        <time>2015-02-15T08:29:06Z</time>
      </trkpt>
      <trkpt lat="40.643726" lon="-3.648753">
        <ele>704.546</ele>
        <time>2015-02-15T08:29:08Z</time>
      </trkpt>
      <trkpt lat="40.643765" lon="-3.648849">
        <ele>704.596</ele>
        <time>2015-02-15T08:29:11Z</time>
      </trkpt>
      <trkpt lat="40.643789" lon="-3.648922">
        <ele>704.531</ele>
        <time>2015-02-15T08:29:13Z</time>
      </trkpt>
      <trkpt lat="40.643827" lon="-3.649033">
        <ele>704.524</ele>
        <time>2015-02-15T08:29:16Z</time>
      </trkpt>
      <trkpt lat="40.643837" lon="-3.649070">
        <ele>704.507</ele>
        <time>2015-02-15T08:29:17Z</time>
      </trkpt>
      <trkpt lat="40.643865" lon="-3.649140">
        <ele>704.537</ele>
        <time>2015-02-15T08:29:19Z</time>
      </trkpt>
      <trkpt lat="40.643884" lon="-3.649203">
        <ele>704.677</ele>
        <time>2015-02-15T08:29:21Z</time>
      </trkpt>
      <trkpt lat="40.643910" lon="-3.649300">
        <ele>704.746</ele>
        <time>2015-02-15T08:29:24Z</time>
      </trkpt>
      <trkpt lat="40.643912" lon="-3.649336">
        <ele>704.720</ele>
        <time>2015-02-15T08:29:25Z</time>
      </trkpt>
      <trkpt lat="40.643913" lon="-3.649373">
        <ele>704.769</ele>
        <time>2015-02-15T08:29:26Z</time>
      </trkpt>
      <trkpt lat="40.643914" lon="-3.649409">
        <ele>704.845</ele>
        <time>2015-02-15T08:29:27Z</time>
      </trkpt>
      <trkpt lat="40.643911" lon="-3.649482">
        <ele>704.916</ele>
        <time>2015-02-15T08:29:29Z</time>
      </trkpt>
      <trkpt lat="40.643904" lon="-3.649604">
        <ele>705.035</ele>
        <time>2015-02-15T08:29:32Z</time>
      </trkpt>
      <trkpt lat="40.643891" lon="-3.649726">
        <ele>705.086</ele>
        <time>2015-02-15T08:29:34Z</time>
      </trkpt>
      <trkpt lat="40.643879" lon="-3.649844">
        <ele>705.214</ele>
        <time>2015-02-15T08:29:37Z</time>
      </trkpt>
      <trkpt lat="40.643869" lon="-3.649914">
        <ele>705.307</ele>
        <time>2015-02-15T08:29:39Z</time>
      </trkpt>
      <trkpt lat="40.643857" lon="-3.650050">
        <ele>705.561</ele>
        <time>2015-02-15T08:29:43Z</time>
      </trkpt>
      <trkpt lat="40.643844" lon="-3.650156">
        <ele>705.811</ele>
        <time>2015-02-15T08:29:46Z</time>
      </trkpt>
      <trkpt lat="40.643840" lon="-3.650257">
        <ele>706.160</ele>
        <time>2015-02-15T08:29:49Z</time>
      </trkpt>
      <trkpt lat="40.643847" lon="-3.650358">
        <ele>706.454</ele>
        <time>2015-02-15T08:29:52Z</time>
      </trkpt>
      <trkpt lat="40.643856" lon="-3.650387">
        <ele>706.513</ele>
        <time>2015-02-15T08:29:53Z</time>
      </trkpt>
      <trkpt lat="40.643871" lon="-3.650415">
        <ele>706.679</ele>
        <time>2015-02-15T08:29:54Z</time>
      </trkpt>
      <trkpt lat="40.643900" lon="-3.650473">
        <ele>706.870</ele>
        <time>2015-02-15T08:29:56Z</time>
      </trkpt>
      <trkpt lat="40.643923" lon="-3.650532">
        <ele>706.981</ele>
        <time>2015-02-15T08:29:58Z</time>
      </trkpt>
      <trkpt lat="40.643936" lon="-3.650596">
        <ele>707.161</ele>
        <time>2015-02-15T08:30:00Z</time>
      </trkpt>
      <trkpt lat="40.643949" lon="-3.650665">
        <ele>707.217</ele>
        <time>2015-02-15T08:30:02Z</time>
      </trkpt>
      <trkpt lat="40.643976" lon="-3.650764">
        <ele>707.407</ele>
        <time>2015-02-15T08:30:05Z</time>
      </trkpt>
      <trkpt lat="40.643999" lon="-3.650829">
        <ele>707.636</ele>
        <time>2015-02-15T08:30:07Z</time>
      </trkpt>
      <trkpt lat="40.644035" lon="-3.650923">
        <ele>707.816</ele>
        <time>2015-02-15T08:30:10Z</time>
      </trkpt>
      <trkpt lat="40.644080" lon="-3.651012">
        <ele>708.095</ele>
        <time>2015-02-15T08:30:13Z</time>
      </trkpt>
      <trkpt lat="40.644126" lon="-3.651097">
        <ele>708.379</ele>
        <time>2015-02-15T08:30:16Z</time>
      </trkpt>
      <trkpt lat="40.644182" lon="-3.651171">
        <ele>708.598</ele>
        <time>2015-02-15T08:30:19Z</time>
      </trkpt>
      <trkpt lat="40.644202" lon="-3.651188">
        <ele>708.684</ele>
        <time>2015-02-15T08:30:20Z</time>
      </trkpt>
      <trkpt lat="40.644225" lon="-3.651201">
        <ele>708.735</ele>
        <time>2015-02-15T08:30:21Z</time>
      </trkpt>
      <trkpt lat="40.644247" lon="-3.651210">
        <ele>708.748</ele>
        <time>2015-02-15T08:30:22Z</time>
      </trkpt>
      <trkpt lat="40.644320" lon="-3.651260">
        <ele>708.961</ele>
        <time>2015-02-15T08:30:25Z</time>
      </trkpt>
      <trkpt lat="40.644389" lon="-3.651316">
        <ele>709.117</ele>
        <time>2015-02-15T08:30:28Z</time>
      </trkpt>
      <trkpt lat="40.644455" lon="-3.651376">
        <ele>709.307</ele>
        <time>2015-02-15T08:30:31Z</time>
      </trkpt>
      <trkpt lat="40.644525" lon="-3.651443">
        <ele>709.572</ele>
        <time>2015-02-15T08:30:35Z</time>
      </trkpt>
      <trkpt lat="40.644586" lon="-3.651501">
        <ele>709.712</ele>
        <time>2015-02-15T08:30:38Z</time>
      </trkpt>
      <trkpt lat="40.644643" lon="-3.651565">
        <ele>710.081</ele>
        <time>2015-02-15T08:30:41Z</time>
      </trkpt>
      <trkpt lat="40.644714" lon="-3.651616">
        <ele>710.265</ele>
        <time>2015-02-15T08:30:44Z</time>
      </trkpt>
      <trkpt lat="40.644737" lon="-3.651629">
        <ele>710.394</ele>
        <time>2015-02-15T08:30:45Z</time>
      </trkpt>
      <trkpt lat="40.644788" lon="-3.651643">
        <ele>710.430</ele>
        <time>2015-02-15T08:30:46Z</time>
      </trkpt>
      <trkpt lat="40.644810" lon="-3.651647">
        <ele>710.581</ele>
        <time>2015-02-15T08:30:47Z</time>
      </trkpt>
      <trkpt lat="40.644840" lon="-3.651650">
        <ele>710.542</ele>
        <time>2015-02-15T08:30:48Z</time>
      </trkpt>
      <trkpt lat="40.644922" lon="-3.651668">
        <ele>710.722</ele>
        <time>2015-02-15T08:30:51Z</time>
      </trkpt>
      <trkpt lat="40.644941" lon="-3.651686">
        <ele>710.814</ele>
        <time>2015-02-15T08:30:52Z</time>
      </trkpt>
      <trkpt lat="40.644964" lon="-3.651711">
        <ele>710.907</ele>
        <time>2015-02-15T08:30:53Z</time>
      </trkpt>
      <trkpt lat="40.644982" lon="-3.651738">
        <ele>710.972</ele>
        <time>2015-02-15T08:30:54Z</time>
      </trkpt>
      <trkpt lat="40.645045" lon="-3.651798">
        <ele>711.242</ele>
        <time>2015-02-15T08:30:57Z</time>
      </trkpt>
      <trkpt lat="40.645110" lon="-3.651847">
        <ele>711.421</ele>
        <time>2015-02-15T08:31:00Z</time>
      </trkpt>
      <trkpt lat="40.645148" lon="-3.651882">
        <ele>711.625</ele>
        <time>2015-02-15T08:31:02Z</time>
      </trkpt>
      <trkpt lat="40.645214" lon="-3.651933">
        <ele>711.974</ele>
        <time>2015-02-15T08:31:05Z</time>
      </trkpt>
      <trkpt lat="40.645281" lon="-3.651981">
        <ele>712.290</ele>
        <time>2015-02-15T08:31:08Z</time>
      </trkpt>
      <trkpt lat="40.645307" lon="-3.651989">
        <ele>712.241</ele>
        <time>2015-02-15T08:31:09Z</time>
      </trkpt>
      <trkpt lat="40.645332" lon="-3.651997">
        <ele>712.369</ele>
        <time>2015-02-15T08:31:10Z</time>
      </trkpt>
      <trkpt lat="40.645357" lon="-3.651999">
        <ele>712.404</ele>
        <time>2015-02-15T08:31:11Z</time>
      </trkpt>
      <trkpt lat="40.645409" lon="-3.652005">
        <ele>712.524</ele>
        <time>2015-02-15T08:31:13Z</time>
      </trkpt>
      <trkpt lat="40.645457" lon="-3.652020">
        <ele>712.707</ele>
        <time>2015-02-15T08:31:15Z</time>
      </trkpt>
      <trkpt lat="40.645503" lon="-3.652025">
        <ele>712.964</ele>
        <time>2015-02-15T08:31:17Z</time>
      </trkpt>
      <trkpt lat="40.645528" lon="-3.652026">
        <ele>712.914</ele>
        <time>2015-02-15T08:31:18Z</time>
      </trkpt>
      <trkpt lat="40.645612" lon="-3.652027">
        <ele>713.283</ele>
        <time>2015-02-15T08:31:21Z</time>
      </trkpt>
      <trkpt lat="40.645701" lon="-3.652031">
        <ele>713.477</ele>
        <time>2015-02-15T08:31:24Z</time>
      </trkpt>
      <trkpt lat="40.645791" lon="-3.652041">
        <ele>713.736</ele>
        <time>2015-02-15T08:31:27Z</time>
      </trkpt>
      <trkpt lat="40.645875" lon="-3.652055">
        <ele>714.192</ele>
        <time>2015-02-15T08:31:30Z</time>
      </trkpt>
      <trkpt lat="40.645984" lon="-3.652071">
        <ele>714.443</ele>
        <time>2015-02-15T08:31:34Z</time>
      </trkpt>
      <trkpt lat="40.646039" lon="-3.652090">
        <ele>714.522</ele>
        <time>2015-02-15T08:31:36Z</time>
      </trkpt>
      <trkpt lat="40.646062" lon="-3.652109">
        <ele>714.662</ele>
        <time>2015-02-15T08:31:38Z</time>
      </trkpt>
      <trkpt lat="40.646085" lon="-3.652127">
        <ele>714.808</ele>
        <time>2015-02-15T08:31:39Z</time>
      </trkpt>
      <trkpt lat="40.646109" lon="-3.652149">
        <ele>714.807</ele>
        <time>2015-02-15T08:31:40Z</time>
      </trkpt>
      <trkpt lat="40.646177" lon="-3.652206">
        <ele>715.210</ele>
        <time>2015-02-15T08:31:43Z</time>
      </trkpt>
      <trkpt lat="40.646241" lon="-3.652268">
        <ele>715.430</ele>
        <time>2015-02-15T08:31:46Z</time>
      </trkpt>
      <trkpt lat="40.646285" lon="-3.652300">
        <ele>715.619</ele>
        <time>2015-02-15T08:31:48Z</time>
      </trkpt>
      <trkpt lat="40.646343" lon="-3.652359">
        <ele>716.073</ele>
        <time>2015-02-15T08:31:51Z</time>
      </trkpt>
      <trkpt lat="40.646357" lon="-3.652382">
        <ele>716.182</ele>
        <time>2015-02-15T08:31:52Z</time>
      </trkpt>
      <trkpt lat="40.646403" lon="-3.652450">
        <ele>716.428</ele>
        <time>2015-02-15T08:31:55Z</time>
      </trkpt>
      <trkpt lat="40.646435" lon="-3.652506">
        <ele>716.549</ele>
        <time>2015-02-15T08:31:57Z</time>
      </trkpt>
      <trkpt lat="40.646486" lon="-3.652586">
        <ele>716.862</ele>
        <time>2015-02-15T08:32:00Z</time>
      </trkpt>
      <trkpt lat="40.646524" lon="-3.652634">
        <ele>716.883</ele>
        <time>2015-02-15T08:32:01Z</time>
      </trkpt>
      <trkpt lat="40.646592" lon="-3.652698">
        <ele>717.011</ele>
        <time>2015-02-15T08:32:04Z</time>
      </trkpt>
      <trkpt lat="40.646622" lon="-3.652712">
        <ele>717.107</ele>
        <time>2015-02-15T08:32:05Z</time>
      </trkpt>
      <trkpt lat="40.646653" lon="-3.652732">
        <ele>717.154</ele>
        <time>2015-02-15T08:32:06Z</time>
      </trkpt>
      <trkpt lat="40.646683" lon="-3.652763">
        <ele>717.274</ele>
        <time>2015-02-15T08:32:07Z</time>
      </trkpt>
      <trkpt lat="40.646711" lon="-3.652797">
        <ele>717.243</ele>
        <time>2015-02-15T08:32:08Z</time>
      </trkpt>
      <trkpt lat="40.646748" lon="-3.652826">
        <ele>717.287</ele>
        <time>2015-02-15T08:32:09Z</time>
      </trkpt>
      <trkpt lat="40.646815" lon="-3.652895">
        <ele>717.326</ele>
        <time>2015-02-15T08:32:11Z</time>
      </trkpt>
      <trkpt lat="40.646838" lon="-3.652947">
        <ele>717.332</ele>
        <time>2015-02-15T08:32:12Z</time>
      </trkpt>
      <trkpt lat="40.646863" lon="-3.652998">
        <ele>717.383</ele>
        <time>2015-02-15T08:32:13Z</time>
      </trkpt>
      <trkpt lat="40.646923" lon="-3.653152">
        <ele>717.452</ele>
        <time>2015-02-15T08:32:16Z</time>
      </trkpt>
      <trkpt lat="40.646925" lon="-3.653209">
        <ele>717.453</ele>
        <time>2015-02-15T08:32:17Z</time>
      </trkpt>
      <trkpt lat="40.646928" lon="-3.653266">
        <ele>717.308</ele>
        <time>2015-02-15T08:32:18Z</time>
      </trkpt>
      <trkpt lat="40.646924" lon="-3.653384">
        <ele>717.207</ele>
        <time>2015-02-15T08:32:20Z</time>
      </trkpt>
      <trkpt lat="40.646913" lon="-3.653486">
        <ele>717.163</ele>
        <time>2015-02-15T08:32:22Z</time>
      </trkpt>
      <trkpt lat="40.646913" lon="-3.653529">
        <ele>717.153</ele>
        <time>2015-02-15T08:32:23Z</time>
      </trkpt>
      <trkpt lat="40.646919" lon="-3.653567">
        <ele>717.032</ele>
        <time>2015-02-15T08:32:24Z</time>
      </trkpt>
      <trkpt lat="40.646920" lon="-3.653658">
        <ele>716.926</ele>
        <time>2015-02-15T08:32:26Z</time>
      </trkpt>
      <trkpt lat="40.646925" lon="-3.653762">
        <ele>716.765</ele>
        <time>2015-02-15T08:32:28Z</time>
      </trkpt>
      <trkpt lat="40.646939" lon="-3.653922">
        <ele>716.581</ele>
        <time>2015-02-15T08:32:31Z</time>
      </trkpt>
      <trkpt lat="40.646967" lon="-3.654032">
        <ele>716.362</ele>
        <time>2015-02-15T08:32:33Z</time>
      </trkpt>
      <trkpt lat="40.646986" lon="-3.654084">
        <ele>716.174</ele>
        <time>2015-02-15T08:32:34Z</time>
      </trkpt>
      <trkpt lat="40.647010" lon="-3.654139">
        <ele>716.056</ele>
        <time>2015-02-15T08:32:35Z</time>
      </trkpt>
      <trkpt lat="40.647040" lon="-3.654192">
        <ele>715.921</ele>
        <time>2015-02-15T08:32:36Z</time>
      </trkpt>
      <trkpt lat="40.647123" lon="-3.654344">
        <ele>715.507</ele>
        <time>2015-02-15T08:32:39Z</time>
      </trkpt>
      <trkpt lat="40.647186" lon="-3.654423">
        <ele>715.245</ele>
        <time>2015-02-15T08:32:41Z</time>
      </trkpt>
      <trkpt lat="40.647221" lon="-3.654458">
        <ele>715.035</ele>
        <time>2015-02-15T08:32:42Z</time>
      </trkpt>
      <trkpt lat="40.647329" lon="-3.654557">
        <ele>714.534</ele>
        <time>2015-02-15T08:32:45Z</time>
      </trkpt>
      <trkpt lat="40.647359" lon="-3.654597">
        <ele>714.398</ele>
        <time>2015-02-15T08:32:46Z</time>
      </trkpt>
      <trkpt lat="40.647385" lon="-3.654634">
        <ele>714.187</ele>
        <time>2015-02-15T08:32:47Z</time>
      </trkpt>
      <trkpt lat="40.647406" lon="-3.654683">
        <ele>713.983</ele>
        <time>2015-02-15T08:32:48Z</time>
      </trkpt>
      <trkpt lat="40.647426" lon="-3.654732">
        <ele>713.724</ele>
        <time>2015-02-15T08:32:49Z</time>
      </trkpt>
      <trkpt lat="40.647440" lon="-3.654790">
        <ele>713.436</ele>
        <time>2015-02-15T08:32:50Z</time>
      </trkpt>
      <trkpt lat="40.647452" lon="-3.654849">
        <ele>713.217</ele>
        <time>2015-02-15T08:32:51Z</time>
      </trkpt>
      <trkpt lat="40.647489" lon="-3.655014">
        <ele>712.518</ele>
        <time>2015-02-15T08:32:54Z</time>
      </trkpt>
      <trkpt lat="40.647508" lon="-3.655063">
        <ele>712.307</ele>
        <time>2015-02-15T08:32:55Z</time>
      </trkpt>
      <trkpt lat="40.647538" lon="-3.655155">
        <ele>711.921</ele>
        <time>2015-02-15T08:32:57Z</time>
      </trkpt>
      <trkpt lat="40.647556" lon="-3.655192">
        <ele>711.741</ele>
        <time>2015-02-15T08:32:58Z</time>
      </trkpt>
      <trkpt lat="40.647607" lon="-3.655310">
        <ele>711.160</ele>
        <time>2015-02-15T08:33:01Z</time>
      </trkpt>
      <trkpt lat="40.647656" lon="-3.655413">
        <ele>710.644</ele>
        <time>2015-02-15T08:33:04Z</time>
      </trkpt>
      <trkpt lat="40.647680" lon="-3.655479">
        <ele>710.493</ele>
        <time>2015-02-15T08:33:06Z</time>
      </trkpt>
      <trkpt lat="40.647711" lon="-3.655537">
        <ele>710.129</ele>
        <time>2015-02-15T08:33:09Z</time>
      </trkpt>
      <trkpt lat="40.647754" lon="-3.655626">
        <ele>709.830</ele>
        <time>2015-02-15T08:33:12Z</time>
      </trkpt>
      <trkpt lat="40.647805" lon="-3.655715">
        <ele>709.483</ele>
        <time>2015-02-15T08:33:15Z</time>
      </trkpt>
      <trkpt lat="40.647841" lon="-3.655783">
        <ele>709.225</ele>
        <time>2015-02-15T08:33:17Z</time>
      </trkpt>
      <trkpt lat="40.647886" lon="-3.655855">
        <ele>709.017</ele>
        <time>2015-02-15T08:33:19Z</time>
      </trkpt>
      <trkpt lat="40.647964" lon="-3.655964">
        <ele>708.707</ele>
        <time>2015-02-15T08:33:22Z</time>
      </trkpt>
      <trkpt lat="40.648023" lon="-3.656027">
        <ele>708.676</ele>
        <time>2015-02-15T08:33:23Z</time>
      </trkpt>
      <trkpt lat="40.648078" lon="-3.656083">
        <ele>708.516</ele>
        <time>2015-02-15T08:33:25Z</time>
      </trkpt>
      <trkpt lat="40.648128" lon="-3.656138">
        <ele>708.425</ele>
        <time>2015-02-15T08:33:27Z</time>
      </trkpt>
      <trkpt lat="40.648197" lon="-3.656211">
        <ele>708.229</ele>
        <time>2015-02-15T08:33:30Z</time>
      </trkpt>
      <trkpt lat="40.648270" lon="-3.656290">
        <ele>708.028</ele>
        <time>2015-02-15T08:33:33Z</time>
      </trkpt>
      <trkpt lat="40.648343" lon="-3.656367">
        <ele>707.934</ele>
        <time>2015-02-15T08:33:36Z</time>
      </trkpt>
      <trkpt lat="40.648412" lon="-3.656434">
        <ele>707.965</ele>
        <time>2015-02-15T08:33:39Z</time>
      </trkpt>
      <trkpt lat="40.648463" lon="-3.656475">
        <ele>707.848</ele>
        <time>2015-02-15T08:33:41Z</time>
      </trkpt>
      <trkpt lat="40.648535" lon="-3.656551">
        <ele>707.861</ele>
        <time>2015-02-15T08:33:44Z</time>
      </trkpt>
      <trkpt lat="40.648562" lon="-3.656579">
        <ele>707.817</ele>
        <time>2015-02-15T08:33:45Z</time>
      </trkpt>
      <trkpt lat="40.648592" lon="-3.656610">
        <ele>707.807</ele>
        <time>2015-02-15T08:33:46Z</time>
      </trkpt>
      <trkpt lat="40.648625" lon="-3.656641">
        <ele>707.842</ele>
        <time>2015-02-15T08:33:47Z</time>
      </trkpt>
      <trkpt lat="40.648662" lon="-3.656675">
        <ele>707.742</ele>
        <time>2015-02-15T08:33:48Z</time>
      </trkpt>
      <trkpt lat="40.648743" lon="-3.656750">
        <ele>707.731</ele>
        <time>2015-02-15T08:33:50Z</time>
      </trkpt>
      <trkpt lat="40.648867" lon="-3.656863">
        <ele>707.745</ele>
        <time>2015-02-15T08:33:53Z</time>
      </trkpt>
      <trkpt lat="40.648945" lon="-3.656934">
        <ele>707.664</ele>
        <time>2015-02-15T08:33:55Z</time>
      </trkpt>
      <trkpt lat="40.648979" lon="-3.656969">
        <ele>707.660</ele>
        <time>2015-02-15T08:33:56Z</time>
      </trkpt>
      <trkpt lat="40.649011" lon="-3.657004">
        <ele>707.641</ele>
        <time>2015-02-15T08:33:57Z</time>
      </trkpt>
      <trkpt lat="40.649040" lon="-3.657033">
        <ele>707.551</ele>
        <time>2015-02-15T08:33:58Z</time>
      </trkpt>
      <trkpt lat="40.649071" lon="-3.657057">
        <ele>707.501</ele>
        <time>2015-02-15T08:33:59Z</time>
      </trkpt>
      <trkpt lat="40.649184" lon="-3.657171">
        <ele>707.311</ele>
        <time>2015-02-15T08:34:03Z</time>
      </trkpt>
      <trkpt lat="40.649267" lon="-3.657246">
        <ele>707.107</ele>
        <time>2015-02-15T08:34:06Z</time>
      </trkpt>
      <trkpt lat="40.649344" lon="-3.657322">
        <ele>707.043</ele>
        <time>2015-02-15T08:34:09Z</time>
      </trkpt>
      <trkpt lat="40.649422" lon="-3.657401">
        <ele>706.833</ele>
        <time>2015-02-15T08:34:12Z</time>
      </trkpt>
      <trkpt lat="40.649447" lon="-3.657428">
        <ele>706.842</ele>
        <time>2015-02-15T08:34:13Z</time>
      </trkpt>
      <trkpt lat="40.649494" lon="-3.657481">
        <ele>706.756</ele>
        <time>2015-02-15T08:34:15Z</time>
      </trkpt>
      <trkpt lat="40.649561" lon="-3.657550">
        <ele>706.795</ele>
        <time>2015-02-15T08:34:18Z</time>
      </trkpt>
      <trkpt lat="40.649630" lon="-3.657619">
        <ele>706.711</ele>
        <time>2015-02-15T08:34:21Z</time>
      </trkpt>
      <trkpt lat="40.649695" lon="-3.657685">
        <ele>706.892</ele>
        <time>2015-02-15T08:34:25Z</time>
      </trkpt>
      <trkpt lat="40.649742" lon="-3.657722">
        <ele>706.912</ele>
        <time>2015-02-15T08:34:27Z</time>
      </trkpt>
      <trkpt lat="40.649787" lon="-3.657760">
        <ele>707.032</ele>
        <time>2015-02-15T08:34:29Z</time>
      </trkpt>
      <trkpt lat="40.649807" lon="-3.657781">
        <ele>707.105</ele>
        <time>2015-02-15T08:34:30Z</time>
      </trkpt>
      <trkpt lat="40.649846" lon="-3.657823">
        <ele>707.207</ele>
        <time>2015-02-15T08:34:32Z</time>
      </trkpt>
      <trkpt lat="40.649889" lon="-3.657855">
        <ele>707.319</ele>
        <time>2015-02-15T08:34:34Z</time>
      </trkpt>
      <trkpt lat="40.649950" lon="-3.657921">
        <ele>707.459</ele>
        <time>2015-02-15T08:34:37Z</time>
      </trkpt>
      <trkpt lat="40.649996" lon="-3.657964">
        <ele>707.528</ele>
        <time>2015-02-15T08:34:39Z</time>
      </trkpt>
      <trkpt lat="40.650049" lon="-3.658013">
        <ele>707.642</ele>
        <time>2015-02-15T08:34:41Z</time>
      </trkpt>
      <trkpt lat="40.650078" lon="-3.658042">
        <ele>707.651</ele>
        <time>2015-02-15T08:34:42Z</time>
      </trkpt>
      <trkpt lat="40.650109" lon="-3.658073">
        <ele>707.657</ele>
        <time>2015-02-15T08:34:43Z</time>
      </trkpt>
      <trkpt lat="40.650141" lon="-3.658105">
        <ele>707.678</ele>
        <time>2015-02-15T08:34:44Z</time>
      </trkpt>
      <trkpt lat="40.650279" lon="-3.658252">
        <ele>707.744</ele>
        <time>2015-02-15T08:34:47Z</time>
      </trkpt>
      <trkpt lat="40.650348" lon="-3.658308">
        <ele>707.805</ele>
        <time>2015-02-15T08:34:49Z</time>
      </trkpt>
      <trkpt lat="40.650445" lon="-3.658385">
        <ele>707.915</ele>
        <time>2015-02-15T08:34:52Z</time>
      </trkpt>
      <trkpt lat="40.650505" lon="-3.658431">
        <ele>708.107</ele>
        <time>2015-02-15T08:34:54Z</time>
      </trkpt>
      <trkpt lat="40.650619" lon="-3.658524">
        <ele>708.482</ele>
        <time>2015-02-15T08:34:58Z</time>
      </trkpt>
      <trkpt lat="40.650695" lon="-3.658593">
        <ele>708.662</ele>
        <time>2015-02-15T08:35:01Z</time>
      </trkpt>
      <trkpt lat="40.650777" lon="-3.658660">
        <ele>708.911</ele>
        <time>2015-02-15T08:35:04Z</time>
      </trkpt>
      <trkpt lat="40.650861" lon="-3.658727">
        <ele>709.185</ele>
        <time>2015-02-15T08:35:07Z</time>
      </trkpt>
      <trkpt lat="40.650940" lon="-3.658780">
        <ele>709.384</ele>
        <time>2015-02-15T08:35:10Z</time>
      </trkpt>
      <trkpt lat="40.651025" lon="-3.658832">
        <ele>709.640</ele>
        <time>2015-02-15T08:35:13Z</time>
      </trkpt>
      <trkpt lat="40.651109" lon="-3.658889">
        <ele>709.871</ele>
        <time>2015-02-15T08:35:16Z</time>
      </trkpt>
      <trkpt lat="40.651188" lon="-3.658944">
        <ele>709.918</ele>
        <time>2015-02-15T08:35:19Z</time>
      </trkpt>
      <trkpt lat="40.651263" lon="-3.658991">
        <ele>710.098</ele>
        <time>2015-02-15T08:35:22Z</time>
      </trkpt>
      <trkpt lat="40.651336" lon="-3.659040">
        <ele>710.117</ele>
        <time>2015-02-15T08:35:25Z</time>
      </trkpt>
      <trkpt lat="40.651405" lon="-3.659087">
        <ele>710.207</ele>
        <time>2015-02-15T08:35:28Z</time>
      </trkpt>
      <trkpt lat="40.651474" lon="-3.659131">
        <ele>710.229</ele>
        <time>2015-02-15T08:35:31Z</time>
      </trkpt>
      <trkpt lat="40.651542" lon="-3.659166">
        <ele>710.379</ele>
        <time>2015-02-15T08:35:34Z</time>
      </trkpt>
      <trkpt lat="40.651607" lon="-3.659197">
        <ele>710.488</ele>
        <time>2015-02-15T08:35:38Z</time>
      </trkpt>
      <trkpt lat="40.651672" lon="-3.659225">
        <ele>710.752</ele>
        <time>2015-02-15T08:35:41Z</time>
      </trkpt>
      <trkpt lat="40.651711" lon="-3.659251">
        <ele>710.951</ele>
        <time>2015-02-15T08:35:43Z</time>
      </trkpt>
      <trkpt lat="40.651774" lon="-3.659288">
        <ele>711.287</ele>
        <time>2015-02-15T08:35:46Z</time>
      </trkpt>
      <trkpt lat="40.651836" lon="-3.659330">
        <ele>711.628</ele>
        <time>2015-02-15T08:35:49Z</time>
      </trkpt>
      <trkpt lat="40.651895" lon="-3.659377">
        <ele>712.042</ele>
        <time>2015-02-15T08:35:52Z</time>
      </trkpt>
      <trkpt lat="40.651957" lon="-3.659420">
        <ele>712.422</ele>
        <time>2015-02-15T08:35:55Z</time>
      </trkpt>
      <trkpt lat="40.652014" lon="-3.659470">
        <ele>712.814</ele>
        <time>2015-02-15T08:35:58Z</time>
      </trkpt>
      <trkpt lat="40.652071" lon="-3.659529">
        <ele>713.207</ele>
        <time>2015-02-15T08:36:01Z</time>
      </trkpt>
      <trkpt lat="40.652123" lon="-3.659584">
        <ele>713.682</ele>
        <time>2015-02-15T08:36:04Z</time>
      </trkpt>
      <trkpt lat="40.652170" lon="-3.659642">
        <ele>714.022</ele>
        <time>2015-02-15T08:36:07Z</time>
      </trkpt>
      <trkpt lat="40.652196" lon="-3.659687">
        <ele>714.111</ele>
        <time>2015-02-15T08:36:08Z</time>
      </trkpt>
      <trkpt lat="40.652231" lon="-3.659744">
        <ele>714.615</ele>
        <time>2015-02-15T08:36:11Z</time>
      </trkpt>
      <trkpt lat="40.652260" lon="-3.659780">
        <ele>714.934</ele>
        <time>2015-02-15T08:36:13Z</time>
      </trkpt>
      <trkpt lat="40.652292" lon="-3.659824">
        <ele>715.220</ele>
        <time>2015-02-15T08:36:15Z</time>
      </trkpt>
      <trkpt lat="40.652306" lon="-3.659849">
        <ele>715.381</ele>
        <time>2015-02-15T08:36:16Z</time>
      </trkpt>
      <trkpt lat="40.652356" lon="-3.659927">
        <ele>715.777</ele>
        <time>2015-02-15T08:36:19Z</time>
      </trkpt>
      <trkpt lat="40.652408" lon="-3.660009">
        <ele>716.061</ele>
        <time>2015-02-15T08:36:22Z</time>
      </trkpt>
      <trkpt lat="40.652442" lon="-3.660074">
        <ele>716.227</ele>
        <time>2015-02-15T08:36:24Z</time>
      </trkpt>
      <trkpt lat="40.652457" lon="-3.660112">
        <ele>716.207</ele>
        <time>2015-02-15T08:36:25Z</time>
      </trkpt>
      <trkpt lat="40.652486" lon="-3.660197">
        <ele>716.435</ele>
        <time>2015-02-15T08:36:27Z</time>
      </trkpt>
      <trkpt lat="40.652511" lon="-3.660298">
        <ele>716.575</ele>
        <time>2015-02-15T08:36:29Z</time>
      </trkpt>
      <trkpt lat="40.652520" lon="-3.660355">
        <ele>716.514</ele>
        <time>2015-02-15T08:36:30Z</time>
      </trkpt>
      <trkpt lat="40.652548" lon="-3.660474">
        <ele>716.538</ele>
        <time>2015-02-15T08:36:32Z</time>
      </trkpt>
      <trkpt lat="40.652588" lon="-3.660596">
        <ele>716.587</ele>
        <time>2015-02-15T08:36:34Z</time>
      </trkpt>
      <trkpt lat="40.652643" lon="-3.660713">
        <ele>716.513</ele>
        <time>2015-02-15T08:36:36Z</time>
      </trkpt>
      <trkpt lat="40.652706" lon="-3.660808">
        <ele>716.474</ele>
        <time>2015-02-15T08:36:38Z</time>
      </trkpt>
      <trkpt lat="40.652742" lon="-3.660849">
        <ele>716.451</ele>
        <time>2015-02-15T08:36:39Z</time>
      </trkpt>
      <trkpt lat="40.652779" lon="-3.660885">
        <ele>716.301</ele>
        <time>2015-02-15T08:36:40Z</time>
      </trkpt>
      <trkpt lat="40.652819" lon="-3.660916">
        <ele>716.311</ele>
        <time>2015-02-15T08:36:41Z</time>
      </trkpt>
      <trkpt lat="40.652849" lon="-3.660941">
        <ele>716.207</ele>
        <time>2015-02-15T08:36:42Z</time>
      </trkpt>
      <trkpt lat="40.652883" lon="-3.660960">
        <ele>716.283</ele>
        <time>2015-02-15T08:36:43Z</time>
      </trkpt>
      <trkpt lat="40.652971" lon="-3.661022">
        <ele>716.113</ele>
        <time>2015-02-15T08:36:46Z</time>
      </trkpt>
      <trkpt lat="40.653030" lon="-3.661065">
        <ele>715.922</ele>
        <time>2015-02-15T08:36:48Z</time>
      </trkpt>
      <trkpt lat="40.653102" lon="-3.661123">
        <ele>715.786</ele>
        <time>2015-02-15T08:36:51Z</time>
      </trkpt>
      <trkpt lat="40.653146" lon="-3.661164">
        <ele>715.615</ele>
        <time>2015-02-15T08:36:53Z</time>
      </trkpt>
      <trkpt lat="40.653169" lon="-3.661188">
        <ele>715.561</ele>
        <time>2015-02-15T08:36:54Z</time>
      </trkpt>
      <trkpt lat="40.653250" lon="-3.661273">
        <ele>715.282</ele>
        <time>2015-02-15T08:36:57Z</time>
      </trkpt>
      <trkpt lat="40.653345" lon="-3.661379">
        <ele>714.881</ele>
        <time>2015-02-15T08:37:00Z</time>
      </trkpt>
      <trkpt lat="40.653447" lon="-3.661502">
        <ele>714.461</ele>
        <time>2015-02-15T08:37:03Z</time>
      </trkpt>
      <trkpt lat="40.653487" lon="-3.661538">
        <ele>714.217</ele>
        <time>2015-02-15T08:37:04Z</time>
      </trkpt>
      <trkpt lat="40.653568" lon="-3.661600">
        <ele>713.907</ele>
        <time>2015-02-15T08:37:06Z</time>
      </trkpt>
      <trkpt lat="40.653607" lon="-3.661622">
        <ele>713.746</ele>
        <time>2015-02-15T08:37:07Z</time>
      </trkpt>
      <trkpt lat="40.653682" lon="-3.661652">
        <ele>713.486</ele>
        <time>2015-02-15T08:37:10Z</time>
      </trkpt>
      <trkpt lat="40.653720" lon="-3.661661">
        <ele>713.265</ele>
        <time>2015-02-15T08:37:11Z</time>
      </trkpt>
      <trkpt lat="40.653784" lon="-3.661693">
        <ele>712.959</ele>
        <time>2015-02-15T08:37:13Z</time>
      </trkpt>
      <trkpt lat="40.653884" lon="-3.661733">
        <ele>712.518</ele>
        <time>2015-02-15T08:37:16Z</time>
      </trkpt>
      <trkpt lat="40.653977" lon="-3.661764">
        <ele>712.164</ele>
        <time>2015-02-15T08:37:19Z</time>
      </trkpt>
      <trkpt lat="40.654006" lon="-3.661778">
        <ele>712.075</ele>
        <time>2015-02-15T08:37:20Z</time>
      </trkpt>
      <trkpt lat="40.654089" lon="-3.661825">
        <ele>711.812</ele>
        <time>2015-02-15T08:37:23Z</time>
      </trkpt>
      <trkpt lat="40.654169" lon="-3.661869">
        <ele>711.632</ele>
        <time>2015-02-15T08:37:26Z</time>
      </trkpt>
      <trkpt lat="40.654217" lon="-3.661903">
        <ele>711.605</ele>
        <time>2015-02-15T08:37:28Z</time>
      </trkpt>
      <trkpt lat="40.654292" lon="-3.661951">
        <ele>711.607</ele>
        <time>2015-02-15T08:37:31Z</time>
      </trkpt>
      <trkpt lat="40.654368" lon="-3.661999">
        <ele>711.739</ele>
        <time>2015-02-15T08:37:34Z</time>
      </trkpt>
      <trkpt lat="40.654414" lon="-3.662039">
        <ele>711.719</ele>
        <time>2015-02-15T08:37:36Z</time>
      </trkpt>
      <trkpt lat="40.654434" lon="-3.662064">
        <ele>711.888</ele>
        <time>2015-02-15T08:37:37Z</time>
      </trkpt>
      <trkpt lat="40.654506" lon="-3.662122">
        <ele>711.972</ele>
        <time>2015-02-15T08:37:39Z</time>
      </trkpt>
      <trkpt lat="40.654573" lon="-3.662174">
        <ele>712.161</ele>
        <time>2015-02-15T08:37:42Z</time>
      </trkpt>
      <trkpt lat="40.654653" lon="-3.662237">
        <ele>712.317</ele>
        <time>2015-02-15T08:37:45Z</time>
      </trkpt>
      <trkpt lat="40.654682" lon="-3.662266">
        <ele>712.318</ele>
        <time>2015-02-15T08:37:46Z</time>
      </trkpt>
      <trkpt lat="40.654711" lon="-3.662296">
        <ele>712.331</ele>
        <time>2015-02-15T08:37:47Z</time>
      </trkpt>
      <trkpt lat="40.654805" lon="-3.662386">
        <ele>712.561</ele>
        <time>2015-02-15T08:37:50Z</time>
      </trkpt>
      <trkpt lat="40.654906" lon="-3.662481">
        <ele>712.607</ele>
        <time>2015-02-15T08:37:53Z</time>
      </trkpt>
      <trkpt lat="40.654977" lon="-3.662531">
        <ele>712.607</ele>
        <time>2015-02-15T08:37:55Z</time>
      </trkpt>
      <trkpt lat="40.655052" lon="-3.662571">
        <ele>712.711</ele>
        <time>2015-02-15T08:37:57Z</time>
      </trkpt>
      <trkpt lat="40.655132" lon="-3.662599">
        <ele>712.811</ele>
        <time>2015-02-15T08:37:59Z</time>
      </trkpt>
      <trkpt lat="40.655209" lon="-3.662618">
        <ele>712.870</ele>
        <time>2015-02-15T08:38:01Z</time>
      </trkpt>
      <trkpt lat="40.655283" lon="-3.662628">
        <ele>712.954</ele>
        <time>2015-02-15T08:38:03Z</time>
      </trkpt>
      <trkpt lat="40.655355" lon="-3.662625">
        <ele>713.063</ele>
        <time>2015-02-15T08:38:05Z</time>
      </trkpt>
      <trkpt lat="40.655463" lon="-3.662612">
        <ele>713.299</ele>
        <time>2015-02-15T08:38:08Z</time>
      </trkpt>
      <trkpt lat="40.655498" lon="-3.662601">
        <ele>713.250</ele>
        <time>2015-02-15T08:38:09Z</time>
      </trkpt>
      <trkpt lat="40.655565" lon="-3.662572">
        <ele>713.429</ele>
        <time>2015-02-15T08:38:11Z</time>
      </trkpt>
      <trkpt lat="40.655595" lon="-3.662553">
        <ele>713.400</ele>
        <time>2015-02-15T08:38:12Z</time>
      </trkpt>
      <trkpt lat="40.655685" lon="-3.662513">
        <ele>713.520</ele>
        <time>2015-02-15T08:38:15Z</time>
      </trkpt>
      <trkpt lat="40.655765" lon="-3.662491">
        <ele>713.607</ele>
        <time>2015-02-15T08:38:19Z</time>
      </trkpt>
      <trkpt lat="40.655883" lon="-3.662473">
        <ele>713.780</ele>
        <time>2015-02-15T08:38:23Z</time>
      </trkpt>
      <trkpt lat="40.655942" lon="-3.662475">
        <ele>713.740</ele>
        <time>2015-02-15T08:38:25Z</time>
      </trkpt>
      <trkpt lat="40.655967" lon="-3.662478">
        <ele>713.749</ele>
        <time>2015-02-15T08:38:26Z</time>
      </trkpt>
      <trkpt lat="40.656039" lon="-3.662485">
        <ele>713.773</ele>
        <time>2015-02-15T08:38:29Z</time>
      </trkpt>
      <trkpt lat="40.656083" lon="-3.662499">
        <ele>713.772</ele>
        <time>2015-02-15T08:38:31Z</time>
      </trkpt>
      <trkpt lat="40.656146" lon="-3.662527">
        <ele>713.758</ele>
        <time>2015-02-15T08:38:34Z</time>
      </trkpt>
      <trkpt lat="40.656183" lon="-3.662552">
        <ele>713.749</ele>
        <time>2015-02-15T08:38:36Z</time>
      </trkpt>
      <trkpt lat="40.656219" lon="-3.662581">
        <ele>713.746</ele>
        <time>2015-02-15T08:38:38Z</time>
      </trkpt>
      <trkpt lat="40.656234" lon="-3.662602">
        <ele>713.788</ele>
        <time>2015-02-15T08:38:39Z</time>
      </trkpt>
      <trkpt lat="40.656261" lon="-3.662640">
        <ele>713.816</ele>
        <time>2015-02-15T08:38:41Z</time>
      </trkpt>
      <trkpt lat="40.656271" lon="-3.662665">
        <ele>713.807</ele>
        <time>2015-02-15T08:38:42Z</time>
      </trkpt>
      <trkpt lat="40.656295" lon="-3.662711">
        <ele>713.922</ele>
        <time>2015-02-15T08:38:44Z</time>
      </trkpt>
      <trkpt lat="40.656317" lon="-3.662782">
        <ele>714.032</ele>
        <time>2015-02-15T08:38:47Z</time>
      </trkpt>
      <trkpt lat="40.656322" lon="-3.662832">
        <ele>714.141</ele>
        <time>2015-02-15T08:38:49Z</time>
      </trkpt>
      <trkpt lat="40.656323" lon="-3.662886">
        <ele>714.255</ele>
        <time>2015-02-15T08:38:50Z</time>
      </trkpt>
      <trkpt lat="40.656322" lon="-3.662910">
        <ele>714.354</ele>
        <time>2015-02-15T08:38:51Z</time>
      </trkpt>
      <trkpt lat="40.656313" lon="-3.662965">
        <ele>714.410</ele>
        <time>2015-02-15T08:38:53Z</time>
      </trkpt>
      <trkpt lat="40.656298" lon="-3.663018">
        <ele>714.581</ele>
        <time>2015-02-15T08:38:55Z</time>
      </trkpt>
      <trkpt lat="40.656274" lon="-3.663095">
        <ele>714.891</ele>
        <time>2015-02-15T08:38:58Z</time>
      </trkpt>
      <trkpt lat="40.656256" lon="-3.663152">
        <ele>715.181</ele>
        <time>2015-02-15T08:39:00Z</time>
      </trkpt>
      <trkpt lat="40.656228" lon="-3.663238">
        <ele>715.419</ele>
        <time>2015-02-15T08:39:03Z</time>
      </trkpt>
      <trkpt lat="40.656204" lon="-3.663330">
        <ele>715.807</ele>
        <time>2015-02-15T08:39:06Z</time>
      </trkpt>
      <trkpt lat="40.656177" lon="-3.663426">
        <ele>716.247</ele>
        <time>2015-02-15T08:39:09Z</time>
      </trkpt>
      <trkpt lat="40.656158" lon="-3.663519">
        <ele>716.687</ele>
        <time>2015-02-15T08:39:12Z</time>
      </trkpt>
      <trkpt lat="40.656151" lon="-3.663579">
        <ele>716.976</ele>
        <time>2015-02-15T08:39:14Z</time>
      </trkpt>
      <trkpt lat="40.656139" lon="-3.663672">
        <ele>717.390</ele>
        <time>2015-02-15T08:39:17Z</time>
      </trkpt>
      <trkpt lat="40.656138" lon="-3.663737">
        <ele>717.699</ele>
        <time>2015-02-15T08:39:19Z</time>
      </trkpt>
      <trkpt lat="40.656135" lon="-3.663839">
        <ele>718.055</ele>
        <time>2015-02-15T08:39:22Z</time>
      </trkpt>
      <trkpt lat="40.656138" lon="-3.663908">
        <ele>718.286</ele>
        <time>2015-02-15T08:39:24Z</time>
      </trkpt>
      <trkpt lat="40.656150" lon="-3.664007">
        <ele>718.623</ele>
        <time>2015-02-15T08:39:27Z</time>
      </trkpt>
      <trkpt lat="40.656167" lon="-3.664065">
        <ele>718.883</ele>
        <time>2015-02-15T08:39:29Z</time>
      </trkpt>
      <trkpt lat="40.656203" lon="-3.664186">
        <ele>719.411</ele>
        <time>2015-02-15T08:39:33Z</time>
      </trkpt>
      <trkpt lat="40.656237" lon="-3.664266">
        <ele>719.807</ele>
        <time>2015-02-15T08:39:36Z</time>
      </trkpt>
      <trkpt lat="40.656267" lon="-3.664315">
        <ele>720.170</ele>
        <time>2015-02-15T08:39:38Z</time>
      </trkpt>
      <trkpt lat="40.656298" lon="-3.664362">
        <ele>720.430</ele>
        <time>2015-02-15T08:39:40Z</time>
      </trkpt>
      <trkpt lat="40.656343" lon="-3.664431">
        <ele>720.869</ele>
        <time>2015-02-15T08:39:43Z</time>
      </trkpt>
      <trkpt lat="40.656365" lon="-3.664483">
        <ele>721.083</ele>
        <time>2015-02-15T08:39:45Z</time>
      </trkpt>
      <trkpt lat="40.656402" lon="-3.664555">
        <ele>721.472</ele>
        <time>2015-02-15T08:39:48Z</time>
      </trkpt>
      <trkpt lat="40.656435" lon="-3.664625">
        <ele>721.888</ele>
        <time>2015-02-15T08:39:52Z</time>
      </trkpt>
      <trkpt lat="40.656464" lon="-3.664711">
        <ele>722.499</ele>
        <time>2015-02-15T08:39:56Z</time>
      </trkpt>
      <trkpt lat="40.656485" lon="-3.664781">
        <ele>722.868</ele>
        <time>2015-02-15T08:39:59Z</time>
      </trkpt>
      <trkpt lat="40.656510" lon="-3.664862">
        <ele>723.142</ele>
        <time>2015-02-15T08:40:02Z</time>
      </trkpt>
      <trkpt lat="40.656535" lon="-3.664952">
        <ele>723.426</ele>
        <time>2015-02-15T08:40:05Z</time>
      </trkpt>
      <trkpt lat="40.656549" lon="-3.664984">
        <ele>723.507</ele>
        <time>2015-02-15T08:40:06Z</time>
      </trkpt>
      <trkpt lat="40.656573" lon="-3.665055">
        <ele>723.694</ele>
        <time>2015-02-15T08:40:08Z</time>
      </trkpt>
      <trkpt lat="40.656595" lon="-3.665134">
        <ele>723.734</ele>
        <time>2015-02-15T08:40:10Z</time>
      </trkpt>
      <trkpt lat="40.656623" lon="-3.665215">
        <ele>723.813</ele>
        <time>2015-02-15T08:40:12Z</time>
      </trkpt>
      <trkpt lat="40.656650" lon="-3.665303">
        <ele>723.937</ele>
        <time>2015-02-15T08:40:14Z</time>
      </trkpt>
      <trkpt lat="40.656662" lon="-3.665345">
        <ele>724.096</ele>
        <time>2015-02-15T08:40:15Z</time>
      </trkpt>
      <trkpt lat="40.656688" lon="-3.665436">
        <ele>724.072</ele>
        <time>2015-02-15T08:40:17Z</time>
      </trkpt>
      <trkpt lat="40.656733" lon="-3.665589">
        <ele>724.033</ele>
        <time>2015-02-15T08:40:20Z</time>
      </trkpt>
      <trkpt lat="40.656783" lon="-3.665750">
        <ele>724.089</ele>
        <time>2015-02-15T08:40:22Z</time>
      </trkpt>
      <trkpt lat="40.656821" lon="-3.665857">
        <ele>724.006</ele>
        <time>2015-02-15T08:40:24Z</time>
      </trkpt>
      <trkpt lat="40.656861" lon="-3.665963">
        <ele>724.026</ele>
        <time>2015-02-15T08:40:26Z</time>
      </trkpt>
      <trkpt lat="40.656899" lon="-3.666064">
        <ele>723.907</ele>
        <time>2015-02-15T08:40:28Z</time>
      </trkpt>
      <trkpt lat="40.656918" lon="-3.666106">
        <ele>723.966</ele>
        <time>2015-02-15T08:40:29Z</time>
      </trkpt>
      <trkpt lat="40.656938" lon="-3.666143">
        <ele>723.956</ele>
        <time>2015-02-15T08:40:30Z</time>
      </trkpt>
      <trkpt lat="40.656953" lon="-3.666178">
        <ele>723.895</ele>
        <time>2015-02-15T08:40:31Z</time>
      </trkpt>
      <trkpt lat="40.656978" lon="-3.666240">
        <ele>723.849</ele>
        <time>2015-02-15T08:40:33Z</time>
      </trkpt>
      <trkpt lat="40.657006" lon="-3.666287">
        <ele>723.728</ele>
        <time>2015-02-15T08:40:35Z</time>
      </trkpt>
      <trkpt lat="40.657039" lon="-3.666336">
        <ele>723.674</ele>
        <time>2015-02-15T08:40:37Z</time>
      </trkpt>
      <trkpt lat="40.657076" lon="-3.666396">
        <ele>723.415</ele>
        <time>2015-02-15T08:40:40Z</time>
      </trkpt>
      <trkpt lat="40.657091" lon="-3.666412">
        <ele>723.338</ele>
        <time>2015-02-15T08:40:41Z</time>
      </trkpt>
      <trkpt lat="40.657123" lon="-3.666450">
        <ele>723.270</ele>
        <time>2015-02-15T08:40:43Z</time>
      </trkpt>
      <trkpt lat="40.657151" lon="-3.666485">
        <ele>723.017</ele>
        <time>2015-02-15T08:40:45Z</time>
      </trkpt>
      <trkpt lat="40.657177" lon="-3.666521">
        <ele>722.907</ele>
        <time>2015-02-15T08:40:47Z</time>
      </trkpt>
      <trkpt lat="40.657200" lon="-3.666564">
        <ele>722.741</ele>
        <time>2015-02-15T08:40:49Z</time>
      </trkpt>
      <trkpt lat="40.657234" lon="-3.666619">
        <ele>722.421</ele>
        <time>2015-02-15T08:40:52Z</time>
      </trkpt>
      <trkpt lat="40.657259" lon="-3.666654">
        <ele>722.350</ele>
        <time>2015-02-15T08:40:54Z</time>
      </trkpt>
      <trkpt lat="40.657292" lon="-3.666701">
        <ele>722.134</ele>
        <time>2015-02-15T08:40:57Z</time>
      </trkpt>
      <trkpt lat="40.657324" lon="-3.666748">
        <ele>721.963</ele>
        <time>2015-02-15T08:41:00Z</time>
      </trkpt>
      <trkpt lat="40.657348" lon="-3.666802">
        <ele>721.889</ele>
        <time>2015-02-15T08:41:03Z</time>
      </trkpt>
      <trkpt lat="40.657362" lon="-3.666819">
        <ele>721.890</ele>
        <time>2015-02-15T08:41:04Z</time>
      </trkpt>
      <trkpt lat="40.657392" lon="-3.666857">
        <ele>721.732</ele>
        <time>2015-02-15T08:41:06Z</time>
      </trkpt>
      <trkpt lat="40.657432" lon="-3.666922">
        <ele>721.792</ele>
        <time>2015-02-15T08:41:09Z</time>
      </trkpt>
      <trkpt lat="40.657478" lon="-3.666987">
        <ele>721.811</ele>
        <time>2015-02-15T08:41:12Z</time>
      </trkpt>
      <trkpt lat="40.657523" lon="-3.667050">
        <ele>721.907</ele>
        <time>2015-02-15T08:41:15Z</time>
      </trkpt>
      <trkpt lat="40.657574" lon="-3.667114">
        <ele>722.151</ele>
        <time>2015-02-15T08:41:18Z</time>
      </trkpt>
      <trkpt lat="40.657625" lon="-3.667183">
        <ele>722.421</ele>
        <time>2015-02-15T08:41:21Z</time>
      </trkpt>
      <trkpt lat="40.657679" lon="-3.667246">
        <ele>722.760</ele>
        <time>2015-02-15T08:41:24Z</time>
      </trkpt>
      <trkpt lat="40.657733" lon="-3.667312">
        <ele>723.174</ele>
        <time>2015-02-15T08:41:28Z</time>
      </trkpt>
      <trkpt lat="40.657808" lon="-3.667403">
        <ele>723.563</ele>
        <time>2015-02-15T08:41:32Z</time>
      </trkpt>
      <trkpt lat="40.657864" lon="-3.667466">
        <ele>723.939</ele>
        <time>2015-02-15T08:41:35Z</time>
      </trkpt>
      <trkpt lat="40.657921" lon="-3.667519">
        <ele>724.290</ele>
        <time>2015-02-15T08:41:38Z</time>
      </trkpt>
      <trkpt lat="40.657976" lon="-3.667555">
        <ele>724.528</ele>
        <time>2015-02-15T08:41:41Z</time>
      </trkpt>
      <trkpt lat="40.658042" lon="-3.667599">
        <ele>724.889</ele>
        <time>2015-02-15T08:41:44Z</time>
      </trkpt>
      <trkpt lat="40.658098" lon="-3.667628">
        <ele>725.017</ele>
        <time>2015-02-15T08:41:46Z</time>
      </trkpt>
      <trkpt lat="40.658128" lon="-3.667643">
        <ele>725.107</ele>
        <time>2015-02-15T08:41:47Z</time>
      </trkpt>
      <trkpt lat="40.658180" lon="-3.667677">
        <ele>725.330</ele>
        <time>2015-02-15T08:41:49Z</time>
      </trkpt>
      <trkpt lat="40.658271" lon="-3.667739">
        <ele>725.450</ele>
        <time>2015-02-15T08:41:52Z</time>
      </trkpt>
      <trkpt lat="40.658305" lon="-3.667764">
        <ele>725.549</ele>
        <time>2015-02-15T08:41:53Z</time>
      </trkpt>
      <trkpt lat="40.658344" lon="-3.667789">
        <ele>725.543</ele>
        <time>2015-02-15T08:41:54Z</time>
      </trkpt>
      <trkpt lat="40.658389" lon="-3.667813">
        <ele>725.562</ele>
        <time>2015-02-15T08:41:55Z</time>
      </trkpt>
      <trkpt lat="40.658439" lon="-3.667840">
        <ele>725.588</ele>
        <time>2015-02-15T08:41:56Z</time>
      </trkpt>
      <trkpt lat="40.658497" lon="-3.667869">
        <ele>725.549</ele>
        <time>2015-02-15T08:41:57Z</time>
      </trkpt>
      <trkpt lat="40.658559" lon="-3.667902">
        <ele>725.475</ele>
        <time>2015-02-15T08:41:58Z</time>
      </trkpt>
      <trkpt lat="40.658681" lon="-3.667972">
        <ele>725.428</ele>
        <time>2015-02-15T08:42:00Z</time>
      </trkpt>
      <trkpt lat="40.658738" lon="-3.668007">
        <ele>725.420</ele>
        <time>2015-02-15T08:42:01Z</time>
      </trkpt>
      <trkpt lat="40.658789" lon="-3.668040">
        <ele>725.307</ele>
        <time>2015-02-15T08:42:02Z</time>
      </trkpt>
      <trkpt lat="40.658858" lon="-3.668112">
        <ele>725.315</ele>
        <time>2015-02-15T08:42:03Z</time>
      </trkpt>
      <trkpt lat="40.658880" lon="-3.668140">
        <ele>725.365</ele>
        <time>2015-02-15T08:42:04Z</time>
      </trkpt>
      <trkpt lat="40.658899" lon="-3.668170">
        <ele>725.284</ele>
        <time>2015-02-15T08:42:05Z</time>
      </trkpt>
      <trkpt lat="40.658936" lon="-3.668236">
        <ele>725.228</ele>
        <time>2015-02-15T08:42:07Z</time>
      </trkpt>
      <trkpt lat="40.658964" lon="-3.668291">
        <ele>725.227</ele>
        <time>2015-02-15T08:42:09Z</time>
      </trkpt>
      <trkpt lat="40.658979" lon="-3.668337">
        <ele>725.233</ele>
        <time>2015-02-15T08:42:11Z</time>
      </trkpt>
      <trkpt lat="40.658986" lon="-3.668363">
        <ele>725.284</ele>
        <time>2015-02-15T08:42:12Z</time>
      </trkpt>
      <trkpt lat="40.658989" lon="-3.668412">
        <ele>725.231</ele>
        <time>2015-02-15T08:42:14Z</time>
      </trkpt>
      <trkpt lat="40.658993" lon="-3.668466">
        <ele>725.261</ele>
        <time>2015-02-15T08:42:16Z</time>
      </trkpt>
      <trkpt lat="40.658992" lon="-3.668519">
        <ele>725.207</ele>
        <time>2015-02-15T08:42:18Z</time>
      </trkpt>
      <trkpt lat="40.658986" lon="-3.668571">
        <ele>725.207</ele>
        <time>2015-02-15T08:42:20Z</time>
      </trkpt>
      <trkpt lat="40.658984" lon="-3.668617">
        <ele>725.261</ele>
        <time>2015-02-15T08:42:22Z</time>
      </trkpt>
      <trkpt lat="40.658979" lon="-3.668663">
        <ele>725.351</ele>
        <time>2015-02-15T08:42:24Z</time>
      </trkpt>
      <trkpt lat="40.658975" lon="-3.668713">
        <ele>725.370</ele>
        <time>2015-02-15T08:42:26Z</time>
      </trkpt>
      <trkpt lat="40.658961" lon="-3.668794">
        <ele>725.494</ele>
        <time>2015-02-15T08:42:29Z</time>
      </trkpt>
      <trkpt lat="40.658954" lon="-3.668877">
        <ele>725.553</ele>
        <time>2015-02-15T08:42:32Z</time>
      </trkpt>
      <trkpt lat="40.658943" lon="-3.668929">
        <ele>725.679</ele>
        <time>2015-02-15T08:42:34Z</time>
      </trkpt>
      <trkpt lat="40.658928" lon="-3.668986">
        <ele>725.710</ele>
        <time>2015-02-15T08:42:36Z</time>
      </trkpt>
      <trkpt lat="40.658902" lon="-3.669071">
        <ele>725.848</ele>
        <time>2015-02-15T08:42:39Z</time>
      </trkpt>
      <trkpt lat="40.658870" lon="-3.669166">
        <ele>726.061</ele>
        <time>2015-02-15T08:42:42Z</time>
      </trkpt>
      <trkpt lat="40.658840" lon="-3.669262">
        <ele>726.117</ele>
        <time>2015-02-15T08:42:45Z</time>
      </trkpt>
      <trkpt lat="40.658822" lon="-3.669315">
        <ele>726.307</ele>
        <time>2015-02-15T08:42:47Z</time>
      </trkpt>
      <trkpt lat="40.658812" lon="-3.669374">
        <ele>726.462</ele>
        <time>2015-02-15T08:42:49Z</time>
      </trkpt>
      <trkpt lat="40.658792" lon="-3.669471">
        <ele>726.762</ele>
        <time>2015-02-15T08:42:52Z</time>
      </trkpt>
      <trkpt lat="40.658782" lon="-3.669571">
        <ele>727.181</ele>
        <time>2015-02-15T08:42:55Z</time>
      </trkpt>
      <trkpt lat="40.658780" lon="-3.669637">
        <ele>727.465</ele>
        <time>2015-02-15T08:42:57Z</time>
      </trkpt>
      <trkpt lat="40.658778" lon="-3.669745">
        <ele>727.894</ele>
        <time>2015-02-15T08:43:00Z</time>
      </trkpt>
      <trkpt lat="40.658786" lon="-3.669815">
        <ele>728.220</ele>
        <time>2015-02-15T08:43:02Z</time>
      </trkpt>
      <trkpt lat="40.658793" lon="-3.669844">
        <ele>728.341</ele>
        <time>2015-02-15T08:43:03Z</time>
      </trkpt>
      <trkpt lat="40.658810" lon="-3.669908">
        <ele>728.725</ele>
        <time>2015-02-15T08:43:06Z</time>
      </trkpt>
      <trkpt lat="40.658832" lon="-3.669968">
        <ele>729.026</ele>
        <time>2015-02-15T08:43:08Z</time>
      </trkpt>
      <trkpt lat="40.658865" lon="-3.670053">
        <ele>729.408</ele>
        <time>2015-02-15T08:43:11Z</time>
      </trkpt>
      <trkpt lat="40.658902" lon="-3.670131">
        <ele>729.707</ele>
        <time>2015-02-15T08:43:14Z</time>
      </trkpt>
      <trkpt lat="40.658931" lon="-3.670181">
        <ele>730.080</ele>
        <time>2015-02-15T08:43:16Z</time>
      </trkpt>
      <trkpt lat="40.658982" lon="-3.670252">
        <ele>730.310</ele>
        <time>2015-02-15T08:43:19Z</time>
      </trkpt>
      <trkpt lat="40.659024" lon="-3.670316">
        <ele>730.749</ele>
        <time>2015-02-15T08:43:22Z</time>
      </trkpt>
      <trkpt lat="40.659062" lon="-3.670375">
        <ele>731.073</ele>
        <time>2015-02-15T08:43:25Z</time>
      </trkpt>
      <trkpt lat="40.659086" lon="-3.670421">
        <ele>731.282</ele>
        <time>2015-02-15T08:43:27Z</time>
      </trkpt>
      <trkpt lat="40.659122" lon="-3.670471">
        <ele>731.488</ele>
        <time>2015-02-15T08:43:29Z</time>
      </trkpt>
      <trkpt lat="40.659157" lon="-3.670532">
        <ele>731.559</ele>
        <time>2015-02-15T08:43:31Z</time>
      </trkpt>
      <trkpt lat="40.659223" lon="-3.670634">
        <ele>731.782</ele>
        <time>2015-02-15T08:43:34Z</time>
      </trkpt>
      <trkpt lat="40.659246" lon="-3.670673">
        <ele>731.843</ele>
        <time>2015-02-15T08:43:35Z</time>
      </trkpt>
      <trkpt lat="40.659295" lon="-3.670759">
        <ele>731.817</ele>
        <time>2015-02-15T08:43:37Z</time>
      </trkpt>
      <trkpt lat="40.659348" lon="-3.670855">
        <ele>731.907</ele>
        <time>2015-02-15T08:43:38Z</time>
      </trkpt>
      <trkpt lat="40.659400" lon="-3.670965">
        <ele>731.926</ele>
        <time>2015-02-15T08:43:40Z</time>
      </trkpt>
      <trkpt lat="40.659456" lon="-3.671084">
        <ele>731.846</ele>
        <time>2015-02-15T08:43:42Z</time>
      </trkpt>
      <trkpt lat="40.659515" lon="-3.671209">
        <ele>731.745</ele>
        <time>2015-02-15T08:43:44Z</time>
      </trkpt>
      <trkpt lat="40.659574" lon="-3.671337">
        <ele>731.789</ele>
        <time>2015-02-15T08:43:46Z</time>
      </trkpt>
      <trkpt lat="40.659633" lon="-3.671474">
        <ele>731.538</ele>
        <time>2015-02-15T08:43:48Z</time>
      </trkpt>
      <trkpt lat="40.659699" lon="-3.671611">
        <ele>731.314</ele>
        <time>2015-02-15T08:43:50Z</time>
      </trkpt>
      <trkpt lat="40.659758" lon="-3.671755">
        <ele>731.245</ele>
        <time>2015-02-15T08:43:52Z</time>
      </trkpt>
      <trkpt lat="40.659777" lon="-3.671824">
        <ele>731.114</ele>
        <time>2015-02-15T08:43:53Z</time>
      </trkpt>
      <trkpt lat="40.659811" lon="-3.671962">
        <ele>730.954</ele>
        <time>2015-02-15T08:43:55Z</time>
      </trkpt>
      <trkpt lat="40.659824" lon="-3.672026">
        <ele>730.909</ele>
        <time>2015-02-15T08:43:56Z</time>
      </trkpt>
      <trkpt lat="40.659837" lon="-3.672090">
        <ele>730.807</ele>
        <time>2015-02-15T08:43:57Z</time>
      </trkpt>
      <trkpt lat="40.659856" lon="-3.672198">
        <ele>730.729</ele>
        <time>2015-02-15T08:43:59Z</time>
      </trkpt>
      <trkpt lat="40.659864" lon="-3.672250">
        <ele>730.639</ele>
        <time>2015-02-15T08:44:00Z</time>
      </trkpt>
      <trkpt lat="40.659873" lon="-3.672294">
        <ele>730.588</ele>
        <time>2015-02-15T08:44:01Z</time>
      </trkpt>
      <trkpt lat="40.659895" lon="-3.672425">
        <ele>730.212</ele>
        <time>2015-02-15T08:44:04Z</time>
      </trkpt>
      <trkpt lat="40.659921" lon="-3.672555">
        <ele>729.911</ele>
        <time>2015-02-15T08:44:07Z</time>
      </trkpt>
      <trkpt lat="40.659957" lon="-3.672667">
        <ele>729.767</ele>
        <time>2015-02-15T08:44:10Z</time>
      </trkpt>
      <trkpt lat="40.659975" lon="-3.672698">
        <ele>729.668</ele>
        <time>2015-02-15T08:44:11Z</time>
      </trkpt>
      <trkpt lat="40.659996" lon="-3.672725">
        <ele>729.527</ele>
        <time>2015-02-15T08:44:12Z</time>
      </trkpt>
      <trkpt lat="40.660017" lon="-3.672750">
        <ele>729.468</ele>
        <time>2015-02-15T08:44:13Z</time>
      </trkpt>
      <trkpt lat="40.660056" lon="-3.672808">
        <ele>729.214</ele>
        <time>2015-02-15T08:44:15Z</time>
      </trkpt>
      <trkpt lat="40.660076" lon="-3.672834">
        <ele>729.107</ele>
        <time>2015-02-15T08:44:16Z</time>
      </trkpt>
      <trkpt lat="40.660132" lon="-3.672903">
        <ele>728.910</ele>
        <time>2015-02-15T08:44:19Z</time>
      </trkpt>
      <trkpt lat="40.660182" lon="-3.672980">
        <ele>728.680</ele>
        <time>2015-02-15T08:44:22Z</time>
      </trkpt>
      <trkpt lat="40.660236" lon="-3.673051">
        <ele>728.439</ele>
        <time>2015-02-15T08:44:25Z</time>
      </trkpt>
      <trkpt lat="40.660290" lon="-3.673123">
        <ele>728.283</ele>
        <time>2015-02-15T08:44:28Z</time>
      </trkpt>
      <trkpt lat="40.660341" lon="-3.673194">
        <ele>728.052</ele>
        <time>2015-02-15T08:44:32Z</time>
      </trkpt>
      <trkpt lat="40.660397" lon="-3.673263">
        <ele>727.868</ele>
        <time>2015-02-15T08:44:35Z</time>
      </trkpt>
      <trkpt lat="40.660453" lon="-3.673334">
        <ele>727.859</ele>
        <time>2015-02-15T08:44:38Z</time>
      </trkpt>
      <trkpt lat="40.660508" lon="-3.673411">
        <ele>727.833</ele>
        <time>2015-02-15T08:44:41Z</time>
      </trkpt>
      <trkpt lat="40.660563" lon="-3.673484">
        <ele>728.023</ele>
        <time>2015-02-15T08:44:44Z</time>
      </trkpt>
      <trkpt lat="40.660620" lon="-3.673561">
        <ele>728.315</ele>
        <time>2015-02-15T08:44:47Z</time>
      </trkpt>
      <trkpt lat="40.660694" lon="-3.673657">
        <ele>728.907</ele>
        <time>2015-02-15T08:44:51Z</time>
      </trkpt>
      <trkpt lat="40.660748" lon="-3.673730">
        <ele>729.321</ele>
        <time>2015-02-15T08:44:54Z</time>
      </trkpt>
      <trkpt lat="40.660819" lon="-3.673831">
        <ele>729.991</ele>
        <time>2015-02-15T08:44:58Z</time>
      </trkpt>
      <trkpt lat="40.660901" lon="-3.673925">
        <ele>730.380</ele>
        <time>2015-02-15T08:45:01Z</time>
      </trkpt>
      <trkpt lat="40.660963" lon="-3.673998">
        <ele>730.854</ele>
        <time>2015-02-15T08:45:04Z</time>
      </trkpt>
      <trkpt lat="40.661020" lon="-3.674071">
        <ele>731.333</ele>
        <time>2015-02-15T08:45:07Z</time>
      </trkpt>
      <trkpt lat="40.661082" lon="-3.674145">
        <ele>731.799</ele>
        <time>2015-02-15T08:45:10Z</time>
      </trkpt>
      <trkpt lat="40.661138" lon="-3.674220">
        <ele>732.210</ele>
        <time>2015-02-15T08:45:13Z</time>
      </trkpt>
      <trkpt lat="40.661193" lon="-3.674298">
        <ele>732.757</ele>
        <time>2015-02-15T08:45:16Z</time>
      </trkpt>
      <trkpt lat="40.661225" lon="-3.674354">
        <ele>733.000</ele>
        <time>2015-02-15T08:45:18Z</time>
      </trkpt>
      <trkpt lat="40.661251" lon="-3.674423">
        <ele>733.320</ele>
        <time>2015-02-15T08:45:20Z</time>
      </trkpt>
      <trkpt lat="40.661264" lon="-3.674461">
        <ele>733.507</ele>
        <time>2015-02-15T08:45:21Z</time>
      </trkpt>
      <trkpt lat="40.661291" lon="-3.674520">
        <ele>733.873</ele>
        <time>2015-02-15T08:45:23Z</time>
      </trkpt>
      <trkpt lat="40.661308" lon="-3.674549">
        <ele>733.913</ele>
        <time>2015-02-15T08:45:24Z</time>
      </trkpt>
      <trkpt lat="40.661358" lon="-3.674635">
        <ele>734.462</ele>
        <time>2015-02-15T08:45:27Z</time>
      </trkpt>
      <trkpt lat="40.661398" lon="-3.674723">
        <ele>734.856</ele>
        <time>2015-02-15T08:45:30Z</time>
      </trkpt>
      <trkpt lat="40.661441" lon="-3.674811">
        <ele>735.335</ele>
        <time>2015-02-15T08:45:33Z</time>
      </trkpt>
      <trkpt lat="40.661481" lon="-3.674900">
        <ele>735.751</ele>
        <time>2015-02-15T08:45:36Z</time>
      </trkpt>
      <trkpt lat="40.661512" lon="-3.674950">
        <ele>736.052</ele>
        <time>2015-02-15T08:45:38Z</time>
      </trkpt>
      <trkpt lat="40.661553" lon="-3.675021">
        <ele>736.514</ele>
        <time>2015-02-15T08:45:41Z</time>
      </trkpt>
      <trkpt lat="40.661606" lon="-3.675119">
        <ele>737.054</ele>
        <time>2015-02-15T08:45:45Z</time>
      </trkpt>
      <trkpt lat="40.661635" lon="-3.675183">
        <ele>737.209</ele>
        <time>2015-02-15T08:45:47Z</time>
      </trkpt>
      <trkpt lat="40.661668" lon="-3.675253">
        <ele>737.407</ele>
        <time>2015-02-15T08:45:49Z</time>
      </trkpt>
      <trkpt lat="40.661722" lon="-3.675363">
        <ele>737.659</ele>
        <time>2015-02-15T08:45:52Z</time>
      </trkpt>
      <trkpt lat="40.661780" lon="-3.675486">
        <ele>737.829</ele>
        <time>2015-02-15T08:45:55Z</time>
      </trkpt>
      <trkpt lat="40.661814" lon="-3.675563">
        <ele>737.928</ele>
        <time>2015-02-15T08:45:57Z</time>
      </trkpt>
      <trkpt lat="40.661839" lon="-3.675635">
        <ele>738.032</ele>
        <time>2015-02-15T08:46:00Z</time>
      </trkpt>
      <trkpt lat="40.661868" lon="-3.675736">
        <ele>738.291</ele>
        <time>2015-02-15T08:46:03Z</time>
      </trkpt>
      <trkpt lat="40.661896" lon="-3.675843">
        <ele>738.327</ele>
        <time>2015-02-15T08:46:06Z</time>
      </trkpt>
      <trkpt lat="40.661927" lon="-3.675949">
        <ele>738.538</ele>
        <time>2015-02-15T08:46:09Z</time>
      </trkpt>
      <trkpt lat="40.661955" lon="-3.676009">
        <ele>738.523</ele>
        <time>2015-02-15T08:46:11Z</time>
      </trkpt>
      <trkpt lat="40.661994" lon="-3.676104">
        <ele>738.683</ele>
        <time>2015-02-15T08:46:14Z</time>
      </trkpt>
      <trkpt lat="40.662030" lon="-3.676153">
        <ele>738.711</ele>
        <time>2015-02-15T08:46:16Z</time>
      </trkpt>
      <trkpt lat="40.662051" lon="-3.676174">
        <ele>738.707</ele>
        <time>2015-02-15T08:46:17Z</time>
      </trkpt>
      <trkpt lat="40.662071" lon="-3.676191">
        <ele>738.880</ele>
        <time>2015-02-15T08:46:18Z</time>
      </trkpt>
      <trkpt lat="40.662142" lon="-3.676241">
        <ele>738.820</ele>
        <time>2015-02-15T08:46:20Z</time>
      </trkpt>
      <trkpt lat="40.662191" lon="-3.676267">
        <ele>738.939</ele>
        <time>2015-02-15T08:46:22Z</time>
      </trkpt>
      <trkpt lat="40.662243" lon="-3.676286">
        <ele>739.033</ele>
        <time>2015-02-15T08:46:24Z</time>
      </trkpt>
      <trkpt lat="40.662294" lon="-3.676296">
        <ele>739.172</ele>
        <time>2015-02-15T08:46:26Z</time>
      </trkpt>
      <trkpt lat="40.662372" lon="-3.676312">
        <ele>739.268</ele>
        <time>2015-02-15T08:46:29Z</time>
      </trkpt>
      <trkpt lat="40.662449" lon="-3.676327">
        <ele>739.479</ele>
        <time>2015-02-15T08:46:32Z</time>
      </trkpt>
      <trkpt lat="40.662524" lon="-3.676336">
        <ele>739.531</ele>
        <time>2015-02-15T08:46:35Z</time>
      </trkpt>
      <trkpt lat="40.662622" lon="-3.676354">
        <ele>739.661</ele>
        <time>2015-02-15T08:46:39Z</time>
      </trkpt>
      <trkpt lat="40.662670" lon="-3.676353">
        <ele>739.707</ele>
        <time>2015-02-15T08:46:41Z</time>
      </trkpt>
      <trkpt lat="40.662740" lon="-3.676346">
        <ele>739.907</ele>
        <time>2015-02-15T08:46:44Z</time>
      </trkpt>
      <trkpt lat="40.662785" lon="-3.676330">
        <ele>740.061</ele>
        <time>2015-02-15T08:46:46Z</time>
      </trkpt>
      <trkpt lat="40.662858" lon="-3.676308">
        <ele>740.231</ele>
        <time>2015-02-15T08:46:49Z</time>
      </trkpt>
      <trkpt lat="40.662942" lon="-3.676277">
        <ele>740.390</ele>
        <time>2015-02-15T08:46:52Z</time>
      </trkpt>
      <trkpt lat="40.663001" lon="-3.676267">
        <ele>740.514</ele>
        <time>2015-02-15T08:46:54Z</time>
      </trkpt>
      <trkpt lat="40.663092" lon="-3.676243">
        <ele>740.743</ele>
        <time>2015-02-15T08:46:57Z</time>
      </trkpt>
      <trkpt lat="40.663154" lon="-3.676220">
        <ele>740.999</ele>
        <time>2015-02-15T08:46:59Z</time>
      </trkpt>
      <trkpt lat="40.663248" lon="-3.676190">
        <ele>741.170</ele>
        <time>2015-02-15T08:47:02Z</time>
      </trkpt>
      <trkpt lat="40.663311" lon="-3.676180">
        <ele>741.326</ele>
        <time>2015-02-15T08:47:04Z</time>
      </trkpt>
      <trkpt lat="40.663396" lon="-3.676157">
        <ele>741.647</ele>
        <time>2015-02-15T08:47:07Z</time>
      </trkpt>
      <trkpt lat="40.663475" lon="-3.676144">
        <ele>741.911</ele>
        <time>2015-02-15T08:47:10Z</time>
      </trkpt>
      <trkpt lat="40.663553" lon="-3.676131">
        <ele>742.207</ele>
        <time>2015-02-15T08:47:13Z</time>
      </trkpt>
      <trkpt lat="40.663628" lon="-3.676112">
        <ele>742.530</ele>
        <time>2015-02-15T08:47:16Z</time>
      </trkpt>
      <trkpt lat="40.663718" lon="-3.676089">
        <ele>742.910</ele>
        <time>2015-02-15T08:47:20Z</time>
      </trkpt>
      <trkpt lat="40.663765" lon="-3.676066">
        <ele>743.129</ele>
        <time>2015-02-15T08:47:22Z</time>
      </trkpt>
      <trkpt lat="40.663788" lon="-3.676052">
        <ele>743.253</ele>
        <time>2015-02-15T08:47:24Z</time>
      </trkpt>
      <trkpt lat="40.663835" lon="-3.676016">
        <ele>743.322</ele>
        <time>2015-02-15T08:47:26Z</time>
      </trkpt>
      <trkpt lat="40.663858" lon="-3.675997">
        <ele>743.318</ele>
        <time>2015-02-15T08:47:27Z</time>
      </trkpt>
      <trkpt lat="40.663932" lon="-3.675948">
        <ele>743.439</ele>
        <time>2015-02-15T08:47:30Z</time>
      </trkpt>
      <trkpt lat="40.664015" lon="-3.675903">
        <ele>743.472</ele>
        <time>2015-02-15T08:47:33Z</time>
      </trkpt>
      <trkpt lat="40.664098" lon="-3.675867">
        <ele>743.413</ele>
        <time>2015-02-15T08:47:36Z</time>
      </trkpt>
      <trkpt lat="40.664130" lon="-3.675859">
        <ele>743.414</ele>
        <time>2015-02-15T08:47:37Z</time>
      </trkpt>
      <trkpt lat="40.664194" lon="-3.675845">
        <ele>743.307</ele>
        <time>2015-02-15T08:47:39Z</time>
      </trkpt>
      <trkpt lat="40.664254" lon="-3.675829">
        <ele>743.365</ele>
        <time>2015-02-15T08:47:41Z</time>
      </trkpt>
      <trkpt lat="40.664340" lon="-3.675800">
        <ele>743.285</ele>
        <time>2015-02-15T08:47:44Z</time>
      </trkpt>
      <trkpt lat="40.664430" lon="-3.675777">
        <ele>743.124</ele>
        <time>2015-02-15T08:47:47Z</time>
      </trkpt>
      <trkpt lat="40.664510" lon="-3.675753">
        <ele>743.058</ele>
        <time>2015-02-15T08:47:50Z</time>
      </trkpt>
      <trkpt lat="40.664599" lon="-3.675741">
        <ele>743.087</ele>
        <time>2015-02-15T08:47:52Z</time>
      </trkpt>
      <trkpt lat="40.664720" lon="-3.675725">
        <ele>742.993</ele>
        <time>2015-02-15T08:47:56Z</time>
      </trkpt>
      <trkpt lat="40.664808" lon="-3.675713">
        <ele>742.814</ele>
        <time>2015-02-15T08:47:59Z</time>
      </trkpt>
      <trkpt lat="40.664835" lon="-3.675709">
        <ele>742.841</ele>
        <time>2015-02-15T08:48:00Z</time>
      </trkpt>
      <trkpt lat="40.664922" lon="-3.675699">
        <ele>742.881</ele>
        <time>2015-02-15T08:48:03Z</time>
      </trkpt>
      <trkpt lat="40.665003" lon="-3.675693">
        <ele>742.809</ele>
        <time>2015-02-15T08:48:06Z</time>
      </trkpt>
      <trkpt lat="40.665082" lon="-3.675682">
        <ele>742.707</ele>
        <time>2015-02-15T08:48:09Z</time>
      </trkpt>
      <trkpt lat="40.665155" lon="-3.675681">
        <ele>742.782</ele>
        <time>2015-02-15T08:48:12Z</time>
      </trkpt>
      <trkpt lat="40.665223" lon="-3.675676">
        <ele>742.762</ele>
        <time>2015-02-15T08:48:15Z</time>
      </trkpt>
      <trkpt lat="40.665288" lon="-3.675679">
        <ele>742.761</ele>
        <time>2015-02-15T08:48:18Z</time>
      </trkpt>
      <trkpt lat="40.665350" lon="-3.675677">
        <ele>742.775</ele>
        <time>2015-02-15T08:48:21Z</time>
      </trkpt>
      <trkpt lat="40.665389" lon="-3.675677">
        <ele>742.764</ele>
        <time>2015-02-15T08:48:23Z</time>
      </trkpt>
      <trkpt lat="40.665447" lon="-3.675678">
        <ele>742.680</ele>
        <time>2015-02-15T08:48:26Z</time>
      </trkpt>
      <trkpt lat="40.665490" lon="-3.675675">
        <ele>742.631</ele>
        <time>2015-02-15T08:48:28Z</time>
      </trkpt>
      <trkpt lat="40.665578" lon="-3.675671">
        <ele>742.753</ele>
        <time>2015-02-15T08:48:32Z</time>
      </trkpt>
      <trkpt lat="40.665646" lon="-3.675667">
        <ele>742.904</ele>
        <time>2015-02-15T08:48:35Z</time>
      </trkpt>
      <trkpt lat="40.665693" lon="-3.675652">
        <ele>743.014</ele>
        <time>2015-02-15T08:48:37Z</time>
      </trkpt>
      <trkpt lat="40.665751" lon="-3.675639">
        <ele>743.307</ele>
        <time>2015-02-15T08:48:40Z</time>
      </trkpt>
      <trkpt lat="40.665811" lon="-3.675628">
        <ele>743.623</ele>
        <time>2015-02-15T08:48:44Z</time>
      </trkpt>
      <trkpt lat="40.665874" lon="-3.675617">
        <ele>743.973</ele>
        <time>2015-02-15T08:48:47Z</time>
      </trkpt>
      <trkpt lat="40.665913" lon="-3.675604">
        <ele>744.292</ele>
        <time>2015-02-15T08:48:49Z</time>
      </trkpt>
      <trkpt lat="40.665975" lon="-3.675596">
        <ele>744.686</ele>
        <time>2015-02-15T08:48:52Z</time>
      </trkpt>
      <trkpt lat="40.666040" lon="-3.675592">
        <ele>745.165</ele>
        <time>2015-02-15T08:48:55Z</time>
      </trkpt>
      <trkpt lat="40.666080" lon="-3.675595">
        <ele>745.521</ele>
        <time>2015-02-15T08:48:57Z</time>
      </trkpt>
      <trkpt lat="40.666121" lon="-3.675602">
        <ele>745.882</ele>
        <time>2015-02-15T08:48:59Z</time>
      </trkpt>
      <trkpt lat="40.666179" lon="-3.675620">
        <ele>746.383</ele>
        <time>2015-02-15T08:49:02Z</time>
      </trkpt>
      <trkpt lat="40.666276" lon="-3.675651">
        <ele>747.025</ele>
        <time>2015-02-15T08:49:06Z</time>
      </trkpt>
      <trkpt lat="40.666337" lon="-3.675678">
        <ele>747.617</ele>
        <time>2015-02-15T08:49:09Z</time>
      </trkpt>
      <trkpt lat="40.666392" lon="-3.675691">
        <ele>748.107</ele>
        <time>2015-02-15T08:49:12Z</time>
      </trkpt>
      <trkpt lat="40.666447" lon="-3.675711">
        <ele>748.776</ele>
        <time>2015-02-15T08:49:15Z</time>
      </trkpt>
      <trkpt lat="40.666499" lon="-3.675734">
        <ele>749.236</ele>
        <time>2015-02-15T08:49:18Z</time>
      </trkpt>
      <trkpt lat="40.666559" lon="-3.675755">
        <ele>749.845</ele>
        <time>2015-02-15T08:49:21Z</time>
      </trkpt>
      <trkpt lat="40.666629" lon="-3.675786">
        <ele>750.879</ele>
        <time>2015-02-15T08:49:25Z</time>
      </trkpt>
      <trkpt lat="40.666705" lon="-3.675814">
        <ele>751.768</ele>
        <time>2015-02-15T08:49:29Z</time>
      </trkpt>
      <trkpt lat="40.666765" lon="-3.675833">
        <ele>752.514</ele>
        <time>2015-02-15T08:49:32Z</time>
      </trkpt>
      <trkpt lat="40.666821" lon="-3.675852">
        <ele>753.335</ele>
        <time>2015-02-15T08:49:35Z</time>
      </trkpt>
      <trkpt lat="40.666876" lon="-3.675869">
        <ele>754.175</ele>
        <time>2015-02-15T08:49:38Z</time>
      </trkpt>
      <trkpt lat="40.666929" lon="-3.675892">
        <ele>754.828</ele>
        <time>2015-02-15T08:49:41Z</time>
      </trkpt>
      <trkpt lat="40.666982" lon="-3.675914">
        <ele>755.620</ele>
        <time>2015-02-15T08:49:44Z</time>
      </trkpt>
      <trkpt lat="40.667040" lon="-3.675952">
        <ele>756.507</ele>
        <time>2015-02-15T08:49:48Z</time>
      </trkpt>
      <trkpt lat="40.667080" lon="-3.675980">
        <ele>757.155</ele>
        <time>2015-02-15T08:49:52Z</time>
      </trkpt>
      <trkpt lat="40.667125" lon="-3.676005">
        <ele>757.735</ele>
        <time>2015-02-15T08:49:55Z</time>
      </trkpt>
      <trkpt lat="40.667171" lon="-3.676030">
        <ele>758.454</ele>
        <time>2015-02-15T08:49:58Z</time>
      </trkpt>
      <trkpt lat="40.667196" lon="-3.676060">
        <ele>758.868</ele>
        <time>2015-02-15T08:50:00Z</time>
      </trkpt>
      <trkpt lat="40.667223" lon="-3.676088">
        <ele>759.387</ele>
        <time>2015-02-15T08:50:02Z</time>
      </trkpt>
      <trkpt lat="40.667261" lon="-3.676129">
        <ele>759.933</ele>
        <time>2015-02-15T08:50:05Z</time>
      </trkpt>
      <trkpt lat="40.667278" lon="-3.676164">
        <ele>760.324</ele>
        <time>2015-02-15T08:50:07Z</time>
      </trkpt>
      <trkpt lat="40.667284" lon="-3.676183">
        <ele>760.562</ele>
        <time>2015-02-15T08:50:08Z</time>
      </trkpt>
      <trkpt lat="40.667289" lon="-3.676206">
        <ele>760.783</ele>
        <time>2015-02-15T08:50:09Z</time>
      </trkpt>
      <trkpt lat="40.667304" lon="-3.676242">
        <ele>761.111</ele>
        <time>2015-02-15T08:50:11Z</time>
      </trkpt>
      <trkpt lat="40.667327" lon="-3.676303">
        <ele>761.707</ele>
        <time>2015-02-15T08:50:14Z</time>
      </trkpt>
      <trkpt lat="40.667337" lon="-3.676351">
        <ele>762.184</ele>
        <time>2015-02-15T08:50:16Z</time>
      </trkpt>
      <trkpt lat="40.667363" lon="-3.676431">
        <ele>762.864</ele>
        <time>2015-02-15T08:50:19Z</time>
      </trkpt>
      <trkpt lat="40.667379" lon="-3.676465">
        <ele>763.293</ele>
        <time>2015-02-15T08:50:21Z</time>
      </trkpt>
      <trkpt lat="40.667399" lon="-3.676525">
        <ele>763.957</ele>
        <time>2015-02-15T08:50:24Z</time>
      </trkpt>
      <trkpt lat="40.667424" lon="-3.676558">
        <ele>764.396</ele>
        <time>2015-02-15T08:50:26Z</time>
      </trkpt>
      <trkpt lat="40.667438" lon="-3.676574">
        <ele>764.582</ele>
        <time>2015-02-15T08:50:27Z</time>
      </trkpt>
      <trkpt lat="40.667452" lon="-3.676590">
        <ele>764.753</ele>
        <time>2015-02-15T08:50:28Z</time>
      </trkpt>
      <trkpt lat="40.667489" lon="-3.676642">
        <ele>765.285</ele>
        <time>2015-02-15T08:50:31Z</time>
      </trkpt>
      <trkpt lat="40.667544" lon="-3.676705">
        <ele>765.989</ele>
        <time>2015-02-15T08:50:35Z</time>
      </trkpt>
      <trkpt lat="40.667585" lon="-3.676747">
        <ele>766.417</ele>
        <time>2015-02-15T08:50:38Z</time>
      </trkpt>
      <trkpt lat="40.667620" lon="-3.676767">
        <ele>766.707</ele>
        <time>2015-02-15T08:50:40Z</time>
      </trkpt>
      <trkpt lat="40.667665" lon="-3.676810">
        <ele>767.236</ele>
        <time>2015-02-15T08:50:43Z</time>
      </trkpt>
      <trkpt lat="40.667708" lon="-3.676844">
        <ele>767.846</ele>
        <time>2015-02-15T08:50:46Z</time>
      </trkpt>
      <trkpt lat="40.667755" lon="-3.676883">
        <ele>768.315</ele>
        <time>2015-02-15T08:50:49Z</time>
      </trkpt>
      <trkpt lat="40.667805" lon="-3.676921">
        <ele>769.099</ele>
        <time>2015-02-15T08:50:52Z</time>
      </trkpt>
      <trkpt lat="40.667848" lon="-3.676949">
        <ele>769.618</ele>
        <time>2015-02-15T08:50:55Z</time>
      </trkpt>
      <trkpt lat="40.667894" lon="-3.676988">
        <ele>770.144</ele>
        <time>2015-02-15T08:50:58Z</time>
      </trkpt>
      <trkpt lat="40.667939" lon="-3.677021">
        <ele>770.555</ele>
        <time>2015-02-15T08:51:02Z</time>
      </trkpt>
      <trkpt lat="40.668006" lon="-3.677079">
        <ele>771.234</ele>
        <time>2015-02-15T08:51:05Z</time>
      </trkpt>
      <trkpt lat="40.668040" lon="-3.677094">
        <ele>771.655</ele>
        <time>2015-02-15T08:51:08Z</time>
      </trkpt>
      <trkpt lat="40.668070" lon="-3.677118">
        <ele>771.910</ele>
        <time>2015-02-15T08:51:10Z</time>
      </trkpt>
      <trkpt lat="40.668105" lon="-3.677144">
        <ele>772.307</ele>
        <time>2015-02-15T08:51:12Z</time>
      </trkpt>
      <trkpt lat="40.668152" lon="-3.677178">
        <ele>772.991</ele>
        <time>2015-02-15T08:51:15Z</time>
      </trkpt>
      <trkpt lat="40.668206" lon="-3.677204">
        <ele>773.491</ele>
        <time>2015-02-15T08:51:18Z</time>
      </trkpt>
      <trkpt lat="40.668263" lon="-3.677223">
        <ele>773.980</ele>
        <time>2015-02-15T08:51:21Z</time>
      </trkpt>
      <trkpt lat="40.668302" lon="-3.677229">
        <ele>774.354</ele>
        <time>2015-02-15T08:51:23Z</time>
      </trkpt>
      <trkpt lat="40.668360" lon="-3.677233">
        <ele>774.813</ele>
        <time>2015-02-15T08:51:26Z</time>
      </trkpt>
      <trkpt lat="40.668443" lon="-3.677226">
        <ele>775.479</ele>
        <time>2015-02-15T08:51:29Z</time>
      </trkpt>
      <trkpt lat="40.668499" lon="-3.677206">
        <ele>775.930</ele>
        <time>2015-02-15T08:51:32Z</time>
      </trkpt>
      <trkpt lat="40.668556" lon="-3.677177">
        <ele>776.496</ele>
        <time>2015-02-15T08:51:35Z</time>
      </trkpt>
      <trkpt lat="40.668612" lon="-3.677150">
        <ele>777.031</ele>
        <time>2015-02-15T08:51:38Z</time>
      </trkpt>
      <trkpt lat="40.668669" lon="-3.677122">
        <ele>777.424</ele>
        <time>2015-02-15T08:51:41Z</time>
      </trkpt>
      <trkpt lat="40.668747" lon="-3.677088">
        <ele>778.007</ele>
        <time>2015-02-15T08:51:45Z</time>
      </trkpt>
      <trkpt lat="40.668791" lon="-3.677084">
        <ele>778.337</ele>
        <time>2015-02-15T08:51:47Z</time>
      </trkpt>
      <trkpt lat="40.668835" lon="-3.677087">
        <ele>778.587</ele>
        <time>2015-02-15T08:51:49Z</time>
      </trkpt>
      <trkpt lat="40.668855" lon="-3.677096">
        <ele>778.696</ele>
        <time>2015-02-15T08:51:50Z</time>
      </trkpt>
      <trkpt lat="40.668893" lon="-3.677111">
        <ele>778.840</ele>
        <time>2015-02-15T08:51:52Z</time>
      </trkpt>
      <trkpt lat="40.668929" lon="-3.677135">
        <ele>779.089</ele>
        <time>2015-02-15T08:51:54Z</time>
      </trkpt>
      <trkpt lat="40.668948" lon="-3.677152">
        <ele>779.165</ele>
        <time>2015-02-15T08:51:55Z</time>
      </trkpt>
      <trkpt lat="40.668961" lon="-3.677165">
        <ele>779.256</ele>
        <time>2015-02-15T08:51:56Z</time>
      </trkpt>
      <trkpt lat="40.668988" lon="-3.677194">
        <ele>779.539</ele>
        <time>2015-02-15T08:51:58Z</time>
      </trkpt>
      <trkpt lat="40.669012" lon="-3.677237">
        <ele>779.701</ele>
        <time>2015-02-15T08:52:00Z</time>
      </trkpt>
      <trkpt lat="40.669021" lon="-3.677261">
        <ele>779.821</ele>
        <time>2015-02-15T08:52:01Z</time>
      </trkpt>
      <trkpt lat="40.669031" lon="-3.677287">
        <ele>779.907</ele>
        <time>2015-02-15T08:52:02Z</time>
      </trkpt>
      <trkpt lat="40.669055" lon="-3.677357">
        <ele>780.241</ele>
        <time>2015-02-15T08:52:05Z</time>
      </trkpt>
      <trkpt lat="40.669061" lon="-3.677403">
        <ele>780.411</ele>
        <time>2015-02-15T08:52:07Z</time>
      </trkpt>
      <trkpt lat="40.669074" lon="-3.677480">
        <ele>780.740</ele>
        <time>2015-02-15T08:52:10Z</time>
      </trkpt>
      <trkpt lat="40.669085" lon="-3.677549">
        <ele>781.154</ele>
        <time>2015-02-15T08:52:13Z</time>
      </trkpt>
      <trkpt lat="40.669085" lon="-3.677578">
        <ele>781.273</ele>
        <time>2015-02-15T08:52:14Z</time>
      </trkpt>
      <trkpt lat="40.669090" lon="-3.677629">
        <ele>781.369</ele>
        <time>2015-02-15T08:52:16Z</time>
      </trkpt>
      <trkpt lat="40.669100" lon="-3.677677">
        <ele>781.430</ele>
        <time>2015-02-15T08:52:18Z</time>
      </trkpt>
      <trkpt lat="40.669106" lon="-3.677700">
        <ele>781.585</ele>
        <time>2015-02-15T08:52:19Z</time>
      </trkpt>
      <trkpt lat="40.669121" lon="-3.677750">
        <ele>781.689</ele>
        <time>2015-02-15T08:52:21Z</time>
      </trkpt>
      <trkpt lat="40.669146" lon="-3.677816">
        <ele>781.717</ele>
        <time>2015-02-15T08:52:24Z</time>
      </trkpt>
      <trkpt lat="40.669167" lon="-3.677882">
        <ele>781.807</ele>
        <time>2015-02-15T08:52:27Z</time>
      </trkpt>
      <trkpt lat="40.669188" lon="-3.677923">
        <ele>781.966</ele>
        <time>2015-02-15T08:52:29Z</time>
      </trkpt>
      <trkpt lat="40.669203" lon="-3.677941">
        <ele>781.976</ele>
        <time>2015-02-15T08:52:30Z</time>
      </trkpt>
      <trkpt lat="40.669222" lon="-3.677956">
        <ele>781.935</ele>
        <time>2015-02-15T08:52:31Z</time>
      </trkpt>
      <trkpt lat="40.669238" lon="-3.677973">
        <ele>782.059</ele>
        <time>2015-02-15T08:52:33Z</time>
      </trkpt>
      <trkpt lat="40.669256" lon="-3.677989">
        <ele>782.068</ele>
        <time>2015-02-15T08:52:34Z</time>
      </trkpt>
      <trkpt lat="40.669277" lon="-3.677999">
        <ele>782.074</ele>
        <time>2015-02-15T08:52:35Z</time>
      </trkpt>
      <trkpt lat="40.669315" lon="-3.678018">
        <ele>782.285</ele>
        <time>2015-02-15T08:52:37Z</time>
      </trkpt>
      <trkpt lat="40.669335" lon="-3.678024">
        <ele>782.367</ele>
        <time>2015-02-15T08:52:38Z</time>
      </trkpt>
      <trkpt lat="40.669378" lon="-3.678031">
        <ele>782.581</ele>
        <time>2015-02-15T08:52:40Z</time>
      </trkpt>
      <trkpt lat="40.669395" lon="-3.678030">
        <ele>782.519</ele>
        <time>2015-02-15T08:52:41Z</time>
      </trkpt>
      <trkpt lat="40.669415" lon="-3.678018">
        <ele>782.607</ele>
        <time>2015-02-15T08:52:42Z</time>
      </trkpt>
      <trkpt lat="40.669432" lon="-3.678013">
        <ele>782.714</ele>
        <time>2015-02-15T08:52:43Z</time>
      </trkpt>
      <trkpt lat="40.669449" lon="-3.678001">
        <ele>782.884</ele>
        <time>2015-02-15T08:52:44Z</time>
      </trkpt>
      <trkpt lat="40.669465" lon="-3.677991">
        <ele>783.023</ele>
        <time>2015-02-15T08:52:45Z</time>
      </trkpt>
      <trkpt lat="40.669487" lon="-3.677977">
        <ele>783.117</ele>
        <time>2015-02-15T08:52:46Z</time>
      </trkpt>
      <trkpt lat="40.669501" lon="-3.677967">
        <ele>783.276</ele>
        <time>2015-02-15T08:52:47Z</time>
      </trkpt>
      <trkpt lat="40.669527" lon="-3.677941">
        <ele>783.322</ele>
        <time>2015-02-15T08:52:49Z</time>
      </trkpt>
      <trkpt lat="40.669581" lon="-3.677912">
        <ele>783.663</ele>
        <time>2015-02-15T08:52:52Z</time>
      </trkpt>
      <trkpt lat="40.669620" lon="-3.677892">
        <ele>783.815</ele>
        <time>2015-02-15T08:52:54Z</time>
      </trkpt>
      <trkpt lat="40.669657" lon="-3.677886">
        <ele>784.165</ele>
        <time>2015-02-15T08:52:56Z</time>
      </trkpt>
      <trkpt lat="40.669675" lon="-3.677887">
        <ele>784.211</ele>
        <time>2015-02-15T08:52:57Z</time>
      </trkpt>
      <trkpt lat="40.669696" lon="-3.677888">
        <ele>784.307</ele>
        <time>2015-02-15T08:52:58Z</time>
      </trkpt>
      <trkpt lat="40.669718" lon="-3.677894">
        <ele>784.479</ele>
        <time>2015-02-15T08:52:59Z</time>
      </trkpt>
      <trkpt lat="40.669781" lon="-3.677908">
        <ele>784.859</ele>
        <time>2015-02-15T08:53:02Z</time>
      </trkpt>
      <trkpt lat="40.669840" lon="-3.677935">
        <ele>785.028</ele>
        <time>2015-02-15T08:53:04Z</time>
      </trkpt>
      <trkpt lat="40.669877" lon="-3.677957">
        <ele>785.232</ele>
        <time>2015-02-15T08:53:06Z</time>
      </trkpt>
      <trkpt lat="40.669939" lon="-3.677983">
        <ele>785.591</ele>
        <time>2015-02-15T08:53:09Z</time>
      </trkpt>
      <trkpt lat="40.669983" lon="-3.677993">
        <ele>785.737</ele>
        <time>2015-02-15T08:53:11Z</time>
      </trkpt>
      <trkpt lat="40.670001" lon="-3.677992">
        <ele>785.838</ele>
        <time>2015-02-15T08:53:12Z</time>
      </trkpt>
      <trkpt lat="40.670034" lon="-3.677984">
        <ele>785.961</ele>
        <time>2015-02-15T08:53:14Z</time>
      </trkpt>
      <trkpt lat="40.670067" lon="-3.677973">
        <ele>786.121</ele>
        <time>2015-02-15T08:53:16Z</time>
      </trkpt>
      <trkpt lat="40.670085" lon="-3.677962">
        <ele>786.213</ele>
        <time>2015-02-15T08:53:17Z</time>
      </trkpt>
      <trkpt lat="40.670117" lon="-3.677937">
        <ele>786.407</ele>
        <time>2015-02-15T08:53:19Z</time>
      </trkpt>
      <trkpt lat="40.670166" lon="-3.677900">
        <ele>786.824</ele>
        <time>2015-02-15T08:53:22Z</time>
      </trkpt>
      <trkpt lat="40.670209" lon="-3.677850">
        <ele>787.194</ele>
        <time>2015-02-15T08:53:25Z</time>
      </trkpt>
      <trkpt lat="40.670220" lon="-3.677828">
        <ele>787.313</ele>
        <time>2015-02-15T08:53:26Z</time>
      </trkpt>
      <trkpt lat="40.670245" lon="-3.677786">
        <ele>787.577</ele>
        <time>2015-02-15T08:53:28Z</time>
      </trkpt>
      <trkpt lat="40.670281" lon="-3.677724">
        <ele>787.916</ele>
        <time>2015-02-15T08:53:31Z</time>
      </trkpt>
      <trkpt lat="40.670297" lon="-3.677689">
        <ele>788.292</ele>
        <time>2015-02-15T08:53:33Z</time>
      </trkpt>
      <trkpt lat="40.670329" lon="-3.677649">
        <ele>788.693</ele>
        <time>2015-02-15T08:53:36Z</time>
      </trkpt>
      <trkpt lat="40.670362" lon="-3.677614">
        <ele>788.818</ele>
        <time>2015-02-15T08:53:38Z</time>
      </trkpt>
      <trkpt lat="40.670406" lon="-3.677570">
        <ele>789.198</ele>
        <time>2015-02-15T08:53:41Z</time>
      </trkpt>
      <trkpt lat="40.670442" lon="-3.677546">
        <ele>789.317</ele>
        <time>2015-02-15T08:53:43Z</time>
      </trkpt>
      <trkpt lat="40.670480" lon="-3.677526">
        <ele>789.507</ele>
        <time>2015-02-15T08:53:45Z</time>
      </trkpt>
      <trkpt lat="40.670518" lon="-3.677514">
        <ele>789.719</ele>
        <time>2015-02-15T08:53:47Z</time>
      </trkpt>
      <trkpt lat="40.670556" lon="-3.677508">
        <ele>790.099</ele>
        <time>2015-02-15T08:53:49Z</time>
      </trkpt>
      <trkpt lat="40.670574" lon="-3.677517">
        <ele>790.118</ele>
        <time>2015-02-15T08:53:50Z</time>
      </trkpt>
      <trkpt lat="40.670594" lon="-3.677524">
        <ele>790.212</ele>
        <time>2015-02-15T08:53:51Z</time>
      </trkpt>
      <trkpt lat="40.670610" lon="-3.677533">
        <ele>790.321</ele>
        <time>2015-02-15T08:53:52Z</time>
      </trkpt>
      <trkpt lat="40.670627" lon="-3.677542">
        <ele>790.487</ele>
        <time>2015-02-15T08:53:53Z</time>
      </trkpt>
      <trkpt lat="40.670664" lon="-3.677582">
        <ele>790.778</ele>
        <time>2015-02-15T08:53:56Z</time>
      </trkpt>
      <trkpt lat="40.670669" lon="-3.677605">
        <ele>790.863</ele>
        <time>2015-02-15T08:53:58Z</time>
      </trkpt>
      <trkpt lat="40.670675" lon="-3.677624">
        <ele>790.944</ele>
        <time>2015-02-15T08:53:58Z</time>
      </trkpt>
      <trkpt lat="40.670681" lon="-3.677646">
        <ele>791.018</ele>
        <time>2015-02-15T08:53:59Z</time>
      </trkpt>
      <trkpt lat="40.670693" lon="-3.677690">
        <ele>791.207</ele>
        <time>2015-02-15T08:54:01Z</time>
      </trkpt>
      <trkpt lat="40.670697" lon="-3.677741">
        <ele>791.494</ele>
        <time>2015-02-15T08:54:03Z</time>
      </trkpt>
      <trkpt lat="40.670698" lon="-3.677767">
        <ele>791.554</ele>
        <time>2015-02-15T08:54:05Z</time>
      </trkpt>
      <trkpt lat="40.670707" lon="-3.677866">
        <ele>791.933</ele>
        <time>2015-02-15T08:54:09Z</time>
      </trkpt>
      <trkpt lat="40.670715" lon="-3.677889">
        <ele>792.067</ele>
        <time>2015-02-15T08:54:10Z</time>
      </trkpt>
      <trkpt lat="40.670725" lon="-3.677915">
        <ele>792.186</ele>
        <time>2015-02-15T08:54:11Z</time>
      </trkpt>
      <trkpt lat="40.670739" lon="-3.677967">
        <ele>792.382</ele>
        <time>2015-02-15T08:54:13Z</time>
      </trkpt>
      <trkpt lat="40.670762" lon="-3.678012">
        <ele>792.563</ele>
        <time>2015-02-15T08:54:15Z</time>
      </trkpt>
      <trkpt lat="40.670776" lon="-3.678030">
        <ele>792.612</ele>
        <time>2015-02-15T08:54:16Z</time>
      </trkpt>
      <trkpt lat="40.670794" lon="-3.678034">
        <ele>792.732</ele>
        <time>2015-02-15T08:54:17Z</time>
      </trkpt>
      <trkpt lat="40.670817" lon="-3.678040">
        <ele>792.805</ele>
        <time>2015-02-15T08:54:18Z</time>
      </trkpt>
      <trkpt lat="40.670868" lon="-3.678056">
        <ele>792.907</ele>
        <time>2015-02-15T08:54:19Z</time>
      </trkpt>
      <trkpt lat="40.670919" lon="-3.678080">
        <ele>793.139</ele>
        <time>2015-02-15T08:54:21Z</time>
      </trkpt>
      <trkpt lat="40.670945" lon="-3.678088">
        <ele>793.229</ele>
        <time>2015-02-15T08:54:22Z</time>
      </trkpt>
      <trkpt lat="40.670962" lon="-3.678102">
        <ele>793.368</ele>
        <time>2015-02-15T08:54:23Z</time>
      </trkpt>
      <trkpt lat="40.670969" lon="-3.678111">
        <ele>793.482</ele>
        <time>2015-02-15T08:54:24Z</time>
      </trkpt>
      <trkpt lat="40.670978" lon="-3.678117">
        <ele>793.541</ele>
        <time>2015-02-15T08:54:25Z</time>
      </trkpt>
      <trkpt lat="40.670977" lon="-3.678121">
        <ele>793.697</ele>
        <time>2015-02-15T08:54:26Z</time>
      </trkpt>
      <trkpt lat="40.670976" lon="-3.678120">
        <ele>793.948</ele>
        <time>2015-02-15T08:54:30Z</time>
      </trkpt>
      <trkpt lat="40.670976" lon="-3.678118">
        <ele>794.124</ele>
        <time>2015-02-15T08:54:33Z</time>
      </trkpt>
      <trkpt lat="40.670972" lon="-3.678117">
        <ele>794.304</ele>
        <time>2015-02-15T08:54:36Z</time>
      </trkpt>
      <trkpt lat="40.670971" lon="-3.678117">
        <ele>794.514</ele>
        <time>2015-02-15T08:54:39Z</time>
      </trkpt>
      <trkpt lat="40.670971" lon="-3.678117">
        <ele>794.607</ele>
        <time>2015-02-15T08:54:41Z</time>
      </trkpt>
      <trkpt lat="40.670971" lon="-3.678117">
        <ele>794.620</ele>
        <time>2015-02-15T08:54:42Z</time>
      </trkpt>
      <trkpt lat="40.670971" lon="-3.678117">
        <ele>794.740</ele>
        <time>2015-02-15T08:54:45Z</time>
      </trkpt>
      <trkpt lat="40.670971" lon="-3.678117">
        <ele>794.879</ele>
        <time>2015-02-15T08:54:48Z</time>
      </trkpt>
      <trkpt lat="40.670972" lon="-3.678117">
        <ele>794.953</ele>
        <time>2015-02-15T08:54:51Z</time>
      </trkpt>
      <trkpt lat="40.670972" lon="-3.678117">
        <ele>795.042</ele>
        <time>2015-02-15T08:54:54Z</time>
      </trkpt>
      <trkpt lat="40.670972" lon="-3.678117">
        <ele>795.138</ele>
        <time>2015-02-15T08:54:58Z</time>
      </trkpt>
      <trkpt lat="40.670972" lon="-3.678117">
        <ele>795.199</ele>
        <time>2015-02-15T08:55:01Z</time>
      </trkpt>
      <trkpt lat="40.670972" lon="-3.678117">
        <ele>795.175</ele>
        <time>2015-02-15T08:55:04Z</time>
      </trkpt>
      <trkpt lat="40.670972" lon="-3.678117">
        <ele>795.228</ele>
        <time>2015-02-15T08:55:07Z</time>
      </trkpt>
      <trkpt lat="40.670972" lon="-3.678117">
        <ele>795.220</ele>
        <time>2015-02-15T08:55:11Z</time>
      </trkpt>
      <trkpt lat="40.670972" lon="-3.678117">
        <ele>795.107</ele>
        <time>2015-02-15T08:55:14Z</time>
      </trkpt>
      <trkpt lat="40.670972" lon="-3.678117">
        <ele>795.115</ele>
        <time>2015-02-15T08:55:18Z</time>
      </trkpt>
      <trkpt lat="40.670972" lon="-3.678117">
        <ele>795.125</ele>
        <time>2015-02-15T08:55:22Z</time>
      </trkpt>
      <trkpt lat="40.670972" lon="-3.678117">
        <ele>795.184</ele>
        <time>2015-02-15T08:55:26Z</time>
      </trkpt>
      <trkpt lat="40.670972" lon="-3.678117">
        <ele>795.138</ele>
        <time>2015-02-15T08:55:29Z</time>
      </trkpt>
      <trkpt lat="40.670972" lon="-3.678117">
        <ele>795.197</ele>
        <time>2015-02-15T08:55:33Z</time>
      </trkpt>
      <trkpt lat="40.670972" lon="-3.678118">
        <ele>795.173</ele>
        <time>2015-02-15T08:55:36Z</time>
      </trkpt>
      <trkpt lat="40.670972" lon="-3.678118">
        <ele>795.144</ele>
        <time>2015-02-15T08:55:40Z</time>
      </trkpt>
      <trkpt lat="40.670972" lon="-3.678117">
        <ele>795.125</ele>
        <time>2015-02-15T08:55:43Z</time>
      </trkpt>
      <trkpt lat="40.670972" lon="-3.678117">
        <ele>795.126</ele>
        <time>2015-02-15T08:55:47Z</time>
      </trkpt>
      <trkpt lat="40.670972" lon="-3.678117">
        <ele>795.108</ele>
        <time>2015-02-15T08:55:50Z</time>
      </trkpt>
      <trkpt lat="40.670972" lon="-3.678117">
        <ele>795.107</ele>
        <time>2015-02-15T08:55:53Z</time>
      </trkpt>
      <trkpt lat="40.670972" lon="-3.678117">
        <ele>795.130</ele>
        <time>2015-02-15T08:55:56Z</time>
      </trkpt>
      <trkpt lat="40.670972" lon="-3.678117">
        <ele>795.180</ele>
        <time>2015-02-15T08:55:59Z</time>
      </trkpt>
      <trkpt lat="40.670972" lon="-3.678117">
        <ele>795.149</ele>
        <time>2015-02-15T08:56:02Z</time>
      </trkpt>
      <trkpt lat="40.670972" lon="-3.678117">
        <ele>795.163</ele>
        <time>2015-02-15T08:56:05Z</time>
      </trkpt>
      <trkpt lat="40.670972" lon="-3.678117">
        <ele>795.112</ele>
        <time>2015-02-15T08:56:08Z</time>
      </trkpt>
      <trkpt lat="40.670972" lon="-3.678118">
        <ele>795.188</ele>
        <time>2015-02-15T08:56:11Z</time>
      </trkpt>
      <trkpt lat="40.670972" lon="-3.678118">
        <ele>795.149</ele>
        <time>2015-02-15T08:56:15Z</time>
      </trkpt>
      <trkpt lat="40.670972" lon="-3.678118">
        <ele>795.128</ele>
        <time>2015-02-15T08:56:18Z</time>
      </trkpt>
      <trkpt lat="40.670974" lon="-3.678115">
        <ele>795.189</ele>
        <time>2015-02-15T08:56:20Z</time>
      </trkpt>
      <trkpt lat="40.670983" lon="-3.678103">
        <ele>795.117</ele>
        <time>2015-02-15T08:56:23Z</time>
      </trkpt>
      <trkpt lat="40.670985" lon="-3.678097">
        <ele>795.207</ele>
        <time>2015-02-15T08:56:24Z</time>
      </trkpt>
      <trkpt lat="40.670982" lon="-3.678094">
        <ele>795.380</ele>
        <time>2015-02-15T08:56:27Z</time>
      </trkpt>
      <trkpt lat="40.670985" lon="-3.678086">
        <ele>795.380</ele>
        <time>2015-02-15T08:56:30Z</time>
      </trkpt>
      <trkpt lat="40.670988" lon="-3.678083">
        <ele>795.419</ele>
        <time>2015-02-15T08:56:33Z</time>
      </trkpt>
      <trkpt lat="40.670990" lon="-3.678083">
        <ele>795.573</ele>
        <time>2015-02-15T08:56:36Z</time>
      </trkpt>
      <trkpt lat="40.670992" lon="-3.678083">
        <ele>795.692</ele>
        <time>2015-02-15T08:56:39Z</time>
      </trkpt>
      <trkpt lat="40.670993" lon="-3.678087">
        <ele>795.728</ele>
        <time>2015-02-15T08:56:42Z</time>
      </trkpt>
      <trkpt lat="40.670993" lon="-3.678086">
        <ele>795.819</ele>
        <time>2015-02-15T08:56:46Z</time>
      </trkpt>
      <trkpt lat="40.670992" lon="-3.678086">
        <ele>795.985</ele>
        <time>2015-02-15T08:56:50Z</time>
      </trkpt>
      <trkpt lat="40.670992" lon="-3.678086">
        <ele>796.089</ele>
        <time>2015-02-15T08:56:53Z</time>
      </trkpt>
      <trkpt lat="40.670990" lon="-3.678092">
        <ele>796.117</ele>
        <time>2015-02-15T08:56:57Z</time>
      </trkpt>
      <trkpt lat="40.670996" lon="-3.678092">
        <ele>796.107</ele>
        <time>2015-02-15T08:57:00Z</time>
      </trkpt>
      <trkpt lat="40.670998" lon="-3.678090">
        <ele>796.296</ele>
        <time>2015-02-15T08:57:04Z</time>
      </trkpt>
      <trkpt lat="40.671001" lon="-3.678095">
        <ele>796.346</ele>
        <time>2015-02-15T08:57:06Z</time>
      </trkpt>
      <trkpt lat="40.671002" lon="-3.678096">
        <ele>796.315</ele>
        <time>2015-02-15T08:57:07Z</time>
      </trkpt>
      <trkpt lat="40.671002" lon="-3.678085">
        <ele>796.429</ele>
        <time>2015-02-15T08:57:11Z</time>
      </trkpt>
      <trkpt lat="40.670999" lon="-3.678083">
        <ele>796.498</ele>
        <time>2015-02-15T08:57:14Z</time>
      </trkpt>
      <trkpt lat="40.671008" lon="-3.678079">
        <ele>796.464</ele>
        <time>2015-02-15T08:57:15Z</time>
      </trkpt>
      <trkpt lat="40.671022" lon="-3.678079">
        <ele>796.455</ele>
        <time>2015-02-15T08:57:16Z</time>
      </trkpt>
      <trkpt lat="40.671053" lon="-3.678089">
        <ele>796.581</ele>
        <time>2015-02-15T08:57:18Z</time>
      </trkpt>
      <trkpt lat="40.671092" lon="-3.678112">
        <ele>796.561</ele>
        <time>2015-02-15T08:57:20Z</time>
      </trkpt>
      <trkpt lat="40.671154" lon="-3.678132">
        <ele>796.517</ele>
        <time>2015-02-15T08:57:23Z</time>
      </trkpt>
      <trkpt lat="40.671213" lon="-3.678154">
        <ele>796.507</ele>
        <time>2015-02-15T08:57:26Z</time>
      </trkpt>
      <trkpt lat="40.671232" lon="-3.678161">
        <ele>796.516</ele>
        <time>2015-02-15T08:57:27Z</time>
      </trkpt>
      <trkpt lat="40.671250" lon="-3.678167">
        <ele>796.586</ele>
        <time>2015-02-15T08:57:28Z</time>
      </trkpt>
      <trkpt lat="40.671289" lon="-3.678172">
        <ele>796.565</ele>
        <time>2015-02-15T08:57:30Z</time>
      </trkpt>
      <trkpt lat="40.671324" lon="-3.678172">
        <ele>796.549</ele>
        <time>2015-02-15T08:57:32Z</time>
      </trkpt>
      <trkpt lat="40.671377" lon="-3.678167">
        <ele>796.548</ele>
        <time>2015-02-15T08:57:35Z</time>
      </trkpt>
      <trkpt lat="40.671426" lon="-3.678156">
        <ele>796.544</ele>
        <time>2015-02-15T08:57:38Z</time>
      </trkpt>
      <trkpt lat="40.671461" lon="-3.678137">
        <ele>796.565</ele>
        <time>2015-02-15T08:57:40Z</time>
      </trkpt>
      <trkpt lat="40.671474" lon="-3.678128">
        <ele>796.537</ele>
        <time>2015-02-15T08:57:41Z</time>
      </trkpt>
      <trkpt lat="40.671498" lon="-3.678112">
        <ele>796.649</ele>
        <time>2015-02-15T08:57:43Z</time>
      </trkpt>
      <trkpt lat="40.671532" lon="-3.678082">
        <ele>796.613</ele>
        <time>2015-02-15T08:57:46Z</time>
      </trkpt>
      <trkpt lat="40.671551" lon="-3.678049">
        <ele>796.707</ele>
        <time>2015-02-15T08:57:48Z</time>
      </trkpt>
      <trkpt lat="40.671576" lon="-3.678023">
        <ele>796.871</ele>
        <time>2015-02-15T08:57:50Z</time>
      </trkpt>
      <trkpt lat="40.671603" lon="-3.678000">
        <ele>796.941</ele>
        <time>2015-02-15T08:57:52Z</time>
      </trkpt>
      <trkpt lat="40.671617" lon="-3.677988">
        <ele>797.010</ele>
        <time>2015-02-15T08:57:53Z</time>
      </trkpt>
      <trkpt lat="40.671646" lon="-3.677972">
        <ele>797.134</ele>
        <time>2015-02-15T08:57:55Z</time>
      </trkpt>
      <trkpt lat="40.671664" lon="-3.677972">
        <ele>797.273</ele>
        <time>2015-02-15T08:57:56Z</time>
      </trkpt>
      <trkpt lat="40.671685" lon="-3.677973">
        <ele>797.369</ele>
        <time>2015-02-15T08:57:58Z</time>
      </trkpt>
      <trkpt lat="40.671704" lon="-3.677981">
        <ele>797.450</ele>
        <time>2015-02-15T08:57:59Z</time>
      </trkpt>
      <trkpt lat="40.671719" lon="-3.677990">
        <ele>797.553</ele>
        <time>2015-02-15T08:58:00Z</time>
      </trkpt>
      <trkpt lat="40.671749" lon="-3.678003">
        <ele>797.704</ele>
        <time>2015-02-15T08:58:02Z</time>
      </trkpt>
      <trkpt lat="40.671764" lon="-3.678013">
        <ele>797.814</ele>
        <time>2015-02-15T08:58:03Z</time>
      </trkpt>
      <trkpt lat="40.671792" lon="-3.678035">
        <ele>798.007</ele>
        <time>2015-02-15T08:58:05Z</time>
      </trkpt>
      <trkpt lat="40.671818" lon="-3.678062">
        <ele>798.223</ele>
        <time>2015-02-15T08:58:07Z</time>
      </trkpt>
      <trkpt lat="40.671837" lon="-3.678099">
        <ele>798.473</ele>
        <time>2015-02-15T08:58:09Z</time>
      </trkpt>
      <trkpt lat="40.671854" lon="-3.678136">
        <ele>798.742</ele>
        <time>2015-02-15T08:58:11Z</time>
      </trkpt>
      <trkpt lat="40.671863" lon="-3.678171">
        <ele>798.976</ele>
        <time>2015-02-15T08:58:13Z</time>
      </trkpt>
      <trkpt lat="40.671865" lon="-3.678196">
        <ele>799.075</ele>
        <time>2015-02-15T08:58:14Z</time>
      </trkpt>
      <trkpt lat="40.671868" lon="-3.678218">
        <ele>799.291</ele>
        <time>2015-02-15T08:58:15Z</time>
      </trkpt>
      <trkpt lat="40.671869" lon="-3.678260">
        <ele>799.542</ele>
        <time>2015-02-15T08:58:17Z</time>
      </trkpt>
      <trkpt lat="40.671867" lon="-3.678281">
        <ele>799.645</ele>
        <time>2015-02-15T08:58:18Z</time>
      </trkpt>
      <trkpt lat="40.671862" lon="-3.678320">
        <ele>799.947</ele>
        <time>2015-02-15T08:58:20Z</time>
      </trkpt>
      <trkpt lat="40.671855" lon="-3.678382">
        <ele>800.411</ele>
        <time>2015-02-15T08:58:23Z</time>
      </trkpt>
      <trkpt lat="40.671845" lon="-3.678462">
        <ele>800.907</ele>
        <time>2015-02-15T08:58:26Z</time>
      </trkpt>
      <trkpt lat="40.671844" lon="-3.678517">
        <ele>801.462</ele>
        <time>2015-02-15T08:58:29Z</time>
      </trkpt>
      <trkpt lat="40.671839" lon="-3.678574">
        <ele>802.072</ele>
        <time>2015-02-15T08:58:32Z</time>
      </trkpt>
      <trkpt lat="40.671838" lon="-3.678652">
        <ele>802.811</ele>
        <time>2015-02-15T08:58:36Z</time>
      </trkpt>
      <trkpt lat="40.671846" lon="-3.678710">
        <ele>803.475</ele>
        <time>2015-02-15T08:58:39Z</time>
      </trkpt>
      <trkpt lat="40.671859" lon="-3.678749">
        <ele>803.824</ele>
        <time>2015-02-15T08:58:41Z</time>
      </trkpt>
      <trkpt lat="40.671872" lon="-3.678780">
        <ele>804.290</ele>
        <time>2015-02-15T08:58:43Z</time>
      </trkpt>
      <trkpt lat="40.671883" lon="-3.678795">
        <ele>804.521</ele>
        <time>2015-02-15T08:58:44Z</time>
      </trkpt>
      <trkpt lat="40.671895" lon="-3.678810">
        <ele>804.769</ele>
        <time>2015-02-15T08:58:45Z</time>
      </trkpt>
      <trkpt lat="40.671917" lon="-3.678834">
        <ele>805.104</ele>
        <time>2015-02-15T08:58:47Z</time>
      </trkpt>
      <trkpt lat="40.671941" lon="-3.678854">
        <ele>805.624</ele>
        <time>2015-02-15T08:58:49Z</time>
      </trkpt>
      <trkpt lat="40.671977" lon="-3.678883">
        <ele>806.207</ele>
        <time>2015-02-15T08:58:52Z</time>
      </trkpt>
      <trkpt lat="40.672004" lon="-3.678899">
        <ele>806.694</ele>
        <time>2015-02-15T08:58:54Z</time>
      </trkpt>
      <trkpt lat="40.672045" lon="-3.678924">
        <ele>807.274</ele>
        <time>2015-02-15T08:58:57Z</time>
      </trkpt>
      <trkpt lat="40.672085" lon="-3.678950">
        <ele>807.963</ele>
        <time>2015-02-15T08:59:00Z</time>
      </trkpt>
      <trkpt lat="40.672126" lon="-3.678969">
        <ele>808.527</ele>
        <time>2015-02-15T08:59:03Z</time>
      </trkpt>
      <trkpt lat="40.672168" lon="-3.678987">
        <ele>809.236</ele>
        <time>2015-02-15T08:59:06Z</time>
      </trkpt>
      <trkpt lat="40.672204" lon="-3.679006">
        <ele>809.822</ele>
        <time>2015-02-15T08:59:09Z</time>
      </trkpt>
      <trkpt lat="40.672241" lon="-3.679028">
        <ele>810.593</ele>
        <time>2015-02-15T08:59:12Z</time>
      </trkpt>
      <trkpt lat="40.672293" lon="-3.679060">
        <ele>811.467</ele>
        <time>2015-02-15T08:59:16Z</time>
      </trkpt>
      <trkpt lat="40.672330" lon="-3.679074">
        <ele>812.081</ele>
        <time>2015-02-15T08:59:19Z</time>
      </trkpt>
      <trkpt lat="40.672378" lon="-3.679102">
        <ele>812.819</ele>
        <time>2015-02-15T08:59:23Z</time>
      </trkpt>
      <trkpt lat="40.672388" lon="-3.679110">
        <ele>813.007</ele>
        <time>2015-02-15T08:59:24Z</time>
      </trkpt>
      <trkpt lat="40.672426" lon="-3.679128">
        <ele>813.674</ele>
        <time>2015-02-15T08:59:27Z</time>
      </trkpt>
      <trkpt lat="40.672457" lon="-3.679149">
        <ele>814.214</ele>
        <time>2015-02-15T08:59:31Z</time>
      </trkpt>
      <trkpt lat="40.672491" lon="-3.679173">
        <ele>814.823</ele>
        <time>2015-02-15T08:59:34Z</time>
      </trkpt>
      <trkpt lat="40.672537" lon="-3.679202">
        <ele>815.527</ele>
        <time>2015-02-15T08:59:38Z</time>
      </trkpt>
      <trkpt lat="40.672564" lon="-3.679224">
        <ele>816.196</ele>
        <time>2015-02-15T08:59:41Z</time>
      </trkpt>
      <trkpt lat="40.672601" lon="-3.679236">
        <ele>816.732</ele>
        <time>2015-02-15T08:59:44Z</time>
      </trkpt>
      <trkpt lat="40.672633" lon="-3.679254">
        <ele>817.353</ele>
        <time>2015-02-15T08:59:47Z</time>
      </trkpt>
      <trkpt lat="40.672672" lon="-3.679289">
        <ele>817.818</ele>
        <time>2015-02-15T08:59:50Z</time>
      </trkpt>
      <trkpt lat="40.672703" lon="-3.679302">
        <ele>818.498</ele>
        <time>2015-02-15T08:59:53Z</time>
      </trkpt>
      <trkpt lat="40.672727" lon="-3.679311">
        <ele>818.817</ele>
        <time>2015-02-15T08:59:55Z</time>
      </trkpt>
      <trkpt lat="40.672769" lon="-3.679331">
        <ele>819.507</ele>
        <time>2015-02-15T08:59:59Z</time>
      </trkpt>
      <trkpt lat="40.672805" lon="-3.679337">
        <ele>820.089</ele>
        <time>2015-02-15T09:00:02Z</time>
      </trkpt>
      <trkpt lat="40.672829" lon="-3.679340">
        <ele>820.339</ele>
        <time>2015-02-15T09:00:04Z</time>
      </trkpt>
      <trkpt lat="40.672862" lon="-3.679346">
        <ele>820.838</ele>
        <time>2015-02-15T09:00:07Z</time>
      </trkpt>
      <trkpt lat="40.672904" lon="-3.679356">
        <ele>821.332</ele>
        <time>2015-02-15T09:00:10Z</time>
      </trkpt>
      <trkpt lat="40.672944" lon="-3.679359">
        <ele>821.831</ele>
        <time>2015-02-15T09:00:13Z</time>
      </trkpt>
      <trkpt lat="40.672967" lon="-3.679352">
        <ele>822.137</ele>
        <time>2015-02-15T09:00:15Z</time>
      </trkpt>
      <trkpt lat="40.673005" lon="-3.679360">
        <ele>822.638</ele>
        <time>2015-02-15T09:00:18Z</time>
      </trkpt>
      <trkpt lat="40.673042" lon="-3.679363">
        <ele>823.135</ele>
        <time>2015-02-15T09:00:21Z</time>
      </trkpt>
      <trkpt lat="40.673078" lon="-3.679364">
        <ele>823.686</ele>
        <time>2015-02-15T09:00:24Z</time>
      </trkpt>
      <trkpt lat="40.673105" lon="-3.679360">
        <ele>824.014</ele>
        <time>2015-02-15T09:00:26Z</time>
      </trkpt>
      <trkpt lat="40.673138" lon="-3.679358">
        <ele>824.407</ele>
        <time>2015-02-15T09:00:29Z</time>
      </trkpt>
      <trkpt lat="40.673181" lon="-3.679360">
        <ele>825.011</ele>
        <time>2015-02-15T09:00:32Z</time>
      </trkpt>
      <trkpt lat="40.673210" lon="-3.679366">
        <ele>825.351</ele>
        <time>2015-02-15T09:00:34Z</time>
      </trkpt>
      <trkpt lat="40.673247" lon="-3.679373">
        <ele>825.810</ele>
        <time>2015-02-15T09:00:37Z</time>
      </trkpt>
      <trkpt lat="40.673273" lon="-3.679386">
        <ele>826.154</ele>
        <time>2015-02-15T09:00:39Z</time>
      </trkpt>
      <trkpt lat="40.673292" lon="-3.679408">
        <ele>826.463</ele>
        <time>2015-02-15T09:00:41Z</time>
      </trkpt>
      <trkpt lat="40.673304" lon="-3.679420">
        <ele>826.599</ele>
        <time>2015-02-15T09:00:42Z</time>
      </trkpt>
      <trkpt lat="40.673313" lon="-3.679432">
        <ele>826.630</ele>
        <time>2015-02-15T09:00:43Z</time>
      </trkpt>
      <trkpt lat="40.673334" lon="-3.679456">
        <ele>826.968</ele>
        <time>2015-02-15T09:00:45Z</time>
      </trkpt>
      <trkpt lat="40.673363" lon="-3.679501">
        <ele>827.242</ele>
        <time>2015-02-15T09:00:48Z</time>
      </trkpt>
      <trkpt lat="40.673399" lon="-3.679541">
        <ele>827.626</ele>
        <time>2015-02-15T09:00:52Z</time>
      </trkpt>
      <trkpt lat="40.673422" lon="-3.679570">
        <ele>827.807</ele>
        <time>2015-02-15T09:00:54Z</time>
      </trkpt>
      <trkpt lat="40.673446" lon="-3.679589">
        <ele>828.014</ele>
        <time>2015-02-15T09:00:56Z</time>
      </trkpt>
      <trkpt lat="40.673474" lon="-3.679606">
        <ele>828.174</ele>
        <time>2015-02-15T09:00:58Z</time>
      </trkpt>
      <trkpt lat="40.673502" lon="-3.679620">
        <ele>828.343</ele>
        <time>2015-02-15T09:01:00Z</time>
      </trkpt>
      <trkpt lat="40.673526" lon="-3.679627">
        <ele>828.417</ele>
        <time>2015-02-15T09:01:02Z</time>
      </trkpt>
      <trkpt lat="40.673553" lon="-3.679627">
        <ele>828.686</ele>
        <time>2015-02-15T09:01:04Z</time>
      </trkpt>
      <trkpt lat="40.673566" lon="-3.679628">
        <ele>828.772</ele>
        <time>2015-02-15T09:01:05Z</time>
      </trkpt>
      <trkpt lat="40.673599" lon="-3.679632">
        <ele>828.973</ele>
        <time>2015-02-15T09:01:08Z</time>
      </trkpt>
      <trkpt lat="40.673638" lon="-3.679639">
        <ele>829.397</ele>
        <time>2015-02-15T09:01:11Z</time>
      </trkpt>
      <trkpt lat="40.673680" lon="-3.679633">
        <ele>829.623</ele>
        <time>2015-02-15T09:01:14Z</time>
      </trkpt>
      <trkpt lat="40.673724" lon="-3.679642">
        <ele>829.925</ele>
        <time>2015-02-15T09:01:17Z</time>
      </trkpt>
      <trkpt lat="40.673764" lon="-3.679650">
        <ele>830.107</ele>
        <time>2015-02-15T09:01:19Z</time>
      </trkpt>
      <trkpt lat="40.673800" lon="-3.679663">
        <ele>830.367</ele>
        <time>2015-02-15T09:01:22Z</time>
      </trkpt>
      <trkpt lat="40.673843" lon="-3.679673">
        <ele>830.737</ele>
        <time>2015-02-15T09:01:25Z</time>
      </trkpt>
      <trkpt lat="40.673885" lon="-3.679688">
        <ele>830.926</ele>
        <time>2015-02-15T09:01:28Z</time>
      </trkpt>
      <trkpt lat="40.673916" lon="-3.679705">
        <ele>831.210</ele>
        <time>2015-02-15T09:01:31Z</time>
      </trkpt>
      <trkpt lat="40.673953" lon="-3.679729">
        <ele>831.459</ele>
        <time>2015-02-15T09:01:34Z</time>
      </trkpt>
      <trkpt lat="40.673993" lon="-3.679744">
        <ele>831.765</ele>
        <time>2015-02-15T09:01:37Z</time>
      </trkpt>
      <trkpt lat="40.674029" lon="-3.679766">
        <ele>832.096</ele>
        <time>2015-02-15T09:01:40Z</time>
      </trkpt>
      <trkpt lat="40.674086" lon="-3.679782">
        <ele>832.536</ele>
        <time>2015-02-15T09:01:44Z</time>
      </trkpt>
      <trkpt lat="40.674099" lon="-3.679784">
        <ele>832.617</ele>
        <time>2015-02-15T09:01:45Z</time>
      </trkpt>
      <trkpt lat="40.674141" lon="-3.679800">
        <ele>833.118</ele>
        <time>2015-02-15T09:01:48Z</time>
      </trkpt>
      <trkpt lat="40.674180" lon="-3.679828">
        <ele>833.507</ele>
        <time>2015-02-15T09:01:51Z</time>
      </trkpt>
      <trkpt lat="40.674218" lon="-3.679861">
        <ele>833.941</ele>
        <time>2015-02-15T09:01:54Z</time>
      </trkpt>
      <trkpt lat="40.674254" lon="-3.679901">
        <ele>834.471</ele>
        <time>2015-02-15T09:01:57Z</time>
      </trkpt>
      <trkpt lat="40.674288" lon="-3.679939">
        <ele>834.940</ele>
        <time>2015-02-15T09:02:00Z</time>
      </trkpt>
      <trkpt lat="40.674319" lon="-3.679984">
        <ele>835.564</ele>
        <time>2015-02-15T09:02:03Z</time>
      </trkpt>
      <trkpt lat="40.674350" lon="-3.680024">
        <ele>836.033</ele>
        <time>2015-02-15T09:02:06Z</time>
      </trkpt>
      <trkpt lat="40.674377" lon="-3.680059">
        <ele>836.449</ele>
        <time>2015-02-15T09:02:09Z</time>
      </trkpt>
      <trkpt lat="40.674402" lon="-3.680078">
        <ele>836.780</ele>
        <time>2015-02-15T09:02:11Z</time>
      </trkpt>
      <trkpt lat="40.674434" lon="-3.680091">
        <ele>836.995</ele>
        <time>2015-02-15T09:02:13Z</time>
      </trkpt>
      <trkpt lat="40.674448" lon="-3.680091">
        <ele>837.049</ele>
        <time>2015-02-15T09:02:14Z</time>
      </trkpt>
      <trkpt lat="40.674466" lon="-3.680093">
        <ele>837.123</ele>
        <time>2015-02-15T09:02:16Z</time>
      </trkpt>
      <trkpt lat="40.674482" lon="-3.680092">
        <ele>837.307</ele>
        <time>2015-02-15T09:02:16Z</time>
      </trkpt>
      <trkpt lat="40.674491" lon="-3.680084">
        <ele>837.477</ele>
        <time>2015-02-15T09:02:17Z</time>
      </trkpt>
      <trkpt lat="40.674500" lon="-3.680073">
        <ele>837.687</ele>
        <time>2015-02-15T09:02:19Z</time>
      </trkpt>
      <trkpt lat="40.674510" lon="-3.680065">
        <ele>837.726</ele>
        <time>2015-02-15T09:02:20Z</time>
      </trkpt>
      <trkpt lat="40.674531" lon="-3.680048">
        <ele>838.040</ele>
        <time>2015-02-15T09:02:22Z</time>
      </trkpt>
      <trkpt lat="40.674553" lon="-3.680031">
        <ele>838.399</ele>
        <time>2015-02-15T09:02:24Z</time>
      </trkpt>
      <trkpt lat="40.674585" lon="-3.680004">
        <ele>838.755</ele>
        <time>2015-02-15T09:02:27Z</time>
      </trkpt>
      <trkpt lat="40.674624" lon="-3.679989">
        <ele>839.246</ele>
        <time>2015-02-15T09:02:30Z</time>
      </trkpt>
      <trkpt lat="40.674641" lon="-3.679985">
        <ele>839.333</ele>
        <time>2015-02-15T09:02:31Z</time>
      </trkpt>
      <trkpt lat="40.674655" lon="-3.679987">
        <ele>839.523</ele>
        <time>2015-02-15T09:02:32Z</time>
      </trkpt>
      <trkpt lat="40.674670" lon="-3.679992">
        <ele>839.715</ele>
        <time>2015-02-15T09:02:33Z</time>
      </trkpt>
      <trkpt lat="40.674683" lon="-3.680002">
        <ele>839.907</ele>
        <time>2015-02-15T09:02:34Z</time>
      </trkpt>
      <trkpt lat="40.674699" lon="-3.680009">
        <ele>840.051</ele>
        <time>2015-02-15T09:02:35Z</time>
      </trkpt>
      <trkpt lat="40.674710" lon="-3.680016">
        <ele>840.221</ele>
        <time>2015-02-15T09:02:36Z</time>
      </trkpt>
      <trkpt lat="40.674740" lon="-3.680048">
        <ele>840.590</ele>
        <time>2015-02-15T09:02:38Z</time>
      </trkpt>
      <trkpt lat="40.674755" lon="-3.680076">
        <ele>840.864</ele>
        <time>2015-02-15T09:02:40Z</time>
      </trkpt>
      <trkpt lat="40.674757" lon="-3.680091">
        <ele>841.083</ele>
        <time>2015-02-15T09:02:41Z</time>
      </trkpt>
      <trkpt lat="40.674755" lon="-3.680109">
        <ele>841.119</ele>
        <time>2015-02-15T09:02:42Z</time>
      </trkpt>
      <trkpt lat="40.674761" lon="-3.680137">
        <ele>841.440</ele>
        <time>2015-02-15T09:02:44Z</time>
      </trkpt>
      <trkpt lat="40.674772" lon="-3.680182">
        <ele>841.836</ele>
        <time>2015-02-15T09:02:47Z</time>
      </trkpt>
      <trkpt lat="40.674783" lon="-3.680237">
        <ele>842.217</ele>
        <time>2015-02-15T09:02:50Z</time>
      </trkpt>
      <trkpt lat="40.674803" lon="-3.680282">
        <ele>842.718</ele>
        <time>2015-02-15T09:02:53Z</time>
      </trkpt>
      <trkpt lat="40.674811" lon="-3.680299">
        <ele>842.907</ele>
        <time>2015-02-15T09:02:54Z</time>
      </trkpt>
      <trkpt lat="40.674834" lon="-3.680330">
        <ele>843.261</ele>
        <time>2015-02-15T09:02:56Z</time>
      </trkpt>
      <trkpt lat="40.674859" lon="-3.680354">
        <ele>843.531</ele>
        <time>2015-02-15T09:02:58Z</time>
      </trkpt>
      <trkpt lat="40.674873" lon="-3.680364">
        <ele>843.770</ele>
        <time>2015-02-15T09:02:59Z</time>
      </trkpt>
      <trkpt lat="40.674887" lon="-3.680368">
        <ele>843.984</ele>
        <time>2015-02-15T09:03:00Z</time>
      </trkpt>
      <trkpt lat="40.674901" lon="-3.680376">
        <ele>844.153</ele>
        <time>2015-02-15T09:03:01Z</time>
      </trkpt>
      <trkpt lat="40.674916" lon="-3.680379">
        <ele>844.219</ele>
        <time>2015-02-15T09:03:02Z</time>
      </trkpt>
      <trkpt lat="40.674962" lon="-3.680398">
        <ele>844.720</ele>
        <time>2015-02-15T09:03:05Z</time>
      </trkpt>
      <trkpt lat="40.675005" lon="-3.680410">
        <ele>845.359</ele>
        <time>2015-02-15T09:03:08Z</time>
      </trkpt>
      <trkpt lat="40.675050" lon="-3.680424">
        <ele>845.903</ele>
        <time>2015-02-15T09:03:11Z</time>
      </trkpt>
      <trkpt lat="40.675111" lon="-3.680441">
        <ele>846.723</ele>
        <time>2015-02-15T09:03:15Z</time>
      </trkpt>
      <trkpt lat="40.675158" lon="-3.680457">
        <ele>847.307</ele>
        <time>2015-02-15T09:03:18Z</time>
      </trkpt>
      <trkpt lat="40.675207" lon="-3.680467">
        <ele>847.923</ele>
        <time>2015-02-15T09:03:21Z</time>
      </trkpt>
      <trkpt lat="40.675254" lon="-3.680465">
        <ele>848.483</ele>
        <time>2015-02-15T09:03:24Z</time>
      </trkpt>
      <trkpt lat="40.675297" lon="-3.680468">
        <ele>848.982</ele>
        <time>2015-02-15T09:03:27Z</time>
      </trkpt>
      <trkpt lat="40.675340" lon="-3.680463">
        <ele>849.496</ele>
        <time>2015-02-15T09:03:30Z</time>
      </trkpt>
      <trkpt lat="40.675382" lon="-3.680462">
        <ele>849.995</ele>
        <time>2015-02-15T09:03:33Z</time>
      </trkpt>
      <trkpt lat="40.675414" lon="-3.680467">
        <ele>850.281</ele>
        <time>2015-02-15T09:03:35Z</time>
      </trkpt>
      <trkpt lat="40.675461" lon="-3.680472">
        <ele>850.612</ele>
        <time>2015-02-15T09:03:39Z</time>
      </trkpt>
      <trkpt lat="40.675513" lon="-3.680483">
        <ele>851.053</ele>
        <time>2015-02-15T09:03:42Z</time>
      </trkpt>
      <trkpt lat="40.675557" lon="-3.680497">
        <ele>851.404</ele>
        <time>2015-02-15T09:03:45Z</time>
      </trkpt>
      <trkpt lat="40.675591" lon="-3.680516">
        <ele>851.614</ele>
        <time>2015-02-15T09:03:47Z</time>
      </trkpt>
      <trkpt lat="40.675628" lon="-3.680539">
        <ele>851.907</ele>
        <time>2015-02-15T09:03:49Z</time>
      </trkpt>
      <trkpt lat="40.675681" lon="-3.680576">
        <ele>852.263</ele>
        <time>2015-02-15T09:03:52Z</time>
      </trkpt>
      <trkpt lat="40.675710" lon="-3.680608">
        <ele>852.493</ele>
        <time>2015-02-15T09:03:54Z</time>
      </trkpt>
      <trkpt lat="40.675738" lon="-3.680645">
        <ele>852.652</ele>
        <time>2015-02-15T09:03:56Z</time>
      </trkpt>
      <trkpt lat="40.675782" lon="-3.680694">
        <ele>852.986</ele>
        <time>2015-02-15T09:03:59Z</time>
      </trkpt>
      <trkpt lat="40.675832" lon="-3.680765">
        <ele>853.025</ele>
        <time>2015-02-15T09:04:01Z</time>
      </trkpt>
      <trkpt lat="40.675900" lon="-3.680834">
        <ele>853.291</ele>
        <time>2015-02-15T09:04:04Z</time>
      </trkpt>
      <trkpt lat="40.675929" lon="-3.680851">
        <ele>853.282</ele>
        <time>2015-02-15T09:04:05Z</time>
      </trkpt>
      <trkpt lat="40.675960" lon="-3.680864">
        <ele>853.332</ele>
        <time>2015-02-15T09:04:06Z</time>
      </trkpt>
      <trkpt lat="40.676049" lon="-3.680901">
        <ele>853.492</ele>
        <time>2015-02-15T09:04:09Z</time>
      </trkpt>
      <trkpt lat="40.676095" lon="-3.680940">
        <ele>853.411</ele>
        <time>2015-02-15T09:04:11Z</time>
      </trkpt>
      <trkpt lat="40.676169" lon="-3.681005">
        <ele>853.507</ele>
        <time>2015-02-15T09:04:14Z</time>
      </trkpt>
      <trkpt lat="40.676184" lon="-3.681022">
        <ele>853.581</ele>
        <time>2015-02-15T09:04:15Z</time>
      </trkpt>
      <trkpt lat="40.676199" lon="-3.681045">
        <ele>853.591</ele>
        <time>2015-02-15T09:04:16Z</time>
      </trkpt>
      <trkpt lat="40.676211" lon="-3.681070">
        <ele>853.650</ele>
        <time>2015-02-15T09:04:17Z</time>
      </trkpt>
      <trkpt lat="40.676235" lon="-3.681124">
        <ele>853.734</ele>
        <time>2015-02-15T09:04:19Z</time>
      </trkpt>
      <trkpt lat="40.676247" lon="-3.681174">
        <ele>853.753</ele>
        <time>2015-02-15T09:04:21Z</time>
      </trkpt>
      <trkpt lat="40.676263" lon="-3.681235">
        <ele>853.859</ele>
        <time>2015-02-15T09:04:23Z</time>
      </trkpt>
      <trkpt lat="40.676269" lon="-3.681273">
        <ele>853.850</ele>
        <time>2015-02-15T09:04:24Z</time>
      </trkpt>
      <trkpt lat="40.676282" lon="-3.681356">
        <ele>853.837</ele>
        <time>2015-02-15T09:04:26Z</time>
      </trkpt>
      <trkpt lat="40.676294" lon="-3.681444">
        <ele>853.949</ele>
        <time>2015-02-15T09:04:29Z</time>
      </trkpt>
      <trkpt lat="40.676314" lon="-3.681536">
        <ele>853.913</ele>
        <time>2015-02-15T09:04:31Z</time>
      </trkpt>
      <trkpt lat="40.676352" lon="-3.681676">
        <ele>853.807</ele>
        <time>2015-02-15T09:04:34Z</time>
      </trkpt>
      <trkpt lat="40.676367" lon="-3.681716">
        <ele>853.871</ele>
        <time>2015-02-15T09:04:35Z</time>
      </trkpt>
      <trkpt lat="40.676405" lon="-3.681794">
        <ele>853.891</ele>
        <time>2015-02-15T09:04:37Z</time>
      </trkpt>
      <trkpt lat="40.676431" lon="-3.681824">
        <ele>853.830</ele>
        <time>2015-02-15T09:04:38Z</time>
      </trkpt>
      <trkpt lat="40.676458" lon="-3.681853">
        <ele>853.774</ele>
        <time>2015-02-15T09:04:39Z</time>
      </trkpt>
      <trkpt lat="40.676495" lon="-3.681884">
        <ele>853.633</ele>
        <time>2015-02-15T09:04:40Z</time>
      </trkpt>
      <trkpt lat="40.676569" lon="-3.681939">
        <ele>853.519</ele>
        <time>2015-02-15T09:04:42Z</time>
      </trkpt>
      <trkpt lat="40.676649" lon="-3.681995">
        <ele>853.330</ele>
        <time>2015-02-15T09:04:44Z</time>
      </trkpt>
      <trkpt lat="40.676701" lon="-3.682029">
        <ele>853.255</ele>
        <time>2015-02-15T09:04:45Z</time>
      </trkpt>
      <trkpt lat="40.676810" lon="-3.682080">
        <ele>853.007</ele>
        <time>2015-02-15T09:04:46Z</time>
      </trkpt>
      <trkpt lat="40.676880" lon="-3.682100">
        <ele>852.917</ele>
        <time>2015-02-15T09:04:47Z</time>
      </trkpt>
      <trkpt lat="40.676966" lon="-3.682128">
        <ele>852.807</ele>
        <time>2015-02-15T09:04:48Z</time>
      </trkpt>
      <trkpt lat="40.677115" lon="-3.682171">
        <ele>852.593</ele>
        <time>2015-02-15T09:04:50Z</time>
      </trkpt>
      <trkpt lat="40.677179" lon="-3.682191">
        <ele>852.473</ele>
        <time>2015-02-15T09:04:51Z</time>
      </trkpt>
      <trkpt lat="40.677237" lon="-3.682211">
        <ele>852.282</ele>
        <time>2015-02-15T09:04:52Z</time>
      </trkpt>
      <trkpt lat="40.677291" lon="-3.682231">
        <ele>852.116</ele>
        <time>2015-02-15T09:04:53Z</time>
      </trkpt>
      <trkpt lat="40.677382" lon="-3.682270">
        <ele>851.895</ele>
        <time>2015-02-15T09:04:55Z</time>
      </trkpt>
      <trkpt lat="40.677454" lon="-3.682299">
        <ele>851.581</ele>
        <time>2015-02-15T09:04:57Z</time>
      </trkpt>
      <trkpt lat="40.677483" lon="-3.682311">
        <ele>851.482</ele>
        <time>2015-02-15T09:04:58Z</time>
      </trkpt>
      <trkpt lat="40.677540" lon="-3.682334">
        <ele>851.291</ele>
        <time>2015-02-15T09:05:00Z</time>
      </trkpt>
      <trkpt lat="40.677587" lon="-3.682360">
        <ele>851.081</ele>
        <time>2015-02-15T09:05:02Z</time>
      </trkpt>
      <trkpt lat="40.677668" lon="-3.682404">
        <ele>850.819</ele>
        <time>2015-02-15T09:05:05Z</time>
      </trkpt>
      <trkpt lat="40.677721" lon="-3.682427">
        <ele>850.607</ele>
        <time>2015-02-15T09:05:07Z</time>
      </trkpt>
      <trkpt lat="40.677768" lon="-3.682453">
        <ele>850.597</ele>
        <time>2015-02-15T09:05:09Z</time>
      </trkpt>
      <trkpt lat="40.677792" lon="-3.682464">
        <ele>850.517</ele>
        <time>2015-02-15T09:05:10Z</time>
      </trkpt>
      <trkpt lat="40.677841" lon="-3.682492">
        <ele>850.446</ele>
        <time>2015-02-15T09:05:12Z</time>
      </trkpt>
      <trkpt lat="40.677864" lon="-3.682513">
        <ele>850.440</ele>
        <time>2015-02-15T09:05:13Z</time>
      </trkpt>
      <trkpt lat="40.677914" lon="-3.682556">
        <ele>850.349</ele>
        <time>2015-02-15T09:05:15Z</time>
      </trkpt>
      <trkpt lat="40.677971" lon="-3.682598">
        <ele>850.245</ele>
        <time>2015-02-15T09:05:17Z</time>
      </trkpt>
      <trkpt lat="40.678030" lon="-3.682654">
        <ele>850.156</ele>
        <time>2015-02-15T09:05:19Z</time>
      </trkpt>
      <trkpt lat="40.678063" lon="-3.682683">
        <ele>850.092</ele>
        <time>2015-02-15T09:05:20Z</time>
      </trkpt>
      <trkpt lat="40.678171" lon="-3.682781">
        <ele>849.873</ele>
        <time>2015-02-15T09:05:23Z</time>
      </trkpt>
      <trkpt lat="40.678272" lon="-3.682886">
        <ele>849.720</ele>
        <time>2015-02-15T09:05:26Z</time>
      </trkpt>
      <trkpt lat="40.678357" lon="-3.683001">
        <ele>849.507</ele>
        <time>2015-02-15T09:05:29Z</time>
      </trkpt>
      <trkpt lat="40.678447" lon="-3.683131">
        <ele>849.447</ele>
        <time>2015-02-15T09:05:32Z</time>
      </trkpt>
      <trkpt lat="40.678492" lon="-3.683173">
        <ele>849.437</ele>
        <time>2015-02-15T09:05:33Z</time>
      </trkpt>
      <trkpt lat="40.678552" lon="-3.683218">
        <ele>849.376</ele>
        <time>2015-02-15T09:05:34Z</time>
      </trkpt>
      <trkpt lat="40.678619" lon="-3.683269">
        <ele>849.250</ele>
        <time>2015-02-15T09:05:35Z</time>
      </trkpt>
      <trkpt lat="40.678691" lon="-3.683321">
        <ele>849.279</ele>
        <time>2015-02-15T09:05:36Z</time>
      </trkpt>
      <trkpt lat="40.678760" lon="-3.683385">
        <ele>849.185</ele>
        <time>2015-02-15T09:05:37Z</time>
      </trkpt>
      <trkpt lat="40.678889" lon="-3.683536">
        <ele>848.916</ele>
        <time>2015-02-15T09:05:39Z</time>
      </trkpt>
      <trkpt lat="40.678947" lon="-3.683615">
        <ele>848.931</ele>
        <time>2015-02-15T09:05:40Z</time>
      </trkpt>
      <trkpt lat="40.679001" lon="-3.683689">
        <ele>848.861</ele>
        <time>2015-02-15T09:05:41Z</time>
      </trkpt>
      <trkpt lat="40.679107" lon="-3.683826">
        <ele>848.807</ele>
        <time>2015-02-15T09:05:43Z</time>
      </trkpt>
      <trkpt lat="40.679155" lon="-3.683892">
        <ele>848.707</ele>
        <time>2015-02-15T09:05:44Z</time>
      </trkpt>
      <trkpt lat="40.679205" lon="-3.683954">
        <ele>848.751</ele>
        <time>2015-02-15T09:05:45Z</time>
      </trkpt>
      <trkpt lat="40.679295" lon="-3.684061">
        <ele>848.741</ele>
        <time>2015-02-15T09:05:47Z</time>
      </trkpt>
      <trkpt lat="40.679339" lon="-3.684106">
        <ele>848.890</ele>
        <time>2015-02-15T09:05:48Z</time>
      </trkpt>
      <trkpt lat="40.679373" lon="-3.684140">
        <ele>848.854</ele>
        <time>2015-02-15T09:05:49Z</time>
      </trkpt>
      <trkpt lat="40.679473" lon="-3.684238">
        <ele>848.933</ele>
        <time>2015-02-15T09:05:52Z</time>
      </trkpt>
      <trkpt lat="40.679542" lon="-3.684290">
        <ele>849.199</ele>
        <time>2015-02-15T09:05:55Z</time>
      </trkpt>
      <trkpt lat="40.679602" lon="-3.684344">
        <ele>849.260</ele>
        <time>2015-02-15T09:05:57Z</time>
      </trkpt>
      <trkpt lat="40.679618" lon="-3.684366">
        <ele>849.371</ele>
        <time>2015-02-15T09:05:58Z</time>
      </trkpt>
      <trkpt lat="40.679666" lon="-3.684403">
        <ele>849.441</ele>
        <time>2015-02-15T09:06:00Z</time>
      </trkpt>
      <trkpt lat="40.679689" lon="-3.684411">
        <ele>849.515</ele>
        <time>2015-02-15T09:06:01Z</time>
      </trkpt>
      <trkpt lat="40.679711" lon="-3.684421">
        <ele>849.607</ele>
        <time>2015-02-15T09:06:02Z</time>
      </trkpt>
      <trkpt lat="40.679731" lon="-3.684435">
        <ele>849.655</ele>
        <time>2015-02-15T09:06:03Z</time>
      </trkpt>
      <trkpt lat="40.679750" lon="-3.684452">
        <ele>849.745</ele>
        <time>2015-02-15T09:06:04Z</time>
      </trkpt>
      <trkpt lat="40.679770" lon="-3.684469">
        <ele>849.754</ele>
        <time>2015-02-15T09:06:05Z</time>
      </trkpt>
      <trkpt lat="40.679814" lon="-3.684492">
        <ele>849.868</ele>
        <time>2015-02-15T09:06:07Z</time>
      </trkpt>
      <trkpt lat="40.679833" lon="-3.684496">
        <ele>849.977</ele>
        <time>2015-02-15T09:06:08Z</time>
      </trkpt>
      <trkpt lat="40.679875" lon="-3.684510">
        <ele>850.063</ele>
        <time>2015-02-15T09:06:10Z</time>
      </trkpt>
      <trkpt lat="40.679918" lon="-3.684523">
        <ele>850.054</ele>
        <time>2015-02-15T09:06:12Z</time>
      </trkpt>
      <trkpt lat="40.679978" lon="-3.684533">
        <ele>850.224</ele>
        <time>2015-02-15T09:06:15Z</time>
      </trkpt>
      <trkpt lat="40.679994" lon="-3.684532">
        <ele>850.204</ele>
        <time>2015-02-15T09:06:16Z</time>
      </trkpt>
      <trkpt lat="40.680015" lon="-3.684530">
        <ele>850.214</ele>
        <time>2015-02-15T09:06:17Z</time>
      </trkpt>
      <trkpt lat="40.680060" lon="-3.684537">
        <ele>850.307</ele>
        <time>2015-02-15T09:06:19Z</time>
      </trkpt>
      <trkpt lat="40.680089" lon="-3.684539">
        <ele>850.370</ele>
        <time>2015-02-15T09:06:20Z</time>
      </trkpt>
      <trkpt lat="40.680122" lon="-3.684538">
        <ele>850.310</ele>
        <time>2015-02-15T09:06:21Z</time>
      </trkpt>
      <trkpt lat="40.680159" lon="-3.684539">
        <ele>850.399</ele>
        <time>2015-02-15T09:06:22Z</time>
      </trkpt>
      <trkpt lat="40.680251" lon="-3.684547">
        <ele>850.323</ele>
        <time>2015-02-15T09:06:23Z</time>
      </trkpt>
      <trkpt lat="40.680307" lon="-3.684549">
        <ele>850.362</ele>
        <time>2015-02-15T09:06:24Z</time>
      </trkpt>
      <trkpt lat="40.680371" lon="-3.684554">
        <ele>850.388</ele>
        <time>2015-02-15T09:06:25Z</time>
      </trkpt>
      <trkpt lat="40.680439" lon="-3.684568">
        <ele>850.239</ele>
        <time>2015-02-15T09:06:26Z</time>
      </trkpt>
      <trkpt lat="40.680512" lon="-3.684590">
        <ele>850.158</ele>
        <time>2015-02-15T09:06:27Z</time>
      </trkpt>
      <trkpt lat="40.680587" lon="-3.684619">
        <ele>850.152</ele>
        <time>2015-02-15T09:06:28Z</time>
      </trkpt>
      <trkpt lat="40.680664" lon="-3.684653">
        <ele>850.017</ele>
        <time>2015-02-15T09:06:29Z</time>
      </trkpt>
      <trkpt lat="40.680742" lon="-3.684691">
        <ele>849.907</ele>
        <time>2015-02-15T09:06:30Z</time>
      </trkpt>
      <trkpt lat="40.680817" lon="-3.684734">
        <ele>849.863</ele>
        <time>2015-02-15T09:06:31Z</time>
      </trkpt>
      <trkpt lat="40.680893" lon="-3.684779">
        <ele>849.793</ele>
        <time>2015-02-15T09:06:32Z</time>
      </trkpt>
      <trkpt lat="40.680962" lon="-3.684824">
        <ele>849.782</ele>
        <time>2015-02-15T09:06:33Z</time>
      </trkpt>
      <trkpt lat="40.681031" lon="-3.684872">
        <ele>849.666</ele>
        <time>2015-02-15T09:06:34Z</time>
      </trkpt>
      <trkpt lat="40.681097" lon="-3.684916">
        <ele>849.545</ele>
        <time>2015-02-15T09:06:35Z</time>
      </trkpt>
      <trkpt lat="40.681160" lon="-3.684956">
        <ele>849.551</ele>
        <time>2015-02-15T09:06:36Z</time>
      </trkpt>
      <trkpt lat="40.681222" lon="-3.684997">
        <ele>849.452</ele>
        <time>2015-02-15T09:06:37Z</time>
      </trkpt>
      <trkpt lat="40.681280" lon="-3.685036">
        <ele>849.437</ele>
        <time>2015-02-15T09:06:38Z</time>
      </trkpt>
      <trkpt lat="40.681337" lon="-3.685070">
        <ele>849.449</ele>
        <time>2015-02-15T09:06:39Z</time>
      </trkpt>
      <trkpt lat="40.681394" lon="-3.685102">
        <ele>849.413</ele>
        <time>2015-02-15T09:06:40Z</time>
      </trkpt>
      <trkpt lat="40.681448" lon="-3.685127">
        <ele>849.407</ele>
        <time>2015-02-15T09:06:41Z</time>
      </trkpt>
      <trkpt lat="40.681500" lon="-3.685153">
        <ele>849.471</ele>
        <time>2015-02-15T09:06:42Z</time>
      </trkpt>
      <trkpt lat="40.681546" lon="-3.685176">
        <ele>849.491</ele>
        <time>2015-02-15T09:06:43Z</time>
      </trkpt>
      <trkpt lat="40.681593" lon="-3.685196">
        <ele>849.460</ele>
        <time>2015-02-15T09:06:44Z</time>
      </trkpt>
      <trkpt lat="40.681635" lon="-3.685207">
        <ele>849.444</ele>
        <time>2015-02-15T09:06:45Z</time>
      </trkpt>
      <trkpt lat="40.681674" lon="-3.685219">
        <ele>849.423</ele>
        <time>2015-02-15T09:06:46Z</time>
      </trkpt>
      <trkpt lat="40.681746" lon="-3.685242">
        <ele>849.499</ele>
        <time>2015-02-15T09:06:48Z</time>
      </trkpt>
      <trkpt lat="40.681815" lon="-3.685268">
        <ele>849.440</ele>
        <time>2015-02-15T09:06:50Z</time>
      </trkpt>
      <trkpt lat="40.681882" lon="-3.685295">
        <ele>849.353</ele>
        <time>2015-02-15T09:06:52Z</time>
      </trkpt>
      <trkpt lat="40.681947" lon="-3.685323">
        <ele>849.304</ele>
        <time>2015-02-15T09:06:54Z</time>
      </trkpt>
      <trkpt lat="40.682013" lon="-3.685349">
        <ele>849.314</ele>
        <time>2015-02-15T09:06:56Z</time>
      </trkpt>
      <trkpt lat="40.682044" lon="-3.685367">
        <ele>849.207</ele>
        <time>2015-02-15T09:06:57Z</time>
      </trkpt>
      <trkpt lat="40.682108" lon="-3.685403">
        <ele>849.173</ele>
        <time>2015-02-15T09:06:59Z</time>
      </trkpt>
      <trkpt lat="40.682136" lon="-3.685418">
        <ele>849.163</ele>
        <time>2015-02-15T09:07:00Z</time>
      </trkpt>
      <trkpt lat="40.682158" lon="-3.685438">
        <ele>849.012</ele>
        <time>2015-02-15T09:07:01Z</time>
      </trkpt>
      <trkpt lat="40.682185" lon="-3.685460">
        <ele>848.956</ele>
        <time>2015-02-15T09:07:02Z</time>
      </trkpt>
      <trkpt lat="40.682211" lon="-3.685483">
        <ele>848.935</ele>
        <time>2015-02-15T09:07:03Z</time>
      </trkpt>
      <trkpt lat="40.682243" lon="-3.685507">
        <ele>848.891</ele>
        <time>2015-02-15T09:07:04Z</time>
      </trkpt>
      <trkpt lat="40.682279" lon="-3.685538">
        <ele>848.742</ele>
        <time>2015-02-15T09:07:05Z</time>
      </trkpt>
      <trkpt lat="40.682317" lon="-3.685574">
        <ele>848.665</ele>
        <time>2015-02-15T09:07:06Z</time>
      </trkpt>
      <trkpt lat="40.682362" lon="-3.685610">
        <ele>848.668</ele>
        <time>2015-02-15T09:07:07Z</time>
      </trkpt>
      <trkpt lat="40.682468" lon="-3.685676">
        <ele>848.414</ele>
        <time>2015-02-15T09:07:09Z</time>
      </trkpt>
      <trkpt lat="40.682523" lon="-3.685704">
        <ele>848.307</ele>
        <time>2015-02-15T09:07:10Z</time>
      </trkpt>
      <trkpt lat="40.682624" lon="-3.685750">
        <ele>848.184</ele>
        <time>2015-02-15T09:07:12Z</time>
      </trkpt>
      <trkpt lat="40.682668" lon="-3.685768">
        <ele>848.074</ele>
        <time>2015-02-15T09:07:13Z</time>
      </trkpt>
      <trkpt lat="40.682710" lon="-3.685791">
        <ele>847.963</ele>
        <time>2015-02-15T09:07:14Z</time>
      </trkpt>
      <trkpt lat="40.682791" lon="-3.685831">
        <ele>847.817</ele>
        <time>2015-02-15T09:07:16Z</time>
      </trkpt>
      <trkpt lat="40.682875" lon="-3.685863">
        <ele>847.666</ele>
        <time>2015-02-15T09:07:18Z</time>
      </trkpt>
      <trkpt lat="40.683000" lon="-3.685914">
        <ele>847.452</ele>
        <time>2015-02-15T09:07:21Z</time>
      </trkpt>
      <trkpt lat="40.683077" lon="-3.685961">
        <ele>847.313</ele>
        <time>2015-02-15T09:07:23Z</time>
      </trkpt>
      <trkpt lat="40.683160" lon="-3.686011">
        <ele>847.336</ele>
        <time>2015-02-15T09:07:25Z</time>
      </trkpt>
      <trkpt lat="40.683249" lon="-3.686065">
        <ele>847.317</ele>
        <time>2015-02-15T09:07:27Z</time>
      </trkpt>
      <trkpt lat="40.683294" lon="-3.686100">
        <ele>847.318</ele>
        <time>2015-02-15T09:07:28Z</time>
      </trkpt>
      <trkpt lat="40.683427" lon="-3.686211">
        <ele>847.307</ele>
        <time>2015-02-15T09:07:31Z</time>
      </trkpt>
      <trkpt lat="40.683468" lon="-3.686259">
        <ele>847.371</ele>
        <time>2015-02-15T09:07:32Z</time>
      </trkpt>
      <trkpt lat="40.683507" lon="-3.686313">
        <ele>847.381</ele>
        <time>2015-02-15T09:07:33Z</time>
      </trkpt>
      <trkpt lat="40.683585" lon="-3.686410">
        <ele>847.340</ele>
        <time>2015-02-15T09:07:36Z</time>
      </trkpt>
      <trkpt lat="40.683724" lon="-3.686577">
        <ele>847.394</ele>
        <time>2015-02-15T09:07:40Z</time>
      </trkpt>
      <trkpt lat="40.683829" lon="-3.686681">
        <ele>847.253</ele>
        <time>2015-02-15T09:07:43Z</time>
      </trkpt>
      <trkpt lat="40.683935" lon="-3.686765">
        <ele>847.119</ele>
        <time>2015-02-15T09:07:46Z</time>
      </trkpt>
      <trkpt lat="40.684001" lon="-3.686801">
        <ele>847.020</ele>
        <time>2015-02-15T09:07:48Z</time>
      </trkpt>
      <trkpt lat="40.684034" lon="-3.686816">
        <ele>846.999</ele>
        <time>2015-02-15T09:07:49Z</time>
      </trkpt>
      <trkpt lat="40.684066" lon="-3.686827">
        <ele>846.907</ele>
        <time>2015-02-15T09:07:50Z</time>
      </trkpt>
      <trkpt lat="40.684159" lon="-3.686858">
        <ele>846.827</ele>
        <time>2015-02-15T09:07:53Z</time>
      </trkpt>
      <trkpt lat="40.684216" lon="-3.686879">
        <ele>846.607</ele>
        <time>2015-02-15T09:07:55Z</time>
      </trkpt>
      <trkpt lat="40.684299" lon="-3.686903">
        <ele>846.527</ele>
        <time>2015-02-15T09:07:58Z</time>
      </trkpt>
      <trkpt lat="40.684382" lon="-3.686930">
        <ele>846.417</ele>
        <time>2015-02-15T09:08:01Z</time>
      </trkpt>
      <trkpt lat="40.684433" lon="-3.686957">
        <ele>846.366</ele>
        <time>2015-02-15T09:08:03Z</time>
      </trkpt>
      <trkpt lat="40.684483" lon="-3.686988">
        <ele>846.340</ele>
        <time>2015-02-15T09:08:04Z</time>
      </trkpt>
      <trkpt lat="40.684555" lon="-3.687035">
        <ele>846.399</ele>
        <time>2015-02-15T09:08:07Z</time>
      </trkpt>
      <trkpt lat="40.684624" lon="-3.687081">
        <ele>846.335</ele>
        <time>2015-02-15T09:08:10Z</time>
      </trkpt>
      <trkpt lat="40.684713" lon="-3.687148">
        <ele>846.456</ele>
        <time>2015-02-15T09:08:14Z</time>
      </trkpt>
      <trkpt lat="40.684760" lon="-3.687184">
        <ele>846.477</ele>
        <time>2015-02-15T09:08:16Z</time>
      </trkpt>
      <trkpt lat="40.684852" lon="-3.687260">
        <ele>846.461</ele>
        <time>2015-02-15T09:08:20Z</time>
      </trkpt>
      <trkpt lat="40.684908" lon="-3.687317">
        <ele>846.427</ele>
        <time>2015-02-15T09:08:23Z</time>
      </trkpt>
      <trkpt lat="40.684925" lon="-3.687344">
        <ele>846.507</ele>
        <time>2015-02-15T09:08:24Z</time>
      </trkpt>
      <trkpt lat="40.684984" lon="-3.687416">
        <ele>846.635</ele>
        <time>2015-02-15T09:08:27Z</time>
      </trkpt>
      <trkpt lat="40.685027" lon="-3.687457">
        <ele>846.875</ele>
        <time>2015-02-15T09:08:29Z</time>
      </trkpt>
      <trkpt lat="40.685083" lon="-3.687524">
        <ele>847.134</ele>
        <time>2015-02-15T09:08:32Z</time>
      </trkpt>
      <trkpt lat="40.685141" lon="-3.687598">
        <ele>847.518</ele>
        <time>2015-02-15T09:08:35Z</time>
      </trkpt>
      <trkpt lat="40.685200" lon="-3.687678">
        <ele>847.967</ele>
        <time>2015-02-15T09:08:38Z</time>
      </trkpt>
      <trkpt lat="40.685252" lon="-3.687749">
        <ele>848.483</ele>
        <time>2015-02-15T09:08:41Z</time>
      </trkpt>
      <trkpt lat="40.685283" lon="-3.687798">
        <ele>848.814</ele>
        <time>2015-02-15T09:08:43Z</time>
      </trkpt>
      <trkpt lat="40.685305" lon="-3.687841">
        <ele>849.161</ele>
        <time>2015-02-15T09:08:45Z</time>
      </trkpt>
      <trkpt lat="40.685333" lon="-3.687895">
        <ele>849.721</ele>
        <time>2015-02-15T09:08:48Z</time>
      </trkpt>
      <trkpt lat="40.685337" lon="-3.687906">
        <ele>849.913</ele>
        <time>2015-02-15T09:08:49Z</time>
      </trkpt>
      <trkpt lat="40.685340" lon="-3.687908">
        <ele>850.107</ele>
        <time>2015-02-15T09:08:50Z</time>
      </trkpt>
      <trkpt lat="40.685339" lon="-3.687906">
        <ele>850.654</ele>
        <time>2015-02-15T09:08:53Z</time>
      </trkpt>
      <trkpt lat="40.685339" lon="-3.687905">
        <ele>851.014</ele>
        <time>2015-02-15T09:08:55Z</time>
      </trkpt>
      <trkpt lat="40.685340" lon="-3.687904">
        <ele>851.313</ele>
        <time>2015-02-15T09:08:57Z</time>
      </trkpt>
      <trkpt lat="40.685341" lon="-3.687902">
        <ele>851.737</ele>
        <time>2015-02-15T09:08:59Z</time>
      </trkpt>
      <trkpt lat="40.685341" lon="-3.687903">
        <ele>852.286</ele>
        <time>2015-02-15T09:09:03Z</time>
      </trkpt>
      <trkpt lat="40.685341" lon="-3.687903">
        <ele>852.632</ele>
        <time>2015-02-15T09:09:06Z</time>
      </trkpt>
      <trkpt lat="40.685341" lon="-3.687903">
        <ele>853.163</ele>
        <time>2015-02-15T09:09:09Z</time>
      </trkpt>
      <trkpt lat="40.685341" lon="-3.687903">
        <ele>853.548</ele>
        <time>2015-02-15T09:09:12Z</time>
      </trkpt>
      <trkpt lat="40.685341" lon="-3.687903">
        <ele>854.061</ele>
        <time>2015-02-15T09:09:16Z</time>
      </trkpt>
      <trkpt lat="40.685341" lon="-3.687903">
        <ele>854.417</ele>
        <time>2015-02-15T09:09:19Z</time>
      </trkpt>
      <trkpt lat="40.685339" lon="-3.687898">
        <ele>854.907</ele>
        <time>2015-02-15T09:09:23Z</time>
      </trkpt>
      <trkpt lat="40.685339" lon="-3.687896">
        <ele>855.252</ele>
        <time>2015-02-15T09:09:26Z</time>
      </trkpt>
      <trkpt lat="40.685338" lon="-3.687895">
        <ele>855.532</ele>
        <time>2015-02-15T09:09:29Z</time>
      </trkpt>
      <trkpt lat="40.685339" lon="-3.687894">
        <ele>855.871</ele>
        <time>2015-02-15T09:09:32Z</time>
      </trkpt>
      <trkpt lat="40.685339" lon="-3.687894">
        <ele>856.155</ele>
        <time>2015-02-15T09:09:36Z</time>
      </trkpt>
      <trkpt lat="40.685339" lon="-3.687894">
        <ele>856.264</ele>
        <time>2015-02-15T09:09:39Z</time>
      </trkpt>
      <trkpt lat="40.685339" lon="-3.687894">
        <ele>856.470</ele>
        <time>2015-02-15T09:09:43Z</time>
      </trkpt>
      <trkpt lat="40.685339" lon="-3.687894">
        <ele>856.541</ele>
        <time>2015-02-15T09:09:46Z</time>
      </trkpt>
      <trkpt lat="40.685339" lon="-3.687894">
        <ele>856.687</ele>
        <time>2015-02-15T09:09:49Z</time>
      </trkpt>
      <trkpt lat="40.685339" lon="-3.687894">
        <ele>856.642</ele>
        <time>2015-02-15T09:09:52Z</time>
      </trkpt>
      <trkpt lat="40.685339" lon="-3.687894">
        <ele>856.726</ele>
        <time>2015-02-15T09:09:56Z</time>
      </trkpt>
      <trkpt lat="40.685335" lon="-3.687890">
        <ele>856.807</ele>
        <time>2015-02-15T09:09:59Z</time>
      </trkpt>
      <trkpt lat="40.685336" lon="-3.687887">
        <ele>856.826</ele>
        <time>2015-02-15T09:10:03Z</time>
      </trkpt>
      <trkpt lat="40.685335" lon="-3.687884">
        <ele>856.866</ele>
        <time>2015-02-15T09:10:06Z</time>
      </trkpt>
      <trkpt lat="40.685331" lon="-3.687884">
        <ele>856.865</ele>
        <time>2015-02-15T09:10:09Z</time>
      </trkpt>
      <trkpt lat="40.685331" lon="-3.687884">
        <ele>856.859</ele>
        <time>2015-02-15T09:10:12Z</time>
      </trkpt>
      <trkpt lat="40.685331" lon="-3.687884">
        <ele>856.828</ele>
        <time>2015-02-15T09:10:16Z</time>
      </trkpt>
      <trkpt lat="40.685331" lon="-3.687884">
        <ele>856.864</ele>
        <time>2015-02-15T09:10:19Z</time>
      </trkpt>
      <trkpt lat="40.685331" lon="-3.687884">
        <ele>856.745</ele>
        <time>2015-02-15T09:10:23Z</time>
      </trkpt>
      <trkpt lat="40.685331" lon="-3.687886">
        <ele>856.787</ele>
        <time>2015-02-15T09:10:27Z</time>
      </trkpt>
      <trkpt lat="40.685329" lon="-3.687887">
        <ele>856.642</ele>
        <time>2015-02-15T09:10:31Z</time>
      </trkpt>
      <trkpt lat="40.685329" lon="-3.687887">
        <ele>856.626</ele>
        <time>2015-02-15T09:10:32Z</time>
      </trkpt>
      <trkpt lat="40.685331" lon="-3.687894">
        <ele>856.507</ele>
        <time>2015-02-15T09:10:34Z</time>
      </trkpt>
      <trkpt lat="40.685330" lon="-3.687890">
        <ele>856.566</ele>
        <time>2015-02-15T09:10:35Z</time>
      </trkpt>
      <trkpt lat="40.685326" lon="-3.687885">
        <ele>856.456</ele>
        <time>2015-02-15T09:10:36Z</time>
      </trkpt>
      <trkpt lat="40.685323" lon="-3.687886">
        <ele>856.465</ele>
        <time>2015-02-15T09:10:37Z</time>
      </trkpt>
      <trkpt lat="40.685322" lon="-3.687888">
        <ele>856.439</ele>
        <time>2015-02-15T09:10:38Z</time>
      </trkpt>
      <trkpt lat="40.685319" lon="-3.687885">
        <ele>856.328</ele>
        <time>2015-02-15T09:10:41Z</time>
      </trkpt>
      <trkpt lat="40.685318" lon="-3.687883">
        <ele>856.254</ele>
        <time>2015-02-15T09:10:45Z</time>
      </trkpt>
      <trkpt lat="40.685322" lon="-3.687879">
        <ele>856.155</ele>
        <time>2015-02-15T09:10:48Z</time>
      </trkpt>
      <trkpt lat="40.685323" lon="-3.687875">
        <ele>856.188</ele>
        <time>2015-02-15T09:10:50Z</time>
      </trkpt>
      <trkpt lat="40.685325" lon="-3.687874">
        <ele>856.024</ele>
        <time>2015-02-15T09:10:53Z</time>
      </trkpt>
      <trkpt lat="40.685327" lon="-3.687869">
        <ele>855.926</ele>
        <time>2015-02-15T09:10:56Z</time>
      </trkpt>
      <trkpt lat="40.685328" lon="-3.687868">
        <ele>855.807</ele>
        <time>2015-02-15T09:10:59Z</time>
      </trkpt>
      <trkpt lat="40.685329" lon="-3.687869">
        <ele>855.726</ele>
        <time>2015-02-15T09:11:02Z</time>
      </trkpt>
      <trkpt lat="40.685329" lon="-3.687869">
        <ele>855.626</ele>
        <time>2015-02-15T09:11:05Z</time>
      </trkpt>
      <trkpt lat="40.685328" lon="-3.687869">
        <ele>855.665</ele>
        <time>2015-02-15T09:11:08Z</time>
      </trkpt>
      <trkpt lat="40.685328" lon="-3.687869">
        <ele>855.559</ele>
        <time>2015-02-15T09:11:11Z</time>
      </trkpt>
      <trkpt lat="40.685328" lon="-3.687869">
        <ele>855.568</ele>
        <time>2015-02-15T09:11:14Z</time>
      </trkpt>
      <trkpt lat="40.685328" lon="-3.687869">
        <ele>855.424</ele>
        <time>2015-02-15T09:11:18Z</time>
      </trkpt>
      <trkpt lat="40.685328" lon="-3.687869">
        <ele>855.365</ele>
        <time>2015-02-15T09:11:21Z</time>
      </trkpt>
      <trkpt lat="40.685328" lon="-3.687869">
        <ele>855.344</ele>
        <time>2015-02-15T09:11:25Z</time>
      </trkpt>
      <trkpt lat="40.685328" lon="-3.687869">
        <ele>855.205</ele>
        <time>2015-02-15T09:11:28Z</time>
      </trkpt>
      <trkpt lat="40.685328" lon="-3.687868">
        <ele>855.215</ele>
        <time>2015-02-15T09:11:31Z</time>
      </trkpt>
      <trkpt lat="40.685328" lon="-3.687868">
        <ele>855.207</ele>
        <time>2015-02-15T09:11:34Z</time>
      </trkpt>
      <trkpt lat="40.685328" lon="-3.687868">
        <ele>855.192</ele>
        <time>2015-02-15T09:11:38Z</time>
      </trkpt>
      <trkpt lat="40.685328" lon="-3.687869">
        <ele>855.132</ele>
        <time>2015-02-15T09:11:41Z</time>
      </trkpt>
      <trkpt lat="40.685328" lon="-3.687869">
        <ele>855.111</ele>
        <time>2015-02-15T09:11:45Z</time>
      </trkpt>
      <trkpt lat="40.685328" lon="-3.687869">
        <ele>855.025</ele>
        <time>2015-02-15T09:11:48Z</time>
      </trkpt>
      <trkpt lat="40.685328" lon="-3.687869">
        <ele>855.094</ele>
        <time>2015-02-15T09:11:51Z</time>
      </trkpt>
      <trkpt lat="40.685328" lon="-3.687869">
        <ele>854.960</ele>
        <time>2015-02-15T09:11:54Z</time>
      </trkpt>
      <trkpt lat="40.685328" lon="-3.687869">
        <ele>854.991</ele>
        <time>2015-02-15T09:11:58Z</time>
      </trkpt>
      <trkpt lat="40.685328" lon="-3.687869">
        <ele>854.967</ele>
        <time>2015-02-15T09:12:02Z</time>
      </trkpt>
      <trkpt lat="40.685328" lon="-3.687869">
        <ele>854.981</ele>
        <time>2015-02-15T09:12:05Z</time>
      </trkpt>
      <trkpt lat="40.685328" lon="-3.687869">
        <ele>854.919</ele>
        <time>2015-02-15T09:12:09Z</time>
      </trkpt>
      <trkpt lat="40.685328" lon="-3.687869">
        <ele>854.907</ele>
        <time>2015-02-15T09:12:12Z</time>
      </trkpt>
      <trkpt lat="40.685328" lon="-3.687869">
        <ele>854.954</ele>
        <time>2015-02-15T09:12:15Z</time>
      </trkpt>
      <trkpt lat="40.685328" lon="-3.687869">
        <ele>854.934</ele>
        <time>2015-02-15T09:12:18Z</time>
      </trkpt>
      <trkpt lat="40.685328" lon="-3.687869">
        <ele>854.933</ele>
        <time>2015-02-15T09:12:21Z</time>
      </trkpt>
      <trkpt lat="40.685328" lon="-3.687869">
        <ele>854.977</ele>
        <time>2015-02-15T09:12:25Z</time>
      </trkpt>
      <trkpt lat="40.685328" lon="-3.687869">
        <ele>854.926</ele>
        <time>2015-02-15T09:12:28Z</time>
      </trkpt>
      <trkpt lat="40.685328" lon="-3.687869">
        <ele>854.932</ele>
        <time>2015-02-15T09:12:32Z</time>
      </trkpt>
      <trkpt lat="40.685328" lon="-3.687869">
        <ele>854.983</ele>
        <time>2015-02-15T09:12:35Z</time>
      </trkpt>
      <trkpt lat="40.685328" lon="-3.687869">
        <ele>854.958</ele>
        <time>2015-02-15T09:12:38Z</time>
      </trkpt>
      <trkpt lat="40.685328" lon="-3.687869">
        <ele>854.952</ele>
        <time>2015-02-15T09:12:41Z</time>
      </trkpt>
      <trkpt lat="40.685328" lon="-3.687869">
        <ele>854.917</ele>
        <time>2015-02-15T09:12:45Z</time>
      </trkpt>
      <trkpt lat="40.685328" lon="-3.687869">
        <ele>854.907</ele>
        <time>2015-02-15T09:12:48Z</time>
      </trkpt>
      <trkpt lat="40.685328" lon="-3.687869">
        <ele>854.953</ele>
        <time>2015-02-15T09:12:52Z</time>
      </trkpt>
      <trkpt lat="40.685328" lon="-3.687869">
        <ele>854.963</ele>
        <time>2015-02-15T09:12:55Z</time>
      </trkpt>
      <trkpt lat="40.685328" lon="-3.687869">
        <ele>854.972</ele>
        <time>2015-02-15T09:12:59Z</time>
      </trkpt>
      <trkpt lat="40.685328" lon="-3.687869">
        <ele>854.946</ele>
        <time>2015-02-15T09:13:02Z</time>
      </trkpt>
      <trkpt lat="40.685330" lon="-3.687873">
        <ele>854.915</ele>
        <time>2015-02-15T09:13:04Z</time>
      </trkpt>
      <trkpt lat="40.685333" lon="-3.687891">
        <ele>854.931</ele>
        <time>2015-02-15T09:13:07Z</time>
      </trkpt>
      <trkpt lat="40.685332" lon="-3.687894">
        <ele>854.942</ele>
        <time>2015-02-15T09:13:10Z</time>
      </trkpt>
      <trkpt lat="40.685331" lon="-3.687898">
        <ele>854.978</ele>
        <time>2015-02-15T09:13:13Z</time>
      </trkpt>
      <trkpt lat="40.685334" lon="-3.687907">
        <ele>854.933</ele>
        <time>2015-02-15T09:13:16Z</time>
      </trkpt>
      <trkpt lat="40.685342" lon="-3.687940">
        <ele>854.926</ele>
        <time>2015-02-15T09:13:18Z</time>
      </trkpt>
      <trkpt lat="40.685362" lon="-3.687975">
        <ele>854.907</ele>
        <time>2015-02-15T09:13:19Z</time>
      </trkpt>
      <trkpt lat="40.685378" lon="-3.688009">
        <ele>855.025</ele>
        <time>2015-02-15T09:13:20Z</time>
      </trkpt>
      <trkpt lat="40.685413" lon="-3.688075">
        <ele>855.055</ele>
        <time>2015-02-15T09:13:22Z</time>
      </trkpt>
      <trkpt lat="40.685462" lon="-3.688167">
        <ele>855.114</ele>
        <time>2015-02-15T09:13:25Z</time>
      </trkpt>
      <trkpt lat="40.685481" lon="-3.688192">
        <ele>855.158</ele>
        <time>2015-02-15T09:13:26Z</time>
      </trkpt>
      <trkpt lat="40.685499" lon="-3.688215">
        <ele>855.137</ele>
        <time>2015-02-15T09:13:27Z</time>
      </trkpt>
      <trkpt lat="40.685540" lon="-3.688263">
        <ele>855.293</ele>
        <time>2015-02-15T09:13:29Z</time>
      </trkpt>
      <trkpt lat="40.685577" lon="-3.688310">
        <ele>855.214</ele>
        <time>2015-02-15T09:13:31Z</time>
      </trkpt>
      <trkpt lat="40.685637" lon="-3.688378">
        <ele>855.374</ele>
        <time>2015-02-15T09:13:34Z</time>
      </trkpt>
      <trkpt lat="40.685677" lon="-3.688416">
        <ele>855.356</ele>
        <time>2015-02-15T09:13:36Z</time>
      </trkpt>
      <trkpt lat="40.685737" lon="-3.688476">
        <ele>855.421</ele>
        <time>2015-02-15T09:13:39Z</time>
      </trkpt>
      <trkpt lat="40.685792" lon="-3.688525">
        <ele>855.607</ele>
        <time>2015-02-15T09:13:43Z</time>
      </trkpt>
      <trkpt lat="40.685814" lon="-3.688537">
        <ele>855.615</ele>
        <time>2015-02-15T09:13:44Z</time>
      </trkpt>
      <trkpt lat="40.685836" lon="-3.688549">
        <ele>855.715</ele>
        <time>2015-02-15T09:13:45Z</time>
      </trkpt>
      <trkpt lat="40.685908" lon="-3.688596">
        <ele>855.884</ele>
        <time>2015-02-15T09:13:48Z</time>
      </trkpt>
      <trkpt lat="40.685978" lon="-3.688647">
        <ele>856.048</ele>
        <time>2015-02-15T09:13:51Z</time>
      </trkpt>
      <trkpt lat="40.686025" lon="-3.688669">
        <ele>856.267</ele>
        <time>2015-02-15T09:13:53Z</time>
      </trkpt>
      <trkpt lat="40.686097" lon="-3.688697">
        <ele>856.443</ele>
        <time>2015-02-15T09:13:56Z</time>
      </trkpt>
      <trkpt lat="40.686167" lon="-3.688715">
        <ele>856.724</ele>
        <time>2015-02-15T09:13:59Z</time>
      </trkpt>
      <trkpt lat="40.686236" lon="-3.688737">
        <ele>856.967</ele>
        <time>2015-02-15T09:14:02Z</time>
      </trkpt>
      <trkpt lat="40.686331" lon="-3.688758">
        <ele>857.281</ele>
        <time>2015-02-15T09:14:06Z</time>
      </trkpt>
      <trkpt lat="40.686355" lon="-3.688757">
        <ele>857.319</ele>
        <time>2015-02-15T09:14:07Z</time>
      </trkpt>
      <trkpt lat="40.686451" lon="-3.688770">
        <ele>857.607</ele>
        <time>2015-02-15T09:14:10Z</time>
      </trkpt>
      <trkpt lat="40.686497" lon="-3.688780">
        <ele>857.854</ele>
        <time>2015-02-15T09:14:12Z</time>
      </trkpt>
      <trkpt lat="40.686578" lon="-3.688793">
        <ele>858.124</ele>
        <time>2015-02-15T09:14:15Z</time>
      </trkpt>
      <trkpt lat="40.686653" lon="-3.688808">
        <ele>858.393</ele>
        <time>2015-02-15T09:14:18Z</time>
      </trkpt>
      <trkpt lat="40.686732" lon="-3.688822">
        <ele>858.697</ele>
        <time>2015-02-15T09:14:21Z</time>
      </trkpt>
      <trkpt lat="40.686757" lon="-3.688824">
        <ele>858.756</ele>
        <time>2015-02-15T09:14:22Z</time>
      </trkpt>
      <trkpt lat="40.686828" lon="-3.688829">
        <ele>858.992</ele>
        <time>2015-02-15T09:14:25Z</time>
      </trkpt>
      <trkpt lat="40.686903" lon="-3.688834">
        <ele>859.393</ele>
        <time>2015-02-15T09:14:28Z</time>
      </trkpt>
      <trkpt lat="40.686976" lon="-3.688847">
        <ele>859.679</ele>
        <time>2015-02-15T09:14:31Z</time>
      </trkpt>
      <trkpt lat="40.687051" lon="-3.688863">
        <ele>859.905</ele>
        <time>2015-02-15T09:14:34Z</time>
      </trkpt>
      <trkpt lat="40.687124" lon="-3.688882">
        <ele>860.325</ele>
        <time>2015-02-15T09:14:37Z</time>
      </trkpt>
      <trkpt lat="40.687205" lon="-3.688896">
        <ele>860.607</ele>
        <time>2015-02-15T09:14:40Z</time>
      </trkpt>
      <trkpt lat="40.687285" lon="-3.688914">
        <ele>860.985</ele>
        <time>2015-02-15T09:14:43Z</time>
      </trkpt>
      <trkpt lat="40.687311" lon="-3.688914">
        <ele>861.015</ele>
        <time>2015-02-15T09:14:44Z</time>
      </trkpt>
      <trkpt lat="40.687392" lon="-3.688935">
        <ele>861.334</ele>
        <time>2015-02-15T09:14:47Z</time>
      </trkpt>
      <trkpt lat="40.687443" lon="-3.688941">
        <ele>861.588</ele>
        <time>2015-02-15T09:14:49Z</time>
      </trkpt>
      <trkpt lat="40.687520" lon="-3.688953">
        <ele>861.727</ele>
        <time>2015-02-15T09:14:52Z</time>
      </trkpt>
      <trkpt lat="40.687593" lon="-3.688966">
        <ele>862.093</ele>
        <time>2015-02-15T09:14:55Z</time>
      </trkpt>
      <trkpt lat="40.687645" lon="-3.688971">
        <ele>862.134</ele>
        <time>2015-02-15T09:14:57Z</time>
      </trkpt>
      <trkpt lat="40.687694" lon="-3.688982">
        <ele>862.389</ele>
        <time>2015-02-15T09:14:59Z</time>
      </trkpt>
      <trkpt lat="40.687766" lon="-3.688998">
        <ele>862.506</ele>
        <time>2015-02-15T09:15:02Z</time>
      </trkpt>
      <trkpt lat="40.687843" lon="-3.689018">
        <ele>862.826</ele>
        <time>2015-02-15T09:15:06Z</time>
      </trkpt>
      <trkpt lat="40.687900" lon="-3.689026">
        <ele>863.007</ele>
        <time>2015-02-15T09:15:08Z</time>
      </trkpt>
      <trkpt lat="40.687974" lon="-3.689040">
        <ele>863.476</ele>
        <time>2015-02-15T09:15:11Z</time>
      </trkpt>
      <trkpt lat="40.688000" lon="-3.689039">
        <ele>863.516</ele>
        <time>2015-02-15T09:15:12Z</time>
      </trkpt>
      <trkpt lat="40.688071" lon="-3.689047">
        <ele>863.935</ele>
        <time>2015-02-15T09:15:15Z</time>
      </trkpt>
      <trkpt lat="40.688120" lon="-3.689062">
        <ele>864.229</ele>
        <time>2015-02-15T09:15:17Z</time>
      </trkpt>
      <trkpt lat="40.688199" lon="-3.689081">
        <ele>864.638</ele>
        <time>2015-02-15T09:15:20Z</time>
      </trkpt>
      <trkpt lat="40.688222" lon="-3.689084">
        <ele>864.814</ele>
        <time>2015-02-15T09:15:21Z</time>
      </trkpt>
      <trkpt lat="40.688267" lon="-3.689094">
        <ele>865.145</ele>
        <time>2015-02-15T09:15:23Z</time>
      </trkpt>
      <trkpt lat="40.688341" lon="-3.689103">
        <ele>865.556</ele>
        <time>2015-02-15T09:15:26Z</time>
      </trkpt>
      <trkpt lat="40.688463" lon="-3.689117">
        <ele>866.159</ele>
        <time>2015-02-15T09:15:30Z</time>
      </trkpt>
      <trkpt lat="40.688511" lon="-3.689132">
        <ele>866.414</ele>
        <time>2015-02-15T09:15:32Z</time>
      </trkpt>
      <trkpt lat="40.688579" lon="-3.689157">
        <ele>866.907</ele>
        <time>2015-02-15T09:15:35Z</time>
      </trkpt>
      <trkpt lat="40.688600" lon="-3.689172">
        <ele>867.033</ele>
        <time>2015-02-15T09:15:36Z</time>
      </trkpt>
      <trkpt lat="40.688621" lon="-3.689189">
        <ele>867.253</ele>
        <time>2015-02-15T09:15:37Z</time>
      </trkpt>
      <trkpt lat="40.688683" lon="-3.689243">
        <ele>867.792</ele>
        <time>2015-02-15T09:15:40Z</time>
      </trkpt>
      <trkpt lat="40.688700" lon="-3.689265">
        <ele>867.836</ele>
        <time>2015-02-15T09:15:41Z</time>
      </trkpt>
      <trkpt lat="40.688731" lon="-3.689311">
        <ele>868.275</ele>
        <time>2015-02-15T09:15:43Z</time>
      </trkpt>
      <trkpt lat="40.688761" lon="-3.689365">
        <ele>868.641</ele>
        <time>2015-02-15T09:15:45Z</time>
      </trkpt>
      <trkpt lat="40.688779" lon="-3.689419">
        <ele>868.992</ele>
        <time>2015-02-15T09:15:47Z</time>
      </trkpt>
      <trkpt lat="40.688801" lon="-3.689501">
        <ele>869.529</ele>
        <time>2015-02-15T09:15:50Z</time>
      </trkpt>
      <trkpt lat="40.688805" lon="-3.689532">
        <ele>869.600</ele>
        <time>2015-02-15T09:15:51Z</time>
      </trkpt>
      <trkpt lat="40.688809" lon="-3.689590">
        <ele>870.020</ele>
        <time>2015-02-15T09:15:53Z</time>
      </trkpt>
      <trkpt lat="40.688809" lon="-3.689677">
        <ele>870.607</ele>
        <time>2015-02-15T09:15:56Z</time>
      </trkpt>
      <trkpt lat="40.688803" lon="-3.689737">
        <ele>871.020</ele>
        <time>2015-02-15T09:15:58Z</time>
      </trkpt>
      <trkpt lat="40.688795" lon="-3.689828">
        <ele>871.720</ele>
        <time>2015-02-15T09:16:01Z</time>
      </trkpt>
      <trkpt lat="40.688800" lon="-3.689921">
        <ele>872.369</ele>
        <time>2015-02-15T09:16:04Z</time>
      </trkpt>
      <trkpt lat="40.688805" lon="-3.690011">
        <ele>872.863</ele>
        <time>2015-02-15T09:16:07Z</time>
      </trkpt>
      <trkpt lat="40.688810" lon="-3.690093">
        <ele>873.382</ele>
        <time>2015-02-15T09:16:10Z</time>
      </trkpt>
      <trkpt lat="40.688812" lon="-3.690126">
        <ele>873.588</ele>
        <time>2015-02-15T09:16:11Z</time>
      </trkpt>
      <trkpt lat="40.688818" lon="-3.690216">
        <ele>873.929</ele>
        <time>2015-02-15T09:16:14Z</time>
      </trkpt>
      <trkpt lat="40.688817" lon="-3.690245">
        <ele>874.177</ele>
        <time>2015-02-15T09:16:15Z</time>
      </trkpt>
      <trkpt lat="40.688825" lon="-3.690303">
        <ele>874.461</ele>
        <time>2015-02-15T09:16:17Z</time>
      </trkpt>
      <trkpt lat="40.688833" lon="-3.690340">
        <ele>874.527</ele>
        <time>2015-02-15T09:16:18Z</time>
      </trkpt>
      <trkpt lat="40.688836" lon="-3.690401">
        <ele>874.807</ele>
        <time>2015-02-15T09:16:20Z</time>
      </trkpt>
      <trkpt lat="40.688843" lon="-3.690493">
        <ele>875.175</ele>
        <time>2015-02-15T09:16:23Z</time>
      </trkpt>
      <trkpt lat="40.688841" lon="-3.690584">
        <ele>875.335</ele>
        <time>2015-02-15T09:16:26Z</time>
      </trkpt>
      <trkpt lat="40.688838" lon="-3.690673">
        <ele>875.474</ele>
        <time>2015-02-15T09:16:29Z</time>
      </trkpt>
      <trkpt lat="40.688835" lon="-3.690775">
        <ele>875.648</ele>
        <time>2015-02-15T09:16:32Z</time>
      </trkpt>
      <trkpt lat="40.688836" lon="-3.690871">
        <ele>875.817</ele>
        <time>2015-02-15T09:16:36Z</time>
      </trkpt>
      <trkpt lat="40.688834" lon="-3.690995">
        <ele>876.283</ele>
        <time>2015-02-15T09:16:40Z</time>
      </trkpt>
      <trkpt lat="40.688832" lon="-3.691086">
        <ele>876.454</ele>
        <time>2015-02-15T09:16:43Z</time>
      </trkpt>
      <trkpt lat="40.688838" lon="-3.691148">
        <ele>876.667</ele>
        <time>2015-02-15T09:16:45Z</time>
      </trkpt>
      <trkpt lat="40.688836" lon="-3.691232">
        <ele>876.981</ele>
        <time>2015-02-15T09:16:48Z</time>
      </trkpt>
      <trkpt lat="40.688844" lon="-3.691303">
        <ele>877.019</ele>
        <time>2015-02-15T09:16:50Z</time>
      </trkpt>
      <trkpt lat="40.688846" lon="-3.691405">
        <ele>877.207</ele>
        <time>2015-02-15T09:16:53Z</time>
      </trkpt>
      <trkpt lat="40.688843" lon="-3.691469">
        <ele>877.354</ele>
        <time>2015-02-15T09:16:55Z</time>
      </trkpt>
      <trkpt lat="40.688851" lon="-3.691495">
        <ele>877.474</ele>
        <time>2015-02-15T09:16:56Z</time>
      </trkpt>
      <trkpt lat="40.688847" lon="-3.691612">
        <ele>877.633</ele>
        <time>2015-02-15T09:16:59Z</time>
      </trkpt>
      <trkpt lat="40.688848" lon="-3.691740">
        <ele>877.957</ele>
        <time>2015-02-15T09:17:03Z</time>
      </trkpt>
      <trkpt lat="40.688860" lon="-3.691803">
        <ele>878.156</ele>
        <time>2015-02-15T09:17:05Z</time>
      </trkpt>
      <trkpt lat="40.688866" lon="-3.691897">
        <ele>878.442</ele>
        <time>2015-02-15T09:17:08Z</time>
      </trkpt>
      <trkpt lat="40.688863" lon="-3.691963">
        <ele>878.693</ele>
        <time>2015-02-15T09:17:10Z</time>
      </trkpt>
      <trkpt lat="40.688856" lon="-3.692028">
        <ele>878.997</ele>
        <time>2015-02-15T09:17:12Z</time>
      </trkpt>
      <trkpt lat="40.688854" lon="-3.692128">
        <ele>879.223</ele>
        <time>2015-02-15T09:17:15Z</time>
      </trkpt>
      <trkpt lat="40.688856" lon="-3.692190">
        <ele>879.525</ele>
        <time>2015-02-15T09:17:17Z</time>
      </trkpt>
      <trkpt lat="40.688863" lon="-3.692270">
        <ele>879.807</ele>
        <time>2015-02-15T09:17:20Z</time>
      </trkpt>
      <trkpt lat="40.688878" lon="-3.692376">
        <ele>880.287</ele>
        <time>2015-02-15T09:17:23Z</time>
      </trkpt>
      <trkpt lat="40.688898" lon="-3.692466">
        <ele>880.897</ele>
        <time>2015-02-15T09:17:26Z</time>
      </trkpt>
      <trkpt lat="40.688908" lon="-3.692557">
        <ele>881.556</ele>
        <time>2015-02-15T09:17:29Z</time>
      </trkpt>
      <trkpt lat="40.688923" lon="-3.692644">
        <ele>882.220</ele>
        <time>2015-02-15T09:17:32Z</time>
      </trkpt>
      <trkpt lat="40.688939" lon="-3.692702">
        <ele>882.569</ele>
        <time>2015-02-15T09:17:34Z</time>
      </trkpt>
      <trkpt lat="40.688966" lon="-3.692797">
        <ele>883.025</ele>
        <time>2015-02-15T09:17:37Z</time>
      </trkpt>
      <trkpt lat="40.688984" lon="-3.692889">
        <ele>883.636</ele>
        <time>2015-02-15T09:17:40Z</time>
      </trkpt>
      <trkpt lat="40.688990" lon="-3.692923">
        <ele>883.819</ele>
        <time>2015-02-15T09:17:41Z</time>
      </trkpt>
      <trkpt lat="40.688994" lon="-3.692951">
        <ele>883.909</ele>
        <time>2015-02-15T09:17:42Z</time>
      </trkpt>
      <trkpt lat="40.688998" lon="-3.692981">
        <ele>884.119</ele>
        <time>2015-02-15T09:17:43Z</time>
      </trkpt>
      <trkpt lat="40.689014" lon="-3.693077">
        <ele>884.507</ele>
        <time>2015-02-15T09:17:46Z</time>
      </trkpt>
      <trkpt lat="40.689017" lon="-3.693136">
        <ele>884.859</ele>
        <time>2015-02-15T09:17:48Z</time>
      </trkpt>
      <trkpt lat="40.689011" lon="-3.693194">
        <ele>885.129</ele>
        <time>2015-02-15T09:17:50Z</time>
      </trkpt>
      <trkpt lat="40.689006" lon="-3.693217">
        <ele>885.358</ele>
        <time>2015-02-15T09:17:51Z</time>
      </trkpt>
      <trkpt lat="40.688987" lon="-3.693246">
        <ele>885.412</ele>
        <time>2015-02-15T09:17:52Z</time>
      </trkpt>
      <trkpt lat="40.688960" lon="-3.693274">
        <ele>885.661</ele>
        <time>2015-02-15T09:17:53Z</time>
      </trkpt>
      <trkpt lat="40.688923" lon="-3.693316">
        <ele>885.747</ele>
        <time>2015-02-15T09:17:54Z</time>
      </trkpt>
      <trkpt lat="40.688885" lon="-3.693386">
        <ele>886.028</ele>
        <time>2015-02-15T09:17:57Z</time>
      </trkpt>
      <trkpt lat="40.688872" lon="-3.693421">
        <ele>886.192</ele>
        <time>2015-02-15T09:17:58Z</time>
      </trkpt>
      <trkpt lat="40.688848" lon="-3.693506">
        <ele>886.273</ele>
        <time>2015-02-15T09:18:00Z</time>
      </trkpt>
      <trkpt lat="40.688844" lon="-3.693543">
        <ele>886.320</ele>
        <time>2015-02-15T09:18:01Z</time>
      </trkpt>
      <trkpt lat="40.688844" lon="-3.693609">
        <ele>886.407</ele>
        <time>2015-02-15T09:18:03Z</time>
      </trkpt>
      <trkpt lat="40.688850" lon="-3.693672">
        <ele>886.667</ele>
        <time>2015-02-15T09:18:05Z</time>
      </trkpt>
      <trkpt lat="40.688863" lon="-3.693766">
        <ele>886.887</ele>
        <time>2015-02-15T09:18:08Z</time>
      </trkpt>
      <trkpt lat="40.688886" lon="-3.693802">
        <ele>886.826</ele>
        <time>2015-02-15T09:18:09Z</time>
      </trkpt>
      <trkpt lat="40.688899" lon="-3.693838">
        <ele>886.920</ele>
        <time>2015-02-15T09:18:10Z</time>
      </trkpt>
      <trkpt lat="40.688963" lon="-3.693918">
        <ele>887.179</ele>
        <time>2015-02-15T09:18:13Z</time>
      </trkpt>
      <trkpt lat="40.688989" lon="-3.693947">
        <ele>887.215</ele>
        <time>2015-02-15T09:18:14Z</time>
      </trkpt>
      <trkpt lat="40.689012" lon="-3.693974">
        <ele>887.346</ele>
        <time>2015-02-15T09:18:15Z</time>
      </trkpt>
      <trkpt lat="40.689083" lon="-3.694042">
        <ele>887.566</ele>
        <time>2015-02-15T09:18:18Z</time>
      </trkpt>
      <trkpt lat="40.689136" lon="-3.694126">
        <ele>887.729</ele>
        <time>2015-02-15T09:18:20Z</time>
      </trkpt>
      <trkpt lat="40.689150" lon="-3.694157">
        <ele>887.721</ele>
        <time>2015-02-15T09:18:21Z</time>
      </trkpt>
      <trkpt lat="40.689162" lon="-3.694192">
        <ele>887.807</ele>
        <time>2015-02-15T09:18:22Z</time>
      </trkpt>
      <trkpt lat="40.689198" lon="-3.694284">
        <ele>888.114</ele>
        <time>2015-02-15T09:18:25Z</time>
      </trkpt>
      <trkpt lat="40.689215" lon="-3.694313">
        <ele>888.174</ele>
        <time>2015-02-15T09:18:26Z</time>
      </trkpt>
      <trkpt lat="40.689282" lon="-3.694432">
        <ele>888.313</ele>
        <time>2015-02-15T09:18:30Z</time>
      </trkpt>
      <trkpt lat="40.689317" lon="-3.694480">
        <ele>888.457</ele>
        <time>2015-02-15T09:18:32Z</time>
      </trkpt>
      <trkpt lat="40.689337" lon="-3.694505">
        <ele>888.546</ele>
        <time>2015-02-15T09:18:33Z</time>
      </trkpt>
      <trkpt lat="40.689395" lon="-3.694583">
        <ele>888.672</ele>
        <time>2015-02-15T09:18:36Z</time>
      </trkpt>
      <trkpt lat="40.689457" lon="-3.694663">
        <ele>888.833</ele>
        <time>2015-02-15T09:18:39Z</time>
      </trkpt>
      <trkpt lat="40.689486" lon="-3.694716">
        <ele>888.891</ele>
        <time>2015-02-15T09:18:41Z</time>
      </trkpt>
      <trkpt lat="40.689515" lon="-3.694776">
        <ele>888.981</ele>
        <time>2015-02-15T09:18:43Z</time>
      </trkpt>
      <trkpt lat="40.689550" lon="-3.694854">
        <ele>889.019</ele>
        <time>2015-02-15T09:18:46Z</time>
      </trkpt>
      <trkpt lat="40.689551" lon="-3.694939">
        <ele>889.207</ele>
        <time>2015-02-15T09:18:48Z</time>
      </trkpt>
      <trkpt lat="40.689550" lon="-3.694985">
        <ele>889.237</ele>
        <time>2015-02-15T09:18:49Z</time>
      </trkpt>
      <trkpt lat="40.689555" lon="-3.695029">
        <ele>889.377</ele>
        <time>2015-02-15T09:18:50Z</time>
      </trkpt>
      <trkpt lat="40.689561" lon="-3.695149">
        <ele>889.596</ele>
        <time>2015-02-15T09:18:53Z</time>
      </trkpt>
      <trkpt lat="40.689580" lon="-3.695285">
        <ele>889.740</ele>
        <time>2015-02-15T09:18:56Z</time>
      </trkpt>
      <trkpt lat="40.689606" lon="-3.695334">
        <ele>889.869</ele>
        <time>2015-02-15T09:18:57Z</time>
      </trkpt>
      <trkpt lat="40.689626" lon="-3.695380">
        <ele>889.985</ele>
        <time>2015-02-15T09:18:58Z</time>
      </trkpt>
      <trkpt lat="40.689644" lon="-3.695413">
        <ele>890.036</ele>
        <time>2015-02-15T09:18:59Z</time>
      </trkpt>
      <trkpt lat="40.689663" lon="-3.695444">
        <ele>890.194</ele>
        <time>2015-02-15T09:19:00Z</time>
      </trkpt>
      <trkpt lat="40.689679" lon="-3.695467">
        <ele>890.257</ele>
        <time>2015-02-15T09:19:01Z</time>
      </trkpt>
      <trkpt lat="40.689718" lon="-3.695519">
        <ele>890.422</ele>
        <time>2015-02-15T09:19:03Z</time>
      </trkpt>
      <trkpt lat="40.689787" lon="-3.695606">
        <ele>890.607</ele>
        <time>2015-02-15T09:19:06Z</time>
      </trkpt>
      <trkpt lat="40.689849" lon="-3.695692">
        <ele>890.817</ele>
        <time>2015-02-15T09:19:09Z</time>
      </trkpt>
      <trkpt lat="40.689887" lon="-3.695734">
        <ele>890.987</ele>
        <time>2015-02-15T09:19:11Z</time>
      </trkpt>
      <trkpt lat="40.689942" lon="-3.695800">
        <ele>890.916</ele>
        <time>2015-02-15T09:19:15Z</time>
      </trkpt>
      <trkpt lat="40.690008" lon="-3.695865">
        <ele>891.080</ele>
        <time>2015-02-15T09:19:17Z</time>
      </trkpt>
      <trkpt lat="40.690055" lon="-3.695914">
        <ele>891.029</ele>
        <time>2015-02-15T09:19:20Z</time>
      </trkpt>
      <trkpt lat="40.690098" lon="-3.695939">
        <ele>891.075</ele>
        <time>2015-02-15T09:19:21Z</time>
      </trkpt>
      <trkpt lat="40.690138" lon="-3.695964">
        <ele>891.036</ele>
        <time>2015-02-15T09:19:22Z</time>
      </trkpt>
      <trkpt lat="40.690220" lon="-3.696032">
        <ele>891.069</ele>
        <time>2015-02-15T09:19:24Z</time>
      </trkpt>
      <trkpt lat="40.690296" lon="-3.696126">
        <ele>891.004</ele>
        <time>2015-02-15T09:19:26Z</time>
      </trkpt>
      <trkpt lat="40.690363" lon="-3.696243">
        <ele>891.024</ele>
        <time>2015-02-15T09:19:28Z</time>
      </trkpt>
      <trkpt lat="40.690392" lon="-3.696293">
        <ele>890.907</ele>
        <time>2015-02-15T09:19:29Z</time>
      </trkpt>
      <trkpt lat="40.690487" lon="-3.696434">
        <ele>890.924</ele>
        <time>2015-02-15T09:19:32Z</time>
      </trkpt>
      <trkpt lat="40.690543" lon="-3.696522">
        <ele>890.824</ele>
        <time>2015-02-15T09:19:34Z</time>
      </trkpt>
      <trkpt lat="40.690563" lon="-3.696563">
        <ele>890.723</ele>
        <time>2015-02-15T09:19:35Z</time>
      </trkpt>
      <trkpt lat="40.690612" lon="-3.696635">
        <ele>890.687</ele>
        <time>2015-02-15T09:19:37Z</time>
      </trkpt>
      <trkpt lat="40.690688" lon="-3.696749">
        <ele>890.466</ele>
        <time>2015-02-15T09:19:40Z</time>
      </trkpt>
      <trkpt lat="40.690725" lon="-3.696843">
        <ele>890.352</ele>
        <time>2015-02-15T09:19:41Z</time>
      </trkpt>
      <trkpt lat="40.690749" lon="-3.696942">
        <ele>890.223</ele>
        <time>2015-02-15T09:19:43Z</time>
      </trkpt>
      <trkpt lat="40.690755" lon="-3.696993">
        <ele>890.124</ele>
        <time>2015-02-15T09:19:44Z</time>
      </trkpt>
      <trkpt lat="40.690754" lon="-3.697092">
        <ele>889.904</ele>
        <time>2015-02-15T09:19:46Z</time>
      </trkpt>
      <trkpt lat="40.690748" lon="-3.697186">
        <ele>889.714</ele>
        <time>2015-02-15T09:19:48Z</time>
      </trkpt>
      <trkpt lat="40.690741" lon="-3.697235">
        <ele>889.607</ele>
        <time>2015-02-15T09:19:49Z</time>
      </trkpt>
      <trkpt lat="40.690731" lon="-3.697325">
        <ele>889.470</ele>
        <time>2015-02-15T09:19:51Z</time>
      </trkpt>
      <trkpt lat="40.690720" lon="-3.697365">
        <ele>889.340</ele>
        <time>2015-02-15T09:19:52Z</time>
      </trkpt>
      <trkpt lat="40.690709" lon="-3.697407">
        <ele>889.389</ele>
        <time>2015-02-15T09:19:53Z</time>
      </trkpt>
      <trkpt lat="40.690682" lon="-3.697518">
        <ele>889.143</ele>
        <time>2015-02-15T09:19:56Z</time>
      </trkpt>
      <trkpt lat="40.690657" lon="-3.697630">
        <ele>888.842</ele>
        <time>2015-02-15T09:19:59Z</time>
      </trkpt>
      <trkpt lat="40.690637" lon="-3.697741">
        <ele>888.658</ele>
        <time>2015-02-15T09:20:02Z</time>
      </trkpt>
      <trkpt lat="40.690632" lon="-3.697816">
        <ele>888.559</ele>
        <time>2015-02-15T09:20:04Z</time>
      </trkpt>
      <trkpt lat="40.690626" lon="-3.697924">
        <ele>888.319</ele>
        <time>2015-02-15T09:20:07Z</time>
      </trkpt>
      <trkpt lat="40.690624" lon="-3.697996">
        <ele>888.209</ele>
        <time>2015-02-15T09:20:09Z</time>
      </trkpt>
      <trkpt lat="40.690615" lon="-3.698115">
        <ele>888.119</ele>
        <time>2015-02-15T09:20:12Z</time>
      </trkpt>
      <trkpt lat="40.690614" lon="-3.698157">
        <ele>888.107</ele>
        <time>2015-02-15T09:20:13Z</time>
      </trkpt>
      <trkpt lat="40.690600" lon="-3.698237">
        <ele>888.039</ele>
        <time>2015-02-15T09:20:15Z</time>
      </trkpt>
      <trkpt lat="40.690578" lon="-3.698353">
        <ele>887.949</ele>
        <time>2015-02-15T09:20:18Z</time>
      </trkpt>
      <trkpt lat="40.690558" lon="-3.698414">
        <ele>887.898</ele>
        <time>2015-02-15T09:20:20Z</time>
      </trkpt>
      <trkpt lat="40.690541" lon="-3.698458">
        <ele>887.822</ele>
        <time>2015-02-15T09:20:21Z</time>
      </trkpt>
      <trkpt lat="40.690528" lon="-3.698532">
        <ele>887.881</ele>
        <time>2015-02-15T09:20:23Z</time>
      </trkpt>
      <trkpt lat="40.690524" lon="-3.698573">
        <ele>887.867</ele>
        <time>2015-02-15T09:20:24Z</time>
      </trkpt>
      <trkpt lat="40.690520" lon="-3.698696">
        <ele>887.938</ele>
        <time>2015-02-15T09:20:27Z</time>
      </trkpt>
      <trkpt lat="40.690515" lon="-3.698729">
        <ele>887.953</ele>
        <time>2015-02-15T09:20:28Z</time>
      </trkpt>
      <trkpt lat="40.690505" lon="-3.698802">
        <ele>887.904</ele>
        <time>2015-02-15T09:20:30Z</time>
      </trkpt>
      <trkpt lat="40.690504" lon="-3.698879">
        <ele>888.014</ele>
        <time>2015-02-15T09:20:32Z</time>
      </trkpt>
      <trkpt lat="40.690518" lon="-3.698914">
        <ele>888.007</ele>
        <time>2015-02-15T09:20:33Z</time>
      </trkpt>
      <trkpt lat="40.690529" lon="-3.698949">
        <ele>888.173</ele>
        <time>2015-02-15T09:20:34Z</time>
      </trkpt>
      <trkpt lat="40.690535" lon="-3.699061">
        <ele>888.353</ele>
        <time>2015-02-15T09:20:37Z</time>
      </trkpt>
      <trkpt lat="40.690544" lon="-3.699187">
        <ele>888.622</ele>
        <time>2015-02-15T09:20:40Z</time>
      </trkpt>
      <trkpt lat="40.690563" lon="-3.699224">
        <ele>888.786</ele>
        <time>2015-02-15T09:20:42Z</time>
      </trkpt>
      <trkpt lat="40.690574" lon="-3.699260">
        <ele>888.845</ele>
        <time>2015-02-15T09:20:43Z</time>
      </trkpt>
      <trkpt lat="40.690598" lon="-3.699332">
        <ele>889.071</ele>
        <time>2015-02-15T09:20:45Z</time>
      </trkpt>
      <trkpt lat="40.690634" lon="-3.699429">
        <ele>889.322</ele>
        <time>2015-02-15T09:20:48Z</time>
      </trkpt>
      <trkpt lat="40.690673" lon="-3.699521">
        <ele>889.632</ele>
        <time>2015-02-15T09:20:51Z</time>
      </trkpt>
      <trkpt lat="40.690692" lon="-3.699548">
        <ele>889.792</ele>
        <time>2015-02-15T09:20:52Z</time>
      </trkpt>
      <trkpt lat="40.690703" lon="-3.699578">
        <ele>889.811</ele>
        <time>2015-02-15T09:20:53Z</time>
      </trkpt>
      <trkpt lat="40.690714" lon="-3.699615">
        <ele>889.907</ele>
        <time>2015-02-15T09:20:54Z</time>
      </trkpt>
      <trkpt lat="40.690728" lon="-3.699649">
        <ele>890.171</ele>
        <time>2015-02-15T09:20:55Z</time>
      </trkpt>
      <trkpt lat="40.690760" lon="-3.699716">
        <ele>890.341</ele>
        <time>2015-02-15T09:20:57Z</time>
      </trkpt>
      <trkpt lat="40.690782" lon="-3.699783">
        <ele>890.610</ele>
        <time>2015-02-15T09:20:59Z</time>
      </trkpt>
      <trkpt lat="40.690789" lon="-3.699818">
        <ele>890.854</ele>
        <time>2015-02-15T09:21:00Z</time>
      </trkpt>
      <trkpt lat="40.690793" lon="-3.699852">
        <ele>890.973</ele>
        <time>2015-02-15T09:21:01Z</time>
      </trkpt>
      <trkpt lat="40.690796" lon="-3.699890">
        <ele>891.139</ele>
        <time>2015-02-15T09:21:02Z</time>
      </trkpt>
      <trkpt lat="40.690798" lon="-3.699969">
        <ele>891.440</ele>
        <time>2015-02-15T09:21:04Z</time>
      </trkpt>
      <trkpt lat="40.690799" lon="-3.700002">
        <ele>891.588</ele>
        <time>2015-02-15T09:21:05Z</time>
      </trkpt>
      <trkpt lat="40.690795" lon="-3.700131">
        <ele>892.024</ele>
        <time>2015-02-15T09:21:08Z</time>
      </trkpt>
      <trkpt lat="40.690806" lon="-3.700165">
        <ele>892.126</ele>
        <time>2015-02-15T09:21:09Z</time>
      </trkpt>
      <trkpt lat="40.690811" lon="-3.700195">
        <ele>892.207</ele>
        <time>2015-02-15T09:21:10Z</time>
      </trkpt>
      <trkpt lat="40.690843" lon="-3.700281">
        <ele>892.716</ele>
        <time>2015-02-15T09:21:13Z</time>
      </trkpt>
      <trkpt lat="40.690881" lon="-3.700370">
        <ele>893.256</ele>
        <time>2015-02-15T09:21:16Z</time>
      </trkpt>
      <trkpt lat="40.690898" lon="-3.700436">
        <ele>893.535</ele>
        <time>2015-02-15T09:21:18Z</time>
      </trkpt>
      <trkpt lat="40.690903" lon="-3.700469">
        <ele>893.669</ele>
        <time>2015-02-15T09:21:19Z</time>
      </trkpt>
      <trkpt lat="40.690899" lon="-3.700539">
        <ele>894.038</ele>
        <time>2015-02-15T09:21:21Z</time>
      </trkpt>
      <trkpt lat="40.690895" lon="-3.700572">
        <ele>894.164</ele>
        <time>2015-02-15T09:21:22Z</time>
      </trkpt>
      <trkpt lat="40.690893" lon="-3.700605">
        <ele>894.315</ele>
        <time>2015-02-15T09:21:23Z</time>
      </trkpt>
      <trkpt lat="40.690866" lon="-3.700700">
        <ele>894.827</ele>
        <time>2015-02-15T09:21:26Z</time>
      </trkpt>
      <trkpt lat="40.690850" lon="-3.700731">
        <ele>895.068</ele>
        <time>2015-02-15T09:21:27Z</time>
      </trkpt>
      <trkpt lat="40.690837" lon="-3.700761">
        <ele>895.214</ele>
        <time>2015-02-15T09:21:28Z</time>
      </trkpt>
      <trkpt lat="40.690824" lon="-3.700787">
        <ele>895.307</ele>
        <time>2015-02-15T09:21:29Z</time>
      </trkpt>
      <trkpt lat="40.690802" lon="-3.700849">
        <ele>895.620</ele>
        <time>2015-02-15T09:21:31Z</time>
      </trkpt>
      <trkpt lat="40.690794" lon="-3.700886">
        <ele>895.850</ele>
        <time>2015-02-15T09:21:32Z</time>
      </trkpt>
      <trkpt lat="40.690770" lon="-3.700992">
        <ele>896.119</ele>
        <time>2015-02-15T09:21:35Z</time>
      </trkpt>
      <trkpt lat="40.690755" lon="-3.701089">
        <ele>896.563</ele>
        <time>2015-02-15T09:21:38Z</time>
      </trkpt>
      <trkpt lat="40.690747" lon="-3.701124">
        <ele>896.552</ele>
        <time>2015-02-15T09:21:39Z</time>
      </trkpt>
      <trkpt lat="40.690733" lon="-3.701185">
        <ele>896.768</ele>
        <time>2015-02-15T09:21:41Z</time>
      </trkpt>
      <trkpt lat="40.690707" lon="-3.701286">
        <ele>897.079</ele>
        <time>2015-02-15T09:21:44Z</time>
      </trkpt>
      <trkpt lat="40.690680" lon="-3.701389">
        <ele>897.379</ele>
        <time>2015-02-15T09:21:47Z</time>
      </trkpt>
      <trkpt lat="40.690652" lon="-3.701454">
        <ele>897.405</ele>
        <time>2015-02-15T09:21:49Z</time>
      </trkpt>
      <trkpt lat="40.690614" lon="-3.701512">
        <ele>897.525</ele>
        <time>2015-02-15T09:21:51Z</time>
      </trkpt>
      <trkpt lat="40.690596" lon="-3.701532">
        <ele>897.507</ele>
        <time>2015-02-15T09:21:52Z</time>
      </trkpt>
      <trkpt lat="40.690577" lon="-3.701550">
        <ele>897.575</ele>
        <time>2015-02-15T09:21:53Z</time>
      </trkpt>
      <trkpt lat="40.690558" lon="-3.701559">
        <ele>897.585</ele>
        <time>2015-02-15T09:21:54Z</time>
      </trkpt>
      <trkpt lat="40.690536" lon="-3.701570">
        <ele>897.694</ele>
        <time>2015-02-15T09:21:55Z</time>
      </trkpt>
      <trkpt lat="40.690494" lon="-3.701588">
        <ele>897.678</ele>
        <time>2015-02-15T09:21:57Z</time>
      </trkpt>
      <trkpt lat="40.690427" lon="-3.701610">
        <ele>897.757</ele>
        <time>2015-02-15T09:22:00Z</time>
      </trkpt>
      <trkpt lat="40.690397" lon="-3.701625">
        <ele>897.773</ele>
        <time>2015-02-15T09:22:02Z</time>
      </trkpt>
      <trkpt lat="40.690351" lon="-3.701655">
        <ele>897.864</ele>
        <time>2015-02-15T09:22:06Z</time>
      </trkpt>
      <trkpt lat="40.690327" lon="-3.701669">
        <ele>897.844</ele>
        <time>2015-02-15T09:22:08Z</time>
      </trkpt>
      <trkpt lat="40.690286" lon="-3.701693">
        <ele>898.005</ele>
        <time>2015-02-15T09:22:11Z</time>
      </trkpt>
      <trkpt lat="40.690219" lon="-3.701724">
        <ele>898.315</ele>
        <time>2015-02-15T09:22:15Z</time>
      </trkpt>
      <trkpt lat="40.690167" lon="-3.701753">
        <ele>898.507</ele>
        <time>2015-02-15T09:22:18Z</time>
      </trkpt>
      <trkpt lat="40.690121" lon="-3.701785">
        <ele>898.752</ele>
        <time>2015-02-15T09:22:21Z</time>
      </trkpt>
      <trkpt lat="40.690093" lon="-3.701803">
        <ele>898.962</ele>
        <time>2015-02-15T09:22:23Z</time>
      </trkpt>
      <trkpt lat="40.690052" lon="-3.701834">
        <ele>899.171</ele>
        <time>2015-02-15T09:22:26Z</time>
      </trkpt>
      <trkpt lat="40.690019" lon="-3.701858">
        <ele>899.325</ele>
        <time>2015-02-15T09:22:28Z</time>
      </trkpt>
      <trkpt lat="40.690004" lon="-3.701873">
        <ele>899.464</ele>
        <time>2015-02-15T09:22:29Z</time>
      </trkpt>
      <trkpt lat="40.689966" lon="-3.701915">
        <ele>899.650</ele>
        <time>2015-02-15T09:22:31Z</time>
      </trkpt>
      <trkpt lat="40.689930" lon="-3.701962">
        <ele>900.071</ele>
        <time>2015-02-15T09:22:34Z</time>
      </trkpt>
      <trkpt lat="40.689893" lon="-3.702006">
        <ele>900.415</ele>
        <time>2015-02-15T09:22:37Z</time>
      </trkpt>
      <trkpt lat="40.689860" lon="-3.702048">
        <ele>900.865</ele>
        <time>2015-02-15T09:22:40Z</time>
      </trkpt>
      <trkpt lat="40.689838" lon="-3.702092">
        <ele>901.111</ele>
        <time>2015-02-15T09:22:42Z</time>
      </trkpt>
      <trkpt lat="40.689818" lon="-3.702134">
        <ele>901.407</ele>
        <time>2015-02-15T09:22:44Z</time>
      </trkpt>
      <trkpt lat="40.689787" lon="-3.702183">
        <ele>901.989</ele>
        <time>2015-02-15T09:22:47Z</time>
      </trkpt>
      <trkpt lat="40.689758" lon="-3.702231">
        <ele>902.599</ele>
        <time>2015-02-15T09:22:50Z</time>
      </trkpt>
      <trkpt lat="40.689726" lon="-3.702275">
        <ele>903.178</ele>
        <time>2015-02-15T09:22:53Z</time>
      </trkpt>
      <trkpt lat="40.689700" lon="-3.702330">
        <ele>903.712</ele>
        <time>2015-02-15T09:22:56Z</time>
      </trkpt>
      <trkpt lat="40.689688" lon="-3.702373">
        <ele>904.191</ele>
        <time>2015-02-15T09:22:58Z</time>
      </trkpt>
      <trkpt lat="40.689678" lon="-3.702415">
        <ele>904.597</ele>
        <time>2015-02-15T09:23:00Z</time>
      </trkpt>
      <trkpt lat="40.689671" lon="-3.702457">
        <ele>904.818</ele>
        <time>2015-02-15T09:23:02Z</time>
      </trkpt>
      <trkpt lat="40.689654" lon="-3.702521">
        <ele>905.383</ele>
        <time>2015-02-15T09:23:05Z</time>
      </trkpt>
      <trkpt lat="40.689639" lon="-3.702578">
        <ele>905.825</ele>
        <time>2015-02-15T09:23:08Z</time>
      </trkpt>
      <trkpt lat="40.689638" lon="-3.702637">
        <ele>906.217</ele>
        <time>2015-02-15T09:23:11Z</time>
      </trkpt>
      <trkpt lat="40.689630" lon="-3.702709">
        <ele>906.707</ele>
        <time>2015-02-15T09:23:14Z</time>
      </trkpt>
      <trkpt lat="40.689632" lon="-3.702751">
        <ele>907.176</ele>
        <time>2015-02-15T09:23:16Z</time>
      </trkpt>
      <trkpt lat="40.689638" lon="-3.702776">
        <ele>907.386</ele>
        <time>2015-02-15T09:23:17Z</time>
      </trkpt>
      <trkpt lat="40.689628" lon="-3.702818">
        <ele>907.725</ele>
        <time>2015-02-15T09:23:19Z</time>
      </trkpt>
      <trkpt lat="40.689623" lon="-3.702863">
        <ele>908.079</ele>
        <time>2015-02-15T09:23:21Z</time>
      </trkpt>
      <trkpt lat="40.689622" lon="-3.702885">
        <ele>908.278</ele>
        <time>2015-02-15T09:23:23Z</time>
      </trkpt>
      <trkpt lat="40.689627" lon="-3.702935">
        <ele>908.514</ele>
        <time>2015-02-15T09:23:24Z</time>
      </trkpt>
      <trkpt lat="40.689630" lon="-3.702976">
        <ele>908.755</ele>
        <time>2015-02-15T09:23:27Z</time>
      </trkpt>
      <trkpt lat="40.689634" lon="-3.703056">
        <ele>909.042</ele>
        <time>2015-02-15T09:23:30Z</time>
      </trkpt>
      <trkpt lat="40.689650" lon="-3.703146">
        <ele>909.422</ele>
        <time>2015-02-15T09:23:34Z</time>
      </trkpt>
      <trkpt lat="40.689659" lon="-3.703172">
        <ele>909.514</ele>
        <time>2015-02-15T09:23:35Z</time>
      </trkpt>
      <trkpt lat="40.689672" lon="-3.703215">
        <ele>909.807</ele>
        <time>2015-02-15T09:23:37Z</time>
      </trkpt>
      <trkpt lat="40.689701" lon="-3.703257">
        <ele>910.082</ele>
        <time>2015-02-15T09:23:38Z</time>
      </trkpt>
      <trkpt lat="40.689726" lon="-3.703302">
        <ele>910.332</ele>
        <time>2015-02-15T09:23:40Z</time>
      </trkpt>
      <trkpt lat="40.689735" lon="-3.703330">
        <ele>910.551</ele>
        <time>2015-02-15T09:23:41Z</time>
      </trkpt>
      <trkpt lat="40.689770" lon="-3.703406">
        <ele>910.985</ele>
        <time>2015-02-15T09:23:44Z</time>
      </trkpt>
      <trkpt lat="40.689799" lon="-3.703493">
        <ele>911.354</ele>
        <time>2015-02-15T09:23:47Z</time>
      </trkpt>
      <trkpt lat="40.689817" lon="-3.703575">
        <ele>911.730</ele>
        <time>2015-02-15T09:23:50Z</time>
      </trkpt>
      <trkpt lat="40.689842" lon="-3.703660">
        <ele>912.081</ele>
        <time>2015-02-15T09:23:53Z</time>
      </trkpt>
      <trkpt lat="40.689867" lon="-3.703710">
        <ele>912.299</ele>
        <time>2015-02-15T09:23:55Z</time>
      </trkpt>
      <trkpt lat="40.689857" lon="-3.703754">
        <ele>912.407</ele>
        <time>2015-02-15T09:23:56Z</time>
      </trkpt>
      <trkpt lat="40.689863" lon="-3.703783">
        <ele>912.527</ele>
        <time>2015-02-15T09:23:57Z</time>
      </trkpt>
      <trkpt lat="40.689867" lon="-3.703811">
        <ele>912.607</ele>
        <time>2015-02-15T09:23:58Z</time>
      </trkpt>
      <trkpt lat="40.689876" lon="-3.703842">
        <ele>912.747</ele>
        <time>2015-02-15T09:23:59Z</time>
      </trkpt>
      <trkpt lat="40.689885" lon="-3.703933">
        <ele>913.267</ele>
        <time>2015-02-15T09:24:02Z</time>
      </trkpt>
      <trkpt lat="40.689900" lon="-3.704035">
        <ele>913.636</ele>
        <time>2015-02-15T09:24:05Z</time>
      </trkpt>
      <trkpt lat="40.689912" lon="-3.704114">
        <ele>914.040</ele>
        <time>2015-02-15T09:24:08Z</time>
      </trkpt>
      <trkpt lat="40.689921" lon="-3.704172">
        <ele>914.319</ele>
        <time>2015-02-15T09:24:10Z</time>
      </trkpt>
      <trkpt lat="40.689932" lon="-3.704270">
        <ele>914.665</ele>
        <time>2015-02-15T09:24:13Z</time>
      </trkpt>
      <trkpt lat="40.689929" lon="-3.704300">
        <ele>914.796</ele>
        <time>2015-02-15T09:24:14Z</time>
      </trkpt>
      <trkpt lat="40.689938" lon="-3.704364">
        <ele>914.954</ele>
        <time>2015-02-15T09:24:16Z</time>
      </trkpt>
      <trkpt lat="40.689941" lon="-3.704393">
        <ele>914.956</ele>
        <time>2015-02-15T09:24:17Z</time>
      </trkpt>
      <trkpt lat="40.689943" lon="-3.704415">
        <ele>915.011</ele>
        <time>2015-02-15T09:24:18Z</time>
      </trkpt>
      <trkpt lat="40.689940" lon="-3.704507">
        <ele>915.207</ele>
        <time>2015-02-15T09:24:21Z</time>
      </trkpt>
      <trkpt lat="40.689941" lon="-3.704542">
        <ele>915.353</ele>
        <time>2015-02-15T09:24:22Z</time>
      </trkpt>
      <trkpt lat="40.689955" lon="-3.704602">
        <ele>915.433</ele>
        <time>2015-02-15T09:24:24Z</time>
      </trkpt>
      <trkpt lat="40.689964" lon="-3.704640">
        <ele>915.572</ele>
        <time>2015-02-15T09:24:25Z</time>
      </trkpt>
      <trkpt lat="40.689960" lon="-3.704679">
        <ele>915.666</ele>
        <time>2015-02-15T09:24:26Z</time>
      </trkpt>
      <trkpt lat="40.689955" lon="-3.704697">
        <ele>915.725</ele>
        <time>2015-02-15T09:24:27Z</time>
      </trkpt>
      <trkpt lat="40.689985" lon="-3.704793">
        <ele>916.021</ele>
        <time>2015-02-15T09:24:30Z</time>
      </trkpt>
      <trkpt lat="40.689999" lon="-3.704891">
        <ele>916.332</ele>
        <time>2015-02-15T09:24:33Z</time>
      </trkpt>
      <trkpt lat="40.690012" lon="-3.704976">
        <ele>916.576</ele>
        <time>2015-02-15T09:24:36Z</time>
      </trkpt>
      <trkpt lat="40.690015" lon="-3.705037">
        <ele>916.690</ele>
        <time>2015-02-15T09:24:38Z</time>
      </trkpt>
      <trkpt lat="40.690014" lon="-3.705102">
        <ele>916.719</ele>
        <time>2015-02-15T09:24:40Z</time>
      </trkpt>
      <trkpt lat="40.690024" lon="-3.705137">
        <ele>916.807</ele>
        <time>2015-02-15T09:24:42Z</time>
      </trkpt>
      <trkpt lat="40.690018" lon="-3.705209">
        <ele>916.945</ele>
        <time>2015-02-15T09:24:43Z</time>
      </trkpt>
      <trkpt lat="40.690011" lon="-3.705251">
        <ele>917.015</ele>
        <time>2015-02-15T09:24:44Z</time>
      </trkpt>
      <trkpt lat="40.690016" lon="-3.705284">
        <ele>917.144</ele>
        <time>2015-02-15T09:24:45Z</time>
      </trkpt>
      <trkpt lat="40.690021" lon="-3.705308">
        <ele>917.148</ele>
        <time>2015-02-15T09:24:46Z</time>
      </trkpt>
      <trkpt lat="40.690023" lon="-3.705335">
        <ele>917.257</ele>
        <time>2015-02-15T09:24:48Z</time>
      </trkpt>
      <trkpt lat="40.690033" lon="-3.705357">
        <ele>917.233</ele>
        <time>2015-02-15T09:24:49Z</time>
      </trkpt>
      <trkpt lat="40.690050" lon="-3.705445">
        <ele>917.414</ele>
        <time>2015-02-15T09:24:52Z</time>
      </trkpt>
      <trkpt lat="40.690069" lon="-3.705542">
        <ele>917.582</ele>
        <time>2015-02-15T09:24:55Z</time>
      </trkpt>
      <trkpt lat="40.690064" lon="-3.705582">
        <ele>917.643</ele>
        <time>2015-02-15T09:24:56Z</time>
      </trkpt>
      <trkpt lat="40.690075" lon="-3.705617">
        <ele>917.617</ele>
        <time>2015-02-15T09:24:57Z</time>
      </trkpt>
      <trkpt lat="40.690069" lon="-3.705719">
        <ele>917.807</ele>
        <time>2015-02-15T09:25:00Z</time>
      </trkpt>
      <trkpt lat="40.690076" lon="-3.705786">
        <ele>917.936</ele>
        <time>2015-02-15T09:25:02Z</time>
      </trkpt>
      <trkpt lat="40.690081" lon="-3.705825">
        <ele>918.016</ele>
        <time>2015-02-15T09:25:03Z</time>
      </trkpt>
      <trkpt lat="40.690100" lon="-3.705968">
        <ele>918.195</ele>
        <time>2015-02-15T09:25:06Z</time>
      </trkpt>
      <trkpt lat="40.690114" lon="-3.706004">
        <ele>918.289</ele>
        <time>2015-02-15T09:25:07Z</time>
      </trkpt>
      <trkpt lat="40.690118" lon="-3.706067">
        <ele>918.448</ele>
        <time>2015-02-15T09:25:09Z</time>
      </trkpt>
      <trkpt lat="40.690126" lon="-3.706104">
        <ele>918.564</ele>
        <time>2015-02-15T09:25:10Z</time>
      </trkpt>
      <trkpt lat="40.690121" lon="-3.706134">
        <ele>918.675</ele>
        <time>2015-02-15T09:25:11Z</time>
      </trkpt>
      <trkpt lat="40.690125" lon="-3.706165">
        <ele>918.636</ele>
        <time>2015-02-15T09:25:12Z</time>
      </trkpt>
      <trkpt lat="40.690141" lon="-3.706234">
        <ele>918.817</ele>
        <time>2015-02-15T09:25:14Z</time>
      </trkpt>
      <trkpt lat="40.690151" lon="-3.706318">
        <ele>919.018</ele>
        <time>2015-02-15T09:25:17Z</time>
      </trkpt>
      <trkpt lat="40.690136" lon="-3.706350">
        <ele>919.107</ele>
        <time>2015-02-15T09:25:18Z</time>
      </trkpt>
      <trkpt lat="40.690126" lon="-3.706384">
        <ele>919.271</ele>
        <time>2015-02-15T09:25:19Z</time>
      </trkpt>
      <trkpt lat="40.690120" lon="-3.706416">
        <ele>919.311</ele>
        <time>2015-02-15T09:25:20Z</time>
      </trkpt>
      <trkpt lat="40.690115" lon="-3.706452">
        <ele>919.440</ele>
        <time>2015-02-15T09:25:21Z</time>
      </trkpt>
      <trkpt lat="40.690117" lon="-3.706483">
        <ele>919.544</ele>
        <time>2015-02-15T09:25:22Z</time>
      </trkpt>
      <trkpt lat="40.690108" lon="-3.706570">
        <ele>919.753</ele>
        <time>2015-02-15T09:25:25Z</time>
      </trkpt>
      <trkpt lat="40.690100" lon="-3.706659">
        <ele>919.999</ele>
        <time>2015-02-15T09:25:28Z</time>
      </trkpt>
      <trkpt lat="40.690087" lon="-3.706750">
        <ele>920.180</ele>
        <time>2015-02-15T09:25:31Z</time>
      </trkpt>
      <trkpt lat="40.690075" lon="-3.706806">
        <ele>920.253</ele>
        <time>2015-02-15T09:25:33Z</time>
      </trkpt>
      <trkpt lat="40.690065" lon="-3.706836">
        <ele>920.204</ele>
        <time>2015-02-15T09:25:34Z</time>
      </trkpt>
      <trkpt lat="40.690041" lon="-3.706913">
        <ele>920.514</ele>
        <time>2015-02-15T09:25:37Z</time>
      </trkpt>
      <trkpt lat="40.690032" lon="-3.706939">
        <ele>920.607</ele>
        <time>2015-02-15T09:25:38Z</time>
      </trkpt>
      <trkpt lat="40.690016" lon="-3.706991">
        <ele>920.833</ele>
        <time>2015-02-15T09:25:40Z</time>
      </trkpt>
      <trkpt lat="40.689981" lon="-3.707091">
        <ele>921.033</ele>
        <time>2015-02-15T09:25:43Z</time>
      </trkpt>
      <trkpt lat="40.689953" lon="-3.707164">
        <ele>921.182</ele>
        <time>2015-02-15T09:25:45Z</time>
      </trkpt>
      <trkpt lat="40.689917" lon="-3.707243">
        <ele>921.336</ele>
        <time>2015-02-15T09:25:47Z</time>
      </trkpt>
      <trkpt lat="40.689873" lon="-3.707322">
        <ele>921.435</ele>
        <time>2015-02-15T09:25:49Z</time>
      </trkpt>
      <trkpt lat="40.689818" lon="-3.707410">
        <ele>921.581</ele>
        <time>2015-02-15T09:25:51Z</time>
      </trkpt>
      <trkpt lat="40.689732" lon="-3.707537">
        <ele>921.652</ele>
        <time>2015-02-15T09:25:54Z</time>
      </trkpt>
      <trkpt lat="40.689639" lon="-3.707664">
        <ele>921.711</ele>
        <time>2015-02-15T09:25:57Z</time>
      </trkpt>
      <trkpt lat="40.689606" lon="-3.707707">
        <ele>921.721</ele>
        <time>2015-02-15T09:25:58Z</time>
      </trkpt>
      <trkpt lat="40.689543" lon="-3.707802">
        <ele>921.703</ele>
        <time>2015-02-15T09:26:00Z</time>
      </trkpt>
      <trkpt lat="40.689450" lon="-3.707953">
        <ele>921.607</ele>
        <time>2015-02-15T09:26:03Z</time>
      </trkpt>
      <trkpt lat="40.689385" lon="-3.708066">
        <ele>921.569</ele>
        <time>2015-02-15T09:26:05Z</time>
      </trkpt>
      <trkpt lat="40.689310" lon="-3.708190">
        <ele>921.429</ele>
        <time>2015-02-15T09:26:07Z</time>
      </trkpt>
      <trkpt lat="40.689231" lon="-3.708319">
        <ele>921.298</ele>
        <time>2015-02-15T09:26:09Z</time>
      </trkpt>
      <trkpt lat="40.689151" lon="-3.708442">
        <ele>921.062</ele>
        <time>2015-02-15T09:26:12Z</time>
      </trkpt>
      <trkpt lat="40.689114" lon="-3.708495">
        <ele>920.911</ele>
        <time>2015-02-15T09:26:13Z</time>
      </trkpt>
      <trkpt lat="40.689085" lon="-3.708551">
        <ele>920.817</ele>
        <time>2015-02-15T09:26:14Z</time>
      </trkpt>
      <trkpt lat="40.689028" lon="-3.708661">
        <ele>920.678</ele>
        <time>2015-02-15T09:26:16Z</time>
      </trkpt>
      <trkpt lat="40.688973" lon="-3.708750">
        <ele>920.447</ele>
        <time>2015-02-15T09:26:18Z</time>
      </trkpt>
      <trkpt lat="40.688953" lon="-3.708792">
        <ele>920.329</ele>
        <time>2015-02-15T09:26:19Z</time>
      </trkpt>
      <trkpt lat="40.688936" lon="-3.708828">
        <ele>920.221</ele>
        <time>2015-02-15T09:26:20Z</time>
      </trkpt>
      <trkpt lat="40.688921" lon="-3.708868">
        <ele>920.107</ele>
        <time>2015-02-15T09:26:21Z</time>
      </trkpt>
      <trkpt lat="40.688909" lon="-3.708907">
        <ele>920.092</ele>
        <time>2015-02-15T09:26:22Z</time>
      </trkpt>
      <trkpt lat="40.688901" lon="-3.708942">
        <ele>919.942</ele>
        <time>2015-02-15T09:26:23Z</time>
      </trkpt>
      <trkpt lat="40.688880" lon="-3.709033">
        <ele>919.731</ele>
        <time>2015-02-15T09:26:26Z</time>
      </trkpt>
      <trkpt lat="40.688865" lon="-3.709097">
        <ele>919.555</ele>
        <time>2015-02-15T09:26:28Z</time>
      </trkpt>
      <trkpt lat="40.688858" lon="-3.709172">
        <ele>919.554</ele>
        <time>2015-02-15T09:26:30Z</time>
      </trkpt>
      <trkpt lat="40.688847" lon="-3.709240">
        <ele>919.430</ele>
        <time>2015-02-15T09:26:32Z</time>
      </trkpt>
      <trkpt lat="40.688829" lon="-3.709336">
        <ele>919.331</ele>
        <time>2015-02-15T09:26:34Z</time>
      </trkpt>
      <trkpt lat="40.688812" lon="-3.709437">
        <ele>919.152</ele>
        <time>2015-02-15T09:26:37Z</time>
      </trkpt>
      <trkpt lat="40.688793" lon="-3.709537">
        <ele>918.953</ele>
        <time>2015-02-15T09:26:40Z</time>
      </trkpt>
      <trkpt lat="40.688770" lon="-3.709637">
        <ele>918.708</ele>
        <time>2015-02-15T09:26:43Z</time>
      </trkpt>
      <trkpt lat="40.688745" lon="-3.709737">
        <ele>918.607</ele>
        <time>2015-02-15T09:26:46Z</time>
      </trkpt>
      <trkpt lat="40.688727" lon="-3.709789">
        <ele>918.573</ele>
        <time>2015-02-15T09:26:48Z</time>
      </trkpt>
      <trkpt lat="40.688709" lon="-3.709821">
        <ele>918.423</ele>
        <time>2015-02-15T09:26:49Z</time>
      </trkpt>
      <trkpt lat="40.688682" lon="-3.709912">
        <ele>918.342</ele>
        <time>2015-02-15T09:26:52Z</time>
      </trkpt>
      <trkpt lat="40.688680" lon="-3.709942">
        <ele>918.356</ele>
        <time>2015-02-15T09:26:53Z</time>
      </trkpt>
      <trkpt lat="40.688653" lon="-3.710031">
        <ele>918.345</ele>
        <time>2015-02-15T09:26:56Z</time>
      </trkpt>
      <trkpt lat="40.688629" lon="-3.710093">
        <ele>918.391</ele>
        <time>2015-02-15T09:26:58Z</time>
      </trkpt>
      <trkpt lat="40.688612" lon="-3.710157">
        <ele>918.352</ele>
        <time>2015-02-15T09:27:00Z</time>
      </trkpt>
      <trkpt lat="40.688606" lon="-3.710195">
        <ele>918.319</ele>
        <time>2015-02-15T09:27:01Z</time>
      </trkpt>
      <trkpt lat="40.688604" lon="-3.710230">
        <ele>918.309</ele>
        <time>2015-02-15T09:27:02Z</time>
      </trkpt>
      <trkpt lat="40.688600" lon="-3.710248">
        <ele>918.319</ele>
        <time>2015-02-15T09:27:03Z</time>
      </trkpt>
      <trkpt lat="40.688577" lon="-3.710328">
        <ele>918.407</ele>
        <time>2015-02-15T09:27:06Z</time>
      </trkpt>
      <trkpt lat="40.688554" lon="-3.710424">
        <ele>918.539</ele>
        <time>2015-02-15T09:27:09Z</time>
      </trkpt>
      <trkpt lat="40.688529" lon="-3.710511">
        <ele>918.669</ele>
        <time>2015-02-15T09:27:12Z</time>
      </trkpt>
      <trkpt lat="40.688524" lon="-3.710542">
        <ele>918.748</ele>
        <time>2015-02-15T09:27:13Z</time>
      </trkpt>
      <trkpt lat="40.688522" lon="-3.710599">
        <ele>918.882</ele>
        <time>2015-02-15T09:27:15Z</time>
      </trkpt>
      <trkpt lat="40.688525" lon="-3.710664">
        <ele>918.961</ele>
        <time>2015-02-15T09:27:17Z</time>
      </trkpt>
      <trkpt lat="40.688525" lon="-3.710757">
        <ele>919.167</ele>
        <time>2015-02-15T09:27:20Z</time>
      </trkpt>
      <trkpt lat="40.688532" lon="-3.710820">
        <ele>919.248</ele>
        <time>2015-02-15T09:27:22Z</time>
      </trkpt>
      <trkpt lat="40.688549" lon="-3.710885">
        <ele>919.446</ele>
        <time>2015-02-15T09:27:24Z</time>
      </trkpt>
      <trkpt lat="40.688562" lon="-3.710914">
        <ele>919.588</ele>
        <time>2015-02-15T09:27:25Z</time>
      </trkpt>
      <trkpt lat="40.688589" lon="-3.710895">
        <ele>919.616</ele>
        <time>2015-02-15T09:27:26Z</time>
      </trkpt>
      <trkpt lat="40.688611" lon="-3.710887">
        <ele>919.707</ele>
        <time>2015-02-15T09:27:27Z</time>
      </trkpt>
      <trkpt lat="40.688629" lon="-3.710873">
        <ele>919.812</ele>
        <time>2015-02-15T09:27:28Z</time>
      </trkpt>
      <trkpt lat="40.688683" lon="-3.710836">
        <ele>920.142</ele>
        <time>2015-02-15T09:27:31Z</time>
      </trkpt>
      <trkpt lat="40.688741" lon="-3.710810">
        <ele>920.571</ele>
        <time>2015-02-15T09:27:34Z</time>
      </trkpt>
      <trkpt lat="40.688798" lon="-3.710789">
        <ele>920.975</ele>
        <time>2015-02-15T09:27:38Z</time>
      </trkpt>
      <trkpt lat="40.688863" lon="-3.710779">
        <ele>921.374</ele>
        <time>2015-02-15T09:27:41Z</time>
      </trkpt>
      <trkpt lat="40.688938" lon="-3.710765">
        <ele>921.880</ele>
        <time>2015-02-15T09:27:45Z</time>
      </trkpt>
      <trkpt lat="40.688960" lon="-3.710764">
        <ele>922.021</ele>
        <time>2015-02-15T09:27:46Z</time>
      </trkpt>
      <trkpt lat="40.689024" lon="-3.710751">
        <ele>922.553</ele>
        <time>2015-02-15T09:27:49Z</time>
      </trkpt>
      <trkpt lat="40.689084" lon="-3.710747">
        <ele>923.004</ele>
        <time>2015-02-15T09:27:52Z</time>
      </trkpt>
      <trkpt lat="40.689147" lon="-3.710743">
        <ele>923.414</ele>
        <time>2015-02-15T09:27:55Z</time>
      </trkpt>
      <trkpt lat="40.689204" lon="-3.710748">
        <ele>923.907</ele>
        <time>2015-02-15T09:27:58Z</time>
      </trkpt>
      <trkpt lat="40.689225" lon="-3.710743">
        <ele>924.153</ele>
        <time>2015-02-15T09:27:59Z</time>
      </trkpt>
      <trkpt lat="40.689267" lon="-3.710731">
        <ele>924.523</ele>
        <time>2015-02-15T09:28:01Z</time>
      </trkpt>
      <trkpt lat="40.689323" lon="-3.710714">
        <ele>925.142</ele>
        <time>2015-02-15T09:28:04Z</time>
      </trkpt>
      <trkpt lat="40.689380" lon="-3.710689">
        <ele>925.556</ele>
        <time>2015-02-15T09:28:06Z</time>
      </trkpt>
      <trkpt lat="40.689432" lon="-3.710668">
        <ele>925.855</ele>
        <time>2015-02-15T09:28:08Z</time>
      </trkpt>
      <trkpt lat="40.689491" lon="-3.710638">
        <ele>926.121</ele>
        <time>2015-02-15T09:28:10Z</time>
      </trkpt>
      <trkpt lat="40.689587" lon="-3.710594">
        <ele>926.672</ele>
        <time>2015-02-15T09:28:13Z</time>
      </trkpt>
      <trkpt lat="40.689624" lon="-3.710579">
        <ele>926.749</ele>
        <time>2015-02-15T09:28:14Z</time>
      </trkpt>
      <trkpt lat="40.689665" lon="-3.710564">
        <ele>926.802</ele>
        <time>2015-02-15T09:28:15Z</time>
      </trkpt>
      <trkpt lat="40.689794" lon="-3.710528">
        <ele>927.122</ele>
        <time>2015-02-15T09:28:18Z</time>
      </trkpt>
      <trkpt lat="40.689882" lon="-3.710502">
        <ele>927.307</ele>
        <time>2015-02-15T09:28:20Z</time>
      </trkpt>
      <trkpt lat="40.689975" lon="-3.710473">
        <ele>927.412</ele>
        <time>2015-02-15T09:28:22Z</time>
      </trkpt>
      <trkpt lat="40.690110" lon="-3.710453">
        <ele>927.412</ele>
        <time>2015-02-15T09:28:25Z</time>
      </trkpt>
      <trkpt lat="40.690202" lon="-3.710439">
        <ele>927.361</ele>
        <time>2015-02-15T09:28:27Z</time>
      </trkpt>
      <trkpt lat="40.690329" lon="-3.710425">
        <ele>927.135</ele>
        <time>2015-02-15T09:28:30Z</time>
      </trkpt>
      <trkpt lat="40.690413" lon="-3.710417">
        <ele>927.074</ele>
        <time>2015-02-15T09:28:32Z</time>
      </trkpt>
      <trkpt lat="40.690462" lon="-3.710413">
        <ele>926.910</ele>
        <time>2015-02-15T09:28:33Z</time>
      </trkpt>
      <trkpt lat="40.690512" lon="-3.710415">
        <ele>926.891</ele>
        <time>2015-02-15T09:28:34Z</time>
      </trkpt>
      <trkpt lat="40.690560" lon="-3.710413">
        <ele>926.788</ele>
        <time>2015-02-15T09:28:35Z</time>
      </trkpt>
      <trkpt lat="40.690685" lon="-3.710403">
        <ele>926.224</ele>
        <time>2015-02-15T09:28:38Z</time>
      </trkpt>
      <trkpt lat="40.690792" lon="-3.710400">
        <ele>925.826</ele>
        <time>2015-02-15T09:28:41Z</time>
      </trkpt>
      <trkpt lat="40.690848" lon="-3.710400">
        <ele>925.507</ele>
        <time>2015-02-15T09:28:43Z</time>
      </trkpt>
      <trkpt lat="40.690873" lon="-3.710413">
        <ele>925.366</ele>
        <time>2015-02-15T09:28:44Z</time>
      </trkpt>
      <trkpt lat="40.690887" lon="-3.710420">
        <ele>925.116</ele>
        <time>2015-02-15T09:28:45Z</time>
      </trkpt>
      <trkpt lat="40.690899" lon="-3.710433">
        <ele>925.085</ele>
        <time>2015-02-15T09:28:46Z</time>
      </trkpt>
      <trkpt lat="40.690957" lon="-3.710451">
        <ele>924.629</ele>
        <time>2015-02-15T09:28:48Z</time>
      </trkpt>
      <trkpt lat="40.690971" lon="-3.710454">
        <ele>924.598</ele>
        <time>2015-02-15T09:28:49Z</time>
      </trkpt>
      <trkpt lat="40.690998" lon="-3.710469">
        <ele>924.364</ele>
        <time>2015-02-15T09:28:50Z</time>
      </trkpt>
      <trkpt lat="40.691064" lon="-3.710502">
        <ele>923.975</ele>
        <time>2015-02-15T09:28:53Z</time>
      </trkpt>
      <trkpt lat="40.691136" lon="-3.710541">
        <ele>923.657</ele>
        <time>2015-02-15T09:28:57Z</time>
      </trkpt>
      <trkpt lat="40.691191" lon="-3.710579">
        <ele>923.200</ele>
        <time>2015-02-15T09:28:59Z</time>
      </trkpt>
      <trkpt lat="40.691252" lon="-3.710603">
        <ele>922.720</ele>
        <time>2015-02-15T09:29:03Z</time>
      </trkpt>
      <trkpt lat="40.691283" lon="-3.710619">
        <ele>922.507</ele>
        <time>2015-02-15T09:29:05Z</time>
      </trkpt>
      <trkpt lat="40.691341" lon="-3.710630">
        <ele>922.343</ele>
        <time>2015-02-15T09:29:08Z</time>
      </trkpt>
      <trkpt lat="40.691375" lon="-3.710640">
        <ele>922.263</ele>
        <time>2015-02-15T09:29:10Z</time>
      </trkpt>
      <trkpt lat="40.691396" lon="-3.710640">
        <ele>922.282</ele>
        <time>2015-02-15T09:29:11Z</time>
      </trkpt>
      <trkpt lat="40.691418" lon="-3.710635">
        <ele>922.166</ele>
        <time>2015-02-15T09:29:12Z</time>
      </trkpt>
      <trkpt lat="40.691455" lon="-3.710626">
        <ele>922.235</ele>
        <time>2015-02-15T09:29:14Z</time>
      </trkpt>
      <trkpt lat="40.691520" lon="-3.710606">
        <ele>922.391</ele>
        <time>2015-02-15T09:29:17Z</time>
      </trkpt>
      <trkpt lat="40.691579" lon="-3.710588">
        <ele>922.542</ele>
        <time>2015-02-15T09:29:20Z</time>
      </trkpt>
      <trkpt lat="40.691668" lon="-3.710558">
        <ele>923.012</ele>
        <time>2015-02-15T09:29:24Z</time>
      </trkpt>
      <trkpt lat="40.691727" lon="-3.710534">
        <ele>923.532</ele>
        <time>2015-02-15T09:29:27Z</time>
      </trkpt>
      <trkpt lat="40.691801" lon="-3.710503">
        <ele>924.205</ele>
        <time>2015-02-15T09:29:31Z</time>
      </trkpt>
      <trkpt lat="40.691864" lon="-3.710470">
        <ele>924.907</ele>
        <time>2015-02-15T09:29:34Z</time>
      </trkpt>
      <trkpt lat="40.691901" lon="-3.710454">
        <ele>925.429</ele>
        <time>2015-02-15T09:29:36Z</time>
      </trkpt>
      <trkpt lat="40.691954" lon="-3.710426">
        <ele>926.319</ele>
        <time>2015-02-15T09:29:39Z</time>
      </trkpt>
      <trkpt lat="40.691985" lon="-3.710404">
        <ele>926.858</ele>
        <time>2015-02-15T09:29:41Z</time>
      </trkpt>
      <trkpt lat="40.692040" lon="-3.710373">
        <ele>927.742</ele>
        <time>2015-02-15T09:29:44Z</time>
      </trkpt>
      <trkpt lat="40.692094" lon="-3.710347">
        <ele>928.591</ele>
        <time>2015-02-15T09:29:47Z</time>
      </trkpt>
      <trkpt lat="40.692133" lon="-3.710339">
        <ele>929.167</ele>
        <time>2015-02-15T09:29:49Z</time>
      </trkpt>
      <trkpt lat="40.692182" lon="-3.710309">
        <ele>929.888</ele>
        <time>2015-02-15T09:29:52Z</time>
      </trkpt>
      <trkpt lat="40.692239" lon="-3.710281">
        <ele>930.578</ele>
        <time>2015-02-15T09:29:55Z</time>
      </trkpt>
      <trkpt lat="40.692278" lon="-3.710272">
        <ele>930.933</ele>
        <time>2015-02-15T09:29:57Z</time>
      </trkpt>
      <trkpt lat="40.692356" lon="-3.710248">
        <ele>931.826</ele>
        <time>2015-02-15T09:30:01Z</time>
      </trkpt>
      <trkpt lat="40.692365" lon="-3.710240">
        <ele>932.107</ele>
        <time>2015-02-15T09:30:02Z</time>
      </trkpt>
      <trkpt lat="40.692412" lon="-3.710221">
        <ele>932.725</ele>
        <time>2015-02-15T09:30:05Z</time>
      </trkpt>
      <trkpt lat="40.692463" lon="-3.710194">
        <ele>933.315</ele>
        <time>2015-02-15T09:30:08Z</time>
      </trkpt>
      <trkpt lat="40.692510" lon="-3.710169">
        <ele>933.954</ele>
        <time>2015-02-15T09:30:11Z</time>
      </trkpt>
      <trkpt lat="40.692559" lon="-3.710135">
        <ele>934.398</ele>
        <time>2015-02-15T09:30:14Z</time>
      </trkpt>
      <trkpt lat="40.692609" lon="-3.710109">
        <ele>934.757</ele>
        <time>2015-02-15T09:30:17Z</time>
      </trkpt>
      <trkpt lat="40.692644" lon="-3.710093">
        <ele>935.013</ele>
        <time>2015-02-15T09:30:19Z</time>
      </trkpt>
      <trkpt lat="40.692661" lon="-3.710082">
        <ele>935.134</ele>
        <time>2015-02-15T09:30:20Z</time>
      </trkpt>
      <trkpt lat="40.692713" lon="-3.710058">
        <ele>935.582</ele>
        <time>2015-02-15T09:30:23Z</time>
      </trkpt>
      <trkpt lat="40.692765" lon="-3.710033">
        <ele>935.843</ele>
        <time>2015-02-15T09:30:26Z</time>
      </trkpt>
      <trkpt lat="40.692822" lon="-3.709996">
        <ele>936.217</ele>
        <time>2015-02-15T09:30:30Z</time>
      </trkpt>
      <trkpt lat="40.692849" lon="-3.709971">
        <ele>936.407</ele>
        <time>2015-02-15T09:30:32Z</time>
      </trkpt>
      <trkpt lat="40.692902" lon="-3.709932">
        <ele>936.726</ele>
        <time>2015-02-15T09:30:35Z</time>
      </trkpt>
      <trkpt lat="40.692957" lon="-3.709893">
        <ele>937.096</ele>
        <time>2015-02-15T09:30:38Z</time>
      </trkpt>
      <trkpt lat="40.693011" lon="-3.709856">
        <ele>937.315</ele>
        <time>2015-02-15T09:30:41Z</time>
      </trkpt>
      <trkpt lat="40.693064" lon="-3.709827">
        <ele>937.629</ele>
        <time>2015-02-15T09:30:44Z</time>
      </trkpt>
      <trkpt lat="40.693113" lon="-3.709792">
        <ele>937.928</ele>
        <time>2015-02-15T09:30:47Z</time>
      </trkpt>
      <trkpt lat="40.693149" lon="-3.709776">
        <ele>938.174</ele>
        <time>2015-02-15T09:30:49Z</time>
      </trkpt>
      <trkpt lat="40.693186" lon="-3.709760">
        <ele>938.395</ele>
        <time>2015-02-15T09:30:51Z</time>
      </trkpt>
      <trkpt lat="40.693241" lon="-3.709731">
        <ele>938.728</ele>
        <time>2015-02-15T09:30:54Z</time>
      </trkpt>
      <trkpt lat="40.693283" lon="-3.709706">
        <ele>939.089</ele>
        <time>2015-02-15T09:30:56Z</time>
      </trkpt>
      <trkpt lat="40.693351" lon="-3.709651">
        <ele>939.417</ele>
        <time>2015-02-15T09:30:59Z</time>
      </trkpt>
      <trkpt lat="40.693400" lon="-3.709620">
        <ele>939.707</ele>
        <time>2015-02-15T09:31:02Z</time>
      </trkpt>
      <trkpt lat="40.693420" lon="-3.709605">
        <ele>939.870</ele>
        <time>2015-02-15T09:31:03Z</time>
      </trkpt>
      <trkpt lat="40.693440" lon="-3.709591">
        <ele>939.970</ele>
        <time>2015-02-15T09:31:04Z</time>
      </trkpt>
      <trkpt lat="40.693495" lon="-3.709550">
        <ele>940.249</ele>
        <time>2015-02-15T09:31:07Z</time>
      </trkpt>
      <trkpt lat="40.693528" lon="-3.709518">
        <ele>940.443</ele>
        <time>2015-02-15T09:31:09Z</time>
      </trkpt>
      <trkpt lat="40.693542" lon="-3.709500">
        <ele>940.562</ele>
        <time>2015-02-15T09:31:10Z</time>
      </trkpt>
      <trkpt lat="40.693579" lon="-3.709465">
        <ele>940.668</ele>
        <time>2015-02-15T09:31:12Z</time>
      </trkpt>
      <trkpt lat="40.693634" lon="-3.709410">
        <ele>940.989</ele>
        <time>2015-02-15T09:31:15Z</time>
      </trkpt>
      <trkpt lat="40.693684" lon="-3.709348">
        <ele>941.265</ele>
        <time>2015-02-15T09:31:18Z</time>
      </trkpt>
      <trkpt lat="40.693694" lon="-3.709323">
        <ele>941.368</ele>
        <time>2015-02-15T09:31:19Z</time>
      </trkpt>
      <trkpt lat="40.693716" lon="-3.709278">
        <ele>941.614</ele>
        <time>2015-02-15T09:31:21Z</time>
      </trkpt>
      <trkpt lat="40.693753" lon="-3.709212">
        <ele>941.907</ele>
        <time>2015-02-15T09:31:24Z</time>
      </trkpt>
      <trkpt lat="40.693772" lon="-3.709165">
        <ele>942.194</ele>
        <time>2015-02-15T09:31:26Z</time>
      </trkpt>
      <trkpt lat="40.693813" lon="-3.709078">
        <ele>942.574</ele>
        <time>2015-02-15T09:31:30Z</time>
      </trkpt>
      <trkpt lat="40.693838" lon="-3.709015">
        <ele>942.813</ele>
        <time>2015-02-15T09:31:33Z</time>
      </trkpt>
      <trkpt lat="40.693881" lon="-3.708921">
        <ele>943.077</ele>
        <time>2015-02-15T09:31:37Z</time>
      </trkpt>
      <trkpt lat="40.693917" lon="-3.708863">
        <ele>943.176</ele>
        <time>2015-02-15T09:31:39Z</time>
      </trkpt>
      <trkpt lat="40.693948" lon="-3.708791">
        <ele>943.232</ele>
        <time>2015-02-15T09:31:41Z</time>
      </trkpt>
      <trkpt lat="40.693989" lon="-3.708705">
        <ele>943.363</ele>
        <time>2015-02-15T09:31:43Z</time>
      </trkpt>
      <trkpt lat="40.693999" lon="-3.708659">
        <ele>943.348</ele>
        <time>2015-02-15T09:31:44Z</time>
      </trkpt>
      <trkpt lat="40.694013" lon="-3.708618">
        <ele>943.461</ele>
        <time>2015-02-15T09:31:45Z</time>
      </trkpt>
      <trkpt lat="40.694034" lon="-3.708570">
        <ele>943.417</ele>
        <time>2015-02-15T09:31:46Z</time>
      </trkpt>
      <trkpt lat="40.694122" lon="-3.708369">
        <ele>943.607</ele>
        <time>2015-02-15T09:31:50Z</time>
      </trkpt>
      <trkpt lat="40.694152" lon="-3.708312">
        <ele>943.632</ele>
        <time>2015-02-15T09:31:51Z</time>
      </trkpt>
      <trkpt lat="40.694196" lon="-3.708218">
        <ele>943.652</ele>
        <time>2015-02-15T09:31:53Z</time>
      </trkpt>
      <trkpt lat="40.694247" lon="-3.708118">
        <ele>943.531</ele>
        <time>2015-02-15T09:31:55Z</time>
      </trkpt>
      <trkpt lat="40.694300" lon="-3.708006">
        <ele>943.555</ele>
        <time>2015-02-15T09:31:57Z</time>
      </trkpt>
      <trkpt lat="40.694318" lon="-3.707957">
        <ele>943.514</ele>
        <time>2015-02-15T09:31:58Z</time>
      </trkpt>
      <trkpt lat="40.694395" lon="-3.707825">
        <ele>943.470</ele>
        <time>2015-02-15T09:32:01Z</time>
      </trkpt>
      <trkpt lat="40.694430" lon="-3.707783">
        <ele>943.431</ele>
        <time>2015-02-15T09:32:02Z</time>
      </trkpt>
      <trkpt lat="40.694534" lon="-3.707650">
        <ele>943.259</ele>
        <time>2015-02-15T09:32:05Z</time>
      </trkpt>
      <trkpt lat="40.694563" lon="-3.707603">
        <ele>943.203</ele>
        <time>2015-02-15T09:32:06Z</time>
      </trkpt>
      <trkpt lat="40.694595" lon="-3.707563">
        <ele>943.123</ele>
        <time>2015-02-15T09:32:07Z</time>
      </trkpt>
      <trkpt lat="40.694691" lon="-3.707442">
        <ele>942.807</ele>
        <time>2015-02-15T09:32:10Z</time>
      </trkpt>
      <trkpt lat="40.694789" lon="-3.707327">
        <ele>942.623</ele>
        <time>2015-02-15T09:32:14Z</time>
      </trkpt>
      <trkpt lat="40.694819" lon="-3.707298">
        <ele>942.543</ele>
        <time>2015-02-15T09:32:15Z</time>
      </trkpt>
      <trkpt lat="40.694856" lon="-3.707274">
        <ele>942.442</ele>
        <time>2015-02-15T09:32:16Z</time>
      </trkpt>
      <trkpt lat="40.694926" lon="-3.707216">
        <ele>942.136</ele>
        <time>2015-02-15T09:32:18Z</time>
      </trkpt>
      <trkpt lat="40.694999" lon="-3.707165">
        <ele>941.825</ele>
        <time>2015-02-15T09:32:20Z</time>
      </trkpt>
      <trkpt lat="40.695069" lon="-3.707096">
        <ele>941.531</ele>
        <time>2015-02-15T09:32:22Z</time>
      </trkpt>
      <trkpt lat="40.695099" lon="-3.707057">
        <ele>941.362</ele>
        <time>2015-02-15T09:32:23Z</time>
      </trkpt>
      <trkpt lat="40.695125" lon="-3.707014">
        <ele>941.197</ele>
        <time>2015-02-15T09:32:24Z</time>
      </trkpt>
      <trkpt lat="40.695148" lon="-3.706969">
        <ele>940.923</ele>
        <time>2015-02-15T09:32:25Z</time>
      </trkpt>
      <trkpt lat="40.695156" lon="-3.706923">
        <ele>940.725</ele>
        <time>2015-02-15T09:32:26Z</time>
      </trkpt>
      <trkpt lat="40.695230" lon="-3.706717">
        <ele>940.107</ele>
        <time>2015-02-15T09:32:29Z</time>
      </trkpt>
      <trkpt lat="40.695282" lon="-3.706554">
        <ele>939.477</ele>
        <time>2015-02-15T09:32:32Z</time>
      </trkpt>
      <trkpt lat="40.695318" lon="-3.706438">
        <ele>938.977</ele>
        <time>2015-02-15T09:32:34Z</time>
      </trkpt>
      <trkpt lat="40.695349" lon="-3.706305">
        <ele>938.526</ele>
        <time>2015-02-15T09:32:36Z</time>
      </trkpt>
      <trkpt lat="40.695370" lon="-3.706240">
        <ele>938.240</ele>
        <time>2015-02-15T09:32:37Z</time>
      </trkpt>
      <trkpt lat="40.695387" lon="-3.706162">
        <ele>938.019</ele>
        <time>2015-02-15T09:32:38Z</time>
      </trkpt>
      <trkpt lat="40.695408" lon="-3.706095">
        <ele>937.765</ele>
        <time>2015-02-15T09:32:39Z</time>
      </trkpt>
      <trkpt lat="40.695425" lon="-3.706023">
        <ele>937.586</ele>
        <time>2015-02-15T09:32:40Z</time>
      </trkpt>
      <trkpt lat="40.695466" lon="-3.705883">
        <ele>937.017</ele>
        <time>2015-02-15T09:32:42Z</time>
      </trkpt>
      <trkpt lat="40.695505" lon="-3.705745">
        <ele>936.487</ele>
        <time>2015-02-15T09:32:44Z</time>
      </trkpt>
      <trkpt lat="40.695530" lon="-3.705681">
        <ele>936.115</ele>
        <time>2015-02-15T09:32:45Z</time>
      </trkpt>
      <trkpt lat="40.695581" lon="-3.705632">
        <ele>935.807</ele>
        <time>2015-02-15T09:32:46Z</time>
      </trkpt>
      <trkpt lat="40.695716" lon="-3.705498">
        <ele>934.829</ele>
        <time>2015-02-15T09:32:49Z</time>
      </trkpt>
      <trkpt lat="40.695803" lon="-3.705427">
        <ele>934.069</ele>
        <time>2015-02-15T09:32:51Z</time>
      </trkpt>
      <trkpt lat="40.695890" lon="-3.705373">
        <ele>933.448</ele>
        <time>2015-02-15T09:32:53Z</time>
      </trkpt>
      <trkpt lat="40.695927" lon="-3.705360">
        <ele>933.162</ele>
        <time>2015-02-15T09:32:54Z</time>
      </trkpt>
      <trkpt lat="40.695961" lon="-3.705349">
        <ele>932.781</ele>
        <time>2015-02-15T09:32:55Z</time>
      </trkpt>
      <trkpt lat="40.695991" lon="-3.705346">
        <ele>932.477</ele>
        <time>2015-02-15T09:32:56Z</time>
      </trkpt>
      <trkpt lat="40.696021" lon="-3.705342">
        <ele>932.118</ele>
        <time>2015-02-15T09:32:57Z</time>
      </trkpt>
      <trkpt lat="40.696051" lon="-3.705330">
        <ele>931.887</ele>
        <time>2015-02-15T09:32:58Z</time>
      </trkpt>
      <trkpt lat="40.696129" lon="-3.705309">
        <ele>930.842</ele>
        <time>2015-02-15T09:33:01Z</time>
      </trkpt>
      <trkpt lat="40.696173" lon="-3.705300">
        <ele>930.326</ele>
        <time>2015-02-15T09:33:03Z</time>
      </trkpt>
      <trkpt lat="40.696216" lon="-3.705276">
        <ele>929.707</ele>
        <time>2015-02-15T09:33:05Z</time>
      </trkpt>
      <trkpt lat="40.696240" lon="-3.705263">
        <ele>929.586</ele>
        <time>2015-02-15T09:33:06Z</time>
      </trkpt>
      <trkpt lat="40.696289" lon="-3.705230">
        <ele>929.066</ele>
        <time>2015-02-15T09:33:08Z</time>
      </trkpt>
      <trkpt lat="40.696331" lon="-3.705193">
        <ele>928.665</ele>
        <time>2015-02-15T09:33:10Z</time>
      </trkpt>
      <trkpt lat="40.696376" lon="-3.705161">
        <ele>928.199</ele>
        <time>2015-02-15T09:33:12Z</time>
      </trkpt>
      <trkpt lat="40.696411" lon="-3.705121">
        <ele>927.618</ele>
        <time>2015-02-15T09:33:14Z</time>
      </trkpt>
      <trkpt lat="40.696425" lon="-3.705098">
        <ele>927.344</ele>
        <time>2015-02-15T09:33:15Z</time>
      </trkpt>
      <trkpt lat="40.696479" lon="-3.705033">
        <ele>926.615</ele>
        <time>2015-02-15T09:33:18Z</time>
      </trkpt>
      <trkpt lat="40.696527" lon="-3.704972">
        <ele>925.914</ele>
        <time>2015-02-15T09:33:21Z</time>
      </trkpt>
      <trkpt lat="40.696597" lon="-3.704887">
        <ele>925.254</ele>
        <time>2015-02-15T09:33:25Z</time>
      </trkpt>
      <trkpt lat="40.696628" lon="-3.704848">
        <ele>924.809</ele>
        <time>2015-02-15T09:33:28Z</time>
      </trkpt>
      <trkpt lat="40.696647" lon="-3.704827">
        <ele>924.707</ele>
        <time>2015-02-15T09:33:29Z</time>
      </trkpt>
      <trkpt lat="40.696701" lon="-3.704766">
        <ele>924.239</ele>
        <time>2015-02-15T09:33:32Z</time>
      </trkpt>
      <trkpt lat="40.696739" lon="-3.704732">
        <ele>924.069</ele>
        <time>2015-02-15T09:33:34Z</time>
      </trkpt>
      <trkpt lat="40.696792" lon="-3.704674">
        <ele>923.788</ele>
        <time>2015-02-15T09:33:37Z</time>
      </trkpt>
      <trkpt lat="40.696815" lon="-3.704654">
        <ele>923.642</ele>
        <time>2015-02-15T09:33:38Z</time>
      </trkpt>
      <trkpt lat="40.696834" lon="-3.704636">
        <ele>923.661</ele>
        <time>2015-02-15T09:33:39Z</time>
      </trkpt>
      <trkpt lat="40.696879" lon="-3.704584">
        <ele>923.447</ele>
        <time>2015-02-15T09:33:42Z</time>
      </trkpt>
      <trkpt lat="40.696903" lon="-3.704575">
        <ele>923.358</ele>
        <time>2015-02-15T09:33:43Z</time>
      </trkpt>
      <trkpt lat="40.696921" lon="-3.704566">
        <ele>923.384</ele>
        <time>2015-02-15T09:33:44Z</time>
      </trkpt>
      <trkpt lat="40.696940" lon="-3.704556">
        <ele>923.307</ele>
        <time>2015-02-15T09:33:45Z</time>
      </trkpt>
      <trkpt lat="40.696997" lon="-3.704518">
        <ele>923.317</ele>
        <time>2015-02-15T09:33:48Z</time>
      </trkpt>
      <trkpt lat="40.697073" lon="-3.704473">
        <ele>923.507</ele>
        <time>2015-02-15T09:33:52Z</time>
      </trkpt>
      <trkpt lat="40.697166" lon="-3.704427">
        <ele>923.896</ele>
        <time>2015-02-15T09:33:55Z</time>
      </trkpt>
      <trkpt lat="40.697188" lon="-3.704416">
        <ele>923.996</ele>
        <time>2015-02-15T09:33:56Z</time>
      </trkpt>
      <trkpt lat="40.697256" lon="-3.704374">
        <ele>924.275</ele>
        <time>2015-02-15T09:33:59Z</time>
      </trkpt>
      <trkpt lat="40.697322" lon="-3.704337">
        <ele>924.439</ele>
        <time>2015-02-15T09:34:02Z</time>
      </trkpt>
      <trkpt lat="40.697347" lon="-3.704332">
        <ele>924.578</ele>
        <time>2015-02-15T09:34:03Z</time>
      </trkpt>
      <trkpt lat="40.697419" lon="-3.704304">
        <ele>924.764</ele>
        <time>2015-02-15T09:34:06Z</time>
      </trkpt>
      <trkpt lat="40.697490" lon="-3.704278">
        <ele>924.955</ele>
        <time>2015-02-15T09:34:09Z</time>
      </trkpt>
      <trkpt lat="40.697565" lon="-3.704267">
        <ele>925.111</ele>
        <time>2015-02-15T09:34:12Z</time>
      </trkpt>
      <trkpt lat="40.697614" lon="-3.704261">
        <ele>925.321</ele>
        <time>2015-02-15T09:34:14Z</time>
      </trkpt>
      <trkpt lat="40.697636" lon="-3.704256">
        <ele>925.403</ele>
        <time>2015-02-15T09:34:15Z</time>
      </trkpt>
      <trkpt lat="40.697660" lon="-3.704245">
        <ele>925.507</ele>
        <time>2015-02-15T09:34:16Z</time>
      </trkpt>
      <trkpt lat="40.697682" lon="-3.704233">
        <ele>925.669</ele>
        <time>2015-02-15T09:34:17Z</time>
      </trkpt>
      <trkpt lat="40.697752" lon="-3.704219">
        <ele>925.999</ele>
        <time>2015-02-15T09:34:20Z</time>
      </trkpt>
      <trkpt lat="40.697821" lon="-3.704210">
        <ele>926.198</ele>
        <time>2015-02-15T09:34:23Z</time>
      </trkpt>
      <trkpt lat="40.697874" lon="-3.704199">
        <ele>926.362</ele>
        <time>2015-02-15T09:34:25Z</time>
      </trkpt>
      <trkpt lat="40.697899" lon="-3.704190">
        <ele>926.411</ele>
        <time>2015-02-15T09:34:26Z</time>
      </trkpt>
      <trkpt lat="40.697969" lon="-3.704175">
        <ele>926.637</ele>
        <time>2015-02-15T09:34:29Z</time>
      </trkpt>
      <trkpt lat="40.697996" lon="-3.704175">
        <ele>926.798</ele>
        <time>2015-02-15T09:34:30Z</time>
      </trkpt>
      <trkpt lat="40.698072" lon="-3.704174">
        <ele>926.962</ele>
        <time>2015-02-15T09:34:33Z</time>
      </trkpt>
      <trkpt lat="40.698138" lon="-3.704152">
        <ele>927.183</ele>
        <time>2015-02-15T09:34:36Z</time>
      </trkpt>
      <trkpt lat="40.698158" lon="-3.704134">
        <ele>927.111</ele>
        <time>2015-02-15T09:34:37Z</time>
      </trkpt>
      <trkpt lat="40.698179" lon="-3.704112">
        <ele>927.107</ele>
        <time>2015-02-15T09:34:38Z</time>
      </trkpt>
      <trkpt lat="40.698198" lon="-3.704103">
        <ele>927.134</ele>
        <time>2015-02-15T09:34:39Z</time>
      </trkpt>
      <trkpt lat="40.698219" lon="-3.704088">
        <ele>927.254</ele>
        <time>2015-02-15T09:34:40Z</time>
      </trkpt>
      <trkpt lat="40.698281" lon="-3.704043">
        <ele>927.273</ele>
        <time>2015-02-15T09:34:43Z</time>
      </trkpt>
      <trkpt lat="40.698340" lon="-3.703995">
        <ele>927.317</ele>
        <time>2015-02-15T09:34:47Z</time>
      </trkpt>
      <trkpt lat="40.698402" lon="-3.703955">
        <ele>927.376</ele>
        <time>2015-02-15T09:34:50Z</time>
      </trkpt>
      <trkpt lat="40.698466" lon="-3.703908">
        <ele>927.322</ele>
        <time>2015-02-15T09:34:53Z</time>
      </trkpt>
      <trkpt lat="40.698528" lon="-3.703858">
        <ele>927.323</ele>
        <time>2015-02-15T09:34:56Z</time>
      </trkpt>
      <trkpt lat="40.698561" lon="-3.703828">
        <ele>927.234</ele>
        <time>2015-02-15T09:34:58Z</time>
      </trkpt>
      <trkpt lat="40.698611" lon="-3.703788">
        <ele>927.155</ele>
        <time>2015-02-15T09:35:01Z</time>
      </trkpt>
      <trkpt lat="40.698634" lon="-3.703769">
        <ele>927.110</ele>
        <time>2015-02-15T09:35:02Z</time>
      </trkpt>
      <trkpt lat="40.698645" lon="-3.703751">
        <ele>927.107</ele>
        <time>2015-02-15T09:35:03Z</time>
      </trkpt>
      <trkpt lat="40.698700" lon="-3.703699">
        <ele>927.131</ele>
        <time>2015-02-15T09:35:06Z</time>
      </trkpt>
      <trkpt lat="40.698723" lon="-3.703684">
        <ele>927.111</ele>
        <time>2015-02-15T09:35:07Z</time>
      </trkpt>
      <trkpt lat="40.698805" lon="-3.703615">
        <ele>927.230</ele>
        <time>2015-02-15T09:35:10Z</time>
      </trkpt>
      <trkpt lat="40.698862" lon="-3.703560">
        <ele>927.314</ele>
        <time>2015-02-15T09:35:13Z</time>
      </trkpt>
      <trkpt lat="40.698920" lon="-3.703511">
        <ele>927.313</ele>
        <time>2015-02-15T09:35:16Z</time>
      </trkpt>
      <trkpt lat="40.698971" lon="-3.703463">
        <ele>927.459</ele>
        <time>2015-02-15T09:35:19Z</time>
      </trkpt>
      <trkpt lat="40.699026" lon="-3.703426">
        <ele>927.670</ele>
        <time>2015-02-15T09:35:22Z</time>
      </trkpt>
      <trkpt lat="40.699059" lon="-3.703391">
        <ele>927.634</ele>
        <time>2015-02-15T09:35:24Z</time>
      </trkpt>
      <trkpt lat="40.699084" lon="-3.703373">
        <ele>927.755</ele>
        <time>2015-02-15T09:35:25Z</time>
      </trkpt>
      <trkpt lat="40.699104" lon="-3.703356">
        <ele>927.710</ele>
        <time>2015-02-15T09:35:26Z</time>
      </trkpt>
      <trkpt lat="40.699121" lon="-3.703341">
        <ele>927.807</ele>
        <time>2015-02-15T09:35:27Z</time>
      </trkpt>
      <trkpt lat="40.699175" lon="-3.703294">
        <ele>927.981</ele>
        <time>2015-02-15T09:35:30Z</time>
      </trkpt>
      <trkpt lat="40.699225" lon="-3.703261">
        <ele>927.941</ele>
        <time>2015-02-15T09:35:33Z</time>
      </trkpt>
      <trkpt lat="40.699278" lon="-3.703231">
        <ele>928.030</ele>
        <time>2015-02-15T09:35:35Z</time>
      </trkpt>
      <trkpt lat="40.699293" lon="-3.703206">
        <ele>928.064</ele>
        <time>2015-02-15T09:35:36Z</time>
      </trkpt>
      <trkpt lat="40.699340" lon="-3.703157">
        <ele>928.253</ele>
        <time>2015-02-15T09:35:39Z</time>
      </trkpt>
      <trkpt lat="40.699387" lon="-3.703111">
        <ele>928.339</ele>
        <time>2015-02-15T09:35:42Z</time>
      </trkpt>
      <trkpt lat="40.699405" lon="-3.703091">
        <ele>928.370</ele>
        <time>2015-02-15T09:35:43Z</time>
      </trkpt>
      <trkpt lat="40.699423" lon="-3.703063">
        <ele>928.443</ele>
        <time>2015-02-15T09:35:44Z</time>
      </trkpt>
      <trkpt lat="40.699442" lon="-3.703039">
        <ele>928.464</ele>
        <time>2015-02-15T09:35:45Z</time>
      </trkpt>
      <trkpt lat="40.699497" lon="-3.702976">
        <ele>928.710</ele>
        <time>2015-02-15T09:35:48Z</time>
      </trkpt>
      <trkpt lat="40.699555" lon="-3.702922">
        <ele>928.807</ele>
        <time>2015-02-15T09:35:51Z</time>
      </trkpt>
      <trkpt lat="40.699590" lon="-3.702886">
        <ele>928.912</ele>
        <time>2015-02-15T09:35:53Z</time>
      </trkpt>
      <trkpt lat="40.699605" lon="-3.702870">
        <ele>928.962</ele>
        <time>2015-02-15T09:35:54Z</time>
      </trkpt>
      <trkpt lat="40.699665" lon="-3.702832">
        <ele>929.071</ele>
        <time>2015-02-15T09:35:57Z</time>
      </trkpt>
      <trkpt lat="40.699718" lon="-3.702781">
        <ele>929.265</ele>
        <time>2015-02-15T09:36:00Z</time>
      </trkpt>
      <trkpt lat="40.699748" lon="-3.702746">
        <ele>929.424</ele>
        <time>2015-02-15T09:36:02Z</time>
      </trkpt>
      <trkpt lat="40.699771" lon="-3.702716">
        <ele>929.690</ele>
        <time>2015-02-15T09:36:04Z</time>
      </trkpt>
      <trkpt lat="40.699809" lon="-3.702689">
        <ele>929.731</ele>
        <time>2015-02-15T09:36:06Z</time>
      </trkpt>
      <trkpt lat="40.699843" lon="-3.702662">
        <ele>929.953</ele>
        <time>2015-02-15T09:36:09Z</time>
      </trkpt>
      <trkpt lat="40.699916" lon="-3.702613">
        <ele>930.104</ele>
        <time>2015-02-15T09:36:12Z</time>
      </trkpt>
      <trkpt lat="40.699963" lon="-3.702576">
        <ele>930.314</ele>
        <time>2015-02-15T09:36:16Z</time>
      </trkpt>
      <trkpt lat="40.700017" lon="-3.702540">
        <ele>930.507</ele>
        <time>2015-02-15T09:36:19Z</time>
      </trkpt>
      <trkpt lat="40.700071" lon="-3.702495">
        <ele>930.793</ele>
        <time>2015-02-15T09:36:22Z</time>
      </trkpt>
      <trkpt lat="40.700089" lon="-3.702474">
        <ele>930.813</ele>
        <time>2015-02-15T09:36:23Z</time>
      </trkpt>
      <trkpt lat="40.700103" lon="-3.702458">
        <ele>930.962</ele>
        <time>2015-02-15T09:36:24Z</time>
      </trkpt>
      <trkpt lat="40.700141" lon="-3.702419">
        <ele>931.296</ele>
        <time>2015-02-15T09:36:27Z</time>
      </trkpt>
      <trkpt lat="40.700181" lon="-3.702385">
        <ele>931.565</ele>
        <time>2015-02-15T09:36:30Z</time>
      </trkpt>
      <trkpt lat="40.700198" lon="-3.702374">
        <ele>931.761</ele>
        <time>2015-02-15T09:36:31Z</time>
      </trkpt>
      <trkpt lat="40.700231" lon="-3.702353">
        <ele>931.932</ele>
        <time>2015-02-15T09:36:33Z</time>
      </trkpt>
      <trkpt lat="40.700257" lon="-3.702342">
        <ele>932.258</ele>
        <time>2015-02-15T09:36:35Z</time>
      </trkpt>
      <trkpt lat="40.700331" lon="-3.702295">
        <ele>932.852</ele>
        <time>2015-02-15T09:36:39Z</time>
      </trkpt>
      <trkpt lat="40.700372" lon="-3.702259">
        <ele>933.317</ele>
        <time>2015-02-15T09:36:42Z</time>
      </trkpt>
      <trkpt lat="40.700388" lon="-3.702251">
        <ele>933.507</ele>
        <time>2015-02-15T09:36:43Z</time>
      </trkpt>
      <trkpt lat="40.700434" lon="-3.702219">
        <ele>934.193</ele>
        <time>2015-02-15T09:36:46Z</time>
      </trkpt>
      <trkpt lat="40.700445" lon="-3.702209">
        <ele>934.343</ele>
        <time>2015-02-15T09:36:47Z</time>
      </trkpt>
      <trkpt lat="40.700491" lon="-3.702174">
        <ele>934.952</ele>
        <time>2015-02-15T09:36:50Z</time>
      </trkpt>
      <trkpt lat="40.700537" lon="-3.702134">
        <ele>935.586</ele>
        <time>2015-02-15T09:36:53Z</time>
      </trkpt>
      <trkpt lat="40.700586" lon="-3.702092">
        <ele>936.175</ele>
        <time>2015-02-15T09:36:56Z</time>
      </trkpt>
      <trkpt lat="40.700643" lon="-3.702051">
        <ele>936.791</ele>
        <time>2015-02-15T09:36:59Z</time>
      </trkpt>
      <trkpt lat="40.700684" lon="-3.702013">
        <ele>937.292</ele>
        <time>2015-02-15T09:37:02Z</time>
      </trkpt>
      <trkpt lat="40.700719" lon="-3.701999">
        <ele>937.536</ele>
        <time>2015-02-15T09:37:04Z</time>
      </trkpt>
      <trkpt lat="40.700714" lon="-3.701998">
        <ele>937.717</ele>
        <time>2015-02-15T09:37:05Z</time>
      </trkpt>
      <trkpt lat="40.700738" lon="-3.701981">
        <ele>938.118</ele>
        <time>2015-02-15T09:37:07Z</time>
      </trkpt>
      <trkpt lat="40.700778" lon="-3.701948">
        <ele>938.707</ele>
        <time>2015-02-15T09:37:10Z</time>
      </trkpt>
      <trkpt lat="40.700792" lon="-3.701933">
        <ele>938.941</ele>
        <time>2015-02-15T09:37:11Z</time>
      </trkpt>
      <trkpt lat="40.700813" lon="-3.701925">
        <ele>939.131</ele>
        <time>2015-02-15T09:37:12Z</time>
      </trkpt>
      <trkpt lat="40.700868" lon="-3.701881">
        <ele>939.810</ele>
        <time>2015-02-15T09:37:15Z</time>
      </trkpt>
      <trkpt lat="40.700914" lon="-3.701852">
        <ele>940.524</ele>
        <time>2015-02-15T09:37:18Z</time>
      </trkpt>
      <trkpt lat="40.700958" lon="-3.701828">
        <ele>941.243</ele>
        <time>2015-02-15T09:37:21Z</time>
      </trkpt>
      <trkpt lat="40.701010" lon="-3.701807">
        <ele>941.929</ele>
        <time>2015-02-15T09:37:24Z</time>
      </trkpt>
      <trkpt lat="40.701059" lon="-3.701786">
        <ele>942.640</ele>
        <time>2015-02-15T09:37:27Z</time>
      </trkpt>
      <trkpt lat="40.701112" lon="-3.701765">
        <ele>943.242</ele>
        <time>2015-02-15T09:37:30Z</time>
      </trkpt>
      <trkpt lat="40.701160" lon="-3.701746">
        <ele>943.822</ele>
        <time>2015-02-15T09:37:33Z</time>
      </trkpt>
      <trkpt lat="40.701178" lon="-3.701741">
        <ele>944.014</ele>
        <time>2015-02-15T09:37:34Z</time>
      </trkpt>
      <trkpt lat="40.701191" lon="-3.701728">
        <ele>944.207</ele>
        <time>2015-02-15T09:37:35Z</time>
      </trkpt>
      <trkpt lat="40.701234" lon="-3.701696">
        <ele>944.752</ele>
        <time>2015-02-15T09:37:38Z</time>
      </trkpt>
      <trkpt lat="40.701251" lon="-3.701680">
        <ele>944.972</ele>
        <time>2015-02-15T09:37:39Z</time>
      </trkpt>
      <trkpt lat="40.701290" lon="-3.701666">
        <ele>945.511</ele>
        <time>2015-02-15T09:37:42Z</time>
      </trkpt>
      <trkpt lat="40.701305" lon="-3.701664">
        <ele>945.665</ele>
        <time>2015-02-15T09:37:43Z</time>
      </trkpt>
      <trkpt lat="40.701320" lon="-3.701661">
        <ele>945.834</ele>
        <time>2015-02-15T09:37:44Z</time>
      </trkpt>
      <trkpt lat="40.701335" lon="-3.701640">
        <ele>945.940</ele>
        <time>2015-02-15T09:37:46Z</time>
      </trkpt>
      <trkpt lat="40.701361" lon="-3.701624">
        <ele>946.151</ele>
        <time>2015-02-15T09:37:47Z</time>
      </trkpt>
      <trkpt lat="40.701412" lon="-3.701596">
        <ele>946.414</ele>
        <time>2015-02-15T09:37:50Z</time>
      </trkpt>
      <trkpt lat="40.701453" lon="-3.701567">
        <ele>946.854</ele>
        <time>2015-02-15T09:37:53Z</time>
      </trkpt>
      <trkpt lat="40.701490" lon="-3.701537">
        <ele>947.209</ele>
        <time>2015-02-15T09:37:56Z</time>
      </trkpt>
      <trkpt lat="40.701523" lon="-3.701514">
        <ele>947.507</ele>
        <time>2015-02-15T09:37:59Z</time>
      </trkpt>
      <trkpt lat="40.701560" lon="-3.701488">
        <ele>947.939</ele>
        <time>2015-02-15T09:38:02Z</time>
      </trkpt>
      <trkpt lat="40.701583" lon="-3.701471">
        <ele>948.149</ele>
        <time>2015-02-15T09:38:04Z</time>
      </trkpt>
      <trkpt lat="40.701618" lon="-3.701443">
        <ele>948.318</ele>
        <time>2015-02-15T09:38:07Z</time>
      </trkpt>
      <trkpt lat="40.701627" lon="-3.701437">
        <ele>948.442</ele>
        <time>2015-02-15T09:38:08Z</time>
      </trkpt>
      <trkpt lat="40.701671" lon="-3.701399">
        <ele>948.661</ele>
        <time>2015-02-15T09:38:11Z</time>
      </trkpt>
      <trkpt lat="40.701686" lon="-3.701382">
        <ele>948.797</ele>
        <time>2015-02-15T09:38:13Z</time>
      </trkpt>
      <trkpt lat="40.701718" lon="-3.701352">
        <ele>949.078</ele>
        <time>2015-02-15T09:38:16Z</time>
      </trkpt>
      <trkpt lat="40.701757" lon="-3.701319">
        <ele>949.278</ele>
        <time>2015-02-15T09:38:19Z</time>
      </trkpt>
      <trkpt lat="40.701779" lon="-3.701301">
        <ele>949.433</ele>
        <time>2015-02-15T09:38:21Z</time>
      </trkpt>
      <trkpt lat="40.701816" lon="-3.701275">
        <ele>949.726</ele>
        <time>2015-02-15T09:38:24Z</time>
      </trkpt>
      <trkpt lat="40.701852" lon="-3.701245">
        <ele>950.007</ele>
        <time>2015-02-15T09:38:27Z</time>
      </trkpt>
      <trkpt lat="40.701887" lon="-3.701215">
        <ele>950.345</ele>
        <time>2015-02-15T09:38:30Z</time>
      </trkpt>
      <trkpt lat="40.701922" lon="-3.701186">
        <ele>950.775</ele>
        <time>2015-02-15T09:38:33Z</time>
      </trkpt>
      <trkpt lat="40.701958" lon="-3.701162">
        <ele>951.294</ele>
        <time>2015-02-15T09:38:36Z</time>
      </trkpt>
      <trkpt lat="40.701989" lon="-3.701137">
        <ele>951.758</ele>
        <time>2015-02-15T09:38:39Z</time>
      </trkpt>
      <trkpt lat="40.702020" lon="-3.701113">
        <ele>952.347</ele>
        <time>2015-02-15T09:38:42Z</time>
      </trkpt>
      <trkpt lat="40.702063" lon="-3.701078">
        <ele>953.173</ele>
        <time>2015-02-15T09:38:46Z</time>
      </trkpt>
      <trkpt lat="40.702098" lon="-3.701044">
        <ele>953.994</ele>
        <time>2015-02-15T09:38:49Z</time>
      </trkpt>
      <trkpt lat="40.702132" lon="-3.701015">
        <ele>954.668</ele>
        <time>2015-02-15T09:38:52Z</time>
      </trkpt>
      <trkpt lat="40.702168" lon="-3.700987">
        <ele>955.442</ele>
        <time>2015-02-15T09:38:55Z</time>
      </trkpt>
      <trkpt lat="40.702219" lon="-3.700953">
        <ele>956.526</ele>
        <time>2015-02-15T09:38:59Z</time>
      </trkpt>
      <trkpt lat="40.702253" lon="-3.700921">
        <ele>957.407</ele>
        <time>2015-02-15T09:39:02Z</time>
      </trkpt>
      <trkpt lat="40.702272" lon="-3.700909">
        <ele>958.184</ele>
        <time>2015-02-15T09:39:04Z</time>
      </trkpt>
      <trkpt lat="40.702281" lon="-3.700904">
        <ele>958.464</ele>
        <time>2015-02-15T09:39:05Z</time>
      </trkpt>
      <trkpt lat="40.702292" lon="-3.700895">
        <ele>958.773</ele>
        <time>2015-02-15T09:39:06Z</time>
      </trkpt>
      <trkpt lat="40.702334" lon="-3.700872">
        <ele>959.717</ele>
        <time>2015-02-15T09:39:09Z</time>
      </trkpt>
      <trkpt lat="40.702382" lon="-3.700852">
        <ele>960.696</ele>
        <time>2015-02-15T09:39:12Z</time>
      </trkpt>
      <trkpt lat="40.702433" lon="-3.700830">
        <ele>961.462</ele>
        <time>2015-02-15T09:39:15Z</time>
      </trkpt>
      <trkpt lat="40.702463" lon="-3.700827">
        <ele>961.993</ele>
        <time>2015-02-15T09:39:18Z</time>
      </trkpt>
      <trkpt lat="40.702511" lon="-3.700810">
        <ele>962.633</ele>
        <time>2015-02-15T09:39:21Z</time>
      </trkpt>
      <trkpt lat="40.702555" lon="-3.700795">
        <ele>963.323</ele>
        <time>2015-02-15T09:39:24Z</time>
      </trkpt>
      <trkpt lat="40.702605" lon="-3.700775">
        <ele>963.915</ele>
        <time>2015-02-15T09:39:27Z</time>
      </trkpt>
      <trkpt lat="40.702649" lon="-3.700752">
        <ele>964.507</ele>
        <time>2015-02-15T09:39:30Z</time>
      </trkpt>
      <trkpt lat="40.702694" lon="-3.700722">
        <ele>965.141</ele>
        <time>2015-02-15T09:39:33Z</time>
      </trkpt>
      <trkpt lat="40.702739" lon="-3.700690">
        <ele>965.541</ele>
        <time>2015-02-15T09:39:36Z</time>
      </trkpt>
      <trkpt lat="40.702799" lon="-3.700654">
        <ele>965.990</ele>
        <time>2015-02-15T09:39:39Z</time>
      </trkpt>
      <trkpt lat="40.702819" lon="-3.700645">
        <ele>966.124</ele>
        <time>2015-02-15T09:39:40Z</time>
      </trkpt>
      <trkpt lat="40.702853" lon="-3.700624">
        <ele>966.343</ele>
        <time>2015-02-15T09:39:42Z</time>
      </trkpt>
      <trkpt lat="40.702899" lon="-3.700595">
        <ele>966.639</ele>
        <time>2015-02-15T09:39:45Z</time>
      </trkpt>
      <trkpt lat="40.702944" lon="-3.700567">
        <ele>966.980</ele>
        <time>2015-02-15T09:39:48Z</time>
      </trkpt>
      <trkpt lat="40.702977" lon="-3.700548">
        <ele>967.088</ele>
        <time>2015-02-15T09:39:50Z</time>
      </trkpt>
      <trkpt lat="40.703034" lon="-3.700519">
        <ele>967.424</ele>
        <time>2015-02-15T09:39:54Z</time>
      </trkpt>
      <trkpt lat="40.703074" lon="-3.700497">
        <ele>967.626</ele>
        <time>2015-02-15T09:39:57Z</time>
      </trkpt>
      <trkpt lat="40.703102" lon="-3.700474">
        <ele>967.707</ele>
        <time>2015-02-15T09:40:00Z</time>
      </trkpt>
      <trkpt lat="40.703109" lon="-3.700468">
        <ele>967.776</ele>
        <time>2015-02-15T09:40:01Z</time>
      </trkpt>
      <trkpt lat="40.703121" lon="-3.700457">
        <ele>967.856</ele>
        <time>2015-02-15T09:40:02Z</time>
      </trkpt>
      <trkpt lat="40.703156" lon="-3.700427">
        <ele>967.945</ele>
        <time>2015-02-15T09:40:05Z</time>
      </trkpt>
      <trkpt lat="40.703201" lon="-3.700390">
        <ele>968.039</ele>
        <time>2015-02-15T09:40:08Z</time>
      </trkpt>
      <trkpt lat="40.703233" lon="-3.700364">
        <ele>968.168</ele>
        <time>2015-02-15T09:40:10Z</time>
      </trkpt>
      <trkpt lat="40.703280" lon="-3.700313">
        <ele>968.294</ele>
        <time>2015-02-15T09:40:13Z</time>
      </trkpt>
      <trkpt lat="40.703310" lon="-3.700274">
        <ele>968.245</ele>
        <time>2015-02-15T09:40:15Z</time>
      </trkpt>
      <trkpt lat="40.703373" lon="-3.700214">
        <ele>968.456</ele>
        <time>2015-02-15T09:40:18Z</time>
      </trkpt>
      <trkpt lat="40.703430" lon="-3.700165">
        <ele>968.559</ele>
        <time>2015-02-15T09:40:20Z</time>
      </trkpt>
      <trkpt lat="40.703500" lon="-3.700124">
        <ele>968.514</ele>
        <time>2015-02-15T09:40:22Z</time>
      </trkpt>
      <trkpt lat="40.703552" lon="-3.700109">
        <ele>968.507</ele>
        <time>2015-02-15T09:40:23Z</time>
      </trkpt>
      <trkpt lat="40.703616" lon="-3.700082">
        <ele>968.543</ele>
        <time>2015-02-15T09:40:24Z</time>
      </trkpt>
      <trkpt lat="40.703681" lon="-3.700070">
        <ele>968.683</ele>
        <time>2015-02-15T09:40:25Z</time>
      </trkpt>
      <trkpt lat="40.703750" lon="-3.700068">
        <ele>968.682</ele>
        <time>2015-02-15T09:40:26Z</time>
      </trkpt>
      <trkpt lat="40.703818" lon="-3.700066">
        <ele>968.626</ele>
        <time>2015-02-15T09:40:27Z</time>
      </trkpt>
      <trkpt lat="40.703889" lon="-3.700067">
        <ele>968.665</ele>
        <time>2015-02-15T09:40:28Z</time>
      </trkpt>
      <trkpt lat="40.703961" lon="-3.700062">
        <ele>968.551</ele>
        <time>2015-02-15T09:40:29Z</time>
      </trkpt>
      <trkpt lat="40.704033" lon="-3.700052">
        <ele>968.582</ele>
        <time>2015-02-15T09:40:30Z</time>
      </trkpt>
      <trkpt lat="40.704099" lon="-3.700037">
        <ele>968.584</ele>
        <time>2015-02-15T09:40:31Z</time>
      </trkpt>
      <trkpt lat="40.704237" lon="-3.699981">
        <ele>968.407</ele>
        <time>2015-02-15T09:40:33Z</time>
      </trkpt>
      <trkpt lat="40.704313" lon="-3.699936">
        <ele>968.317</ele>
        <time>2015-02-15T09:40:34Z</time>
      </trkpt>
      <trkpt lat="40.704380" lon="-3.699899">
        <ele>968.307</ele>
        <time>2015-02-15T09:40:35Z</time>
      </trkpt>
      <trkpt lat="40.704446" lon="-3.699861">
        <ele>968.276</ele>
        <time>2015-02-15T09:40:37Z</time>
      </trkpt>
      <trkpt lat="40.704506" lon="-3.699803">
        <ele>968.186</ele>
        <time>2015-02-15T09:40:37Z</time>
      </trkpt>
      <trkpt lat="40.704612" lon="-3.699671">
        <ele>967.985</ele>
        <time>2015-02-15T09:40:40Z</time>
      </trkpt>
      <trkpt lat="40.704645" lon="-3.699579">
        <ele>967.819</ele>
        <time>2015-02-15T09:40:41Z</time>
      </trkpt>
      <trkpt lat="40.704696" lon="-3.699404">
        <ele>967.558</ele>
        <time>2015-02-15T09:40:43Z</time>
      </trkpt>
      <trkpt lat="40.704720" lon="-3.699310">
        <ele>967.454</ele>
        <time>2015-02-15T09:40:44Z</time>
      </trkpt>
      <trkpt lat="40.704774" lon="-3.699123">
        <ele>967.165</ele>
        <time>2015-02-15T09:40:46Z</time>
      </trkpt>
      <trkpt lat="40.704795" lon="-3.699028">
        <ele>967.066</ele>
        <time>2015-02-15T09:40:47Z</time>
      </trkpt>
      <trkpt lat="40.704864" lon="-3.698751">
        <ele>966.529</ele>
        <time>2015-02-15T09:40:50Z</time>
      </trkpt>
      <trkpt lat="40.704889" lon="-3.698660">
        <ele>966.321</ele>
        <time>2015-02-15T09:40:51Z</time>
      </trkpt>
      <trkpt lat="40.704922" lon="-3.698581">
        <ele>966.107</ele>
        <time>2015-02-15T09:40:52Z</time>
      </trkpt>
      <trkpt lat="40.704966" lon="-3.698517">
        <ele>965.964</ele>
        <time>2015-02-15T09:40:53Z</time>
      </trkpt>
      <trkpt lat="40.705104" lon="-3.698339">
        <ele>965.314</ele>
        <time>2015-02-15T09:40:56Z</time>
      </trkpt>
      <trkpt lat="40.705193" lon="-3.698227">
        <ele>964.813</ele>
        <time>2015-02-15T09:40:58Z</time>
      </trkpt>
      <trkpt lat="40.705232" lon="-3.698171">
        <ele>964.637</ele>
        <time>2015-02-15T09:40:59Z</time>
      </trkpt>
      <trkpt lat="40.705272" lon="-3.698119">
        <ele>964.436</ele>
        <time>2015-02-15T09:41:00Z</time>
      </trkpt>
      <trkpt lat="40.705342" lon="-3.698020">
        <ele>963.972</ele>
        <time>2015-02-15T09:41:02Z</time>
      </trkpt>
      <trkpt lat="40.705375" lon="-3.697974">
        <ele>963.753</ele>
        <time>2015-02-15T09:41:03Z</time>
      </trkpt>
      <trkpt lat="40.705414" lon="-3.697926">
        <ele>963.442</ele>
        <time>2015-02-15T09:41:04Z</time>
      </trkpt>
      <trkpt lat="40.705496" lon="-3.697827">
        <ele>963.222</ele>
        <time>2015-02-15T09:41:05Z</time>
      </trkpt>
      <trkpt lat="40.705531" lon="-3.697772">
        <ele>962.914</ele>
        <time>2015-02-15T09:41:06Z</time>
      </trkpt>
      <trkpt lat="40.705643" lon="-3.697607">
        <ele>962.107</ele>
        <time>2015-02-15T09:41:09Z</time>
      </trkpt>
      <trkpt lat="40.705726" lon="-3.697511">
        <ele>961.562</ele>
        <time>2015-02-15T09:41:11Z</time>
      </trkpt>
      <trkpt lat="40.705814" lon="-3.697426">
        <ele>961.012</ele>
        <time>2015-02-15T09:41:13Z</time>
      </trkpt>
      <trkpt lat="40.705890" lon="-3.697338">
        <ele>960.411</ele>
        <time>2015-02-15T09:41:15Z</time>
      </trkpt>
      <trkpt lat="40.705950" lon="-3.697258">
        <ele>959.815</ele>
        <time>2015-02-15T09:41:17Z</time>
      </trkpt>
      <trkpt lat="40.706004" lon="-3.697184">
        <ele>959.224</ele>
        <time>2015-02-15T09:41:19Z</time>
      </trkpt>
      <trkpt lat="40.706035" lon="-3.697147">
        <ele>958.950</ele>
        <time>2015-02-15T09:41:20Z</time>
      </trkpt>
      <trkpt lat="40.706071" lon="-3.697111">
        <ele>958.761</ele>
        <time>2015-02-15T09:41:21Z</time>
      </trkpt>
      <trkpt lat="40.706102" lon="-3.697077">
        <ele>958.496</ele>
        <time>2015-02-15T09:41:22Z</time>
      </trkpt>
      <trkpt lat="40.706159" lon="-3.697001">
        <ele>957.931</ele>
        <time>2015-02-15T09:41:24Z</time>
      </trkpt>
      <trkpt lat="40.706209" lon="-3.696918">
        <ele>957.424</ele>
        <time>2015-02-15T09:41:26Z</time>
      </trkpt>
      <trkpt lat="40.706253" lon="-3.696833">
        <ele>956.907</ele>
        <time>2015-02-15T09:41:28Z</time>
      </trkpt>
      <trkpt lat="40.706300" lon="-3.696749">
        <ele>956.547</ele>
        <time>2015-02-15T09:41:30Z</time>
      </trkpt>
      <trkpt lat="40.706317" lon="-3.696714">
        <ele>956.387</ele>
        <time>2015-02-15T09:41:31Z</time>
      </trkpt>
      <trkpt lat="40.706332" lon="-3.696682">
        <ele>956.176</ele>
        <time>2015-02-15T09:41:32Z</time>
      </trkpt>
      <trkpt lat="40.706360" lon="-3.696631">
        <ele>955.770</ele>
        <time>2015-02-15T09:41:34Z</time>
      </trkpt>
      <trkpt lat="40.706393" lon="-3.696590">
        <ele>955.449</ele>
        <time>2015-02-15T09:41:36Z</time>
      </trkpt>
      <trkpt lat="40.706413" lon="-3.696575">
        <ele>955.375</ele>
        <time>2015-02-15T09:41:37Z</time>
      </trkpt>
      <trkpt lat="40.706449" lon="-3.696555">
        <ele>955.136</ele>
        <time>2015-02-15T09:41:39Z</time>
      </trkpt>
      <trkpt lat="40.706488" lon="-3.696530">
        <ele>955.097</ele>
        <time>2015-02-15T09:41:41Z</time>
      </trkpt>
      <trkpt lat="40.706573" lon="-3.696464">
        <ele>954.723</ele>
        <time>2015-02-15T09:41:45Z</time>
      </trkpt>
      <trkpt lat="40.706594" lon="-3.696445">
        <ele>954.725</ele>
        <time>2015-02-15T09:41:46Z</time>
      </trkpt>
      <trkpt lat="40.706638" lon="-3.696411">
        <ele>954.707</ele>
        <time>2015-02-15T09:41:48Z</time>
      </trkpt>
      <trkpt lat="40.706706" lon="-3.696366">
        <ele>954.777</ele>
        <time>2015-02-15T09:41:51Z</time>
      </trkpt>
      <trkpt lat="40.706776" lon="-3.696315">
        <ele>954.747</ele>
        <time>2015-02-15T09:41:54Z</time>
      </trkpt>
      <trkpt lat="40.706816" lon="-3.696281">
        <ele>954.756</ele>
        <time>2015-02-15T09:41:56Z</time>
      </trkpt>
      <trkpt lat="40.706864" lon="-3.696256">
        <ele>954.820</ele>
        <time>2015-02-15T09:41:58Z</time>
      </trkpt>
      <trkpt lat="40.706939" lon="-3.696209">
        <ele>954.929</ele>
        <time>2015-02-15T09:42:01Z</time>
      </trkpt>
      <trkpt lat="40.707011" lon="-3.696177">
        <ele>955.175</ele>
        <time>2015-02-15T09:42:04Z</time>
      </trkpt>
      <trkpt lat="40.707036" lon="-3.696166">
        <ele>955.176</ele>
        <time>2015-02-15T09:42:05Z</time>
      </trkpt>
      <trkpt lat="40.707061" lon="-3.696156">
        <ele>955.253</ele>
        <time>2015-02-15T09:42:06Z</time>
      </trkpt>
      <trkpt lat="40.707114" lon="-3.696123">
        <ele>955.304</ele>
        <time>2015-02-15T09:42:08Z</time>
      </trkpt>
      <trkpt lat="40.707132" lon="-3.696106">
        <ele>955.414</ele>
        <time>2015-02-15T09:42:09Z</time>
      </trkpt>
      <trkpt lat="40.707177" lon="-3.696086">
        <ele>955.507</ele>
        <time>2015-02-15T09:42:11Z</time>
      </trkpt>
      <trkpt lat="40.707199" lon="-3.696073">
        <ele>955.633</ele>
        <time>2015-02-15T09:42:12Z</time>
      </trkpt>
      <trkpt lat="40.707242" lon="-3.696044">
        <ele>955.893</ele>
        <time>2015-02-15T09:42:15Z</time>
      </trkpt>
      <trkpt lat="40.707334" lon="-3.695988">
        <ele>956.122</ele>
        <time>2015-02-15T09:42:18Z</time>
      </trkpt>
      <trkpt lat="40.707360" lon="-3.695970">
        <ele>956.236</ele>
        <time>2015-02-15T09:42:20Z</time>
      </trkpt>
      <trkpt lat="40.707430" lon="-3.695915">
        <ele>956.515</ele>
        <time>2015-02-15T09:42:23Z</time>
      </trkpt>
      <trkpt lat="40.707480" lon="-3.695900">
        <ele>956.711</ele>
        <time>2015-02-15T09:42:25Z</time>
      </trkpt>
      <trkpt lat="40.707499" lon="-3.695901">
        <ele>956.882</ele>
        <time>2015-02-15T09:42:26Z</time>
      </trkpt>
      <trkpt lat="40.707518" lon="-3.695898">
        <ele>956.936</ele>
        <time>2015-02-15T09:42:27Z</time>
      </trkpt>
      <trkpt lat="40.707539" lon="-3.695898">
        <ele>957.017</ele>
        <time>2015-02-15T09:42:28Z</time>
      </trkpt>
      <trkpt lat="40.707642" lon="-3.695869">
        <ele>957.218</ele>
        <time>2015-02-15T09:42:30Z</time>
      </trkpt>
      <trkpt lat="40.707712" lon="-3.695850">
        <ele>957.307</ele>
        <time>2015-02-15T09:42:32Z</time>
      </trkpt>
      <trkpt lat="40.707822" lon="-3.695833">
        <ele>957.461</ele>
        <time>2015-02-15T09:42:35Z</time>
      </trkpt>
      <trkpt lat="40.707870" lon="-3.695829">
        <ele>957.411</ele>
        <time>2015-02-15T09:42:36Z</time>
      </trkpt>
      <trkpt lat="40.708026" lon="-3.695811">
        <ele>957.420</ele>
        <time>2015-02-15T09:42:39Z</time>
      </trkpt>
      <trkpt lat="40.708126" lon="-3.695780">
        <ele>957.374</ele>
        <time>2015-02-15T09:42:41Z</time>
      </trkpt>
      <trkpt lat="40.708163" lon="-3.695744">
        <ele>957.393</ele>
        <time>2015-02-15T09:42:42Z</time>
      </trkpt>
      <trkpt lat="40.708198" lon="-3.695713">
        <ele>957.379</ele>
        <time>2015-02-15T09:42:43Z</time>
      </trkpt>
      <trkpt lat="40.708237" lon="-3.695688">
        <ele>957.260</ele>
        <time>2015-02-15T09:42:44Z</time>
      </trkpt>
      <trkpt lat="40.708271" lon="-3.695671">
        <ele>957.188</ele>
        <time>2015-02-15T09:42:45Z</time>
      </trkpt>
      <trkpt lat="40.708295" lon="-3.695652">
        <ele>957.124</ele>
        <time>2015-02-15T09:42:46Z</time>
      </trkpt>
      <trkpt lat="40.708387" lon="-3.695607">
        <ele>956.826</ele>
        <time>2015-02-15T09:42:49Z</time>
      </trkpt>
      <trkpt lat="40.708444" lon="-3.695569">
        <ele>956.707</ele>
        <time>2015-02-15T09:42:51Z</time>
      </trkpt>
      <trkpt lat="40.708529" lon="-3.695506">
        <ele>956.426</ele>
        <time>2015-02-15T09:42:54Z</time>
      </trkpt>
      <trkpt lat="40.708610" lon="-3.695433">
        <ele>956.256</ele>
        <time>2015-02-15T09:42:57Z</time>
      </trkpt>
      <trkpt lat="40.708642" lon="-3.695415">
        <ele>956.115</ele>
        <time>2015-02-15T09:42:58Z</time>
      </trkpt>
      <trkpt lat="40.708677" lon="-3.695398">
        <ele>956.079</ele>
        <time>2015-02-15T09:42:59Z</time>
      </trkpt>
      <trkpt lat="40.708773" lon="-3.695360">
        <ele>955.898</ele>
        <time>2015-02-15T09:43:02Z</time>
      </trkpt>
      <trkpt lat="40.708804" lon="-3.695353">
        <ele>955.784</ele>
        <time>2015-02-15T09:43:03Z</time>
      </trkpt>
      <trkpt lat="40.708881" lon="-3.695331">
        <ele>955.585</ele>
        <time>2015-02-15T09:43:05Z</time>
      </trkpt>
      <trkpt lat="40.708920" lon="-3.695312">
        <ele>955.435</ele>
        <time>2015-02-15T09:43:06Z</time>
      </trkpt>
      <trkpt lat="40.708956" lon="-3.695289">
        <ele>955.386</ele>
        <time>2015-02-15T09:43:07Z</time>
      </trkpt>
      <trkpt lat="40.708995" lon="-3.695261">
        <ele>955.214</ele>
        <time>2015-02-15T09:43:08Z</time>
      </trkpt>
      <trkpt lat="40.709034" lon="-3.695210">
        <ele>955.107</ele>
        <time>2015-02-15T09:43:09Z</time>
      </trkpt>
      <trkpt lat="40.709068" lon="-3.695167">
        <ele>955.021</ele>
        <time>2015-02-15T09:43:10Z</time>
      </trkpt>
      <trkpt lat="40.709109" lon="-3.695120">
        <ele>954.971</ele>
        <time>2015-02-15T09:43:11Z</time>
      </trkpt>
      <trkpt lat="40.709144" lon="-3.695072">
        <ele>954.930</ele>
        <time>2015-02-15T09:43:12Z</time>
      </trkpt>
      <trkpt lat="40.709176" lon="-3.695022">
        <ele>954.814</ele>
        <time>2015-02-15T09:43:13Z</time>
      </trkpt>
      <trkpt lat="40.709205" lon="-3.694968">
        <ele>954.763</ele>
        <time>2015-02-15T09:43:14Z</time>
      </trkpt>
      <trkpt lat="40.709221" lon="-3.694919">
        <ele>954.689</ele>
        <time>2015-02-15T09:43:15Z</time>
      </trkpt>
      <trkpt lat="40.709236" lon="-3.694871">
        <ele>954.590</ele>
        <time>2015-02-15T09:43:16Z</time>
      </trkpt>
      <trkpt lat="40.709276" lon="-3.694785">
        <ele>954.371</ele>
        <time>2015-02-15T09:43:18Z</time>
      </trkpt>
      <trkpt lat="40.709313" lon="-3.694711">
        <ele>954.041</ele>
        <time>2015-02-15T09:43:20Z</time>
      </trkpt>
      <trkpt lat="40.709365" lon="-3.694603">
        <ele>953.715</ele>
        <time>2015-02-15T09:43:23Z</time>
      </trkpt>
      <trkpt lat="40.709410" lon="-3.694538">
        <ele>953.507</ele>
        <time>2015-02-15T09:43:26Z</time>
      </trkpt>
      <trkpt lat="40.709438" lon="-3.694508">
        <ele>953.355</ele>
        <time>2015-02-15T09:43:26Z</time>
      </trkpt>
      <trkpt lat="40.709485" lon="-3.694457">
        <ele>953.035</ele>
        <time>2015-02-15T09:43:29Z</time>
      </trkpt>
      <trkpt lat="40.709546" lon="-3.694410">
        <ele>952.774</ele>
        <time>2015-02-15T09:43:31Z</time>
      </trkpt>
      <trkpt lat="40.709585" lon="-3.694388">
        <ele>952.598</ele>
        <time>2015-02-15T09:43:32Z</time>
      </trkpt>
      <trkpt lat="40.709623" lon="-3.694369">
        <ele>952.467</ele>
        <time>2015-02-15T09:43:33Z</time>
      </trkpt>
      <trkpt lat="40.709669" lon="-3.694353">
        <ele>952.383</ele>
        <time>2015-02-15T09:43:34Z</time>
      </trkpt>
      <trkpt lat="40.709718" lon="-3.694342">
        <ele>952.154</ele>
        <time>2015-02-15T09:43:35Z</time>
      </trkpt>
      <trkpt lat="40.709776" lon="-3.694340">
        <ele>952.018</ele>
        <time>2015-02-15T09:43:36Z</time>
      </trkpt>
      <trkpt lat="40.709838" lon="-3.694335">
        <ele>951.998</ele>
        <time>2015-02-15T09:43:37Z</time>
      </trkpt>
      <trkpt lat="40.709909" lon="-3.694329">
        <ele>951.817</ele>
        <time>2015-02-15T09:43:38Z</time>
      </trkpt>
      <trkpt lat="40.710055" lon="-3.694314">
        <ele>951.507</ele>
        <time>2015-02-15T09:43:40Z</time>
      </trkpt>
      <trkpt lat="40.710195" lon="-3.694303">
        <ele>951.229</ele>
        <time>2015-02-15T09:43:42Z</time>
      </trkpt>
      <trkpt lat="40.710333" lon="-3.694294">
        <ele>951.019</ele>
        <time>2015-02-15T09:43:44Z</time>
      </trkpt>
      <trkpt lat="40.710398" lon="-3.694277">
        <ele>950.978</ele>
        <time>2015-02-15T09:43:45Z</time>
      </trkpt>
      <trkpt lat="40.710454" lon="-3.694254">
        <ele>950.722</ele>
        <time>2015-02-15T09:43:46Z</time>
      </trkpt>
      <trkpt lat="40.710557" lon="-3.694189">
        <ele>950.641</ele>
        <time>2015-02-15T09:43:47Z</time>
      </trkpt>
      <trkpt lat="40.710599" lon="-3.694153">
        <ele>950.537</ele>
        <time>2015-02-15T09:43:48Z</time>
      </trkpt>
      <trkpt lat="40.710636" lon="-3.694114">
        <ele>950.368</ele>
        <time>2015-02-15T09:43:49Z</time>
      </trkpt>
      <trkpt lat="40.710719" lon="-3.694043">
        <ele>950.081</ele>
        <time>2015-02-15T09:43:51Z</time>
      </trkpt>
      <trkpt lat="40.710771" lon="-3.694016">
        <ele>949.961</ele>
        <time>2015-02-15T09:43:52Z</time>
      </trkpt>
      <trkpt lat="40.710873" lon="-3.693978">
        <ele>949.617</ele>
        <time>2015-02-15T09:43:54Z</time>
      </trkpt>
      <trkpt lat="40.710919" lon="-3.693961">
        <ele>949.407</ele>
        <time>2015-02-15T09:43:55Z</time>
      </trkpt>
      <trkpt lat="40.711004" lon="-3.693937">
        <ele>949.056</ele>
        <time>2015-02-15T09:43:57Z</time>
      </trkpt>
      <trkpt lat="40.711063" lon="-3.693893">
        <ele>948.786</ele>
        <time>2015-02-15T09:43:59Z</time>
      </trkpt>
      <trkpt lat="40.711122" lon="-3.693844">
        <ele>948.375</ele>
        <time>2015-02-15T09:44:01Z</time>
      </trkpt>
      <trkpt lat="40.711150" lon="-3.693813">
        <ele>948.289</ele>
        <time>2015-02-15T09:44:02Z</time>
      </trkpt>
      <trkpt lat="40.711194" lon="-3.693740">
        <ele>947.878</ele>
        <time>2015-02-15T09:44:04Z</time>
      </trkpt>
      <trkpt lat="40.711214" lon="-3.693706">
        <ele>947.784</ele>
        <time>2015-02-15T09:44:05Z</time>
      </trkpt>
      <trkpt lat="40.711235" lon="-3.693684">
        <ele>947.445</ele>
        <time>2015-02-15T09:44:06Z</time>
      </trkpt>
      <trkpt lat="40.711259" lon="-3.693655">
        <ele>947.312</ele>
        <time>2015-02-15T09:44:07Z</time>
      </trkpt>
      <trkpt lat="40.711277" lon="-3.693636">
        <ele>947.132</ele>
        <time>2015-02-15T09:44:08Z</time>
      </trkpt>
      <trkpt lat="40.711322" lon="-3.693602">
        <ele>946.905</ele>
        <time>2015-02-15T09:44:10Z</time>
      </trkpt>
      <trkpt lat="40.711347" lon="-3.693591">
        <ele>946.807</ele>
        <time>2015-02-15T09:44:11Z</time>
      </trkpt>
      <trkpt lat="40.711372" lon="-3.693598">
        <ele>946.659</ele>
        <time>2015-02-15T09:44:12Z</time>
      </trkpt>
      <trkpt lat="40.711419" lon="-3.693581">
        <ele>946.349</ele>
        <time>2015-02-15T09:44:14Z</time>
      </trkpt>
      <trkpt lat="40.711434" lon="-3.693574">
        <ele>946.238</ele>
        <time>2015-02-15T09:44:15Z</time>
      </trkpt>
      <trkpt lat="40.711449" lon="-3.693562">
        <ele>946.172</ele>
        <time>2015-02-15T09:44:16Z</time>
      </trkpt>
      <trkpt lat="40.711469" lon="-3.693547">
        <ele>946.011</ele>
        <time>2015-02-15T09:44:17Z</time>
      </trkpt>
      <trkpt lat="40.711480" lon="-3.693532">
        <ele>945.997</ele>
        <time>2015-02-15T09:44:18Z</time>
      </trkpt>
      <trkpt lat="40.711496" lon="-3.693515">
        <ele>945.758</ele>
        <time>2015-02-15T09:44:19Z</time>
      </trkpt>
      <trkpt lat="40.711525" lon="-3.693479">
        <ele>945.527</ele>
        <time>2015-02-15T09:44:21Z</time>
      </trkpt>
      <trkpt lat="40.711544" lon="-3.693442">
        <ele>945.368</ele>
        <time>2015-02-15T09:44:23Z</time>
      </trkpt>
      <trkpt lat="40.711580" lon="-3.693387">
        <ele>945.114</ele>
        <time>2015-02-15T09:44:26Z</time>
      </trkpt>
      <trkpt lat="40.711612" lon="-3.693353">
        <ele>945.007</ele>
        <time>2015-02-15T09:44:29Z</time>
      </trkpt>
      <trkpt lat="40.711649" lon="-3.693316">
        <ele>944.930</ele>
        <time>2015-02-15T09:44:33Z</time>
      </trkpt>
      <trkpt lat="40.711678" lon="-3.693292">
        <ele>944.930</ele>
        <time>2015-02-15T09:44:34Z</time>
      </trkpt>
      <trkpt lat="40.711715" lon="-3.693264">
        <ele>945.099</ele>
        <time>2015-02-15T09:44:38Z</time>
      </trkpt>
      <trkpt lat="40.711746" lon="-3.693230">
        <ele>945.123</ele>
        <time>2015-02-15T09:44:41Z</time>
      </trkpt>
      <trkpt lat="40.711775" lon="-3.693203">
        <ele>945.242</ele>
        <time>2015-02-15T09:44:44Z</time>
      </trkpt>
      <trkpt lat="40.711809" lon="-3.693173">
        <ele>945.448</ele>
        <time>2015-02-15T09:44:47Z</time>
      </trkpt>
      <trkpt lat="40.711846" lon="-3.693138">
        <ele>945.899</ele>
        <time>2015-02-15T09:44:50Z</time>
      </trkpt>
      <trkpt lat="40.711880" lon="-3.693103">
        <ele>946.383</ele>
        <time>2015-02-15T09:44:53Z</time>
      </trkpt>
      <trkpt lat="40.711908" lon="-3.693065">
        <ele>946.825</ele>
        <time>2015-02-15T09:44:56Z</time>
      </trkpt>
      <trkpt lat="40.711923" lon="-3.693063">
        <ele>947.017</ele>
        <time>2015-02-15T09:44:57Z</time>
      </trkpt>
      <trkpt lat="40.711968" lon="-3.693016">
        <ele>947.507</ele>
        <time>2015-02-15T09:45:00Z</time>
      </trkpt>
      <trkpt lat="40.712018" lon="-3.692975">
        <ele>948.156</ele>
        <time>2015-02-15T09:45:03Z</time>
      </trkpt>
      <trkpt lat="40.712032" lon="-3.692962">
        <ele>948.246</ele>
        <time>2015-02-15T09:45:04Z</time>
      </trkpt>
      <trkpt lat="40.712067" lon="-3.692930">
        <ele>948.915</ele>
        <time>2015-02-15T09:45:07Z</time>
      </trkpt>
      <trkpt lat="40.712108" lon="-3.692894">
        <ele>949.669</ele>
        <time>2015-02-15T09:45:10Z</time>
      </trkpt>
      <trkpt lat="40.712142" lon="-3.692858">
        <ele>950.388</ele>
        <time>2015-02-15T09:45:13Z</time>
      </trkpt>
      <trkpt lat="40.712176" lon="-3.692818">
        <ele>950.984</ele>
        <time>2015-02-15T09:45:16Z</time>
      </trkpt>
      <trkpt lat="40.712213" lon="-3.692768">
        <ele>951.625</ele>
        <time>2015-02-15T09:45:19Z</time>
      </trkpt>
      <trkpt lat="40.712235" lon="-3.692739">
        <ele>952.156</ele>
        <time>2015-02-15T09:45:21Z</time>
      </trkpt>
      <trkpt lat="40.712261" lon="-3.692689">
        <ele>952.759</ele>
        <time>2015-02-15T09:45:24Z</time>
      </trkpt>
      <trkpt lat="40.712282" lon="-3.692642">
        <ele>953.214</ele>
        <time>2015-02-15T09:45:27Z</time>
      </trkpt>
      <trkpt lat="40.712310" lon="-3.692596">
        <ele>953.707</ele>
        <time>2015-02-15T09:45:30Z</time>
      </trkpt>
      <trkpt lat="40.712334" lon="-3.692572">
        <ele>954.143</ele>
        <time>2015-02-15T09:45:32Z</time>
      </trkpt>
      <trkpt lat="40.712346" lon="-3.692561">
        <ele>954.273</ele>
        <time>2015-02-15T09:45:33Z</time>
      </trkpt>
      <trkpt lat="40.712363" lon="-3.692540">
        <ele>954.692</ele>
        <time>2015-02-15T09:45:35Z</time>
      </trkpt>
      <trkpt lat="40.712375" lon="-3.692519">
        <ele>955.046</ele>
        <time>2015-02-15T09:45:37Z</time>
      </trkpt>
      <trkpt lat="40.712407" lon="-3.692491">
        <ele>955.555</ele>
        <time>2015-02-15T09:45:40Z</time>
      </trkpt>
      <trkpt lat="40.712431" lon="-3.692466">
        <ele>956.171</ele>
        <time>2015-02-15T09:45:43Z</time>
      </trkpt>
      <trkpt lat="40.712441" lon="-3.692457">
        <ele>956.322</ele>
        <time>2015-02-15T09:45:44Z</time>
      </trkpt>
      <trkpt lat="40.712477" lon="-3.692416">
        <ele>957.149</ele>
        <time>2015-02-15T09:45:48Z</time>
      </trkpt>
      <trkpt lat="40.712510" lon="-3.692392">
        <ele>957.602</ele>
        <time>2015-02-15T09:45:51Z</time>
      </trkpt>
      <trkpt lat="40.712537" lon="-3.692352">
        <ele>958.122</ele>
        <time>2015-02-15T09:45:54Z</time>
      </trkpt>
      <trkpt lat="40.712553" lon="-3.692324">
        <ele>958.407</ele>
        <time>2015-02-15T09:45:56Z</time>
      </trkpt>
      <trkpt lat="40.712568" lon="-3.692295">
        <ele>958.832</ele>
        <time>2015-02-15T09:45:58Z</time>
      </trkpt>
      <trkpt lat="40.712588" lon="-3.692270">
        <ele>959.282</ele>
        <time>2015-02-15T09:46:00Z</time>
      </trkpt>
      <trkpt lat="40.712606" lon="-3.692245">
        <ele>959.511</ele>
        <time>2015-02-15T09:46:02Z</time>
      </trkpt>
      <trkpt lat="40.712625" lon="-3.692210">
        <ele>960.135</ele>
        <time>2015-02-15T09:46:06Z</time>
      </trkpt>
      <trkpt lat="40.712631" lon="-3.692192">
        <ele>960.264</ele>
        <time>2015-02-15T09:46:07Z</time>
      </trkpt>
      <trkpt lat="40.712658" lon="-3.692151">
        <ele>960.740</ele>
        <time>2015-02-15T09:46:10Z</time>
      </trkpt>
      <trkpt lat="40.712681" lon="-3.692102">
        <ele>961.291</ele>
        <time>2015-02-15T09:46:13Z</time>
      </trkpt>
      <trkpt lat="40.712710" lon="-3.692054">
        <ele>961.683</ele>
        <time>2015-02-15T09:46:16Z</time>
      </trkpt>
      <trkpt lat="40.712736" lon="-3.692004">
        <ele>962.025</ele>
        <time>2015-02-15T09:46:19Z</time>
      </trkpt>
      <trkpt lat="40.712748" lon="-3.691984">
        <ele>962.217</ele>
        <time>2015-02-15T09:46:20Z</time>
      </trkpt>
      <trkpt lat="40.712763" lon="-3.691945">
        <ele>962.407</ele>
        <time>2015-02-15T09:46:22Z</time>
      </trkpt>
      <trkpt lat="40.712768" lon="-3.691924">
        <ele>962.666</ele>
        <time>2015-02-15T09:46:23Z</time>
      </trkpt>
      <trkpt lat="40.712795" lon="-3.691871">
        <ele>963.046</ele>
        <time>2015-02-15T09:46:26Z</time>
      </trkpt>
      <trkpt lat="40.712813" lon="-3.691797">
        <ele>963.485</ele>
        <time>2015-02-15T09:46:29Z</time>
      </trkpt>
      <trkpt lat="40.712833" lon="-3.691744">
        <ele>963.839</ele>
        <time>2015-02-15T09:46:32Z</time>
      </trkpt>
      <trkpt lat="40.712853" lon="-3.691691">
        <ele>964.288</ele>
        <time>2015-02-15T09:46:35Z</time>
      </trkpt>
      <trkpt lat="40.712870" lon="-3.691637">
        <ele>964.664</ele>
        <time>2015-02-15T09:46:38Z</time>
      </trkpt>
      <trkpt lat="40.712888" lon="-3.691580">
        <ele>965.065</ele>
        <time>2015-02-15T09:46:41Z</time>
      </trkpt>
      <trkpt lat="40.712909" lon="-3.691545">
        <ele>965.341</ele>
        <time>2015-02-15T09:46:43Z</time>
      </trkpt>
      <trkpt lat="40.712933" lon="-3.691490">
        <ele>965.681</ele>
        <time>2015-02-15T09:46:46Z</time>
      </trkpt>
      <trkpt lat="40.712960" lon="-3.691435">
        <ele>965.909</ele>
        <time>2015-02-15T09:46:49Z</time>
      </trkpt>
      <trkpt lat="40.712962" lon="-3.691413">
        <ele>966.007</ele>
        <time>2015-02-15T09:46:50Z</time>
      </trkpt>
      <trkpt lat="40.712978" lon="-3.691359">
        <ele>966.392</ele>
        <time>2015-02-15T09:46:53Z</time>
      </trkpt>
      <trkpt lat="40.712986" lon="-3.691323">
        <ele>966.552</ele>
        <time>2015-02-15T09:46:55Z</time>
      </trkpt>
      <trkpt lat="40.713008" lon="-3.691289">
        <ele>966.771</ele>
        <time>2015-02-15T09:46:57Z</time>
      </trkpt>
      <trkpt lat="40.713028" lon="-3.691259">
        <ele>966.975</ele>
        <time>2015-02-15T09:46:59Z</time>
      </trkpt>
      <trkpt lat="40.713048" lon="-3.691224">
        <ele>967.164</ele>
        <time>2015-02-15T09:47:01Z</time>
      </trkpt>
      <trkpt lat="40.713054" lon="-3.691199">
        <ele>967.370</ele>
        <time>2015-02-15T09:47:02Z</time>
      </trkpt>
      <trkpt lat="40.713065" lon="-3.691171">
        <ele>967.491</ele>
        <time>2015-02-15T09:47:03Z</time>
      </trkpt>
      <trkpt lat="40.713084" lon="-3.691111">
        <ele>967.683</ele>
        <time>2015-02-15T09:47:05Z</time>
      </trkpt>
      <trkpt lat="40.713126" lon="-3.690995">
        <ele>968.125</ele>
        <time>2015-02-15T09:47:09Z</time>
      </trkpt>
      <trkpt lat="40.713168" lon="-3.690894">
        <ele>968.417</ele>
        <time>2015-02-15T09:47:12Z</time>
      </trkpt>
      <trkpt lat="40.713182" lon="-3.690850">
        <ele>968.507</ele>
        <time>2015-02-15T09:47:13Z</time>
      </trkpt>
      <trkpt lat="40.713219" lon="-3.690747">
        <ele>968.756</ele>
        <time>2015-02-15T09:47:15Z</time>
      </trkpt>
      <trkpt lat="40.713273" lon="-3.690601">
        <ele>968.816</ele>
        <time>2015-02-15T09:47:18Z</time>
      </trkpt>
      <trkpt lat="40.713308" lon="-3.690503">
        <ele>968.915</ele>
        <time>2015-02-15T09:47:20Z</time>
      </trkpt>
      <trkpt lat="40.713320" lon="-3.690465">
        <ele>969.099</ele>
        <time>2015-02-15T09:47:21Z</time>
      </trkpt>
      <trkpt lat="40.713329" lon="-3.690422">
        <ele>969.138</ele>
        <time>2015-02-15T09:47:22Z</time>
      </trkpt>
      <trkpt lat="40.713340" lon="-3.690385">
        <ele>969.134</ele>
        <time>2015-02-15T09:47:24Z</time>
      </trkpt>
      <trkpt lat="40.713363" lon="-3.690285">
        <ele>969.335</ele>
        <time>2015-02-15T09:47:27Z</time>
      </trkpt>
      <trkpt lat="40.713393" lon="-3.690190">
        <ele>969.339</ele>
        <time>2015-02-15T09:47:30Z</time>
      </trkpt>
      <trkpt lat="40.713404" lon="-3.690123">
        <ele>969.301</ele>
        <time>2015-02-15T09:47:32Z</time>
      </trkpt>
      <trkpt lat="40.713433" lon="-3.690027">
        <ele>969.421</ele>
        <time>2015-02-15T09:47:35Z</time>
      </trkpt>
      <trkpt lat="40.713447" lon="-3.689963">
        <ele>969.407</ele>
        <time>2015-02-15T09:47:37Z</time>
      </trkpt>
      <trkpt lat="40.713466" lon="-3.689876">
        <ele>969.471</ele>
        <time>2015-02-15T09:47:40Z</time>
      </trkpt>
      <trkpt lat="40.713486" lon="-3.689740">
        <ele>969.461</ele>
        <time>2015-02-15T09:47:43Z</time>
      </trkpt>
      <trkpt lat="40.713501" lon="-3.689681">
        <ele>969.490</ele>
        <time>2015-02-15T09:47:45Z</time>
      </trkpt>
      <trkpt lat="40.713517" lon="-3.689623">
        <ele>969.524</ele>
        <time>2015-02-15T09:47:47Z</time>
      </trkpt>
      <trkpt lat="40.713517" lon="-3.689595">
        <ele>969.523</ele>
        <time>2015-02-15T09:47:48Z</time>
      </trkpt>
      <trkpt lat="40.713527" lon="-3.689532">
        <ele>969.599</ele>
        <time>2015-02-15T09:47:50Z</time>
      </trkpt>
      <trkpt lat="40.713534" lon="-3.689500">
        <ele>969.690</ele>
        <time>2015-02-15T09:47:51Z</time>
      </trkpt>
      <trkpt lat="40.713560" lon="-3.689406">
        <ele>969.682</ele>
        <time>2015-02-15T09:47:54Z</time>
      </trkpt>
      <trkpt lat="40.713595" lon="-3.689274">
        <ele>969.643</ele>
        <time>2015-02-15T09:47:58Z</time>
      </trkpt>
      <trkpt lat="40.713615" lon="-3.689220">
        <ele>969.617</ele>
        <time>2015-02-15T09:48:00Z</time>
      </trkpt>
      <trkpt lat="40.713641" lon="-3.689167">
        <ele>969.607</ele>
        <time>2015-02-15T09:48:02Z</time>
      </trkpt>
      <trkpt lat="40.713679" lon="-3.689081">
        <ele>969.686</ele>
        <time>2015-02-15T09:48:05Z</time>
      </trkpt>
      <trkpt lat="40.713695" lon="-3.689060">
        <ele>969.666</ele>
        <time>2015-02-15T09:48:06Z</time>
      </trkpt>
      <trkpt lat="40.713712" lon="-3.689038">
        <ele>969.665</ele>
        <time>2015-02-15T09:48:07Z</time>
      </trkpt>
      <trkpt lat="40.713729" lon="-3.688984">
        <ele>969.679</ele>
        <time>2015-02-15T09:48:09Z</time>
      </trkpt>
      <trkpt lat="40.713741" lon="-3.688960">
        <ele>969.618</ele>
        <time>2015-02-15T09:48:10Z</time>
      </trkpt>
      <trkpt lat="40.713762" lon="-3.688932">
        <ele>969.574</ele>
        <time>2015-02-15T09:48:11Z</time>
      </trkpt>
      <trkpt lat="40.713773" lon="-3.688902">
        <ele>969.645</ele>
        <time>2015-02-15T09:48:12Z</time>
      </trkpt>
      <trkpt lat="40.713772" lon="-3.688872">
        <ele>969.656</ele>
        <time>2015-02-15T09:48:13Z</time>
      </trkpt>
      <trkpt lat="40.713774" lon="-3.688849">
        <ele>969.659</ele>
        <time>2015-02-15T09:48:14Z</time>
      </trkpt>
      <trkpt lat="40.713788" lon="-3.688819">
        <ele>969.614</ele>
        <time>2015-02-15T09:48:15Z</time>
      </trkpt>
      <trkpt lat="40.713800" lon="-3.688794">
        <ele>969.607</ele>
        <time>2015-02-15T09:48:16Z</time>
      </trkpt>
      <trkpt lat="40.713811" lon="-3.688769">
        <ele>969.653</ele>
        <time>2015-02-15T09:48:17Z</time>
      </trkpt>
      <trkpt lat="40.713823" lon="-3.688743">
        <ele>969.733</ele>
        <time>2015-02-15T09:48:18Z</time>
      </trkpt>
      <trkpt lat="40.713868" lon="-3.688664">
        <ele>969.892</ele>
        <time>2015-02-15T09:48:21Z</time>
      </trkpt>
      <trkpt lat="40.713893" lon="-3.688614">
        <ele>969.926</ele>
        <time>2015-02-15T09:48:23Z</time>
      </trkpt>
      <trkpt lat="40.713928" lon="-3.688536">
        <ele>970.015</ele>
        <time>2015-02-15T09:48:26Z</time>
      </trkpt>
      <trkpt lat="40.713972" lon="-3.688456">
        <ele>970.381</ele>
        <time>2015-02-15T09:48:29Z</time>
      </trkpt>
      <trkpt lat="40.714004" lon="-3.688412">
        <ele>970.562</ele>
        <time>2015-02-15T09:48:31Z</time>
      </trkpt>
      <trkpt lat="40.714060" lon="-3.688357">
        <ele>970.866</ele>
        <time>2015-02-15T09:48:35Z</time>
      </trkpt>
      <trkpt lat="40.714080" lon="-3.688342">
        <ele>970.929</ele>
        <time>2015-02-15T09:48:36Z</time>
      </trkpt>
      <trkpt lat="40.714124" lon="-3.688313">
        <ele>971.221</ele>
        <time>2015-02-15T09:48:38Z</time>
      </trkpt>
      <trkpt lat="40.714144" lon="-3.688303">
        <ele>971.307</ele>
        <time>2015-02-15T09:48:39Z</time>
      </trkpt>
      <trkpt lat="40.714211" lon="-3.688271">
        <ele>971.784</ele>
        <time>2015-02-15T09:48:42Z</time>
      </trkpt>
      <trkpt lat="40.714278" lon="-3.688239">
        <ele>972.064</ele>
        <time>2015-02-15T09:48:45Z</time>
      </trkpt>
      <trkpt lat="40.714320" lon="-3.688220">
        <ele>972.113</ele>
        <time>2015-02-15T09:48:46Z</time>
      </trkpt>
      <trkpt lat="40.714419" lon="-3.688166">
        <ele>972.347</ele>
        <time>2015-02-15T09:48:49Z</time>
      </trkpt>
      <trkpt lat="40.714479" lon="-3.688110">
        <ele>972.576</ele>
        <time>2015-02-15T09:48:51Z</time>
      </trkpt>
      <trkpt lat="40.714497" lon="-3.688057">
        <ele>972.582</ele>
        <time>2015-02-15T09:48:52Z</time>
      </trkpt>
      <trkpt lat="40.714551" lon="-3.687951">
        <ele>972.613</ele>
        <time>2015-02-15T09:48:53Z</time>
      </trkpt>
      <trkpt lat="40.714567" lon="-3.687891">
        <ele>972.744</ele>
        <time>2015-02-15T09:48:54Z</time>
      </trkpt>
      <trkpt lat="40.714606" lon="-3.687772">
        <ele>972.705</ele>
        <time>2015-02-15T09:48:56Z</time>
      </trkpt>
      <trkpt lat="40.714625" lon="-3.687727">
        <ele>972.715</ele>
        <time>2015-02-15T09:48:57Z</time>
      </trkpt>
      <trkpt lat="40.714647" lon="-3.687682">
        <ele>972.707</ele>
        <time>2015-02-15T09:48:58Z</time>
      </trkpt>
      <trkpt lat="40.714682" lon="-3.687646">
        <ele>972.792</ele>
        <time>2015-02-15T09:48:59Z</time>
      </trkpt>
      <trkpt lat="40.714741" lon="-3.687597">
        <ele>972.712</ele>
        <time>2015-02-15T09:49:00Z</time>
      </trkpt>
      <trkpt lat="40.714795" lon="-3.687578">
        <ele>972.721</ele>
        <time>2015-02-15T09:49:01Z</time>
      </trkpt>
      <trkpt lat="40.714857" lon="-3.687585">
        <ele>972.655</ele>
        <time>2015-02-15T09:49:02Z</time>
      </trkpt>
      <trkpt lat="40.714922" lon="-3.687575">
        <ele>972.624</ele>
        <time>2015-02-15T09:49:03Z</time>
      </trkpt>
      <trkpt lat="40.714994" lon="-3.687566">
        <ele>972.510</ele>
        <time>2015-02-15T09:49:04Z</time>
      </trkpt>
      <trkpt lat="40.715126" lon="-3.687530">
        <ele>972.261</ele>
        <time>2015-02-15T09:49:06Z</time>
      </trkpt>
      <trkpt lat="40.715192" lon="-3.687498">
        <ele>972.161</ele>
        <time>2015-02-15T09:49:07Z</time>
      </trkpt>
      <trkpt lat="40.715260" lon="-3.687450">
        <ele>971.921</ele>
        <time>2015-02-15T09:49:08Z</time>
      </trkpt>
      <trkpt lat="40.715397" lon="-3.687373">
        <ele>971.613</ele>
        <time>2015-02-15T09:49:10Z</time>
      </trkpt>
      <trkpt lat="40.715463" lon="-3.687334">
        <ele>971.407</ele>
        <time>2015-02-15T09:49:11Z</time>
      </trkpt>
      <trkpt lat="40.715522" lon="-3.687305">
        <ele>971.284</ele>
        <time>2015-02-15T09:49:12Z</time>
      </trkpt>
      <trkpt lat="40.715640" lon="-3.687243">
        <ele>970.984</ele>
        <time>2015-02-15T09:49:14Z</time>
      </trkpt>
      <trkpt lat="40.715692" lon="-3.687213">
        <ele>970.743</ele>
        <time>2015-02-15T09:49:15Z</time>
      </trkpt>
      <trkpt lat="40.715827" lon="-3.687118">
        <ele>970.217</ele>
        <time>2015-02-15T09:49:18Z</time>
      </trkpt>
      <trkpt lat="40.715858" lon="-3.687074">
        <ele>970.056</ele>
        <time>2015-02-15T09:49:19Z</time>
      </trkpt>
      <trkpt lat="40.715889" lon="-3.687028">
        <ele>969.882</ele>
        <time>2015-02-15T09:49:20Z</time>
      </trkpt>
      <trkpt lat="40.715915" lon="-3.686987">
        <ele>969.733</ele>
        <time>2015-02-15T09:49:21Z</time>
      </trkpt>
      <trkpt lat="40.715933" lon="-3.686954">
        <ele>969.519</ele>
        <time>2015-02-15T09:49:22Z</time>
      </trkpt>
      <trkpt lat="40.715946" lon="-3.686925">
        <ele>969.309</ele>
        <time>2015-02-15T09:49:23Z</time>
      </trkpt>
      <trkpt lat="40.715951" lon="-3.686897">
        <ele>969.119</ele>
        <time>2015-02-15T09:49:24Z</time>
      </trkpt>
      <trkpt lat="40.715957" lon="-3.686869">
        <ele>969.007</ele>
        <time>2015-02-15T09:49:25Z</time>
      </trkpt>
      <trkpt lat="40.715986" lon="-3.686808">
        <ele>968.619</ele>
        <time>2015-02-15T09:49:27Z</time>
      </trkpt>
      <trkpt lat="40.716004" lon="-3.686758">
        <ele>968.279</ele>
        <time>2015-02-15T09:49:29Z</time>
      </trkpt>
      <trkpt lat="40.716030" lon="-3.686708">
        <ele>967.718</ele>
        <time>2015-02-15T09:49:31Z</time>
      </trkpt>
      <trkpt lat="40.716043" lon="-3.686684">
        <ele>967.612</ele>
        <time>2015-02-15T09:49:32Z</time>
      </trkpt>
      <trkpt lat="40.716065" lon="-3.686629">
        <ele>967.231</ele>
        <time>2015-02-15T09:49:34Z</time>
      </trkpt>
      <trkpt lat="40.716097" lon="-3.686586">
        <ele>966.857</ele>
        <time>2015-02-15T09:49:36Z</time>
      </trkpt>
      <trkpt lat="40.716121" lon="-3.686536">
        <ele>966.498</ele>
        <time>2015-02-15T09:49:38Z</time>
      </trkpt>
      <trkpt lat="40.716134" lon="-3.686512">
        <ele>966.247</ele>
        <time>2015-02-15T09:49:39Z</time>
      </trkpt>
      <trkpt lat="40.716176" lon="-3.686435">
        <ele>965.629</ele>
        <time>2015-02-15T09:49:42Z</time>
      </trkpt>
      <trkpt lat="40.716226" lon="-3.686361">
        <ele>965.021</ele>
        <time>2015-02-15T09:49:45Z</time>
      </trkpt>
      <trkpt lat="40.716279" lon="-3.686283">
        <ele>964.507</ele>
        <time>2015-02-15T09:49:48Z</time>
      </trkpt>
      <trkpt lat="40.716305" lon="-3.686232">
        <ele>964.172</ele>
        <time>2015-02-15T09:49:51Z</time>
      </trkpt>
      <trkpt lat="40.716349" lon="-3.686136">
        <ele>963.532</ele>
        <time>2015-02-15T09:49:55Z</time>
      </trkpt>
      <trkpt lat="40.716387" lon="-3.686060">
        <ele>963.211</ele>
        <time>2015-02-15T09:49:58Z</time>
      </trkpt>
      <trkpt lat="40.716406" lon="-3.686007">
        <ele>963.065</ele>
        <time>2015-02-15T09:50:00Z</time>
      </trkpt>
      <trkpt lat="40.716435" lon="-3.685960">
        <ele>962.984</ele>
        <time>2015-02-15T09:50:02Z</time>
      </trkpt>
      <trkpt lat="40.716468" lon="-3.685907">
        <ele>962.890</ele>
        <time>2015-02-15T09:50:04Z</time>
      </trkpt>
      <trkpt lat="40.716502" lon="-3.685859">
        <ele>962.891</ele>
        <time>2015-02-15T09:50:06Z</time>
      </trkpt>
      <trkpt lat="40.716541" lon="-3.685812">
        <ele>962.817</ele>
        <time>2015-02-15T09:50:08Z</time>
      </trkpt>
      <trkpt lat="40.716552" lon="-3.685789">
        <ele>962.987</ele>
        <time>2015-02-15T09:50:09Z</time>
      </trkpt>
      <trkpt lat="40.716581" lon="-3.685741">
        <ele>963.015</ele>
        <time>2015-02-15T09:50:11Z</time>
      </trkpt>
      <trkpt lat="40.716644" lon="-3.685623">
        <ele>963.207</ele>
        <time>2015-02-15T09:50:15Z</time>
      </trkpt>
      <trkpt lat="40.716688" lon="-3.685551">
        <ele>963.429</ele>
        <time>2015-02-15T09:50:18Z</time>
      </trkpt>
      <trkpt lat="40.716734" lon="-3.685481">
        <ele>963.779</ele>
        <time>2015-02-15T09:50:21Z</time>
      </trkpt>
      <trkpt lat="40.716783" lon="-3.685414">
        <ele>964.058</ele>
        <time>2015-02-15T09:50:24Z</time>
      </trkpt>
      <trkpt lat="40.716806" lon="-3.685372">
        <ele>964.252</ele>
        <time>2015-02-15T09:50:26Z</time>
      </trkpt>
      <trkpt lat="40.716845" lon="-3.685310">
        <ele>964.651</ele>
        <time>2015-02-15T09:50:29Z</time>
      </trkpt>
      <trkpt lat="40.716878" lon="-3.685268">
        <ele>964.837</ele>
        <time>2015-02-15T09:50:31Z</time>
      </trkpt>
      <trkpt lat="40.716923" lon="-3.685209">
        <ele>965.248</ele>
        <time>2015-02-15T09:50:34Z</time>
      </trkpt>
      <trkpt lat="40.716959" lon="-3.685150">
        <ele>965.555</ele>
        <time>2015-02-15T09:50:37Z</time>
      </trkpt>
      <trkpt lat="40.716989" lon="-3.685096">
        <ele>965.907</ele>
        <time>2015-02-15T09:50:40Z</time>
      </trkpt>
      <trkpt lat="40.717028" lon="-3.685031">
        <ele>966.217</ele>
        <time>2015-02-15T09:50:43Z</time>
      </trkpt>
      <trkpt lat="40.717072" lon="-3.684959">
        <ele>966.507</ele>
        <time>2015-02-15T09:50:46Z</time>
      </trkpt>
      <trkpt lat="40.717111" lon="-3.684902">
        <ele>966.943</ele>
        <time>2015-02-15T09:50:49Z</time>
      </trkpt>
      <trkpt lat="40.717147" lon="-3.684835">
        <ele>967.233</ele>
        <time>2015-02-15T09:50:52Z</time>
      </trkpt>
      <trkpt lat="40.717177" lon="-3.684772">
        <ele>967.672</ele>
        <time>2015-02-15T09:50:55Z</time>
      </trkpt>
      <trkpt lat="40.717211" lon="-3.684705">
        <ele>968.076</ele>
        <time>2015-02-15T09:50:58Z</time>
      </trkpt>
      <trkpt lat="40.717241" lon="-3.684642">
        <ele>968.435</ele>
        <time>2015-02-15T09:51:01Z</time>
      </trkpt>
      <trkpt lat="40.717273" lon="-3.684569">
        <ele>968.891</ele>
        <time>2015-02-15T09:51:04Z</time>
      </trkpt>
      <trkpt lat="40.717288" lon="-3.684519">
        <ele>969.112</ele>
        <time>2015-02-15T09:51:06Z</time>
      </trkpt>
      <trkpt lat="40.717314" lon="-3.684448">
        <ele>969.681</ele>
        <time>2015-02-15T09:51:09Z</time>
      </trkpt>
      <trkpt lat="40.717333" lon="-3.684372">
        <ele>970.161</ele>
        <time>2015-02-15T09:51:12Z</time>
      </trkpt>
      <trkpt lat="40.717343" lon="-3.684310">
        <ele>970.517</ele>
        <time>2015-02-15T09:51:14Z</time>
      </trkpt>
      <trkpt lat="40.717361" lon="-3.684220">
        <ele>970.907</ele>
        <time>2015-02-15T09:51:18Z</time>
      </trkpt>
      <trkpt lat="40.717384" lon="-3.684142">
        <ele>971.566</ele>
        <time>2015-02-15T09:51:21Z</time>
      </trkpt>
      <trkpt lat="40.717393" lon="-3.684125">
        <ele>971.776</ele>
        <time>2015-02-15T09:51:22Z</time>
      </trkpt>
      <trkpt lat="40.717404" lon="-3.684105">
        <ele>971.835</ele>
        <time>2015-02-15T09:51:23Z</time>
      </trkpt>
      <trkpt lat="40.717436" lon="-3.684043">
        <ele>972.329</ele>
        <time>2015-02-15T09:51:26Z</time>
      </trkpt>
      <trkpt lat="40.717465" lon="-3.684008">
        <ele>972.618</ele>
        <time>2015-02-15T09:51:28Z</time>
      </trkpt>
      <trkpt lat="40.717492" lon="-3.683978">
        <ele>972.844</ele>
        <time>2015-02-15T09:51:29Z</time>
      </trkpt>
      <trkpt lat="40.717523" lon="-3.683937">
        <ele>973.295</ele>
        <time>2015-02-15T09:51:32Z</time>
      </trkpt>
      <trkpt lat="40.717564" lon="-3.683884">
        <ele>973.617</ele>
        <time>2015-02-15T09:51:35Z</time>
      </trkpt>
      <trkpt lat="40.717578" lon="-3.683848">
        <ele>973.887</ele>
        <time>2015-02-15T09:51:37Z</time>
      </trkpt>
      <trkpt lat="40.717578" lon="-3.683834">
        <ele>974.015</ele>
        <time>2015-02-15T09:51:38Z</time>
      </trkpt>
      <trkpt lat="40.717634" lon="-3.683762">
        <ele>974.407</ele>
        <time>2015-02-15T09:51:42Z</time>
      </trkpt>
      <trkpt lat="40.717649" lon="-3.683745">
        <ele>974.569</ele>
        <time>2015-02-15T09:51:43Z</time>
      </trkpt>
      <trkpt lat="40.717658" lon="-3.683724">
        <ele>974.729</ele>
        <time>2015-02-15T09:51:44Z</time>
      </trkpt>
      <trkpt lat="40.717685" lon="-3.683673">
        <ele>975.028</ele>
        <time>2015-02-15T09:51:47Z</time>
      </trkpt>
      <trkpt lat="40.717723" lon="-3.683616">
        <ele>975.452</ele>
        <time>2015-02-15T09:51:50Z</time>
      </trkpt>
      <trkpt lat="40.717747" lon="-3.683579">
        <ele>975.761</ele>
        <time>2015-02-15T09:51:52Z</time>
      </trkpt>
      <trkpt lat="40.717761" lon="-3.683544">
        <ele>976.097</ele>
        <time>2015-02-15T09:51:54Z</time>
      </trkpt>
      <trkpt lat="40.717776" lon="-3.683503">
        <ele>976.368</ele>
        <time>2015-02-15T09:51:56Z</time>
      </trkpt>
      <trkpt lat="40.717776" lon="-3.683482">
        <ele>976.493</ele>
        <time>2015-02-15T09:51:57Z</time>
      </trkpt>
      <trkpt lat="40.717783" lon="-3.683460">
        <ele>976.665</ele>
        <time>2015-02-15T09:51:58Z</time>
      </trkpt>
      <trkpt lat="40.717788" lon="-3.683396">
        <ele>976.921</ele>
        <time>2015-02-15T09:52:01Z</time>
      </trkpt>
      <trkpt lat="40.717792" lon="-3.683351">
        <ele>977.207</ele>
        <time>2015-02-15T09:52:03Z</time>
      </trkpt>
      <trkpt lat="40.717809" lon="-3.683287">
        <ele>977.657</ele>
        <time>2015-02-15T09:52:06Z</time>
      </trkpt>
      <trkpt lat="40.717822" lon="-3.683244">
        <ele>977.957</ele>
        <time>2015-02-15T09:52:08Z</time>
      </trkpt>
      <trkpt lat="40.717835" lon="-3.683183">
        <ele>978.346</ele>
        <time>2015-02-15T09:52:11Z</time>
      </trkpt>
      <trkpt lat="40.717862" lon="-3.683096">
        <ele>978.960</ele>
        <time>2015-02-15T09:52:15Z</time>
      </trkpt>
      <trkpt lat="40.717884" lon="-3.683031">
        <ele>979.389</ele>
        <time>2015-02-15T09:52:18Z</time>
      </trkpt>
      <trkpt lat="40.717901" lon="-3.682996">
        <ele>979.695</ele>
        <time>2015-02-15T09:52:20Z</time>
      </trkpt>
      <trkpt lat="40.717933" lon="-3.682933">
        <ele>980.046</ele>
        <time>2015-02-15T09:52:23Z</time>
      </trkpt>
      <trkpt lat="40.717960" lon="-3.682868">
        <ele>980.558</ele>
        <time>2015-02-15T09:52:26Z</time>
      </trkpt>
      <trkpt lat="40.717975" lon="-3.682825">
        <ele>980.852</ele>
        <time>2015-02-15T09:52:28Z</time>
      </trkpt>
      <trkpt lat="40.718003" lon="-3.682759">
        <ele>981.317</ele>
        <time>2015-02-15T09:52:32Z</time>
      </trkpt>
      <trkpt lat="40.718043" lon="-3.682677">
        <ele>982.007</ele>
        <time>2015-02-15T09:52:36Z</time>
      </trkpt>
      <trkpt lat="40.718077" lon="-3.682621">
        <ele>982.553</ele>
        <time>2015-02-15T09:52:39Z</time>
      </trkpt>
      <trkpt lat="40.718110" lon="-3.682562">
        <ele>982.913</ele>
        <time>2015-02-15T09:52:42Z</time>
      </trkpt>
      <trkpt lat="40.718148" lon="-3.682497">
        <ele>983.492</ele>
        <time>2015-02-15T09:52:45Z</time>
      </trkpt>
      <trkpt lat="40.718203" lon="-3.682394">
        <ele>983.946</ele>
        <time>2015-02-15T09:52:49Z</time>
      </trkpt>
      <trkpt lat="40.718241" lon="-3.682330">
        <ele>984.295</ele>
        <time>2015-02-15T09:52:52Z</time>
      </trkpt>
      <trkpt lat="40.718284" lon="-3.682245">
        <ele>984.441</ele>
        <time>2015-02-15T09:52:56Z</time>
      </trkpt>
      <trkpt lat="40.718318" lon="-3.682180">
        <ele>984.762</ele>
        <time>2015-02-15T09:52:59Z</time>
      </trkpt>
      <trkpt lat="40.718340" lon="-3.682109">
        <ele>984.962</ele>
        <time>2015-02-15T09:53:02Z</time>
      </trkpt>
      <trkpt lat="40.718372" lon="-3.682047">
        <ele>985.283</ele>
        <time>2015-02-15T09:53:05Z</time>
      </trkpt>
      <trkpt lat="40.718408" lon="-3.681955">
        <ele>985.511</ele>
        <time>2015-02-15T09:53:09Z</time>
      </trkpt>
      <trkpt lat="40.718423" lon="-3.681882">
        <ele>985.807</ele>
        <time>2015-02-15T09:53:12Z</time>
      </trkpt>
      <trkpt lat="40.718445" lon="-3.681812">
        <ele>986.164</ele>
        <time>2015-02-15T09:53:15Z</time>
      </trkpt>
      <trkpt lat="40.718456" lon="-3.681788">
        <ele>986.194</ele>
        <time>2015-02-15T09:53:16Z</time>
      </trkpt>
      <trkpt lat="40.718478" lon="-3.681739">
        <ele>986.383</ele>
        <time>2015-02-15T09:53:18Z</time>
      </trkpt>
      <trkpt lat="40.718492" lon="-3.681716">
        <ele>986.447</ele>
        <time>2015-02-15T09:53:19Z</time>
      </trkpt>
      <trkpt lat="40.718504" lon="-3.681671">
        <ele>986.596</ele>
        <time>2015-02-15T09:53:21Z</time>
      </trkpt>
      <trkpt lat="40.718519" lon="-3.681632">
        <ele>986.772</ele>
        <time>2015-02-15T09:53:23Z</time>
      </trkpt>
      <trkpt lat="40.718543" lon="-3.681557">
        <ele>986.993</ele>
        <time>2015-02-15T09:53:26Z</time>
      </trkpt>
      <trkpt lat="40.718556" lon="-3.681510">
        <ele>987.048</ele>
        <time>2015-02-15T09:53:28Z</time>
      </trkpt>
      <trkpt lat="40.718571" lon="-3.681485">
        <ele>987.061</ele>
        <time>2015-02-15T09:53:29Z</time>
      </trkpt>
      <trkpt lat="40.718600" lon="-3.681429">
        <ele>987.117</ele>
        <time>2015-02-15T09:53:31Z</time>
      </trkpt>
      <trkpt lat="40.718617" lon="-3.681395">
        <ele>987.207</ele>
        <time>2015-02-15T09:53:32Z</time>
      </trkpt>
      <trkpt lat="40.718657" lon="-3.681334">
        <ele>987.232</ele>
        <time>2015-02-15T09:53:34Z</time>
      </trkpt>
      <trkpt lat="40.718713" lon="-3.681239">
        <ele>987.392</ele>
        <time>2015-02-15T09:53:37Z</time>
      </trkpt>
      <trkpt lat="40.718730" lon="-3.681204">
        <ele>987.311</ele>
        <time>2015-02-15T09:53:38Z</time>
      </trkpt>
      <trkpt lat="40.718775" lon="-3.681127">
        <ele>987.335</ele>
        <time>2015-02-15T09:53:40Z</time>
      </trkpt>
      <trkpt lat="40.718850" lon="-3.681013">
        <ele>987.414</ele>
        <time>2015-02-15T09:53:43Z</time>
      </trkpt>
      <trkpt lat="40.718905" lon="-3.680944">
        <ele>987.590</ele>
        <time>2015-02-15T09:53:45Z</time>
      </trkpt>
      <trkpt lat="40.718948" lon="-3.680880">
        <ele>987.661</ele>
        <time>2015-02-15T09:53:47Z</time>
      </trkpt>
      <trkpt lat="40.718987" lon="-3.680823">
        <ele>987.756</ele>
        <time>2015-02-15T09:53:49Z</time>
      </trkpt>
      <trkpt lat="40.719030" lon="-3.680770">
        <ele>987.859</ele>
        <time>2015-02-15T09:53:51Z</time>
      </trkpt>
      <trkpt lat="40.719041" lon="-3.680748">
        <ele>987.814</ele>
        <time>2015-02-15T09:53:52Z</time>
      </trkpt>
      <trkpt lat="40.719065" lon="-3.680705">
        <ele>988.007</ele>
        <time>2015-02-15T09:53:54Z</time>
      </trkpt>
      <trkpt lat="40.719073" lon="-3.680681">
        <ele>988.013</ele>
        <time>2015-02-15T09:53:55Z</time>
      </trkpt>
      <trkpt lat="40.719096" lon="-3.680632">
        <ele>988.163</ele>
        <time>2015-02-15T09:53:58Z</time>
      </trkpt>
      <trkpt lat="40.719126" lon="-3.680584">
        <ele>988.332</ele>
        <time>2015-02-15T09:54:00Z</time>
      </trkpt>
      <trkpt lat="40.719172" lon="-3.680505">
        <ele>988.546</ele>
        <time>2015-02-15T09:54:03Z</time>
      </trkpt>
      <trkpt lat="40.719206" lon="-3.680459">
        <ele>988.735</ele>
        <time>2015-02-15T09:54:05Z</time>
      </trkpt>
      <trkpt lat="40.719271" lon="-3.680356">
        <ele>989.031</ele>
        <time>2015-02-15T09:54:09Z</time>
      </trkpt>
      <trkpt lat="40.719290" lon="-3.680329">
        <ele>989.012</ele>
        <time>2015-02-15T09:54:10Z</time>
      </trkpt>
      <trkpt lat="40.719310" lon="-3.680300">
        <ele>989.137</ele>
        <time>2015-02-15T09:54:11Z</time>
      </trkpt>
      <trkpt lat="40.719388" lon="-3.680193">
        <ele>989.349</ele>
        <time>2015-02-15T09:54:15Z</time>
      </trkpt>
      <trkpt lat="40.719410" lon="-3.680161">
        <ele>989.313</ele>
        <time>2015-02-15T09:54:16Z</time>
      </trkpt>
      <trkpt lat="40.719504" lon="-3.680020">
        <ele>989.407</ele>
        <time>2015-02-15T09:54:19Z</time>
      </trkpt>
      <trkpt lat="40.719576" lon="-3.679904">
        <ele>989.471</ele>
        <time>2015-02-15T09:54:22Z</time>
      </trkpt>
      <trkpt lat="40.719640" lon="-3.679794">
        <ele>989.471</ele>
        <time>2015-02-15T09:54:25Z</time>
      </trkpt>
      <trkpt lat="40.719659" lon="-3.679765">
        <ele>989.490</ele>
        <time>2015-02-15T09:54:26Z</time>
      </trkpt>
      <trkpt lat="40.719696" lon="-3.679713">
        <ele>989.424</ele>
        <time>2015-02-15T09:54:28Z</time>
      </trkpt>
      <trkpt lat="40.719740" lon="-3.679652">
        <ele>989.453</ele>
        <time>2015-02-15T09:54:31Z</time>
      </trkpt>
      <trkpt lat="40.719776" lon="-3.679596">
        <ele>989.529</ele>
        <time>2015-02-15T09:54:34Z</time>
      </trkpt>
      <trkpt lat="40.719802" lon="-3.679550">
        <ele>989.670</ele>
        <time>2015-02-15T09:54:37Z</time>
      </trkpt>
      <trkpt lat="40.719829" lon="-3.679509">
        <ele>989.688</ele>
        <time>2015-02-15T09:54:39Z</time>
      </trkpt>
      <trkpt lat="40.719862" lon="-3.679457">
        <ele>989.624</ele>
        <time>2015-02-15T09:54:41Z</time>
      </trkpt>
      <trkpt lat="40.719907" lon="-3.679378">
        <ele>989.626</ele>
        <time>2015-02-15T09:54:44Z</time>
      </trkpt>
      <trkpt lat="40.719973" lon="-3.679276">
        <ele>989.507</ele>
        <time>2015-02-15T09:54:48Z</time>
      </trkpt>
      <trkpt lat="40.719993" lon="-3.679254">
        <ele>989.596</ele>
        <time>2015-02-15T09:54:49Z</time>
      </trkpt>
      <trkpt lat="40.720008" lon="-3.679233">
        <ele>989.546</ele>
        <time>2015-02-15T09:54:50Z</time>
      </trkpt>
      <trkpt lat="40.720060" lon="-3.679164">
        <ele>989.555</ele>
        <time>2015-02-15T09:54:54Z</time>
      </trkpt>
      <trkpt lat="40.720084" lon="-3.679123">
        <ele>989.519</ele>
        <time>2015-02-15T09:54:56Z</time>
      </trkpt>
      <trkpt lat="40.720138" lon="-3.679037">
        <ele>989.468</ele>
        <time>2015-02-15T09:55:00Z</time>
      </trkpt>
      <trkpt lat="40.720154" lon="-3.679011">
        <ele>989.434</ele>
        <time>2015-02-15T09:55:01Z</time>
      </trkpt>
      <trkpt lat="40.720208" lon="-3.678932">
        <ele>989.245</ele>
        <time>2015-02-15T09:55:04Z</time>
      </trkpt>
      <trkpt lat="40.720231" lon="-3.678904">
        <ele>989.188</ele>
        <time>2015-02-15T09:55:05Z</time>
      </trkpt>
      <trkpt lat="40.720253" lon="-3.678875">
        <ele>989.024</ele>
        <time>2015-02-15T09:55:06Z</time>
      </trkpt>
      <trkpt lat="40.720291" lon="-3.678816">
        <ele>988.926</ele>
        <time>2015-02-15T09:55:08Z</time>
      </trkpt>
      <trkpt lat="40.720345" lon="-3.678736">
        <ele>988.707</ele>
        <time>2015-02-15T09:55:11Z</time>
      </trkpt>
      <trkpt lat="40.720395" lon="-3.678660">
        <ele>988.486</ele>
        <time>2015-02-15T09:55:14Z</time>
      </trkpt>
      <trkpt lat="40.720438" lon="-3.678585">
        <ele>988.266</ele>
        <time>2015-02-15T09:55:17Z</time>
      </trkpt>
      <trkpt lat="40.720479" lon="-3.678516">
        <ele>988.065</ele>
        <time>2015-02-15T09:55:21Z</time>
      </trkpt>
      <trkpt lat="40.720502" lon="-3.678476">
        <ele>987.949</ele>
        <time>2015-02-15T09:55:23Z</time>
      </trkpt>
      <trkpt lat="40.720539" lon="-3.678427">
        <ele>987.798</ele>
        <time>2015-02-15T09:55:26Z</time>
      </trkpt>
      <trkpt lat="40.720564" lon="-3.678395">
        <ele>987.554</ele>
        <time>2015-02-15T09:55:29Z</time>
      </trkpt>
      <trkpt lat="40.720586" lon="-3.678361">
        <ele>987.385</ele>
        <time>2015-02-15T09:55:32Z</time>
      </trkpt>
      <trkpt lat="40.720602" lon="-3.678334">
        <ele>987.277</ele>
        <time>2015-02-15T09:55:34Z</time>
      </trkpt>
      <trkpt lat="40.720636" lon="-3.678290">
        <ele>987.061</ele>
        <time>2015-02-15T09:55:37Z</time>
      </trkpt>
      <trkpt lat="40.720666" lon="-3.678232">
        <ele>986.827</ele>
        <time>2015-02-15T09:55:39Z</time>
      </trkpt>
      <trkpt lat="40.720679" lon="-3.678213">
        <ele>986.807</ele>
        <time>2015-02-15T09:55:40Z</time>
      </trkpt>
      <trkpt lat="40.720686" lon="-3.678191">
        <ele>986.845</ele>
        <time>2015-02-15T09:55:41Z</time>
      </trkpt>
      <trkpt lat="40.720690" lon="-3.678168">
        <ele>986.745</ele>
        <time>2015-02-15T09:55:42Z</time>
      </trkpt>
      <trkpt lat="40.720705" lon="-3.678126">
        <ele>986.794</ele>
        <time>2015-02-15T09:55:44Z</time>
      </trkpt>
      <trkpt lat="40.720720" lon="-3.678103">
        <ele>986.798</ele>
        <time>2015-02-15T09:55:45Z</time>
      </trkpt>
      <trkpt lat="40.720734" lon="-3.678080">
        <ele>986.757</ele>
        <time>2015-02-15T09:55:46Z</time>
      </trkpt>
      <trkpt lat="40.720759" lon="-3.678042">
        <ele>986.763</ele>
        <time>2015-02-15T09:55:48Z</time>
      </trkpt>
      <trkpt lat="40.720799" lon="-3.677986">
        <ele>986.784</ele>
        <time>2015-02-15T09:55:51Z</time>
      </trkpt>
      <trkpt lat="40.720830" lon="-3.677932">
        <ele>986.838</ele>
        <time>2015-02-15T09:55:54Z</time>
      </trkpt>
      <trkpt lat="40.720865" lon="-3.677888">
        <ele>986.870</ele>
        <time>2015-02-15T09:55:57Z</time>
      </trkpt>
      <trkpt lat="40.720879" lon="-3.677846">
        <ele>986.817</ele>
        <time>2015-02-15T09:55:59Z</time>
      </trkpt>
      <trkpt lat="40.720900" lon="-3.677803">
        <ele>986.807</ele>
        <time>2015-02-15T09:56:01Z</time>
      </trkpt>
      <trkpt lat="40.720921" lon="-3.677716">
        <ele>986.891</ele>
        <time>2015-02-15T09:56:04Z</time>
      </trkpt>
      <trkpt lat="40.720925" lon="-3.677691">
        <ele>986.821</ele>
        <time>2015-02-15T09:56:05Z</time>
      </trkpt>
      <trkpt lat="40.720929" lon="-3.677644">
        <ele>986.990</ele>
        <time>2015-02-15T09:56:07Z</time>
      </trkpt>
      <trkpt lat="40.720935" lon="-3.677606">
        <ele>987.154</ele>
        <time>2015-02-15T09:56:09Z</time>
      </trkpt>
      <trkpt lat="40.720937" lon="-3.677546">
        <ele>987.263</ele>
        <time>2015-02-15T09:56:12Z</time>
      </trkpt>
      <trkpt lat="40.720924" lon="-3.677489">
        <ele>987.499</ele>
        <time>2015-02-15T09:56:15Z</time>
      </trkpt>
      <trkpt lat="40.720915" lon="-3.677473">
        <ele>987.580</ele>
        <time>2015-02-15T09:56:16Z</time>
      </trkpt>
      <trkpt lat="40.720904" lon="-3.677459">
        <ele>987.692</ele>
        <time>2015-02-15T09:56:17Z</time>
      </trkpt>
      <trkpt lat="40.720891" lon="-3.677442">
        <ele>987.673</ele>
        <time>2015-02-15T09:56:18Z</time>
      </trkpt>
      <trkpt lat="40.720874" lon="-3.677430">
        <ele>987.720</ele>
        <time>2015-02-15T09:56:19Z</time>
      </trkpt>
      <trkpt lat="40.720858" lon="-3.677423">
        <ele>987.807</ele>
        <time>2015-02-15T09:56:20Z</time>
      </trkpt>
      <trkpt lat="40.720848" lon="-3.677415">
        <ele>987.847</ele>
        <time>2015-02-15T09:56:21Z</time>
      </trkpt>
      <trkpt lat="40.720847" lon="-3.677413">
        <ele>988.127</ele>
        <time>2015-02-15T09:56:24Z</time>
      </trkpt>
      <trkpt lat="40.720843" lon="-3.677418">
        <ele>988.386</ele>
        <time>2015-02-15T09:56:27Z</time>
      </trkpt>
      <trkpt lat="40.720843" lon="-3.677418">
        <ele>988.350</ele>
        <time>2015-02-15T09:56:28Z</time>
      </trkpt>
      <trkpt lat="40.720804" lon="-3.677403">
        <ele>988.519</ele>
        <time>2015-02-15T09:56:31Z</time>
      </trkpt>
      <trkpt lat="40.720744" lon="-3.677384">
        <ele>988.815</ele>
        <time>2015-02-15T09:56:35Z</time>
      </trkpt>
      <trkpt lat="40.720715" lon="-3.677360">
        <ele>988.976</ele>
        <time>2015-02-15T09:56:37Z</time>
      </trkpt>
      <trkpt lat="40.720700" lon="-3.677344">
        <ele>989.026</ele>
        <time>2015-02-15T09:56:38Z</time>
      </trkpt>
      <trkpt lat="40.720691" lon="-3.677327">
        <ele>989.147</ele>
        <time>2015-02-15T09:56:39Z</time>
      </trkpt>
      <trkpt lat="40.720690" lon="-3.677307">
        <ele>989.111</ele>
        <time>2015-02-15T09:56:40Z</time>
      </trkpt>
      <trkpt lat="40.720693" lon="-3.677290">
        <ele>989.207</ele>
        <time>2015-02-15T09:56:41Z</time>
      </trkpt>
      <trkpt lat="40.720694" lon="-3.677268">
        <ele>989.320</ele>
        <time>2015-02-15T09:56:42Z</time>
      </trkpt>
      <trkpt lat="40.720695" lon="-3.677247">
        <ele>989.360</ele>
        <time>2015-02-15T09:56:43Z</time>
      </trkpt>
      <trkpt lat="40.720673" lon="-3.677209">
        <ele>989.489</ele>
        <time>2015-02-15T09:56:45Z</time>
      </trkpt>
      <trkpt lat="40.720665" lon="-3.677191">
        <ele>989.483</ele>
        <time>2015-02-15T09:56:46Z</time>
      </trkpt>
      <trkpt lat="40.720657" lon="-3.677179">
        <ele>989.462</ele>
        <time>2015-02-15T09:56:47Z</time>
      </trkpt>
      <trkpt lat="40.720648" lon="-3.677164">
        <ele>989.538</ele>
        <time>2015-02-15T09:56:48Z</time>
      </trkpt>
      <trkpt lat="40.720650" lon="-3.677168">
        <ele>989.519</ele>
        <time>2015-02-15T09:56:51Z</time>
      </trkpt>
      <trkpt lat="40.720655" lon="-3.677171">
        <ele>989.663</ele>
        <time>2015-02-15T09:56:54Z</time>
      </trkpt>
      <trkpt lat="40.720650" lon="-3.677170">
        <ele>989.644</ele>
        <time>2015-02-15T09:56:57Z</time>
      </trkpt>
      <trkpt lat="40.720650" lon="-3.677169">
        <ele>989.618</ele>
        <time>2015-02-15T09:57:00Z</time>
      </trkpt>
      <trkpt lat="40.720650" lon="-3.677169">
        <ele>989.707</ele>
        <time>2015-02-15T09:57:03Z</time>
      </trkpt>
      <trkpt lat="40.720650" lon="-3.677169">
        <ele>989.744</ele>
        <time>2015-02-15T09:57:04Z</time>
      </trkpt>
      <trkpt lat="40.720650" lon="-3.677169">
        <ele>989.614</ele>
        <time>2015-02-15T09:57:07Z</time>
      </trkpt>
      <trkpt lat="40.720649" lon="-3.677168">
        <ele>989.673</ele>
        <time>2015-02-15T09:57:10Z</time>
      </trkpt>
      <trkpt lat="40.720651" lon="-3.677153">
        <ele>989.597</ele>
        <time>2015-02-15T09:57:13Z</time>
      </trkpt>
      <trkpt lat="40.720636" lon="-3.677146">
        <ele>989.556</ele>
        <time>2015-02-15T09:57:15Z</time>
      </trkpt>
      <trkpt lat="40.720618" lon="-3.677146">
        <ele>989.422</ele>
        <time>2015-02-15T09:57:18Z</time>
      </trkpt>
      <trkpt lat="40.720621" lon="-3.677144">
        <ele>989.443</ele>
        <time>2015-02-15T09:57:22Z</time>
      </trkpt>
      <trkpt lat="40.720620" lon="-3.677144">
        <ele>989.345</ele>
        <time>2015-02-15T09:57:25Z</time>
      </trkpt>
      <trkpt lat="40.720623" lon="-3.677144">
        <ele>989.347</ele>
        <time>2015-02-15T09:57:28Z</time>
      </trkpt>
      <trkpt lat="40.720623" lon="-3.677144">
        <ele>989.311</ele>
        <time>2015-02-15T09:57:31Z</time>
      </trkpt>
      <trkpt lat="40.720623" lon="-3.677144">
        <ele>989.207</ele>
        <time>2015-02-15T09:57:34Z</time>
      </trkpt>
      <trkpt lat="40.720623" lon="-3.677144">
        <ele>989.252</ele>
        <time>2015-02-15T09:57:37Z</time>
      </trkpt>
      <trkpt lat="40.720623" lon="-3.677144">
        <ele>989.132</ele>
        <time>2015-02-15T09:57:40Z</time>
      </trkpt>
      <trkpt lat="40.720623" lon="-3.677144">
        <ele>989.141</ele>
        <time>2015-02-15T09:57:43Z</time>
      </trkpt>
      <trkpt lat="40.720624" lon="-3.677144">
        <ele>989.175</ele>
        <time>2015-02-15T09:57:47Z</time>
      </trkpt>
      <trkpt lat="40.720624" lon="-3.677144">
        <ele>989.114</ele>
        <time>2015-02-15T09:57:50Z</time>
      </trkpt>
      <trkpt lat="40.720627" lon="-3.677143">
        <ele>989.240</ele>
        <time>2015-02-15T09:57:54Z</time>
      </trkpt>
      <trkpt lat="40.720627" lon="-3.677144">
        <ele>989.281</ele>
        <time>2015-02-15T09:57:57Z</time>
      </trkpt>
      <trkpt lat="40.720627" lon="-3.677140">
        <ele>989.362</ele>
        <time>2015-02-15T09:58:01Z</time>
      </trkpt>
      <trkpt lat="40.720627" lon="-3.677140">
        <ele>989.383</ele>
        <time>2015-02-15T09:58:04Z</time>
      </trkpt>
      <trkpt lat="40.720625" lon="-3.677140">
        <ele>989.511</ele>
        <time>2015-02-15T09:58:07Z</time>
      </trkpt>
      <trkpt lat="40.720626" lon="-3.677140">
        <ele>989.607</ele>
        <time>2015-02-15T09:58:10Z</time>
      </trkpt>
      <trkpt lat="40.720626" lon="-3.677140">
        <ele>989.774</ele>
        <time>2015-02-15T09:58:13Z</time>
      </trkpt>
      <trkpt lat="40.720626" lon="-3.677140">
        <ele>989.724</ele>
        <time>2015-02-15T09:58:16Z</time>
      </trkpt>
      <trkpt lat="40.720626" lon="-3.677140">
        <ele>989.873</ele>
        <time>2015-02-15T09:58:20Z</time>
      </trkpt>
      <trkpt lat="40.720626" lon="-3.677140">
        <ele>989.977</ele>
        <time>2015-02-15T09:58:23Z</time>
      </trkpt>
      <trkpt lat="40.720638" lon="-3.677128">
        <ele>989.946</ele>
        <time>2015-02-15T09:58:26Z</time>
      </trkpt>
      <trkpt lat="40.720643" lon="-3.677123">
        <ele>990.012</ele>
        <time>2015-02-15T09:58:28Z</time>
      </trkpt>
      <trkpt lat="40.720645" lon="-3.677124">
        <ele>990.253</ele>
        <time>2015-02-15T09:58:32Z</time>
      </trkpt>
      <trkpt lat="40.720646" lon="-3.677121">
        <ele>990.388</ele>
        <time>2015-02-15T09:58:35Z</time>
      </trkpt>
      <trkpt lat="40.720652" lon="-3.677112">
        <ele>990.324</ele>
        <time>2015-02-15T09:58:36Z</time>
      </trkpt>
      <trkpt lat="40.720673" lon="-3.677074">
        <ele>990.426</ele>
        <time>2015-02-15T09:58:39Z</time>
      </trkpt>
      <trkpt lat="40.720664" lon="-3.677020">
        <ele>990.407</ele>
        <time>2015-02-15T09:58:42Z</time>
      </trkpt>
      <trkpt lat="40.720647" lon="-3.677003">
        <ele>990.446</ele>
        <time>2015-02-15T09:58:43Z</time>
      </trkpt>
      <trkpt lat="40.720628" lon="-3.676980">
        <ele>990.416</ele>
        <time>2015-02-15T09:58:44Z</time>
      </trkpt>
      <trkpt lat="40.720615" lon="-3.676961">
        <ele>990.465</ele>
        <time>2015-02-15T09:58:45Z</time>
      </trkpt>
      <trkpt lat="40.720610" lon="-3.676927">
        <ele>990.499</ele>
        <time>2015-02-15T09:58:46Z</time>
      </trkpt>
      <trkpt lat="40.720602" lon="-3.676897">
        <ele>990.418</ele>
        <time>2015-02-15T09:58:47Z</time>
      </trkpt>
      <trkpt lat="40.720593" lon="-3.676868">
        <ele>990.464</ele>
        <time>2015-02-15T09:58:48Z</time>
      </trkpt>
      <trkpt lat="40.720595" lon="-3.676844">
        <ele>990.465</ele>
        <time>2015-02-15T09:58:49Z</time>
      </trkpt>
      <trkpt lat="40.720603" lon="-3.676824">
        <ele>990.476</ele>
        <time>2015-02-15T09:58:50Z</time>
      </trkpt>
      <trkpt lat="40.720613" lon="-3.676800">
        <ele>990.490</ele>
        <time>2015-02-15T09:58:51Z</time>
      </trkpt>
      <trkpt lat="40.720623" lon="-3.676763">
        <ele>990.319</ele>
        <time>2015-02-15T09:58:52Z</time>
      </trkpt>
      <trkpt lat="40.720615" lon="-3.676743">
        <ele>990.307</ele>
        <time>2015-02-15T09:58:53Z</time>
      </trkpt>
      <trkpt lat="40.720620" lon="-3.676700">
        <ele>990.245</ele>
        <time>2015-02-15T09:58:55Z</time>
      </trkpt>
      <trkpt lat="40.720619" lon="-3.676690">
        <ele>990.215</ele>
        <time>2015-02-15T09:58:56Z</time>
      </trkpt>
      <trkpt lat="40.720619" lon="-3.676706">
        <ele>990.154</ele>
        <time>2015-02-15T09:58:59Z</time>
      </trkpt>
      <trkpt lat="40.720629" lon="-3.676708">
        <ele>989.838</ele>
        <time>2015-02-15T09:59:02Z</time>
      </trkpt>
      <trkpt lat="40.720630" lon="-3.676708">
        <ele>989.537</ele>
        <time>2015-02-15T09:59:05Z</time>
      </trkpt>
      <trkpt lat="40.720630" lon="-3.676708">
        <ele>989.273</ele>
        <time>2015-02-15T09:59:08Z</time>
      </trkpt>
      <trkpt lat="40.720633" lon="-3.676708">
        <ele>988.924</ele>
        <time>2015-02-15T09:59:11Z</time>
      </trkpt>
      <trkpt lat="40.720634" lon="-3.676708">
        <ele>988.874</ele>
        <time>2015-02-15T09:59:13Z</time>
      </trkpt>
      <trkpt lat="40.720634" lon="-3.676708">
        <ele>988.556</ele>
        <time>2015-02-15T09:59:16Z</time>
      </trkpt>
      <trkpt lat="40.720634" lon="-3.676708">
        <ele>988.221</ele>
        <time>2015-02-15T09:59:19Z</time>
      </trkpt>
      <trkpt lat="40.720634" lon="-3.676708">
        <ele>987.907</ele>
        <time>2015-02-15T09:59:22Z</time>
      </trkpt>
      <trkpt lat="40.720634" lon="-3.676708">
        <ele>987.635</ele>
        <time>2015-02-15T09:59:25Z</time>
      </trkpt>
      <trkpt lat="40.720634" lon="-3.676708">
        <ele>987.345</ele>
        <time>2015-02-15T09:59:28Z</time>
      </trkpt>
      <trkpt lat="40.720634" lon="-3.676708">
        <ele>987.064</ele>
        <time>2015-02-15T09:59:31Z</time>
      </trkpt>
      <trkpt lat="40.720634" lon="-3.676708">
        <ele>986.758</ele>
        <time>2015-02-15T09:59:34Z</time>
      </trkpt>
      <trkpt lat="40.720634" lon="-3.676708">
        <ele>986.467</ele>
        <time>2015-02-15T09:59:38Z</time>
      </trkpt>
      <trkpt lat="40.720634" lon="-3.676708">
        <ele>986.123</ele>
        <time>2015-02-15T09:59:42Z</time>
      </trkpt>
      <trkpt lat="40.720634" lon="-3.676708">
        <ele>985.884</ele>
        <time>2015-02-15T09:59:45Z</time>
      </trkpt>
      <trkpt lat="40.720634" lon="-3.676708">
        <ele>985.713</ele>
        <time>2015-02-15T09:59:48Z</time>
      </trkpt>
      <trkpt lat="40.720634" lon="-3.676708">
        <ele>985.543</ele>
        <time>2015-02-15T09:59:51Z</time>
      </trkpt>
      <trkpt lat="40.720634" lon="-3.676708">
        <ele>985.407</ele>
        <time>2015-02-15T09:59:54Z</time>
      </trkpt>
      <trkpt lat="40.720634" lon="-3.676708">
        <ele>985.307</ele>
        <time>2015-02-15T09:59:57Z</time>
      </trkpt>
      <trkpt lat="40.720634" lon="-3.676707">
        <ele>985.219</ele>
        <time>2015-02-15T10:00:01Z</time>
      </trkpt>
      <trkpt lat="40.720634" lon="-3.676707">
        <ele>985.299</ele>
        <time>2015-02-15T10:00:04Z</time>
      </trkpt>
      <trkpt lat="40.720634" lon="-3.676707">
        <ele>985.228</ele>
        <time>2015-02-15T10:00:07Z</time>
      </trkpt>
      <trkpt lat="40.720634" lon="-3.676707">
        <ele>985.242</ele>
        <time>2015-02-15T10:00:10Z</time>
      </trkpt>
      <trkpt lat="40.720634" lon="-3.676707">
        <ele>985.281</ele>
        <time>2015-02-15T10:00:13Z</time>
      </trkpt>
      <trkpt lat="40.720634" lon="-3.676707">
        <ele>985.327</ele>
        <time>2015-02-15T10:00:16Z</time>
      </trkpt>
      <trkpt lat="40.720634" lon="-3.676707">
        <ele>985.328</ele>
        <time>2015-02-15T10:00:19Z</time>
      </trkpt>
      <trkpt lat="40.720634" lon="-3.676707">
        <ele>985.391</ele>
        <time>2015-02-15T10:00:22Z</time>
      </trkpt>
      <trkpt lat="40.720596" lon="-3.676646">
        <ele>985.581</ele>
        <time>2015-02-15T10:00:25Z</time>
      </trkpt>
      <trkpt lat="40.720589" lon="-3.676645">
        <ele>986.319</ele>
        <time>2015-02-15T10:00:28Z</time>
      </trkpt>
      <trkpt lat="40.720615" lon="-3.676637">
        <ele>987.007</ele>
        <time>2015-02-15T10:00:31Z</time>
      </trkpt>
      <trkpt lat="40.720618" lon="-3.676635">
        <ele>987.137</ele>
        <time>2015-02-15T10:00:32Z</time>
      </trkpt>
      <trkpt lat="40.720619" lon="-3.676647">
        <ele>987.787</ele>
        <time>2015-02-15T10:00:35Z</time>
      </trkpt>
      <trkpt lat="40.720622" lon="-3.676644">
        <ele>987.976</ele>
        <time>2015-02-15T10:00:36Z</time>
      </trkpt>
      <trkpt lat="40.720631" lon="-3.676620">
        <ele>988.230</ele>
        <time>2015-02-15T10:00:38Z</time>
      </trkpt>
      <trkpt lat="40.720629" lon="-3.676598">
        <ele>988.379</ele>
        <time>2015-02-15T10:00:39Z</time>
      </trkpt>
      <trkpt lat="40.720624" lon="-3.676537">
        <ele>988.765</ele>
        <time>2015-02-15T10:00:42Z</time>
      </trkpt>
      <trkpt lat="40.720616" lon="-3.676514">
        <ele>988.776</ele>
        <time>2015-02-15T10:00:43Z</time>
      </trkpt>
      <trkpt lat="40.720605" lon="-3.676483">
        <ele>988.891</ele>
        <time>2015-02-15T10:00:44Z</time>
      </trkpt>
      <trkpt lat="40.720589" lon="-3.676406">
        <ele>989.181</ele>
        <time>2015-02-15T10:00:48Z</time>
      </trkpt>
      <trkpt lat="40.720578" lon="-3.676374">
        <ele>989.019</ele>
        <time>2015-02-15T10:00:49Z</time>
      </trkpt>
      <trkpt lat="40.720566" lon="-3.676344">
        <ele>989.107</ele>
        <time>2015-02-15T10:00:50Z</time>
      </trkpt>
      <trkpt lat="40.720553" lon="-3.676312">
        <ele>989.147</ele>
        <time>2015-02-15T10:00:51Z</time>
      </trkpt>
      <trkpt lat="40.720542" lon="-3.676280">
        <ele>989.137</ele>
        <time>2015-02-15T10:00:52Z</time>
      </trkpt>
      <trkpt lat="40.720543" lon="-3.676251">
        <ele>989.146</ele>
        <time>2015-02-15T10:00:53Z</time>
      </trkpt>
      <trkpt lat="40.720562" lon="-3.676217">
        <ele>989.140</ele>
        <time>2015-02-15T10:00:54Z</time>
      </trkpt>
      <trkpt lat="40.720576" lon="-3.676187">
        <ele>989.249</ele>
        <time>2015-02-15T10:00:55Z</time>
      </trkpt>
      <trkpt lat="40.720591" lon="-3.676161">
        <ele>989.155</ele>
        <time>2015-02-15T10:00:56Z</time>
      </trkpt>
      <trkpt lat="40.720629" lon="-3.676115">
        <ele>989.166</ele>
        <time>2015-02-15T10:00:58Z</time>
      </trkpt>
      <trkpt lat="40.720654" lon="-3.676111">
        <ele>989.013</ele>
        <time>2015-02-15T10:00:59Z</time>
      </trkpt>
      <trkpt lat="40.720679" lon="-3.676104">
        <ele>989.043</ele>
        <time>2015-02-15T10:01:00Z</time>
      </trkpt>
      <trkpt lat="40.720705" lon="-3.676097">
        <ele>989.007</ele>
        <time>2015-02-15T10:01:01Z</time>
      </trkpt>
      <trkpt lat="40.720777" lon="-3.676067">
        <ele>988.907</ele>
        <time>2015-02-15T10:01:03Z</time>
      </trkpt>
      <trkpt lat="40.720856" lon="-3.676039">
        <ele>988.749</ele>
        <time>2015-02-15T10:01:06Z</time>
      </trkpt>
      <trkpt lat="40.720896" lon="-3.676019">
        <ele>988.629</ele>
        <time>2015-02-15T10:01:08Z</time>
      </trkpt>
      <trkpt lat="40.720911" lon="-3.676014">
        <ele>988.658</ele>
        <time>2015-02-15T10:01:09Z</time>
      </trkpt>
      <trkpt lat="40.720916" lon="-3.676013">
        <ele>988.582</ele>
        <time>2015-02-15T10:01:10Z</time>
      </trkpt>
      <trkpt lat="40.720918" lon="-3.676006">
        <ele>988.411</ele>
        <time>2015-02-15T10:01:13Z</time>
      </trkpt>
      <trkpt lat="40.720919" lon="-3.676000">
        <ele>988.197</ele>
        <time>2015-02-15T10:01:16Z</time>
      </trkpt>
      <trkpt lat="40.720921" lon="-3.675993">
        <ele>987.948</ele>
        <time>2015-02-15T10:01:19Z</time>
      </trkpt>
      <trkpt lat="40.720922" lon="-3.675993">
        <ele>987.753</ele>
        <time>2015-02-15T10:01:22Z</time>
      </trkpt>
      <trkpt lat="40.720922" lon="-3.675993">
        <ele>987.604</ele>
        <time>2015-02-15T10:01:24Z</time>
      </trkpt>
      <trkpt lat="40.720922" lon="-3.675993">
        <ele>987.214</ele>
        <time>2015-02-15T10:01:26Z</time>
      </trkpt>
      <trkpt lat="40.720922" lon="-3.675993">
        <ele>986.907</ele>
        <time>2015-02-15T10:01:27Z</time>
      </trkpt>
      <trkpt lat="40.720922" lon="-3.675993">
        <ele>986.023</ele>
        <time>2015-02-15T10:01:30Z</time>
      </trkpt>
      <trkpt lat="40.720921" lon="-3.675993">
        <ele>985.113</ele>
        <time>2015-02-15T10:01:33Z</time>
      </trkpt>
      <trkpt lat="40.720921" lon="-3.675993">
        <ele>984.412</ele>
        <time>2015-02-15T10:01:36Z</time>
      </trkpt>
      <trkpt lat="40.720922" lon="-3.675992">
        <ele>983.956</ele>
        <time>2015-02-15T10:01:38Z</time>
      </trkpt>
      <trkpt lat="40.720925" lon="-3.675987">
        <ele>983.765</ele>
        <time>2015-02-15T10:01:39Z</time>
      </trkpt>
      <trkpt lat="40.720904" lon="-3.675975">
        <ele>983.451</ele>
        <time>2015-02-15T10:01:41Z</time>
      </trkpt>
      <trkpt lat="40.720894" lon="-3.675967">
        <ele>983.282</ele>
        <time>2015-02-15T10:01:42Z</time>
      </trkpt>
      <trkpt lat="40.720905" lon="-3.675966">
        <ele>983.149</ele>
        <time>2015-02-15T10:01:43Z</time>
      </trkpt>
      <trkpt lat="40.720917" lon="-3.675957">
        <ele>982.702</ele>
        <time>2015-02-15T10:01:47Z</time>
      </trkpt>
      <trkpt lat="40.720906" lon="-3.675963">
        <ele>982.622</ele>
        <time>2015-02-15T10:01:50Z</time>
      </trkpt>
      <trkpt lat="40.720907" lon="-3.675960">
        <ele>982.507</ele>
        <time>2015-02-15T10:01:53Z</time>
      </trkpt>
      <trkpt lat="40.720902" lon="-3.675961">
        <ele>982.582</ele>
        <time>2015-02-15T10:01:56Z</time>
      </trkpt>
      <trkpt lat="40.720898" lon="-3.675966">
        <ele>982.522</ele>
        <time>2015-02-15T10:01:59Z</time>
      </trkpt>
      <trkpt lat="40.720896" lon="-3.675967">
        <ele>982.561</ele>
        <time>2015-02-15T10:02:02Z</time>
      </trkpt>
      <trkpt lat="40.720896" lon="-3.675967">
        <ele>982.595</ele>
        <time>2015-02-15T10:02:05Z</time>
      </trkpt>
      <trkpt lat="40.720896" lon="-3.675967">
        <ele>982.614</ele>
        <time>2015-02-15T10:02:08Z</time>
      </trkpt>
      <trkpt lat="40.720895" lon="-3.675967">
        <ele>982.760</ele>
        <time>2015-02-15T10:02:11Z</time>
      </trkpt>
      <trkpt lat="40.720895" lon="-3.675967">
        <ele>982.821</ele>
        <time>2015-02-15T10:02:14Z</time>
      </trkpt>
      <trkpt lat="40.720895" lon="-3.675967">
        <ele>982.938</ele>
        <time>2015-02-15T10:02:17Z</time>
      </trkpt>
      <trkpt lat="40.720895" lon="-3.675967">
        <ele>983.070</ele>
        <time>2015-02-15T10:02:21Z</time>
      </trkpt>
      <trkpt lat="40.720895" lon="-3.675967">
        <ele>983.117</ele>
        <time>2015-02-15T10:02:25Z</time>
      </trkpt>
      <trkpt lat="40.720895" lon="-3.675967">
        <ele>983.207</ele>
        <time>2015-02-15T10:02:28Z</time>
      </trkpt>
      <trkpt lat="40.720895" lon="-3.675967">
        <ele>983.361</ele>
        <time>2015-02-15T10:02:31Z</time>
      </trkpt>
      <trkpt lat="40.720895" lon="-3.675967">
        <ele>983.491</ele>
        <time>2015-02-15T10:02:34Z</time>
      </trkpt>
      <trkpt lat="40.720895" lon="-3.675967">
        <ele>983.520</ele>
        <time>2015-02-15T10:02:37Z</time>
      </trkpt>
      <trkpt lat="40.720895" lon="-3.675967">
        <ele>983.624</ele>
        <time>2015-02-15T10:02:40Z</time>
      </trkpt>
      <trkpt lat="40.720910" lon="-3.675961">
        <ele>983.723</ele>
        <time>2015-02-15T10:02:43Z</time>
      </trkpt>
      <trkpt lat="40.720950" lon="-3.675956">
        <ele>983.699</ele>
        <time>2015-02-15T10:02:46Z</time>
      </trkpt>
      <trkpt lat="40.720988" lon="-3.675923">
        <ele>983.480</ele>
        <time>2015-02-15T10:02:49Z</time>
      </trkpt>
      <trkpt lat="40.721008" lon="-3.675914">
        <ele>983.382</ele>
        <time>2015-02-15T10:02:50Z</time>
      </trkpt>
      <trkpt lat="40.721046" lon="-3.675899">
        <ele>983.243</ele>
        <time>2015-02-15T10:02:52Z</time>
      </trkpt>
      <trkpt lat="40.721074" lon="-3.675882">
        <ele>983.117</ele>
        <time>2015-02-15T10:02:53Z</time>
      </trkpt>
      <trkpt lat="40.721118" lon="-3.675852">
        <ele>982.907</ele>
        <time>2015-02-15T10:02:55Z</time>
      </trkpt>
      <trkpt lat="40.721133" lon="-3.675835">
        <ele>982.856</ele>
        <time>2015-02-15T10:02:56Z</time>
      </trkpt>
      <trkpt lat="40.721174" lon="-3.675803">
        <ele>982.656</ele>
        <time>2015-02-15T10:02:58Z</time>
      </trkpt>
      <trkpt lat="40.721214" lon="-3.675761">
        <ele>982.445</ele>
        <time>2015-02-15T10:03:00Z</time>
      </trkpt>
      <trkpt lat="40.721231" lon="-3.675737">
        <ele>982.289</ele>
        <time>2015-02-15T10:03:01Z</time>
      </trkpt>
      <trkpt lat="40.721264" lon="-3.675686">
        <ele>982.048</ele>
        <time>2015-02-15T10:03:03Z</time>
      </trkpt>
      <trkpt lat="40.721281" lon="-3.675655">
        <ele>981.864</ele>
        <time>2015-02-15T10:03:04Z</time>
      </trkpt>
      <trkpt lat="40.721296" lon="-3.675624">
        <ele>981.795</ele>
        <time>2015-02-15T10:03:05Z</time>
      </trkpt>
      <trkpt lat="40.721310" lon="-3.675594">
        <ele>981.535</ele>
        <time>2015-02-15T10:03:06Z</time>
      </trkpt>
      <trkpt lat="40.721352" lon="-3.675497">
        <ele>980.986</ele>
        <time>2015-02-15T10:03:09Z</time>
      </trkpt>
      <trkpt lat="40.721363" lon="-3.675461">
        <ele>980.714</ele>
        <time>2015-02-15T10:03:10Z</time>
      </trkpt>
      <trkpt lat="40.721378" lon="-3.675423">
        <ele>980.507</ele>
        <time>2015-02-15T10:03:11Z</time>
      </trkpt>
      <trkpt lat="40.721424" lon="-3.675304">
        <ele>979.861</ele>
        <time>2015-02-15T10:03:14Z</time>
      </trkpt>
      <trkpt lat="40.721439" lon="-3.675273">
        <ele>979.651</ele>
        <time>2015-02-15T10:03:15Z</time>
      </trkpt>
      <trkpt lat="40.721482" lon="-3.675232">
        <ele>979.280</ele>
        <time>2015-02-15T10:03:17Z</time>
      </trkpt>
      <trkpt lat="40.721498" lon="-3.675221">
        <ele>978.994</ele>
        <time>2015-02-15T10:03:18Z</time>
      </trkpt>
      <trkpt lat="40.721516" lon="-3.675208">
        <ele>978.773</ele>
        <time>2015-02-15T10:03:19Z</time>
      </trkpt>
      <trkpt lat="40.721534" lon="-3.675186">
        <ele>978.539</ele>
        <time>2015-02-15T10:03:20Z</time>
      </trkpt>
      <trkpt lat="40.721599" lon="-3.675122">
        <ele>977.860</ele>
        <time>2015-02-15T10:03:23Z</time>
      </trkpt>
      <trkpt lat="40.721617" lon="-3.675093">
        <ele>977.516</ele>
        <time>2015-02-15T10:03:24Z</time>
      </trkpt>
      <trkpt lat="40.721640" lon="-3.675069">
        <ele>977.376</ele>
        <time>2015-02-15T10:03:25Z</time>
      </trkpt>
      <trkpt lat="40.721703" lon="-3.674999">
        <ele>976.513</ele>
        <time>2015-02-15T10:03:28Z</time>
      </trkpt>
      <trkpt lat="40.721765" lon="-3.674927">
        <ele>975.607</ele>
        <time>2015-02-15T10:03:31Z</time>
      </trkpt>
      <trkpt lat="40.721815" lon="-3.674876">
        <ele>975.019</ele>
        <time>2015-02-15T10:03:33Z</time>
      </trkpt>
      <trkpt lat="40.721866" lon="-3.674828">
        <ele>974.419</ele>
        <time>2015-02-15T10:03:35Z</time>
      </trkpt>
      <trkpt lat="40.721929" lon="-3.674773">
        <ele>973.568</ele>
        <time>2015-02-15T10:03:38Z</time>
      </trkpt>
      <trkpt lat="40.721950" lon="-3.674764">
        <ele>973.232</ele>
        <time>2015-02-15T10:03:39Z</time>
      </trkpt>
      <trkpt lat="40.722010" lon="-3.674712">
        <ele>972.251</ele>
        <time>2015-02-15T10:03:42Z</time>
      </trkpt>
      <trkpt lat="40.722044" lon="-3.674671">
        <ele>971.687</ele>
        <time>2015-02-15T10:03:44Z</time>
      </trkpt>
      <trkpt lat="40.722083" lon="-3.674630">
        <ele>970.918</ele>
        <time>2015-02-15T10:03:46Z</time>
      </trkpt>
      <trkpt lat="40.722152" lon="-3.674554">
        <ele>970.053</ele>
        <time>2015-02-15T10:03:50Z</time>
      </trkpt>
      <trkpt lat="40.722195" lon="-3.674499">
        <ele>969.404</ele>
        <time>2015-02-15T10:03:52Z</time>
      </trkpt>
      <trkpt lat="40.722218" lon="-3.674464">
        <ele>969.114</ele>
        <time>2015-02-15T10:03:53Z</time>
      </trkpt>
      <trkpt lat="40.722240" lon="-3.674424">
        <ele>968.707</ele>
        <time>2015-02-15T10:03:54Z</time>
      </trkpt>
      <trkpt lat="40.722262" lon="-3.674383">
        <ele>968.493</ele>
        <time>2015-02-15T10:03:55Z</time>
      </trkpt>
      <trkpt lat="40.722322" lon="-3.674276">
        <ele>967.553</ele>
        <time>2015-02-15T10:03:58Z</time>
      </trkpt>
      <trkpt lat="40.722337" lon="-3.674255">
        <ele>967.182</ele>
        <time>2015-02-15T10:03:59Z</time>
      </trkpt>
      <trkpt lat="40.722384" lon="-3.674162">
        <ele>966.286</ele>
        <time>2015-02-15T10:04:02Z</time>
      </trkpt>
      <trkpt lat="40.722397" lon="-3.674142">
        <ele>965.975</ele>
        <time>2015-02-15T10:04:03Z</time>
      </trkpt>
      <trkpt lat="40.722426" lon="-3.674073">
        <ele>965.031</ele>
        <time>2015-02-15T10:04:06Z</time>
      </trkpt>
      <trkpt lat="40.722437" lon="-3.674046">
        <ele>964.732</ele>
        <time>2015-02-15T10:04:07Z</time>
      </trkpt>
      <trkpt lat="40.722441" lon="-3.674014">
        <ele>964.411</ele>
        <time>2015-02-15T10:04:08Z</time>
      </trkpt>
      <trkpt lat="40.722449" lon="-3.673980">
        <ele>964.121</ele>
        <time>2015-02-15T10:04:09Z</time>
      </trkpt>
      <trkpt lat="40.722454" lon="-3.673939">
        <ele>963.803</ele>
        <time>2015-02-15T10:04:10Z</time>
      </trkpt>
      <trkpt lat="40.722458" lon="-3.673828">
        <ele>963.207</ele>
        <time>2015-02-15T10:04:12Z</time>
      </trkpt>
      <trkpt lat="40.722456" lon="-3.673793">
        <ele>962.949</ele>
        <time>2015-02-15T10:04:13Z</time>
      </trkpt>
      <trkpt lat="40.722470" lon="-3.673713">
        <ele>962.379</ele>
        <time>2015-02-15T10:04:15Z</time>
      </trkpt>
      <trkpt lat="40.722476" lon="-3.673673">
        <ele>962.038</ele>
        <time>2015-02-15T10:04:16Z</time>
      </trkpt>
      <trkpt lat="40.722503" lon="-3.673592">
        <ele>961.342</ele>
        <time>2015-02-15T10:04:18Z</time>
      </trkpt>
      <trkpt lat="40.722524" lon="-3.673548">
        <ele>961.041</ele>
        <time>2015-02-15T10:04:19Z</time>
      </trkpt>
      <trkpt lat="40.722590" lon="-3.673402">
        <ele>960.087</ele>
        <time>2015-02-15T10:04:22Z</time>
      </trkpt>
      <trkpt lat="40.722590" lon="-3.673347">
        <ele>959.718</ele>
        <time>2015-02-15T10:04:23Z</time>
      </trkpt>
      <trkpt lat="40.722596" lon="-3.673289">
        <ele>959.493</ele>
        <time>2015-02-15T10:04:24Z</time>
      </trkpt>
      <trkpt lat="40.722599" lon="-3.673180">
        <ele>958.965</ele>
        <time>2015-02-15T10:04:26Z</time>
      </trkpt>
      <trkpt lat="40.722586" lon="-3.673124">
        <ele>958.621</ele>
        <time>2015-02-15T10:04:27Z</time>
      </trkpt>
      <trkpt lat="40.722581" lon="-3.673069">
        <ele>958.307</ele>
        <time>2015-02-15T10:04:28Z</time>
      </trkpt>
      <trkpt lat="40.722568" lon="-3.672917">
        <ele>957.367</ele>
        <time>2015-02-15T10:04:31Z</time>
      </trkpt>
      <trkpt lat="40.722566" lon="-3.672817">
        <ele>956.777</ele>
        <time>2015-02-15T10:04:33Z</time>
      </trkpt>
      <trkpt lat="40.722562" lon="-3.672671">
        <ele>955.886</ele>
        <time>2015-02-15T10:04:36Z</time>
      </trkpt>
      <trkpt lat="40.722567" lon="-3.672626">
        <ele>955.570</ele>
        <time>2015-02-15T10:04:37Z</time>
      </trkpt>
      <trkpt lat="40.722582" lon="-3.672579">
        <ele>955.179</ele>
        <time>2015-02-15T10:04:38Z</time>
      </trkpt>
      <trkpt lat="40.722606" lon="-3.672445">
        <ele>954.265</ele>
        <time>2015-02-15T10:04:41Z</time>
      </trkpt>
      <trkpt lat="40.722630" lon="-3.672321">
        <ele>953.266</ele>
        <time>2015-02-15T10:04:44Z</time>
      </trkpt>
      <trkpt lat="40.722641" lon="-3.672281">
        <ele>952.929</ele>
        <time>2015-02-15T10:04:45Z</time>
      </trkpt>
      <trkpt lat="40.722648" lon="-3.672239">
        <ele>952.600</ele>
        <time>2015-02-15T10:04:46Z</time>
      </trkpt>
      <trkpt lat="40.722650" lon="-3.672198">
        <ele>952.320</ele>
        <time>2015-02-15T10:04:47Z</time>
      </trkpt>
      <trkpt lat="40.722652" lon="-3.672152">
        <ele>952.007</ele>
        <time>2015-02-15T10:04:48Z</time>
      </trkpt>
      <trkpt lat="40.722646" lon="-3.672065">
        <ele>951.480</ele>
        <time>2015-02-15T10:04:50Z</time>
      </trkpt>
      <trkpt lat="40.722635" lon="-3.671866">
        <ele>950.230</ele>
        <time>2015-02-15T10:04:54Z</time>
      </trkpt>
      <trkpt lat="40.722640" lon="-3.671778">
        <ele>949.679</ele>
        <time>2015-02-15T10:04:56Z</time>
      </trkpt>
      <trkpt lat="40.722647" lon="-3.671741">
        <ele>949.373</ele>
        <time>2015-02-15T10:04:57Z</time>
      </trkpt>
      <trkpt lat="40.722659" lon="-3.671704">
        <ele>949.082</ele>
        <time>2015-02-15T10:04:58Z</time>
      </trkpt>
      <trkpt lat="40.722676" lon="-3.671669">
        <ele>948.758</ele>
        <time>2015-02-15T10:04:59Z</time>
      </trkpt>
      <trkpt lat="40.722702" lon="-3.671638">
        <ele>948.569</ele>
        <time>2015-02-15T10:05:00Z</time>
      </trkpt>
      <trkpt lat="40.722729" lon="-3.671608">
        <ele>948.222</ele>
        <time>2015-02-15T10:05:01Z</time>
      </trkpt>
      <trkpt lat="40.722775" lon="-3.671539">
        <ele>947.662</ele>
        <time>2015-02-15T10:05:03Z</time>
      </trkpt>
      <trkpt lat="40.722801" lon="-3.671508">
        <ele>947.408</ele>
        <time>2015-02-15T10:05:04Z</time>
      </trkpt>
      <trkpt lat="40.722854" lon="-3.671448">
        <ele>946.807</ele>
        <time>2015-02-15T10:05:06Z</time>
      </trkpt>
      <trkpt lat="40.722885" lon="-3.671423">
        <ele>946.610</ele>
        <time>2015-02-15T10:05:07Z</time>
      </trkpt>
      <trkpt lat="40.722917" lon="-3.671404">
        <ele>946.310</ele>
        <time>2015-02-15T10:05:08Z</time>
      </trkpt>
      <trkpt lat="40.722956" lon="-3.671380">
        <ele>946.199</ele>
        <time>2015-02-15T10:05:09Z</time>
      </trkpt>
      <trkpt lat="40.723020" lon="-3.671321">
        <ele>945.613</ele>
        <time>2015-02-15T10:05:11Z</time>
      </trkpt>
      <trkpt lat="40.723047" lon="-3.671289">
        <ele>945.442</ele>
        <time>2015-02-15T10:05:12Z</time>
      </trkpt>
      <trkpt lat="40.723094" lon="-3.671226">
        <ele>945.028</ele>
        <time>2015-02-15T10:05:14Z</time>
      </trkpt>
      <trkpt lat="40.723119" lon="-3.671197">
        <ele>944.859</ele>
        <time>2015-02-15T10:05:15Z</time>
      </trkpt>
      <trkpt lat="40.723142" lon="-3.671169">
        <ele>944.618</ele>
        <time>2015-02-15T10:05:17Z</time>
      </trkpt>
      <trkpt lat="40.723161" lon="-3.671143">
        <ele>944.598</ele>
        <time>2015-02-15T10:05:18Z</time>
      </trkpt>
      <trkpt lat="40.723194" lon="-3.671072">
        <ele>943.917</ele>
        <time>2015-02-15T10:05:21Z</time>
      </trkpt>
      <trkpt lat="40.723181" lon="-3.671043">
        <ele>943.607</ele>
        <time>2015-02-15T10:05:22Z</time>
      </trkpt>
      <trkpt lat="40.723164" lon="-3.670999">
        <ele>943.419</ele>
        <time>2015-02-15T10:05:23Z</time>
      </trkpt>
      <trkpt lat="40.723143" lon="-3.670973">
        <ele>943.229</ele>
        <time>2015-02-15T10:05:24Z</time>
      </trkpt>
      <trkpt lat="40.723103" lon="-3.670959">
        <ele>943.048</ele>
        <time>2015-02-15T10:05:25Z</time>
      </trkpt>
      <trkpt lat="40.723062" lon="-3.670931">
        <ele>942.772</ele>
        <time>2015-02-15T10:05:26Z</time>
      </trkpt>
      <trkpt lat="40.723031" lon="-3.670905">
        <ele>942.561</ele>
        <time>2015-02-15T10:05:27Z</time>
      </trkpt>
      <trkpt lat="40.723006" lon="-3.670863">
        <ele>942.327</ele>
        <time>2015-02-15T10:05:28Z</time>
      </trkpt>
      <trkpt lat="40.722977" lon="-3.670820">
        <ele>942.118</ele>
        <time>2015-02-15T10:05:29Z</time>
      </trkpt>
      <trkpt lat="40.722944" lon="-3.670748">
        <ele>941.722</ele>
        <time>2015-02-15T10:05:31Z</time>
      </trkpt>
      <trkpt lat="40.722925" lon="-3.670715">
        <ele>941.562</ele>
        <time>2015-02-15T10:05:32Z</time>
      </trkpt>
      <trkpt lat="40.722904" lon="-3.670632">
        <ele>941.208</ele>
        <time>2015-02-15T10:05:34Z</time>
      </trkpt>
      <trkpt lat="40.722886" lon="-3.670575">
        <ele>940.807</ele>
        <time>2015-02-15T10:05:36Z</time>
      </trkpt>
      <trkpt lat="40.722865" lon="-3.670483">
        <ele>940.280</ele>
        <time>2015-02-15T10:05:39Z</time>
      </trkpt>
      <trkpt lat="40.722844" lon="-3.670417">
        <ele>939.850</ele>
        <time>2015-02-15T10:05:41Z</time>
      </trkpt>
      <trkpt lat="40.722820" lon="-3.670349">
        <ele>939.449</ele>
        <time>2015-02-15T10:05:43Z</time>
      </trkpt>
      <trkpt lat="40.722793" lon="-3.670269">
        <ele>939.063</ele>
        <time>2015-02-15T10:05:45Z</time>
      </trkpt>
      <trkpt lat="40.722755" lon="-3.670144">
        <ele>938.232</ele>
        <time>2015-02-15T10:05:48Z</time>
      </trkpt>
      <trkpt lat="40.722739" lon="-3.670077">
        <ele>937.898</ele>
        <time>2015-02-15T10:05:50Z</time>
      </trkpt>
      <trkpt lat="40.722712" lon="-3.669982">
        <ele>937.189</ele>
        <time>2015-02-15T10:05:53Z</time>
      </trkpt>
      <trkpt lat="40.722692" lon="-3.669899">
        <ele>936.738</ele>
        <time>2015-02-15T10:05:55Z</time>
      </trkpt>
      <trkpt lat="40.722667" lon="-3.669767">
        <ele>936.170</ele>
        <time>2015-02-15T10:05:58Z</time>
      </trkpt>
      <trkpt lat="40.722657" lon="-3.669725">
        <ele>935.817</ele>
        <time>2015-02-15T10:05:59Z</time>
      </trkpt>
      <trkpt lat="40.722644" lon="-3.669646">
        <ele>935.407</ele>
        <time>2015-02-15T10:06:01Z</time>
      </trkpt>
      <trkpt lat="40.722615" lon="-3.669538">
        <ele>934.711</ele>
        <time>2015-02-15T10:06:04Z</time>
      </trkpt>
      <trkpt lat="40.722609" lon="-3.669507">
        <ele>934.541</ele>
        <time>2015-02-15T10:06:05Z</time>
      </trkpt>
      <trkpt lat="40.722602" lon="-3.669450">
        <ele>934.130</ele>
        <time>2015-02-15T10:06:07Z</time>
      </trkpt>
      <trkpt lat="40.722603" lon="-3.669430">
        <ele>933.894</ele>
        <time>2015-02-15T10:06:08Z</time>
      </trkpt>
      <trkpt lat="40.722617" lon="-3.669414">
        <ele>933.633</ele>
        <time>2015-02-15T10:06:09Z</time>
      </trkpt>
      <trkpt lat="40.722629" lon="-3.669407">
        <ele>933.439</ele>
        <time>2015-02-15T10:06:10Z</time>
      </trkpt>
      <trkpt lat="40.722646" lon="-3.669412">
        <ele>933.120</ele>
        <time>2015-02-15T10:06:11Z</time>
      </trkpt>
      <trkpt lat="40.722689" lon="-3.669418">
        <ele>932.877</ele>
        <time>2015-02-15T10:06:12Z</time>
      </trkpt>
      <trkpt lat="40.722781" lon="-3.669418">
        <ele>932.161</ele>
        <time>2015-02-15T10:06:15Z</time>
      </trkpt>
      <trkpt lat="40.722833" lon="-3.669389">
        <ele>931.627</ele>
        <time>2015-02-15T10:06:17Z</time>
      </trkpt>
      <trkpt lat="40.722871" lon="-3.669381">
        <ele>931.307</ele>
        <time>2015-02-15T10:06:18Z</time>
      </trkpt>
      <trkpt lat="40.722892" lon="-3.669376">
        <ele>931.125</ele>
        <time>2015-02-15T10:06:19Z</time>
      </trkpt>
      <trkpt lat="40.722914" lon="-3.669361">
        <ele>930.955</ele>
        <time>2015-02-15T10:06:20Z</time>
      </trkpt>
      <trkpt lat="40.722937" lon="-3.669344">
        <ele>930.744</ele>
        <time>2015-02-15T10:06:21Z</time>
      </trkpt>
      <trkpt lat="40.722962" lon="-3.669333">
        <ele>930.638</ele>
        <time>2015-02-15T10:06:22Z</time>
      </trkpt>
      <trkpt lat="40.723001" lon="-3.669314">
        <ele>930.227</ele>
        <time>2015-02-15T10:06:24Z</time>
      </trkpt>
      <trkpt lat="40.723009" lon="-3.669308">
        <ele>930.193</ele>
        <time>2015-02-15T10:06:25Z</time>
      </trkpt>
      <trkpt lat="40.723059" lon="-3.669278">
        <ele>929.584</ele>
        <time>2015-02-15T10:06:29Z</time>
      </trkpt>
      <trkpt lat="40.723091" lon="-3.669239">
        <ele>929.225</ele>
        <time>2015-02-15T10:06:31Z</time>
      </trkpt>
      <trkpt lat="40.723124" lon="-3.669188">
        <ele>928.926</ele>
        <time>2015-02-15T10:06:33Z</time>
      </trkpt>
      <trkpt lat="40.723127" lon="-3.669159">
        <ele>928.808</ele>
        <time>2015-02-15T10:06:34Z</time>
      </trkpt>
      <trkpt lat="40.723127" lon="-3.669128">
        <ele>928.607</ele>
        <time>2015-02-15T10:06:35Z</time>
      </trkpt>
      <trkpt lat="40.723150" lon="-3.669076">
        <ele>928.490</ele>
        <time>2015-02-15T10:06:37Z</time>
      </trkpt>
      <trkpt lat="40.723160" lon="-3.669050">
        <ele>928.210</ele>
        <time>2015-02-15T10:06:39Z</time>
      </trkpt>
      <trkpt lat="40.723184" lon="-3.669025">
        <ele>928.169</ele>
        <time>2015-02-15T10:06:40Z</time>
      </trkpt>
      <trkpt lat="40.723208" lon="-3.668984">
        <ele>927.983</ele>
        <time>2015-02-15T10:06:42Z</time>
      </trkpt>
      <trkpt lat="40.723253" lon="-3.668947">
        <ele>927.812</ele>
        <time>2015-02-15T10:06:44Z</time>
      </trkpt>
      <trkpt lat="40.723275" lon="-3.668928">
        <ele>927.818</ele>
        <time>2015-02-15T10:06:45Z</time>
      </trkpt>
      <trkpt lat="40.723305" lon="-3.668886">
        <ele>927.839</ele>
        <time>2015-02-15T10:06:47Z</time>
      </trkpt>
      <trkpt lat="40.723355" lon="-3.668822">
        <ele>927.739</ele>
        <time>2015-02-15T10:06:50Z</time>
      </trkpt>
      <trkpt lat="40.723371" lon="-3.668795">
        <ele>927.701</ele>
        <time>2015-02-15T10:06:51Z</time>
      </trkpt>
      <trkpt lat="40.723399" lon="-3.668741">
        <ele>927.621</ele>
        <time>2015-02-15T10:06:53Z</time>
      </trkpt>
      <trkpt lat="40.723425" lon="-3.668688">
        <ele>927.607</ele>
        <time>2015-02-15T10:06:55Z</time>
      </trkpt>
      <trkpt lat="40.723450" lon="-3.668612">
        <ele>927.581</ele>
        <time>2015-02-15T10:06:58Z</time>
      </trkpt>
      <trkpt lat="40.723500" lon="-3.668520">
        <ele>927.531</ele>
        <time>2015-02-15T10:07:01Z</time>
      </trkpt>
      <trkpt lat="40.723539" lon="-3.668447">
        <ele>927.650</ele>
        <time>2015-02-15T10:07:04Z</time>
      </trkpt>
      <trkpt lat="40.723574" lon="-3.668388">
        <ele>927.674</ele>
        <time>2015-02-15T10:07:06Z</time>
      </trkpt>
      <trkpt lat="40.723613" lon="-3.668336">
        <ele>927.663</ele>
        <time>2015-02-15T10:07:08Z</time>
      </trkpt>
      <trkpt lat="40.723656" lon="-3.668288">
        <ele>927.779</ele>
        <time>2015-02-15T10:07:10Z</time>
      </trkpt>
      <trkpt lat="40.723714" lon="-3.668213">
        <ele>927.980</ele>
        <time>2015-02-15T10:07:13Z</time>
      </trkpt>
      <trkpt lat="40.723751" lon="-3.668161">
        <ele>928.196</ele>
        <time>2015-02-15T10:07:15Z</time>
      </trkpt>
      <trkpt lat="40.723787" lon="-3.668097">
        <ele>928.231</ele>
        <time>2015-02-15T10:07:17Z</time>
      </trkpt>
      <trkpt lat="40.723815" lon="-3.668025">
        <ele>928.224</ele>
        <time>2015-02-15T10:07:19Z</time>
      </trkpt>
      <trkpt lat="40.723823" lon="-3.667988">
        <ele>928.307</ele>
        <time>2015-02-15T10:07:20Z</time>
      </trkpt>
      <trkpt lat="40.723849" lon="-3.667908">
        <ele>928.347</ele>
        <time>2015-02-15T10:07:22Z</time>
      </trkpt>
      <trkpt lat="40.723874" lon="-3.667834">
        <ele>928.317</ele>
        <time>2015-02-15T10:07:24Z</time>
      </trkpt>
      <trkpt lat="40.723890" lon="-3.667765">
        <ele>928.396</ele>
        <time>2015-02-15T10:07:26Z</time>
      </trkpt>
      <trkpt lat="40.723897" lon="-3.667732">
        <ele>928.390</ele>
        <time>2015-02-15T10:07:27Z</time>
      </trkpt>
      <trkpt lat="40.723898" lon="-3.667705">
        <ele>928.399</ele>
        <time>2015-02-15T10:07:28Z</time>
      </trkpt>
      <trkpt lat="40.723911" lon="-3.667633">
        <ele>928.315</ele>
        <time>2015-02-15T10:07:31Z</time>
      </trkpt>
      <trkpt lat="40.723924" lon="-3.667615">
        <ele>928.366</ele>
        <time>2015-02-15T10:07:32Z</time>
      </trkpt>
      <trkpt lat="40.723942" lon="-3.667598">
        <ele>928.342</ele>
        <time>2015-02-15T10:07:33Z</time>
      </trkpt>
      <trkpt lat="40.723954" lon="-3.667584">
        <ele>928.322</ele>
        <time>2015-02-15T10:07:34Z</time>
      </trkpt>
      <trkpt lat="40.723973" lon="-3.667565">
        <ele>928.314</ele>
        <time>2015-02-15T10:07:35Z</time>
      </trkpt>
      <trkpt lat="40.724001" lon="-3.667521">
        <ele>928.307</ele>
        <time>2015-02-15T10:07:37Z</time>
      </trkpt>
      <trkpt lat="40.724038" lon="-3.667471">
        <ele>928.452</ele>
        <time>2015-02-15T10:07:39Z</time>
      </trkpt>
      <trkpt lat="40.724044" lon="-3.667440">
        <ele>928.492</ele>
        <time>2015-02-15T10:07:40Z</time>
      </trkpt>
      <trkpt lat="40.724049" lon="-3.667405">
        <ele>928.421</ele>
        <time>2015-02-15T10:07:41Z</time>
      </trkpt>
      <trkpt lat="40.724054" lon="-3.667374">
        <ele>928.515</ele>
        <time>2015-02-15T10:07:42Z</time>
      </trkpt>
      <trkpt lat="40.724065" lon="-3.667284">
        <ele>928.524</ele>
        <time>2015-02-15T10:07:45Z</time>
      </trkpt>
      <trkpt lat="40.724081" lon="-3.667234">
        <ele>928.590</ele>
        <time>2015-02-15T10:07:47Z</time>
      </trkpt>
      <trkpt lat="40.724091" lon="-3.667206">
        <ele>928.471</ele>
        <time>2015-02-15T10:07:48Z</time>
      </trkpt>
      <trkpt lat="40.724105" lon="-3.667146">
        <ele>928.459</ele>
        <time>2015-02-15T10:07:50Z</time>
      </trkpt>
      <trkpt lat="40.724132" lon="-3.667049">
        <ele>928.403</ele>
        <time>2015-02-15T10:07:53Z</time>
      </trkpt>
      <trkpt lat="40.724157" lon="-3.666987">
        <ele>928.423</ele>
        <time>2015-02-15T10:07:55Z</time>
      </trkpt>
      <trkpt lat="40.724186" lon="-3.666930">
        <ele>928.407</ele>
        <time>2015-02-15T10:07:57Z</time>
      </trkpt>
      <trkpt lat="40.724233" lon="-3.666848">
        <ele>928.433</ele>
        <time>2015-02-15T10:08:00Z</time>
      </trkpt>
      <trkpt lat="40.724264" lon="-3.666802">
        <ele>928.323</ele>
        <time>2015-02-15T10:08:03Z</time>
      </trkpt>
      <trkpt lat="40.724324" lon="-3.666707">
        <ele>928.292</ele>
        <time>2015-02-15T10:08:06Z</time>
      </trkpt>
      <trkpt lat="40.724374" lon="-3.666625">
        <ele>928.136</ele>
        <time>2015-02-15T10:08:10Z</time>
      </trkpt>
      <trkpt lat="40.724404" lon="-3.666555">
        <ele>928.065</ele>
        <time>2015-02-15T10:08:12Z</time>
      </trkpt>
      <trkpt lat="40.724429" lon="-3.666516">
        <ele>928.021</ele>
        <time>2015-02-15T10:08:13Z</time>
      </trkpt>
      <trkpt lat="40.724460" lon="-3.666433">
        <ele>927.912</ele>
        <time>2015-02-15T10:08:15Z</time>
      </trkpt>
      <trkpt lat="40.724485" lon="-3.666403">
        <ele>927.812</ele>
        <time>2015-02-15T10:08:16Z</time>
      </trkpt>
      <trkpt lat="40.724501" lon="-3.666364">
        <ele>927.732</ele>
        <time>2015-02-15T10:08:17Z</time>
      </trkpt>
      <trkpt lat="40.724507" lon="-3.666329">
        <ele>927.705</ele>
        <time>2015-02-15T10:08:18Z</time>
      </trkpt>
      <trkpt lat="40.724523" lon="-3.666258">
        <ele>927.507</ele>
        <time>2015-02-15T10:08:20Z</time>
      </trkpt>
      <trkpt lat="40.724526" lon="-3.666179">
        <ele>927.429</ele>
        <time>2015-02-15T10:08:22Z</time>
      </trkpt>
      <trkpt lat="40.724496" lon="-3.666107">
        <ele>927.339</ele>
        <time>2015-02-15T10:08:23Z</time>
      </trkpt>
      <trkpt lat="40.724462" lon="-3.666035">
        <ele>927.198</ele>
        <time>2015-02-15T10:08:25Z</time>
      </trkpt>
      <trkpt lat="40.724460" lon="-3.665995">
        <ele>927.012</ele>
        <time>2015-02-15T10:08:26Z</time>
      </trkpt>
      <trkpt lat="40.724455" lon="-3.665957">
        <ele>926.931</ele>
        <time>2015-02-15T10:08:27Z</time>
      </trkpt>
      <trkpt lat="40.724452" lon="-3.665906">
        <ele>926.887</ele>
        <time>2015-02-15T10:08:28Z</time>
      </trkpt>
      <trkpt lat="40.724453" lon="-3.665858">
        <ele>926.728</ele>
        <time>2015-02-15T10:08:29Z</time>
      </trkpt>
      <trkpt lat="40.724443" lon="-3.665719">
        <ele>926.351</ele>
        <time>2015-02-15T10:08:32Z</time>
      </trkpt>
      <trkpt lat="40.724442" lon="-3.665586">
        <ele>925.801</ele>
        <time>2015-02-15T10:08:35Z</time>
      </trkpt>
      <trkpt lat="40.724450" lon="-3.665494">
        <ele>925.411</ele>
        <time>2015-02-15T10:08:37Z</time>
      </trkpt>
      <trkpt lat="40.724463" lon="-3.665451">
        <ele>925.207</ele>
        <time>2015-02-15T10:08:38Z</time>
      </trkpt>
      <trkpt lat="40.724473" lon="-3.665405">
        <ele>925.093</ele>
        <time>2015-02-15T10:08:39Z</time>
      </trkpt>
      <trkpt lat="40.724480" lon="-3.665355">
        <ele>924.813</ele>
        <time>2015-02-15T10:08:40Z</time>
      </trkpt>
      <trkpt lat="40.724501" lon="-3.665201">
        <ele>924.222</ele>
        <time>2015-02-15T10:08:43Z</time>
      </trkpt>
      <trkpt lat="40.724520" lon="-3.665031">
        <ele>923.546</ele>
        <time>2015-02-15T10:08:46Z</time>
      </trkpt>
      <trkpt lat="40.724513" lon="-3.664971">
        <ele>923.225</ele>
        <time>2015-02-15T10:08:47Z</time>
      </trkpt>
      <trkpt lat="40.724514" lon="-3.664853">
        <ele>922.811</ele>
        <time>2015-02-15T10:08:49Z</time>
      </trkpt>
      <trkpt lat="40.724500" lon="-3.664687">
        <ele>922.162</ele>
        <time>2015-02-15T10:08:52Z</time>
      </trkpt>
      <trkpt lat="40.724495" lon="-3.664575">
        <ele>921.644</ele>
        <time>2015-02-15T10:08:54Z</time>
      </trkpt>
      <trkpt lat="40.724497" lon="-3.664470">
        <ele>921.105</ele>
        <time>2015-02-15T10:08:56Z</time>
      </trkpt>
      <trkpt lat="40.724497" lon="-3.664359">
        <ele>920.515</ele>
        <time>2015-02-15T10:08:58Z</time>
      </trkpt>
      <trkpt lat="40.724496" lon="-3.664185">
        <ele>919.607</ele>
        <time>2015-02-15T10:09:01Z</time>
      </trkpt>
      <trkpt lat="40.724506" lon="-3.664004">
        <ele>918.812</ele>
        <time>2015-02-15T10:09:04Z</time>
      </trkpt>
      <trkpt lat="40.724531" lon="-3.663889">
        <ele>918.212</ele>
        <time>2015-02-15T10:09:06Z</time>
      </trkpt>
      <trkpt lat="40.724548" lon="-3.663780">
        <ele>917.611</ele>
        <time>2015-02-15T10:09:08Z</time>
      </trkpt>
      <trkpt lat="40.724561" lon="-3.663740">
        <ele>917.335</ele>
        <time>2015-02-15T10:09:09Z</time>
      </trkpt>
      <trkpt lat="40.724585" lon="-3.663695">
        <ele>917.134</ele>
        <time>2015-02-15T10:09:10Z</time>
      </trkpt>
      <trkpt lat="40.724612" lon="-3.663655">
        <ele>916.830</ele>
        <time>2015-02-15T10:09:11Z</time>
      </trkpt>
      <trkpt lat="40.724669" lon="-3.663599">
        <ele>916.221</ele>
        <time>2015-02-15T10:09:14Z</time>
      </trkpt>
      <trkpt lat="40.724692" lon="-3.663576">
        <ele>916.187</ele>
        <time>2015-02-15T10:09:15Z</time>
      </trkpt>
      <trkpt lat="40.724716" lon="-3.663544">
        <ele>915.842</ele>
        <time>2015-02-15T10:09:16Z</time>
      </trkpt>
      <trkpt lat="40.724732" lon="-3.663532">
        <ele>915.626</ele>
        <time>2015-02-15T10:09:17Z</time>
      </trkpt>
      <trkpt lat="40.724743" lon="-3.663532">
        <ele>915.307</ele>
        <time>2015-02-15T10:09:18Z</time>
      </trkpt>
      <trkpt lat="40.724772" lon="-3.663525">
        <ele>914.946</ele>
        <time>2015-02-15T10:09:20Z</time>
      </trkpt>
      <trkpt lat="40.724794" lon="-3.663518">
        <ele>914.556</ele>
        <time>2015-02-15T10:09:21Z</time>
      </trkpt>
      <trkpt lat="40.724829" lon="-3.663502">
        <ele>914.215</ele>
        <time>2015-02-15T10:09:23Z</time>
      </trkpt>
      <trkpt lat="40.724869" lon="-3.663495">
        <ele>913.899</ele>
        <time>2015-02-15T10:09:25Z</time>
      </trkpt>
      <trkpt lat="40.724906" lon="-3.663481">
        <ele>913.458</ele>
        <time>2015-02-15T10:09:27Z</time>
      </trkpt>
      <trkpt lat="40.724944" lon="-3.663480">
        <ele>913.264</ele>
        <time>2015-02-15T10:09:28Z</time>
      </trkpt>
      <trkpt lat="40.724997" lon="-3.663470">
        <ele>912.475</ele>
        <time>2015-02-15T10:09:31Z</time>
      </trkpt>
      <trkpt lat="40.725025" lon="-3.663457">
        <ele>912.442</ele>
        <time>2015-02-15T10:09:32Z</time>
      </trkpt>
      <trkpt lat="40.725049" lon="-3.663443">
        <ele>912.222</ele>
        <time>2015-02-15T10:09:33Z</time>
      </trkpt>
      <trkpt lat="40.725062" lon="-3.663424">
        <ele>912.014</ele>
        <time>2015-02-15T10:09:34Z</time>
      </trkpt>
      <trkpt lat="40.725070" lon="-3.663406">
        <ele>911.907</ele>
        <time>2015-02-15T10:09:35Z</time>
      </trkpt>
      <trkpt lat="40.725095" lon="-3.663368">
        <ele>911.682</ele>
        <time>2015-02-15T10:09:37Z</time>
      </trkpt>
      <trkpt lat="40.725114" lon="-3.663317">
        <ele>911.412</ele>
        <time>2015-02-15T10:09:39Z</time>
      </trkpt>
      <trkpt lat="40.725126" lon="-3.663285">
        <ele>911.361</ele>
        <time>2015-02-15T10:09:40Z</time>
      </trkpt>
      <trkpt lat="40.725132" lon="-3.663250">
        <ele>911.245</ele>
        <time>2015-02-15T10:09:41Z</time>
      </trkpt>
      <trkpt lat="40.725128" lon="-3.663187">
        <ele>910.994</ele>
        <time>2015-02-15T10:09:43Z</time>
      </trkpt>
      <trkpt lat="40.725124" lon="-3.663150">
        <ele>910.870</ele>
        <time>2015-02-15T10:09:44Z</time>
      </trkpt>
      <trkpt lat="40.725113" lon="-3.663117">
        <ele>910.731</ele>
        <time>2015-02-15T10:09:45Z</time>
      </trkpt>
      <trkpt lat="40.725108" lon="-3.663082">
        <ele>910.673</ele>
        <time>2015-02-15T10:09:46Z</time>
      </trkpt>
      <trkpt lat="40.725085" lon="-3.663008">
        <ele>910.485</ele>
        <time>2015-02-15T10:09:49Z</time>
      </trkpt>
      <trkpt lat="40.725061" lon="-3.662948">
        <ele>910.213</ele>
        <time>2015-02-15T10:09:51Z</time>
      </trkpt>
      <trkpt lat="40.725029" lon="-3.662897">
        <ele>910.107</ele>
        <time>2015-02-15T10:09:53Z</time>
      </trkpt>
      <trkpt lat="40.725022" lon="-3.662868">
        <ele>910.145</ele>
        <time>2015-02-15T10:09:54Z</time>
      </trkpt>
      <trkpt lat="40.725013" lon="-3.662843">
        <ele>910.175</ele>
        <time>2015-02-15T10:09:55Z</time>
      </trkpt>
      <trkpt lat="40.724977" lon="-3.662768">
        <ele>910.264</ele>
        <time>2015-02-15T10:09:58Z</time>
      </trkpt>
      <trkpt lat="40.724964" lon="-3.662744">
        <ele>910.238</ele>
        <time>2015-02-15T10:09:59Z</time>
      </trkpt>
      <trkpt lat="40.724931" lon="-3.662670">
        <ele>910.397</ele>
        <time>2015-02-15T10:10:02Z</time>
      </trkpt>
      <trkpt lat="40.724885" lon="-3.662587">
        <ele>910.483</ele>
        <time>2015-02-15T10:10:05Z</time>
      </trkpt>
      <trkpt lat="40.724860" lon="-3.662539">
        <ele>910.534</ele>
        <time>2015-02-15T10:10:07Z</time>
      </trkpt>
      <trkpt lat="40.724841" lon="-3.662504">
        <ele>910.544</ele>
        <time>2015-02-15T10:10:08Z</time>
      </trkpt>
      <trkpt lat="40.724795" lon="-3.662435">
        <ele>910.605</ele>
        <time>2015-02-15T10:10:10Z</time>
      </trkpt>
      <trkpt lat="40.724767" lon="-3.662399">
        <ele>910.615</ele>
        <time>2015-02-15T10:10:11Z</time>
      </trkpt>
      <trkpt lat="40.724721" lon="-3.662327">
        <ele>910.707</ele>
        <time>2015-02-15T10:10:14Z</time>
      </trkpt>
      <trkpt lat="40.724700" lon="-3.662299">
        <ele>910.792</ele>
        <time>2015-02-15T10:10:14Z</time>
      </trkpt>
      <trkpt lat="40.724677" lon="-3.662274">
        <ele>910.752</ele>
        <time>2015-02-15T10:10:15Z</time>
      </trkpt>
      <trkpt lat="40.724629" lon="-3.662216">
        <ele>910.841</ele>
        <time>2015-02-15T10:10:17Z</time>
      </trkpt>
      <trkpt lat="40.724543" lon="-3.662121">
        <ele>910.895</ele>
        <time>2015-02-15T10:10:21Z</time>
      </trkpt>
      <trkpt lat="40.724447" lon="-3.662024">
        <ele>910.974</ele>
        <time>2015-02-15T10:10:24Z</time>
      </trkpt>
      <trkpt lat="40.724384" lon="-3.661941">
        <ele>910.920</ele>
        <time>2015-02-15T10:10:26Z</time>
      </trkpt>
      <trkpt lat="40.724353" lon="-3.661891">
        <ele>910.941</ele>
        <time>2015-02-15T10:10:27Z</time>
      </trkpt>
      <trkpt lat="40.724323" lon="-3.661858">
        <ele>910.881</ele>
        <time>2015-02-15T10:10:28Z</time>
      </trkpt>
      <trkpt lat="40.724293" lon="-3.661839">
        <ele>910.861</ele>
        <time>2015-02-15T10:10:29Z</time>
      </trkpt>
      <trkpt lat="40.724262" lon="-3.661816">
        <ele>910.917</ele>
        <time>2015-02-15T10:10:30Z</time>
      </trkpt>
      <trkpt lat="40.724239" lon="-3.661799">
        <ele>910.907</ele>
        <time>2015-02-15T10:10:31Z</time>
      </trkpt>
      <trkpt lat="40.724209" lon="-3.661786">
        <ele>910.986</ele>
        <time>2015-02-15T10:10:32Z</time>
      </trkpt>
      <trkpt lat="40.724187" lon="-3.661770">
        <ele>910.816</ele>
        <time>2015-02-15T10:10:33Z</time>
      </trkpt>
      <trkpt lat="40.724084" lon="-3.661715">
        <ele>910.625</ele>
        <time>2015-02-15T10:10:37Z</time>
      </trkpt>
      <trkpt lat="40.724004" lon="-3.661665">
        <ele>910.529</ele>
        <time>2015-02-15T10:10:39Z</time>
      </trkpt>
      <trkpt lat="40.723940" lon="-3.661643">
        <ele>910.418</ele>
        <time>2015-02-15T10:10:41Z</time>
      </trkpt>
      <trkpt lat="40.723873" lon="-3.661635">
        <ele>910.384</ele>
        <time>2015-02-15T10:10:43Z</time>
      </trkpt>
      <trkpt lat="40.723795" lon="-3.661627">
        <ele>910.225</ele>
        <time>2015-02-15T10:10:45Z</time>
      </trkpt>
      <trkpt lat="40.723643" lon="-3.661615">
        <ele>909.816</ele>
        <time>2015-02-15T10:10:49Z</time>
      </trkpt>
      <trkpt lat="40.723566" lon="-3.661589">
        <ele>909.776</ele>
        <time>2015-02-15T10:10:51Z</time>
      </trkpt>
      <trkpt lat="40.723531" lon="-3.661569">
        <ele>909.613</ele>
        <time>2015-02-15T10:10:52Z</time>
      </trkpt>
      <trkpt lat="40.723398" lon="-3.661482">
        <ele>909.007</ele>
        <time>2015-02-15T10:10:56Z</time>
      </trkpt>
      <trkpt lat="40.723373" lon="-3.661449">
        <ele>908.889</ele>
        <time>2015-02-15T10:10:57Z</time>
      </trkpt>
      <trkpt lat="40.723352" lon="-3.661421">
        <ele>908.679</ele>
        <time>2015-02-15T10:10:58Z</time>
      </trkpt>
      <trkpt lat="40.723303" lon="-3.661374">
        <ele>908.348</ele>
        <time>2015-02-15T10:11:00Z</time>
      </trkpt>
      <trkpt lat="40.723233" lon="-3.661297">
        <ele>907.782</ele>
        <time>2015-02-15T10:11:03Z</time>
      </trkpt>
      <trkpt lat="40.723180" lon="-3.661215">
        <ele>907.251</ele>
        <time>2015-02-15T10:11:06Z</time>
      </trkpt>
      <trkpt lat="40.723158" lon="-3.661193">
        <ele>907.167</ele>
        <time>2015-02-15T10:11:07Z</time>
      </trkpt>
      <trkpt lat="40.723124" lon="-3.661169">
        <ele>906.938</ele>
        <time>2015-02-15T10:11:08Z</time>
      </trkpt>
      <trkpt lat="40.723093" lon="-3.661144">
        <ele>906.851</ele>
        <time>2015-02-15T10:11:09Z</time>
      </trkpt>
      <trkpt lat="40.723060" lon="-3.661113">
        <ele>906.601</ele>
        <time>2015-02-15T10:11:10Z</time>
      </trkpt>
      <trkpt lat="40.722975" lon="-3.661024">
        <ele>906.211</ele>
        <time>2015-02-15T10:11:13Z</time>
      </trkpt>
      <trkpt lat="40.722909" lon="-3.660961">
        <ele>905.907</ele>
        <time>2015-02-15T10:11:15Z</time>
      </trkpt>
      <trkpt lat="40.722874" lon="-3.660920">
        <ele>905.843</ele>
        <time>2015-02-15T10:11:16Z</time>
      </trkpt>
      <trkpt lat="40.722831" lon="-3.660881">
        <ele>905.623</ele>
        <time>2015-02-15T10:11:17Z</time>
      </trkpt>
      <trkpt lat="40.722794" lon="-3.660839">
        <ele>905.572</ele>
        <time>2015-02-15T10:11:18Z</time>
      </trkpt>
      <trkpt lat="40.722732" lon="-3.660762">
        <ele>905.246</ele>
        <time>2015-02-15T10:11:20Z</time>
      </trkpt>
      <trkpt lat="40.722650" lon="-3.660652">
        <ele>904.895</ele>
        <time>2015-02-15T10:11:23Z</time>
      </trkpt>
      <trkpt lat="40.722629" lon="-3.660620">
        <ele>904.721</ele>
        <time>2015-02-15T10:11:24Z</time>
      </trkpt>
      <trkpt lat="40.722594" lon="-3.660571">
        <ele>904.482</ele>
        <time>2015-02-15T10:11:26Z</time>
      </trkpt>
      <trkpt lat="40.722547" lon="-3.660520">
        <ele>904.331</ele>
        <time>2015-02-15T10:11:28Z</time>
      </trkpt>
      <trkpt lat="40.722518" lon="-3.660510">
        <ele>904.261</ele>
        <time>2015-02-15T10:11:29Z</time>
      </trkpt>
      <trkpt lat="40.722442" lon="-3.660480">
        <ele>903.907</ele>
        <time>2015-02-15T10:11:32Z</time>
      </trkpt>
      <trkpt lat="40.722360" lon="-3.660438">
        <ele>903.707</ele>
        <time>2015-02-15T10:11:35Z</time>
      </trkpt>
      <trkpt lat="40.722309" lon="-3.660401">
        <ele>903.591</ele>
        <time>2015-02-15T10:11:37Z</time>
      </trkpt>
      <trkpt lat="40.722262" lon="-3.660373">
        <ele>903.471</ele>
        <time>2015-02-15T10:11:39Z</time>
      </trkpt>
      <trkpt lat="40.722194" lon="-3.660331">
        <ele>903.230</ele>
        <time>2015-02-15T10:11:43Z</time>
      </trkpt>
      <trkpt lat="40.722151" lon="-3.660295">
        <ele>903.194</ele>
        <time>2015-02-15T10:11:45Z</time>
      </trkpt>
      <trkpt lat="40.722126" lon="-3.660269">
        <ele>903.063</ele>
        <time>2015-02-15T10:11:46Z</time>
      </trkpt>
      <trkpt lat="40.722109" lon="-3.660243">
        <ele>903.019</ele>
        <time>2015-02-15T10:11:47Z</time>
      </trkpt>
      <trkpt lat="40.722087" lon="-3.660213">
        <ele>903.090</ele>
        <time>2015-02-15T10:11:48Z</time>
      </trkpt>
      <trkpt lat="40.722066" lon="-3.660187">
        <ele>902.922</ele>
        <time>2015-02-15T10:11:49Z</time>
      </trkpt>
      <trkpt lat="40.722047" lon="-3.660167">
        <ele>902.962</ele>
        <time>2015-02-15T10:11:50Z</time>
      </trkpt>
      <trkpt lat="40.721982" lon="-3.660105">
        <ele>902.808</ele>
        <time>2015-02-15T10:11:53Z</time>
      </trkpt>
      <trkpt lat="40.721959" lon="-3.660090">
        <ele>902.807</ele>
        <time>2015-02-15T10:11:54Z</time>
      </trkpt>
      <trkpt lat="40.721933" lon="-3.660076">
        <ele>902.890</ele>
        <time>2015-02-15T10:11:55Z</time>
      </trkpt>
      <trkpt lat="40.721867" lon="-3.660036">
        <ele>902.860</ele>
        <time>2015-02-15T10:11:57Z</time>
      </trkpt>
      <trkpt lat="40.721799" lon="-3.659980">
        <ele>902.839</ele>
        <time>2015-02-15T10:11:59Z</time>
      </trkpt>
      <trkpt lat="40.721721" lon="-3.659925">
        <ele>902.833</ele>
        <time>2015-02-15T10:12:01Z</time>
      </trkpt>
      <trkpt lat="40.721608" lon="-3.659860">
        <ele>902.772</ele>
        <time>2015-02-15T10:12:02Z</time>
      </trkpt>
      <trkpt lat="40.721557" lon="-3.659819">
        <ele>902.798</ele>
        <time>2015-02-15T10:12:03Z</time>
      </trkpt>
      <trkpt lat="40.721504" lon="-3.659791">
        <ele>902.759</ele>
        <time>2015-02-15T10:12:04Z</time>
      </trkpt>
      <trkpt lat="40.721436" lon="-3.659776">
        <ele>902.677</ele>
        <time>2015-02-15T10:12:05Z</time>
      </trkpt>
      <trkpt lat="40.721381" lon="-3.659750">
        <ele>902.661</ele>
        <time>2015-02-15T10:12:06Z</time>
      </trkpt>
      <trkpt lat="40.721325" lon="-3.659718">
        <ele>902.627</ele>
        <time>2015-02-15T10:12:07Z</time>
      </trkpt>
      <trkpt lat="40.721289" lon="-3.659675">
        <ele>902.507</ele>
        <time>2015-02-15T10:12:08Z</time>
      </trkpt>
      <trkpt lat="40.721245" lon="-3.659634">
        <ele>902.595</ele>
        <time>2015-02-15T10:12:09Z</time>
      </trkpt>
      <trkpt lat="40.721201" lon="-3.659577">
        <ele>902.445</ele>
        <time>2015-02-15T10:12:10Z</time>
      </trkpt>
      <trkpt lat="40.721169" lon="-3.659511">
        <ele>902.334</ele>
        <time>2015-02-15T10:12:11Z</time>
      </trkpt>
      <trkpt lat="40.721143" lon="-3.659435">
        <ele>902.388</ele>
        <time>2015-02-15T10:12:12Z</time>
      </trkpt>
      <trkpt lat="40.721122" lon="-3.659364">
        <ele>902.227</ele>
        <time>2015-02-15T10:12:13Z</time>
      </trkpt>
      <trkpt lat="40.721098" lon="-3.659297">
        <ele>902.133</ele>
        <time>2015-02-15T10:12:14Z</time>
      </trkpt>
      <trkpt lat="40.721035" lon="-3.659169">
        <ele>901.944</ele>
        <time>2015-02-15T10:12:16Z</time>
      </trkpt>
      <trkpt lat="40.720976" lon="-3.659076">
        <ele>901.762</ele>
        <time>2015-02-15T10:12:18Z</time>
      </trkpt>
      <trkpt lat="40.720937" lon="-3.659045">
        <ele>901.683</ele>
        <time>2015-02-15T10:12:19Z</time>
      </trkpt>
      <trkpt lat="40.720903" lon="-3.659016">
        <ele>901.511</ele>
        <time>2015-02-15T10:12:20Z</time>
      </trkpt>
      <trkpt lat="40.720849" lon="-3.658973">
        <ele>901.407</ele>
        <time>2015-02-15T10:12:22Z</time>
      </trkpt>
      <trkpt lat="40.720795" lon="-3.658926">
        <ele>901.214</ele>
        <time>2015-02-15T10:12:24Z</time>
      </trkpt>
      <trkpt lat="40.720738" lon="-3.658878">
        <ele>901.054</ele>
        <time>2015-02-15T10:12:26Z</time>
      </trkpt>
      <trkpt lat="40.720683" lon="-3.658833">
        <ele>900.843</ele>
        <time>2015-02-15T10:12:28Z</time>
      </trkpt>
      <trkpt lat="40.720653" lon="-3.658814">
        <ele>900.767</ele>
        <time>2015-02-15T10:12:29Z</time>
      </trkpt>
      <trkpt lat="40.720567" lon="-3.658768">
        <ele>900.436</ele>
        <time>2015-02-15T10:12:32Z</time>
      </trkpt>
      <trkpt lat="40.720524" lon="-3.658726">
        <ele>900.262</ele>
        <time>2015-02-15T10:12:34Z</time>
      </trkpt>
      <trkpt lat="40.720498" lon="-3.658706">
        <ele>900.283</ele>
        <time>2015-02-15T10:12:35Z</time>
      </trkpt>
      <trkpt lat="40.720439" lon="-3.658657">
        <ele>900.039</ele>
        <time>2015-02-15T10:12:37Z</time>
      </trkpt>
      <trkpt lat="40.720344" lon="-3.658580">
        <ele>899.701</ele>
        <time>2015-02-15T10:12:40Z</time>
      </trkpt>
      <trkpt lat="40.720242" lon="-3.658486">
        <ele>899.421</ele>
        <time>2015-02-15T10:12:43Z</time>
      </trkpt>
      <trkpt lat="40.720211" lon="-3.658448">
        <ele>899.307</ele>
        <time>2015-02-15T10:12:44Z</time>
      </trkpt>
      <trkpt lat="40.720178" lon="-3.658420">
        <ele>899.311</ele>
        <time>2015-02-15T10:12:45Z</time>
      </trkpt>
      <trkpt lat="40.720151" lon="-3.658398">
        <ele>899.291</ele>
        <time>2015-02-15T10:12:46Z</time>
      </trkpt>
      <trkpt lat="40.720063" lon="-3.658327">
        <ele>898.970</ele>
        <time>2015-02-15T10:12:49Z</time>
      </trkpt>
      <trkpt lat="40.719981" lon="-3.658264">
        <ele>898.764</ele>
        <time>2015-02-15T10:12:52Z</time>
      </trkpt>
      <trkpt lat="40.719897" lon="-3.658200">
        <ele>898.533</ele>
        <time>2015-02-15T10:12:55Z</time>
      </trkpt>
      <trkpt lat="40.719814" lon="-3.658133">
        <ele>898.199</ele>
        <time>2015-02-15T10:12:59Z</time>
      </trkpt>
      <trkpt lat="40.719759" lon="-3.658076">
        <ele>897.880</ele>
        <time>2015-02-15T10:13:02Z</time>
      </trkpt>
      <trkpt lat="40.719698" lon="-3.658039">
        <ele>897.639</ele>
        <time>2015-02-15T10:13:04Z</time>
      </trkpt>
      <trkpt lat="40.719660" lon="-3.658021">
        <ele>897.501</ele>
        <time>2015-02-15T10:13:05Z</time>
      </trkpt>
      <trkpt lat="40.719616" lon="-3.657984">
        <ele>897.421</ele>
        <time>2015-02-15T10:13:07Z</time>
      </trkpt>
      <trkpt lat="40.719569" lon="-3.657937">
        <ele>897.207</ele>
        <time>2015-02-15T10:13:09Z</time>
      </trkpt>
      <trkpt lat="40.719496" lon="-3.657896">
        <ele>897.031</ele>
        <time>2015-02-15T10:13:12Z</time>
      </trkpt>
      <trkpt lat="40.719390" lon="-3.657818">
        <ele>896.991</ele>
        <time>2015-02-15T10:13:15Z</time>
      </trkpt>
      <trkpt lat="40.719366" lon="-3.657799">
        <ele>896.870</ele>
        <time>2015-02-15T10:13:16Z</time>
      </trkpt>
      <trkpt lat="40.719347" lon="-3.657775">
        <ele>896.884</ele>
        <time>2015-02-15T10:13:17Z</time>
      </trkpt>
      <trkpt lat="40.719288" lon="-3.657702">
        <ele>896.643</ele>
        <time>2015-02-15T10:13:20Z</time>
      </trkpt>
      <trkpt lat="40.719250" lon="-3.657650">
        <ele>896.559</ele>
        <time>2015-02-15T10:13:22Z</time>
      </trkpt>
      <trkpt lat="40.719227" lon="-3.657628">
        <ele>896.560</ele>
        <time>2015-02-15T10:13:23Z</time>
      </trkpt>
      <trkpt lat="40.719206" lon="-3.657604">
        <ele>896.469</ele>
        <time>2015-02-15T10:13:24Z</time>
      </trkpt>
      <trkpt lat="40.719147" lon="-3.657537">
        <ele>896.204</ele>
        <time>2015-02-15T10:13:27Z</time>
      </trkpt>
      <trkpt lat="40.719092" lon="-3.657455">
        <ele>896.124</ele>
        <time>2015-02-15T10:13:30Z</time>
      </trkpt>
      <trkpt lat="40.719062" lon="-3.657401">
        <ele>895.907</ele>
        <time>2015-02-15T10:13:32Z</time>
      </trkpt>
      <trkpt lat="40.719038" lon="-3.657346">
        <ele>895.834</ele>
        <time>2015-02-15T10:13:34Z</time>
      </trkpt>
      <trkpt lat="40.719020" lon="-3.657323">
        <ele>895.714</ele>
        <time>2015-02-15T10:13:35Z</time>
      </trkpt>
      <trkpt lat="40.718993" lon="-3.657309">
        <ele>895.723</ele>
        <time>2015-02-15T10:13:36Z</time>
      </trkpt>
      <trkpt lat="40.718974" lon="-3.657295">
        <ele>895.697</ele>
        <time>2015-02-15T10:13:37Z</time>
      </trkpt>
      <trkpt lat="40.718953" lon="-3.657278">
        <ele>895.646</ele>
        <time>2015-02-15T10:13:38Z</time>
      </trkpt>
      <trkpt lat="40.718900" lon="-3.657245">
        <ele>895.552</ele>
        <time>2015-02-15T10:13:40Z</time>
      </trkpt>
      <trkpt lat="40.718836" lon="-3.657204">
        <ele>895.453</ele>
        <time>2015-02-15T10:13:42Z</time>
      </trkpt>
      <trkpt lat="40.718808" lon="-3.657177">
        <ele>895.413</ele>
        <time>2015-02-15T10:13:43Z</time>
      </trkpt>
      <trkpt lat="40.718714" lon="-3.657105">
        <ele>895.143</ele>
        <time>2015-02-15T10:13:46Z</time>
      </trkpt>
      <trkpt lat="40.718674" lon="-3.657087">
        <ele>895.107</ele>
        <time>2015-02-15T10:13:47Z</time>
      </trkpt>
      <trkpt lat="40.718619" lon="-3.657046">
        <ele>894.907</ele>
        <time>2015-02-15T10:13:49Z</time>
      </trkpt>
      <trkpt lat="40.718541" lon="-3.656988">
        <ele>894.669</ele>
        <time>2015-02-15T10:13:52Z</time>
      </trkpt>
      <trkpt lat="40.718503" lon="-3.656965">
        <ele>894.419</ele>
        <time>2015-02-15T10:13:54Z</time>
      </trkpt>
      <trkpt lat="40.718505" lon="-3.656969">
        <ele>894.198</ele>
        <time>2015-02-15T10:13:57Z</time>
      </trkpt>
      <trkpt lat="40.718502" lon="-3.656974">
        <ele>893.992</ele>
        <time>2015-02-15T10:14:00Z</time>
      </trkpt>
      <trkpt lat="40.718503" lon="-3.656974">
        <ele>893.811</ele>
        <time>2015-02-15T10:14:03Z</time>
      </trkpt>
      <trkpt lat="40.718470" lon="-3.656976">
        <ele>893.777</ele>
        <time>2015-02-15T10:14:05Z</time>
      </trkpt>
      <trkpt lat="40.718432" lon="-3.656978">
        <ele>893.658</ele>
        <time>2015-02-15T10:14:07Z</time>
      </trkpt>
      <trkpt lat="40.718412" lon="-3.656975">
        <ele>893.585</ele>
        <time>2015-02-15T10:14:08Z</time>
      </trkpt>
      <trkpt lat="40.718390" lon="-3.656971">
        <ele>893.589</ele>
        <time>2015-02-15T10:14:09Z</time>
      </trkpt>
      <trkpt lat="40.718347" lon="-3.656970">
        <ele>893.317</ele>
        <time>2015-02-15T10:14:11Z</time>
      </trkpt>
      <trkpt lat="40.718307" lon="-3.656977">
        <ele>893.207</ele>
        <time>2015-02-15T10:14:14Z</time>
      </trkpt>
      <trkpt lat="40.718245" lon="-3.656991">
        <ele>893.066</ele>
        <time>2015-02-15T10:14:17Z</time>
      </trkpt>
      <trkpt lat="40.718183" lon="-3.657012">
        <ele>892.946</ele>
        <time>2015-02-15T10:14:20Z</time>
      </trkpt>
      <trkpt lat="40.718123" lon="-3.657034">
        <ele>892.815</ele>
        <time>2015-02-15T10:14:23Z</time>
      </trkpt>
      <trkpt lat="40.718090" lon="-3.657068">
        <ele>892.749</ele>
        <time>2015-02-15T10:14:25Z</time>
      </trkpt>
      <trkpt lat="40.718056" lon="-3.657108">
        <ele>892.728</ele>
        <time>2015-02-15T10:14:26Z</time>
      </trkpt>
      <trkpt lat="40.718044" lon="-3.657133">
        <ele>892.644</ele>
        <time>2015-02-15T10:14:27Z</time>
      </trkpt>
      <trkpt lat="40.718033" lon="-3.657156">
        <ele>892.635</ele>
        <time>2015-02-15T10:14:28Z</time>
      </trkpt>
      <trkpt lat="40.718020" lon="-3.657177">
        <ele>892.589</ele>
        <time>2015-02-15T10:14:29Z</time>
      </trkpt>
      <trkpt lat="40.717986" lon="-3.657214">
        <ele>892.406</ele>
        <time>2015-02-15T10:14:31Z</time>
      </trkpt>
      <trkpt lat="40.717969" lon="-3.657233">
        <ele>892.326</ele>
        <time>2015-02-15T10:14:32Z</time>
      </trkpt>
      <trkpt lat="40.717947" lon="-3.657264">
        <ele>892.207</ele>
        <time>2015-02-15T10:14:34Z</time>
      </trkpt>
      <trkpt lat="40.717935" lon="-3.657281">
        <ele>892.116</ele>
        <time>2015-02-15T10:14:35Z</time>
      </trkpt>
      <trkpt lat="40.717913" lon="-3.657301">
        <ele>892.076</ele>
        <time>2015-02-15T10:14:37Z</time>
      </trkpt>
      <trkpt lat="40.717884" lon="-3.657314">
        <ele>891.945</ele>
        <time>2015-02-15T10:14:39Z</time>
      </trkpt>
      <trkpt lat="40.717867" lon="-3.657310">
        <ele>891.819</ele>
        <time>2015-02-15T10:14:40Z</time>
      </trkpt>
      <trkpt lat="40.717847" lon="-3.657304">
        <ele>891.778</ele>
        <time>2015-02-15T10:14:41Z</time>
      </trkpt>
      <trkpt lat="40.717827" lon="-3.657277">
        <ele>891.644</ele>
        <time>2015-02-15T10:14:42Z</time>
      </trkpt>
      <trkpt lat="40.717811" lon="-3.657257">
        <ele>891.515</ele>
        <time>2015-02-15T10:14:43Z</time>
      </trkpt>
      <trkpt lat="40.717792" lon="-3.657227">
        <ele>891.437</ele>
        <time>2015-02-15T10:14:44Z</time>
      </trkpt>
      <trkpt lat="40.717763" lon="-3.657200">
        <ele>891.349</ele>
        <time>2015-02-15T10:14:45Z</time>
      </trkpt>
      <trkpt lat="40.717733" lon="-3.657174">
        <ele>891.213</ele>
        <time>2015-02-15T10:14:46Z</time>
      </trkpt>
      <trkpt lat="40.717703" lon="-3.657147">
        <ele>891.107</ele>
        <time>2015-02-15T10:14:47Z</time>
      </trkpt>
      <trkpt lat="40.717672" lon="-3.657135">
        <ele>891.161</ele>
        <time>2015-02-15T10:14:48Z</time>
      </trkpt>
      <trkpt lat="40.717636" lon="-3.657121">
        <ele>891.041</ele>
        <time>2015-02-15T10:14:49Z</time>
      </trkpt>
      <trkpt lat="40.717576" lon="-3.657065">
        <ele>890.910</ele>
        <time>2015-02-15T10:14:51Z</time>
      </trkpt>
      <trkpt lat="40.717550" lon="-3.657029">
        <ele>890.824</ele>
        <time>2015-02-15T10:14:52Z</time>
      </trkpt>
      <trkpt lat="40.717519" lon="-3.656998">
        <ele>890.883</ele>
        <time>2015-02-15T10:14:53Z</time>
      </trkpt>
      <trkpt lat="40.717449" lon="-3.656939">
        <ele>890.749</ele>
        <time>2015-02-15T10:14:55Z</time>
      </trkpt>
      <trkpt lat="40.717396" lon="-3.656927">
        <ele>890.610</ele>
        <time>2015-02-15T10:14:56Z</time>
      </trkpt>
      <trkpt lat="40.717305" lon="-3.656912">
        <ele>890.597</ele>
        <time>2015-02-15T10:14:58Z</time>
      </trkpt>
      <trkpt lat="40.717201" lon="-3.656894">
        <ele>890.423</ele>
        <time>2015-02-15T10:15:00Z</time>
      </trkpt>
      <trkpt lat="40.717150" lon="-3.656893">
        <ele>890.425</ele>
        <time>2015-02-15T10:15:01Z</time>
      </trkpt>
      <trkpt lat="40.717095" lon="-3.656903">
        <ele>890.307</ele>
        <time>2015-02-15T10:15:02Z</time>
      </trkpt>
      <trkpt lat="40.717044" lon="-3.656898">
        <ele>890.377</ele>
        <time>2015-02-15T10:15:03Z</time>
      </trkpt>
      <trkpt lat="40.716951" lon="-3.656882">
        <ele>890.197</ele>
        <time>2015-02-15T10:15:05Z</time>
      </trkpt>
      <trkpt lat="40.716863" lon="-3.656863">
        <ele>889.946</ele>
        <time>2015-02-15T10:15:07Z</time>
      </trkpt>
      <trkpt lat="40.716724" lon="-3.656841">
        <ele>889.720</ele>
        <time>2015-02-15T10:15:10Z</time>
      </trkpt>
      <trkpt lat="40.716673" lon="-3.656824">
        <ele>889.659</ele>
        <time>2015-02-15T10:15:11Z</time>
      </trkpt>
      <trkpt lat="40.716514" lon="-3.656771">
        <ele>889.395</ele>
        <time>2015-02-15T10:15:14Z</time>
      </trkpt>
      <trkpt lat="40.716458" lon="-3.656764">
        <ele>889.216</ele>
        <time>2015-02-15T10:15:15Z</time>
      </trkpt>
      <trkpt lat="40.716405" lon="-3.656763">
        <ele>889.177</ele>
        <time>2015-02-15T10:15:16Z</time>
      </trkpt>
      <trkpt lat="40.716308" lon="-3.656732">
        <ele>888.961</ele>
        <time>2015-02-15T10:15:18Z</time>
      </trkpt>
      <trkpt lat="40.716232" lon="-3.656655">
        <ele>888.627</ele>
        <time>2015-02-15T10:15:20Z</time>
      </trkpt>
      <trkpt lat="40.716204" lon="-3.656598">
        <ele>888.507</ele>
        <time>2015-02-15T10:15:21Z</time>
      </trkpt>
      <trkpt lat="40.716178" lon="-3.656536">
        <ele>888.325</ele>
        <time>2015-02-15T10:15:22Z</time>
      </trkpt>
      <trkpt lat="40.716145" lon="-3.656473">
        <ele>888.225</ele>
        <time>2015-02-15T10:15:24Z</time>
      </trkpt>
      <trkpt lat="40.716030" lon="-3.656312">
        <ele>887.794</ele>
        <time>2015-02-15T10:15:27Z</time>
      </trkpt>
      <trkpt lat="40.715934" lon="-3.656238">
        <ele>887.438</ele>
        <time>2015-02-15T10:15:29Z</time>
      </trkpt>
      <trkpt lat="40.715779" lon="-3.656127">
        <ele>887.097</ele>
        <time>2015-02-15T10:15:32Z</time>
      </trkpt>
      <trkpt lat="40.715682" lon="-3.656062">
        <ele>886.663</ele>
        <time>2015-02-15T10:15:34Z</time>
      </trkpt>
      <trkpt lat="40.715632" lon="-3.656046">
        <ele>886.574</ele>
        <time>2015-02-15T10:15:35Z</time>
      </trkpt>
      <trkpt lat="40.715481" lon="-3.656005">
        <ele>885.989</ele>
        <time>2015-02-15T10:15:38Z</time>
      </trkpt>
      <trkpt lat="40.715338" lon="-3.655955">
        <ele>885.606</ele>
        <time>2015-02-15T10:15:40Z</time>
      </trkpt>
      <trkpt lat="40.715295" lon="-3.655927">
        <ele>885.426</ele>
        <time>2015-02-15T10:15:41Z</time>
      </trkpt>
      <trkpt lat="40.715251" lon="-3.655910">
        <ele>885.207</ele>
        <time>2015-02-15T10:15:42Z</time>
      </trkpt>
      <trkpt lat="40.715207" lon="-3.655885">
        <ele>885.176</ele>
        <time>2015-02-15T10:15:43Z</time>
      </trkpt>
      <trkpt lat="40.715117" lon="-3.655857">
        <ele>884.866</ele>
        <time>2015-02-15T10:15:45Z</time>
      </trkpt>
      <trkpt lat="40.715078" lon="-3.655852">
        <ele>884.645</ele>
        <time>2015-02-15T10:15:46Z</time>
      </trkpt>
      <trkpt lat="40.715006" lon="-3.655852">
        <ele>884.439</ele>
        <time>2015-02-15T10:15:48Z</time>
      </trkpt>
      <trkpt lat="40.714941" lon="-3.655843">
        <ele>884.198</ele>
        <time>2015-02-15T10:15:50Z</time>
      </trkpt>
      <trkpt lat="40.714880" lon="-3.655839">
        <ele>883.834</ele>
        <time>2015-02-15T10:15:52Z</time>
      </trkpt>
      <trkpt lat="40.714852" lon="-3.655838">
        <ele>883.675</ele>
        <time>2015-02-15T10:15:53Z</time>
      </trkpt>
      <trkpt lat="40.714797" lon="-3.655846">
        <ele>883.322</ele>
        <time>2015-02-15T10:15:55Z</time>
      </trkpt>
      <trkpt lat="40.714737" lon="-3.655851">
        <ele>883.062</ele>
        <time>2015-02-15T10:15:57Z</time>
      </trkpt>
      <trkpt lat="40.714698" lon="-3.655858">
        <ele>882.808</ele>
        <time>2015-02-15T10:15:58Z</time>
      </trkpt>
      <trkpt lat="40.714587" lon="-3.655866">
        <ele>882.307</ele>
        <time>2015-02-15T10:16:01Z</time>
      </trkpt>
      <trkpt lat="40.714554" lon="-3.655869">
        <ele>882.250</ele>
        <time>2015-02-15T10:16:02Z</time>
      </trkpt>
      <trkpt lat="40.714519" lon="-3.655871">
        <ele>882.020</ele>
        <time>2015-02-15T10:16:03Z</time>
      </trkpt>
      <trkpt lat="40.714492" lon="-3.655866">
        <ele>881.969</ele>
        <time>2015-02-15T10:16:04Z</time>
      </trkpt>
      <trkpt lat="40.714396" lon="-3.655854">
        <ele>881.653</ele>
        <time>2015-02-15T10:16:07Z</time>
      </trkpt>
      <trkpt lat="40.714294" lon="-3.655832">
        <ele>881.372</ele>
        <time>2015-02-15T10:16:10Z</time>
      </trkpt>
      <trkpt lat="40.714260" lon="-3.655830">
        <ele>881.258</ele>
        <time>2015-02-15T10:16:11Z</time>
      </trkpt>
      <trkpt lat="40.714224" lon="-3.655830">
        <ele>881.139</ele>
        <time>2015-02-15T10:16:12Z</time>
      </trkpt>
      <trkpt lat="40.714156" lon="-3.655824">
        <ele>880.995</ele>
        <time>2015-02-15T10:16:14Z</time>
      </trkpt>
      <trkpt lat="40.714025" lon="-3.655807">
        <ele>880.549</ele>
        <time>2015-02-15T10:16:18Z</time>
      </trkpt>
      <trkpt lat="40.713930" lon="-3.655792">
        <ele>880.323</ele>
        <time>2015-02-15T10:16:21Z</time>
      </trkpt>
      <trkpt lat="40.713844" lon="-3.655784">
        <ele>880.107</ele>
        <time>2015-02-15T10:16:24Z</time>
      </trkpt>
      <trkpt lat="40.713757" lon="-3.655775">
        <ele>880.027</ele>
        <time>2015-02-15T10:16:27Z</time>
      </trkpt>
      <trkpt lat="40.713666" lon="-3.655775">
        <ele>879.837</ele>
        <time>2015-02-15T10:16:30Z</time>
      </trkpt>
      <trkpt lat="40.713573" lon="-3.655772">
        <ele>879.716</ele>
        <time>2015-02-15T10:16:33Z</time>
      </trkpt>
      <trkpt lat="40.713541" lon="-3.655764">
        <ele>879.790</ele>
        <time>2015-02-15T10:16:34Z</time>
      </trkpt>
      <trkpt lat="40.713514" lon="-3.655747">
        <ele>879.779</ele>
        <time>2015-02-15T10:16:35Z</time>
      </trkpt>
      <trkpt lat="40.713436" lon="-3.655715">
        <ele>879.695</ele>
        <time>2015-02-15T10:16:38Z</time>
      </trkpt>
      <trkpt lat="40.713386" lon="-3.655685">
        <ele>879.566</ele>
        <time>2015-02-15T10:16:40Z</time>
      </trkpt>
      <trkpt lat="40.713332" lon="-3.655662">
        <ele>879.555</ele>
        <time>2015-02-15T10:16:42Z</time>
      </trkpt>
      <trkpt lat="40.713277" lon="-3.655625">
        <ele>879.407</ele>
        <time>2015-02-15T10:16:44Z</time>
      </trkpt>
      <trkpt lat="40.713248" lon="-3.655613">
        <ele>879.417</ele>
        <time>2015-02-15T10:16:45Z</time>
      </trkpt>
      <trkpt lat="40.713190" lon="-3.655594">
        <ele>879.207</ele>
        <time>2015-02-15T10:16:47Z</time>
      </trkpt>
      <trkpt lat="40.713107" lon="-3.655570">
        <ele>879.183</ele>
        <time>2015-02-15T10:16:50Z</time>
      </trkpt>
      <trkpt lat="40.713076" lon="-3.655560">
        <ele>879.023</ele>
        <time>2015-02-15T10:16:51Z</time>
      </trkpt>
      <trkpt lat="40.713010" lon="-3.655540">
        <ele>878.912</ele>
        <time>2015-02-15T10:16:53Z</time>
      </trkpt>
      <trkpt lat="40.712949" lon="-3.655514">
        <ele>878.886</ele>
        <time>2015-02-15T10:16:56Z</time>
      </trkpt>
      <trkpt lat="40.712865" lon="-3.655472">
        <ele>878.665</ele>
        <time>2015-02-15T10:16:59Z</time>
      </trkpt>
      <trkpt lat="40.712782" lon="-3.655422">
        <ele>878.521</ele>
        <time>2015-02-15T10:17:02Z</time>
      </trkpt>
      <trkpt lat="40.712751" lon="-3.655404">
        <ele>878.462</ele>
        <time>2015-02-15T10:17:03Z</time>
      </trkpt>
      <trkpt lat="40.712660" lon="-3.655346">
        <ele>878.179</ele>
        <time>2015-02-15T10:17:06Z</time>
      </trkpt>
      <trkpt lat="40.712633" lon="-3.655325">
        <ele>878.005</ele>
        <time>2015-02-15T10:17:07Z</time>
      </trkpt>
      <trkpt lat="40.712545" lon="-3.655263">
        <ele>877.625</ele>
        <time>2015-02-15T10:17:10Z</time>
      </trkpt>
      <trkpt lat="40.712458" lon="-3.655211">
        <ele>877.307</ele>
        <time>2015-02-15T10:17:13Z</time>
      </trkpt>
      <trkpt lat="40.712424" lon="-3.655200">
        <ele>877.295</ele>
        <time>2015-02-15T10:17:14Z</time>
      </trkpt>
      <trkpt lat="40.712365" lon="-3.655179">
        <ele>876.975</ele>
        <time>2015-02-15T10:17:16Z</time>
      </trkpt>
      <trkpt lat="40.712272" lon="-3.655138">
        <ele>876.654</ele>
        <time>2015-02-15T10:17:19Z</time>
      </trkpt>
      <trkpt lat="40.712156" lon="-3.655067">
        <ele>876.398</ele>
        <time>2015-02-15T10:17:22Z</time>
      </trkpt>
      <trkpt lat="40.712130" lon="-3.655046">
        <ele>876.247</ele>
        <time>2015-02-15T10:17:23Z</time>
      </trkpt>
      <trkpt lat="40.712081" lon="-3.655019">
        <ele>876.083</ele>
        <time>2015-02-15T10:17:25Z</time>
      </trkpt>
      <trkpt lat="40.711999" lon="-3.654976">
        <ele>875.724</ele>
        <time>2015-02-15T10:17:28Z</time>
      </trkpt>
      <trkpt lat="40.711942" lon="-3.654944">
        <ele>875.694</ele>
        <time>2015-02-15T10:17:30Z</time>
      </trkpt>
      <trkpt lat="40.711863" lon="-3.654899">
        <ele>875.557</ele>
        <time>2015-02-15T10:17:33Z</time>
      </trkpt>
      <trkpt lat="40.711753" lon="-3.654837">
        <ele>875.222</ele>
        <time>2015-02-15T10:17:37Z</time>
      </trkpt>
      <trkpt lat="40.711664" lon="-3.654784">
        <ele>875.107</ele>
        <time>2015-02-15T10:17:40Z</time>
      </trkpt>
      <trkpt lat="40.711582" lon="-3.654731">
        <ele>874.997</ele>
        <time>2015-02-15T10:17:43Z</time>
      </trkpt>
      <trkpt lat="40.711497" lon="-3.654672">
        <ele>874.787</ele>
        <time>2015-02-15T10:17:46Z</time>
      </trkpt>
      <trkpt lat="40.711382" lon="-3.654603">
        <ele>874.656</ele>
        <time>2015-02-15T10:17:50Z</time>
      </trkpt>
      <trkpt lat="40.711300" lon="-3.654563">
        <ele>874.430</ele>
        <time>2015-02-15T10:17:53Z</time>
      </trkpt>
      <trkpt lat="40.711217" lon="-3.654511">
        <ele>874.239</ele>
        <time>2015-02-15T10:17:56Z</time>
      </trkpt>
      <trkpt lat="40.711134" lon="-3.654454">
        <ele>874.135</ele>
        <time>2015-02-15T10:17:59Z</time>
      </trkpt>
      <trkpt lat="40.711090" lon="-3.654417">
        <ele>874.056</ele>
        <time>2015-02-15T10:18:01Z</time>
      </trkpt>
      <trkpt lat="40.711079" lon="-3.654403">
        <ele>873.997</ele>
        <time>2015-02-15T10:18:02Z</time>
      </trkpt>
      <trkpt lat="40.711067" lon="-3.654390">
        <ele>873.923</ele>
        <time>2015-02-15T10:18:03Z</time>
      </trkpt>
      <trkpt lat="40.711020" lon="-3.654346">
        <ele>873.825</ele>
        <time>2015-02-15T10:18:06Z</time>
      </trkpt>
      <trkpt lat="40.710998" lon="-3.654328">
        <ele>873.807</ele>
        <time>2015-02-15T10:18:07Z</time>
      </trkpt>
      <trkpt lat="40.710921" lon="-3.654262">
        <ele>873.747</ele>
        <time>2015-02-15T10:18:10Z</time>
      </trkpt>
      <trkpt lat="40.710841" lon="-3.654206">
        <ele>873.617</ele>
        <time>2015-02-15T10:18:13Z</time>
      </trkpt>
      <trkpt lat="40.710784" lon="-3.654179">
        <ele>873.686</ele>
        <time>2015-02-15T10:18:15Z</time>
      </trkpt>
      <trkpt lat="40.710701" lon="-3.654138">
        <ele>873.520</ele>
        <time>2015-02-15T10:18:18Z</time>
      </trkpt>
      <trkpt lat="40.710621" lon="-3.654097">
        <ele>873.329</ele>
        <time>2015-02-15T10:18:21Z</time>
      </trkpt>
      <trkpt lat="40.710565" lon="-3.654068">
        <ele>873.185</ele>
        <time>2015-02-15T10:18:23Z</time>
      </trkpt>
      <trkpt lat="40.710504" lon="-3.654038">
        <ele>873.096</ele>
        <time>2015-02-15T10:18:26Z</time>
      </trkpt>
      <trkpt lat="40.710411" lon="-3.653991">
        <ele>872.774</ele>
        <time>2015-02-15T10:18:29Z</time>
      </trkpt>
      <trkpt lat="40.710325" lon="-3.653945">
        <ele>872.456</ele>
        <time>2015-02-15T10:18:32Z</time>
      </trkpt>
      <trkpt lat="40.710293" lon="-3.653931">
        <ele>872.321</ele>
        <time>2015-02-15T10:18:33Z</time>
      </trkpt>
      <trkpt lat="40.710196" lon="-3.653884">
        <ele>872.107</ele>
        <time>2015-02-15T10:18:36Z</time>
      </trkpt>
      <trkpt lat="40.710110" lon="-3.653839">
        <ele>871.975</ele>
        <time>2015-02-15T10:18:39Z</time>
      </trkpt>
      <trkpt lat="40.710040" lon="-3.653800">
        <ele>871.875</ele>
        <time>2015-02-15T10:18:41Z</time>
      </trkpt>
      <trkpt lat="40.709977" lon="-3.653761">
        <ele>871.714</ele>
        <time>2015-02-15T10:18:43Z</time>
      </trkpt>
      <trkpt lat="40.709919" lon="-3.653738">
        <ele>871.668</ele>
        <time>2015-02-15T10:18:45Z</time>
      </trkpt>
      <trkpt lat="40.709818" lon="-3.653700">
        <ele>871.437</ele>
        <time>2015-02-15T10:18:48Z</time>
      </trkpt>
      <trkpt lat="40.709723" lon="-3.653659">
        <ele>871.263</ele>
        <time>2015-02-15T10:18:51Z</time>
      </trkpt>
      <trkpt lat="40.709655" lon="-3.653644">
        <ele>871.134</ele>
        <time>2015-02-15T10:18:53Z</time>
      </trkpt>
      <trkpt lat="40.709517" lon="-3.653620">
        <ele>870.984</ele>
        <time>2015-02-15T10:18:56Z</time>
      </trkpt>
      <trkpt lat="40.709385" lon="-3.653599">
        <ele>870.607</ele>
        <time>2015-02-15T10:19:00Z</time>
      </trkpt>
      <trkpt lat="40.709320" lon="-3.653584">
        <ele>870.517</ele>
        <time>2015-02-15T10:19:02Z</time>
      </trkpt>
      <trkpt lat="40.709170" lon="-3.653541">
        <ele>870.207</ele>
        <time>2015-02-15T10:19:06Z</time>
      </trkpt>
      <trkpt lat="40.709055" lon="-3.653509">
        <ele>870.146</ele>
        <time>2015-02-15T10:19:09Z</time>
      </trkpt>
      <trkpt lat="40.708942" lon="-3.653472">
        <ele>869.936</ele>
        <time>2015-02-15T10:19:12Z</time>
      </trkpt>
      <trkpt lat="40.708832" lon="-3.653441">
        <ele>869.885</ele>
        <time>2015-02-15T10:19:15Z</time>
      </trkpt>
      <trkpt lat="40.708731" lon="-3.653421">
        <ele>869.669</ele>
        <time>2015-02-15T10:19:18Z</time>
      </trkpt>
      <trkpt lat="40.708693" lon="-3.653419">
        <ele>869.648</ele>
        <time>2015-02-15T10:19:19Z</time>
      </trkpt>
      <trkpt lat="40.708624" lon="-3.653393">
        <ele>869.574</ele>
        <time>2015-02-15T10:19:21Z</time>
      </trkpt>
      <trkpt lat="40.708487" lon="-3.653345">
        <ele>869.475</ele>
        <time>2015-02-15T10:19:25Z</time>
      </trkpt>
      <trkpt lat="40.708454" lon="-3.653333">
        <ele>869.466</ele>
        <time>2015-02-15T10:19:26Z</time>
      </trkpt>
      <trkpt lat="40.708346" lon="-3.653300">
        <ele>869.329</ele>
        <time>2015-02-15T10:19:29Z</time>
      </trkpt>
      <trkpt lat="40.708241" lon="-3.653269">
        <ele>869.321</ele>
        <time>2015-02-15T10:19:32Z</time>
      </trkpt>
      <trkpt lat="40.708171" lon="-3.653256">
        <ele>869.207</ele>
        <time>2015-02-15T10:19:34Z</time>
      </trkpt>
      <trkpt lat="40.708073" lon="-3.653237">
        <ele>869.114</ele>
        <time>2015-02-15T10:19:37Z</time>
      </trkpt>
      <trkpt lat="40.707981" lon="-3.653212">
        <ele>869.044</ele>
        <time>2015-02-15T10:19:40Z</time>
      </trkpt>
      <trkpt lat="40.707922" lon="-3.653203">
        <ele>868.963</ele>
        <time>2015-02-15T10:19:42Z</time>
      </trkpt>
      <trkpt lat="40.707859" lon="-3.653200">
        <ele>868.857</ele>
        <time>2015-02-15T10:19:44Z</time>
      </trkpt>
      <trkpt lat="40.707772" lon="-3.653201">
        <ele>868.776</ele>
        <time>2015-02-15T10:19:47Z</time>
      </trkpt>
      <trkpt lat="40.707688" lon="-3.653199">
        <ele>868.622</ele>
        <time>2015-02-15T10:19:50Z</time>
      </trkpt>
      <trkpt lat="40.707605" lon="-3.653191">
        <ele>868.543</ele>
        <time>2015-02-15T10:19:53Z</time>
      </trkpt>
      <trkpt lat="40.707519" lon="-3.653183">
        <ele>868.415</ele>
        <time>2015-02-15T10:19:56Z</time>
      </trkpt>
      <trkpt lat="40.707463" lon="-3.653170">
        <ele>868.465</ele>
        <time>2015-02-15T10:19:58Z</time>
      </trkpt>
      <trkpt lat="40.707411" lon="-3.653153">
        <ele>868.411</ele>
        <time>2015-02-15T10:20:01Z</time>
      </trkpt>
      <trkpt lat="40.707326" lon="-3.653130">
        <ele>868.407</ele>
        <time>2015-02-15T10:20:04Z</time>
      </trkpt>
      <trkpt lat="40.707237" lon="-3.653114">
        <ele>868.339</ele>
        <time>2015-02-15T10:20:07Z</time>
      </trkpt>
      <trkpt lat="40.707152" lon="-3.653103">
        <ele>868.369</ele>
        <time>2015-02-15T10:20:10Z</time>
      </trkpt>
      <trkpt lat="40.707067" lon="-3.653099">
        <ele>868.228</ele>
        <time>2015-02-15T10:20:13Z</time>
      </trkpt>
      <trkpt lat="40.707010" lon="-3.653103">
        <ele>868.272</ele>
        <time>2015-02-15T10:20:15Z</time>
      </trkpt>
      <trkpt lat="40.706921" lon="-3.653103">
        <ele>868.291</ele>
        <time>2015-02-15T10:20:18Z</time>
      </trkpt>
      <trkpt lat="40.706806" lon="-3.653111">
        <ele>868.257</ele>
        <time>2015-02-15T10:20:22Z</time>
      </trkpt>
      <trkpt lat="40.706775" lon="-3.653123">
        <ele>868.288</ele>
        <time>2015-02-15T10:20:23Z</time>
      </trkpt>
      <trkpt lat="40.706724" lon="-3.653149">
        <ele>868.296</ele>
        <time>2015-02-15T10:20:24Z</time>
      </trkpt>
      <trkpt lat="40.706699" lon="-3.653160">
        <ele>868.231</ele>
        <time>2015-02-15T10:20:25Z</time>
      </trkpt>
      <trkpt lat="40.706616" lon="-3.653186">
        <ele>868.124</ele>
        <time>2015-02-15T10:20:28Z</time>
      </trkpt>
      <trkpt lat="40.706587" lon="-3.653190">
        <ele>868.107</ele>
        <time>2015-02-15T10:20:29Z</time>
      </trkpt>
      <trkpt lat="40.706505" lon="-3.653207">
        <ele>868.177</ele>
        <time>2015-02-15T10:20:32Z</time>
      </trkpt>
      <trkpt lat="40.706477" lon="-3.653217">
        <ele>868.147</ele>
        <time>2015-02-15T10:20:33Z</time>
      </trkpt>
      <trkpt lat="40.706379" lon="-3.653234">
        <ele>868.096</ele>
        <time>2015-02-15T10:20:36Z</time>
      </trkpt>
      <trkpt lat="40.706350" lon="-3.653234">
        <ele>868.050</ele>
        <time>2015-02-15T10:20:37Z</time>
      </trkpt>
      <trkpt lat="40.706294" lon="-3.653239">
        <ele>867.979</ele>
        <time>2015-02-15T10:20:39Z</time>
      </trkpt>
      <trkpt lat="40.706266" lon="-3.653244">
        <ele>867.995</ele>
        <time>2015-02-15T10:20:40Z</time>
      </trkpt>
      <trkpt lat="40.706203" lon="-3.653244">
        <ele>867.946</ele>
        <time>2015-02-15T10:20:42Z</time>
      </trkpt>
      <trkpt lat="40.706129" lon="-3.653236">
        <ele>867.846</ele>
        <time>2015-02-15T10:20:45Z</time>
      </trkpt>
      <trkpt lat="40.706079" lon="-3.653225">
        <ele>867.888</ele>
        <time>2015-02-15T10:20:47Z</time>
      </trkpt>
      <trkpt lat="40.706047" lon="-3.653220">
        <ele>867.816</ele>
        <time>2015-02-15T10:20:48Z</time>
      </trkpt>
      <trkpt lat="40.705956" lon="-3.653205">
        <ele>867.807</ele>
        <time>2015-02-15T10:20:51Z</time>
      </trkpt>
      <trkpt lat="40.705929" lon="-3.653207">
        <ele>867.862</ele>
        <time>2015-02-15T10:20:52Z</time>
      </trkpt>
      <trkpt lat="40.705849" lon="-3.653206">
        <ele>867.962</ele>
        <time>2015-02-15T10:20:55Z</time>
      </trkpt>
      <trkpt lat="40.705819" lon="-3.653198">
        <ele>867.931</ele>
        <time>2015-02-15T10:20:56Z</time>
      </trkpt>
      <trkpt lat="40.705734" lon="-3.653181">
        <ele>867.985</ele>
        <time>2015-02-15T10:20:59Z</time>
      </trkpt>
      <trkpt lat="40.705640" lon="-3.653160">
        <ele>867.864</ele>
        <time>2015-02-15T10:21:02Z</time>
      </trkpt>
      <trkpt lat="40.705558" lon="-3.653140">
        <ele>867.870</ele>
        <time>2015-02-15T10:21:05Z</time>
      </trkpt>
      <trkpt lat="40.705500" lon="-3.653137">
        <ele>867.751</ele>
        <time>2015-02-15T10:21:07Z</time>
      </trkpt>
      <trkpt lat="40.705422" lon="-3.653128">
        <ele>867.784</ele>
        <time>2015-02-15T10:21:10Z</time>
      </trkpt>
      <trkpt lat="40.705399" lon="-3.653132">
        <ele>867.707</ele>
        <time>2015-02-15T10:21:11Z</time>
      </trkpt>
      <trkpt lat="40.705370" lon="-3.653139">
        <ele>867.717</ele>
        <time>2015-02-15T10:21:12Z</time>
      </trkpt>
      <trkpt lat="40.705339" lon="-3.653147">
        <ele>867.707</ele>
        <time>2015-02-15T10:21:13Z</time>
      </trkpt>
      <trkpt lat="40.705310" lon="-3.653160">
        <ele>867.726</ele>
        <time>2015-02-15T10:21:14Z</time>
      </trkpt>
      <trkpt lat="40.705213" lon="-3.653179">
        <ele>867.736</ele>
        <time>2015-02-15T10:21:17Z</time>
      </trkpt>
      <trkpt lat="40.705179" lon="-3.653176">
        <ele>867.745</ele>
        <time>2015-02-15T10:21:18Z</time>
      </trkpt>
      <trkpt lat="40.705144" lon="-3.653170">
        <ele>867.719</ele>
        <time>2015-02-15T10:21:19Z</time>
      </trkpt>
      <trkpt lat="40.705112" lon="-3.653155">
        <ele>867.768</ele>
        <time>2015-02-15T10:21:20Z</time>
      </trkpt>
      <trkpt lat="40.705079" lon="-3.653139">
        <ele>867.744</ele>
        <time>2015-02-15T10:21:21Z</time>
      </trkpt>
      <trkpt lat="40.704989" lon="-3.653083">
        <ele>867.615</ele>
        <time>2015-02-15T10:21:24Z</time>
      </trkpt>
      <trkpt lat="40.704902" lon="-3.653031">
        <ele>867.543</ele>
        <time>2015-02-15T10:21:27Z</time>
      </trkpt>
      <trkpt lat="40.704873" lon="-3.653019">
        <ele>867.464</ele>
        <time>2015-02-15T10:21:28Z</time>
      </trkpt>
      <trkpt lat="40.704837" lon="-3.653006">
        <ele>867.410</ele>
        <time>2015-02-15T10:21:29Z</time>
      </trkpt>
      <trkpt lat="40.704732" lon="-3.652969">
        <ele>867.207</ele>
        <time>2015-02-15T10:21:33Z</time>
      </trkpt>
      <trkpt lat="40.704657" lon="-3.652953">
        <ele>867.162</ele>
        <time>2015-02-15T10:21:35Z</time>
      </trkpt>
      <trkpt lat="40.704595" lon="-3.652923">
        <ele>867.082</ele>
        <time>2015-02-15T10:21:37Z</time>
      </trkpt>
      <trkpt lat="40.704567" lon="-3.652901">
        <ele>866.981</ele>
        <time>2015-02-15T10:21:38Z</time>
      </trkpt>
      <trkpt lat="40.704513" lon="-3.652868">
        <ele>866.715</ele>
        <time>2015-02-15T10:21:40Z</time>
      </trkpt>
      <trkpt lat="40.704440" lon="-3.652835">
        <ele>866.454</ele>
        <time>2015-02-15T10:21:43Z</time>
      </trkpt>
      <trkpt lat="40.704400" lon="-3.652788">
        <ele>866.350</ele>
        <time>2015-02-15T10:21:44Z</time>
      </trkpt>
      <trkpt lat="40.704377" lon="-3.652773">
        <ele>866.231</ele>
        <time>2015-02-15T10:21:45Z</time>
      </trkpt>
      <trkpt lat="40.704355" lon="-3.652757">
        <ele>866.168</ele>
        <time>2015-02-15T10:21:46Z</time>
      </trkpt>
      <trkpt lat="40.704295" lon="-3.652722">
        <ele>865.942</ele>
        <time>2015-02-15T10:21:48Z</time>
      </trkpt>
      <trkpt lat="40.704236" lon="-3.652694">
        <ele>865.626</ele>
        <time>2015-02-15T10:21:50Z</time>
      </trkpt>
      <trkpt lat="40.704210" lon="-3.652684">
        <ele>865.507</ele>
        <time>2015-02-15T10:21:51Z</time>
      </trkpt>
      <trkpt lat="40.704121" lon="-3.652642">
        <ele>865.154</ele>
        <time>2015-02-15T10:21:54Z</time>
      </trkpt>
      <trkpt lat="40.704031" lon="-3.652604">
        <ele>864.784</ele>
        <time>2015-02-15T10:21:57Z</time>
      </trkpt>
      <trkpt lat="40.704000" lon="-3.652598">
        <ele>864.653</ele>
        <time>2015-02-15T10:21:58Z</time>
      </trkpt>
      <trkpt lat="40.703945" lon="-3.652577">
        <ele>864.397</ele>
        <time>2015-02-15T10:22:00Z</time>
      </trkpt>
      <trkpt lat="40.703905" lon="-3.652551">
        <ele>864.116</ele>
        <time>2015-02-15T10:22:02Z</time>
      </trkpt>
      <trkpt lat="40.703861" lon="-3.652523">
        <ele>863.782</ele>
        <time>2015-02-15T10:22:04Z</time>
      </trkpt>
      <trkpt lat="40.703832" lon="-3.652492">
        <ele>863.663</ele>
        <time>2015-02-15T10:22:05Z</time>
      </trkpt>
      <trkpt lat="40.703777" lon="-3.652446">
        <ele>863.334</ele>
        <time>2015-02-15T10:22:07Z</time>
      </trkpt>
      <trkpt lat="40.703707" lon="-3.652375">
        <ele>862.955</ele>
        <time>2015-02-15T10:22:10Z</time>
      </trkpt>
      <trkpt lat="40.703669" lon="-3.652325">
        <ele>862.510</ele>
        <time>2015-02-15T10:22:12Z</time>
      </trkpt>
      <trkpt lat="40.703653" lon="-3.652288">
        <ele>862.407</ele>
        <time>2015-02-15T10:22:13Z</time>
      </trkpt>
      <trkpt lat="40.703636" lon="-3.652252">
        <ele>862.281</ele>
        <time>2015-02-15T10:22:14Z</time>
      </trkpt>
      <trkpt lat="40.703614" lon="-3.652229">
        <ele>862.021</ele>
        <time>2015-02-15T10:22:15Z</time>
      </trkpt>
      <trkpt lat="40.703588" lon="-3.652198">
        <ele>861.840</ele>
        <time>2015-02-15T10:22:16Z</time>
      </trkpt>
      <trkpt lat="40.703539" lon="-3.652161">
        <ele>861.544</ele>
        <time>2015-02-15T10:22:18Z</time>
      </trkpt>
      <trkpt lat="40.703466" lon="-3.652112">
        <ele>861.183</ele>
        <time>2015-02-15T10:22:21Z</time>
      </trkpt>
      <trkpt lat="40.703426" lon="-3.652067">
        <ele>860.829</ele>
        <time>2015-02-15T10:22:23Z</time>
      </trkpt>
      <trkpt lat="40.703412" lon="-3.652039">
        <ele>860.760</ele>
        <time>2015-02-15T10:22:24Z</time>
      </trkpt>
      <trkpt lat="40.703396" lon="-3.652012">
        <ele>860.678</ele>
        <time>2015-02-15T10:22:25Z</time>
      </trkpt>
      <trkpt lat="40.703339" lon="-3.651940">
        <ele>860.233</ele>
        <time>2015-02-15T10:22:28Z</time>
      </trkpt>
      <trkpt lat="40.703293" lon="-3.651895">
        <ele>860.026</ele>
        <time>2015-02-15T10:22:30Z</time>
      </trkpt>
      <trkpt lat="40.703252" lon="-3.651868">
        <ele>859.807</ele>
        <time>2015-02-15T10:22:32Z</time>
      </trkpt>
      <trkpt lat="40.703177" lon="-3.651800">
        <ele>859.475</ele>
        <time>2015-02-15T10:22:36Z</time>
      </trkpt>
      <trkpt lat="40.703160" lon="-3.651774">
        <ele>859.325</ele>
        <time>2015-02-15T10:22:37Z</time>
      </trkpt>
      <trkpt lat="40.703147" lon="-3.651746">
        <ele>859.244</ele>
        <time>2015-02-15T10:22:39Z</time>
      </trkpt>
      <trkpt lat="40.703114" lon="-3.651681">
        <ele>859.158</ele>
        <time>2015-02-15T10:22:41Z</time>
      </trkpt>
      <trkpt lat="40.703094" lon="-3.651661">
        <ele>859.177</ele>
        <time>2015-02-15T10:22:42Z</time>
      </trkpt>
      <trkpt lat="40.703077" lon="-3.651640">
        <ele>859.193</ele>
        <time>2015-02-15T10:22:43Z</time>
      </trkpt>
      <trkpt lat="40.703058" lon="-3.651626">
        <ele>859.034</ele>
        <time>2015-02-15T10:22:44Z</time>
      </trkpt>
      <trkpt lat="40.703032" lon="-3.651619">
        <ele>859.089</ele>
        <time>2015-02-15T10:22:45Z</time>
      </trkpt>
      <trkpt lat="40.703010" lon="-3.651610">
        <ele>858.906</ele>
        <time>2015-02-15T10:22:46Z</time>
      </trkpt>
      <trkpt lat="40.702989" lon="-3.651612">
        <ele>858.926</ele>
        <time>2015-02-15T10:22:47Z</time>
      </trkpt>
      <trkpt lat="40.702962" lon="-3.651624">
        <ele>858.907</ele>
        <time>2015-02-15T10:22:48Z</time>
      </trkpt>
      <trkpt lat="40.702936" lon="-3.651632">
        <ele>858.876</ele>
        <time>2015-02-15T10:22:49Z</time>
      </trkpt>
      <trkpt lat="40.702889" lon="-3.651658">
        <ele>858.856</ele>
        <time>2015-02-15T10:22:51Z</time>
      </trkpt>
      <trkpt lat="40.702867" lon="-3.651692">
        <ele>858.765</ele>
        <time>2015-02-15T10:22:52Z</time>
      </trkpt>
      <trkpt lat="40.702847" lon="-3.651719">
        <ele>858.719</ele>
        <time>2015-02-15T10:22:53Z</time>
      </trkpt>
      <trkpt lat="40.702827" lon="-3.651753">
        <ele>858.748</ele>
        <time>2015-02-15T10:22:54Z</time>
      </trkpt>
      <trkpt lat="40.702762" lon="-3.651844">
        <ele>858.764</ele>
        <time>2015-02-15T10:22:57Z</time>
      </trkpt>
      <trkpt lat="40.702683" lon="-3.651956">
        <ele>858.885</ele>
        <time>2015-02-15T10:23:00Z</time>
      </trkpt>
      <trkpt lat="40.702620" lon="-3.652043">
        <ele>858.996</ele>
        <time>2015-02-15T10:23:03Z</time>
      </trkpt>
      <trkpt lat="40.702538" lon="-3.652155">
        <ele>859.231</ele>
        <time>2015-02-15T10:23:07Z</time>
      </trkpt>
      <trkpt lat="40.702492" lon="-3.652215">
        <ele>859.324</ele>
        <time>2015-02-15T10:23:09Z</time>
      </trkpt>
      <trkpt lat="40.702446" lon="-3.652266">
        <ele>859.507</ele>
        <time>2015-02-15T10:23:11Z</time>
      </trkpt>
      <trkpt lat="40.702377" lon="-3.652336">
        <ele>859.837</ele>
        <time>2015-02-15T10:23:14Z</time>
      </trkpt>
      <trkpt lat="40.702313" lon="-3.652399">
        <ele>860.147</ele>
        <time>2015-02-15T10:23:17Z</time>
      </trkpt>
      <trkpt lat="40.702248" lon="-3.652469">
        <ele>860.366</ele>
        <time>2015-02-15T10:23:20Z</time>
      </trkpt>
      <trkpt lat="40.702188" lon="-3.652543">
        <ele>860.620</ele>
        <time>2015-02-15T10:23:23Z</time>
      </trkpt>
      <trkpt lat="40.702129" lon="-3.652632">
        <ele>860.899</ele>
        <time>2015-02-15T10:23:26Z</time>
      </trkpt>
      <trkpt lat="40.702114" lon="-3.652664">
        <ele>860.995</ele>
        <time>2015-02-15T10:23:27Z</time>
      </trkpt>
      <trkpt lat="40.702084" lon="-3.652731">
        <ele>861.166</ele>
        <time>2015-02-15T10:23:29Z</time>
      </trkpt>
      <trkpt lat="40.702060" lon="-3.652802">
        <ele>861.364</ele>
        <time>2015-02-15T10:23:31Z</time>
      </trkpt>
      <trkpt lat="40.702048" lon="-3.652874">
        <ele>861.506</ele>
        <time>2015-02-15T10:23:33Z</time>
      </trkpt>
      <trkpt lat="40.702045" lon="-3.652911">
        <ele>861.616</ele>
        <time>2015-02-15T10:23:34Z</time>
      </trkpt>
      <trkpt lat="40.702041" lon="-3.652977">
        <ele>861.807</ele>
        <time>2015-02-15T10:23:36Z</time>
      </trkpt>
      <trkpt lat="40.702037" lon="-3.653045">
        <ele>862.054</ele>
        <time>2015-02-15T10:23:38Z</time>
      </trkpt>
      <trkpt lat="40.702026" lon="-3.653125">
        <ele>862.294</ele>
        <time>2015-02-15T10:23:40Z</time>
      </trkpt>
      <trkpt lat="40.702006" lon="-3.653249">
        <ele>862.563</ele>
        <time>2015-02-15T10:23:44Z</time>
      </trkpt>
      <trkpt lat="40.702004" lon="-3.653292">
        <ele>862.587</ele>
        <time>2015-02-15T10:23:44Z</time>
      </trkpt>
      <trkpt lat="40.702000" lon="-3.653388">
        <ele>862.646</ele>
        <time>2015-02-15T10:23:46Z</time>
      </trkpt>
      <trkpt lat="40.701995" lon="-3.653442">
        <ele>862.742</ele>
        <time>2015-02-15T10:23:48Z</time>
      </trkpt>
      <trkpt lat="40.701970" lon="-3.653549">
        <ele>862.733</ele>
        <time>2015-02-15T10:23:50Z</time>
      </trkpt>
      <trkpt lat="40.701953" lon="-3.653596">
        <ele>862.839</ele>
        <time>2015-02-15T10:23:51Z</time>
      </trkpt>
      <trkpt lat="40.701930" lon="-3.653699">
        <ele>862.801</ele>
        <time>2015-02-15T10:23:53Z</time>
      </trkpt>
      <trkpt lat="40.701929" lon="-3.653755">
        <ele>862.921</ele>
        <time>2015-02-15T10:23:54Z</time>
      </trkpt>
      <trkpt lat="40.701899" lon="-3.653912">
        <ele>862.807</ele>
        <time>2015-02-15T10:23:57Z</time>
      </trkpt>
      <trkpt lat="40.701881" lon="-3.653955">
        <ele>862.761</ele>
        <time>2015-02-15T10:23:58Z</time>
      </trkpt>
      <trkpt lat="40.701871" lon="-3.654066">
        <ele>862.661</ele>
        <time>2015-02-15T10:24:00Z</time>
      </trkpt>
      <trkpt lat="40.701870" lon="-3.654126">
        <ele>862.540</ele>
        <time>2015-02-15T10:24:01Z</time>
      </trkpt>
      <trkpt lat="40.701877" lon="-3.654180">
        <ele>862.584</ele>
        <time>2015-02-15T10:24:02Z</time>
      </trkpt>
      <trkpt lat="40.701863" lon="-3.654286">
        <ele>862.333</ele>
        <time>2015-02-15T10:24:04Z</time>
      </trkpt>
      <trkpt lat="40.701852" lon="-3.654440">
        <ele>861.919</ele>
        <time>2015-02-15T10:24:07Z</time>
      </trkpt>
      <trkpt lat="40.701854" lon="-3.654493">
        <ele>861.830</ele>
        <time>2015-02-15T10:24:08Z</time>
      </trkpt>
      <trkpt lat="40.701846" lon="-3.654598">
        <ele>861.634</ele>
        <time>2015-02-15T10:24:09Z</time>
      </trkpt>
      <trkpt lat="40.701845" lon="-3.654713">
        <ele>861.355</ele>
        <time>2015-02-15T10:24:11Z</time>
      </trkpt>
      <trkpt lat="40.701859" lon="-3.654772">
        <ele>861.210</ele>
        <time>2015-02-15T10:24:12Z</time>
      </trkpt>
      <trkpt lat="40.701878" lon="-3.654870">
        <ele>860.907</ele>
        <time>2015-02-15T10:24:14Z</time>
      </trkpt>
      <trkpt lat="40.701885" lon="-3.654971">
        <ele>860.571</ele>
        <time>2015-02-15T10:24:16Z</time>
      </trkpt>
      <trkpt lat="40.701872" lon="-3.655031">
        <ele>860.381</ele>
        <time>2015-02-15T10:24:17Z</time>
      </trkpt>
      <trkpt lat="40.701841" lon="-3.655145">
        <ele>859.960</ele>
        <time>2015-02-15T10:24:19Z</time>
      </trkpt>
      <trkpt lat="40.701823" lon="-3.655204">
        <ele>859.794</ele>
        <time>2015-02-15T10:24:20Z</time>
      </trkpt>
      <trkpt lat="40.701811" lon="-3.655264">
        <ele>859.523</ele>
        <time>2015-02-15T10:24:21Z</time>
      </trkpt>
      <trkpt lat="40.701804" lon="-3.655326">
        <ele>859.379</ele>
        <time>2015-02-15T10:24:22Z</time>
      </trkpt>
      <trkpt lat="40.701784" lon="-3.655382">
        <ele>859.090</ele>
        <time>2015-02-15T10:24:23Z</time>
      </trkpt>
      <trkpt lat="40.701760" lon="-3.655423">
        <ele>858.832</ele>
        <time>2015-02-15T10:24:24Z</time>
      </trkpt>
      <trkpt lat="40.701729" lon="-3.655460">
        <ele>858.692</ele>
        <time>2015-02-15T10:24:25Z</time>
      </trkpt>
      <trkpt lat="40.701703" lon="-3.655486">
        <ele>858.311</ele>
        <time>2015-02-15T10:24:26Z</time>
      </trkpt>
      <trkpt lat="40.701670" lon="-3.655512">
        <ele>858.107</ele>
        <time>2015-02-15T10:24:27Z</time>
      </trkpt>
      <trkpt lat="40.701573" lon="-3.655596">
        <ele>857.331</ele>
        <time>2015-02-15T10:24:30Z</time>
      </trkpt>
      <trkpt lat="40.701464" lon="-3.655664">
        <ele>856.521</ele>
        <time>2015-02-15T10:24:33Z</time>
      </trkpt>
      <trkpt lat="40.701422" lon="-3.655679">
        <ele>856.250</ele>
        <time>2015-02-15T10:24:34Z</time>
      </trkpt>
      <trkpt lat="40.701292" lon="-3.655736">
        <ele>855.364</ele>
        <time>2015-02-15T10:24:37Z</time>
      </trkpt>
      <trkpt lat="40.701166" lon="-3.655796">
        <ele>854.283</ele>
        <time>2015-02-15T10:24:40Z</time>
      </trkpt>
      <trkpt lat="40.701054" lon="-3.655859">
        <ele>853.269</ele>
        <time>2015-02-15T10:24:43Z</time>
      </trkpt>
      <trkpt lat="40.700988" lon="-3.655890">
        <ele>852.650</ele>
        <time>2015-02-15T10:24:45Z</time>
      </trkpt>
      <trkpt lat="40.700948" lon="-3.655897">
        <ele>852.284</ele>
        <time>2015-02-15T10:24:46Z</time>
      </trkpt>
      <trkpt lat="40.700842" lon="-3.655927">
        <ele>851.207</ele>
        <time>2015-02-15T10:24:49Z</time>
      </trkpt>
      <trkpt lat="40.700776" lon="-3.655972">
        <ele>850.617</ele>
        <time>2015-02-15T10:24:51Z</time>
      </trkpt>
      <trkpt lat="40.700678" lon="-3.656055">
        <ele>849.607</ele>
        <time>2015-02-15T10:24:54Z</time>
      </trkpt>
      <trkpt lat="40.700660" lon="-3.656088">
        <ele>849.376</ele>
        <time>2015-02-15T10:24:55Z</time>
      </trkpt>
      <trkpt lat="40.700650" lon="-3.656138">
        <ele>849.026</ele>
        <time>2015-02-15T10:24:56Z</time>
      </trkpt>
      <trkpt lat="40.700649" lon="-3.656184">
        <ele>848.715</ele>
        <time>2015-02-15T10:24:57Z</time>
      </trkpt>
      <trkpt lat="40.700652" lon="-3.656219">
        <ele>848.429</ele>
        <time>2015-02-15T10:24:58Z</time>
      </trkpt>
      <trkpt lat="40.700678" lon="-3.656255">
        <ele>848.128</ele>
        <time>2015-02-15T10:24:59Z</time>
      </trkpt>
      <trkpt lat="40.700704" lon="-3.656288">
        <ele>847.844</ele>
        <time>2015-02-15T10:25:00Z</time>
      </trkpt>
      <trkpt lat="40.700747" lon="-3.656315">
        <ele>847.425</ele>
        <time>2015-02-15T10:25:01Z</time>
      </trkpt>
      <trkpt lat="40.700773" lon="-3.656332">
        <ele>847.189</ele>
        <time>2015-02-15T10:25:02Z</time>
      </trkpt>
      <trkpt lat="40.700783" lon="-3.656355">
        <ele>846.806</ele>
        <time>2015-02-15T10:25:03Z</time>
      </trkpt>
      <trkpt lat="40.700812" lon="-3.656372">
        <ele>846.426</ele>
        <time>2015-02-15T10:25:04Z</time>
      </trkpt>
      <trkpt lat="40.700865" lon="-3.656406">
        <ele>845.807</ele>
        <time>2015-02-15T10:25:06Z</time>
      </trkpt>
      <trkpt lat="40.700886" lon="-3.656420">
        <ele>845.546</ele>
        <time>2015-02-15T10:25:07Z</time>
      </trkpt>
      <trkpt lat="40.700907" lon="-3.656429">
        <ele>845.286</ele>
        <time>2015-02-15T10:25:08Z</time>
      </trkpt>
      <trkpt lat="40.700957" lon="-3.656451">
        <ele>844.275</ele>
        <time>2015-02-15T10:25:11Z</time>
      </trkpt>
      <trkpt lat="40.700962" lon="-3.656449">
        <ele>843.939</ele>
        <time>2015-02-15T10:25:12Z</time>
      </trkpt>
      <trkpt lat="40.700964" lon="-3.656451">
        <ele>843.238</ele>
        <time>2015-02-15T10:25:14Z</time>
      </trkpt>
      <trkpt lat="40.700964" lon="-3.656450">
        <ele>842.674</ele>
        <time>2015-02-15T10:25:16Z</time>
      </trkpt>
      <trkpt lat="40.700963" lon="-3.656451">
        <ele>842.035</ele>
        <time>2015-02-15T10:25:18Z</time>
      </trkpt>
      <trkpt lat="40.700963" lon="-3.656449">
        <ele>841.413</ele>
        <time>2015-02-15T10:25:20Z</time>
      </trkpt>
      <trkpt lat="40.700963" lon="-3.656450">
        <ele>840.843</ele>
        <time>2015-02-15T10:25:23Z</time>
      </trkpt>
      <trkpt lat="40.700964" lon="-3.656449">
        <ele>840.307</ele>
        <time>2015-02-15T10:25:25Z</time>
      </trkpt>
      <trkpt lat="40.700964" lon="-3.656450">
        <ele>839.807</ele>
        <time>2015-02-15T10:25:27Z</time>
      </trkpt>
      <trkpt lat="40.700965" lon="-3.656448">
        <ele>839.339</ele>
        <time>2015-02-15T10:25:29Z</time>
      </trkpt>
      <trkpt lat="40.700974" lon="-3.656438">
        <ele>838.669</ele>
        <time>2015-02-15T10:25:32Z</time>
      </trkpt>
      <trkpt lat="40.700976" lon="-3.656440">
        <ele>838.048</ele>
        <time>2015-02-15T10:25:35Z</time>
      </trkpt>
      <trkpt lat="40.700974" lon="-3.656439">
        <ele>837.412</ele>
        <time>2015-02-15T10:25:38Z</time>
      </trkpt>
      <trkpt lat="40.700974" lon="-3.656437">
        <ele>837.061</ele>
        <time>2015-02-15T10:25:41Z</time>
      </trkpt>
      <trkpt lat="40.700977" lon="-3.656433">
        <ele>836.637</ele>
        <time>2015-02-15T10:25:44Z</time>
      </trkpt>
      <trkpt lat="40.700979" lon="-3.656432">
        <ele>836.398</ele>
        <time>2015-02-15T10:25:47Z</time>
      </trkpt>
      <trkpt lat="40.700980" lon="-3.656432">
        <ele>836.072</ele>
        <time>2015-02-15T10:25:50Z</time>
      </trkpt>
      <trkpt lat="40.700980" lon="-3.656432">
        <ele>835.613</ele>
        <time>2015-02-15T10:25:53Z</time>
      </trkpt>
      <trkpt lat="40.700980" lon="-3.656432">
        <ele>835.314</ele>
        <time>2015-02-15T10:25:56Z</time>
      </trkpt>
      <trkpt lat="40.700980" lon="-3.656432">
        <ele>835.107</ele>
        <time>2015-02-15T10:25:59Z</time>
      </trkpt>
      <trkpt lat="40.700980" lon="-3.656432">
        <ele>835.025</ele>
        <time>2015-02-15T10:26:02Z</time>
      </trkpt>
      <trkpt lat="40.700980" lon="-3.656432">
        <ele>835.045</ele>
        <time>2015-02-15T10:26:05Z</time>
      </trkpt>
      <trkpt lat="40.700980" lon="-3.656432">
        <ele>834.944</ele>
        <time>2015-02-15T10:26:08Z</time>
      </trkpt>
      <trkpt lat="40.700980" lon="-3.656432">
        <ele>834.948</ele>
        <time>2015-02-15T10:26:11Z</time>
      </trkpt>
      <trkpt lat="40.700980" lon="-3.656432">
        <ele>835.077</ele>
        <time>2015-02-15T10:26:14Z</time>
      </trkpt>
      <trkpt lat="40.700981" lon="-3.656432">
        <ele>835.123</ele>
        <time>2015-02-15T10:26:17Z</time>
      </trkpt>
      <trkpt lat="40.700981" lon="-3.656432">
        <ele>835.144</ele>
        <time>2015-02-15T10:26:20Z</time>
      </trkpt>
      <trkpt lat="40.700981" lon="-3.656432">
        <ele>835.234</ele>
        <time>2015-02-15T10:26:23Z</time>
      </trkpt>
      <trkpt lat="40.700981" lon="-3.656432">
        <ele>835.355</ele>
        <time>2015-02-15T10:26:26Z</time>
      </trkpt>
      <trkpt lat="40.700981" lon="-3.656432">
        <ele>835.410</ele>
        <time>2015-02-15T10:26:30Z</time>
      </trkpt>
      <trkpt lat="40.700981" lon="-3.656432">
        <ele>835.507</ele>
        <time>2015-02-15T10:26:33Z</time>
      </trkpt>
      <trkpt lat="40.700981" lon="-3.656432">
        <ele>835.561</ele>
        <time>2015-02-15T10:26:36Z</time>
      </trkpt>
      <trkpt lat="40.700981" lon="-3.656432">
        <ele>835.561</ele>
        <time>2015-02-15T10:26:39Z</time>
      </trkpt>
      <trkpt lat="40.700981" lon="-3.656432">
        <ele>835.510</ele>
        <time>2015-02-15T10:26:42Z</time>
      </trkpt>
      <trkpt lat="40.700981" lon="-3.656432">
        <ele>835.554</ele>
        <time>2015-02-15T10:26:46Z</time>
      </trkpt>
      <trkpt lat="40.700981" lon="-3.656432">
        <ele>835.523</ele>
        <time>2015-02-15T10:26:50Z</time>
      </trkpt>
      <trkpt lat="40.700981" lon="-3.656432">
        <ele>835.569</ele>
        <time>2015-02-15T10:26:53Z</time>
      </trkpt>
      <trkpt lat="40.700981" lon="-3.656432">
        <ele>835.630</ele>
        <time>2015-02-15T10:26:57Z</time>
      </trkpt>
      <trkpt lat="40.700981" lon="-3.656432">
        <ele>835.688</ele>
        <time>2015-02-15T10:27:00Z</time>
      </trkpt>
      <trkpt lat="40.700981" lon="-3.656432">
        <ele>835.624</ele>
        <time>2015-02-15T10:27:03Z</time>
      </trkpt>
      <trkpt lat="40.700981" lon="-3.656432">
        <ele>835.626</ele>
        <time>2015-02-15T10:27:06Z</time>
      </trkpt>
      <trkpt lat="40.700981" lon="-3.656432">
        <ele>835.607</ele>
        <time>2015-02-15T10:27:09Z</time>
      </trkpt>
      <trkpt lat="40.700981" lon="-3.656432">
        <ele>835.616</ele>
        <time>2015-02-15T10:27:12Z</time>
      </trkpt>
      <trkpt lat="40.700981" lon="-3.656432">
        <ele>835.676</ele>
        <time>2015-02-15T10:27:15Z</time>
      </trkpt>
      <trkpt lat="40.700981" lon="-3.656432">
        <ele>835.655</ele>
        <time>2015-02-15T10:27:18Z</time>
      </trkpt>
      <trkpt lat="40.700981" lon="-3.656432">
        <ele>835.619</ele>
        <time>2015-02-15T10:27:22Z</time>
      </trkpt>
      <trkpt lat="40.700981" lon="-3.656432">
        <ele>835.698</ele>
        <time>2015-02-15T10:27:25Z</time>
      </trkpt>
      <trkpt lat="40.700981" lon="-3.656432">
        <ele>835.634</ele>
        <time>2015-02-15T10:27:28Z</time>
      </trkpt>
      <trkpt lat="40.700981" lon="-3.656432">
        <ele>835.655</ele>
        <time>2015-02-15T10:27:31Z</time>
      </trkpt>
      <trkpt lat="40.700981" lon="-3.656432">
        <ele>835.694</ele>
        <time>2015-02-15T10:27:34Z</time>
      </trkpt>
      <trkpt lat="40.700981" lon="-3.656432">
        <ele>835.657</ele>
        <time>2015-02-15T10:27:37Z</time>
      </trkpt>
      <trkpt lat="40.700982" lon="-3.656432">
        <ele>835.622</ele>
        <time>2015-02-15T10:27:41Z</time>
      </trkpt>
      <trkpt lat="40.700982" lon="-3.656432">
        <ele>835.607</ele>
        <time>2015-02-15T10:27:44Z</time>
      </trkpt>
      <trkpt lat="40.700982" lon="-3.656432">
        <ele>835.627</ele>
        <time>2015-02-15T10:27:47Z</time>
      </trkpt>
      <trkpt lat="40.700982" lon="-3.656432">
        <ele>835.617</ele>
        <time>2015-02-15T10:27:50Z</time>
      </trkpt>
      <trkpt lat="40.700982" lon="-3.656432">
        <ele>835.616</ele>
        <time>2015-02-15T10:27:53Z</time>
      </trkpt>
      <trkpt lat="40.700982" lon="-3.656432">
        <ele>835.660</ele>
        <time>2015-02-15T10:27:56Z</time>
      </trkpt>
      <trkpt lat="40.700982" lon="-3.656432">
        <ele>835.679</ele>
        <time>2015-02-15T10:27:59Z</time>
      </trkpt>
      <trkpt lat="40.700982" lon="-3.656432">
        <ele>835.625</ele>
        <time>2015-02-15T10:28:02Z</time>
      </trkpt>
      <trkpt lat="40.700982" lon="-3.656432">
        <ele>835.616</ele>
        <time>2015-02-15T10:28:06Z</time>
      </trkpt>
      <trkpt lat="40.700982" lon="-3.656432">
        <ele>835.673</ele>
        <time>2015-02-15T10:28:10Z</time>
      </trkpt>
      <trkpt lat="40.700982" lon="-3.656432">
        <ele>835.685</ele>
        <time>2015-02-15T10:28:13Z</time>
      </trkpt>
      <trkpt lat="40.700982" lon="-3.656432">
        <ele>835.713</ele>
        <time>2015-02-15T10:28:16Z</time>
      </trkpt>
      <trkpt lat="40.700982" lon="-3.656432">
        <ele>835.707</ele>
        <time>2015-02-15T10:28:20Z</time>
      </trkpt>
      <trkpt lat="40.700982" lon="-3.656432">
        <ele>835.755</ele>
        <time>2015-02-15T10:28:23Z</time>
      </trkpt>
      <trkpt lat="40.700982" lon="-3.656433">
        <ele>835.715</ele>
        <time>2015-02-15T10:28:26Z</time>
      </trkpt>
      <trkpt lat="40.700982" lon="-3.656433">
        <ele>835.794</ele>
        <time>2015-02-15T10:28:29Z</time>
      </trkpt>
      <trkpt lat="40.700982" lon="-3.656433">
        <ele>835.748</ele>
        <time>2015-02-15T10:28:32Z</time>
      </trkpt>
      <trkpt lat="40.700982" lon="-3.656433">
        <ele>835.777</ele>
        <time>2015-02-15T10:28:35Z</time>
      </trkpt>
      <trkpt lat="40.700982" lon="-3.656433">
        <ele>835.763</ele>
        <time>2015-02-15T10:28:39Z</time>
      </trkpt>
      <trkpt lat="40.700982" lon="-3.656433">
        <ele>835.774</ele>
        <time>2015-02-15T10:28:42Z</time>
      </trkpt>
      <trkpt lat="40.700982" lon="-3.656433">
        <ele>835.727</ele>
        <time>2015-02-15T10:28:45Z</time>
      </trkpt>
      <trkpt lat="40.700982" lon="-3.656433">
        <ele>835.768</ele>
        <time>2015-02-15T10:28:48Z</time>
      </trkpt>
      <trkpt lat="40.700982" lon="-3.656433">
        <ele>835.714</ele>
        <time>2015-02-15T10:28:51Z</time>
      </trkpt>
      <trkpt lat="40.700982" lon="-3.656433">
        <ele>835.707</ele>
        <time>2015-02-15T10:28:54Z</time>
      </trkpt>
      <trkpt lat="40.700982" lon="-3.656433">
        <ele>835.710</ele>
        <time>2015-02-15T10:28:57Z</time>
      </trkpt>
      <trkpt lat="40.700982" lon="-3.656433">
        <ele>835.720</ele>
        <time>2015-02-15T10:29:00Z</time>
      </trkpt>
      <trkpt lat="40.700982" lon="-3.656433">
        <ele>835.729</ele>
        <time>2015-02-15T10:29:04Z</time>
      </trkpt>
      <trkpt lat="40.700982" lon="-3.656433">
        <ele>835.793</ele>
        <time>2015-02-15T10:29:07Z</time>
      </trkpt>
      <trkpt lat="40.700982" lon="-3.656433">
        <ele>835.732</ele>
        <time>2015-02-15T10:29:10Z</time>
      </trkpt>
      <trkpt lat="40.700983" lon="-3.656433">
        <ele>835.788</ele>
        <time>2015-02-15T10:29:13Z</time>
      </trkpt>
      <trkpt lat="40.700983" lon="-3.656433">
        <ele>835.719</ele>
        <time>2015-02-15T10:29:16Z</time>
      </trkpt>
      <trkpt lat="40.700983" lon="-3.656433">
        <ele>835.726</ele>
        <time>2015-02-15T10:29:19Z</time>
      </trkpt>
      <trkpt lat="40.700983" lon="-3.656433">
        <ele>835.747</ele>
        <time>2015-02-15T10:29:23Z</time>
      </trkpt>
      <trkpt lat="40.700983" lon="-3.656433">
        <ele>835.711</ele>
        <time>2015-02-15T10:29:26Z</time>
      </trkpt>
      <trkpt lat="40.700983" lon="-3.656433">
        <ele>835.707</ele>
        <time>2015-02-15T10:29:29Z</time>
      </trkpt>
      <trkpt lat="40.700983" lon="-3.656433">
        <ele>835.710</ele>
        <time>2015-02-15T10:29:32Z</time>
      </trkpt>
      <trkpt lat="40.700983" lon="-3.656433">
        <ele>835.720</ele>
        <time>2015-02-15T10:29:36Z</time>
      </trkpt>
      <trkpt lat="40.700983" lon="-3.656433">
        <ele>835.749</ele>
        <time>2015-02-15T10:29:39Z</time>
      </trkpt>
      <trkpt lat="40.700983" lon="-3.656433">
        <ele>835.783</ele>
        <time>2015-02-15T10:29:42Z</time>
      </trkpt>
      <trkpt lat="40.700983" lon="-3.656433">
        <ele>835.722</ele>
        <time>2015-02-15T10:29:46Z</time>
      </trkpt>
      <trkpt lat="40.700983" lon="-3.656433">
        <ele>835.768</ele>
        <time>2015-02-15T10:29:49Z</time>
      </trkpt>
      <trkpt lat="40.700983" lon="-3.656433">
        <ele>835.729</ele>
        <time>2015-02-15T10:29:52Z</time>
      </trkpt>
      <trkpt lat="40.700983" lon="-3.656433">
        <ele>835.767</ele>
        <time>2015-02-15T10:29:55Z</time>
      </trkpt>
      <trkpt lat="40.700983" lon="-3.656433">
        <ele>835.881</ele>
        <time>2015-02-15T10:29:58Z</time>
      </trkpt>
      <trkpt lat="40.700983" lon="-3.656433">
        <ele>835.819</ele>
        <time>2015-02-15T10:30:02Z</time>
      </trkpt>
      <trkpt lat="40.700983" lon="-3.656433">
        <ele>835.807</ele>
        <time>2015-02-15T10:30:05Z</time>
      </trkpt>
      <trkpt lat="40.700983" lon="-3.656433">
        <ele>835.894</ele>
        <time>2015-02-15T10:30:08Z</time>
      </trkpt>
      <trkpt lat="40.700983" lon="-3.656433">
        <ele>835.864</ele>
        <time>2015-02-15T10:30:11Z</time>
      </trkpt>
      <trkpt lat="40.700983" lon="-3.656433">
        <ele>835.863</ele>
        <time>2015-02-15T10:30:14Z</time>
      </trkpt>
      <trkpt lat="40.700983" lon="-3.656433">
        <ele>835.887</ele>
        <time>2015-02-15T10:30:17Z</time>
      </trkpt>
      <trkpt lat="40.700983" lon="-3.656433">
        <ele>835.866</ele>
        <time>2015-02-15T10:30:20Z</time>
      </trkpt>
      <trkpt lat="40.700983" lon="-3.656433">
        <ele>835.842</ele>
        <time>2015-02-15T10:30:23Z</time>
      </trkpt>
      <trkpt lat="40.700983" lon="-3.656433">
        <ele>835.893</ele>
        <time>2015-02-15T10:30:27Z</time>
      </trkpt>
      <trkpt lat="40.700983" lon="-3.656433">
        <ele>835.774</ele>
        <time>2015-02-15T10:30:30Z</time>
      </trkpt>
      <trkpt lat="40.700983" lon="-3.656433">
        <ele>835.756</ele>
        <time>2015-02-15T10:30:33Z</time>
      </trkpt>
      <trkpt lat="40.700983" lon="-3.656433">
        <ele>835.721</ele>
        <time>2015-02-15T10:30:36Z</time>
      </trkpt>
      <trkpt lat="40.700983" lon="-3.656433">
        <ele>835.707</ele>
        <time>2015-02-15T10:30:39Z</time>
      </trkpt>
      <trkpt lat="40.700983" lon="-3.656433">
        <ele>835.725</ele>
        <time>2015-02-15T10:30:42Z</time>
      </trkpt>
      <trkpt lat="40.700983" lon="-3.656433">
        <ele>835.765</ele>
        <time>2015-02-15T10:30:45Z</time>
      </trkpt>
      <trkpt lat="40.700983" lon="-3.656433">
        <ele>835.724</ele>
        <time>2015-02-15T10:30:48Z</time>
      </trkpt>
      <trkpt lat="40.700983" lon="-3.656433">
        <ele>835.728</ele>
        <time>2015-02-15T10:30:52Z</time>
      </trkpt>
      <trkpt lat="40.700983" lon="-3.656433">
        <ele>835.717</ele>
        <time>2015-02-15T10:30:55Z</time>
      </trkpt>
      <trkpt lat="40.700983" lon="-3.656433">
        <ele>835.773</ele>
        <time>2015-02-15T10:30:58Z</time>
      </trkpt>
      <trkpt lat="40.700983" lon="-3.656433">
        <ele>835.764</ele>
        <time>2015-02-15T10:31:01Z</time>
      </trkpt>
      <trkpt lat="40.700983" lon="-3.656433">
        <ele>835.743</ele>
        <time>2015-02-15T10:31:05Z</time>
      </trkpt>
      <trkpt lat="40.700983" lon="-3.656433">
        <ele>835.764</ele>
        <time>2015-02-15T10:31:08Z</time>
      </trkpt>
      <trkpt lat="40.700983" lon="-3.656433">
        <ele>835.710</ele>
        <time>2015-02-15T10:31:11Z</time>
      </trkpt>
      <trkpt lat="40.700982" lon="-3.656433">
        <ele>835.707</ele>
        <time>2015-02-15T10:31:14Z</time>
      </trkpt>
      <trkpt lat="40.700982" lon="-3.656433">
        <ele>835.762</ele>
        <time>2015-02-15T10:31:17Z</time>
      </trkpt>
      <trkpt lat="40.700982" lon="-3.656433">
        <ele>835.762</ele>
        <time>2015-02-15T10:31:20Z</time>
      </trkpt>
      <trkpt lat="40.700982" lon="-3.656433">
        <ele>835.721</ele>
        <time>2015-02-15T10:31:23Z</time>
      </trkpt>
      <trkpt lat="40.700982" lon="-3.656433">
        <ele>835.745</ele>
        <time>2015-02-15T10:31:27Z</time>
      </trkpt>
      <trkpt lat="40.700982" lon="-3.656433">
        <ele>835.764</ele>
        <time>2015-02-15T10:31:31Z</time>
      </trkpt>
      <trkpt lat="40.700982" lon="-3.656433">
        <ele>835.710</ele>
        <time>2015-02-15T10:31:34Z</time>
      </trkpt>
      <trkpt lat="40.700982" lon="-3.656433">
        <ele>835.761</ele>
        <time>2015-02-15T10:31:37Z</time>
      </trkpt>
      <trkpt lat="40.700982" lon="-3.656433">
        <ele>835.793</ele>
        <time>2015-02-15T10:31:40Z</time>
      </trkpt>
      <trkpt lat="40.700982" lon="-3.656433">
        <ele>835.765</ele>
        <time>2015-02-15T10:31:43Z</time>
      </trkpt>
      <trkpt lat="40.700982" lon="-3.656433">
        <ele>835.721</ele>
        <time>2015-02-15T10:31:46Z</time>
      </trkpt>
      <trkpt lat="40.700983" lon="-3.656433">
        <ele>835.707</ele>
        <time>2015-02-15T10:31:50Z</time>
      </trkpt>
      <trkpt lat="40.700983" lon="-3.656433">
        <ele>835.737</ele>
        <time>2015-02-15T10:31:53Z</time>
      </trkpt>
      <trkpt lat="40.700982" lon="-3.656433">
        <ele>835.757</ele>
        <time>2015-02-15T10:31:56Z</time>
      </trkpt>
      <trkpt lat="40.700982" lon="-3.656433">
        <ele>835.756</ele>
        <time>2015-02-15T10:31:59Z</time>
      </trkpt>
      <trkpt lat="40.700982" lon="-3.656433">
        <ele>835.790</ele>
        <time>2015-02-15T10:32:02Z</time>
      </trkpt>
      <trkpt lat="40.700982" lon="-3.656433">
        <ele>835.729</ele>
        <time>2015-02-15T10:32:05Z</time>
      </trkpt>
      <trkpt lat="40.700982" lon="-3.656433">
        <ele>835.765</ele>
        <time>2015-02-15T10:32:09Z</time>
      </trkpt>
      <trkpt lat="40.700982" lon="-3.656433">
        <ele>835.796</ele>
        <time>2015-02-15T10:32:12Z</time>
      </trkpt>
      <trkpt lat="40.700982" lon="-3.656433">
        <ele>835.747</ele>
        <time>2015-02-15T10:32:15Z</time>
      </trkpt>
      <trkpt lat="40.700982" lon="-3.656433">
        <ele>835.729</ele>
        <time>2015-02-15T10:32:18Z</time>
      </trkpt>
      <trkpt lat="40.700982" lon="-3.656433">
        <ele>835.721</ele>
        <time>2015-02-15T10:32:21Z</time>
      </trkpt>
      <trkpt lat="40.700982" lon="-3.656433">
        <ele>835.707</ele>
        <time>2015-02-15T10:32:24Z</time>
      </trkpt>
      <trkpt lat="40.700982" lon="-3.656433">
        <ele>835.782</ele>
        <time>2015-02-15T10:32:27Z</time>
      </trkpt>
      <trkpt lat="40.700982" lon="-3.656433">
        <ele>835.772</ele>
        <time>2015-02-15T10:32:30Z</time>
      </trkpt>
      <trkpt lat="40.700982" lon="-3.656433">
        <ele>835.781</ele>
        <time>2015-02-15T10:32:34Z</time>
      </trkpt>
      <trkpt lat="40.700982" lon="-3.656433">
        <ele>835.795</ele>
        <time>2015-02-15T10:32:37Z</time>
      </trkpt>
      <trkpt lat="40.700982" lon="-3.656433">
        <ele>835.784</ele>
        <time>2015-02-15T10:32:40Z</time>
      </trkpt>
      <trkpt lat="40.700982" lon="-3.656433">
        <ele>835.780</ele>
        <time>2015-02-15T10:32:43Z</time>
      </trkpt>
      <trkpt lat="40.700982" lon="-3.656433">
        <ele>835.721</ele>
        <time>2015-02-15T10:32:46Z</time>
      </trkpt>
      <trkpt lat="40.700982" lon="-3.656433">
        <ele>835.721</ele>
        <time>2015-02-15T10:32:49Z</time>
      </trkpt>
      <trkpt lat="40.700982" lon="-3.656433">
        <ele>835.741</ele>
        <time>2015-02-15T10:32:52Z</time>
      </trkpt>
      <trkpt lat="40.700982" lon="-3.656433">
        <ele>835.705</ele>
        <time>2015-02-15T10:32:55Z</time>
      </trkpt>
      <trkpt lat="40.700982" lon="-3.656433">
        <ele>835.707</ele>
        <time>2015-02-15T10:32:59Z</time>
      </trkpt>
      <trkpt lat="40.700982" lon="-3.656433">
        <ele>835.730</ele>
        <time>2015-02-15T10:33:02Z</time>
      </trkpt>
      <trkpt lat="40.700982" lon="-3.656433">
        <ele>835.750</ele>
        <time>2015-02-15T10:33:05Z</time>
      </trkpt>
      <trkpt lat="40.700982" lon="-3.656433">
        <ele>835.719</ele>
        <time>2015-02-15T10:33:09Z</time>
      </trkpt>
      <trkpt lat="40.700982" lon="-3.656433">
        <ele>835.713</ele>
        <time>2015-02-15T10:33:12Z</time>
      </trkpt>
      <trkpt lat="40.700982" lon="-3.656433">
        <ele>835.712</ele>
        <time>2015-02-15T10:33:15Z</time>
      </trkpt>
      <trkpt lat="40.700982" lon="-3.656433">
        <ele>835.798</ele>
        <time>2015-02-15T10:33:18Z</time>
      </trkpt>
      <trkpt lat="40.700982" lon="-3.656433">
        <ele>835.719</ele>
        <time>2015-02-15T10:33:21Z</time>
      </trkpt>
      <trkpt lat="40.700982" lon="-3.656433">
        <ele>835.748</ele>
        <time>2015-02-15T10:33:25Z</time>
      </trkpt>
      <trkpt lat="40.700982" lon="-3.656433">
        <ele>835.761</ele>
        <time>2015-02-15T10:33:28Z</time>
      </trkpt>
      <trkpt lat="40.700983" lon="-3.656433">
        <ele>835.717</ele>
        <time>2015-02-15T10:33:31Z</time>
      </trkpt>
      <trkpt lat="40.700983" lon="-3.656433">
        <ele>835.707</ele>
        <time>2015-02-15T10:33:34Z</time>
      </trkpt>
      <trkpt lat="40.700983" lon="-3.656433">
        <ele>835.772</ele>
        <time>2015-02-15T10:33:38Z</time>
      </trkpt>
      <trkpt lat="40.700983" lon="-3.656433">
        <ele>835.722</ele>
        <time>2015-02-15T10:33:41Z</time>
      </trkpt>
      <trkpt lat="40.700983" lon="-3.656433">
        <ele>835.791</ele>
        <time>2015-02-15T10:33:44Z</time>
      </trkpt>
      <trkpt lat="40.700983" lon="-3.656433">
        <ele>835.735</ele>
        <time>2015-02-15T10:33:47Z</time>
      </trkpt>
      <trkpt lat="40.700983" lon="-3.656433">
        <ele>835.774</ele>
        <time>2015-02-15T10:33:51Z</time>
      </trkpt>
      <trkpt lat="40.700983" lon="-3.656433">
        <ele>835.710</ele>
        <time>2015-02-15T10:33:54Z</time>
      </trkpt>
      <trkpt lat="40.700983" lon="-3.656433">
        <ele>835.761</ele>
        <time>2015-02-15T10:33:57Z</time>
      </trkpt>
      <trkpt lat="40.700983" lon="-3.656433">
        <ele>835.774</ele>
        <time>2015-02-15T10:34:00Z</time>
      </trkpt>
      <trkpt lat="40.700983" lon="-3.656433">
        <ele>835.856</ele>
        <time>2015-02-15T10:34:03Z</time>
      </trkpt>
      <trkpt lat="40.700983" lon="-3.656433">
        <ele>835.821</ele>
        <time>2015-02-15T10:34:06Z</time>
      </trkpt>
      <trkpt lat="40.700983" lon="-3.656433">
        <ele>835.807</ele>
        <time>2015-02-15T10:34:10Z</time>
      </trkpt>
      <trkpt lat="40.700983" lon="-3.656433">
        <ele>835.855</ele>
        <time>2015-02-15T10:34:13Z</time>
      </trkpt>
      <trkpt lat="40.700983" lon="-3.656433">
        <ele>835.835</ele>
        <time>2015-02-15T10:34:16Z</time>
      </trkpt>
      <trkpt lat="40.700983" lon="-3.656433">
        <ele>835.894</ele>
        <time>2015-02-15T10:34:19Z</time>
      </trkpt>
      <trkpt lat="40.700983" lon="-3.656433">
        <ele>835.868</ele>
        <time>2015-02-15T10:34:22Z</time>
      </trkpt>
      <trkpt lat="40.700983" lon="-3.656433">
        <ele>835.827</ele>
        <time>2015-02-15T10:34:25Z</time>
      </trkpt>
      <trkpt lat="40.700983" lon="-3.656433">
        <ele>835.883</ele>
        <time>2015-02-15T10:34:28Z</time>
      </trkpt>
      <trkpt lat="40.700983" lon="-3.656433">
        <ele>835.874</ele>
        <time>2015-02-15T10:34:32Z</time>
      </trkpt>
      <trkpt lat="40.700983" lon="-3.656433">
        <ele>835.838</ele>
        <time>2015-02-15T10:34:35Z</time>
      </trkpt>
      <trkpt lat="40.700983" lon="-3.656433">
        <ele>835.870</ele>
        <time>2015-02-15T10:34:38Z</time>
      </trkpt>
      <trkpt lat="40.700983" lon="-3.656433">
        <ele>835.817</ele>
        <time>2015-02-15T10:34:42Z</time>
      </trkpt>
      <trkpt lat="40.700983" lon="-3.656433">
        <ele>835.807</ele>
        <time>2015-02-15T10:34:45Z</time>
      </trkpt>
      <trkpt lat="40.700982" lon="-3.656433">
        <ele>835.851</ele>
        <time>2015-02-15T10:34:49Z</time>
      </trkpt>
      <trkpt lat="40.700982" lon="-3.656433">
        <ele>835.861</ele>
        <time>2015-02-15T10:34:52Z</time>
      </trkpt>
      <trkpt lat="40.700982" lon="-3.656433">
        <ele>835.890</ele>
        <time>2015-02-15T10:34:55Z</time>
      </trkpt>
      <trkpt lat="40.700982" lon="-3.656433">
        <ele>835.894</ele>
        <time>2015-02-15T10:34:58Z</time>
      </trkpt>
      <trkpt lat="40.700982" lon="-3.656433">
        <ele>835.893</ele>
        <time>2015-02-15T10:35:01Z</time>
      </trkpt>
      <trkpt lat="40.700982" lon="-3.656433">
        <ele>835.869</ele>
        <time>2015-02-15T10:35:04Z</time>
      </trkpt>
      <trkpt lat="40.700982" lon="-3.656433">
        <ele>835.870</ele>
        <time>2015-02-15T10:35:07Z</time>
      </trkpt>
      <trkpt lat="40.700982" lon="-3.656433">
        <ele>835.859</ele>
        <time>2015-02-15T10:35:10Z</time>
      </trkpt>
      <trkpt lat="40.700982" lon="-3.656433">
        <ele>835.803</ele>
        <time>2015-02-15T10:35:14Z</time>
      </trkpt>
      <trkpt lat="40.700982" lon="-3.656433">
        <ele>835.823</ele>
        <time>2015-02-15T10:35:17Z</time>
      </trkpt>
      <trkpt lat="40.700982" lon="-3.656433">
        <ele>835.807</ele>
        <time>2015-02-15T10:35:20Z</time>
      </trkpt>
      <trkpt lat="40.700982" lon="-3.656433">
        <ele>835.863</ele>
        <time>2015-02-15T10:35:23Z</time>
      </trkpt>
      <trkpt lat="40.700982" lon="-3.656433">
        <ele>835.873</ele>
        <time>2015-02-15T10:35:27Z</time>
      </trkpt>
      <trkpt lat="40.700982" lon="-3.656433">
        <ele>835.842</ele>
        <time>2015-02-15T10:35:30Z</time>
      </trkpt>
      <trkpt lat="40.700971" lon="-3.656447">
        <ele>835.886</ele>
        <time>2015-02-15T10:35:33Z</time>
      </trkpt>
      <trkpt lat="40.700961" lon="-3.656449">
        <ele>835.825</ele>
        <time>2015-02-15T10:35:34Z</time>
      </trkpt>
      <trkpt lat="40.700925" lon="-3.656425">
        <ele>835.911</ele>
        <time>2015-02-15T10:35:37Z</time>
      </trkpt>
      <trkpt lat="40.700899" lon="-3.656395">
        <ele>836.092</ele>
        <time>2015-02-15T10:35:40Z</time>
      </trkpt>
      <trkpt lat="40.700876" lon="-3.656381">
        <ele>836.196</ele>
        <time>2015-02-15T10:35:43Z</time>
      </trkpt>
      <trkpt lat="40.700875" lon="-3.656377">
        <ele>836.231</ele>
        <time>2015-02-15T10:35:44Z</time>
      </trkpt>
      <trkpt lat="40.700880" lon="-3.656378">
        <ele>836.224</ele>
        <time>2015-02-15T10:35:45Z</time>
      </trkpt>
      <trkpt lat="40.700876" lon="-3.656370">
        <ele>836.307</ele>
        <time>2015-02-15T10:35:48Z</time>
      </trkpt>
      <trkpt lat="40.700869" lon="-3.656369">
        <ele>836.477</ele>
        <time>2015-02-15T10:35:51Z</time>
      </trkpt>
      <trkpt lat="40.700856" lon="-3.656370">
        <ele>836.537</ele>
        <time>2015-02-15T10:35:52Z</time>
      </trkpt>
      <trkpt lat="40.700845" lon="-3.656371">
        <ele>836.556</ele>
        <time>2015-02-15T10:35:53Z</time>
      </trkpt>
      <trkpt lat="40.700812" lon="-3.656369">
        <ele>836.580</ele>
        <time>2015-02-15T10:35:56Z</time>
      </trkpt>
      <trkpt lat="40.700780" lon="-3.656367">
        <ele>836.689</ele>
        <time>2015-02-15T10:35:59Z</time>
      </trkpt>
      <trkpt lat="40.700763" lon="-3.656377">
        <ele>836.635</ele>
        <time>2015-02-15T10:36:01Z</time>
      </trkpt>
      <trkpt lat="40.700736" lon="-3.656389">
        <ele>836.676</ele>
        <time>2015-02-15T10:36:02Z</time>
      </trkpt>
      <trkpt lat="40.700709" lon="-3.656400">
        <ele>836.629</ele>
        <time>2015-02-15T10:36:03Z</time>
      </trkpt>
      <trkpt lat="40.700683" lon="-3.656408">
        <ele>836.600</ele>
        <time>2015-02-15T10:36:04Z</time>
      </trkpt>
      <trkpt lat="40.700662" lon="-3.656405">
        <ele>836.620</ele>
        <time>2015-02-15T10:36:06Z</time>
      </trkpt>
      <trkpt lat="40.700644" lon="-3.656405">
        <ele>836.607</ele>
        <time>2015-02-15T10:36:07Z</time>
      </trkpt>
      <trkpt lat="40.700632" lon="-3.656406">
        <ele>836.650</ele>
        <time>2015-02-15T10:36:08Z</time>
      </trkpt>
      <trkpt lat="40.700611" lon="-3.656412">
        <ele>836.660</ele>
        <time>2015-02-15T10:36:09Z</time>
      </trkpt>
      <trkpt lat="40.700594" lon="-3.656408">
        <ele>836.659</ele>
        <time>2015-02-15T10:36:10Z</time>
      </trkpt>
      <trkpt lat="40.700565" lon="-3.656398">
        <ele>836.643</ele>
        <time>2015-02-15T10:36:12Z</time>
      </trkpt>
      <trkpt lat="40.700529" lon="-3.656415">
        <ele>836.622</ele>
        <time>2015-02-15T10:36:14Z</time>
      </trkpt>
      <trkpt lat="40.700515" lon="-3.656420">
        <ele>836.648</ele>
        <time>2015-02-15T10:36:15Z</time>
      </trkpt>
      <trkpt lat="40.700505" lon="-3.656426">
        <ele>836.669</ele>
        <time>2015-02-15T10:36:16Z</time>
      </trkpt>
      <trkpt lat="40.700492" lon="-3.656430">
        <ele>836.697</ele>
        <time>2015-02-15T10:36:17Z</time>
      </trkpt>
      <trkpt lat="40.700464" lon="-3.656434">
        <ele>836.623</ele>
        <time>2015-02-15T10:36:19Z</time>
      </trkpt>
      <trkpt lat="40.700401" lon="-3.656457">
        <ele>836.525</ele>
        <time>2015-02-15T10:36:22Z</time>
      </trkpt>
      <trkpt lat="40.700356" lon="-3.656476">
        <ele>836.307</ele>
        <time>2015-02-15T10:36:24Z</time>
      </trkpt>
      <trkpt lat="40.700333" lon="-3.656490">
        <ele>836.227</ele>
        <time>2015-02-15T10:36:25Z</time>
      </trkpt>
      <trkpt lat="40.700309" lon="-3.656508">
        <ele>836.247</ele>
        <time>2015-02-15T10:36:26Z</time>
      </trkpt>
      <trkpt lat="40.700295" lon="-3.656528">
        <ele>836.126</ele>
        <time>2015-02-15T10:36:27Z</time>
      </trkpt>
      <trkpt lat="40.700283" lon="-3.656544">
        <ele>835.910</ele>
        <time>2015-02-15T10:36:28Z</time>
      </trkpt>
      <trkpt lat="40.700269" lon="-3.656571">
        <ele>835.879</ele>
        <time>2015-02-15T10:36:29Z</time>
      </trkpt>
      <trkpt lat="40.700245" lon="-3.656620">
        <ele>835.655</ele>
        <time>2015-02-15T10:36:31Z</time>
      </trkpt>
      <trkpt lat="40.700235" lon="-3.656643">
        <ele>835.576</ele>
        <time>2015-02-15T10:36:32Z</time>
      </trkpt>
      <trkpt lat="40.700235" lon="-3.656680">
        <ele>835.361</ele>
        <time>2015-02-15T10:36:34Z</time>
      </trkpt>
      <trkpt lat="40.700235" lon="-3.656703">
        <ele>835.121</ele>
        <time>2015-02-15T10:36:35Z</time>
      </trkpt>
      <trkpt lat="40.700242" lon="-3.656720">
        <ele>835.013</ele>
        <time>2015-02-15T10:36:36Z</time>
      </trkpt>
      <trkpt lat="40.700250" lon="-3.656739">
        <ele>834.907</ele>
        <time>2015-02-15T10:36:37Z</time>
      </trkpt>
      <trkpt lat="40.700252" lon="-3.656756">
        <ele>834.774</ele>
        <time>2015-02-15T10:36:38Z</time>
      </trkpt>
      <trkpt lat="40.700253" lon="-3.656763">
        <ele>834.664</ele>
        <time>2015-02-15T10:36:39Z</time>
      </trkpt>
      <trkpt lat="40.700253" lon="-3.656763">
        <ele>834.453</ele>
        <time>2015-02-15T10:36:40Z</time>
      </trkpt>
      <trkpt lat="40.700272" lon="-3.656774">
        <ele>833.957</ele>
        <time>2015-02-15T10:36:43Z</time>
      </trkpt>
      <trkpt lat="40.700299" lon="-3.656794">
        <ele>833.436</ele>
        <time>2015-02-15T10:36:46Z</time>
      </trkpt>
      <trkpt lat="40.700317" lon="-3.656808">
        <ele>832.912</ele>
        <time>2015-02-15T10:36:49Z</time>
      </trkpt>
      <trkpt lat="40.700314" lon="-3.656805">
        <ele>832.583</ele>
        <time>2015-02-15T10:36:51Z</time>
      </trkpt>
      <trkpt lat="40.700312" lon="-3.656809">
        <ele>832.132</ele>
        <time>2015-02-15T10:36:53Z</time>
      </trkpt>
      <trkpt lat="40.700314" lon="-3.656820">
        <ele>831.892</ele>
        <time>2015-02-15T10:36:55Z</time>
      </trkpt>
      <trkpt lat="40.700314" lon="-3.656822">
        <ele>831.211</ele>
        <time>2015-02-15T10:36:58Z</time>
      </trkpt>
      <trkpt lat="40.700314" lon="-3.656822">
        <ele>830.907</ele>
        <time>2015-02-15T10:37:00Z</time>
      </trkpt>
      <trkpt lat="40.700322" lon="-3.656822">
        <ele>830.551</ele>
        <time>2015-02-15T10:37:02Z</time>
      </trkpt>
      <trkpt lat="40.700350" lon="-3.656826">
        <ele>829.851</ele>
        <time>2015-02-15T10:37:06Z</time>
      </trkpt>
      <trkpt lat="40.700352" lon="-3.656830">
        <ele>829.210</ele>
        <time>2015-02-15T10:37:09Z</time>
      </trkpt>
      <trkpt lat="40.700351" lon="-3.656839">
        <ele>828.874</ele>
        <time>2015-02-15T10:37:11Z</time>
      </trkpt>
      <trkpt lat="40.700350" lon="-3.656838">
        <ele>828.773</ele>
        <time>2015-02-15T10:37:12Z</time>
      </trkpt>
      <trkpt lat="40.700349" lon="-3.656838">
        <ele>828.189</ele>
        <time>2015-02-15T10:37:15Z</time>
      </trkpt>
      <trkpt lat="40.700346" lon="-3.656834">
        <ele>827.310</ele>
        <time>2015-02-15T10:37:19Z</time>
      </trkpt>
      <trkpt lat="40.700348" lon="-3.656832">
        <ele>826.944</ele>
        <time>2015-02-15T10:37:22Z</time>
      </trkpt>
      <trkpt lat="40.700348" lon="-3.656832">
        <ele>826.505</ele>
        <time>2015-02-15T10:37:25Z</time>
      </trkpt>
      <trkpt lat="40.700348" lon="-3.656832">
        <ele>826.315</ele>
        <time>2015-02-15T10:37:29Z</time>
      </trkpt>
      <trkpt lat="40.700348" lon="-3.656832">
        <ele>826.007</ele>
        <time>2015-02-15T10:37:32Z</time>
      </trkpt>
      <trkpt lat="40.700348" lon="-3.656832">
        <ele>825.882</ele>
        <time>2015-02-15T10:37:35Z</time>
      </trkpt>
      <trkpt lat="40.700348" lon="-3.656832">
        <ele>825.582</ele>
        <time>2015-02-15T10:37:38Z</time>
      </trkpt>
      <trkpt lat="40.700348" lon="-3.656832">
        <ele>825.371</ele>
        <time>2015-02-15T10:37:41Z</time>
      </trkpt>
      <trkpt lat="40.700348" lon="-3.656832">
        <ele>825.185</ele>
        <time>2015-02-15T10:37:44Z</time>
      </trkpt>
      <trkpt lat="40.700348" lon="-3.656832">
        <ele>825.084</ele>
        <time>2015-02-15T10:37:47Z</time>
      </trkpt>
      <trkpt lat="40.700348" lon="-3.656832">
        <ele>824.860</ele>
        <time>2015-02-15T10:37:50Z</time>
      </trkpt>
      <trkpt lat="40.700348" lon="-3.656832">
        <ele>824.731</ele>
        <time>2015-02-15T10:37:53Z</time>
      </trkpt>
      <trkpt lat="40.700348" lon="-3.656832">
        <ele>824.667</ele>
        <time>2015-02-15T10:37:56Z</time>
      </trkpt>
      <trkpt lat="40.700348" lon="-3.656832">
        <ele>824.581</ele>
        <time>2015-02-15T10:37:59Z</time>
      </trkpt>
      <trkpt lat="40.700348" lon="-3.656832">
        <ele>824.419</ele>
        <time>2015-02-15T10:38:02Z</time>
      </trkpt>
      <trkpt lat="40.700348" lon="-3.656832">
        <ele>824.407</ele>
        <time>2015-02-15T10:38:05Z</time>
      </trkpt>
      <trkpt lat="40.700348" lon="-3.656832">
        <ele>824.354</ele>
        <time>2015-02-15T10:38:08Z</time>
      </trkpt>
      <trkpt lat="40.700348" lon="-3.656832">
        <ele>824.344</ele>
        <time>2015-02-15T10:38:12Z</time>
      </trkpt>
      <trkpt lat="40.700347" lon="-3.656858">
        <ele>824.463</ele>
        <time>2015-02-15T10:38:15Z</time>
      </trkpt>
      <trkpt lat="40.700356" lon="-3.656868">
        <ele>824.777</ele>
        <time>2015-02-15T10:38:18Z</time>
      </trkpt>
      <trkpt lat="40.700373" lon="-3.656897">
        <ele>825.196</ele>
        <time>2015-02-15T10:38:21Z</time>
      </trkpt>
      <trkpt lat="40.700380" lon="-3.656905">
        <ele>825.252</ele>
        <time>2015-02-15T10:38:22Z</time>
      </trkpt>
      <trkpt lat="40.700384" lon="-3.656906">
        <ele>825.393</ele>
        <time>2015-02-15T10:38:23Z</time>
      </trkpt>
      <trkpt lat="40.700382" lon="-3.656907">
        <ele>825.663</ele>
        <time>2015-02-15T10:38:26Z</time>
      </trkpt>
      <trkpt lat="40.700382" lon="-3.656907">
        <ele>825.944</ele>
        <time>2015-02-15T10:38:29Z</time>
      </trkpt>
      <trkpt lat="40.700395" lon="-3.656923">
        <ele>826.218</ele>
        <time>2015-02-15T10:38:32Z</time>
      </trkpt>
      <trkpt lat="40.700414" lon="-3.656982">
        <ele>826.507</ele>
        <time>2015-02-15T10:38:35Z</time>
      </trkpt>
      <trkpt lat="40.700431" lon="-3.657043">
        <ele>826.874</ele>
        <time>2015-02-15T10:38:38Z</time>
      </trkpt>
      <trkpt lat="40.700434" lon="-3.657086">
        <ele>827.034</ele>
        <time>2015-02-15T10:38:40Z</time>
      </trkpt>
      <trkpt lat="40.700435" lon="-3.657103">
        <ele>827.123</ele>
        <time>2015-02-15T10:38:41Z</time>
      </trkpt>
      <trkpt lat="40.700430" lon="-3.657118">
        <ele>827.287</ele>
        <time>2015-02-15T10:38:42Z</time>
      </trkpt>
      <trkpt lat="40.700427" lon="-3.657133">
        <ele>827.336</ele>
        <time>2015-02-15T10:38:43Z</time>
      </trkpt>
      <trkpt lat="40.700420" lon="-3.657150">
        <ele>827.442</ele>
        <time>2015-02-15T10:38:45Z</time>
      </trkpt>
      <trkpt lat="40.700416" lon="-3.657165">
        <ele>827.593</ele>
        <time>2015-02-15T10:38:45Z</time>
      </trkpt>
      <trkpt lat="40.700409" lon="-3.657195">
        <ele>827.753</ele>
        <time>2015-02-15T10:38:47Z</time>
      </trkpt>
      <trkpt lat="40.700404" lon="-3.657207">
        <ele>827.804</ele>
        <time>2015-02-15T10:38:48Z</time>
      </trkpt>
      <trkpt lat="40.700397" lon="-3.657219">
        <ele>827.814</ele>
        <time>2015-02-15T10:38:49Z</time>
      </trkpt>
      <trkpt lat="40.700391" lon="-3.657223">
        <ele>827.907</ele>
        <time>2015-02-15T10:38:51Z</time>
      </trkpt>
      <trkpt lat="40.700350" lon="-3.657249">
        <ele>828.313</ele>
        <time>2015-02-15T10:38:55Z</time>
      </trkpt>
      <trkpt lat="40.700330" lon="-3.657271">
        <ele>828.583</ele>
        <time>2015-02-15T10:38:57Z</time>
      </trkpt>
      <trkpt lat="40.700319" lon="-3.657301">
        <ele>828.772</ele>
        <time>2015-02-15T10:38:59Z</time>
      </trkpt>
      <trkpt lat="40.700317" lon="-3.657315">
        <ele>828.826</ele>
        <time>2015-02-15T10:39:00Z</time>
      </trkpt>
      <trkpt lat="40.700301" lon="-3.657350">
        <ele>829.065</ele>
        <time>2015-02-15T10:39:02Z</time>
      </trkpt>
      <trkpt lat="40.700300" lon="-3.657372">
        <ele>829.261</ele>
        <time>2015-02-15T10:39:03Z</time>
      </trkpt>
      <trkpt lat="40.700281" lon="-3.657428">
        <ele>829.542</ele>
        <time>2015-02-15T10:39:06Z</time>
      </trkpt>
      <trkpt lat="40.700277" lon="-3.657447">
        <ele>829.689</ele>
        <time>2015-02-15T10:39:07Z</time>
      </trkpt>
      <trkpt lat="40.700268" lon="-3.657461">
        <ele>829.706</ele>
        <time>2015-02-15T10:39:08Z</time>
      </trkpt>
      <trkpt lat="40.700238" lon="-3.657521">
        <ele>830.226</ele>
        <time>2015-02-15T10:39:12Z</time>
      </trkpt>
      <trkpt lat="40.700208" lon="-3.657566">
        <ele>830.507</ele>
        <time>2015-02-15T10:39:14Z</time>
      </trkpt>
      <trkpt lat="40.700172" lon="-3.657627">
        <ele>830.726</ele>
        <time>2015-02-15T10:39:18Z</time>
      </trkpt>
      <trkpt lat="40.700172" lon="-3.657651">
        <ele>830.716</ele>
        <time>2015-02-15T10:39:19Z</time>
      </trkpt>
      <trkpt lat="40.700156" lon="-3.657672">
        <ele>830.725</ele>
        <time>2015-02-15T10:39:21Z</time>
      </trkpt>
      <trkpt lat="40.700141" lon="-3.657699">
        <ele>830.889</ele>
        <time>2015-02-15T10:39:24Z</time>
      </trkpt>
      <trkpt lat="40.700103" lon="-3.657751">
        <ele>831.088</ele>
        <time>2015-02-15T10:39:27Z</time>
      </trkpt>
      <trkpt lat="40.700080" lon="-3.657765">
        <ele>831.044</ele>
        <time>2015-02-15T10:39:28Z</time>
      </trkpt>
      <trkpt lat="40.700071" lon="-3.657777">
        <ele>831.135</ele>
        <time>2015-02-15T10:39:29Z</time>
      </trkpt>
      <trkpt lat="40.700060" lon="-3.657783">
        <ele>831.251</ele>
        <time>2015-02-15T10:39:30Z</time>
      </trkpt>
      <trkpt lat="40.700060" lon="-3.657783">
        <ele>831.201</ele>
        <time>2015-02-15T10:39:31Z</time>
      </trkpt>
      <trkpt lat="40.700043" lon="-3.657823">
        <ele>831.411</ele>
        <time>2015-02-15T10:39:34Z</time>
      </trkpt>
      <trkpt lat="40.700039" lon="-3.657838">
        <ele>831.507</ele>
        <time>2015-02-15T10:39:35Z</time>
      </trkpt>
      <trkpt lat="40.700030" lon="-3.657865">
        <ele>831.653</ele>
        <time>2015-02-15T10:39:36Z</time>
      </trkpt>
      <trkpt lat="40.700019" lon="-3.657896">
        <ele>831.713</ele>
        <time>2015-02-15T10:39:37Z</time>
      </trkpt>
      <trkpt lat="40.699997" lon="-3.657918">
        <ele>831.862</ele>
        <time>2015-02-15T10:39:38Z</time>
      </trkpt>
      <trkpt lat="40.699984" lon="-3.657967">
        <ele>832.176</ele>
        <time>2015-02-15T10:39:41Z</time>
      </trkpt>
      <trkpt lat="40.699971" lon="-3.658001">
        <ele>832.245</ele>
        <time>2015-02-15T10:39:43Z</time>
      </trkpt>
      <trkpt lat="40.699952" lon="-3.658030">
        <ele>832.321</ele>
        <time>2015-02-15T10:39:45Z</time>
      </trkpt>
      <trkpt lat="40.699919" lon="-3.658089">
        <ele>832.522</ele>
        <time>2015-02-15T10:39:48Z</time>
      </trkpt>
      <trkpt lat="40.699905" lon="-3.658129">
        <ele>832.678</ele>
        <time>2015-02-15T10:39:50Z</time>
      </trkpt>
      <trkpt lat="40.699878" lon="-3.658182">
        <ele>832.833</ele>
        <time>2015-02-15T10:39:53Z</time>
      </trkpt>
      <trkpt lat="40.699859" lon="-3.658214">
        <ele>832.826</ele>
        <time>2015-02-15T10:39:55Z</time>
      </trkpt>
      <trkpt lat="40.699841" lon="-3.658273">
        <ele>832.907</ele>
        <time>2015-02-15T10:39:58Z</time>
      </trkpt>
      <trkpt lat="40.699839" lon="-3.658290">
        <ele>832.995</ele>
        <time>2015-02-15T10:39:59Z</time>
      </trkpt>
      <trkpt lat="40.699826" lon="-3.658320">
        <ele>833.015</ele>
        <time>2015-02-15T10:40:01Z</time>
      </trkpt>
      <trkpt lat="40.699801" lon="-3.658407">
        <ele>833.124</ele>
        <time>2015-02-15T10:40:05Z</time>
      </trkpt>
      <trkpt lat="40.699786" lon="-3.658478">
        <ele>833.278</ele>
        <time>2015-02-15T10:40:08Z</time>
      </trkpt>
      <trkpt lat="40.699774" lon="-3.658495">
        <ele>833.327</ele>
        <time>2015-02-15T10:40:09Z</time>
      </trkpt>
      <trkpt lat="40.699769" lon="-3.658535">
        <ele>833.393</ele>
        <time>2015-02-15T10:40:11Z</time>
      </trkpt>
      <trkpt lat="40.699763" lon="-3.658585">
        <ele>833.484</ele>
        <time>2015-02-15T10:40:14Z</time>
      </trkpt>
      <trkpt lat="40.699750" lon="-3.658632">
        <ele>833.657</ele>
        <time>2015-02-15T10:40:18Z</time>
      </trkpt>
      <trkpt lat="40.699738" lon="-3.658687">
        <ele>833.800</ele>
        <time>2015-02-15T10:40:21Z</time>
      </trkpt>
      <trkpt lat="40.699728" lon="-3.658700">
        <ele>833.920</ele>
        <time>2015-02-15T10:40:22Z</time>
      </trkpt>
      <trkpt lat="40.699710" lon="-3.658739">
        <ele>834.107</ele>
        <time>2015-02-15T10:40:25Z</time>
      </trkpt>
      <trkpt lat="40.699700" lon="-3.658753">
        <ele>834.143</ele>
        <time>2015-02-15T10:40:26Z</time>
      </trkpt>
      <trkpt lat="40.699684" lon="-3.658805">
        <ele>834.433</ele>
        <time>2015-02-15T10:40:29Z</time>
      </trkpt>
      <trkpt lat="40.699676" lon="-3.658845">
        <ele>834.562</ele>
        <time>2015-02-15T10:40:31Z</time>
      </trkpt>
      <trkpt lat="40.699651" lon="-3.658899">
        <ele>834.916</ele>
        <time>2015-02-15T10:40:35Z</time>
      </trkpt>
      <trkpt lat="40.699626" lon="-3.658943">
        <ele>835.065</ele>
        <time>2015-02-15T10:40:37Z</time>
      </trkpt>
      <trkpt lat="40.699612" lon="-3.658979">
        <ele>835.231</ele>
        <time>2015-02-15T10:40:39Z</time>
      </trkpt>
      <trkpt lat="40.699606" lon="-3.658996">
        <ele>835.372</ele>
        <time>2015-02-15T10:40:40Z</time>
      </trkpt>
      <trkpt lat="40.699601" lon="-3.659029">
        <ele>835.418</ele>
        <time>2015-02-15T10:40:42Z</time>
      </trkpt>
      <trkpt lat="40.699605" lon="-3.659067">
        <ele>835.698</ele>
        <time>2015-02-15T10:40:44Z</time>
      </trkpt>
      <trkpt lat="40.699607" lon="-3.659079">
        <ele>835.717</ele>
        <time>2015-02-15T10:40:45Z</time>
      </trkpt>
      <trkpt lat="40.699612" lon="-3.659096">
        <ele>835.807</ele>
        <time>2015-02-15T10:40:46Z</time>
      </trkpt>
      <trkpt lat="40.699622" lon="-3.659128">
        <ele>836.019</ele>
        <time>2015-02-15T10:40:48Z</time>
      </trkpt>
      <trkpt lat="40.699626" lon="-3.659178">
        <ele>836.339</ele>
        <time>2015-02-15T10:40:51Z</time>
      </trkpt>
      <trkpt lat="40.699632" lon="-3.659236">
        <ele>836.788</ele>
        <time>2015-02-15T10:40:54Z</time>
      </trkpt>
      <trkpt lat="40.699624" lon="-3.659254">
        <ele>836.872</ele>
        <time>2015-02-15T10:40:55Z</time>
      </trkpt>
      <trkpt lat="40.699617" lon="-3.659267">
        <ele>837.091</ele>
        <time>2015-02-15T10:40:56Z</time>
      </trkpt>
      <trkpt lat="40.699611" lon="-3.659284">
        <ele>837.127</ele>
        <time>2015-02-15T10:40:57Z</time>
      </trkpt>
      <trkpt lat="40.699601" lon="-3.659318">
        <ele>837.478</ele>
        <time>2015-02-15T10:40:59Z</time>
      </trkpt>
      <trkpt lat="40.699595" lon="-3.659333">
        <ele>837.588</ele>
        <time>2015-02-15T10:41:00Z</time>
      </trkpt>
      <trkpt lat="40.699576" lon="-3.659371">
        <ele>837.824</ele>
        <time>2015-02-15T10:41:02Z</time>
      </trkpt>
      <trkpt lat="40.699561" lon="-3.659405">
        <ele>838.026</ele>
        <time>2015-02-15T10:41:04Z</time>
      </trkpt>
      <trkpt lat="40.699542" lon="-3.659455">
        <ele>838.407</ele>
        <time>2015-02-15T10:41:07Z</time>
      </trkpt>
      <trkpt lat="40.699517" lon="-3.659503">
        <ele>838.936</ele>
        <time>2015-02-15T10:41:10Z</time>
      </trkpt>
      <trkpt lat="40.699493" lon="-3.659556">
        <ele>839.326</ele>
        <time>2015-02-15T10:41:13Z</time>
      </trkpt>
      <trkpt lat="40.699484" lon="-3.659593">
        <ele>839.665</ele>
        <time>2015-02-15T10:41:15Z</time>
      </trkpt>
      <trkpt lat="40.699457" lon="-3.659648">
        <ele>840.029</ele>
        <time>2015-02-15T10:41:18Z</time>
      </trkpt>
      <trkpt lat="40.699437" lon="-3.659702">
        <ele>840.498</ele>
        <time>2015-02-15T10:41:21Z</time>
      </trkpt>
      <trkpt lat="40.699413" lon="-3.659754">
        <ele>840.844</ele>
        <time>2015-02-15T10:41:24Z</time>
      </trkpt>
      <trkpt lat="40.699406" lon="-3.659775">
        <ele>841.085</ele>
        <time>2015-02-15T10:41:25Z</time>
      </trkpt>
      <trkpt lat="40.699397" lon="-3.659792">
        <ele>841.197</ele>
        <time>2015-02-15T10:41:26Z</time>
      </trkpt>
      <trkpt lat="40.699363" lon="-3.659845">
        <ele>841.623</ele>
        <time>2015-02-15T10:41:30Z</time>
      </trkpt>
      <trkpt lat="40.699352" lon="-3.659884">
        <ele>841.925</ele>
        <time>2015-02-15T10:41:32Z</time>
      </trkpt>
      <trkpt lat="40.699346" lon="-3.659903">
        <ele>841.907</ele>
        <time>2015-02-15T10:41:33Z</time>
      </trkpt>
      <trkpt lat="40.699340" lon="-3.659935">
        <ele>842.157</ele>
        <time>2015-02-15T10:41:35Z</time>
      </trkpt>
      <trkpt lat="40.699316" lon="-3.659973">
        <ele>842.327</ele>
        <time>2015-02-15T10:41:37Z</time>
      </trkpt>
      <trkpt lat="40.699302" lon="-3.660012">
        <ele>842.586</ele>
        <time>2015-02-15T10:41:39Z</time>
      </trkpt>
      <trkpt lat="40.699290" lon="-3.660041">
        <ele>842.740</ele>
        <time>2015-02-15T10:41:42Z</time>
      </trkpt>
      <trkpt lat="40.699287" lon="-3.660055">
        <ele>842.869</ele>
        <time>2015-02-15T10:41:43Z</time>
      </trkpt>
      <trkpt lat="40.699270" lon="-3.660103">
        <ele>843.225</ele>
        <time>2015-02-15T10:41:46Z</time>
      </trkpt>
      <trkpt lat="40.699249" lon="-3.660125">
        <ele>843.416</ele>
        <time>2015-02-15T10:41:48Z</time>
      </trkpt>
      <trkpt lat="40.699239" lon="-3.660137">
        <ele>843.576</ele>
        <time>2015-02-15T10:41:49Z</time>
      </trkpt>
      <trkpt lat="40.699222" lon="-3.660174">
        <ele>844.090</ele>
        <time>2015-02-15T10:41:52Z</time>
      </trkpt>
      <trkpt lat="40.699217" lon="-3.660193">
        <ele>844.119</ele>
        <time>2015-02-15T10:41:53Z</time>
      </trkpt>
      <trkpt lat="40.699212" lon="-3.660215">
        <ele>844.307</ele>
        <time>2015-02-15T10:41:54Z</time>
      </trkpt>
      <trkpt lat="40.699195" lon="-3.660250">
        <ele>844.675</ele>
        <time>2015-02-15T10:41:56Z</time>
      </trkpt>
      <trkpt lat="40.699186" lon="-3.660268">
        <ele>844.745</ele>
        <time>2015-02-15T10:41:57Z</time>
      </trkpt>
      <trkpt lat="40.699167" lon="-3.660301">
        <ele>844.914</ele>
        <time>2015-02-15T10:41:58Z</time>
      </trkpt>
      <trkpt lat="40.699132" lon="-3.660348">
        <ele>845.318</ele>
        <time>2015-02-15T10:42:01Z</time>
      </trkpt>
      <trkpt lat="40.699109" lon="-3.660405">
        <ele>845.897</ele>
        <time>2015-02-15T10:42:04Z</time>
      </trkpt>
      <trkpt lat="40.699073" lon="-3.660459">
        <ele>846.593</ele>
        <time>2015-02-15T10:42:08Z</time>
      </trkpt>
      <trkpt lat="40.699057" lon="-3.660505">
        <ele>847.014</ele>
        <time>2015-02-15T10:42:11Z</time>
      </trkpt>
      <trkpt lat="40.699046" lon="-3.660525">
        <ele>847.272</ele>
        <time>2015-02-15T10:42:12Z</time>
      </trkpt>
      <trkpt lat="40.699039" lon="-3.660542">
        <ele>847.313</ele>
        <time>2015-02-15T10:42:13Z</time>
      </trkpt>
      <trkpt lat="40.699018" lon="-3.660589">
        <ele>847.814</ele>
        <time>2015-02-15T10:42:16Z</time>
      </trkpt>
      <trkpt lat="40.698997" lon="-3.660647">
        <ele>848.307</ele>
        <time>2015-02-15T10:42:20Z</time>
      </trkpt>
      <trkpt lat="40.698976" lon="-3.660687">
        <ele>848.715</ele>
        <time>2015-02-15T10:42:23Z</time>
      </trkpt>
      <trkpt lat="40.698977" lon="-3.660708">
        <ele>849.125</ele>
        <time>2015-02-15T10:42:25Z</time>
      </trkpt>
      <trkpt lat="40.698976" lon="-3.660741">
        <ele>849.494</ele>
        <time>2015-02-15T10:42:27Z</time>
      </trkpt>
      <trkpt lat="40.698974" lon="-3.660759">
        <ele>849.578</ele>
        <time>2015-02-15T10:42:28Z</time>
      </trkpt>
      <trkpt lat="40.698953" lon="-3.660810">
        <ele>849.987</ele>
        <time>2015-02-15T10:42:31Z</time>
      </trkpt>
      <trkpt lat="40.698944" lon="-3.660824">
        <ele>850.013</ele>
        <time>2015-02-15T10:42:32Z</time>
      </trkpt>
      <trkpt lat="40.698935" lon="-3.660842">
        <ele>850.224</ele>
        <time>2015-02-15T10:42:33Z</time>
      </trkpt>
      <trkpt lat="40.698924" lon="-3.660859">
        <ele>850.436</ele>
        <time>2015-02-15T10:42:34Z</time>
      </trkpt>
      <trkpt lat="40.698911" lon="-3.660916">
        <ele>851.017</ele>
        <time>2015-02-15T10:42:37Z</time>
      </trkpt>
      <trkpt lat="40.698899" lon="-3.660950">
        <ele>851.318</ele>
        <time>2015-02-15T10:42:39Z</time>
      </trkpt>
      <trkpt lat="40.698892" lon="-3.660978">
        <ele>851.607</ele>
        <time>2015-02-15T10:42:41Z</time>
      </trkpt>
      <trkpt lat="40.698881" lon="-3.661011">
        <ele>851.931</ele>
        <time>2015-02-15T10:42:43Z</time>
      </trkpt>
      <trkpt lat="40.698863" lon="-3.661039">
        <ele>852.241</ele>
        <time>2015-02-15T10:42:45Z</time>
      </trkpt>
      <trkpt lat="40.698845" lon="-3.661071">
        <ele>852.590</ele>
        <time>2015-02-15T10:42:47Z</time>
      </trkpt>
      <trkpt lat="40.698827" lon="-3.661096">
        <ele>852.884</ele>
        <time>2015-02-15T10:42:49Z</time>
      </trkpt>
      <trkpt lat="40.698806" lon="-3.661146">
        <ele>853.223</ele>
        <time>2015-02-15T10:42:53Z</time>
      </trkpt>
      <trkpt lat="40.698798" lon="-3.661189">
        <ele>853.579</ele>
        <time>2015-02-15T10:42:54Z</time>
      </trkpt>
      <trkpt lat="40.698773" lon="-3.661237">
        <ele>853.910</ele>
        <time>2015-02-15T10:42:58Z</time>
      </trkpt>
      <trkpt lat="40.698758" lon="-3.661294">
        <ele>854.331</ele>
        <time>2015-02-15T10:43:01Z</time>
      </trkpt>
      <trkpt lat="40.698751" lon="-3.661310">
        <ele>854.461</ele>
        <time>2015-02-15T10:43:02Z</time>
      </trkpt>
      <trkpt lat="40.698725" lon="-3.661353">
        <ele>854.707</ele>
        <time>2015-02-15T10:43:05Z</time>
      </trkpt>
      <trkpt lat="40.698718" lon="-3.661364">
        <ele>854.907</ele>
        <time>2015-02-15T10:43:06Z</time>
      </trkpt>
      <trkpt lat="40.698694" lon="-3.661410">
        <ele>855.151</ele>
        <time>2015-02-15T10:43:09Z</time>
      </trkpt>
      <trkpt lat="40.698668" lon="-3.661461">
        <ele>855.481</ele>
        <time>2015-02-15T10:43:12Z</time>
      </trkpt>
      <trkpt lat="40.698618" lon="-3.661531">
        <ele>855.960</ele>
        <time>2015-02-15T10:43:16Z</time>
      </trkpt>
      <trkpt lat="40.698583" lon="-3.661607">
        <ele>856.214</ele>
        <time>2015-02-15T10:43:19Z</time>
      </trkpt>
      <trkpt lat="40.698562" lon="-3.661659">
        <ele>856.543</ele>
        <time>2015-02-15T10:43:22Z</time>
      </trkpt>
      <trkpt lat="40.698543" lon="-3.661715">
        <ele>856.889</ele>
        <time>2015-02-15T10:43:25Z</time>
      </trkpt>
      <trkpt lat="40.698519" lon="-3.661764">
        <ele>857.020</ele>
        <time>2015-02-15T10:43:28Z</time>
      </trkpt>
      <trkpt lat="40.698494" lon="-3.661817">
        <ele>857.332</ele>
        <time>2015-02-15T10:43:31Z</time>
      </trkpt>
      <trkpt lat="40.698474" lon="-3.661854">
        <ele>857.592</ele>
        <time>2015-02-15T10:43:34Z</time>
      </trkpt>
      <trkpt lat="40.698481" lon="-3.661842">
        <ele>857.611</ele>
        <time>2015-02-15T10:43:35Z</time>
      </trkpt>
      <trkpt lat="40.698484" lon="-3.661843">
        <ele>857.907</ele>
        <time>2015-02-15T10:43:38Z</time>
      </trkpt>
      <trkpt lat="40.698482" lon="-3.661842">
        <ele>858.231</ele>
        <time>2015-02-15T10:43:41Z</time>
      </trkpt>
      <trkpt lat="40.698482" lon="-3.661844">
        <ele>858.551</ele>
        <time>2015-02-15T10:43:44Z</time>
      </trkpt>
      <trkpt lat="40.698482" lon="-3.661843">
        <ele>858.810</ele>
        <time>2015-02-15T10:43:47Z</time>
      </trkpt>
      <trkpt lat="40.698481" lon="-3.661843">
        <ele>859.164</ele>
        <time>2015-02-15T10:43:50Z</time>
      </trkpt>
      <trkpt lat="40.698481" lon="-3.661843">
        <ele>859.243</ele>
        <time>2015-02-15T10:43:51Z</time>
      </trkpt>
      <trkpt lat="40.698481" lon="-3.661843">
        <ele>859.589</ele>
        <time>2015-02-15T10:43:54Z</time>
      </trkpt>
      <trkpt lat="40.698481" lon="-3.661843">
        <ele>859.840</ele>
        <time>2015-02-15T10:43:57Z</time>
      </trkpt>
      <trkpt lat="40.698482" lon="-3.661843">
        <ele>859.964</ele>
        <time>2015-02-15T10:44:00Z</time>
      </trkpt>
      <trkpt lat="40.698482" lon="-3.661843">
        <ele>860.206</ele>
        <time>2015-02-15T10:44:03Z</time>
      </trkpt>
      <trkpt lat="40.698482" lon="-3.661843">
        <ele>860.516</ele>
        <time>2015-02-15T10:44:06Z</time>
      </trkpt>
      <trkpt lat="40.698490" lon="-3.661852">
        <ele>860.807</ele>
        <time>2015-02-15T10:44:09Z</time>
      </trkpt>
      <trkpt lat="40.698484" lon="-3.661857">
        <ele>861.054</ele>
        <time>2015-02-15T10:44:12Z</time>
      </trkpt>
      <trkpt lat="40.698484" lon="-3.661857">
        <ele>861.164</ele>
        <time>2015-02-15T10:44:13Z</time>
      </trkpt>
      <trkpt lat="40.698467" lon="-3.661857">
        <ele>861.363</ele>
        <time>2015-02-15T10:44:17Z</time>
      </trkpt>
      <trkpt lat="40.698463" lon="-3.661855">
        <ele>861.447</ele>
        <time>2015-02-15T10:44:20Z</time>
      </trkpt>
      <trkpt lat="40.698455" lon="-3.661844">
        <ele>861.646</ele>
        <time>2015-02-15T10:44:23Z</time>
      </trkpt>
      <trkpt lat="40.698455" lon="-3.661847">
        <ele>861.762</ele>
        <time>2015-02-15T10:44:26Z</time>
      </trkpt>
      <trkpt lat="40.698447" lon="-3.661851">
        <ele>861.763</ele>
        <time>2015-02-15T10:44:27Z</time>
      </trkpt>
      <trkpt lat="40.698443" lon="-3.661854">
        <ele>861.816</ele>
        <time>2015-02-15T10:44:29Z</time>
      </trkpt>
      <trkpt lat="40.698446" lon="-3.661867">
        <ele>862.076</ele>
        <time>2015-02-15T10:44:32Z</time>
      </trkpt>
      <trkpt lat="40.698444" lon="-3.661873">
        <ele>862.013</ele>
        <time>2015-02-15T10:44:35Z</time>
      </trkpt>
      <trkpt lat="40.698444" lon="-3.661875">
        <ele>862.107</ele>
        <time>2015-02-15T10:44:38Z</time>
      </trkpt>
      <trkpt lat="40.698443" lon="-3.661876">
        <ele>862.119</ele>
        <time>2015-02-15T10:44:41Z</time>
      </trkpt>
      <trkpt lat="40.698443" lon="-3.661877">
        <ele>862.199</ele>
        <time>2015-02-15T10:44:45Z</time>
      </trkpt>
      <trkpt lat="40.698443" lon="-3.661877">
        <ele>862.268</ele>
        <time>2015-02-15T10:44:48Z</time>
      </trkpt>
      <trkpt lat="40.698445" lon="-3.661871">
        <ele>862.292</ele>
        <time>2015-02-15T10:44:51Z</time>
      </trkpt>
      <trkpt lat="40.698447" lon="-3.661869">
        <ele>862.291</ele>
        <time>2015-02-15T10:44:54Z</time>
      </trkpt>
      <trkpt lat="40.698448" lon="-3.661864">
        <ele>862.237</ele>
        <time>2015-02-15T10:44:58Z</time>
      </trkpt>
      <trkpt lat="40.698448" lon="-3.661866">
        <ele>862.398</ele>
        <time>2015-02-15T10:45:01Z</time>
      </trkpt>
      <trkpt lat="40.698442" lon="-3.661865">
        <ele>862.328</ele>
        <time>2015-02-15T10:45:03Z</time>
      </trkpt>
      <trkpt lat="40.698425" lon="-3.661862">
        <ele>862.389</ele>
        <time>2015-02-15T10:45:04Z</time>
      </trkpt>
      <trkpt lat="40.698387" lon="-3.661854">
        <ele>862.417</ele>
        <time>2015-02-15T10:45:06Z</time>
      </trkpt>
      <trkpt lat="40.698358" lon="-3.661849">
        <ele>862.407</ele>
        <time>2015-02-15T10:45:08Z</time>
      </trkpt>
      <trkpt lat="40.698320" lon="-3.661852">
        <ele>862.380</ele>
        <time>2015-02-15T10:45:11Z</time>
      </trkpt>
      <trkpt lat="40.698297" lon="-3.661839">
        <ele>862.370</ele>
        <time>2015-02-15T10:45:14Z</time>
      </trkpt>
      <trkpt lat="40.698297" lon="-3.661833">
        <ele>862.219</ele>
        <time>2015-02-15T10:45:17Z</time>
      </trkpt>
      <trkpt lat="40.698297" lon="-3.661832">
        <ele>862.233</ele>
        <time>2015-02-15T10:45:20Z</time>
      </trkpt>
      <trkpt lat="40.698297" lon="-3.661832">
        <ele>862.142</ele>
        <time>2015-02-15T10:45:23Z</time>
      </trkpt>
      <trkpt lat="40.698297" lon="-3.661832">
        <ele>861.938</ele>
        <time>2015-02-15T10:45:26Z</time>
      </trkpt>
      <trkpt lat="40.698297" lon="-3.661832">
        <ele>861.849</ele>
        <time>2015-02-15T10:45:29Z</time>
      </trkpt>
      <trkpt lat="40.698297" lon="-3.661832">
        <ele>861.649</ele>
        <time>2015-02-15T10:45:32Z</time>
      </trkpt>
      <trkpt lat="40.698297" lon="-3.661832">
        <ele>861.402</ele>
        <time>2015-02-15T10:45:35Z</time>
      </trkpt>
      <trkpt lat="40.698292" lon="-3.661818">
        <ele>861.222</ele>
        <time>2015-02-15T10:45:37Z</time>
      </trkpt>
      <trkpt lat="40.698284" lon="-3.661818">
        <ele>861.207</ele>
        <time>2015-02-15T10:45:39Z</time>
      </trkpt>
      <trkpt lat="40.698270" lon="-3.661815">
        <ele>861.162</ele>
        <time>2015-02-15T10:45:40Z</time>
      </trkpt>
      <trkpt lat="40.698254" lon="-3.661812">
        <ele>861.092</ele>
        <time>2015-02-15T10:45:41Z</time>
      </trkpt>
      <trkpt lat="40.698198" lon="-3.661803">
        <ele>860.821</ele>
        <time>2015-02-15T10:45:44Z</time>
      </trkpt>
      <trkpt lat="40.698138" lon="-3.661788">
        <ele>860.735</ele>
        <time>2015-02-15T10:45:47Z</time>
      </trkpt>
      <trkpt lat="40.698081" lon="-3.661773">
        <ele>860.584</ele>
        <time>2015-02-15T10:45:50Z</time>
      </trkpt>
      <trkpt lat="40.698057" lon="-3.661772">
        <ele>860.440</ele>
        <time>2015-02-15T10:45:51Z</time>
      </trkpt>
      <trkpt lat="40.698036" lon="-3.661775">
        <ele>860.491</ele>
        <time>2015-02-15T10:45:52Z</time>
      </trkpt>
      <trkpt lat="40.697989" lon="-3.661776">
        <ele>860.392</ele>
        <time>2015-02-15T10:45:54Z</time>
      </trkpt>
      <trkpt lat="40.697950" lon="-3.661782">
        <ele>860.273</ele>
        <time>2015-02-15T10:45:56Z</time>
      </trkpt>
      <trkpt lat="40.697903" lon="-3.661785">
        <ele>860.220</ele>
        <time>2015-02-15T10:45:57Z</time>
      </trkpt>
      <trkpt lat="40.697850" lon="-3.661801">
        <ele>860.007</ele>
        <time>2015-02-15T10:45:59Z</time>
      </trkpt>
      <trkpt lat="40.697771" lon="-3.661817">
        <ele>859.927</ele>
        <time>2015-02-15T10:46:02Z</time>
      </trkpt>
      <trkpt lat="40.697692" lon="-3.661827">
        <ele>859.787</ele>
        <time>2015-02-15T10:46:05Z</time>
      </trkpt>
      <trkpt lat="40.697622" lon="-3.661829">
        <ele>859.586</ele>
        <time>2015-02-15T10:46:08Z</time>
      </trkpt>
      <trkpt lat="40.697546" lon="-3.661823">
        <ele>859.390</ele>
        <time>2015-02-15T10:46:11Z</time>
      </trkpt>
      <trkpt lat="40.697519" lon="-3.661815">
        <ele>859.249</ele>
        <time>2015-02-15T10:46:12Z</time>
      </trkpt>
      <trkpt lat="40.697469" lon="-3.661796">
        <ele>859.285</ele>
        <time>2015-02-15T10:46:14Z</time>
      </trkpt>
      <trkpt lat="40.697445" lon="-3.661786">
        <ele>859.296</ele>
        <time>2015-02-15T10:46:15Z</time>
      </trkpt>
      <trkpt lat="40.697353" lon="-3.661747">
        <ele>859.145</ele>
        <time>2015-02-15T10:46:19Z</time>
      </trkpt>
      <trkpt lat="40.697310" lon="-3.661718">
        <ele>859.147</ele>
        <time>2015-02-15T10:46:21Z</time>
      </trkpt>
      <trkpt lat="40.697260" lon="-3.661691">
        <ele>859.111</ele>
        <time>2015-02-15T10:46:23Z</time>
      </trkpt>
      <trkpt lat="40.697216" lon="-3.661655">
        <ele>859.207</ele>
        <time>2015-02-15T10:46:25Z</time>
      </trkpt>
      <trkpt lat="40.697179" lon="-3.661617">
        <ele>859.392</ele>
        <time>2015-02-15T10:46:27Z</time>
      </trkpt>
      <trkpt lat="40.697117" lon="-3.661560">
        <ele>859.472</ele>
        <time>2015-02-15T10:46:30Z</time>
      </trkpt>
      <trkpt lat="40.697053" lon="-3.661504">
        <ele>859.551</ele>
        <time>2015-02-15T10:46:33Z</time>
      </trkpt>
      <trkpt lat="40.697035" lon="-3.661477">
        <ele>859.675</ele>
        <time>2015-02-15T10:46:34Z</time>
      </trkpt>
      <trkpt lat="40.697018" lon="-3.661450">
        <ele>859.674</ele>
        <time>2015-02-15T10:46:35Z</time>
      </trkpt>
      <trkpt lat="40.697003" lon="-3.661422">
        <ele>859.720</ele>
        <time>2015-02-15T10:46:36Z</time>
      </trkpt>
      <trkpt lat="40.696952" lon="-3.661337">
        <ele>859.831</ele>
        <time>2015-02-15T10:46:39Z</time>
      </trkpt>
      <trkpt lat="40.696908" lon="-3.661291">
        <ele>859.914</ele>
        <time>2015-02-15T10:46:41Z</time>
      </trkpt>
      <trkpt lat="40.696861" lon="-3.661245">
        <ele>860.054</ele>
        <time>2015-02-15T10:46:43Z</time>
      </trkpt>
      <trkpt lat="40.696787" lon="-3.661176">
        <ele>860.209</ele>
        <time>2015-02-15T10:46:47Z</time>
      </trkpt>
      <trkpt lat="40.696741" lon="-3.661120">
        <ele>860.307</ele>
        <time>2015-02-15T10:46:49Z</time>
      </trkpt>
      <trkpt lat="40.696681" lon="-3.661030">
        <ele>860.419</ele>
        <time>2015-02-15T10:46:52Z</time>
      </trkpt>
      <trkpt lat="40.696665" lon="-3.660993">
        <ele>860.579</ele>
        <time>2015-02-15T10:46:53Z</time>
      </trkpt>
      <trkpt lat="40.696615" lon="-3.660882">
        <ele>860.728</ele>
        <time>2015-02-15T10:46:56Z</time>
      </trkpt>
      <trkpt lat="40.696586" lon="-3.660813">
        <ele>860.982</ele>
        <time>2015-02-15T10:46:58Z</time>
      </trkpt>
      <trkpt lat="40.696547" lon="-3.660693">
        <ele>861.171</ele>
        <time>2015-02-15T10:47:01Z</time>
      </trkpt>
      <trkpt lat="40.696511" lon="-3.660576">
        <ele>861.337</ele>
        <time>2015-02-15T10:47:04Z</time>
      </trkpt>
      <trkpt lat="40.696470" lon="-3.660467">
        <ele>861.638</ele>
        <time>2015-02-15T10:47:07Z</time>
      </trkpt>
      <trkpt lat="40.696414" lon="-3.660356">
        <ele>861.871</ele>
        <time>2015-02-15T10:47:10Z</time>
      </trkpt>
      <trkpt lat="40.696395" lon="-3.660323">
        <ele>861.941</ele>
        <time>2015-02-15T10:47:11Z</time>
      </trkpt>
      <trkpt lat="40.696309" lon="-3.660208">
        <ele>862.315</ele>
        <time>2015-02-15T10:47:14Z</time>
      </trkpt>
      <trkpt lat="40.696289" lon="-3.660183">
        <ele>862.407</ele>
        <time>2015-02-15T10:47:15Z</time>
      </trkpt>
      <trkpt lat="40.696261" lon="-3.660124">
        <ele>862.555</ele>
        <time>2015-02-15T10:47:17Z</time>
      </trkpt>
      <trkpt lat="40.696246" lon="-3.660096">
        <ele>862.635</ele>
        <time>2015-02-15T10:47:18Z</time>
      </trkpt>
      <trkpt lat="40.696217" lon="-3.660047">
        <ele>862.834</ele>
        <time>2015-02-15T10:47:20Z</time>
      </trkpt>
      <trkpt lat="40.696191" lon="-3.659973">
        <ele>862.948</ele>
        <time>2015-02-15T10:47:22Z</time>
      </trkpt>
      <trkpt lat="40.696176" lon="-3.659933">
        <ele>863.057</ele>
        <time>2015-02-15T10:47:23Z</time>
      </trkpt>
      <trkpt lat="40.696159" lon="-3.659888">
        <ele>863.163</ele>
        <time>2015-02-15T10:47:24Z</time>
      </trkpt>
      <trkpt lat="40.696141" lon="-3.659834">
        <ele>863.294</ele>
        <time>2015-02-15T10:47:25Z</time>
      </trkpt>
      <trkpt lat="40.696122" lon="-3.659775">
        <ele>863.336</ele>
        <time>2015-02-15T10:47:26Z</time>
      </trkpt>
      <trkpt lat="40.696107" lon="-3.659709">
        <ele>863.317</ele>
        <time>2015-02-15T10:47:27Z</time>
      </trkpt>
      <trkpt lat="40.696074" lon="-3.659568">
        <ele>863.418</ele>
        <time>2015-02-15T10:47:29Z</time>
      </trkpt>
      <trkpt lat="40.696042" lon="-3.659420">
        <ele>863.507</ele>
        <time>2015-02-15T10:47:31Z</time>
      </trkpt>
      <trkpt lat="40.695991" lon="-3.659202">
        <ele>863.651</ele>
        <time>2015-02-15T10:47:34Z</time>
      </trkpt>
      <trkpt lat="40.695948" lon="-3.659069">
        <ele>863.771</ele>
        <time>2015-02-15T10:47:36Z</time>
      </trkpt>
      <trkpt lat="40.695920" lon="-3.659006">
        <ele>863.770</ele>
        <time>2015-02-15T10:47:37Z</time>
      </trkpt>
      <trkpt lat="40.695863" lon="-3.658890">
        <ele>863.744</ele>
        <time>2015-02-15T10:47:39Z</time>
      </trkpt>
      <trkpt lat="40.695805" lon="-3.658773">
        <ele>863.713</ele>
        <time>2015-02-15T10:47:41Z</time>
      </trkpt>
      <trkpt lat="40.695777" lon="-3.658716">
        <ele>863.719</ele>
        <time>2015-02-15T10:47:42Z</time>
      </trkpt>
      <trkpt lat="40.695730" lon="-3.658608">
        <ele>863.730</ele>
        <time>2015-02-15T10:47:44Z</time>
      </trkpt>
      <trkpt lat="40.695708" lon="-3.658544">
        <ele>863.746</ele>
        <time>2015-02-15T10:47:45Z</time>
      </trkpt>
      <trkpt lat="40.695663" lon="-3.658429">
        <ele>863.788</ele>
        <time>2015-02-15T10:47:47Z</time>
      </trkpt>
      <trkpt lat="40.695612" lon="-3.658327">
        <ele>863.716</ele>
        <time>2015-02-15T10:47:49Z</time>
      </trkpt>
      <trkpt lat="40.695551" lon="-3.658239">
        <ele>863.707</ele>
        <time>2015-02-15T10:47:51Z</time>
      </trkpt>
      <trkpt lat="40.695521" lon="-3.658201">
        <ele>863.632</ele>
        <time>2015-02-15T10:47:52Z</time>
      </trkpt>
      <trkpt lat="40.695472" lon="-3.658124">
        <ele>863.672</ele>
        <time>2015-02-15T10:47:54Z</time>
      </trkpt>
      <trkpt lat="40.695447" lon="-3.658082">
        <ele>863.661</ele>
        <time>2015-02-15T10:47:55Z</time>
      </trkpt>
      <trkpt lat="40.695372" lon="-3.657965">
        <ele>863.515</ele>
        <time>2015-02-15T10:47:58Z</time>
      </trkpt>
      <trkpt lat="40.695320" lon="-3.657896">
        <ele>863.474</ele>
        <time>2015-02-15T10:48:00Z</time>
      </trkpt>
      <trkpt lat="40.695294" lon="-3.657867">
        <ele>863.380</ele>
        <time>2015-02-15T10:48:01Z</time>
      </trkpt>
      <trkpt lat="40.695232" lon="-3.657803">
        <ele>863.321</ele>
        <time>2015-02-15T10:48:03Z</time>
      </trkpt>
      <trkpt lat="40.695210" lon="-3.657774">
        <ele>863.278</ele>
        <time>2015-02-15T10:48:04Z</time>
      </trkpt>
      <trkpt lat="40.695188" lon="-3.657742">
        <ele>863.233</ele>
        <time>2015-02-15T10:48:06Z</time>
      </trkpt>
      <trkpt lat="40.695112" lon="-3.657638">
        <ele>863.026</ele>
        <time>2015-02-15T10:48:09Z</time>
      </trkpt>
      <trkpt lat="40.695085" lon="-3.657607">
        <ele>863.007</ele>
        <time>2015-02-15T10:48:10Z</time>
      </trkpt>
      <trkpt lat="40.695009" lon="-3.657516">
        <ele>862.895</ele>
        <time>2015-02-15T10:48:13Z</time>
      </trkpt>
      <trkpt lat="40.694944" lon="-3.657464">
        <ele>862.685</ele>
        <time>2015-02-15T10:48:15Z</time>
      </trkpt>
      <trkpt lat="40.694872" lon="-3.657414">
        <ele>862.494</ele>
        <time>2015-02-15T10:48:17Z</time>
      </trkpt>
      <trkpt lat="40.694792" lon="-3.657354">
        <ele>862.258</ele>
        <time>2015-02-15T10:48:19Z</time>
      </trkpt>
      <trkpt lat="40.694667" lon="-3.657263">
        <ele>861.887</ele>
        <time>2015-02-15T10:48:22Z</time>
      </trkpt>
      <trkpt lat="40.694511" lon="-3.657128">
        <ele>861.433</ele>
        <time>2015-02-15T10:48:25Z</time>
      </trkpt>
      <trkpt lat="40.694422" lon="-3.657071">
        <ele>861.224</ele>
        <time>2015-02-15T10:48:27Z</time>
      </trkpt>
      <trkpt lat="40.694371" lon="-3.657057">
        <ele>861.122</ele>
        <time>2015-02-15T10:48:28Z</time>
      </trkpt>
      <trkpt lat="40.694320" lon="-3.657052">
        <ele>860.962</ele>
        <time>2015-02-15T10:48:29Z</time>
      </trkpt>
      <trkpt lat="40.694271" lon="-3.657055">
        <ele>860.808</ele>
        <time>2015-02-15T10:48:30Z</time>
      </trkpt>
      <trkpt lat="40.694107" lon="-3.657073">
        <ele>860.407</ele>
        <time>2015-02-15T10:48:33Z</time>
      </trkpt>
      <trkpt lat="40.693931" lon="-3.657108">
        <ele>859.990</ele>
        <time>2015-02-15T10:48:36Z</time>
      </trkpt>
      <trkpt lat="40.693807" lon="-3.657156">
        <ele>859.590</ele>
        <time>2015-02-15T10:48:38Z</time>
      </trkpt>
      <trkpt lat="40.693603" lon="-3.657258">
        <ele>858.989</ele>
        <time>2015-02-15T10:48:41Z</time>
      </trkpt>
      <trkpt lat="40.693480" lon="-3.657313">
        <ele>858.593</ele>
        <time>2015-02-15T10:48:43Z</time>
      </trkpt>
      <trkpt lat="40.693428" lon="-3.657353">
        <ele>858.342</ele>
        <time>2015-02-15T10:48:44Z</time>
      </trkpt>
      <trkpt lat="40.693366" lon="-3.657400">
        <ele>858.128</ele>
        <time>2015-02-15T10:48:45Z</time>
      </trkpt>
      <trkpt lat="40.693302" lon="-3.657450">
        <ele>857.979</ele>
        <time>2015-02-15T10:48:46Z</time>
      </trkpt>
      <trkpt lat="40.693241" lon="-3.657477">
        <ele>857.721</ele>
        <time>2015-02-15T10:48:47Z</time>
      </trkpt>
      <trkpt lat="40.693175" lon="-3.657499">
        <ele>857.541</ele>
        <time>2015-02-15T10:48:48Z</time>
      </trkpt>
      <trkpt lat="40.693096" lon="-3.657516">
        <ele>857.305</ele>
        <time>2015-02-15T10:48:49Z</time>
      </trkpt>
      <trkpt lat="40.693011" lon="-3.657529">
        <ele>857.107</ele>
        <time>2015-02-15T10:48:50Z</time>
      </trkpt>
      <trkpt lat="40.692851" lon="-3.657570">
        <ele>856.650</ele>
        <time>2015-02-15T10:48:52Z</time>
      </trkpt>
      <trkpt lat="40.692698" lon="-3.657592">
        <ele>856.140</ele>
        <time>2015-02-15T10:48:54Z</time>
      </trkpt>
      <trkpt lat="40.692620" lon="-3.657604">
        <ele>855.819</ele>
        <time>2015-02-15T10:48:55Z</time>
      </trkpt>
      <trkpt lat="40.692546" lon="-3.657617">
        <ele>855.543</ele>
        <time>2015-02-15T10:48:56Z</time>
      </trkpt>
      <trkpt lat="40.692476" lon="-3.657620">
        <ele>855.372</ele>
        <time>2015-02-15T10:48:57Z</time>
      </trkpt>
      <trkpt lat="40.692416" lon="-3.657622">
        <ele>855.078</ele>
        <time>2015-02-15T10:48:58Z</time>
      </trkpt>
      <trkpt lat="40.692360" lon="-3.657625">
        <ele>854.739</ele>
        <time>2015-02-15T10:48:59Z</time>
      </trkpt>
      <trkpt lat="40.692309" lon="-3.657632">
        <ele>854.491</ele>
        <time>2015-02-15T10:49:00Z</time>
      </trkpt>
      <trkpt lat="40.692224" lon="-3.657648">
        <ele>853.981</ele>
        <time>2015-02-15T10:49:02Z</time>
      </trkpt>
      <trkpt lat="40.692184" lon="-3.657669">
        <ele>853.619</ele>
        <time>2015-02-15T10:49:03Z</time>
      </trkpt>
      <trkpt lat="40.692146" lon="-3.657695">
        <ele>853.307</ele>
        <time>2015-02-15T10:49:04Z</time>
      </trkpt>
      <trkpt lat="40.692073" lon="-3.657753">
        <ele>852.747</ele>
        <time>2015-02-15T10:49:06Z</time>
      </trkpt>
      <trkpt lat="40.692033" lon="-3.657783">
        <ele>852.517</ele>
        <time>2015-02-15T10:49:07Z</time>
      </trkpt>
      <trkpt lat="40.691992" lon="-3.657814">
        <ele>852.266</ele>
        <time>2015-02-15T10:49:08Z</time>
      </trkpt>
      <trkpt lat="40.691943" lon="-3.657840">
        <ele>851.940</ele>
        <time>2015-02-15T10:49:09Z</time>
      </trkpt>
      <trkpt lat="40.691890" lon="-3.657863">
        <ele>851.629</ele>
        <time>2015-02-15T10:49:11Z</time>
      </trkpt>
      <trkpt lat="40.691831" lon="-3.657876">
        <ele>851.335</ele>
        <time>2015-02-15T10:49:11Z</time>
      </trkpt>
      <trkpt lat="40.691769" lon="-3.657893">
        <ele>851.026</ele>
        <time>2015-02-15T10:49:12Z</time>
      </trkpt>
      <trkpt lat="40.691708" lon="-3.657916">
        <ele>850.638</ele>
        <time>2015-02-15T10:49:13Z</time>
      </trkpt>
      <trkpt lat="40.691593" lon="-3.657972">
        <ele>850.070</ele>
        <time>2015-02-15T10:49:16Z</time>
      </trkpt>
      <trkpt lat="40.691537" lon="-3.658004">
        <ele>849.617</ele>
        <time>2015-02-15T10:49:16Z</time>
      </trkpt>
      <trkpt lat="40.691484" lon="-3.658040">
        <ele>849.307</ele>
        <time>2015-02-15T10:49:18Z</time>
      </trkpt>
      <trkpt lat="40.691423" lon="-3.658072">
        <ele>849.021</ele>
        <time>2015-02-15T10:49:19Z</time>
      </trkpt>
      <trkpt lat="40.691229" lon="-3.658171">
        <ele>847.981</ele>
        <time>2015-02-15T10:49:22Z</time>
      </trkpt>
      <trkpt lat="40.691099" lon="-3.658226">
        <ele>847.350</ele>
        <time>2015-02-15T10:49:24Z</time>
      </trkpt>
      <trkpt lat="40.690974" lon="-3.658282">
        <ele>846.584</ele>
        <time>2015-02-15T10:49:26Z</time>
      </trkpt>
      <trkpt lat="40.690914" lon="-3.658298">
        <ele>846.173</ele>
        <time>2015-02-15T10:49:27Z</time>
      </trkpt>
      <trkpt lat="40.690672" lon="-3.658368">
        <ele>844.569</ele>
        <time>2015-02-15T10:49:31Z</time>
      </trkpt>
      <trkpt lat="40.690554" lon="-3.658409">
        <ele>844.140</ele>
        <time>2015-02-15T10:49:32Z</time>
      </trkpt>
      <trkpt lat="40.690500" lon="-3.658430">
        <ele>843.769</ele>
        <time>2015-02-15T10:49:33Z</time>
      </trkpt>
      <trkpt lat="40.690448" lon="-3.658460">
        <ele>843.304</ele>
        <time>2015-02-15T10:49:34Z</time>
      </trkpt>
      <trkpt lat="40.690347" lon="-3.658513">
        <ele>842.524</ele>
        <time>2015-02-15T10:49:36Z</time>
      </trkpt>
      <trkpt lat="40.690290" lon="-3.658527">
        <ele>842.107</ele>
        <time>2015-02-15T10:49:37Z</time>
      </trkpt>
      <trkpt lat="40.690245" lon="-3.658541">
        <ele>841.874</ele>
        <time>2015-02-15T10:49:38Z</time>
      </trkpt>
      <trkpt lat="40.690210" lon="-3.658564">
        <ele>841.454</ele>
        <time>2015-02-15T10:49:39Z</time>
      </trkpt>
      <trkpt lat="40.690182" lon="-3.658594">
        <ele>841.033</ele>
        <time>2015-02-15T10:49:40Z</time>
      </trkpt>
      <trkpt lat="40.690158" lon="-3.658634">
        <ele>840.627</ele>
        <time>2015-02-15T10:49:41Z</time>
      </trkpt>
      <trkpt lat="40.690169" lon="-3.658662">
        <ele>840.376</ele>
        <time>2015-02-15T10:49:42Z</time>
      </trkpt>
      <trkpt lat="40.690184" lon="-3.658698">
        <ele>839.972</ele>
        <time>2015-02-15T10:49:43Z</time>
      </trkpt>
      <trkpt lat="40.690201" lon="-3.658720">
        <ele>839.613</ele>
        <time>2015-02-15T10:49:44Z</time>
      </trkpt>
      <trkpt lat="40.690227" lon="-3.658748">
        <ele>839.239</ele>
        <time>2015-02-15T10:49:45Z</time>
      </trkpt>
      <trkpt lat="40.690254" lon="-3.658776">
        <ele>838.901</ele>
        <time>2015-02-15T10:49:46Z</time>
      </trkpt>
      <trkpt lat="40.690269" lon="-3.658823">
        <ele>838.521</ele>
        <time>2015-02-15T10:49:47Z</time>
      </trkpt>
      <trkpt lat="40.690286" lon="-3.658865">
        <ele>838.107</ele>
        <time>2015-02-15T10:49:48Z</time>
      </trkpt>
      <trkpt lat="40.690287" lon="-3.658912">
        <ele>837.751</ele>
        <time>2015-02-15T10:49:49Z</time>
      </trkpt>
      <trkpt lat="40.690254" lon="-3.658939">
        <ele>837.331</ele>
        <time>2015-02-15T10:49:50Z</time>
      </trkpt>
      <trkpt lat="40.690216" lon="-3.658967">
        <ele>836.970</ele>
        <time>2015-02-15T10:49:51Z</time>
      </trkpt>
      <trkpt lat="40.690168" lon="-3.658981">
        <ele>836.564</ele>
        <time>2015-02-15T10:49:52Z</time>
      </trkpt>
      <trkpt lat="40.690055" lon="-3.659015">
        <ele>835.413</ele>
        <time>2015-02-15T10:49:54Z</time>
      </trkpt>
      <trkpt lat="40.689990" lon="-3.659036">
        <ele>835.079</ele>
        <time>2015-02-15T10:49:55Z</time>
      </trkpt>
      <trkpt lat="40.689936" lon="-3.659044">
        <ele>834.630</ele>
        <time>2015-02-15T10:49:56Z</time>
      </trkpt>
      <trkpt lat="40.689881" lon="-3.659057">
        <ele>834.238</ele>
        <time>2015-02-15T10:49:57Z</time>
      </trkpt>
      <trkpt lat="40.689793" lon="-3.659091">
        <ele>833.470</ele>
        <time>2015-02-15T10:49:59Z</time>
      </trkpt>
      <trkpt lat="40.689706" lon="-3.659097">
        <ele>832.517</ele>
        <time>2015-02-15T10:50:01Z</time>
      </trkpt>
      <trkpt lat="40.689661" lon="-3.659083">
        <ele>832.107</ele>
        <time>2015-02-15T10:50:02Z</time>
      </trkpt>
      <trkpt lat="40.689595" lon="-3.659049">
        <ele>831.271</ele>
        <time>2015-02-15T10:50:04Z</time>
      </trkpt>
      <trkpt lat="40.689555" lon="-3.659020">
        <ele>830.781</ele>
        <time>2015-02-15T10:50:05Z</time>
      </trkpt>
      <trkpt lat="40.689492" lon="-3.658960">
        <ele>829.730</ele>
        <time>2015-02-15T10:50:08Z</time>
      </trkpt>
      <trkpt lat="40.689421" lon="-3.658923">
        <ele>828.764</ele>
        <time>2015-02-15T10:50:10Z</time>
      </trkpt>
      <trkpt lat="40.689392" lon="-3.658930">
        <ele>828.283</ele>
        <time>2015-02-15T10:50:11Z</time>
      </trkpt>
      <trkpt lat="40.689372" lon="-3.658937">
        <ele>827.779</ele>
        <time>2015-02-15T10:50:12Z</time>
      </trkpt>
      <trkpt lat="40.689357" lon="-3.658961">
        <ele>827.230</ele>
        <time>2015-02-15T10:50:13Z</time>
      </trkpt>
      <trkpt lat="40.689353" lon="-3.658988">
        <ele>826.754</ele>
        <time>2015-02-15T10:50:14Z</time>
      </trkpt>
      <trkpt lat="40.689359" lon="-3.659019">
        <ele>826.256</ele>
        <time>2015-02-15T10:50:15Z</time>
      </trkpt>
      <trkpt lat="40.689377" lon="-3.659046">
        <ele>825.711</ele>
        <time>2015-02-15T10:50:16Z</time>
      </trkpt>
      <trkpt lat="40.689401" lon="-3.659073">
        <ele>825.207</ele>
        <time>2015-02-15T10:50:17Z</time>
      </trkpt>
      <trkpt lat="40.689425" lon="-3.659100">
        <ele>824.773</ele>
        <time>2015-02-15T10:50:18Z</time>
      </trkpt>
      <trkpt lat="40.689445" lon="-3.659136">
        <ele>824.273</ele>
        <time>2015-02-15T10:50:19Z</time>
      </trkpt>
      <trkpt lat="40.689464" lon="-3.659177">
        <ele>823.732</ele>
        <time>2015-02-15T10:50:20Z</time>
      </trkpt>
      <trkpt lat="40.689479" lon="-3.659222">
        <ele>823.596</ele>
        <time>2015-02-15T10:50:21Z</time>
      </trkpt>
      <trkpt lat="40.689491" lon="-3.659269">
        <ele>822.875</ele>
        <time>2015-02-15T10:50:22Z</time>
      </trkpt>
      <trkpt lat="40.689507" lon="-3.659372">
        <ele>821.831</ele>
        <time>2015-02-15T10:50:24Z</time>
      </trkpt>
      <trkpt lat="40.689510" lon="-3.659428">
        <ele>821.422</ele>
        <time>2015-02-15T10:50:25Z</time>
      </trkpt>
      <trkpt lat="40.689510" lon="-3.659542">
        <ele>820.816</ele>
        <time>2015-02-15T10:50:27Z</time>
      </trkpt>
      <trkpt lat="40.689496" lon="-3.659793">
        <ele>819.376</ele>
        <time>2015-02-15T10:50:30Z</time>
      </trkpt>
      <trkpt lat="40.689496" lon="-3.659860">
        <ele>818.913</ele>
        <time>2015-02-15T10:50:31Z</time>
      </trkpt>
      <trkpt lat="40.689508" lon="-3.659936">
        <ele>818.507</ele>
        <time>2015-02-15T10:50:32Z</time>
      </trkpt>
      <trkpt lat="40.689526" lon="-3.660015">
        <ele>818.229</ele>
        <time>2015-02-15T10:50:33Z</time>
      </trkpt>
      <trkpt lat="40.689535" lon="-3.660088">
        <ele>817.839</ele>
        <time>2015-02-15T10:50:34Z</time>
      </trkpt>
      <trkpt lat="40.689545" lon="-3.660224">
        <ele>817.128</ele>
        <time>2015-02-15T10:50:36Z</time>
      </trkpt>
      <trkpt lat="40.689545" lon="-3.660288">
        <ele>816.982</ele>
        <time>2015-02-15T10:50:37Z</time>
      </trkpt>
      <trkpt lat="40.689548" lon="-3.660343">
        <ele>816.341</ele>
        <time>2015-02-15T10:50:38Z</time>
      </trkpt>
      <trkpt lat="40.689561" lon="-3.660384">
        <ele>816.057</ele>
        <time>2015-02-15T10:50:39Z</time>
      </trkpt>
      <trkpt lat="40.689570" lon="-3.660427">
        <ele>815.748</ele>
        <time>2015-02-15T10:50:40Z</time>
      </trkpt>
      <trkpt lat="40.689566" lon="-3.660472">
        <ele>815.567</ele>
        <time>2015-02-15T10:50:41Z</time>
      </trkpt>
      <trkpt lat="40.689567" lon="-3.660515">
        <ele>815.281</ele>
        <time>2015-02-15T10:50:42Z</time>
      </trkpt>
      <trkpt lat="40.689569" lon="-3.660551">
        <ele>814.919</ele>
        <time>2015-02-15T10:50:43Z</time>
      </trkpt>
      <trkpt lat="40.689572" lon="-3.660585">
        <ele>814.507</ele>
        <time>2015-02-15T10:50:44Z</time>
      </trkpt>
      <trkpt lat="40.689576" lon="-3.660671">
        <ele>813.584</ele>
        <time>2015-02-15T10:50:47Z</time>
      </trkpt>
      <trkpt lat="40.689583" lon="-3.660717">
        <ele>813.284</ele>
        <time>2015-02-15T10:50:48Z</time>
      </trkpt>
      <trkpt lat="40.689603" lon="-3.660822">
        <ele>812.353</ele>
        <time>2015-02-15T10:50:51Z</time>
      </trkpt>
      <trkpt lat="40.689629" lon="-3.660887">
        <ele>811.887</ele>
        <time>2015-02-15T10:50:53Z</time>
      </trkpt>
      <trkpt lat="40.689650" lon="-3.660916">
        <ele>811.566</ele>
        <time>2015-02-15T10:50:54Z</time>
      </trkpt>
      <trkpt lat="40.689673" lon="-3.660946">
        <ele>811.342</ele>
        <time>2015-02-15T10:50:55Z</time>
      </trkpt>
      <trkpt lat="40.689740" lon="-3.661043">
        <ele>810.553</ele>
        <time>2015-02-15T10:50:58Z</time>
      </trkpt>
      <trkpt lat="40.689781" lon="-3.661117">
        <ele>810.043</ele>
        <time>2015-02-15T10:51:00Z</time>
      </trkpt>
      <trkpt lat="40.689816" lon="-3.661195">
        <ele>809.664</ele>
        <time>2015-02-15T10:51:02Z</time>
      </trkpt>
      <trkpt lat="40.689834" lon="-3.661234">
        <ele>809.310</ele>
        <time>2015-02-15T10:51:03Z</time>
      </trkpt>
      <trkpt lat="40.689878" lon="-3.661373">
        <ele>808.807</ele>
        <time>2015-02-15T10:51:06Z</time>
      </trkpt>
      <trkpt lat="40.689897" lon="-3.661475">
        <ele>808.472</ele>
        <time>2015-02-15T10:51:08Z</time>
      </trkpt>
      <trkpt lat="40.689910" lon="-3.661580">
        <ele>808.042</ele>
        <time>2015-02-15T10:51:10Z</time>
      </trkpt>
      <trkpt lat="40.689907" lon="-3.661636">
        <ele>807.951</ele>
        <time>2015-02-15T10:51:11Z</time>
      </trkpt>
      <trkpt lat="40.689909" lon="-3.661795">
        <ele>807.655</ele>
        <time>2015-02-15T10:51:14Z</time>
      </trkpt>
      <trkpt lat="40.689901" lon="-3.661896">
        <ele>807.434</ele>
        <time>2015-02-15T10:51:16Z</time>
      </trkpt>
      <trkpt lat="40.689875" lon="-3.662016">
        <ele>807.360</ele>
        <time>2015-02-15T10:51:18Z</time>
      </trkpt>
      <trkpt lat="40.689826" lon="-3.662181">
        <ele>807.011</ele>
        <time>2015-02-15T10:51:21Z</time>
      </trkpt>
      <trkpt lat="40.689789" lon="-3.662281">
        <ele>806.855</ele>
        <time>2015-02-15T10:51:23Z</time>
      </trkpt>
      <trkpt lat="40.689757" lon="-3.662325">
        <ele>806.707</ele>
        <time>2015-02-15T10:51:24Z</time>
      </trkpt>
      <trkpt lat="40.689710" lon="-3.662409">
        <ele>806.517</ele>
        <time>2015-02-15T10:51:26Z</time>
      </trkpt>
      <trkpt lat="40.689646" lon="-3.662486">
        <ele>806.307</ele>
        <time>2015-02-15T10:51:29Z</time>
      </trkpt>
      <trkpt lat="40.689551" lon="-3.662592">
        <ele>806.093</ele>
        <time>2015-02-15T10:51:32Z</time>
      </trkpt>
      <trkpt lat="40.689485" lon="-3.662649">
        <ele>805.963</ele>
        <time>2015-02-15T10:51:34Z</time>
      </trkpt>
      <trkpt lat="40.689416" lon="-3.662700">
        <ele>805.742</ele>
        <time>2015-02-15T10:51:36Z</time>
      </trkpt>
      <trkpt lat="40.689343" lon="-3.662728">
        <ele>805.626</ele>
        <time>2015-02-15T10:51:38Z</time>
      </trkpt>
      <trkpt lat="40.689304" lon="-3.662730">
        <ele>805.695</ele>
        <time>2015-02-15T10:51:39Z</time>
      </trkpt>
      <trkpt lat="40.689166" lon="-3.662733">
        <ele>805.571</ele>
        <time>2015-02-15T10:51:42Z</time>
      </trkpt>
      <trkpt lat="40.689075" lon="-3.662733">
        <ele>805.442</ele>
        <time>2015-02-15T10:51:45Z</time>
      </trkpt>
      <trkpt lat="40.688995" lon="-3.662742">
        <ele>805.396</ele>
        <time>2015-02-15T10:51:48Z</time>
      </trkpt>
      <trkpt lat="40.688946" lon="-3.662758">
        <ele>805.231</ele>
        <time>2015-02-15T10:51:50Z</time>
      </trkpt>
      <trkpt lat="40.688914" lon="-3.662764">
        <ele>805.224</ele>
        <time>2015-02-15T10:51:51Z</time>
      </trkpt>
      <trkpt lat="40.688847" lon="-3.662779">
        <ele>805.107</ele>
        <time>2015-02-15T10:51:53Z</time>
      </trkpt>
      <trkpt lat="40.688773" lon="-3.662801">
        <ele>805.037</ele>
        <time>2015-02-15T10:51:55Z</time>
      </trkpt>
      <trkpt lat="40.688690" lon="-3.662817">
        <ele>804.947</ele>
        <time>2015-02-15T10:51:57Z</time>
      </trkpt>
      <trkpt lat="40.688647" lon="-3.662818">
        <ele>804.916</ele>
        <time>2015-02-15T10:51:58Z</time>
      </trkpt>
      <trkpt lat="40.688515" lon="-3.662820">
        <ele>804.770</ele>
        <time>2015-02-15T10:52:01Z</time>
      </trkpt>
      <trkpt lat="40.688467" lon="-3.662814">
        <ele>804.759</ele>
        <time>2015-02-15T10:52:02Z</time>
      </trkpt>
      <trkpt lat="40.688418" lon="-3.662812">
        <ele>804.765</ele>
        <time>2015-02-15T10:52:03Z</time>
      </trkpt>
      <trkpt lat="40.688370" lon="-3.662809">
        <ele>804.696</ele>
        <time>2015-02-15T10:52:04Z</time>
      </trkpt>
      <trkpt lat="40.688327" lon="-3.662807">
        <ele>804.683</ele>
        <time>2015-02-15T10:52:05Z</time>
      </trkpt>
      <trkpt lat="40.688248" lon="-3.662796">
        <ele>804.625</ele>
        <time>2015-02-15T10:52:07Z</time>
      </trkpt>
      <trkpt lat="40.688091" lon="-3.662770">
        <ele>804.517</ele>
        <time>2015-02-15T10:52:11Z</time>
      </trkpt>
      <trkpt lat="40.688010" lon="-3.662764">
        <ele>804.407</ele>
        <time>2015-02-15T10:52:13Z</time>
      </trkpt>
      <trkpt lat="40.687969" lon="-3.662768">
        <ele>804.376</ele>
        <time>2015-02-15T10:52:14Z</time>
      </trkpt>
      <trkpt lat="40.687897" lon="-3.662785">
        <ele>804.226</ele>
        <time>2015-02-15T10:52:16Z</time>
      </trkpt>
      <trkpt lat="40.687866" lon="-3.662810">
        <ele>804.225</ele>
        <time>2015-02-15T10:52:17Z</time>
      </trkpt>
      <trkpt lat="40.687835" lon="-3.662832">
        <ele>804.149</ele>
        <time>2015-02-15T10:52:18Z</time>
      </trkpt>
      <trkpt lat="40.687810" lon="-3.662866">
        <ele>804.078</ele>
        <time>2015-02-15T10:52:19Z</time>
      </trkpt>
      <trkpt lat="40.687783" lon="-3.662904">
        <ele>804.024</ele>
        <time>2015-02-15T10:52:20Z</time>
      </trkpt>
      <trkpt lat="40.687763" lon="-3.662947">
        <ele>804.095</ele>
        <time>2015-02-15T10:52:21Z</time>
      </trkpt>
      <trkpt lat="40.687748" lon="-3.662991">
        <ele>803.957</ele>
        <time>2015-02-15T10:52:22Z</time>
      </trkpt>
      <trkpt lat="40.687744" lon="-3.663035">
        <ele>803.900</ele>
        <time>2015-02-15T10:52:23Z</time>
      </trkpt>
      <trkpt lat="40.687739" lon="-3.663083">
        <ele>803.920</ele>
        <time>2015-02-15T10:52:24Z</time>
      </trkpt>
      <trkpt lat="40.687710" lon="-3.663263">
        <ele>804.007</ele>
        <time>2015-02-15T10:52:29Z</time>
      </trkpt>
      <trkpt lat="40.687670" lon="-3.663387">
        <ele>804.093</ele>
        <time>2015-02-15T10:52:31Z</time>
      </trkpt>
      <trkpt lat="40.687623" lon="-3.663500">
        <ele>804.143</ele>
        <time>2015-02-15T10:52:35Z</time>
      </trkpt>
      <trkpt lat="40.687584" lon="-3.663555">
        <ele>804.092</ele>
        <time>2015-02-15T10:52:37Z</time>
      </trkpt>
      <trkpt lat="40.687517" lon="-3.663650">
        <ele>804.056</ele>
        <time>2015-02-15T10:52:40Z</time>
      </trkpt>
      <trkpt lat="40.687433" lon="-3.663709">
        <ele>803.915</ele>
        <time>2015-02-15T10:52:43Z</time>
      </trkpt>
      <trkpt lat="40.687407" lon="-3.663726">
        <ele>803.911</ele>
        <time>2015-02-15T10:52:44Z</time>
      </trkpt>
      <trkpt lat="40.687372" lon="-3.663744">
        <ele>803.812</ele>
        <time>2015-02-15T10:52:45Z</time>
      </trkpt>
      <trkpt lat="40.687336" lon="-3.663749">
        <ele>803.836</ele>
        <time>2015-02-15T10:52:46Z</time>
      </trkpt>
      <trkpt lat="40.687302" lon="-3.663756">
        <ele>803.817</ele>
        <time>2015-02-15T10:52:47Z</time>
      </trkpt>
      <trkpt lat="40.687234" lon="-3.663759">
        <ele>803.818</ele>
        <time>2015-02-15T10:52:49Z</time>
      </trkpt>
      <trkpt lat="40.687167" lon="-3.663742">
        <ele>803.807</ele>
        <time>2015-02-15T10:52:51Z</time>
      </trkpt>
      <trkpt lat="40.687135" lon="-3.663731">
        <ele>803.861</ele>
        <time>2015-02-15T10:52:52Z</time>
      </trkpt>
      <trkpt lat="40.687064" lon="-3.663708">
        <ele>803.891</ele>
        <time>2015-02-15T10:52:54Z</time>
      </trkpt>
      <trkpt lat="40.687001" lon="-3.663682">
        <ele>803.820</ele>
        <time>2015-02-15T10:52:55Z</time>
      </trkpt>
      <trkpt lat="40.686910" lon="-3.663651">
        <ele>803.854</ele>
        <time>2015-02-15T10:52:58Z</time>
      </trkpt>
      <trkpt lat="40.686812" lon="-3.663605">
        <ele>804.063</ele>
        <time>2015-02-15T10:53:01Z</time>
      </trkpt>
      <trkpt lat="40.686750" lon="-3.663583">
        <ele>804.129</ele>
        <time>2015-02-15T10:53:03Z</time>
      </trkpt>
      <trkpt lat="40.686650" lon="-3.663540">
        <ele>804.230</ele>
        <time>2015-02-15T10:53:06Z</time>
      </trkpt>
      <trkpt lat="40.686615" lon="-3.663530">
        <ele>804.311</ele>
        <time>2015-02-15T10:53:07Z</time>
      </trkpt>
      <trkpt lat="40.686521" lon="-3.663500">
        <ele>804.621</ele>
        <time>2015-02-15T10:53:10Z</time>
      </trkpt>
      <trkpt lat="40.686419" lon="-3.663464">
        <ele>804.903</ele>
        <time>2015-02-15T10:53:13Z</time>
      </trkpt>
      <trkpt lat="40.686348" lon="-3.663458">
        <ele>805.107</ele>
        <time>2015-02-15T10:53:15Z</time>
      </trkpt>
      <trkpt lat="40.686248" lon="-3.663461">
        <ele>805.499</ele>
        <time>2015-02-15T10:53:18Z</time>
      </trkpt>
      <trkpt lat="40.686139" lon="-3.663483">
        <ele>805.959</ele>
        <time>2015-02-15T10:53:21Z</time>
      </trkpt>
      <trkpt lat="40.686074" lon="-3.663508">
        <ele>806.118</ele>
        <time>2015-02-15T10:53:23Z</time>
      </trkpt>
      <trkpt lat="40.685999" lon="-3.663536">
        <ele>806.352</ele>
        <time>2015-02-15T10:53:25Z</time>
      </trkpt>
      <trkpt lat="40.685888" lon="-3.663595">
        <ele>806.771</ele>
        <time>2015-02-15T10:53:28Z</time>
      </trkpt>
      <trkpt lat="40.685791" lon="-3.663657">
        <ele>807.127</ele>
        <time>2015-02-15T10:53:31Z</time>
      </trkpt>
      <trkpt lat="40.685733" lon="-3.663703">
        <ele>807.368</ele>
        <time>2015-02-15T10:53:33Z</time>
      </trkpt>
      <trkpt lat="40.685649" lon="-3.663777">
        <ele>807.654</ele>
        <time>2015-02-15T10:53:36Z</time>
      </trkpt>
      <trkpt lat="40.685608" lon="-3.663782">
        <ele>807.756</ele>
        <time>2015-02-15T10:53:37Z</time>
      </trkpt>
      <trkpt lat="40.685570" lon="-3.663802">
        <ele>807.911</ele>
        <time>2015-02-15T10:53:38Z</time>
      </trkpt>
      <trkpt lat="40.685510" lon="-3.663793">
        <ele>808.207</ele>
        <time>2015-02-15T10:53:41Z</time>
      </trkpt>
      <trkpt lat="40.685457" lon="-3.663778">
        <ele>808.393</ele>
        <time>2015-02-15T10:53:42Z</time>
      </trkpt>
      <trkpt lat="40.685362" lon="-3.663734">
        <ele>808.753</ele>
        <time>2015-02-15T10:53:45Z</time>
      </trkpt>
      <trkpt lat="40.685269" lon="-3.663705">
        <ele>809.022</ele>
        <time>2015-02-15T10:53:48Z</time>
      </trkpt>
      <trkpt lat="40.685234" lon="-3.663706">
        <ele>809.136</ele>
        <time>2015-02-15T10:53:49Z</time>
      </trkpt>
      <trkpt lat="40.685200" lon="-3.663700">
        <ele>809.245</ele>
        <time>2015-02-15T10:53:50Z</time>
      </trkpt>
      <trkpt lat="40.685168" lon="-3.663687">
        <ele>809.381</ele>
        <time>2015-02-15T10:53:51Z</time>
      </trkpt>
      <trkpt lat="40.685096" lon="-3.663678">
        <ele>809.592</ele>
        <time>2015-02-15T10:53:53Z</time>
      </trkpt>
      <trkpt lat="40.685062" lon="-3.663693">
        <ele>809.554</ele>
        <time>2015-02-15T10:53:54Z</time>
      </trkpt>
      <trkpt lat="40.685029" lon="-3.663715">
        <ele>809.656</ele>
        <time>2015-02-15T10:53:55Z</time>
      </trkpt>
      <trkpt lat="40.685003" lon="-3.663741">
        <ele>809.711</ele>
        <time>2015-02-15T10:53:56Z</time>
      </trkpt>
      <trkpt lat="40.684976" lon="-3.663787">
        <ele>809.807</ele>
        <time>2015-02-15T10:53:57Z</time>
      </trkpt>
      <trkpt lat="40.684950" lon="-3.663824">
        <ele>809.893</ele>
        <time>2015-02-15T10:53:58Z</time>
      </trkpt>
      <trkpt lat="40.684922" lon="-3.663851">
        <ele>809.913</ele>
        <time>2015-02-15T10:53:59Z</time>
      </trkpt>
      <trkpt lat="40.684851" lon="-3.663920">
        <ele>810.052</ele>
        <time>2015-02-15T10:54:02Z</time>
      </trkpt>
      <trkpt lat="40.684824" lon="-3.663925">
        <ele>810.136</ele>
        <time>2015-02-15T10:54:03Z</time>
      </trkpt>
      <trkpt lat="40.684793" lon="-3.663932">
        <ele>810.125</ele>
        <time>2015-02-15T10:54:04Z</time>
      </trkpt>
      <trkpt lat="40.684770" lon="-3.663938">
        <ele>810.181</ele>
        <time>2015-02-15T10:54:05Z</time>
      </trkpt>
      <trkpt lat="40.684714" lon="-3.663926">
        <ele>810.212</ele>
        <time>2015-02-15T10:54:07Z</time>
      </trkpt>
      <trkpt lat="40.684687" lon="-3.663923">
        <ele>810.265</ele>
        <time>2015-02-15T10:54:08Z</time>
      </trkpt>
      <trkpt lat="40.684627" lon="-3.663938">
        <ele>810.268</ele>
        <time>2015-02-15T10:54:10Z</time>
      </trkpt>
      <trkpt lat="40.684594" lon="-3.663946">
        <ele>810.314</ele>
        <time>2015-02-15T10:54:11Z</time>
      </trkpt>
      <trkpt lat="40.684508" lon="-3.663987">
        <ele>810.307</ele>
        <time>2015-02-15T10:54:14Z</time>
      </trkpt>
      <trkpt lat="40.684459" lon="-3.664027">
        <ele>810.344</ele>
        <time>2015-02-15T10:54:16Z</time>
      </trkpt>
      <trkpt lat="40.684387" lon="-3.664088">
        <ele>810.474</ele>
        <time>2015-02-15T10:54:19Z</time>
      </trkpt>
      <trkpt lat="40.684364" lon="-3.664106">
        <ele>810.483</ele>
        <time>2015-02-15T10:54:20Z</time>
      </trkpt>
      <trkpt lat="40.684317" lon="-3.664134">
        <ele>810.617</ele>
        <time>2015-02-15T10:54:22Z</time>
      </trkpt>
      <trkpt lat="40.684242" lon="-3.664173">
        <ele>810.786</ele>
        <time>2015-02-15T10:54:25Z</time>
      </trkpt>
      <trkpt lat="40.684180" lon="-3.664180">
        <ele>810.892</ele>
        <time>2015-02-15T10:54:27Z</time>
      </trkpt>
      <trkpt lat="40.684149" lon="-3.664187">
        <ele>810.973</ele>
        <time>2015-02-15T10:54:28Z</time>
      </trkpt>
      <trkpt lat="40.684123" lon="-3.664190">
        <ele>810.949</ele>
        <time>2015-02-15T10:54:29Z</time>
      </trkpt>
      <trkpt lat="40.684069" lon="-3.664185">
        <ele>811.002</ele>
        <time>2015-02-15T10:54:31Z</time>
      </trkpt>
      <trkpt lat="40.684015" lon="-3.664172">
        <ele>811.122</ele>
        <time>2015-02-15T10:54:33Z</time>
      </trkpt>
      <trkpt lat="40.683936" lon="-3.664151">
        <ele>811.307</ele>
        <time>2015-02-15T10:54:36Z</time>
      </trkpt>
      <trkpt lat="40.683883" lon="-3.664124">
        <ele>811.442</ele>
        <time>2015-02-15T10:54:39Z</time>
      </trkpt>
      <trkpt lat="40.683858" lon="-3.664106">
        <ele>811.512</ele>
        <time>2015-02-15T10:54:39Z</time>
      </trkpt>
      <trkpt lat="40.683830" lon="-3.664095">
        <ele>811.591</ele>
        <time>2015-02-15T10:54:40Z</time>
      </trkpt>
      <trkpt lat="40.683781" lon="-3.664066">
        <ele>811.695</ele>
        <time>2015-02-15T10:54:42Z</time>
      </trkpt>
      <trkpt lat="40.683763" lon="-3.664039">
        <ele>811.754</ele>
        <time>2015-02-15T10:54:43Z</time>
      </trkpt>
      <trkpt lat="40.683742" lon="-3.664017">
        <ele>811.890</ele>
        <time>2015-02-15T10:54:45Z</time>
      </trkpt>
      <trkpt lat="40.683683" lon="-3.663971">
        <ele>812.191</ele>
        <time>2015-02-15T10:54:48Z</time>
      </trkpt>
      <trkpt lat="40.683661" lon="-3.663960">
        <ele>812.262</ele>
        <time>2015-02-15T10:54:49Z</time>
      </trkpt>
      <trkpt lat="40.683600" lon="-3.663936">
        <ele>812.483</ele>
        <time>2015-02-15T10:54:52Z</time>
      </trkpt>
      <trkpt lat="40.683550" lon="-3.663931">
        <ele>812.711</ele>
        <time>2015-02-15T10:54:54Z</time>
      </trkpt>
      <trkpt lat="40.683522" lon="-3.663928">
        <ele>812.807</ele>
        <time>2015-02-15T10:54:55Z</time>
      </trkpt>
      <trkpt lat="40.683495" lon="-3.663931">
        <ele>812.914</ele>
        <time>2015-02-15T10:54:56Z</time>
      </trkpt>
      <trkpt lat="40.683467" lon="-3.663932">
        <ele>813.074</ele>
        <time>2015-02-15T10:54:57Z</time>
      </trkpt>
      <trkpt lat="40.683374" lon="-3.663924">
        <ele>813.233</ele>
        <time>2015-02-15T10:55:00Z</time>
      </trkpt>
      <trkpt lat="40.683313" lon="-3.663878">
        <ele>813.367</ele>
        <time>2015-02-15T10:55:01Z</time>
      </trkpt>
      <trkpt lat="40.683281" lon="-3.663859">
        <ele>813.496</ele>
        <time>2015-02-15T10:55:02Z</time>
      </trkpt>
      <trkpt lat="40.683245" lon="-3.663838">
        <ele>813.432</ele>
        <time>2015-02-15T10:55:03Z</time>
      </trkpt>
      <trkpt lat="40.683172" lon="-3.663769">
        <ele>813.563</ele>
        <time>2015-02-15T10:55:05Z</time>
      </trkpt>
      <trkpt lat="40.683139" lon="-3.663721">
        <ele>813.627</ele>
        <time>2015-02-15T10:55:06Z</time>
      </trkpt>
      <trkpt lat="40.683111" lon="-3.663673">
        <ele>813.668</ele>
        <time>2015-02-15T10:55:07Z</time>
      </trkpt>
      <trkpt lat="40.683054" lon="-3.663576">
        <ele>813.714</ele>
        <time>2015-02-15T10:55:09Z</time>
      </trkpt>
      <trkpt lat="40.683017" lon="-3.663532">
        <ele>813.707</ele>
        <time>2015-02-15T10:55:10Z</time>
      </trkpt>
      <trkpt lat="40.682945" lon="-3.663445">
        <ele>813.750</ele>
        <time>2015-02-15T10:55:12Z</time>
      </trkpt>
      <trkpt lat="40.682857" lon="-3.663357">
        <ele>813.770</ele>
        <time>2015-02-15T10:55:14Z</time>
      </trkpt>
      <trkpt lat="40.682776" lon="-3.663257">
        <ele>813.659</ele>
        <time>2015-02-15T10:55:16Z</time>
      </trkpt>
      <trkpt lat="40.682732" lon="-3.663227">
        <ele>813.513</ele>
        <time>2015-02-15T10:55:17Z</time>
      </trkpt>
      <trkpt lat="40.682634" lon="-3.663162">
        <ele>813.332</ele>
        <time>2015-02-15T10:55:19Z</time>
      </trkpt>
      <trkpt lat="40.682574" lon="-3.663124">
        <ele>813.138</ele>
        <time>2015-02-15T10:55:20Z</time>
      </trkpt>
      <trkpt lat="40.682507" lon="-3.663084">
        <ele>813.029</ele>
        <time>2015-02-15T10:55:21Z</time>
      </trkpt>
      <trkpt lat="40.682374" lon="-3.663007">
        <ele>812.623</ele>
        <time>2015-02-15T10:55:23Z</time>
      </trkpt>
      <trkpt lat="40.682236" lon="-3.662919">
        <ele>812.183</ele>
        <time>2015-02-15T10:55:25Z</time>
      </trkpt>
      <trkpt lat="40.682092" lon="-3.662844">
        <ele>811.511</ele>
        <time>2015-02-15T10:55:27Z</time>
      </trkpt>
      <trkpt lat="40.681956" lon="-3.662764">
        <ele>811.007</ele>
        <time>2015-02-15T10:55:29Z</time>
      </trkpt>
      <trkpt lat="40.681891" lon="-3.662713">
        <ele>810.760</ele>
        <time>2015-02-15T10:55:30Z</time>
      </trkpt>
      <trkpt lat="40.681824" lon="-3.662663">
        <ele>810.440</ele>
        <time>2015-02-15T10:55:31Z</time>
      </trkpt>
      <trkpt lat="40.681763" lon="-3.662605">
        <ele>810.039</ele>
        <time>2015-02-15T10:55:32Z</time>
      </trkpt>
      <trkpt lat="40.681699" lon="-3.662572">
        <ele>809.753</ele>
        <time>2015-02-15T10:55:33Z</time>
      </trkpt>
      <trkpt lat="40.681647" lon="-3.662533">
        <ele>809.472</ele>
        <time>2015-02-15T10:55:34Z</time>
      </trkpt>
      <trkpt lat="40.681558" lon="-3.662459">
        <ele>808.748</ele>
        <time>2015-02-15T10:55:36Z</time>
      </trkpt>
      <trkpt lat="40.681533" lon="-3.662434">
        <ele>808.359</ele>
        <time>2015-02-15T10:55:37Z</time>
      </trkpt>
      <trkpt lat="40.681515" lon="-3.662436">
        <ele>807.936</ele>
        <time>2015-02-15T10:55:38Z</time>
      </trkpt>
      <trkpt lat="40.681498" lon="-3.662420">
        <ele>807.517</ele>
        <time>2015-02-15T10:55:39Z</time>
      </trkpt>
      <trkpt lat="40.681494" lon="-3.662398">
        <ele>807.118</ele>
        <time>2015-02-15T10:55:40Z</time>
      </trkpt>
      <trkpt lat="40.681488" lon="-3.662379">
        <ele>806.707</ele>
        <time>2015-02-15T10:55:41Z</time>
      </trkpt>
      <trkpt lat="40.681464" lon="-3.662350">
        <ele>805.821</ele>
        <time>2015-02-15T10:55:43Z</time>
      </trkpt>
      <trkpt lat="40.681443" lon="-3.662337">
        <ele>805.421</ele>
        <time>2015-02-15T10:55:44Z</time>
      </trkpt>
      <trkpt lat="40.681418" lon="-3.662318">
        <ele>804.920</ele>
        <time>2015-02-15T10:55:45Z</time>
      </trkpt>
      <trkpt lat="40.681392" lon="-3.662295">
        <ele>804.534</ele>
        <time>2015-02-15T10:55:46Z</time>
      </trkpt>
      <trkpt lat="40.681368" lon="-3.662268">
        <ele>804.073</ele>
        <time>2015-02-15T10:55:47Z</time>
      </trkpt>
      <trkpt lat="40.681315" lon="-3.662223">
        <ele>803.059</ele>
        <time>2015-02-15T10:55:49Z</time>
      </trkpt>
      <trkpt lat="40.681251" lon="-3.662153">
        <ele>802.010</ele>
        <time>2015-02-15T10:55:51Z</time>
      </trkpt>
      <trkpt lat="40.681214" lon="-3.662103">
        <ele>801.575</ele>
        <time>2015-02-15T10:55:52Z</time>
      </trkpt>
      <trkpt lat="40.681180" lon="-3.662047">
        <ele>801.028</ele>
        <time>2015-02-15T10:55:53Z</time>
      </trkpt>
      <trkpt lat="40.681124" lon="-3.661925">
        <ele>799.920</ele>
        <time>2015-02-15T10:55:55Z</time>
      </trkpt>
      <trkpt lat="40.681100" lon="-3.661867">
        <ele>799.407</ele>
        <time>2015-02-15T10:55:56Z</time>
      </trkpt>
      <trkpt lat="40.681070" lon="-3.661821">
        <ele>798.815</ele>
        <time>2015-02-15T10:55:57Z</time>
      </trkpt>
      <trkpt lat="40.681031" lon="-3.661790">
        <ele>798.315</ele>
        <time>2015-02-15T10:55:58Z</time>
      </trkpt>
      <trkpt lat="40.680977" lon="-3.661766">
        <ele>797.894</ele>
        <time>2015-02-15T10:55:59Z</time>
      </trkpt>
      <trkpt lat="40.680934" lon="-3.661737">
        <ele>797.288</ele>
        <time>2015-02-15T10:56:00Z</time>
      </trkpt>
      <trkpt lat="40.680888" lon="-3.661698">
        <ele>796.627</ele>
        <time>2015-02-15T10:56:01Z</time>
      </trkpt>
      <trkpt lat="40.680800" lon="-3.661621">
        <ele>795.463</ele>
        <time>2015-02-15T10:56:04Z</time>
      </trkpt>
      <trkpt lat="40.680760" lon="-3.661581">
        <ele>794.814</ele>
        <time>2015-02-15T10:56:04Z</time>
      </trkpt>
      <trkpt lat="40.680720" lon="-3.661538">
        <ele>794.251</ele>
        <time>2015-02-15T10:56:05Z</time>
      </trkpt>
      <trkpt lat="40.680676" lon="-3.661486">
        <ele>793.601</ele>
        <time>2015-02-15T10:56:07Z</time>
      </trkpt>
      <trkpt lat="40.680620" lon="-3.661439">
        <ele>793.011</ele>
        <time>2015-02-15T10:56:08Z</time>
      </trkpt>
      <trkpt lat="40.680565" lon="-3.661387">
        <ele>792.307</ele>
        <time>2015-02-15T10:56:09Z</time>
      </trkpt>
      <trkpt lat="40.680475" lon="-3.661270">
        <ele>791.073</ele>
        <time>2015-02-15T10:56:11Z</time>
      </trkpt>
      <trkpt lat="40.680396" lon="-3.661139">
        <ele>789.643</ele>
        <time>2015-02-15T10:56:13Z</time>
      </trkpt>
      <trkpt lat="40.680345" lon="-3.661083">
        <ele>788.912</ele>
        <time>2015-02-15T10:56:14Z</time>
      </trkpt>
      <trkpt lat="40.680229" lon="-3.660990">
        <ele>787.686</ele>
        <time>2015-02-15T10:56:16Z</time>
      </trkpt>
      <trkpt lat="40.680105" lon="-3.660924">
        <ele>786.395</ele>
        <time>2015-02-15T10:56:18Z</time>
      </trkpt>
      <trkpt lat="40.680047" lon="-3.660919">
        <ele>785.751</ele>
        <time>2015-02-15T10:56:19Z</time>
      </trkpt>
      <trkpt lat="40.679978" lon="-3.660905">
        <ele>785.132</ele>
        <time>2015-02-15T10:56:20Z</time>
      </trkpt>
      <trkpt lat="40.679837" lon="-3.660859">
        <ele>784.589</ele>
        <time>2015-02-15T10:56:21Z</time>
      </trkpt>
      <trkpt lat="40.679773" lon="-3.660828">
        <ele>783.806</ele>
        <time>2015-02-15T10:56:22Z</time>
      </trkpt>
      <trkpt lat="40.679711" lon="-3.660802">
        <ele>783.226</ele>
        <time>2015-02-15T10:56:23Z</time>
      </trkpt>
      <trkpt lat="40.679652" lon="-3.660792">
        <ele>782.607</ele>
        <time>2015-02-15T10:56:24Z</time>
      </trkpt>
      <trkpt lat="40.679600" lon="-3.660798">
        <ele>782.156</ele>
        <time>2015-02-15T10:56:25Z</time>
      </trkpt>
      <trkpt lat="40.679555" lon="-3.660821">
        <ele>781.516</ele>
        <time>2015-02-15T10:56:26Z</time>
      </trkpt>
      <trkpt lat="40.679512" lon="-3.660840">
        <ele>780.935</ele>
        <time>2015-02-15T10:56:27Z</time>
      </trkpt>
      <trkpt lat="40.679475" lon="-3.660854">
        <ele>780.469</ele>
        <time>2015-02-15T10:56:28Z</time>
      </trkpt>
      <trkpt lat="40.679436" lon="-3.660858">
        <ele>779.968</ele>
        <time>2015-02-15T10:56:29Z</time>
      </trkpt>
      <trkpt lat="40.679397" lon="-3.660853">
        <ele>779.354</ele>
        <time>2015-02-15T10:56:30Z</time>
      </trkpt>
      <trkpt lat="40.679366" lon="-3.660837">
        <ele>778.895</ele>
        <time>2015-02-15T10:56:31Z</time>
      </trkpt>
      <trkpt lat="40.679344" lon="-3.660814">
        <ele>778.368</ele>
        <time>2015-02-15T10:56:32Z</time>
      </trkpt>
      <trkpt lat="40.679317" lon="-3.660789">
        <ele>777.942</ele>
        <time>2015-02-15T10:56:33Z</time>
      </trkpt>
      <trkpt lat="40.679295" lon="-3.660749">
        <ele>777.126</ele>
        <time>2015-02-15T10:56:34Z</time>
      </trkpt>
      <trkpt lat="40.679280" lon="-3.660704">
        <ele>776.707</ele>
        <time>2015-02-15T10:56:35Z</time>
      </trkpt>
      <trkpt lat="40.679264" lon="-3.660643">
        <ele>776.234</ele>
        <time>2015-02-15T10:56:36Z</time>
      </trkpt>
      <trkpt lat="40.679231" lon="-3.660555">
        <ele>775.354</ele>
        <time>2015-02-15T10:56:38Z</time>
      </trkpt>
      <trkpt lat="40.679216" lon="-3.660517">
        <ele>775.213</ele>
        <time>2015-02-15T10:56:39Z</time>
      </trkpt>
      <trkpt lat="40.679177" lon="-3.660446">
        <ele>774.277</ele>
        <time>2015-02-15T10:56:41Z</time>
      </trkpt>
      <trkpt lat="40.679158" lon="-3.660409">
        <ele>773.876</ele>
        <time>2015-02-15T10:56:42Z</time>
      </trkpt>
      <trkpt lat="40.679137" lon="-3.660365">
        <ele>773.472</ele>
        <time>2015-02-15T10:56:43Z</time>
      </trkpt>
      <trkpt lat="40.679114" lon="-3.660313">
        <ele>773.063</ele>
        <time>2015-02-15T10:56:44Z</time>
      </trkpt>
      <trkpt lat="40.679092" lon="-3.660259">
        <ele>772.742</ele>
        <time>2015-02-15T10:56:45Z</time>
      </trkpt>
      <trkpt lat="40.679063" lon="-3.660206">
        <ele>772.322</ele>
        <time>2015-02-15T10:56:46Z</time>
      </trkpt>
      <trkpt lat="40.679023" lon="-3.660156">
        <ele>771.914</ele>
        <time>2015-02-15T10:56:47Z</time>
      </trkpt>
      <trkpt lat="40.678931" lon="-3.660065">
        <ele>771.107</ele>
        <time>2015-02-15T10:56:49Z</time>
      </trkpt>
      <trkpt lat="40.678888" lon="-3.660024">
        <ele>770.752</ele>
        <time>2015-02-15T10:56:50Z</time>
      </trkpt>
      <trkpt lat="40.678835" lon="-3.660006">
        <ele>770.342</ele>
        <time>2015-02-15T10:56:51Z</time>
      </trkpt>
      <trkpt lat="40.678769" lon="-3.659994">
        <ele>769.911</ele>
        <time>2015-02-15T10:56:52Z</time>
      </trkpt>
      <trkpt lat="40.678647" lon="-3.659956">
        <ele>769.065</ele>
        <time>2015-02-15T10:56:54Z</time>
      </trkpt>
      <trkpt lat="40.678589" lon="-3.659941">
        <ele>768.614</ele>
        <time>2015-02-15T10:56:55Z</time>
      </trkpt>
      <trkpt lat="40.678529" lon="-3.659923">
        <ele>768.260</ele>
        <time>2015-02-15T10:56:56Z</time>
      </trkpt>
      <trkpt lat="40.678402" lon="-3.659876">
        <ele>767.421</ele>
        <time>2015-02-15T10:56:58Z</time>
      </trkpt>
      <trkpt lat="40.678279" lon="-3.659828">
        <ele>766.785</ele>
        <time>2015-02-15T10:57:01Z</time>
      </trkpt>
      <trkpt lat="40.678212" lon="-3.659818">
        <ele>766.389</ele>
        <time>2015-02-15T10:57:01Z</time>
      </trkpt>
      <trkpt lat="40.678078" lon="-3.659798">
        <ele>765.817</ele>
        <time>2015-02-15T10:57:03Z</time>
      </trkpt>
      <trkpt lat="40.678015" lon="-3.659782">
        <ele>765.307</ele>
        <time>2015-02-15T10:57:04Z</time>
      </trkpt>
      <trkpt lat="40.677949" lon="-3.659773">
        <ele>765.026</ele>
        <time>2015-02-15T10:57:06Z</time>
      </trkpt>
      <trkpt lat="40.677893" lon="-3.659761">
        <ele>764.746</ele>
        <time>2015-02-15T10:57:07Z</time>
      </trkpt>
      <trkpt lat="40.677828" lon="-3.659757">
        <ele>764.455</ele>
        <time>2015-02-15T10:57:08Z</time>
      </trkpt>
      <trkpt lat="40.677627" lon="-3.659759">
        <ele>763.729</ele>
        <time>2015-02-15T10:57:11Z</time>
      </trkpt>
      <trkpt lat="40.677497" lon="-3.659805">
        <ele>763.288</ele>
        <time>2015-02-15T10:57:13Z</time>
      </trkpt>
      <trkpt lat="40.677448" lon="-3.659835">
        <ele>763.054</ele>
        <time>2015-02-15T10:57:14Z</time>
      </trkpt>
      <trkpt lat="40.677406" lon="-3.659849">
        <ele>762.875</ele>
        <time>2015-02-15T10:57:15Z</time>
      </trkpt>
      <trkpt lat="40.677374" lon="-3.659850">
        <ele>762.674</ele>
        <time>2015-02-15T10:57:16Z</time>
      </trkpt>
      <trkpt lat="40.677347" lon="-3.659837">
        <ele>762.356</ele>
        <time>2015-02-15T10:57:17Z</time>
      </trkpt>
      <trkpt lat="40.677326" lon="-3.659764">
        <ele>762.121</ele>
        <time>2015-02-15T10:57:18Z</time>
      </trkpt>
      <trkpt lat="40.677332" lon="-3.659725">
        <ele>761.907</ele>
        <time>2015-02-15T10:57:19Z</time>
      </trkpt>
      <trkpt lat="40.677349" lon="-3.659663">
        <ele>761.745</ele>
        <time>2015-02-15T10:57:20Z</time>
      </trkpt>
      <trkpt lat="40.677369" lon="-3.659586">
        <ele>761.525</ele>
        <time>2015-02-15T10:57:21Z</time>
      </trkpt>
      <trkpt lat="40.677379" lon="-3.659511">
        <ele>761.344</ele>
        <time>2015-02-15T10:57:22Z</time>
      </trkpt>
      <trkpt lat="40.677375" lon="-3.659434">
        <ele>761.128</ele>
        <time>2015-02-15T10:57:23Z</time>
      </trkpt>
      <trkpt lat="40.677369" lon="-3.659352">
        <ele>760.987</ele>
        <time>2015-02-15T10:57:24Z</time>
      </trkpt>
      <trkpt lat="40.677357" lon="-3.659264">
        <ele>760.753</ele>
        <time>2015-02-15T10:57:25Z</time>
      </trkpt>
      <trkpt lat="40.677305" lon="-3.659015">
        <ele>759.964</ele>
        <time>2015-02-15T10:57:28Z</time>
      </trkpt>
      <trkpt lat="40.677257" lon="-3.658938">
        <ele>759.744</ele>
        <time>2015-02-15T10:57:29Z</time>
      </trkpt>
      <trkpt lat="40.677209" lon="-3.658861">
        <ele>759.505</ele>
        <time>2015-02-15T10:57:30Z</time>
      </trkpt>
      <trkpt lat="40.677151" lon="-3.658777">
        <ele>759.215</ele>
        <time>2015-02-15T10:57:31Z</time>
      </trkpt>
      <trkpt lat="40.677045" lon="-3.658625">
        <ele>758.507</ele>
        <time>2015-02-15T10:57:33Z</time>
      </trkpt>
      <trkpt lat="40.676934" lon="-3.658473">
        <ele>758.052</ele>
        <time>2015-02-15T10:57:35Z</time>
      </trkpt>
      <trkpt lat="40.676878" lon="-3.658390">
        <ele>757.692</ele>
        <time>2015-02-15T10:57:36Z</time>
      </trkpt>
      <trkpt lat="40.676831" lon="-3.658310">
        <ele>757.361</ele>
        <time>2015-02-15T10:57:37Z</time>
      </trkpt>
      <trkpt lat="40.676797" lon="-3.658226">
        <ele>756.985</ele>
        <time>2015-02-15T10:57:38Z</time>
      </trkpt>
      <trkpt lat="40.676750" lon="-3.658150">
        <ele>756.614</ele>
        <time>2015-02-15T10:57:39Z</time>
      </trkpt>
      <trkpt lat="40.676653" lon="-3.658011">
        <ele>755.880</ele>
        <time>2015-02-15T10:57:41Z</time>
      </trkpt>
      <trkpt lat="40.676584" lon="-3.657907">
        <ele>755.021</ele>
        <time>2015-02-15T10:57:43Z</time>
      </trkpt>
      <trkpt lat="40.676551" lon="-3.657865">
        <ele>754.545</ele>
        <time>2015-02-15T10:57:44Z</time>
      </trkpt>
      <trkpt lat="40.676468" lon="-3.657773">
        <ele>753.747</ele>
        <time>2015-02-15T10:57:46Z</time>
      </trkpt>
      <trkpt lat="40.676421" lon="-3.657716">
        <ele>753.211</ele>
        <time>2015-02-15T10:57:47Z</time>
      </trkpt>
      <trkpt lat="40.676330" lon="-3.657567">
        <ele>752.407</ele>
        <time>2015-02-15T10:57:49Z</time>
      </trkpt>
      <trkpt lat="40.676200" lon="-3.657340">
        <ele>751.212</ele>
        <time>2015-02-15T10:57:52Z</time>
      </trkpt>
      <trkpt lat="40.676049" lon="-3.657092">
        <ele>749.942</ele>
        <time>2015-02-15T10:57:55Z</time>
      </trkpt>
      <trkpt lat="40.675878" lon="-3.656864">
        <ele>748.731</ele>
        <time>2015-02-15T10:57:58Z</time>
      </trkpt>
      <trkpt lat="40.675759" lon="-3.656741">
        <ele>747.885</ele>
        <time>2015-02-15T10:58:00Z</time>
      </trkpt>
      <trkpt lat="40.675642" lon="-3.656637">
        <ele>747.084</ele>
        <time>2015-02-15T10:58:02Z</time>
      </trkpt>
      <trkpt lat="40.675588" lon="-3.656597">
        <ele>746.630</ele>
        <time>2015-02-15T10:58:03Z</time>
      </trkpt>
      <trkpt lat="40.675479" lon="-3.656525">
        <ele>745.721</ele>
        <time>2015-02-15T10:58:05Z</time>
      </trkpt>
      <trkpt lat="40.675370" lon="-3.656458">
        <ele>744.974</ele>
        <time>2015-02-15T10:58:07Z</time>
      </trkpt>
      <trkpt lat="40.675323" lon="-3.656431">
        <ele>744.456</ele>
        <time>2015-02-15T10:58:08Z</time>
      </trkpt>
      <trkpt lat="40.675279" lon="-3.656401">
        <ele>744.021</ele>
        <time>2015-02-15T10:58:09Z</time>
      </trkpt>
      <trkpt lat="40.675233" lon="-3.656375">
        <ele>743.607</ele>
        <time>2015-02-15T10:58:10Z</time>
      </trkpt>
      <trkpt lat="40.675148" lon="-3.656326">
        <ele>742.885</ele>
        <time>2015-02-15T10:58:12Z</time>
      </trkpt>
      <trkpt lat="40.675101" lon="-3.656300">
        <ele>742.445</ele>
        <time>2015-02-15T10:58:13Z</time>
      </trkpt>
      <trkpt lat="40.675054" lon="-3.656270">
        <ele>742.084</ele>
        <time>2015-02-15T10:58:14Z</time>
      </trkpt>
      <trkpt lat="40.675006" lon="-3.656240">
        <ele>741.558</ele>
        <time>2015-02-15T10:58:15Z</time>
      </trkpt>
      <trkpt lat="40.674960" lon="-3.656219">
        <ele>741.137</ele>
        <time>2015-02-15T10:58:16Z</time>
      </trkpt>
      <trkpt lat="40.674911" lon="-3.656208">
        <ele>740.763</ele>
        <time>2015-02-15T10:58:17Z</time>
      </trkpt>
      <trkpt lat="40.674817" lon="-3.656196">
        <ele>739.934</ele>
        <time>2015-02-15T10:58:19Z</time>
      </trkpt>
      <trkpt lat="40.674733" lon="-3.656163">
        <ele>739.239</ele>
        <time>2015-02-15T10:58:21Z</time>
      </trkpt>
      <trkpt lat="40.674649" lon="-3.656130">
        <ele>738.401</ele>
        <time>2015-02-15T10:58:23Z</time>
      </trkpt>
      <trkpt lat="40.674576" lon="-3.656081">
        <ele>737.721</ele>
        <time>2015-02-15T10:58:26Z</time>
      </trkpt>
      <trkpt lat="40.674537" lon="-3.656053">
        <ele>737.307</ele>
        <time>2015-02-15T10:58:27Z</time>
      </trkpt>
      <trkpt lat="40.674499" lon="-3.656032">
        <ele>737.051</ele>
        <time>2015-02-15T10:58:28Z</time>
      </trkpt>
      <trkpt lat="40.674464" lon="-3.656015">
        <ele>736.691</ele>
        <time>2015-02-15T10:58:29Z</time>
      </trkpt>
      <trkpt lat="40.674421" lon="-3.656000">
        <ele>736.360</ele>
        <time>2015-02-15T10:58:30Z</time>
      </trkpt>
      <trkpt lat="40.674372" lon="-3.655995">
        <ele>735.954</ele>
        <time>2015-02-15T10:58:31Z</time>
      </trkpt>
      <trkpt lat="40.674273" lon="-3.655974">
        <ele>735.383</ele>
        <time>2015-02-15T10:58:33Z</time>
      </trkpt>
      <trkpt lat="40.674129" lon="-3.655922">
        <ele>734.739</ele>
        <time>2015-02-15T10:58:35Z</time>
      </trkpt>
      <trkpt lat="40.674090" lon="-3.655906">
        <ele>734.480</ele>
        <time>2015-02-15T10:58:36Z</time>
      </trkpt>
      <trkpt lat="40.673969" lon="-3.655870">
        <ele>733.618</ele>
        <time>2015-02-15T10:58:39Z</time>
      </trkpt>
      <trkpt lat="40.673880" lon="-3.655845">
        <ele>733.198</ele>
        <time>2015-02-15T10:58:41Z</time>
      </trkpt>
      <trkpt lat="40.673753" lon="-3.655831">
        <ele>732.417</ele>
        <time>2015-02-15T10:58:44Z</time>
      </trkpt>
      <trkpt lat="40.673668" lon="-3.655812">
        <ele>732.107</ele>
        <time>2015-02-15T10:58:46Z</time>
      </trkpt>
      <trkpt lat="40.673539" lon="-3.655793">
        <ele>731.619</ele>
        <time>2015-02-15T10:58:49Z</time>
      </trkpt>
      <trkpt lat="40.673495" lon="-3.655780">
        <ele>731.479</ele>
        <time>2015-02-15T10:58:50Z</time>
      </trkpt>
      <trkpt lat="40.673448" lon="-3.655773">
        <ele>731.318</ele>
        <time>2015-02-15T10:58:51Z</time>
      </trkpt>
      <trkpt lat="40.673400" lon="-3.655767">
        <ele>731.162</ele>
        <time>2015-02-15T10:58:52Z</time>
      </trkpt>
      <trkpt lat="40.673294" lon="-3.655754">
        <ele>730.861</ele>
        <time>2015-02-15T10:58:54Z</time>
      </trkpt>
      <trkpt lat="40.673121" lon="-3.655741">
        <ele>730.437</ele>
        <time>2015-02-15T10:58:57Z</time>
      </trkpt>
      <trkpt lat="40.673066" lon="-3.655753">
        <ele>730.258</ele>
        <time>2015-02-15T10:58:58Z</time>
      </trkpt>
      <trkpt lat="40.673004" lon="-3.655755">
        <ele>730.175</ele>
        <time>2015-02-15T10:58:59Z</time>
      </trkpt>
      <trkpt lat="40.672811" lon="-3.655779">
        <ele>729.628</ele>
        <time>2015-02-15T10:59:02Z</time>
      </trkpt>
      <trkpt lat="40.672750" lon="-3.655788">
        <ele>729.520</ele>
        <time>2015-02-15T10:59:03Z</time>
      </trkpt>
      <trkpt lat="40.672635" lon="-3.655790">
        <ele>729.207</ele>
        <time>2015-02-15T10:59:05Z</time>
      </trkpt>
      <trkpt lat="40.672575" lon="-3.655776">
        <ele>729.065</ele>
        <time>2015-02-15T10:59:06Z</time>
      </trkpt>
      <trkpt lat="40.672411" lon="-3.655732">
        <ele>728.625</ele>
        <time>2015-02-15T10:59:09Z</time>
      </trkpt>
      <trkpt lat="40.672293" lon="-3.655681">
        <ele>728.284</ele>
        <time>2015-02-15T10:59:11Z</time>
      </trkpt>
      <trkpt lat="40.672238" lon="-3.655646">
        <ele>728.178</ele>
        <time>2015-02-15T10:59:12Z</time>
      </trkpt>
      <trkpt lat="40.672177" lon="-3.655603">
        <ele>727.977</ele>
        <time>2015-02-15T10:59:13Z</time>
      </trkpt>
      <trkpt lat="40.672108" lon="-3.655547">
        <ele>727.783</ele>
        <time>2015-02-15T10:59:14Z</time>
      </trkpt>
      <trkpt lat="40.671896" lon="-3.655372">
        <ele>727.164</ele>
        <time>2015-02-15T10:59:17Z</time>
      </trkpt>
      <trkpt lat="40.671747" lon="-3.655249">
        <ele>726.728</ele>
        <time>2015-02-15T10:59:19Z</time>
      </trkpt>
      <trkpt lat="40.671679" lon="-3.655198">
        <ele>726.589</ele>
        <time>2015-02-15T10:59:20Z</time>
      </trkpt>
      <trkpt lat="40.671618" lon="-3.655140">
        <ele>726.217</ele>
        <time>2015-02-15T10:59:21Z</time>
      </trkpt>
      <trkpt lat="40.671562" lon="-3.655085">
        <ele>726.007</ele>
        <time>2015-02-15T10:59:22Z</time>
      </trkpt>
      <trkpt lat="40.671455" lon="-3.654973">
        <ele>725.530</ele>
        <time>2015-02-15T10:59:24Z</time>
      </trkpt>
      <trkpt lat="40.671410" lon="-3.654915">
        <ele>725.320</ele>
        <time>2015-02-15T10:59:25Z</time>
      </trkpt>
      <trkpt lat="40.671364" lon="-3.654860">
        <ele>725.049</ele>
        <time>2015-02-15T10:59:26Z</time>
      </trkpt>
      <trkpt lat="40.671324" lon="-3.654813">
        <ele>724.873</ele>
        <time>2015-02-15T10:59:27Z</time>
      </trkpt>
      <trkpt lat="40.671254" lon="-3.654749">
        <ele>724.342</ele>
        <time>2015-02-15T10:59:29Z</time>
      </trkpt>
      <trkpt lat="40.671220" lon="-3.654738">
        <ele>724.058</ele>
        <time>2015-02-15T10:59:30Z</time>
      </trkpt>
      <trkpt lat="40.671193" lon="-3.654727">
        <ele>723.799</ele>
        <time>2015-02-15T10:59:31Z</time>
      </trkpt>
      <trkpt lat="40.671176" lon="-3.654708">
        <ele>723.536</ele>
        <time>2015-02-15T10:59:32Z</time>
      </trkpt>
      <trkpt lat="40.671172" lon="-3.654681">
        <ele>723.217</ele>
        <time>2015-02-15T10:59:33Z</time>
      </trkpt>
      <trkpt lat="40.671172" lon="-3.654654">
        <ele>723.018</ele>
        <time>2015-02-15T10:59:34Z</time>
      </trkpt>
      <trkpt lat="40.671188" lon="-3.654626">
        <ele>722.707</ele>
        <time>2015-02-15T10:59:35Z</time>
      </trkpt>
      <trkpt lat="40.671213" lon="-3.654605">
        <ele>722.581</ele>
        <time>2015-02-15T10:59:36Z</time>
      </trkpt>
      <trkpt lat="40.671243" lon="-3.654602">
        <ele>722.311</ele>
        <time>2015-02-15T10:59:37Z</time>
      </trkpt>
      <trkpt lat="40.671276" lon="-3.654596">
        <ele>722.060</ele>
        <time>2015-02-15T10:59:38Z</time>
      </trkpt>
      <trkpt lat="40.671349" lon="-3.654580">
        <ele>721.654</ele>
        <time>2015-02-15T10:59:40Z</time>
      </trkpt>
      <trkpt lat="40.671384" lon="-3.654569">
        <ele>721.363</ele>
        <time>2015-02-15T10:59:41Z</time>
      </trkpt>
      <trkpt lat="40.671460" lon="-3.654544">
        <ele>720.819</ele>
        <time>2015-02-15T10:59:44Z</time>
      </trkpt>
      <trkpt lat="40.671503" lon="-3.654519">
        <ele>720.580</ele>
        <time>2015-02-15T10:59:45Z</time>
      </trkpt>
      <trkpt lat="40.671536" lon="-3.654487">
        <ele>720.274</ele>
        <time>2015-02-15T10:59:46Z</time>
      </trkpt>
      <trkpt lat="40.671571" lon="-3.654447">
        <ele>720.056</ele>
        <time>2015-02-15T10:59:47Z</time>
      </trkpt>
      <trkpt lat="40.671594" lon="-3.654405">
        <ele>719.721</ele>
        <time>2015-02-15T10:59:48Z</time>
      </trkpt>
      <trkpt lat="40.671611" lon="-3.654353">
        <ele>719.407</ele>
        <time>2015-02-15T10:59:49Z</time>
      </trkpt>
      <trkpt lat="40.671628" lon="-3.654304">
        <ele>719.165</ele>
        <time>2015-02-15T10:59:50Z</time>
      </trkpt>
      <trkpt lat="40.671659" lon="-3.654187">
        <ele>718.675</ele>
        <time>2015-02-15T10:59:52Z</time>
      </trkpt>
      <trkpt lat="40.671668" lon="-3.654122">
        <ele>718.454</ele>
        <time>2015-02-15T10:59:53Z</time>
      </trkpt>
      <trkpt lat="40.671680" lon="-3.653986">
        <ele>717.928</ele>
        <time>2015-02-15T10:59:55Z</time>
      </trkpt>
      <trkpt lat="40.671678" lon="-3.653838">
        <ele>717.477</ele>
        <time>2015-02-15T10:59:57Z</time>
      </trkpt>
      <trkpt lat="40.671663" lon="-3.653670">
        <ele>717.143</ele>
        <time>2015-02-15T10:59:58Z</time>
      </trkpt>
      <trkpt lat="40.671641" lon="-3.653517">
        <ele>716.634</ele>
        <time>2015-02-15T11:00:00Z</time>
      </trkpt>
      <trkpt lat="40.671617" lon="-3.653358">
        <ele>716.134</ele>
        <time>2015-02-15T11:00:02Z</time>
      </trkpt>
      <trkpt lat="40.671593" lon="-3.653207">
        <ele>715.655</ele>
        <time>2015-02-15T11:00:04Z</time>
      </trkpt>
      <trkpt lat="40.671588" lon="-3.653131">
        <ele>715.410</ele>
        <time>2015-02-15T11:00:05Z</time>
      </trkpt>
      <trkpt lat="40.671590" lon="-3.653049">
        <ele>715.207</ele>
        <time>2015-02-15T11:00:06Z</time>
      </trkpt>
      <trkpt lat="40.671598" lon="-3.652974">
        <ele>714.991</ele>
        <time>2015-02-15T11:00:07Z</time>
      </trkpt>
      <trkpt lat="40.671622" lon="-3.652899">
        <ele>714.771</ele>
        <time>2015-02-15T11:00:08Z</time>
      </trkpt>
      <trkpt lat="40.671641" lon="-3.652830">
        <ele>714.550</ele>
        <time>2015-02-15T11:00:09Z</time>
      </trkpt>
      <trkpt lat="40.671686" lon="-3.652704">
        <ele>714.164</ele>
        <time>2015-02-15T11:00:11Z</time>
      </trkpt>
      <trkpt lat="40.671702" lon="-3.652646">
        <ele>713.993</ele>
        <time>2015-02-15T11:00:12Z</time>
      </trkpt>
      <trkpt lat="40.671741" lon="-3.652531">
        <ele>713.549</ele>
        <time>2015-02-15T11:00:14Z</time>
      </trkpt>
      <trkpt lat="40.671788" lon="-3.652397">
        <ele>713.170</ele>
        <time>2015-02-15T11:00:16Z</time>
      </trkpt>
      <trkpt lat="40.671855" lon="-3.652264">
        <ele>712.752</ele>
        <time>2015-02-15T11:00:18Z</time>
      </trkpt>
      <trkpt lat="40.671943" lon="-3.652148">
        <ele>712.453</ele>
        <time>2015-02-15T11:00:20Z</time>
      </trkpt>
      <trkpt lat="40.671995" lon="-3.652107">
        <ele>712.108</ele>
        <time>2015-02-15T11:00:21Z</time>
      </trkpt>
      <trkpt lat="40.672053" lon="-3.652089">
        <ele>712.007</ele>
        <time>2015-02-15T11:00:22Z</time>
      </trkpt>
      <trkpt lat="40.672176" lon="-3.652067">
        <ele>711.773</ele>
        <time>2015-02-15T11:00:24Z</time>
      </trkpt>
      <trkpt lat="40.672238" lon="-3.652071">
        <ele>711.653</ele>
        <time>2015-02-15T11:00:25Z</time>
      </trkpt>
      <trkpt lat="40.672372" lon="-3.652077">
        <ele>711.232</ele>
        <time>2015-02-15T11:00:27Z</time>
      </trkpt>
      <trkpt lat="40.672445" lon="-3.652076">
        <ele>711.156</ele>
        <time>2015-02-15T11:00:28Z</time>
      </trkpt>
      <trkpt lat="40.672657" lon="-3.652080">
        <ele>710.535</ele>
        <time>2015-02-15T11:00:31Z</time>
      </trkpt>
      <trkpt lat="40.672807" lon="-3.652098">
        <ele>710.121</ele>
        <time>2015-02-15T11:00:33Z</time>
      </trkpt>
      <trkpt lat="40.672966" lon="-3.652135">
        <ele>709.632</ele>
        <time>2015-02-15T11:00:35Z</time>
      </trkpt>
      <trkpt lat="40.673122" lon="-3.652186">
        <ele>709.192</ele>
        <time>2015-02-15T11:00:37Z</time>
      </trkpt>
      <trkpt lat="40.673264" lon="-3.652253">
        <ele>708.573</ele>
        <time>2015-02-15T11:00:39Z</time>
      </trkpt>
      <trkpt lat="40.673413" lon="-3.652338">
        <ele>708.020</ele>
        <time>2015-02-15T11:00:41Z</time>
      </trkpt>
      <trkpt lat="40.673484" lon="-3.652364">
        <ele>707.707</ele>
        <time>2015-02-15T11:00:42Z</time>
      </trkpt>
      <trkpt lat="40.673555" lon="-3.652379">
        <ele>707.447</ele>
        <time>2015-02-15T11:00:43Z</time>
      </trkpt>
      <trkpt lat="40.673623" lon="-3.652379">
        <ele>707.147</ele>
        <time>2015-02-15T11:00:44Z</time>
      </trkpt>
      <trkpt lat="40.673688" lon="-3.652369">
        <ele>706.816</ele>
        <time>2015-02-15T11:00:45Z</time>
      </trkpt>
      <trkpt lat="40.673869" lon="-3.652363">
        <ele>706.020</ele>
        <time>2015-02-15T11:00:49Z</time>
      </trkpt>
      <trkpt lat="40.673919" lon="-3.652412">
        <ele>705.719</ele>
        <time>2015-02-15T11:00:50Z</time>
      </trkpt>
      <trkpt lat="40.673970" lon="-3.652470">
        <ele>705.445</ele>
        <time>2015-02-15T11:00:51Z</time>
      </trkpt>
      <trkpt lat="40.673986" lon="-3.652538">
        <ele>705.016</ele>
        <time>2015-02-15T11:00:52Z</time>
      </trkpt>
      <trkpt lat="40.674027" lon="-3.652590">
        <ele>704.754</ele>
        <time>2015-02-15T11:00:53Z</time>
      </trkpt>
      <trkpt lat="40.674121" lon="-3.652670">
        <ele>704.156</ele>
        <time>2015-02-15T11:00:55Z</time>
      </trkpt>
      <trkpt lat="40.674178" lon="-3.652688">
        <ele>703.711</ele>
        <time>2015-02-15T11:00:56Z</time>
      </trkpt>
      <trkpt lat="40.674236" lon="-3.652692">
        <ele>703.407</ele>
        <time>2015-02-15T11:00:57Z</time>
      </trkpt>
      <trkpt lat="40.674288" lon="-3.652678">
        <ele>703.133</ele>
        <time>2015-02-15T11:00:58Z</time>
      </trkpt>
      <trkpt lat="40.674334" lon="-3.652666">
        <ele>702.813</ele>
        <time>2015-02-15T11:00:59Z</time>
      </trkpt>
      <trkpt lat="40.674368" lon="-3.652639">
        <ele>702.572</ele>
        <time>2015-02-15T11:01:00Z</time>
      </trkpt>
      <trkpt lat="40.674390" lon="-3.652609">
        <ele>702.256</ele>
        <time>2015-02-15T11:01:01Z</time>
      </trkpt>
      <trkpt lat="40.674416" lon="-3.652499">
        <ele>702.095</ele>
        <time>2015-02-15T11:01:02Z</time>
      </trkpt>
      <trkpt lat="40.674426" lon="-3.652384">
        <ele>701.521</ele>
        <time>2015-02-15T11:01:04Z</time>
      </trkpt>
      <trkpt lat="40.674415" lon="-3.652339">
        <ele>701.392</ele>
        <time>2015-02-15T11:01:05Z</time>
      </trkpt>
      <trkpt lat="40.674399" lon="-3.652287">
        <ele>701.113</ele>
        <time>2015-02-15T11:01:06Z</time>
      </trkpt>
      <trkpt lat="40.674378" lon="-3.652243">
        <ele>700.943</ele>
        <time>2015-02-15T11:01:07Z</time>
      </trkpt>
      <trkpt lat="40.674359" lon="-3.652207">
        <ele>700.607</ele>
        <time>2015-02-15T11:01:08Z</time>
      </trkpt>
      <trkpt lat="40.674308" lon="-3.652087">
        <ele>699.907</ele>
        <time>2015-02-15T11:01:11Z</time>
      </trkpt>
      <trkpt lat="40.674295" lon="-3.652053">
        <ele>699.779</ele>
        <time>2015-02-15T11:01:12Z</time>
      </trkpt>
      <trkpt lat="40.674289" lon="-3.652010">
        <ele>699.489</ele>
        <time>2015-02-15T11:01:13Z</time>
      </trkpt>
      <trkpt lat="40.674264" lon="-3.651943">
        <ele>699.078</ele>
        <time>2015-02-15T11:01:15Z</time>
      </trkpt>
      <trkpt lat="40.674241" lon="-3.651881">
        <ele>698.542</ele>
        <time>2015-02-15T11:01:17Z</time>
      </trkpt>
      <trkpt lat="40.674214" lon="-3.651813">
        <ele>698.031</ele>
        <time>2015-02-15T11:01:19Z</time>
      </trkpt>
      <trkpt lat="40.674191" lon="-3.651742">
        <ele>697.557</ele>
        <time>2015-02-15T11:01:21Z</time>
      </trkpt>
      <trkpt lat="40.674177" lon="-3.651661">
        <ele>697.138</ele>
        <time>2015-02-15T11:01:23Z</time>
      </trkpt>
      <trkpt lat="40.674176" lon="-3.651625">
        <ele>696.936</ele>
        <time>2015-02-15T11:01:24Z</time>
      </trkpt>
      <trkpt lat="40.674179" lon="-3.651598">
        <ele>696.717</ele>
        <time>2015-02-15T11:01:25Z</time>
      </trkpt>
      <trkpt lat="40.674184" lon="-3.651568">
        <ele>696.518</ele>
        <time>2015-02-15T11:01:26Z</time>
      </trkpt>
      <trkpt lat="40.674191" lon="-3.651541">
        <ele>696.307</ele>
        <time>2015-02-15T11:01:27Z</time>
      </trkpt>
      <trkpt lat="40.674204" lon="-3.651514">
        <ele>696.161</ele>
        <time>2015-02-15T11:01:28Z</time>
      </trkpt>
      <trkpt lat="40.674222" lon="-3.651491">
        <ele>696.071</ele>
        <time>2015-02-15T11:01:29Z</time>
      </trkpt>
      <trkpt lat="40.674236" lon="-3.651480">
        <ele>695.860</ele>
        <time>2015-02-15T11:01:30Z</time>
      </trkpt>
      <trkpt lat="40.674254" lon="-3.651466">
        <ele>695.714</ele>
        <time>2015-02-15T11:01:31Z</time>
      </trkpt>
      <trkpt lat="40.674266" lon="-3.651452">
        <ele>695.583</ele>
        <time>2015-02-15T11:01:32Z</time>
      </trkpt>
      <trkpt lat="40.674308" lon="-3.651406">
        <ele>695.269</ele>
        <time>2015-02-15T11:01:35Z</time>
      </trkpt>
      <trkpt lat="40.674358" lon="-3.651349">
        <ele>695.120</ele>
        <time>2015-02-15T11:01:38Z</time>
      </trkpt>
      <trkpt lat="40.674401" lon="-3.651311">
        <ele>694.954</ele>
        <time>2015-02-15T11:01:41Z</time>
      </trkpt>
      <trkpt lat="40.674422" lon="-3.651299">
        <ele>694.956</ele>
        <time>2015-02-15T11:01:42Z</time>
      </trkpt>
      <trkpt lat="40.674424" lon="-3.651269">
        <ele>694.911</ele>
        <time>2015-02-15T11:01:43Z</time>
      </trkpt>
      <trkpt lat="40.674424" lon="-3.651233">
        <ele>694.907</ele>
        <time>2015-02-15T11:01:44Z</time>
      </trkpt>
      <trkpt lat="40.674427" lon="-3.651210">
        <ele>694.973</ele>
        <time>2015-02-15T11:01:45Z</time>
      </trkpt>
      <trkpt lat="40.674416" lon="-3.651185">
        <ele>695.093</ele>
        <time>2015-02-15T11:01:46Z</time>
      </trkpt>
      <trkpt lat="40.674404" lon="-3.651156">
        <ele>695.082</ele>
        <time>2015-02-15T11:01:47Z</time>
      </trkpt>
      <trkpt lat="40.674391" lon="-3.651137">
        <ele>695.116</ele>
        <time>2015-02-15T11:01:48Z</time>
      </trkpt>
      <trkpt lat="40.674378" lon="-3.651118">
        <ele>695.185</ele>
        <time>2015-02-15T11:01:49Z</time>
      </trkpt>
      <trkpt lat="40.674366" lon="-3.651101">
        <ele>695.271</ele>
        <time>2015-02-15T11:01:50Z</time>
      </trkpt>
      <trkpt lat="40.674347" lon="-3.651090">
        <ele>695.382</ele>
        <time>2015-02-15T11:01:51Z</time>
      </trkpt>
      <trkpt lat="40.674318" lon="-3.651061">
        <ele>695.445</ele>
        <time>2015-02-15T11:01:53Z</time>
      </trkpt>
      <trkpt lat="40.674299" lon="-3.651050">
        <ele>695.447</ele>
        <time>2015-02-15T11:01:54Z</time>
      </trkpt>
      <trkpt lat="40.674259" lon="-3.651045">
        <ele>695.511</ele>
        <time>2015-02-15T11:01:56Z</time>
      </trkpt>
      <trkpt lat="40.674234" lon="-3.651047">
        <ele>695.607</ele>
        <time>2015-02-15T11:01:57Z</time>
      </trkpt>
      <trkpt lat="40.674212" lon="-3.651046">
        <ele>695.762</ele>
        <time>2015-02-15T11:01:58Z</time>
      </trkpt>
      <trkpt lat="40.674167" lon="-3.651053">
        <ele>695.852</ele>
        <time>2015-02-15T11:02:00Z</time>
      </trkpt>
      <trkpt lat="40.674097" lon="-3.651058">
        <ele>696.081</ele>
        <time>2015-02-15T11:02:03Z</time>
      </trkpt>
      <trkpt lat="40.674031" lon="-3.651062">
        <ele>696.275</ele>
        <time>2015-02-15T11:02:06Z</time>
      </trkpt>
      <trkpt lat="40.674010" lon="-3.651056">
        <ele>696.294</ele>
        <time>2015-02-15T11:02:07Z</time>
      </trkpt>
      <trkpt lat="40.673991" lon="-3.651045">
        <ele>696.360</ele>
        <time>2015-02-15T11:02:08Z</time>
      </trkpt>
      <trkpt lat="40.673973" lon="-3.651034">
        <ele>696.491</ele>
        <time>2015-02-15T11:02:09Z</time>
      </trkpt>
      <trkpt lat="40.673954" lon="-3.651025">
        <ele>696.523</ele>
        <time>2015-02-15T11:02:10Z</time>
      </trkpt>
      <trkpt lat="40.673902" lon="-3.650990">
        <ele>696.983</ele>
        <time>2015-02-15T11:02:13Z</time>
      </trkpt>
      <trkpt lat="40.673845" lon="-3.650963">
        <ele>697.311</ele>
        <time>2015-02-15T11:02:17Z</time>
      </trkpt>
      <trkpt lat="40.673798" lon="-3.650915">
        <ele>697.807</ele>
        <time>2015-02-15T11:02:20Z</time>
      </trkpt>
      <trkpt lat="40.673785" lon="-3.650895">
        <ele>698.090</ele>
        <time>2015-02-15T11:02:21Z</time>
      </trkpt>
      <trkpt lat="40.673784" lon="-3.650875">
        <ele>698.260</ele>
        <time>2015-02-15T11:02:22Z</time>
      </trkpt>
      <trkpt lat="40.673777" lon="-3.650853">
        <ele>698.349</ele>
        <time>2015-02-15T11:02:23Z</time>
      </trkpt>
      <trkpt lat="40.673777" lon="-3.650830">
        <ele>698.563</ele>
        <time>2015-02-15T11:02:24Z</time>
      </trkpt>
      <trkpt lat="40.673781" lon="-3.650804">
        <ele>698.642</ele>
        <time>2015-02-15T11:02:25Z</time>
      </trkpt>
      <trkpt lat="40.673790" lon="-3.650776">
        <ele>698.868</ele>
        <time>2015-02-15T11:02:26Z</time>
      </trkpt>
      <trkpt lat="40.673797" lon="-3.650747">
        <ele>699.059</ele>
        <time>2015-02-15T11:02:27Z</time>
      </trkpt>
      <trkpt lat="40.673805" lon="-3.650722">
        <ele>699.286</ele>
        <time>2015-02-15T11:02:28Z</time>
      </trkpt>
      <trkpt lat="40.673816" lon="-3.650703">
        <ele>699.460</ele>
        <time>2015-02-15T11:02:29Z</time>
      </trkpt>
      <trkpt lat="40.673837" lon="-3.650661">
        <ele>699.826</ele>
        <time>2015-02-15T11:02:31Z</time>
      </trkpt>
      <trkpt lat="40.673863" lon="-3.650621">
        <ele>700.207</ele>
        <time>2015-02-15T11:02:33Z</time>
      </trkpt>
      <trkpt lat="40.673917" lon="-3.650541">
        <ele>700.856</ele>
        <time>2015-02-15T11:02:36Z</time>
      </trkpt>
      <trkpt lat="40.673966" lon="-3.650469">
        <ele>701.696</ele>
        <time>2015-02-15T11:02:40Z</time>
      </trkpt>
      <trkpt lat="40.674003" lon="-3.650407">
        <ele>702.265</ele>
        <time>2015-02-15T11:02:43Z</time>
      </trkpt>
      <trkpt lat="40.674024" lon="-3.650364">
        <ele>702.659</ele>
        <time>2015-02-15T11:02:45Z</time>
      </trkpt>
      <trkpt lat="40.674060" lon="-3.650298">
        <ele>703.128</ele>
        <time>2015-02-15T11:02:48Z</time>
      </trkpt>
      <trkpt lat="40.674104" lon="-3.650208">
        <ele>703.774</ele>
        <time>2015-02-15T11:02:52Z</time>
      </trkpt>
      <trkpt lat="40.674127" lon="-3.650142">
        <ele>704.335</ele>
        <time>2015-02-15T11:02:55Z</time>
      </trkpt>
      <trkpt lat="40.674143" lon="-3.650094">
        <ele>704.767</ele>
        <time>2015-02-15T11:02:57Z</time>
      </trkpt>
      <trkpt lat="40.674170" lon="-3.649998">
        <ele>705.581</ele>
        <time>2015-02-15T11:03:01Z</time>
      </trkpt>
      <trkpt lat="40.674176" lon="-3.649952">
        <ele>705.919</ele>
        <time>2015-02-15T11:03:03Z</time>
      </trkpt>
      <trkpt lat="40.674181" lon="-3.649884">
        <ele>706.507</ele>
        <time>2015-02-15T11:03:06Z</time>
      </trkpt>
      <trkpt lat="40.674181" lon="-3.649855">
        <ele>706.754</ele>
        <time>2015-02-15T11:03:07Z</time>
      </trkpt>
      <trkpt lat="40.674182" lon="-3.649774">
        <ele>707.264</ele>
        <time>2015-02-15T11:03:10Z</time>
      </trkpt>
      <trkpt lat="40.674184" lon="-3.649682">
        <ele>707.623</ele>
        <time>2015-02-15T11:03:13Z</time>
      </trkpt>
      <trkpt lat="40.674197" lon="-3.649611">
        <ele>707.957</ele>
        <time>2015-02-15T11:03:15Z</time>
      </trkpt>
      <trkpt lat="40.674214" lon="-3.649575">
        <ele>708.076</ele>
        <time>2015-02-15T11:03:16Z</time>
      </trkpt>
      <trkpt lat="40.674228" lon="-3.649544">
        <ele>708.252</ele>
        <time>2015-02-15T11:03:17Z</time>
      </trkpt>
      <trkpt lat="40.674258" lon="-3.649501">
        <ele>708.443</ele>
        <time>2015-02-15T11:03:19Z</time>
      </trkpt>
      <trkpt lat="40.674325" lon="-3.649416">
        <ele>709.189</ele>
        <time>2015-02-15T11:03:23Z</time>
      </trkpt>
      <trkpt lat="40.674343" lon="-3.649406">
        <ele>709.206</ele>
        <time>2015-02-15T11:03:24Z</time>
      </trkpt>
      <trkpt lat="40.674363" lon="-3.649399">
        <ele>709.426</ele>
        <time>2015-02-15T11:03:25Z</time>
      </trkpt>
      <trkpt lat="40.674384" lon="-3.649376">
        <ele>709.507</ele>
        <time>2015-02-15T11:03:26Z</time>
      </trkpt>
      <trkpt lat="40.674406" lon="-3.649331">
        <ele>709.716</ele>
        <time>2015-02-15T11:03:28Z</time>
      </trkpt>
      <trkpt lat="40.674410" lon="-3.649302">
        <ele>709.826</ele>
        <time>2015-02-15T11:03:30Z</time>
      </trkpt>
      <trkpt lat="40.674414" lon="-3.649271">
        <ele>710.085</ele>
        <time>2015-02-15T11:03:30Z</time>
      </trkpt>
      <trkpt lat="40.674414" lon="-3.649240">
        <ele>710.149</ele>
        <time>2015-02-15T11:03:31Z</time>
      </trkpt>
      <trkpt lat="40.674410" lon="-3.649206">
        <ele>710.268</ele>
        <time>2015-02-15T11:03:32Z</time>
      </trkpt>
      <trkpt lat="40.674402" lon="-3.649165">
        <ele>710.374</ele>
        <time>2015-02-15T11:03:34Z</time>
      </trkpt>
      <trkpt lat="40.674382" lon="-3.649109">
        <ele>710.455</ele>
        <time>2015-02-15T11:03:35Z</time>
      </trkpt>
      <trkpt lat="40.674360" lon="-3.649053">
        <ele>710.515</ele>
        <time>2015-02-15T11:03:36Z</time>
      </trkpt>
      <trkpt lat="40.674299" lon="-3.648898">
        <ele>710.965</ele>
        <time>2015-02-15T11:03:39Z</time>
      </trkpt>
      <trkpt lat="40.674270" lon="-3.648850">
        <ele>711.011</ele>
        <time>2015-02-15T11:03:40Z</time>
      </trkpt>
      <trkpt lat="40.674195" lon="-3.648788">
        <ele>711.207</ele>
        <time>2015-02-15T11:03:42Z</time>
      </trkpt>
      <trkpt lat="40.674130" lon="-3.648725">
        <ele>711.469</ele>
        <time>2015-02-15T11:03:44Z</time>
      </trkpt>
      <trkpt lat="40.674100" lon="-3.648690">
        <ele>711.519</ele>
        <time>2015-02-15T11:03:45Z</time>
      </trkpt>
      <trkpt lat="40.674073" lon="-3.648656">
        <ele>711.678</ele>
        <time>2015-02-15T11:03:46Z</time>
      </trkpt>
      <trkpt lat="40.674046" lon="-3.648629">
        <ele>711.752</ele>
        <time>2015-02-15T11:03:47Z</time>
      </trkpt>
      <trkpt lat="40.673993" lon="-3.648581">
        <ele>711.961</ele>
        <time>2015-02-15T11:03:49Z</time>
      </trkpt>
      <trkpt lat="40.673909" lon="-3.648545">
        <ele>712.177</ele>
        <time>2015-02-15T11:03:51Z</time>
      </trkpt>
      <trkpt lat="40.673819" lon="-3.648496">
        <ele>712.538</ele>
        <time>2015-02-15T11:03:54Z</time>
      </trkpt>
      <trkpt lat="40.673801" lon="-3.648464">
        <ele>712.638</ele>
        <time>2015-02-15T11:03:55Z</time>
      </trkpt>
      <trkpt lat="40.673749" lon="-3.648413">
        <ele>712.870</ele>
        <time>2015-02-15T11:03:57Z</time>
      </trkpt>
      <trkpt lat="40.673722" lon="-3.648399">
        <ele>712.917</ele>
        <time>2015-02-15T11:03:58Z</time>
      </trkpt>
      <trkpt lat="40.673697" lon="-3.648375">
        <ele>713.007</ele>
        <time>2015-02-15T11:03:59Z</time>
      </trkpt>
      <trkpt lat="40.673651" lon="-3.648326">
        <ele>713.161</ele>
        <time>2015-02-15T11:04:01Z</time>
      </trkpt>
      <trkpt lat="40.673632" lon="-3.648289">
        <ele>713.251</ele>
        <time>2015-02-15T11:04:02Z</time>
      </trkpt>
      <trkpt lat="40.673616" lon="-3.648236">
        <ele>713.380</ele>
        <time>2015-02-15T11:04:03Z</time>
      </trkpt>
      <trkpt lat="40.673552" lon="-3.648090">
        <ele>713.464</ele>
        <time>2015-02-15T11:04:06Z</time>
      </trkpt>
      <trkpt lat="40.673520" lon="-3.647995">
        <ele>713.413</ele>
        <time>2015-02-15T11:04:08Z</time>
      </trkpt>
      <trkpt lat="40.673518" lon="-3.647937">
        <ele>713.539</ele>
        <time>2015-02-15T11:04:09Z</time>
      </trkpt>
      <trkpt lat="40.673502" lon="-3.647780">
        <ele>713.680</ele>
        <time>2015-02-15T11:04:12Z</time>
      </trkpt>
      <trkpt lat="40.673480" lon="-3.647628">
        <ele>713.715</ele>
        <time>2015-02-15T11:04:15Z</time>
      </trkpt>
      <trkpt lat="40.673452" lon="-3.647529">
        <ele>713.765</ele>
        <time>2015-02-15T11:04:17Z</time>
      </trkpt>
      <trkpt lat="40.673434" lon="-3.647424">
        <ele>713.811</ele>
        <time>2015-02-15T11:04:19Z</time>
      </trkpt>
      <trkpt lat="40.673416" lon="-3.647309">
        <ele>713.807</ele>
        <time>2015-02-15T11:04:21Z</time>
      </trkpt>
      <trkpt lat="40.673389" lon="-3.647183">
        <ele>713.839</ele>
        <time>2015-02-15T11:04:23Z</time>
      </trkpt>
      <trkpt lat="40.673377" lon="-3.647114">
        <ele>713.849</ele>
        <time>2015-02-15T11:04:24Z</time>
      </trkpt>
      <trkpt lat="40.673373" lon="-3.647031">
        <ele>713.868</ele>
        <time>2015-02-15T11:04:25Z</time>
      </trkpt>
      <trkpt lat="40.673369" lon="-3.646876">
        <ele>713.792</ele>
        <time>2015-02-15T11:04:27Z</time>
      </trkpt>
      <trkpt lat="40.673358" lon="-3.646804">
        <ele>713.711</ele>
        <time>2015-02-15T11:04:28Z</time>
      </trkpt>
      <trkpt lat="40.673336" lon="-3.646739">
        <ele>713.767</ele>
        <time>2015-02-15T11:04:29Z</time>
      </trkpt>
      <trkpt lat="40.673311" lon="-3.646680">
        <ele>713.738</ele>
        <time>2015-02-15T11:04:30Z</time>
      </trkpt>
      <trkpt lat="40.673256" lon="-3.646570">
        <ele>713.688</ele>
        <time>2015-02-15T11:04:32Z</time>
      </trkpt>
      <trkpt lat="40.673214" lon="-3.646472">
        <ele>713.524</ele>
        <time>2015-02-15T11:04:34Z</time>
      </trkpt>
      <trkpt lat="40.673200" lon="-3.646419">
        <ele>713.526</ele>
        <time>2015-02-15T11:04:35Z</time>
      </trkpt>
      <trkpt lat="40.673187" lon="-3.646368">
        <ele>713.507</ele>
        <time>2015-02-15T11:04:36Z</time>
      </trkpt>
      <trkpt lat="40.673136" lon="-3.646159">
        <ele>713.376</ele>
        <time>2015-02-15T11:04:40Z</time>
      </trkpt>
      <trkpt lat="40.673117" lon="-3.646047">
        <ele>713.326</ele>
        <time>2015-02-15T11:04:43Z</time>
      </trkpt>
      <trkpt lat="40.673087" lon="-3.645881">
        <ele>713.165</ele>
        <time>2015-02-15T11:04:46Z</time>
      </trkpt>
      <trkpt lat="40.673076" lon="-3.645835">
        <ele>713.129</ele>
        <time>2015-02-15T11:04:47Z</time>
      </trkpt>
      <trkpt lat="40.673064" lon="-3.645788">
        <ele>713.058</ele>
        <time>2015-02-15T11:04:48Z</time>
      </trkpt>
      <trkpt lat="40.673032" lon="-3.645659">
        <ele>712.824</ele>
        <time>2015-02-15T11:04:51Z</time>
      </trkpt>
      <trkpt lat="40.673014" lon="-3.645614">
        <ele>712.795</ele>
        <time>2015-02-15T11:04:52Z</time>
      </trkpt>
      <trkpt lat="40.672995" lon="-3.645528">
        <ele>712.552</ele>
        <time>2015-02-15T11:04:54Z</time>
      </trkpt>
      <trkpt lat="40.672975" lon="-3.645393">
        <ele>712.353</ele>
        <time>2015-02-15T11:04:57Z</time>
      </trkpt>
      <trkpt lat="40.672971" lon="-3.645338">
        <ele>712.208</ele>
        <time>2015-02-15T11:04:58Z</time>
      </trkpt>
      <trkpt lat="40.672963" lon="-3.645279">
        <ele>712.107</ele>
        <time>2015-02-15T11:04:59Z</time>
      </trkpt>
      <trkpt lat="40.672956" lon="-3.645214">
        <ele>712.043</ele>
        <time>2015-02-15T11:05:00Z</time>
      </trkpt>
      <trkpt lat="40.672947" lon="-3.645146">
        <ele>712.073</ele>
        <time>2015-02-15T11:05:01Z</time>
      </trkpt>
      <trkpt lat="40.672889" lon="-3.644875">
        <ele>711.722</ele>
        <time>2015-02-15T11:05:04Z</time>
      </trkpt>
      <trkpt lat="40.672865" lon="-3.644832">
        <ele>711.656</ele>
        <time>2015-02-15T11:05:05Z</time>
      </trkpt>
      <trkpt lat="40.672827" lon="-3.644799">
        <ele>711.525</ele>
        <time>2015-02-15T11:05:06Z</time>
      </trkpt>
      <trkpt lat="40.672797" lon="-3.644790">
        <ele>711.541</ele>
        <time>2015-02-15T11:05:07Z</time>
      </trkpt>
      <trkpt lat="40.672758" lon="-3.644790">
        <ele>711.452</ele>
        <time>2015-02-15T11:05:08Z</time>
      </trkpt>
      <trkpt lat="40.672715" lon="-3.644794">
        <ele>711.338</ele>
        <time>2015-02-15T11:05:09Z</time>
      </trkpt>
      <trkpt lat="40.672633" lon="-3.644780">
        <ele>711.170</ele>
        <time>2015-02-15T11:05:11Z</time>
      </trkpt>
      <trkpt lat="40.672598" lon="-3.644759">
        <ele>711.017</ele>
        <time>2015-02-15T11:05:12Z</time>
      </trkpt>
      <trkpt lat="40.672567" lon="-3.644727">
        <ele>710.907</ele>
        <time>2015-02-15T11:05:13Z</time>
      </trkpt>
      <trkpt lat="40.672536" lon="-3.644699">
        <ele>710.811</ele>
        <time>2015-02-15T11:05:14Z</time>
      </trkpt>
      <trkpt lat="40.672474" lon="-3.644652">
        <ele>710.751</ele>
        <time>2015-02-15T11:05:16Z</time>
      </trkpt>
      <trkpt lat="40.672381" lon="-3.644586">
        <ele>710.580</ele>
        <time>2015-02-15T11:05:19Z</time>
      </trkpt>
      <trkpt lat="40.672318" lon="-3.644532">
        <ele>710.454</ele>
        <time>2015-02-15T11:05:21Z</time>
      </trkpt>
      <trkpt lat="40.672290" lon="-3.644493">
        <ele>710.353</ele>
        <time>2015-02-15T11:05:22Z</time>
      </trkpt>
      <trkpt lat="40.672203" lon="-3.644382">
        <ele>710.259</ele>
        <time>2015-02-15T11:05:25Z</time>
      </trkpt>
      <trkpt lat="40.672174" lon="-3.644351">
        <ele>710.150</ele>
        <time>2015-02-15T11:05:26Z</time>
      </trkpt>
      <trkpt lat="40.672113" lon="-3.644296">
        <ele>709.921</ele>
        <time>2015-02-15T11:05:28Z</time>
      </trkpt>
      <trkpt lat="40.672053" lon="-3.644254">
        <ele>709.841</ele>
        <time>2015-02-15T11:05:30Z</time>
      </trkpt>
      <trkpt lat="40.672021" lon="-3.644238">
        <ele>709.705</ele>
        <time>2015-02-15T11:05:31Z</time>
      </trkpt>
      <trkpt lat="40.671927" lon="-3.644180">
        <ele>709.407</ele>
        <time>2015-02-15T11:05:34Z</time>
      </trkpt>
      <trkpt lat="40.671891" lon="-3.644162">
        <ele>709.340</ele>
        <time>2015-02-15T11:05:35Z</time>
      </trkpt>
      <trkpt lat="40.671849" lon="-3.644136">
        <ele>709.230</ele>
        <time>2015-02-15T11:05:36Z</time>
      </trkpt>
      <trkpt lat="40.671805" lon="-3.644103">
        <ele>709.139</ele>
        <time>2015-02-15T11:05:37Z</time>
      </trkpt>
      <trkpt lat="40.671757" lon="-3.644071">
        <ele>709.073</ele>
        <time>2015-02-15T11:05:38Z</time>
      </trkpt>
      <trkpt lat="40.671710" lon="-3.644039">
        <ele>708.922</ele>
        <time>2015-02-15T11:05:39Z</time>
      </trkpt>
      <trkpt lat="40.671674" lon="-3.644013">
        <ele>708.858</ele>
        <time>2015-02-15T11:05:40Z</time>
      </trkpt>
      <trkpt lat="40.671544" lon="-3.643930">
        <ele>708.689</ele>
        <time>2015-02-15T11:05:44Z</time>
      </trkpt>
      <trkpt lat="40.671488" lon="-3.643874">
        <ele>708.511</ele>
        <time>2015-02-15T11:05:46Z</time>
      </trkpt>
      <trkpt lat="40.671467" lon="-3.643839">
        <ele>708.421</ele>
        <time>2015-02-15T11:05:47Z</time>
      </trkpt>
      <trkpt lat="40.671446" lon="-3.643799">
        <ele>708.403</ele>
        <time>2015-02-15T11:05:48Z</time>
      </trkpt>
      <trkpt lat="40.671431" lon="-3.643759">
        <ele>708.307</ele>
        <time>2015-02-15T11:05:49Z</time>
      </trkpt>
      <trkpt lat="40.671401" lon="-3.643668">
        <ele>708.349</ele>
        <time>2015-02-15T11:05:51Z</time>
      </trkpt>
      <trkpt lat="40.671346" lon="-3.643517">
        <ele>708.159</ele>
        <time>2015-02-15T11:05:54Z</time>
      </trkpt>
      <trkpt lat="40.671294" lon="-3.643421">
        <ele>707.958</ele>
        <time>2015-02-15T11:05:56Z</time>
      </trkpt>
      <trkpt lat="40.671236" lon="-3.643318">
        <ele>707.832</ele>
        <time>2015-02-15T11:05:58Z</time>
      </trkpt>
      <trkpt lat="40.671147" lon="-3.643154">
        <ele>707.641</ele>
        <time>2015-02-15T11:06:01Z</time>
      </trkpt>
      <trkpt lat="40.671066" lon="-3.642988">
        <ele>707.467</ele>
        <time>2015-02-15T11:06:05Z</time>
      </trkpt>
      <trkpt lat="40.671046" lon="-3.642929">
        <ele>707.378</ele>
        <time>2015-02-15T11:06:06Z</time>
      </trkpt>
      <trkpt lat="40.671014" lon="-3.642816">
        <ele>707.397</ele>
        <time>2015-02-15T11:06:08Z</time>
      </trkpt>
      <trkpt lat="40.670998" lon="-3.642754">
        <ele>707.223</ele>
        <time>2015-02-15T11:06:09Z</time>
      </trkpt>
      <trkpt lat="40.670966" lon="-3.642636">
        <ele>707.125</ele>
        <time>2015-02-15T11:06:11Z</time>
      </trkpt>
      <trkpt lat="40.670948" lon="-3.642581">
        <ele>707.107</ele>
        <time>2015-02-15T11:06:12Z</time>
      </trkpt>
      <trkpt lat="40.670941" lon="-3.642530">
        <ele>707.037</ele>
        <time>2015-02-15T11:06:13Z</time>
      </trkpt>
      <trkpt lat="40.670937" lon="-3.642472">
        <ele>707.057</ele>
        <time>2015-02-15T11:06:14Z</time>
      </trkpt>
      <trkpt lat="40.670907" lon="-3.642249">
        <ele>706.896</ele>
        <time>2015-02-15T11:06:18Z</time>
      </trkpt>
      <trkpt lat="40.670892" lon="-3.642193">
        <ele>706.890</ele>
        <time>2015-02-15T11:06:19Z</time>
      </trkpt>
      <trkpt lat="40.670878" lon="-3.642130">
        <ele>706.759</ele>
        <time>2015-02-15T11:06:20Z</time>
      </trkpt>
      <trkpt lat="40.670873" lon="-3.642062">
        <ele>706.775</ele>
        <time>2015-02-15T11:06:21Z</time>
      </trkpt>
      <trkpt lat="40.670887" lon="-3.641910">
        <ele>706.616</ele>
        <time>2015-02-15T11:06:22Z</time>
      </trkpt>
      <trkpt lat="40.670897" lon="-3.641745">
        <ele>706.527</ele>
        <time>2015-02-15T11:06:24Z</time>
      </trkpt>
      <trkpt lat="40.670895" lon="-3.641476">
        <ele>706.268</ele>
        <time>2015-02-15T11:06:27Z</time>
      </trkpt>
      <trkpt lat="40.670899" lon="-3.641399">
        <ele>706.114</ele>
        <time>2015-02-15T11:06:28Z</time>
      </trkpt>
      <trkpt lat="40.670906" lon="-3.641260">
        <ele>706.007</ele>
        <time>2015-02-15T11:06:30Z</time>
      </trkpt>
      <trkpt lat="40.670898" lon="-3.641198">
        <ele>706.030</ele>
        <time>2015-02-15T11:06:31Z</time>
      </trkpt>
      <trkpt lat="40.670885" lon="-3.641145">
        <ele>705.930</ele>
        <time>2015-02-15T11:06:32Z</time>
      </trkpt>
      <trkpt lat="40.670859" lon="-3.640995">
        <ele>705.899</ele>
        <time>2015-02-15T11:06:35Z</time>
      </trkpt>
      <trkpt lat="40.670840" lon="-3.640950">
        <ele>705.723</ele>
        <time>2015-02-15T11:06:36Z</time>
      </trkpt>
      <trkpt lat="40.670820" lon="-3.640903">
        <ele>705.712</ele>
        <time>2015-02-15T11:06:37Z</time>
      </trkpt>
      <trkpt lat="40.670800" lon="-3.640863">
        <ele>705.748</ele>
        <time>2015-02-15T11:06:38Z</time>
      </trkpt>
      <trkpt lat="40.670780" lon="-3.640833">
        <ele>705.739</ele>
        <time>2015-02-15T11:06:39Z</time>
      </trkpt>
      <trkpt lat="40.670722" lon="-3.640739">
        <ele>705.776</ele>
        <time>2015-02-15T11:06:42Z</time>
      </trkpt>
      <trkpt lat="40.670697" lon="-3.640721">
        <ele>705.690</ele>
        <time>2015-02-15T11:06:43Z</time>
      </trkpt>
      <trkpt lat="40.670657" lon="-3.640673">
        <ele>705.619</ele>
        <time>2015-02-15T11:06:45Z</time>
      </trkpt>
      <trkpt lat="40.670640" lon="-3.640648">
        <ele>705.507</ele>
        <time>2015-02-15T11:06:46Z</time>
      </trkpt>
      <trkpt lat="40.670591" lon="-3.640593">
        <ele>705.545</ele>
        <time>2015-02-15T11:06:48Z</time>
      </trkpt>
      <trkpt lat="40.670571" lon="-3.640578">
        <ele>705.565</ele>
        <time>2015-02-15T11:06:49Z</time>
      </trkpt>
      <trkpt lat="40.670524" lon="-3.640551">
        <ele>705.594</ele>
        <time>2015-02-15T11:06:51Z</time>
      </trkpt>
      <trkpt lat="40.670480" lon="-3.640531">
        <ele>705.668</ele>
        <time>2015-02-15T11:06:53Z</time>
      </trkpt>
      <trkpt lat="40.670450" lon="-3.640531">
        <ele>705.637</ele>
        <time>2015-02-15T11:06:54Z</time>
      </trkpt>
      <trkpt lat="40.670429" lon="-3.640533">
        <ele>705.763</ele>
        <time>2015-02-15T11:06:55Z</time>
      </trkpt>
      <trkpt lat="40.670399" lon="-3.640536">
        <ele>705.874</ele>
        <time>2015-02-15T11:06:56Z</time>
      </trkpt>
      <trkpt lat="40.670362" lon="-3.640542">
        <ele>705.881</ele>
        <time>2015-02-15T11:06:58Z</time>
      </trkpt>
      <trkpt lat="40.670333" lon="-3.640541">
        <ele>705.961</ele>
        <time>2015-02-15T11:06:58Z</time>
      </trkpt>
      <trkpt lat="40.670286" lon="-3.640546">
        <ele>705.917</ele>
        <time>2015-02-15T11:06:59Z</time>
      </trkpt>
      <trkpt lat="40.670200" lon="-3.640518">
        <ele>706.007</ele>
        <time>2015-02-15T11:07:02Z</time>
      </trkpt>
      <trkpt lat="40.670113" lon="-3.640500">
        <ele>706.166</ele>
        <time>2015-02-15T11:07:04Z</time>
      </trkpt>
      <trkpt lat="40.670076" lon="-3.640504">
        <ele>706.296</ele>
        <time>2015-02-15T11:07:05Z</time>
      </trkpt>
      <trkpt lat="40.670035" lon="-3.640511">
        <ele>706.295</ele>
        <time>2015-02-15T11:07:06Z</time>
      </trkpt>
      <trkpt lat="40.669995" lon="-3.640528">
        <ele>706.389</ele>
        <time>2015-02-15T11:07:07Z</time>
      </trkpt>
      <trkpt lat="40.669963" lon="-3.640550">
        <ele>706.448</ele>
        <time>2015-02-15T11:07:08Z</time>
      </trkpt>
      <trkpt lat="40.669900" lon="-3.640579">
        <ele>706.534</ele>
        <time>2015-02-15T11:07:10Z</time>
      </trkpt>
      <trkpt lat="40.669869" lon="-3.640586">
        <ele>706.655</ele>
        <time>2015-02-15T11:07:11Z</time>
      </trkpt>
      <trkpt lat="40.669805" lon="-3.640608">
        <ele>706.828</ele>
        <time>2015-02-15T11:07:13Z</time>
      </trkpt>
      <trkpt lat="40.669736" lon="-3.640629">
        <ele>706.889</ele>
        <time>2015-02-15T11:07:14Z</time>
      </trkpt>
      <trkpt lat="40.669693" lon="-3.640631">
        <ele>706.917</ele>
        <time>2015-02-15T11:07:15Z</time>
      </trkpt>
      <trkpt lat="40.669644" lon="-3.640633">
        <ele>706.907</ele>
        <time>2015-02-15T11:07:16Z</time>
      </trkpt>
      <trkpt lat="40.669591" lon="-3.640627">
        <ele>707.060</ele>
        <time>2015-02-15T11:07:17Z</time>
      </trkpt>
      <trkpt lat="40.669539" lon="-3.640613">
        <ele>707.080</ele>
        <time>2015-02-15T11:07:18Z</time>
      </trkpt>
      <trkpt lat="40.669485" lon="-3.640606">
        <ele>707.139</ele>
        <time>2015-02-15T11:07:19Z</time>
      </trkpt>
      <trkpt lat="40.669437" lon="-3.640611">
        <ele>707.123</ele>
        <time>2015-02-15T11:07:20Z</time>
      </trkpt>
      <trkpt lat="40.669395" lon="-3.640622">
        <ele>707.252</ele>
        <time>2015-02-15T11:07:21Z</time>
      </trkpt>
      <trkpt lat="40.669356" lon="-3.640624">
        <ele>707.328</ele>
        <time>2015-02-15T11:07:22Z</time>
      </trkpt>
      <trkpt lat="40.669320" lon="-3.640632">
        <ele>707.379</ele>
        <time>2015-02-15T11:07:23Z</time>
      </trkpt>
      <trkpt lat="40.669294" lon="-3.640637">
        <ele>707.418</ele>
        <time>2015-02-15T11:07:24Z</time>
      </trkpt>
      <trkpt lat="40.669263" lon="-3.640631">
        <ele>707.598</ele>
        <time>2015-02-15T11:07:25Z</time>
      </trkpt>
      <trkpt lat="40.669149" lon="-3.640626">
        <ele>707.817</ele>
        <time>2015-02-15T11:07:28Z</time>
      </trkpt>
      <trkpt lat="40.669107" lon="-3.640613">
        <ele>707.907</ele>
        <time>2015-02-15T11:07:29Z</time>
      </trkpt>
      <trkpt lat="40.668974" lon="-3.640589">
        <ele>708.259</ele>
        <time>2015-02-15T11:07:32Z</time>
      </trkpt>
      <trkpt lat="40.668877" lon="-3.640559">
        <ele>708.449</ele>
        <time>2015-02-15T11:07:34Z</time>
      </trkpt>
      <trkpt lat="40.668733" lon="-3.640489">
        <ele>708.658</ele>
        <time>2015-02-15T11:07:37Z</time>
      </trkpt>
      <trkpt lat="40.668639" lon="-3.640457">
        <ele>708.772</ele>
        <time>2015-02-15T11:07:39Z</time>
      </trkpt>
      <trkpt lat="40.668595" lon="-3.640459">
        <ele>708.711</ele>
        <time>2015-02-15T11:07:40Z</time>
      </trkpt>
      <trkpt lat="40.668550" lon="-3.640468">
        <ele>708.787</ele>
        <time>2015-02-15T11:07:41Z</time>
      </trkpt>
      <trkpt lat="40.668416" lon="-3.640489">
        <ele>708.818</ele>
        <time>2015-02-15T11:07:44Z</time>
      </trkpt>
      <trkpt lat="40.668375" lon="-3.640490">
        <ele>708.974</ele>
        <time>2015-02-15T11:07:45Z</time>
      </trkpt>
      <trkpt lat="40.668303" lon="-3.640480">
        <ele>708.956</ele>
        <time>2015-02-15T11:07:47Z</time>
      </trkpt>
      <trkpt lat="40.668270" lon="-3.640463">
        <ele>708.921</ele>
        <time>2015-02-15T11:07:48Z</time>
      </trkpt>
      <trkpt lat="40.668231" lon="-3.640447">
        <ele>708.907</ele>
        <time>2015-02-15T11:07:49Z</time>
      </trkpt>
      <trkpt lat="40.668150" lon="-3.640423">
        <ele>708.885</ele>
        <time>2015-02-15T11:07:51Z</time>
      </trkpt>
      <trkpt lat="40.668109" lon="-3.640420">
        <ele>708.825</ele>
        <time>2015-02-15T11:07:52Z</time>
      </trkpt>
      <trkpt lat="40.668030" lon="-3.640398">
        <ele>708.664</ele>
        <time>2015-02-15T11:07:54Z</time>
      </trkpt>
      <trkpt lat="40.667981" lon="-3.640390">
        <ele>708.598</ele>
        <time>2015-02-15T11:07:55Z</time>
      </trkpt>
      <trkpt lat="40.667878" lon="-3.640351">
        <ele>708.417</ele>
        <time>2015-02-15T11:07:57Z</time>
      </trkpt>
      <trkpt lat="40.667836" lon="-3.640300">
        <ele>708.363</ele>
        <time>2015-02-15T11:07:58Z</time>
      </trkpt>
      <trkpt lat="40.667796" lon="-3.640240">
        <ele>708.264</ele>
        <time>2015-02-15T11:07:59Z</time>
      </trkpt>
      <trkpt lat="40.667726" lon="-3.640109">
        <ele>708.112</ele>
        <time>2015-02-15T11:08:01Z</time>
      </trkpt>
      <trkpt lat="40.667645" lon="-3.639980">
        <ele>707.932</ele>
        <time>2015-02-15T11:08:03Z</time>
      </trkpt>
      <trkpt lat="40.667511" lon="-3.639830">
        <ele>707.605</ele>
        <time>2015-02-15T11:08:06Z</time>
      </trkpt>
      <trkpt lat="40.667458" lon="-3.639783">
        <ele>707.507</ele>
        <time>2015-02-15T11:08:07Z</time>
      </trkpt>
      <trkpt lat="40.667353" lon="-3.639708">
        <ele>707.239</ele>
        <time>2015-02-15T11:08:10Z</time>
      </trkpt>
      <trkpt lat="40.667293" lon="-3.639717">
        <ele>707.189</ele>
        <time>2015-02-15T11:08:11Z</time>
      </trkpt>
      <trkpt lat="40.667181" lon="-3.639735">
        <ele>706.848</ele>
        <time>2015-02-15T11:08:13Z</time>
      </trkpt>
      <trkpt lat="40.667136" lon="-3.639752">
        <ele>706.622</ele>
        <time>2015-02-15T11:08:14Z</time>
      </trkpt>
      <trkpt lat="40.667097" lon="-3.639772">
        <ele>706.551</ele>
        <time>2015-02-15T11:08:15Z</time>
      </trkpt>
      <trkpt lat="40.667030" lon="-3.639811">
        <ele>706.287</ele>
        <time>2015-02-15T11:08:17Z</time>
      </trkpt>
      <trkpt lat="40.666993" lon="-3.639843">
        <ele>706.168</ele>
        <time>2015-02-15T11:08:18Z</time>
      </trkpt>
      <trkpt lat="40.666925" lon="-3.639918">
        <ele>705.952</ele>
        <time>2015-02-15T11:08:20Z</time>
      </trkpt>
      <trkpt lat="40.666894" lon="-3.639957">
        <ele>705.853</ele>
        <time>2015-02-15T11:08:21Z</time>
      </trkpt>
      <trkpt lat="40.666865" lon="-3.639995">
        <ele>705.608</ele>
        <time>2015-02-15T11:08:22Z</time>
      </trkpt>
      <trkpt lat="40.666842" lon="-3.640026">
        <ele>705.507</ele>
        <time>2015-02-15T11:08:23Z</time>
      </trkpt>
      <trkpt lat="40.666796" lon="-3.640074">
        <ele>705.273</ele>
        <time>2015-02-15T11:08:25Z</time>
      </trkpt>
      <trkpt lat="40.666770" lon="-3.640088">
        <ele>705.133</ele>
        <time>2015-02-15T11:08:26Z</time>
      </trkpt>
      <trkpt lat="40.666721" lon="-3.640133">
        <ele>704.852</ele>
        <time>2015-02-15T11:08:28Z</time>
      </trkpt>
      <trkpt lat="40.666706" lon="-3.640160">
        <ele>704.756</ele>
        <time>2015-02-15T11:08:29Z</time>
      </trkpt>
      <trkpt lat="40.666669" lon="-3.640222">
        <ele>704.595</ele>
        <time>2015-02-15T11:08:30Z</time>
      </trkpt>
      <trkpt lat="40.666620" lon="-3.640282">
        <ele>704.291</ele>
        <time>2015-02-15T11:08:32Z</time>
      </trkpt>
      <trkpt lat="40.666590" lon="-3.640311">
        <ele>704.142</ele>
        <time>2015-02-15T11:08:33Z</time>
      </trkpt>
      <trkpt lat="40.666552" lon="-3.640329">
        <ele>703.956</ele>
        <time>2015-02-15T11:08:34Z</time>
      </trkpt>
      <trkpt lat="40.666510" lon="-3.640350">
        <ele>703.759</ele>
        <time>2015-02-15T11:08:35Z</time>
      </trkpt>
      <trkpt lat="40.666466" lon="-3.640367">
        <ele>703.514</ele>
        <time>2015-02-15T11:08:36Z</time>
      </trkpt>
      <trkpt lat="40.666418" lon="-3.640392">
        <ele>703.407</ele>
        <time>2015-02-15T11:08:37Z</time>
      </trkpt>
      <trkpt lat="40.666364" lon="-3.640416">
        <ele>703.273</ele>
        <time>2015-02-15T11:08:38Z</time>
      </trkpt>
      <trkpt lat="40.666261" lon="-3.640456">
        <ele>702.873</ele>
        <time>2015-02-15T11:08:40Z</time>
      </trkpt>
      <trkpt lat="40.666166" lon="-3.640495">
        <ele>702.482</ele>
        <time>2015-02-15T11:08:42Z</time>
      </trkpt>
      <trkpt lat="40.666119" lon="-3.640507">
        <ele>702.296</ele>
        <time>2015-02-15T11:08:43Z</time>
      </trkpt>
      <trkpt lat="40.666033" lon="-3.640532">
        <ele>701.855</ele>
        <time>2015-02-15T11:08:45Z</time>
      </trkpt>
      <trkpt lat="40.665995" lon="-3.640559">
        <ele>701.661</ele>
        <time>2015-02-15T11:08:46Z</time>
      </trkpt>
      <trkpt lat="40.665972" lon="-3.640589">
        <ele>701.442</ele>
        <time>2015-02-15T11:08:47Z</time>
      </trkpt>
      <trkpt lat="40.665947" lon="-3.640615">
        <ele>701.273</ele>
        <time>2015-02-15T11:08:48Z</time>
      </trkpt>
      <trkpt lat="40.665923" lon="-3.640657">
        <ele>701.085</ele>
        <time>2015-02-15T11:08:49Z</time>
      </trkpt>
      <trkpt lat="40.665899" lon="-3.640701">
        <ele>700.913</ele>
        <time>2015-02-15T11:08:50Z</time>
      </trkpt>
      <trkpt lat="40.665843" lon="-3.640771">
        <ele>700.607</ele>
        <time>2015-02-15T11:08:52Z</time>
      </trkpt>
      <trkpt lat="40.665815" lon="-3.640798">
        <ele>700.455</ele>
        <time>2015-02-15T11:08:53Z</time>
      </trkpt>
      <trkpt lat="40.665711" lon="-3.640911">
        <ele>700.025</ele>
        <time>2015-02-15T11:08:57Z</time>
      </trkpt>
      <trkpt lat="40.665690" lon="-3.640948">
        <ele>699.964</ele>
        <time>2015-02-15T11:08:58Z</time>
      </trkpt>
      <trkpt lat="40.665620" lon="-3.641051">
        <ele>699.728</ele>
        <time>2015-02-15T11:09:01Z</time>
      </trkpt>
      <trkpt lat="40.665548" lon="-3.641152">
        <ele>699.477</ele>
        <time>2015-02-15T11:09:04Z</time>
      </trkpt>
      <trkpt lat="40.665506" lon="-3.641224">
        <ele>699.333</ele>
        <time>2015-02-15T11:09:06Z</time>
      </trkpt>
      <trkpt lat="40.665451" lon="-3.641334">
        <ele>699.254</ele>
        <time>2015-02-15T11:09:09Z</time>
      </trkpt>
      <trkpt lat="40.665392" lon="-3.641431">
        <ele>699.334</ele>
        <time>2015-02-15T11:09:12Z</time>
      </trkpt>
      <trkpt lat="40.665366" lon="-3.641442">
        <ele>699.355</ele>
        <time>2015-02-15T11:09:13Z</time>
      </trkpt>
      <trkpt lat="40.665331" lon="-3.641446">
        <ele>699.310</ele>
        <time>2015-02-15T11:09:14Z</time>
      </trkpt>
      <trkpt lat="40.665297" lon="-3.641450">
        <ele>699.307</ele>
        <time>2015-02-15T11:09:15Z</time>
      </trkpt>
      <trkpt lat="40.665233" lon="-3.641470">
        <ele>699.211</ele>
        <time>2015-02-15T11:09:17Z</time>
      </trkpt>
      <trkpt lat="40.665198" lon="-3.641489">
        <ele>699.261</ele>
        <time>2015-02-15T11:09:18Z</time>
      </trkpt>
      <trkpt lat="40.665167" lon="-3.641509">
        <ele>699.220</ele>
        <time>2015-02-15T11:09:19Z</time>
      </trkpt>
      <trkpt lat="40.665068" lon="-3.641575">
        <ele>699.244</ele>
        <time>2015-02-15T11:09:22Z</time>
      </trkpt>
      <trkpt lat="40.665005" lon="-3.641620">
        <ele>699.273</ele>
        <time>2015-02-15T11:09:24Z</time>
      </trkpt>
      <trkpt lat="40.664943" lon="-3.641675">
        <ele>699.219</ele>
        <time>2015-02-15T11:09:26Z</time>
      </trkpt>
      <trkpt lat="40.664887" lon="-3.641740">
        <ele>699.210</ele>
        <time>2015-02-15T11:09:28Z</time>
      </trkpt>
      <trkpt lat="40.664860" lon="-3.641765">
        <ele>699.282</ele>
        <time>2015-02-15T11:09:29Z</time>
      </trkpt>
      <trkpt lat="40.664835" lon="-3.641788">
        <ele>699.243</ele>
        <time>2015-02-15T11:09:30Z</time>
      </trkpt>
      <trkpt lat="40.664752" lon="-3.641850">
        <ele>699.417</ele>
        <time>2015-02-15T11:09:34Z</time>
      </trkpt>
      <trkpt lat="40.664718" lon="-3.641865">
        <ele>699.507</ele>
        <time>2015-02-15T11:09:35Z</time>
      </trkpt>
      <trkpt lat="40.664677" lon="-3.641867">
        <ele>699.596</ele>
        <time>2015-02-15T11:09:36Z</time>
      </trkpt>
      <trkpt lat="40.664627" lon="-3.641867">
        <ele>699.616</ele>
        <time>2015-02-15T11:09:37Z</time>
      </trkpt>
      <trkpt lat="40.664569" lon="-3.641852">
        <ele>699.635</ele>
        <time>2015-02-15T11:09:38Z</time>
      </trkpt>
      <trkpt lat="40.664407" lon="-3.641820">
        <ele>699.829</ele>
        <time>2015-02-15T11:09:41Z</time>
      </trkpt>
      <trkpt lat="40.664368" lon="-3.641852">
        <ele>699.848</ele>
        <time>2015-02-15T11:09:42Z</time>
      </trkpt>
      <trkpt lat="40.664276" lon="-3.641922">
        <ele>699.934</ele>
        <time>2015-02-15T11:09:44Z</time>
      </trkpt>
      <trkpt lat="40.664215" lon="-3.641963">
        <ele>700.075</ele>
        <time>2015-02-15T11:09:46Z</time>
      </trkpt>
      <trkpt lat="40.664176" lon="-3.641984">
        <ele>700.071</ele>
        <time>2015-02-15T11:09:47Z</time>
      </trkpt>
      <trkpt lat="40.664096" lon="-3.642026">
        <ele>700.041</ele>
        <time>2015-02-15T11:09:49Z</time>
      </trkpt>
      <trkpt lat="40.664055" lon="-3.642055">
        <ele>700.015</ele>
        <time>2015-02-15T11:09:50Z</time>
      </trkpt>
      <trkpt lat="40.663917" lon="-3.642132">
        <ele>699.907</ele>
        <time>2015-02-15T11:09:53Z</time>
      </trkpt>
      <trkpt lat="40.663813" lon="-3.642190">
        <ele>699.725</ele>
        <time>2015-02-15T11:09:55Z</time>
      </trkpt>
      <trkpt lat="40.663753" lon="-3.642219">
        <ele>699.665</ele>
        <time>2015-02-15T11:09:56Z</time>
      </trkpt>
      <trkpt lat="40.663586" lon="-3.642307">
        <ele>699.444</ele>
        <time>2015-02-15T11:09:59Z</time>
      </trkpt>
      <trkpt lat="40.663491" lon="-3.642351">
        <ele>699.368</ele>
        <time>2015-02-15T11:10:01Z</time>
      </trkpt>
      <trkpt lat="40.663448" lon="-3.642363">
        <ele>699.227</ele>
        <time>2015-02-15T11:10:02Z</time>
      </trkpt>
      <trkpt lat="40.663410" lon="-3.642365">
        <ele>699.123</ele>
        <time>2015-02-15T11:10:03Z</time>
      </trkpt>
      <trkpt lat="40.663365" lon="-3.642362">
        <ele>699.044</ele>
        <time>2015-02-15T11:10:04Z</time>
      </trkpt>
      <trkpt lat="40.663324" lon="-3.642351">
        <ele>698.845</ele>
        <time>2015-02-15T11:10:05Z</time>
      </trkpt>
      <trkpt lat="40.663234" lon="-3.642326">
        <ele>698.547</ele>
        <time>2015-02-15T11:10:07Z</time>
      </trkpt>
      <trkpt lat="40.663181" lon="-3.642317">
        <ele>698.311</ele>
        <time>2015-02-15T11:10:08Z</time>
      </trkpt>
      <trkpt lat="40.663115" lon="-3.642318">
        <ele>698.107</ele>
        <time>2015-02-15T11:10:09Z</time>
      </trkpt>
      <trkpt lat="40.662993" lon="-3.642330">
        <ele>697.762</ele>
        <time>2015-02-15T11:10:11Z</time>
      </trkpt>
      <trkpt lat="40.662936" lon="-3.642339">
        <ele>697.562</ele>
        <time>2015-02-15T11:10:12Z</time>
      </trkpt>
      <trkpt lat="40.662881" lon="-3.642339">
        <ele>697.251</ele>
        <time>2015-02-15T11:10:13Z</time>
      </trkpt>
      <trkpt lat="40.662835" lon="-3.642354">
        <ele>697.015</ele>
        <time>2015-02-15T11:10:14Z</time>
      </trkpt>
      <trkpt lat="40.662787" lon="-3.642377">
        <ele>696.784</ele>
        <time>2015-02-15T11:10:15Z</time>
      </trkpt>
      <trkpt lat="40.662747" lon="-3.642408">
        <ele>696.570</ele>
        <time>2015-02-15T11:10:16Z</time>
      </trkpt>
      <trkpt lat="40.662704" lon="-3.642428">
        <ele>696.321</ele>
        <time>2015-02-15T11:10:17Z</time>
      </trkpt>
      <trkpt lat="40.662665" lon="-3.642435">
        <ele>696.043</ele>
        <time>2015-02-15T11:10:18Z</time>
      </trkpt>
      <trkpt lat="40.662620" lon="-3.642444">
        <ele>695.864</ele>
        <time>2015-02-15T11:10:19Z</time>
      </trkpt>
      <trkpt lat="40.662583" lon="-3.642451">
        <ele>695.510</ele>
        <time>2015-02-15T11:10:20Z</time>
      </trkpt>
      <trkpt lat="40.662557" lon="-3.642458">
        <ele>695.207</ele>
        <time>2015-02-15T11:10:21Z</time>
      </trkpt>
      <trkpt lat="40.662543" lon="-3.642461">
        <ele>694.982</ele>
        <time>2015-02-15T11:10:22Z</time>
      </trkpt>
      <trkpt lat="40.662533" lon="-3.642464">
        <ele>694.662</ele>
        <time>2015-02-15T11:10:23Z</time>
      </trkpt>
      <trkpt lat="40.662541" lon="-3.642457">
        <ele>693.871</ele>
        <time>2015-02-15T11:10:25Z</time>
      </trkpt>
      <trkpt lat="40.662539" lon="-3.642458">
        <ele>693.415</ele>
        <time>2015-02-15T11:10:27Z</time>
      </trkpt>
      <trkpt lat="40.662541" lon="-3.642457">
        <ele>692.654</ele>
        <time>2015-02-15T11:10:29Z</time>
      </trkpt>
      <trkpt lat="40.662542" lon="-3.642460">
        <ele>692.490</ele>
        <time>2015-02-15T11:10:30Z</time>
      </trkpt>
      <trkpt lat="40.662544" lon="-3.642461">
        <ele>692.181</ele>
        <time>2015-02-15T11:10:32Z</time>
      </trkpt>
      <trkpt lat="40.662545" lon="-3.642464">
        <ele>691.887</ele>
        <time>2015-02-15T11:10:33Z</time>
      </trkpt>
      <trkpt lat="40.662546" lon="-3.642463">
        <ele>691.542</ele>
        <time>2015-02-15T11:10:34Z</time>
      </trkpt>
      <trkpt lat="40.662546" lon="-3.642463">
        <ele>691.226</ele>
        <time>2015-02-15T11:10:35Z</time>
      </trkpt>
      <trkpt lat="40.662546" lon="-3.642463">
        <ele>690.607</ele>
        <time>2015-02-15T11:10:37Z</time>
      </trkpt>
      <trkpt lat="40.662546" lon="-3.642463">
        <ele>690.036</ele>
        <time>2015-02-15T11:10:39Z</time>
      </trkpt>
      <trkpt lat="40.662546" lon="-3.642463">
        <ele>689.586</ele>
        <time>2015-02-15T11:10:41Z</time>
      </trkpt>
      <trkpt lat="40.662546" lon="-3.642463">
        <ele>689.275</ele>
        <time>2015-02-15T11:10:42Z</time>
      </trkpt>
      <trkpt lat="40.662546" lon="-3.642463">
        <ele>688.559</ele>
        <time>2015-02-15T11:10:45Z</time>
      </trkpt>
      <trkpt lat="40.662546" lon="-3.642463">
        <ele>687.838</ele>
        <time>2015-02-15T11:10:48Z</time>
      </trkpt>
      <trkpt lat="40.662546" lon="-3.642463">
        <ele>687.274</ele>
        <time>2015-02-15T11:10:51Z</time>
      </trkpt>
      <trkpt lat="40.662546" lon="-3.642463">
        <ele>686.685</ele>
        <time>2015-02-15T11:10:54Z</time>
      </trkpt>
      <trkpt lat="40.662546" lon="-3.642463">
        <ele>686.133</ele>
        <time>2015-02-15T11:10:57Z</time>
      </trkpt>
      <trkpt lat="40.662546" lon="-3.642463">
        <ele>685.623</ele>
        <time>2015-02-15T11:11:00Z</time>
      </trkpt>
      <trkpt lat="40.662546" lon="-3.642463">
        <ele>685.115</ele>
        <time>2015-02-15T11:11:03Z</time>
      </trkpt>
      <trkpt lat="40.662546" lon="-3.642463">
        <ele>684.607</ele>
        <time>2015-02-15T11:11:06Z</time>
      </trkpt>
      <trkpt lat="40.662546" lon="-3.642463">
        <ele>684.331</ele>
        <time>2015-02-15T11:11:09Z</time>
      </trkpt>
      <trkpt lat="40.662546" lon="-3.642463">
        <ele>684.181</ele>
        <time>2015-02-15T11:11:12Z</time>
      </trkpt>
      <trkpt lat="40.662546" lon="-3.642462">
        <ele>683.850</ele>
        <time>2015-02-15T11:11:16Z</time>
      </trkpt>
      <trkpt lat="40.662546" lon="-3.642462">
        <ele>683.794</ele>
        <time>2015-02-15T11:11:19Z</time>
      </trkpt>
      <trkpt lat="40.662546" lon="-3.642463">
        <ele>683.793</ele>
        <time>2015-02-15T11:11:22Z</time>
      </trkpt>
      <trkpt lat="40.662546" lon="-3.642462">
        <ele>683.739</ele>
        <time>2015-02-15T11:11:25Z</time>
      </trkpt>
      <trkpt lat="40.662546" lon="-3.642463">
        <ele>683.780</ele>
        <time>2015-02-15T11:11:28Z</time>
      </trkpt>
      <trkpt lat="40.662546" lon="-3.642463">
        <ele>683.788</ele>
        <time>2015-02-15T11:11:31Z</time>
      </trkpt>
      <trkpt lat="40.662546" lon="-3.642462">
        <ele>683.724</ele>
        <time>2015-02-15T11:11:34Z</time>
      </trkpt>
      <trkpt lat="40.662546" lon="-3.642462">
        <ele>683.726</ele>
        <time>2015-02-15T11:11:37Z</time>
      </trkpt>
      <trkpt lat="40.662546" lon="-3.642462">
        <ele>683.707</ele>
        <time>2015-02-15T11:11:40Z</time>
      </trkpt>
      <trkpt lat="40.662546" lon="-3.642462">
        <ele>683.716</ele>
        <time>2015-02-15T11:11:43Z</time>
      </trkpt>
      <trkpt lat="40.662546" lon="-3.642462">
        <ele>683.736</ele>
        <time>2015-02-15T11:11:46Z</time>
      </trkpt>
      <trkpt lat="40.662546" lon="-3.642462">
        <ele>683.745</ele>
        <time>2015-02-15T11:11:50Z</time>
      </trkpt>
      <trkpt lat="40.662546" lon="-3.642462">
        <ele>683.799</ele>
        <time>2015-02-15T11:11:53Z</time>
      </trkpt>
      <trkpt lat="40.662546" lon="-3.642462">
        <ele>683.728</ele>
        <time>2015-02-15T11:11:56Z</time>
      </trkpt>
      <trkpt lat="40.662546" lon="-3.642462">
        <ele>683.774</ele>
        <time>2015-02-15T11:11:59Z</time>
      </trkpt>
      <trkpt lat="40.662546" lon="-3.642462">
        <ele>683.745</ele>
        <time>2015-02-15T11:12:02Z</time>
      </trkpt>
      <trkpt lat="40.662546" lon="-3.642462">
        <ele>683.762</ele>
        <time>2015-02-15T11:12:05Z</time>
      </trkpt>
      <trkpt lat="40.662546" lon="-3.642462">
        <ele>683.783</ele>
        <time>2015-02-15T11:12:08Z</time>
      </trkpt>
      <trkpt lat="40.662546" lon="-3.642462">
        <ele>683.711</ele>
        <time>2015-02-15T11:12:12Z</time>
      </trkpt>
      <trkpt lat="40.662546" lon="-3.642462">
        <ele>683.707</ele>
        <time>2015-02-15T11:12:15Z</time>
      </trkpt>
      <trkpt lat="40.662555" lon="-3.642447">
        <ele>683.754</ele>
        <time>2015-02-15T11:12:18Z</time>
      </trkpt>
      <trkpt lat="40.662545" lon="-3.642453">
        <ele>683.814</ele>
        <time>2015-02-15T11:12:19Z</time>
      </trkpt>
      <trkpt lat="40.662508" lon="-3.642486">
        <ele>683.833</ele>
        <time>2015-02-15T11:12:22Z</time>
      </trkpt>
      <trkpt lat="40.662487" lon="-3.642502">
        <ele>683.947</ele>
        <time>2015-02-15T11:12:23Z</time>
      </trkpt>
      <trkpt lat="40.662446" lon="-3.642524">
        <ele>683.956</ele>
        <time>2015-02-15T11:12:25Z</time>
      </trkpt>
      <trkpt lat="40.662418" lon="-3.642524">
        <ele>683.972</ele>
        <time>2015-02-15T11:12:26Z</time>
      </trkpt>
      <trkpt lat="40.662391" lon="-3.642517">
        <ele>683.973</ele>
        <time>2015-02-15T11:12:27Z</time>
      </trkpt>
      <trkpt lat="40.662335" lon="-3.642493">
        <ele>683.948</ele>
        <time>2015-02-15T11:12:28Z</time>
      </trkpt>
      <trkpt lat="40.662308" lon="-3.642471">
        <ele>683.961</ele>
        <time>2015-02-15T11:12:29Z</time>
      </trkpt>
      <trkpt lat="40.662280" lon="-3.642441">
        <ele>683.917</ele>
        <time>2015-02-15T11:12:30Z</time>
      </trkpt>
      <trkpt lat="40.662255" lon="-3.642403">
        <ele>683.907</ele>
        <time>2015-02-15T11:12:31Z</time>
      </trkpt>
      <trkpt lat="40.662233" lon="-3.642356">
        <ele>683.912</ele>
        <time>2015-02-15T11:12:32Z</time>
      </trkpt>
      <trkpt lat="40.662217" lon="-3.642301">
        <ele>683.992</ele>
        <time>2015-02-15T11:12:33Z</time>
      </trkpt>
      <trkpt lat="40.662197" lon="-3.642251">
        <ele>683.951</ele>
        <time>2015-02-15T11:12:34Z</time>
      </trkpt>
      <trkpt lat="40.662176" lon="-3.642205">
        <ele>683.945</ele>
        <time>2015-02-15T11:12:35Z</time>
      </trkpt>
      <trkpt lat="40.662149" lon="-3.642170">
        <ele>683.974</ele>
        <time>2015-02-15T11:12:36Z</time>
      </trkpt>
      <trkpt lat="40.662122" lon="-3.642150">
        <ele>683.970</ele>
        <time>2015-02-15T11:12:37Z</time>
      </trkpt>
      <trkpt lat="40.662094" lon="-3.642149">
        <ele>683.931</ele>
        <time>2015-02-15T11:12:38Z</time>
      </trkpt>
      <trkpt lat="40.662043" lon="-3.642128">
        <ele>683.935</ele>
        <time>2015-02-15T11:12:40Z</time>
      </trkpt>
      <trkpt lat="40.662012" lon="-3.642123">
        <ele>683.986</ele>
        <time>2015-02-15T11:12:41Z</time>
      </trkpt>
      <trkpt lat="40.661920" lon="-3.642107">
        <ele>683.914</ele>
        <time>2015-02-15T11:12:44Z</time>
      </trkpt>
      <trkpt lat="40.661890" lon="-3.642108">
        <ele>683.907</ele>
        <time>2015-02-15T11:12:45Z</time>
      </trkpt>
      <trkpt lat="40.661799" lon="-3.642116">
        <ele>683.861</ele>
        <time>2015-02-15T11:12:48Z</time>
      </trkpt>
      <trkpt lat="40.661739" lon="-3.642115">
        <ele>683.821</ele>
        <time>2015-02-15T11:12:50Z</time>
      </trkpt>
      <trkpt lat="40.661715" lon="-3.642111">
        <ele>683.850</ele>
        <time>2015-02-15T11:12:51Z</time>
      </trkpt>
      <trkpt lat="40.661648" lon="-3.642127">
        <ele>683.894</ele>
        <time>2015-02-15T11:12:54Z</time>
      </trkpt>
      <trkpt lat="40.661579" lon="-3.642148">
        <ele>683.843</ele>
        <time>2015-02-15T11:12:57Z</time>
      </trkpt>
      <trkpt lat="40.661563" lon="-3.642155">
        <ele>683.849</ele>
        <time>2015-02-15T11:12:58Z</time>
      </trkpt>
      <trkpt lat="40.661538" lon="-3.642161">
        <ele>683.870</ele>
        <time>2015-02-15T11:13:00Z</time>
      </trkpt>
      <trkpt lat="40.661528" lon="-3.642161">
        <ele>683.861</ele>
        <time>2015-02-15T11:13:02Z</time>
      </trkpt>
      <trkpt lat="40.661527" lon="-3.642161">
        <ele>683.821</ele>
        <time>2015-02-15T11:13:04Z</time>
      </trkpt>
      <trkpt lat="40.661527" lon="-3.642161">
        <ele>683.813</ele>
        <time>2015-02-15T11:13:06Z</time>
      </trkpt>
      <trkpt lat="40.661526" lon="-3.642160">
        <ele>683.807</ele>
        <time>2015-02-15T11:13:08Z</time>
      </trkpt>
      <trkpt lat="40.661526" lon="-3.642160">
        <ele>683.994</ele>
        <time>2015-02-15T11:13:10Z</time>
      </trkpt>
      <trkpt lat="40.661515" lon="-3.642150">
        <ele>683.984</ele>
        <time>2015-02-15T11:13:12Z</time>
      </trkpt>
      <trkpt lat="40.661487" lon="-3.642129">
        <ele>683.973</ele>
        <time>2015-02-15T11:13:15Z</time>
      </trkpt>
      <trkpt lat="40.661469" lon="-3.642136">
        <ele>683.927</ele>
        <time>2015-02-15T11:13:17Z</time>
      </trkpt>
      <trkpt lat="40.661446" lon="-3.642156">
        <ele>683.886</ele>
        <time>2015-02-15T11:13:20Z</time>
      </trkpt>
      <trkpt lat="40.661423" lon="-3.642159">
        <ele>683.662</ele>
        <time>2015-02-15T11:13:24Z</time>
      </trkpt>
      <trkpt lat="40.661426" lon="-3.642160">
        <ele>683.573</ele>
        <time>2015-02-15T11:13:26Z</time>
      </trkpt>
      <trkpt lat="40.661419" lon="-3.642156">
        <ele>683.463</ele>
        <time>2015-02-15T11:13:27Z</time>
      </trkpt>
      <trkpt lat="40.661396" lon="-3.642141">
        <ele>683.244</ele>
        <time>2015-02-15T11:13:30Z</time>
      </trkpt>
      <trkpt lat="40.661366" lon="-3.642126">
        <ele>683.118</ele>
        <time>2015-02-15T11:13:34Z</time>
      </trkpt>
      <trkpt lat="40.661347" lon="-3.642124">
        <ele>682.907</ele>
        <time>2015-02-15T11:13:36Z</time>
      </trkpt>
      <trkpt lat="40.661339" lon="-3.642117">
        <ele>682.884</ele>
        <time>2015-02-15T11:13:38Z</time>
      </trkpt>
      <trkpt lat="40.661334" lon="-3.642112">
        <ele>682.694</ele>
        <time>2015-02-15T11:13:41Z</time>
      </trkpt>
      <trkpt lat="40.661310" lon="-3.642113">
        <ele>682.533</ele>
        <time>2015-02-15T11:13:42Z</time>
      </trkpt>
      <trkpt lat="40.661289" lon="-3.642111">
        <ele>682.467</ele>
        <time>2015-02-15T11:13:43Z</time>
      </trkpt>
      <trkpt lat="40.661244" lon="-3.642082">
        <ele>682.426</ele>
        <time>2015-02-15T11:13:44Z</time>
      </trkpt>
      <trkpt lat="40.661202" lon="-3.642060">
        <ele>682.352</ele>
        <time>2015-02-15T11:13:45Z</time>
      </trkpt>
      <trkpt lat="40.661152" lon="-3.642039">
        <ele>682.253</ele>
        <time>2015-02-15T11:13:46Z</time>
      </trkpt>
      <trkpt lat="40.661103" lon="-3.642023">
        <ele>682.236</ele>
        <time>2015-02-15T11:13:47Z</time>
      </trkpt>
      <trkpt lat="40.661046" lon="-3.642014">
        <ele>682.117</ele>
        <time>2015-02-15T11:13:48Z</time>
      </trkpt>
      <trkpt lat="40.660916" lon="-3.641990">
        <ele>681.918</ele>
        <time>2015-02-15T11:13:49Z</time>
      </trkpt>
      <trkpt lat="40.660855" lon="-3.641975">
        <ele>681.807</ele>
        <time>2015-02-15T11:13:50Z</time>
      </trkpt>
      <trkpt lat="40.660801" lon="-3.641968">
        <ele>681.671</ele>
        <time>2015-02-15T11:13:51Z</time>
      </trkpt>
      <trkpt lat="40.660751" lon="-3.641973">
        <ele>681.521</ele>
        <time>2015-02-15T11:13:52Z</time>
      </trkpt>
      <trkpt lat="40.660697" lon="-3.641984">
        <ele>681.390</ele>
        <time>2015-02-15T11:13:53Z</time>
      </trkpt>
      <trkpt lat="40.660581" lon="-3.642016">
        <ele>680.944</ele>
        <time>2015-02-15T11:13:55Z</time>
      </trkpt>
      <trkpt lat="40.660458" lon="-3.642065">
        <ele>680.593</ele>
        <time>2015-02-15T11:13:57Z</time>
      </trkpt>
      <trkpt lat="40.660402" lon="-3.642098">
        <ele>680.239</ele>
        <time>2015-02-15T11:13:58Z</time>
      </trkpt>
      <trkpt lat="40.660344" lon="-3.642127">
        <ele>679.930</ele>
        <time>2015-02-15T11:13:59Z</time>
      </trkpt>
      <trkpt lat="40.660287" lon="-3.642152">
        <ele>679.655</ele>
        <time>2015-02-15T11:14:00Z</time>
      </trkpt>
      <trkpt lat="40.660232" lon="-3.642183">
        <ele>679.307</ele>
        <time>2015-02-15T11:14:01Z</time>
      </trkpt>
      <trkpt lat="40.660181" lon="-3.642215">
        <ele>678.917</ele>
        <time>2015-02-15T11:14:02Z</time>
      </trkpt>
      <trkpt lat="40.660081" lon="-3.642274">
        <ele>678.207</ele>
        <time>2015-02-15T11:14:04Z</time>
      </trkpt>
      <trkpt lat="40.660028" lon="-3.642306">
        <ele>677.823</ele>
        <time>2015-02-15T11:14:05Z</time>
      </trkpt>
      <trkpt lat="40.659970" lon="-3.642342">
        <ele>677.333</ele>
        <time>2015-02-15T11:14:06Z</time>
      </trkpt>
      <trkpt lat="40.659903" lon="-3.642381">
        <ele>676.942</ele>
        <time>2015-02-15T11:14:07Z</time>
      </trkpt>
      <trkpt lat="40.659774" lon="-3.642457">
        <ele>675.966</ele>
        <time>2015-02-15T11:14:09Z</time>
      </trkpt>
      <trkpt lat="40.659595" lon="-3.642580">
        <ele>674.575</ele>
        <time>2015-02-15T11:14:12Z</time>
      </trkpt>
      <trkpt lat="40.659542" lon="-3.642608">
        <ele>674.061</ele>
        <time>2015-02-15T11:14:13Z</time>
      </trkpt>
      <trkpt lat="40.659420" lon="-3.642648">
        <ele>673.012</ele>
        <time>2015-02-15T11:14:15Z</time>
      </trkpt>
      <trkpt lat="40.659367" lon="-3.642650">
        <ele>672.568</ele>
        <time>2015-02-15T11:14:16Z</time>
      </trkpt>
      <trkpt lat="40.659265" lon="-3.642625">
        <ele>671.542</ele>
        <time>2015-02-15T11:14:18Z</time>
      </trkpt>
      <trkpt lat="40.659219" lon="-3.642595">
        <ele>670.926</ele>
        <time>2015-02-15T11:14:19Z</time>
      </trkpt>
      <trkpt lat="40.659181" lon="-3.642555">
        <ele>670.407</ele>
        <time>2015-02-15T11:14:20Z</time>
      </trkpt>
      <trkpt lat="40.659149" lon="-3.642504">
        <ele>669.964</ele>
        <time>2015-02-15T11:14:21Z</time>
      </trkpt>
      <trkpt lat="40.659127" lon="-3.642452">
        <ele>669.494</ele>
        <time>2015-02-15T11:14:22Z</time>
      </trkpt>
      <trkpt lat="40.659107" lon="-3.642405">
        <ele>668.953</ele>
        <time>2015-02-15T11:14:23Z</time>
      </trkpt>
      <trkpt lat="40.659083" lon="-3.642367">
        <ele>668.517</ele>
        <time>2015-02-15T11:14:24Z</time>
      </trkpt>
      <trkpt lat="40.659062" lon="-3.642336">
        <ele>668.016</ele>
        <time>2015-02-15T11:14:25Z</time>
      </trkpt>
      <trkpt lat="40.659033" lon="-3.642343">
        <ele>667.532</ele>
        <time>2015-02-15T11:14:26Z</time>
      </trkpt>
      <trkpt lat="40.659000" lon="-3.642331">
        <ele>667.043</ele>
        <time>2015-02-15T11:14:27Z</time>
      </trkpt>
      <trkpt lat="40.658972" lon="-3.642298">
        <ele>666.558</ele>
        <time>2015-02-15T11:14:28Z</time>
      </trkpt>
      <trkpt lat="40.658945" lon="-3.642271">
        <ele>665.952</ele>
        <time>2015-02-15T11:14:29Z</time>
      </trkpt>
      <trkpt lat="40.658925" lon="-3.642229">
        <ele>665.417</ele>
        <time>2015-02-15T11:14:30Z</time>
      </trkpt>
      <trkpt lat="40.658905" lon="-3.642190">
        <ele>665.007</ele>
        <time>2015-02-15T11:14:31Z</time>
      </trkpt>
      <trkpt lat="40.658873" lon="-3.642116">
        <ele>664.053</ele>
        <time>2015-02-15T11:14:33Z</time>
      </trkpt>
      <trkpt lat="40.658839" lon="-3.642034">
        <ele>663.013</ele>
        <time>2015-02-15T11:14:35Z</time>
      </trkpt>
      <trkpt lat="40.658781" lon="-3.641898">
        <ele>661.622</ele>
        <time>2015-02-15T11:14:38Z</time>
      </trkpt>
      <trkpt lat="40.658735" lon="-3.641833">
        <ele>660.626</ele>
        <time>2015-02-15T11:14:40Z</time>
      </trkpt>
      <trkpt lat="40.658675" lon="-3.641733">
        <ele>659.295</ele>
        <time>2015-02-15T11:14:43Z</time>
      </trkpt>
      <trkpt lat="40.658648" lon="-3.641670">
        <ele>658.241</ele>
        <time>2015-02-15T11:14:45Z</time>
      </trkpt>
      <trkpt lat="40.658616" lon="-3.641616">
        <ele>657.372</ele>
        <time>2015-02-15T11:14:47Z</time>
      </trkpt>
      <trkpt lat="40.658595" lon="-3.641591">
        <ele>656.828</ele>
        <time>2015-02-15T11:14:48Z</time>
      </trkpt>
      <trkpt lat="40.658521" lon="-3.641516">
        <ele>655.789</ele>
        <time>2015-02-15T11:14:51Z</time>
      </trkpt>
      <trkpt lat="40.658495" lon="-3.641503">
        <ele>655.317</ele>
        <time>2015-02-15T11:14:52Z</time>
      </trkpt>
      <trkpt lat="40.658468" lon="-3.641474">
        <ele>654.907</ele>
        <time>2015-02-15T11:14:53Z</time>
      </trkpt>
      <trkpt lat="40.658440" lon="-3.641446">
        <ele>654.570</ele>
        <time>2015-02-15T11:14:54Z</time>
      </trkpt>
      <trkpt lat="40.658412" lon="-3.641432">
        <ele>654.220</ele>
        <time>2015-02-15T11:14:56Z</time>
      </trkpt>
      <trkpt lat="40.658379" lon="-3.641426">
        <ele>653.989</ele>
        <time>2015-02-15T11:14:57Z</time>
      </trkpt>
      <trkpt lat="40.658348" lon="-3.641421">
        <ele>653.533</ele>
        <time>2015-02-15T11:14:58Z</time>
      </trkpt>
      <trkpt lat="40.658315" lon="-3.641411">
        <ele>653.252</ele>
        <time>2015-02-15T11:14:59Z</time>
      </trkpt>
      <trkpt lat="40.658284" lon="-3.641399">
        <ele>652.938</ele>
        <time>2015-02-15T11:15:00Z</time>
      </trkpt>
      <trkpt lat="40.658252" lon="-3.641374">
        <ele>652.799</ele>
        <time>2015-02-15T11:15:01Z</time>
      </trkpt>
      <trkpt lat="40.658226" lon="-3.641331">
        <ele>652.445</ele>
        <time>2015-02-15T11:15:02Z</time>
      </trkpt>
      <trkpt lat="40.658201" lon="-3.641289">
        <ele>652.247</ele>
        <time>2015-02-15T11:15:03Z</time>
      </trkpt>
      <trkpt lat="40.658161" lon="-3.641195">
        <ele>651.711</ele>
        <time>2015-02-15T11:15:05Z</time>
      </trkpt>
      <trkpt lat="40.658089" lon="-3.641048">
        <ele>651.207</ele>
        <time>2015-02-15T11:15:08Z</time>
      </trkpt>
      <trkpt lat="40.658044" lon="-3.640963">
        <ele>651.012</ele>
        <time>2015-02-15T11:15:09Z</time>
      </trkpt>
      <trkpt lat="40.658014" lon="-3.640947">
        <ele>650.992</ele>
        <time>2015-02-15T11:15:10Z</time>
      </trkpt>
      <trkpt lat="40.657989" lon="-3.640926">
        <ele>650.811</ele>
        <time>2015-02-15T11:15:11Z</time>
      </trkpt>
      <trkpt lat="40.657969" lon="-3.640921">
        <ele>650.695</ele>
        <time>2015-02-15T11:15:12Z</time>
      </trkpt>
      <trkpt lat="40.657926" lon="-3.640915">
        <ele>650.344</ele>
        <time>2015-02-15T11:15:14Z</time>
      </trkpt>
      <trkpt lat="40.657912" lon="-3.640904">
        <ele>650.210</ele>
        <time>2015-02-15T11:15:15Z</time>
      </trkpt>
      <trkpt lat="40.657896" lon="-3.640891">
        <ele>650.011</ele>
        <time>2015-02-15T11:15:16Z</time>
      </trkpt>
      <trkpt lat="40.657887" lon="-3.640874">
        <ele>649.963</ele>
        <time>2015-02-15T11:15:17Z</time>
      </trkpt>
      <trkpt lat="40.657893" lon="-3.640842">
        <ele>649.744</ele>
        <time>2015-02-15T11:15:18Z</time>
      </trkpt>
      <trkpt lat="40.657895" lon="-3.640814">
        <ele>649.618</ele>
        <time>2015-02-15T11:15:19Z</time>
      </trkpt>
      <trkpt lat="40.657900" lon="-3.640782">
        <ele>649.407</ele>
        <time>2015-02-15T11:15:20Z</time>
      </trkpt>
      <trkpt lat="40.657892" lon="-3.640681">
        <ele>649.024</ele>
        <time>2015-02-15T11:15:23Z</time>
      </trkpt>
      <trkpt lat="40.657892" lon="-3.640652">
        <ele>648.994</ele>
        <time>2015-02-15T11:15:24Z</time>
      </trkpt>
      <trkpt lat="40.657875" lon="-3.640597">
        <ele>648.633</ele>
        <time>2015-02-15T11:15:26Z</time>
      </trkpt>
      <trkpt lat="40.657863" lon="-3.640565">
        <ele>648.537</ele>
        <time>2015-02-15T11:15:27Z</time>
      </trkpt>
      <trkpt lat="40.657849" lon="-3.640536">
        <ele>648.496</ele>
        <time>2015-02-15T11:15:28Z</time>
      </trkpt>
      <trkpt lat="40.657814" lon="-3.640499">
        <ele>648.372</ele>
        <time>2015-02-15T11:15:29Z</time>
      </trkpt>
      <trkpt lat="40.657782" lon="-3.640459">
        <ele>648.233</ele>
        <time>2015-02-15T11:15:30Z</time>
      </trkpt>
      <trkpt lat="40.657695" lon="-3.640328">
        <ele>647.985</ele>
        <time>2015-02-15T11:15:33Z</time>
      </trkpt>
      <trkpt lat="40.657643" lon="-3.640247">
        <ele>647.789</ele>
        <time>2015-02-15T11:15:35Z</time>
      </trkpt>
      <trkpt lat="40.657622" lon="-3.640206">
        <ele>647.717</ele>
        <time>2015-02-15T11:15:36Z</time>
      </trkpt>
      <trkpt lat="40.657580" lon="-3.640080">
        <ele>647.607</ele>
        <time>2015-02-15T11:15:39Z</time>
      </trkpt>
      <trkpt lat="40.657574" lon="-3.640040">
        <ele>647.696</ele>
        <time>2015-02-15T11:15:40Z</time>
      </trkpt>
      <trkpt lat="40.657594" lon="-3.639978">
        <ele>647.666</ele>
        <time>2015-02-15T11:15:42Z</time>
      </trkpt>
      <trkpt lat="40.657612" lon="-3.639947">
        <ele>647.695</ele>
        <time>2015-02-15T11:15:43Z</time>
      </trkpt>
      <trkpt lat="40.657624" lon="-3.639912">
        <ele>647.599</ele>
        <time>2015-02-15T11:15:44Z</time>
      </trkpt>
      <trkpt lat="40.657666" lon="-3.639809">
        <ele>647.578</ele>
        <time>2015-02-15T11:15:47Z</time>
      </trkpt>
      <trkpt lat="40.657668" lon="-3.639770">
        <ele>647.564</ele>
        <time>2015-02-15T11:15:48Z</time>
      </trkpt>
      <trkpt lat="40.657666" lon="-3.639732">
        <ele>647.465</ele>
        <time>2015-02-15T11:15:49Z</time>
      </trkpt>
      <trkpt lat="40.657663" lon="-3.639693">
        <ele>647.475</ele>
        <time>2015-02-15T11:15:50Z</time>
      </trkpt>
      <trkpt lat="40.657649" lon="-3.639665">
        <ele>647.428</ele>
        <time>2015-02-15T11:15:51Z</time>
      </trkpt>
      <trkpt lat="40.657636" lon="-3.639628">
        <ele>647.320</ele>
        <time>2015-02-15T11:15:52Z</time>
      </trkpt>
      <trkpt lat="40.657626" lon="-3.639597">
        <ele>647.307</ele>
        <time>2015-02-15T11:15:53Z</time>
      </trkpt>
      <trkpt lat="40.657574" lon="-3.639500">
        <ele>647.265</ele>
        <time>2015-02-15T11:15:56Z</time>
      </trkpt>
      <trkpt lat="40.657522" lon="-3.639407">
        <ele>647.275</ele>
        <time>2015-02-15T11:15:59Z</time>
      </trkpt>
      <trkpt lat="40.657500" lon="-3.639374">
        <ele>647.254</ele>
        <time>2015-02-15T11:16:00Z</time>
      </trkpt>
      <trkpt lat="40.657467" lon="-3.639302">
        <ele>647.278</ele>
        <time>2015-02-15T11:16:02Z</time>
      </trkpt>
      <trkpt lat="40.657434" lon="-3.639220">
        <ele>647.377</ele>
        <time>2015-02-15T11:16:04Z</time>
      </trkpt>
      <trkpt lat="40.657422" lon="-3.639174">
        <ele>647.363</ele>
        <time>2015-02-15T11:16:05Z</time>
      </trkpt>
      <trkpt lat="40.657406" lon="-3.639079">
        <ele>647.424</ele>
        <time>2015-02-15T11:16:07Z</time>
      </trkpt>
      <trkpt lat="40.657393" lon="-3.638974">
        <ele>647.418</ele>
        <time>2015-02-15T11:16:09Z</time>
      </trkpt>
      <trkpt lat="40.657376" lon="-3.638922">
        <ele>647.498</ele>
        <time>2015-02-15T11:16:10Z</time>
      </trkpt>
      <trkpt lat="40.657357" lon="-3.638871">
        <ele>647.517</ele>
        <time>2015-02-15T11:16:12Z</time>
      </trkpt>
      <trkpt lat="40.657315" lon="-3.638775">
        <ele>647.707</ele>
        <time>2015-02-15T11:16:14Z</time>
      </trkpt>
      <trkpt lat="40.657267" lon="-3.638682">
        <ele>647.889</ele>
        <time>2015-02-15T11:16:16Z</time>
      </trkpt>
      <trkpt lat="40.657188" lon="-3.638560">
        <ele>648.129</ele>
        <time>2015-02-15T11:16:19Z</time>
      </trkpt>
      <trkpt lat="40.657096" lon="-3.638459">
        <ele>648.588</ele>
        <time>2015-02-15T11:16:22Z</time>
      </trkpt>
      <trkpt lat="40.657005" lon="-3.638350">
        <ele>648.722</ele>
        <time>2015-02-15T11:16:25Z</time>
      </trkpt>
      <trkpt lat="40.656950" lon="-3.638267">
        <ele>648.951</ele>
        <time>2015-02-15T11:16:27Z</time>
      </trkpt>
      <trkpt lat="40.656932" lon="-3.638215">
        <ele>649.017</ele>
        <time>2015-02-15T11:16:28Z</time>
      </trkpt>
      <trkpt lat="40.656895" lon="-3.638110">
        <ele>649.148</ele>
        <time>2015-02-15T11:16:29Z</time>
      </trkpt>
      <trkpt lat="40.656858" lon="-3.638011">
        <ele>649.343</ele>
        <time>2015-02-15T11:16:31Z</time>
      </trkpt>
      <trkpt lat="40.656807" lon="-3.637864">
        <ele>649.764</ele>
        <time>2015-02-15T11:16:34Z</time>
      </trkpt>
      <trkpt lat="40.656796" lon="-3.637808">
        <ele>649.810</ele>
        <time>2015-02-15T11:16:35Z</time>
      </trkpt>
      <trkpt lat="40.656764" lon="-3.637710">
        <ele>649.907</ele>
        <time>2015-02-15T11:16:37Z</time>
      </trkpt>
      <trkpt lat="40.656738" lon="-3.637607">
        <ele>650.052</ele>
        <time>2015-02-15T11:16:39Z</time>
      </trkpt>
      <trkpt lat="40.656695" lon="-3.637451">
        <ele>650.032</ele>
        <time>2015-02-15T11:16:42Z</time>
      </trkpt>
      <trkpt lat="40.656664" lon="-3.637300">
        <ele>650.031</ele>
        <time>2015-02-15T11:16:45Z</time>
      </trkpt>
      <trkpt lat="40.656638" lon="-3.637157">
        <ele>650.035</ele>
        <time>2015-02-15T11:16:48Z</time>
      </trkpt>
      <trkpt lat="40.656638" lon="-3.637120">
        <ele>650.064</ele>
        <time>2015-02-15T11:16:49Z</time>
      </trkpt>
      <trkpt lat="40.656636" lon="-3.637074">
        <ele>650.010</ele>
        <time>2015-02-15T11:16:50Z</time>
      </trkpt>
      <trkpt lat="40.656627" lon="-3.636971">
        <ele>650.071</ele>
        <time>2015-02-15T11:16:52Z</time>
      </trkpt>
      <trkpt lat="40.656618" lon="-3.636860">
        <ele>650.199</ele>
        <time>2015-02-15T11:16:54Z</time>
      </trkpt>
      <trkpt lat="40.656602" lon="-3.636739">
        <ele>650.107</ele>
        <time>2015-02-15T11:16:56Z</time>
      </trkpt>
      <trkpt lat="40.656585" lon="-3.636681">
        <ele>650.127</ele>
        <time>2015-02-15T11:16:57Z</time>
      </trkpt>
      <trkpt lat="40.656561" lon="-3.636623">
        <ele>650.107</ele>
        <time>2015-02-15T11:16:58Z</time>
      </trkpt>
      <trkpt lat="40.656504" lon="-3.636522">
        <ele>650.127</ele>
        <time>2015-02-15T11:17:00Z</time>
      </trkpt>
      <trkpt lat="40.656417" lon="-3.636382">
        <ele>650.067</ele>
        <time>2015-02-15T11:17:03Z</time>
      </trkpt>
      <trkpt lat="40.656327" lon="-3.636236">
        <ele>650.026</ele>
        <time>2015-02-15T11:17:06Z</time>
      </trkpt>
      <trkpt lat="40.656300" lon="-3.636181">
        <ele>649.920</ele>
        <time>2015-02-15T11:17:07Z</time>
      </trkpt>
      <trkpt lat="40.656248" lon="-3.636074">
        <ele>649.979</ele>
        <time>2015-02-15T11:17:09Z</time>
      </trkpt>
      <trkpt lat="40.656203" lon="-3.635978">
        <ele>649.815</ele>
        <time>2015-02-15T11:17:11Z</time>
      </trkpt>
      <trkpt lat="40.656155" lon="-3.635894">
        <ele>649.726</ele>
        <time>2015-02-15T11:17:13Z</time>
      </trkpt>
      <trkpt lat="40.656129" lon="-3.635857">
        <ele>649.732</ele>
        <time>2015-02-15T11:17:14Z</time>
      </trkpt>
      <trkpt lat="40.656079" lon="-3.635766">
        <ele>649.692</ele>
        <time>2015-02-15T11:17:16Z</time>
      </trkpt>
      <trkpt lat="40.656021" lon="-3.635682">
        <ele>649.511</ele>
        <time>2015-02-15T11:17:18Z</time>
      </trkpt>
      <trkpt lat="40.655989" lon="-3.635650">
        <ele>649.507</ele>
        <time>2015-02-15T11:17:19Z</time>
      </trkpt>
      <trkpt lat="40.655899" lon="-3.635544">
        <ele>649.331</ele>
        <time>2015-02-15T11:17:22Z</time>
      </trkpt>
      <trkpt lat="40.655817" lon="-3.635446">
        <ele>649.261</ele>
        <time>2015-02-15T11:17:25Z</time>
      </trkpt>
      <trkpt lat="40.655785" lon="-3.635416">
        <ele>649.290</ele>
        <time>2015-02-15T11:17:26Z</time>
      </trkpt>
      <trkpt lat="40.655725" lon="-3.635338">
        <ele>649.164</ele>
        <time>2015-02-15T11:17:28Z</time>
      </trkpt>
      <trkpt lat="40.655676" lon="-3.635247">
        <ele>649.043</ele>
        <time>2015-02-15T11:17:30Z</time>
      </trkpt>
      <trkpt lat="40.655656" lon="-3.635199">
        <ele>648.999</ele>
        <time>2015-02-15T11:17:31Z</time>
      </trkpt>
      <trkpt lat="40.655603" lon="-3.635046">
        <ele>648.790</ele>
        <time>2015-02-15T11:17:34Z</time>
      </trkpt>
      <trkpt lat="40.655584" lon="-3.634989">
        <ele>648.668</ele>
        <time>2015-02-15T11:17:35Z</time>
      </trkpt>
      <trkpt lat="40.655522" lon="-3.634827">
        <ele>648.442</ele>
        <time>2015-02-15T11:17:38Z</time>
      </trkpt>
      <trkpt lat="40.655497" lon="-3.634776">
        <ele>648.326</ele>
        <time>2015-02-15T11:17:39Z</time>
      </trkpt>
      <trkpt lat="40.655468" lon="-3.634727">
        <ele>648.307</ele>
        <time>2015-02-15T11:17:40Z</time>
      </trkpt>
      <trkpt lat="40.655442" lon="-3.634689">
        <ele>648.264</ele>
        <time>2015-02-15T11:17:41Z</time>
      </trkpt>
      <trkpt lat="40.655403" lon="-3.634612">
        <ele>648.194</ele>
        <time>2015-02-15T11:17:43Z</time>
      </trkpt>
      <trkpt lat="40.655388" lon="-3.634574">
        <ele>648.023</ele>
        <time>2015-02-15T11:17:44Z</time>
      </trkpt>
      <trkpt lat="40.655378" lon="-3.634531">
        <ele>648.077</ele>
        <time>2015-02-15T11:17:45Z</time>
      </trkpt>
      <trkpt lat="40.655368" lon="-3.634486">
        <ele>647.976</ele>
        <time>2015-02-15T11:17:46Z</time>
      </trkpt>
      <trkpt lat="40.655346" lon="-3.634378">
        <ele>647.852</ele>
        <time>2015-02-15T11:17:48Z</time>
      </trkpt>
      <trkpt lat="40.655314" lon="-3.634205">
        <ele>647.683</ele>
        <time>2015-02-15T11:17:51Z</time>
      </trkpt>
      <trkpt lat="40.655301" lon="-3.634147">
        <ele>647.545</ele>
        <time>2015-02-15T11:17:52Z</time>
      </trkpt>
      <trkpt lat="40.655281" lon="-3.634088">
        <ele>647.547</ele>
        <time>2015-02-15T11:17:53Z</time>
      </trkpt>
      <trkpt lat="40.655256" lon="-3.634031">
        <ele>647.411</ele>
        <time>2015-02-15T11:17:54Z</time>
      </trkpt>
      <trkpt lat="40.655190" lon="-3.633867">
        <ele>647.307</ele>
        <time>2015-02-15T11:17:57Z</time>
      </trkpt>
      <trkpt lat="40.655148" lon="-3.633772">
        <ele>647.292</ele>
        <time>2015-02-15T11:17:59Z</time>
      </trkpt>
      <trkpt lat="40.655076" lon="-3.633637">
        <ele>647.062</ele>
        <time>2015-02-15T11:18:02Z</time>
      </trkpt>
      <trkpt lat="40.655036" lon="-3.633543">
        <ele>646.971</ele>
        <time>2015-02-15T11:18:04Z</time>
      </trkpt>
      <trkpt lat="40.654963" lon="-3.633399">
        <ele>646.725</ele>
        <time>2015-02-15T11:18:07Z</time>
      </trkpt>
      <trkpt lat="40.654886" lon="-3.633262">
        <ele>646.574</ele>
        <time>2015-02-15T11:18:10Z</time>
      </trkpt>
      <trkpt lat="40.654839" lon="-3.633180">
        <ele>646.480</ele>
        <time>2015-02-15T11:18:12Z</time>
      </trkpt>
      <trkpt lat="40.654812" lon="-3.633143">
        <ele>646.461</ele>
        <time>2015-02-15T11:18:13Z</time>
      </trkpt>
      <trkpt lat="40.654768" lon="-3.633069">
        <ele>646.317</ele>
        <time>2015-02-15T11:18:15Z</time>
      </trkpt>
      <trkpt lat="40.654728" lon="-3.632994">
        <ele>646.187</ele>
        <time>2015-02-15T11:18:17Z</time>
      </trkpt>
      <trkpt lat="40.654658" lon="-3.632874">
        <ele>646.015</ele>
        <time>2015-02-15T11:18:20Z</time>
      </trkpt>
      <trkpt lat="40.654593" lon="-3.632740">
        <ele>645.807</ele>
        <time>2015-02-15T11:18:24Z</time>
      </trkpt>
      <trkpt lat="40.654550" lon="-3.632660">
        <ele>645.789</ele>
        <time>2015-02-15T11:18:26Z</time>
      </trkpt>
      <trkpt lat="40.654522" lon="-3.632629">
        <ele>645.619</ele>
        <time>2015-02-15T11:18:27Z</time>
      </trkpt>
      <trkpt lat="40.654493" lon="-3.632602">
        <ele>645.618</ele>
        <time>2015-02-15T11:18:28Z</time>
      </trkpt>
      <trkpt lat="40.654417" lon="-3.632527">
        <ele>645.432</ele>
        <time>2015-02-15T11:18:31Z</time>
      </trkpt>
      <trkpt lat="40.654368" lon="-3.632468">
        <ele>645.421</ele>
        <time>2015-02-15T11:18:33Z</time>
      </trkpt>
      <trkpt lat="40.654328" lon="-3.632427">
        <ele>645.377</ele>
        <time>2015-02-15T11:18:34Z</time>
      </trkpt>
      <trkpt lat="40.654271" lon="-3.632358">
        <ele>645.318</ele>
        <time>2015-02-15T11:18:36Z</time>
      </trkpt>
      <trkpt lat="40.654213" lon="-3.632289">
        <ele>645.385</ele>
        <time>2015-02-15T11:18:38Z</time>
      </trkpt>
      <trkpt lat="40.654184" lon="-3.632265">
        <ele>645.289</ele>
        <time>2015-02-15T11:18:39Z</time>
      </trkpt>
      <trkpt lat="40.654150" lon="-3.632240">
        <ele>645.217</ele>
        <time>2015-02-15T11:18:40Z</time>
      </trkpt>
      <trkpt lat="40.654118" lon="-3.632211">
        <ele>645.207</ele>
        <time>2015-02-15T11:18:41Z</time>
      </trkpt>
      <trkpt lat="40.654063" lon="-3.632136">
        <ele>645.236</ele>
        <time>2015-02-15T11:18:42Z</time>
      </trkpt>
      <trkpt lat="40.654030" lon="-3.632049">
        <ele>645.116</ele>
        <time>2015-02-15T11:18:44Z</time>
      </trkpt>
      <trkpt lat="40.654025" lon="-3.632003">
        <ele>645.015</ele>
        <time>2015-02-15T11:18:45Z</time>
      </trkpt>
      <trkpt lat="40.654026" lon="-3.631956">
        <ele>645.059</ele>
        <time>2015-02-15T11:18:46Z</time>
      </trkpt>
      <trkpt lat="40.654032" lon="-3.631860">
        <ele>644.918</ele>
        <time>2015-02-15T11:18:48Z</time>
      </trkpt>
      <trkpt lat="40.654038" lon="-3.631811">
        <ele>644.844</ele>
        <time>2015-02-15T11:18:49Z</time>
      </trkpt>
      <trkpt lat="40.654046" lon="-3.631703">
        <ele>644.715</ele>
        <time>2015-02-15T11:18:51Z</time>
      </trkpt>
      <trkpt lat="40.654044" lon="-3.631652">
        <ele>644.643</ele>
        <time>2015-02-15T11:18:52Z</time>
      </trkpt>
      <trkpt lat="40.654035" lon="-3.631538">
        <ele>644.564</ele>
        <time>2015-02-15T11:18:54Z</time>
      </trkpt>
      <trkpt lat="40.654039" lon="-3.631484">
        <ele>644.510</ele>
        <time>2015-02-15T11:18:55Z</time>
      </trkpt>
      <trkpt lat="40.654044" lon="-3.631429">
        <ele>644.407</ele>
        <time>2015-02-15T11:18:56Z</time>
      </trkpt>
      <trkpt lat="40.654067" lon="-3.631328">
        <ele>644.352</ele>
        <time>2015-02-15T11:18:58Z</time>
      </trkpt>
      <trkpt lat="40.654085" lon="-3.631277">
        <ele>644.352</ele>
        <time>2015-02-15T11:18:59Z</time>
      </trkpt>
      <trkpt lat="40.654121" lon="-3.631131">
        <ele>644.181</ele>
        <time>2015-02-15T11:19:02Z</time>
      </trkpt>
      <trkpt lat="40.654119" lon="-3.631084">
        <ele>644.145</ele>
        <time>2015-02-15T11:19:03Z</time>
      </trkpt>
      <trkpt lat="40.654101" lon="-3.631032">
        <ele>644.164</ele>
        <time>2015-02-15T11:19:04Z</time>
      </trkpt>
      <trkpt lat="40.654090" lon="-3.630931">
        <ele>644.070</ele>
        <time>2015-02-15T11:19:06Z</time>
      </trkpt>
      <trkpt lat="40.654082" lon="-3.630870">
        <ele>644.041</ele>
        <time>2015-02-15T11:19:07Z</time>
      </trkpt>
      <trkpt lat="40.654082" lon="-3.630761">
        <ele>643.963</ele>
        <time>2015-02-15T11:19:09Z</time>
      </trkpt>
      <trkpt lat="40.654084" lon="-3.630595">
        <ele>643.944</ele>
        <time>2015-02-15T11:19:12Z</time>
      </trkpt>
      <trkpt lat="40.654080" lon="-3.630536">
        <ele>643.818</ele>
        <time>2015-02-15T11:19:13Z</time>
      </trkpt>
      <trkpt lat="40.654067" lon="-3.630407">
        <ele>643.807</ele>
        <time>2015-02-15T11:19:15Z</time>
      </trkpt>
      <trkpt lat="40.654039" lon="-3.630284">
        <ele>643.784</ele>
        <time>2015-02-15T11:19:17Z</time>
      </trkpt>
      <trkpt lat="40.654016" lon="-3.630223">
        <ele>643.774</ele>
        <time>2015-02-15T11:19:18Z</time>
      </trkpt>
      <trkpt lat="40.653997" lon="-3.630157">
        <ele>643.633</ele>
        <time>2015-02-15T11:19:19Z</time>
      </trkpt>
      <trkpt lat="40.653978" lon="-3.630089">
        <ele>643.577</ele>
        <time>2015-02-15T11:19:20Z</time>
      </trkpt>
      <trkpt lat="40.653962" lon="-3.630026">
        <ele>643.536</ele>
        <time>2015-02-15T11:19:21Z</time>
      </trkpt>
      <trkpt lat="40.653925" lon="-3.629854">
        <ele>643.352</ele>
        <time>2015-02-15T11:19:24Z</time>
      </trkpt>
      <trkpt lat="40.653896" lon="-3.629744">
        <ele>643.213</ele>
        <time>2015-02-15T11:19:26Z</time>
      </trkpt>
      <trkpt lat="40.653850" lon="-3.629591">
        <ele>643.089</ele>
        <time>2015-02-15T11:19:29Z</time>
      </trkpt>
      <trkpt lat="40.653837" lon="-3.629535">
        <ele>642.906</ele>
        <time>2015-02-15T11:19:30Z</time>
      </trkpt>
      <trkpt lat="40.653810" lon="-3.629413">
        <ele>642.826</ele>
        <time>2015-02-15T11:19:32Z</time>
      </trkpt>
      <trkpt lat="40.653782" lon="-3.629295">
        <ele>642.707</ele>
        <time>2015-02-15T11:19:34Z</time>
      </trkpt>
      <trkpt lat="40.653765" lon="-3.629244">
        <ele>642.636</ele>
        <time>2015-02-15T11:19:35Z</time>
      </trkpt>
      <trkpt lat="40.653753" lon="-3.629147">
        <ele>642.536</ele>
        <time>2015-02-15T11:19:37Z</time>
      </trkpt>
      <trkpt lat="40.653748" lon="-3.629009">
        <ele>642.445</ele>
        <time>2015-02-15T11:19:40Z</time>
      </trkpt>
      <trkpt lat="40.653759" lon="-3.628965">
        <ele>642.339</ele>
        <time>2015-02-15T11:19:41Z</time>
      </trkpt>
      <trkpt lat="40.653772" lon="-3.628924">
        <ele>642.328</ele>
        <time>2015-02-15T11:19:42Z</time>
      </trkpt>
      <trkpt lat="40.653791" lon="-3.628880">
        <ele>642.344</ele>
        <time>2015-02-15T11:19:43Z</time>
      </trkpt>
      <trkpt lat="40.653810" lon="-3.628842">
        <ele>642.215</ele>
        <time>2015-02-15T11:19:44Z</time>
      </trkpt>
      <trkpt lat="40.653865" lon="-3.628717">
        <ele>642.298</ele>
        <time>2015-02-15T11:19:47Z</time>
      </trkpt>
      <trkpt lat="40.653879" lon="-3.628671">
        <ele>642.115</ele>
        <time>2015-02-15T11:19:48Z</time>
      </trkpt>
      <trkpt lat="40.653877" lon="-3.628621">
        <ele>642.126</ele>
        <time>2015-02-15T11:19:49Z</time>
      </trkpt>
      <trkpt lat="40.653885" lon="-3.628574">
        <ele>642.107</ele>
        <time>2015-02-15T11:19:50Z</time>
      </trkpt>
      <trkpt lat="40.653897" lon="-3.628524">
        <ele>642.167</ele>
        <time>2015-02-15T11:19:51Z</time>
      </trkpt>
      <trkpt lat="40.653919" lon="-3.628377">
        <ele>641.967</ele>
        <time>2015-02-15T11:19:54Z</time>
      </trkpt>
      <trkpt lat="40.653913" lon="-3.628333">
        <ele>641.996</ele>
        <time>2015-02-15T11:19:55Z</time>
      </trkpt>
      <trkpt lat="40.653905" lon="-3.628287">
        <ele>641.890</ele>
        <time>2015-02-15T11:19:56Z</time>
      </trkpt>
      <trkpt lat="40.653894" lon="-3.628189">
        <ele>641.769</ele>
        <time>2015-02-15T11:19:58Z</time>
      </trkpt>
      <trkpt lat="40.653873" lon="-3.628048">
        <ele>641.685</ele>
        <time>2015-02-15T11:20:01Z</time>
      </trkpt>
      <trkpt lat="40.653867" lon="-3.628002">
        <ele>641.646</ele>
        <time>2015-02-15T11:20:02Z</time>
      </trkpt>
      <trkpt lat="40.653862" lon="-3.627903">
        <ele>641.554</ele>
        <time>2015-02-15T11:20:04Z</time>
      </trkpt>
      <trkpt lat="40.653874" lon="-3.627857">
        <ele>641.456</ele>
        <time>2015-02-15T11:20:05Z</time>
      </trkpt>
      <trkpt lat="40.653885" lon="-3.627802">
        <ele>641.311</ele>
        <time>2015-02-15T11:20:06Z</time>
      </trkpt>
      <trkpt lat="40.653909" lon="-3.627702">
        <ele>641.007</ele>
        <time>2015-02-15T11:20:08Z</time>
      </trkpt>
      <trkpt lat="40.653912" lon="-3.627658">
        <ele>640.993</ele>
        <time>2015-02-15T11:20:09Z</time>
      </trkpt>
      <trkpt lat="40.653912" lon="-3.627611">
        <ele>640.853</ele>
        <time>2015-02-15T11:20:10Z</time>
      </trkpt>
      <trkpt lat="40.653899" lon="-3.627563">
        <ele>640.732</ele>
        <time>2015-02-15T11:20:11Z</time>
      </trkpt>
      <trkpt lat="40.653885" lon="-3.627517">
        <ele>640.696</ele>
        <time>2015-02-15T11:20:12Z</time>
      </trkpt>
      <trkpt lat="40.653849" lon="-3.627424">
        <ele>640.445</ele>
        <time>2015-02-15T11:20:14Z</time>
      </trkpt>
      <trkpt lat="40.653806" lon="-3.627336">
        <ele>640.221</ele>
        <time>2015-02-15T11:20:16Z</time>
      </trkpt>
      <trkpt lat="40.653761" lon="-3.627260">
        <ele>640.052</ele>
        <time>2015-02-15T11:20:19Z</time>
      </trkpt>
      <trkpt lat="40.653700" lon="-3.627180">
        <ele>639.925</ele>
        <time>2015-02-15T11:20:21Z</time>
      </trkpt>
      <trkpt lat="40.653633" lon="-3.627110">
        <ele>639.726</ele>
        <time>2015-02-15T11:20:23Z</time>
      </trkpt>
      <trkpt lat="40.653534" lon="-3.627003">
        <ele>639.508</ele>
        <time>2015-02-15T11:20:26Z</time>
      </trkpt>
      <trkpt lat="40.653466" lon="-3.626925">
        <ele>639.307</ele>
        <time>2015-02-15T11:20:28Z</time>
      </trkpt>
      <trkpt lat="40.653368" lon="-3.626801">
        <ele>639.010</ele>
        <time>2015-02-15T11:20:31Z</time>
      </trkpt>
      <trkpt lat="40.653330" lon="-3.626767">
        <ele>638.970</ele>
        <time>2015-02-15T11:20:32Z</time>
      </trkpt>
      <trkpt lat="40.653213" lon="-3.626654">
        <ele>638.589</ele>
        <time>2015-02-15T11:20:35Z</time>
      </trkpt>
      <trkpt lat="40.653112" lon="-3.626516">
        <ele>638.163</ele>
        <time>2015-02-15T11:20:38Z</time>
      </trkpt>
      <trkpt lat="40.653061" lon="-3.626416">
        <ele>637.852</ele>
        <time>2015-02-15T11:20:40Z</time>
      </trkpt>
      <trkpt lat="40.652985" lon="-3.626252">
        <ele>637.448</ele>
        <time>2015-02-15T11:20:43Z</time>
      </trkpt>
      <trkpt lat="40.652931" lon="-3.626154">
        <ele>637.339</ele>
        <time>2015-02-15T11:20:44Z</time>
      </trkpt>
      <trkpt lat="40.652850" lon="-3.626021">
        <ele>636.954</ele>
        <time>2015-02-15T11:20:47Z</time>
      </trkpt>
      <trkpt lat="40.652787" lon="-3.625936">
        <ele>636.656</ele>
        <time>2015-02-15T11:20:49Z</time>
      </trkpt>
      <trkpt lat="40.652686" lon="-3.625814">
        <ele>636.211</ele>
        <time>2015-02-15T11:20:52Z</time>
      </trkpt>
      <trkpt lat="40.652654" lon="-3.625776">
        <ele>636.107</ele>
        <time>2015-02-15T11:20:53Z</time>
      </trkpt>
      <trkpt lat="40.652626" lon="-3.625735">
        <ele>636.013</ele>
        <time>2015-02-15T11:20:54Z</time>
      </trkpt>
      <trkpt lat="40.652568" lon="-3.625660">
        <ele>635.823</ele>
        <time>2015-02-15T11:20:56Z</time>
      </trkpt>
      <trkpt lat="40.652477" lon="-3.625539">
        <ele>635.552</ele>
        <time>2015-02-15T11:20:59Z</time>
      </trkpt>
      <trkpt lat="40.652357" lon="-3.625374">
        <ele>635.146</ele>
        <time>2015-02-15T11:21:03Z</time>
      </trkpt>
      <trkpt lat="40.652331" lon="-3.625336">
        <ele>635.025</ele>
        <time>2015-02-15T11:21:04Z</time>
      </trkpt>
      <trkpt lat="40.652307" lon="-3.625293">
        <ele>635.041</ele>
        <time>2015-02-15T11:21:05Z</time>
      </trkpt>
      <trkpt lat="40.652295" lon="-3.625247">
        <ele>635.062</ele>
        <time>2015-02-15T11:21:06Z</time>
      </trkpt>
      <trkpt lat="40.652282" lon="-3.625203">
        <ele>635.099</ele>
        <time>2015-02-15T11:21:07Z</time>
      </trkpt>
      <trkpt lat="40.652267" lon="-3.625155">
        <ele>634.907</ele>
        <time>2015-02-15T11:21:08Z</time>
      </trkpt>
      <trkpt lat="40.652227" lon="-3.625006">
        <ele>634.927</ele>
        <time>2015-02-15T11:21:11Z</time>
      </trkpt>
      <trkpt lat="40.652195" lon="-3.624917">
        <ele>634.807</ele>
        <time>2015-02-15T11:21:13Z</time>
      </trkpt>
      <trkpt lat="40.652170" lon="-3.624829">
        <ele>634.897</ele>
        <time>2015-02-15T11:21:15Z</time>
      </trkpt>
      <trkpt lat="40.652140" lon="-3.624694">
        <ele>634.747</ele>
        <time>2015-02-15T11:21:18Z</time>
      </trkpt>
      <trkpt lat="40.652132" lon="-3.624609">
        <ele>634.696</ele>
        <time>2015-02-15T11:21:20Z</time>
      </trkpt>
      <trkpt lat="40.652136" lon="-3.624567">
        <ele>634.640</ele>
        <time>2015-02-15T11:21:21Z</time>
      </trkpt>
      <trkpt lat="40.652142" lon="-3.624520">
        <ele>634.569</ele>
        <time>2015-02-15T11:21:22Z</time>
      </trkpt>
      <trkpt lat="40.652158" lon="-3.624428">
        <ele>634.435</ele>
        <time>2015-02-15T11:21:24Z</time>
      </trkpt>
      <trkpt lat="40.652191" lon="-3.624292">
        <ele>634.316</ele>
        <time>2015-02-15T11:21:27Z</time>
      </trkpt>
      <trkpt lat="40.652201" lon="-3.624243">
        <ele>634.249</ele>
        <time>2015-02-15T11:21:28Z</time>
      </trkpt>
      <trkpt lat="40.652205" lon="-3.624195">
        <ele>634.202</ele>
        <time>2015-02-15T11:21:29Z</time>
      </trkpt>
      <trkpt lat="40.652205" lon="-3.624144">
        <ele>634.122</ele>
        <time>2015-02-15T11:21:30Z</time>
      </trkpt>
      <trkpt lat="40.652200" lon="-3.624045">
        <ele>634.107</ele>
        <time>2015-02-15T11:21:32Z</time>
      </trkpt>
      <trkpt lat="40.652186" lon="-3.624014">
        <ele>634.072</ele>
        <time>2015-02-15T11:21:33Z</time>
      </trkpt>
      <trkpt lat="40.652163" lon="-3.623988">
        <ele>634.052</ele>
        <time>2015-02-15T11:21:35Z</time>
      </trkpt>
      <trkpt lat="40.652130" lon="-3.623980">
        <ele>633.981</ele>
        <time>2015-02-15T11:21:36Z</time>
      </trkpt>
      <trkpt lat="40.652104" lon="-3.624006">
        <ele>633.945</ele>
        <time>2015-02-15T11:21:37Z</time>
      </trkpt>
      <trkpt lat="40.652080" lon="-3.624036">
        <ele>633.984</ele>
        <time>2015-02-15T11:21:38Z</time>
      </trkpt>
      <trkpt lat="40.652025" lon="-3.624086">
        <ele>633.840</ele>
        <time>2015-02-15T11:21:40Z</time>
      </trkpt>
      <trkpt lat="40.652006" lon="-3.624100">
        <ele>633.721</ele>
        <time>2015-02-15T11:21:41Z</time>
      </trkpt>
      <trkpt lat="40.651960" lon="-3.624128">
        <ele>633.619</ele>
        <time>2015-02-15T11:21:43Z</time>
      </trkpt>
      <trkpt lat="40.651945" lon="-3.624138">
        <ele>633.609</ele>
        <time>2015-02-15T11:21:44Z</time>
      </trkpt>
      <trkpt lat="40.651903" lon="-3.624160">
        <ele>633.519</ele>
        <time>2015-02-15T11:21:46Z</time>
      </trkpt>
      <trkpt lat="40.651840" lon="-3.624203">
        <ele>633.507</ele>
        <time>2015-02-15T11:21:49Z</time>
      </trkpt>
      <trkpt lat="40.651765" lon="-3.624260">
        <ele>633.579</ele>
        <time>2015-02-15T11:21:53Z</time>
      </trkpt>
      <trkpt lat="40.651733" lon="-3.624281">
        <ele>633.539</ele>
        <time>2015-02-15T11:21:55Z</time>
      </trkpt>
      <trkpt lat="40.651690" lon="-3.624322">
        <ele>633.668</ele>
        <time>2015-02-15T11:21:58Z</time>
      </trkpt>
      <trkpt lat="40.651646" lon="-3.624382">
        <ele>633.642</ele>
        <time>2015-02-15T11:22:00Z</time>
      </trkpt>
      <trkpt lat="40.651635" lon="-3.624409">
        <ele>633.651</ele>
        <time>2015-02-15T11:22:01Z</time>
      </trkpt>
      <trkpt lat="40.651622" lon="-3.624434">
        <ele>633.767</ele>
        <time>2015-02-15T11:22:02Z</time>
      </trkpt>
      <trkpt lat="40.651593" lon="-3.624482">
        <ele>633.768</ele>
        <time>2015-02-15T11:22:04Z</time>
      </trkpt>
      <trkpt lat="40.651569" lon="-3.624496">
        <ele>633.763</ele>
        <time>2015-02-15T11:22:05Z</time>
      </trkpt>
      <trkpt lat="40.651549" lon="-3.624510">
        <ele>633.744</ele>
        <time>2015-02-15T11:22:06Z</time>
      </trkpt>
      <trkpt lat="40.651488" lon="-3.624561">
        <ele>633.718</ele>
        <time>2015-02-15T11:22:09Z</time>
      </trkpt>
      <trkpt lat="40.651426" lon="-3.624612">
        <ele>633.807</ele>
        <time>2015-02-15T11:22:12Z</time>
      </trkpt>
      <trkpt lat="40.651409" lon="-3.624634">
        <ele>633.824</ele>
        <time>2015-02-15T11:22:13Z</time>
      </trkpt>
      <trkpt lat="40.651352" lon="-3.624698">
        <ele>633.944</ele>
        <time>2015-02-15T11:22:16Z</time>
      </trkpt>
      <trkpt lat="40.651295" lon="-3.624762">
        <ele>634.143</ele>
        <time>2015-02-15T11:22:19Z</time>
      </trkpt>
      <trkpt lat="40.651244" lon="-3.624825">
        <ele>634.327</ele>
        <time>2015-02-15T11:22:22Z</time>
      </trkpt>
      <trkpt lat="40.651206" lon="-3.624861">
        <ele>634.556</ele>
        <time>2015-02-15T11:22:24Z</time>
      </trkpt>
      <trkpt lat="40.651154" lon="-3.624923">
        <ele>634.842</ele>
        <time>2015-02-15T11:22:27Z</time>
      </trkpt>
      <trkpt lat="40.651100" lon="-3.624983">
        <ele>635.223</ele>
        <time>2015-02-15T11:22:30Z</time>
      </trkpt>
      <trkpt lat="40.651042" lon="-3.625031">
        <ele>635.612</ele>
        <time>2015-02-15T11:22:33Z</time>
      </trkpt>
      <trkpt lat="40.651020" lon="-3.625042">
        <ele>635.832</ele>
        <time>2015-02-15T11:22:34Z</time>
      </trkpt>
      <trkpt lat="40.650998" lon="-3.625048">
        <ele>635.905</ele>
        <time>2015-02-15T11:22:35Z</time>
      </trkpt>
      <trkpt lat="40.650932" lon="-3.625084">
        <ele>636.307</ele>
        <time>2015-02-15T11:22:38Z</time>
      </trkpt>
      <trkpt lat="40.650913" lon="-3.625106">
        <ele>636.589</ele>
        <time>2015-02-15T11:22:39Z</time>
      </trkpt>
      <trkpt lat="40.650874" lon="-3.625153">
        <ele>636.889</ele>
        <time>2015-02-15T11:22:41Z</time>
      </trkpt>
      <trkpt lat="40.650817" lon="-3.625214">
        <ele>637.178</ele>
        <time>2015-02-15T11:22:44Z</time>
      </trkpt>
      <trkpt lat="40.650756" lon="-3.625271">
        <ele>637.652</ele>
        <time>2015-02-15T11:22:47Z</time>
      </trkpt>
      <trkpt lat="40.650693" lon="-3.625322">
        <ele>638.021</ele>
        <time>2015-02-15T11:22:50Z</time>
      </trkpt>
      <trkpt lat="40.650638" lon="-3.625369">
        <ele>638.447</ele>
        <time>2015-02-15T11:22:53Z</time>
      </trkpt>
      <trkpt lat="40.650583" lon="-3.625422">
        <ele>638.858</ele>
        <time>2015-02-15T11:22:56Z</time>
      </trkpt>
      <trkpt lat="40.650522" lon="-3.625479">
        <ele>639.232</ele>
        <time>2015-02-15T11:22:59Z</time>
      </trkpt>
      <trkpt lat="40.650457" lon="-3.625526">
        <ele>639.592</ele>
        <time>2015-02-15T11:23:02Z</time>
      </trkpt>
      <trkpt lat="40.650374" lon="-3.625592">
        <ele>640.011</ele>
        <time>2015-02-15T11:23:06Z</time>
      </trkpt>
      <trkpt lat="40.650319" lon="-3.625661">
        <ele>640.407</ele>
        <time>2015-02-15T11:23:09Z</time>
      </trkpt>
      <trkpt lat="40.650304" lon="-3.625687">
        <ele>640.551</ele>
        <time>2015-02-15T11:23:10Z</time>
      </trkpt>
      <trkpt lat="40.650276" lon="-3.625744">
        <ele>640.741</ele>
        <time>2015-02-15T11:23:12Z</time>
      </trkpt>
      <trkpt lat="40.650232" lon="-3.625829">
        <ele>641.130</ele>
        <time>2015-02-15T11:23:15Z</time>
      </trkpt>
      <trkpt lat="40.650187" lon="-3.625895">
        <ele>641.484</ele>
        <time>2015-02-15T11:23:18Z</time>
      </trkpt>
      <trkpt lat="40.650168" lon="-3.625913">
        <ele>641.513</ele>
        <time>2015-02-15T11:23:19Z</time>
      </trkpt>
      <trkpt lat="40.650106" lon="-3.626000">
        <ele>641.829</ele>
        <time>2015-02-15T11:23:23Z</time>
      </trkpt>
      <trkpt lat="40.650060" lon="-3.626062">
        <ele>642.140</ele>
        <time>2015-02-15T11:23:26Z</time>
      </trkpt>
      <trkpt lat="40.650005" lon="-3.626121">
        <ele>642.395</ele>
        <time>2015-02-15T11:23:29Z</time>
      </trkpt>
      <trkpt lat="40.649962" lon="-3.626155">
        <ele>642.549</ele>
        <time>2015-02-15T11:23:31Z</time>
      </trkpt>
      <trkpt lat="40.649895" lon="-3.626187">
        <ele>642.723</ele>
        <time>2015-02-15T11:23:34Z</time>
      </trkpt>
      <trkpt lat="40.649849" lon="-3.626202">
        <ele>642.907</ele>
        <time>2015-02-15T11:23:36Z</time>
      </trkpt>
      <trkpt lat="40.649803" lon="-3.626205">
        <ele>643.197</ele>
        <time>2015-02-15T11:23:38Z</time>
      </trkpt>
      <trkpt lat="40.649780" lon="-3.626203">
        <ele>643.217</ele>
        <time>2015-02-15T11:23:39Z</time>
      </trkpt>
      <trkpt lat="40.649712" lon="-3.626213">
        <ele>643.666</ele>
        <time>2015-02-15T11:23:43Z</time>
      </trkpt>
      <trkpt lat="40.649665" lon="-3.626228">
        <ele>643.820</ele>
        <time>2015-02-15T11:23:45Z</time>
      </trkpt>
      <trkpt lat="40.649598" lon="-3.626246">
        <ele>644.189</ele>
        <time>2015-02-15T11:23:48Z</time>
      </trkpt>
      <trkpt lat="40.649530" lon="-3.626262">
        <ele>644.395</ele>
        <time>2015-02-15T11:23:51Z</time>
      </trkpt>
      <trkpt lat="40.649461" lon="-3.626275">
        <ele>644.756</ele>
        <time>2015-02-15T11:23:54Z</time>
      </trkpt>
      <trkpt lat="40.649371" lon="-3.626278">
        <ele>645.138</ele>
        <time>2015-02-15T11:23:58Z</time>
      </trkpt>
      <trkpt lat="40.649305" lon="-3.626265">
        <ele>645.470</ele>
        <time>2015-02-15T11:24:00Z</time>
      </trkpt>
      <trkpt lat="40.649238" lon="-3.626241">
        <ele>645.717</ele>
        <time>2015-02-15T11:24:03Z</time>
      </trkpt>
      <trkpt lat="40.649174" lon="-3.626215">
        <ele>646.007</ele>
        <time>2015-02-15T11:24:06Z</time>
      </trkpt>
      <trkpt lat="40.649128" lon="-3.626190">
        <ele>646.311</ele>
        <time>2015-02-15T11:24:08Z</time>
      </trkpt>
      <trkpt lat="40.649104" lon="-3.626186">
        <ele>646.451</ele>
        <time>2015-02-15T11:24:09Z</time>
      </trkpt>
      <trkpt lat="40.649082" lon="-3.626183">
        <ele>646.610</ele>
        <time>2015-02-15T11:24:10Z</time>
      </trkpt>
      <trkpt lat="40.649059" lon="-3.626184">
        <ele>646.714</ele>
        <time>2015-02-15T11:24:11Z</time>
      </trkpt>
      <trkpt lat="40.649035" lon="-3.626187">
        <ele>646.863</ele>
        <time>2015-02-15T11:24:12Z</time>
      </trkpt>
      <trkpt lat="40.648989" lon="-3.626194">
        <ele>647.149</ele>
        <time>2015-02-15T11:24:14Z</time>
      </trkpt>
      <trkpt lat="40.648924" lon="-3.626199">
        <ele>647.430</ele>
        <time>2015-02-15T11:24:17Z</time>
      </trkpt>
      <trkpt lat="40.648833" lon="-3.626203">
        <ele>647.978</ele>
        <time>2015-02-15T11:24:21Z</time>
      </trkpt>
      <trkpt lat="40.648763" lon="-3.626200">
        <ele>648.333</ele>
        <time>2015-02-15T11:24:24Z</time>
      </trkpt>
      <trkpt lat="40.648700" lon="-3.626210">
        <ele>648.626</ele>
        <time>2015-02-15T11:24:27Z</time>
      </trkpt>
      <trkpt lat="40.648629" lon="-3.626213">
        <ele>648.907</ele>
        <time>2015-02-15T11:24:30Z</time>
      </trkpt>
      <trkpt lat="40.648582" lon="-3.626206">
        <ele>649.145</ele>
        <time>2015-02-15T11:24:32Z</time>
      </trkpt>
      <trkpt lat="40.648538" lon="-3.626203">
        <ele>649.395</ele>
        <time>2015-02-15T11:24:34Z</time>
      </trkpt>
      <trkpt lat="40.648465" lon="-3.626203">
        <ele>649.454</ele>
        <time>2015-02-15T11:24:37Z</time>
      </trkpt>
      <trkpt lat="40.648394" lon="-3.626207">
        <ele>649.678</ele>
        <time>2015-02-15T11:24:40Z</time>
      </trkpt>
      <trkpt lat="40.648294" lon="-3.626217">
        <ele>649.897</ele>
        <time>2015-02-15T11:24:44Z</time>
      </trkpt>
      <trkpt lat="40.648226" lon="-3.626237">
        <ele>649.943</ele>
        <time>2015-02-15T11:24:47Z</time>
      </trkpt>
      <trkpt lat="40.648178" lon="-3.626258">
        <ele>650.154</ele>
        <time>2015-02-15T11:24:49Z</time>
      </trkpt>
      <trkpt lat="40.648108" lon="-3.626289">
        <ele>650.339</ele>
        <time>2015-02-15T11:24:52Z</time>
      </trkpt>
      <trkpt lat="40.648039" lon="-3.626319">
        <ele>650.501</ele>
        <time>2015-02-15T11:24:55Z</time>
      </trkpt>
      <trkpt lat="40.647976" lon="-3.626348">
        <ele>650.621</ele>
        <time>2015-02-15T11:24:58Z</time>
      </trkpt>
      <trkpt lat="40.647928" lon="-3.626360">
        <ele>650.607</ele>
        <time>2015-02-15T11:25:00Z</time>
      </trkpt>
      <trkpt lat="40.647863" lon="-3.626373">
        <ele>650.751</ele>
        <time>2015-02-15T11:25:03Z</time>
      </trkpt>
      <trkpt lat="40.647760" lon="-3.626389">
        <ele>650.821</ele>
        <time>2015-02-15T11:25:07Z</time>
      </trkpt>
      <trkpt lat="40.647684" lon="-3.626401">
        <ele>650.830</ele>
        <time>2015-02-15T11:25:10Z</time>
      </trkpt>
      <trkpt lat="40.647635" lon="-3.626415">
        <ele>650.914</ele>
        <time>2015-02-15T11:25:12Z</time>
      </trkpt>
      <trkpt lat="40.647562" lon="-3.626434">
        <ele>651.023</ele>
        <time>2015-02-15T11:25:15Z</time>
      </trkpt>
      <trkpt lat="40.647486" lon="-3.626455">
        <ele>651.179</ele>
        <time>2015-02-15T11:25:18Z</time>
      </trkpt>
      <trkpt lat="40.647437" lon="-3.626475">
        <ele>651.270</ele>
        <time>2015-02-15T11:25:20Z</time>
      </trkpt>
      <trkpt lat="40.647367" lon="-3.626509">
        <ele>651.446</ele>
        <time>2015-02-15T11:25:23Z</time>
      </trkpt>
      <trkpt lat="40.647291" lon="-3.626545">
        <ele>651.688</ele>
        <time>2015-02-15T11:25:26Z</time>
      </trkpt>
      <trkpt lat="40.647221" lon="-3.626575">
        <ele>651.816</ele>
        <time>2015-02-15T11:25:30Z</time>
      </trkpt>
      <trkpt lat="40.647148" lon="-3.626612">
        <ele>652.007</ele>
        <time>2015-02-15T11:25:33Z</time>
      </trkpt>
      <trkpt lat="40.647102" lon="-3.626646">
        <ele>652.222</ele>
        <time>2015-02-15T11:25:35Z</time>
      </trkpt>
      <trkpt lat="40.647032" lon="-3.626680">
        <ele>652.562</ele>
        <time>2015-02-15T11:25:38Z</time>
      </trkpt>
      <trkpt lat="40.646965" lon="-3.626719">
        <ele>652.821</ele>
        <time>2015-02-15T11:25:41Z</time>
      </trkpt>
      <trkpt lat="40.646895" lon="-3.626757">
        <ele>653.135</ele>
        <time>2015-02-15T11:25:44Z</time>
      </trkpt>
      <trkpt lat="40.646816" lon="-3.626792">
        <ele>653.364</ele>
        <time>2015-02-15T11:25:47Z</time>
      </trkpt>
      <trkpt lat="40.646765" lon="-3.626822">
        <ele>653.570</ele>
        <time>2015-02-15T11:25:49Z</time>
      </trkpt>
      <trkpt lat="40.646677" lon="-3.626877">
        <ele>653.721</ele>
        <time>2015-02-15T11:25:53Z</time>
      </trkpt>
      <trkpt lat="40.646628" lon="-3.626899">
        <ele>653.827</ele>
        <time>2015-02-15T11:25:55Z</time>
      </trkpt>
      <trkpt lat="40.646537" lon="-3.626956">
        <ele>654.068</ele>
        <time>2015-02-15T11:25:58Z</time>
      </trkpt>
      <trkpt lat="40.646472" lon="-3.626997">
        <ele>654.214</ele>
        <time>2015-02-15T11:26:01Z</time>
      </trkpt>
      <trkpt lat="40.646406" lon="-3.627046">
        <ele>654.407</ele>
        <time>2015-02-15T11:26:04Z</time>
      </trkpt>
      <trkpt lat="40.646358" lon="-3.627066">
        <ele>654.660</ele>
        <time>2015-02-15T11:26:06Z</time>
      </trkpt>
      <trkpt lat="40.646308" lon="-3.627079">
        <ele>654.760</ele>
        <time>2015-02-15T11:26:08Z</time>
      </trkpt>
      <trkpt lat="40.646235" lon="-3.627095">
        <ele>654.919</ele>
        <time>2015-02-15T11:26:11Z</time>
      </trkpt>
      <trkpt lat="40.646182" lon="-3.627095">
        <ele>655.023</ele>
        <time>2015-02-15T11:26:13Z</time>
      </trkpt>
      <trkpt lat="40.646116" lon="-3.627083">
        <ele>655.242</ele>
        <time>2015-02-15T11:26:16Z</time>
      </trkpt>
      <trkpt lat="40.646094" lon="-3.627076">
        <ele>655.238</ele>
        <time>2015-02-15T11:26:17Z</time>
      </trkpt>
      <trkpt lat="40.646019" lon="-3.627053">
        <ele>655.339</ele>
        <time>2015-02-15T11:26:20Z</time>
      </trkpt>
      <trkpt lat="40.645953" lon="-3.627027">
        <ele>655.545</ele>
        <time>2015-02-15T11:26:23Z</time>
      </trkpt>
      <trkpt lat="40.645861" lon="-3.626986">
        <ele>655.547</ele>
        <time>2015-02-15T11:26:27Z</time>
      </trkpt>
      <trkpt lat="40.645789" lon="-3.626948">
        <ele>655.611</ele>
        <time>2015-02-15T11:26:30Z</time>
      </trkpt>
      <trkpt lat="40.645723" lon="-3.626914">
        <ele>655.707</ele>
        <time>2015-02-15T11:26:33Z</time>
      </trkpt>
      <trkpt lat="40.645655" lon="-3.626874">
        <ele>655.732</ele>
        <time>2015-02-15T11:26:36Z</time>
      </trkpt>
      <trkpt lat="40.645587" lon="-3.626836">
        <ele>655.722</ele>
        <time>2015-02-15T11:26:39Z</time>
      </trkpt>
      <trkpt lat="40.645514" lon="-3.626803">
        <ele>655.741</ele>
        <time>2015-02-15T11:26:42Z</time>
      </trkpt>
      <trkpt lat="40.645489" lon="-3.626801">
        <ele>655.775</ele>
        <time>2015-02-15T11:26:43Z</time>
      </trkpt>
      <trkpt lat="40.645410" lon="-3.626777">
        <ele>655.874</ele>
        <time>2015-02-15T11:26:46Z</time>
      </trkpt>
      <trkpt lat="40.645359" lon="-3.626767">
        <ele>655.850</ele>
        <time>2015-02-15T11:26:48Z</time>
      </trkpt>
      <trkpt lat="40.645310" lon="-3.626765">
        <ele>655.841</ele>
        <time>2015-02-15T11:26:50Z</time>
      </trkpt>
      <trkpt lat="40.645285" lon="-3.626769">
        <ele>655.861</ele>
        <time>2015-02-15T11:26:51Z</time>
      </trkpt>
      <trkpt lat="40.645232" lon="-3.626778">
        <ele>655.821</ele>
        <time>2015-02-15T11:26:53Z</time>
      </trkpt>
      <trkpt lat="40.645171" lon="-3.626778">
        <ele>655.813</ele>
        <time>2015-02-15T11:26:55Z</time>
      </trkpt>
      <trkpt lat="40.645138" lon="-3.626775">
        <ele>655.807</ele>
        <time>2015-02-15T11:26:56Z</time>
      </trkpt>
      <trkpt lat="40.645110" lon="-3.626785">
        <ele>655.884</ele>
        <time>2015-02-15T11:26:57Z</time>
      </trkpt>
      <trkpt lat="40.645083" lon="-3.626799">
        <ele>655.844</ele>
        <time>2015-02-15T11:26:58Z</time>
      </trkpt>
      <trkpt lat="40.645026" lon="-3.626830">
        <ele>655.723</ele>
        <time>2015-02-15T11:27:00Z</time>
      </trkpt>
      <trkpt lat="40.644980" lon="-3.626858">
        <ele>655.787</ele>
        <time>2015-02-15T11:27:02Z</time>
      </trkpt>
      <trkpt lat="40.644907" lon="-3.626895">
        <ele>655.886</ele>
        <time>2015-02-15T11:27:05Z</time>
      </trkpt>
      <trkpt lat="40.644884" lon="-3.626903">
        <ele>655.892</ele>
        <time>2015-02-15T11:27:06Z</time>
      </trkpt>
      <trkpt lat="40.644825" lon="-3.626933">
        <ele>655.893</ele>
        <time>2015-02-15T11:27:09Z</time>
      </trkpt>
      <trkpt lat="40.644751" lon="-3.626958">
        <ele>655.811</ele>
        <time>2015-02-15T11:27:12Z</time>
      </trkpt>
      <trkpt lat="40.644680" lon="-3.626975">
        <ele>655.821</ele>
        <time>2015-02-15T11:27:15Z</time>
      </trkpt>
      <trkpt lat="40.644614" lon="-3.626997">
        <ele>655.903</ele>
        <time>2015-02-15T11:27:18Z</time>
      </trkpt>
      <trkpt lat="40.644589" lon="-3.627008">
        <ele>655.907</ele>
        <time>2015-02-15T11:27:19Z</time>
      </trkpt>
      <trkpt lat="40.644566" lon="-3.627032">
        <ele>655.999</ele>
        <time>2015-02-15T11:27:21Z</time>
      </trkpt>
      <trkpt lat="40.644521" lon="-3.627071">
        <ele>655.979</ele>
        <time>2015-02-15T11:27:23Z</time>
      </trkpt>
      <trkpt lat="40.644452" lon="-3.627120">
        <ele>655.848</ele>
        <time>2015-02-15T11:27:26Z</time>
      </trkpt>
      <trkpt lat="40.644385" lon="-3.627143">
        <ele>655.992</ele>
        <time>2015-02-15T11:27:29Z</time>
      </trkpt>
      <trkpt lat="40.644362" lon="-3.627141">
        <ele>655.911</ele>
        <time>2015-02-15T11:27:30Z</time>
      </trkpt>
      <trkpt lat="40.644337" lon="-3.627143">
        <ele>655.987</ele>
        <time>2015-02-15T11:27:31Z</time>
      </trkpt>
      <trkpt lat="40.644309" lon="-3.627147">
        <ele>656.088</ele>
        <time>2015-02-15T11:27:32Z</time>
      </trkpt>
      <trkpt lat="40.644280" lon="-3.627152">
        <ele>655.981</ele>
        <time>2015-02-15T11:27:33Z</time>
      </trkpt>
      <trkpt lat="40.644255" lon="-3.627160">
        <ele>655.961</ele>
        <time>2015-02-15T11:27:34Z</time>
      </trkpt>
      <trkpt lat="40.644170" lon="-3.627180">
        <ele>655.917</ele>
        <time>2015-02-15T11:27:37Z</time>
      </trkpt>
      <trkpt lat="40.644123" lon="-3.627193">
        <ele>656.007</ele>
        <time>2015-02-15T11:27:39Z</time>
      </trkpt>
      <trkpt lat="40.644032" lon="-3.627227">
        <ele>656.036</ele>
        <time>2015-02-15T11:27:42Z</time>
      </trkpt>
      <trkpt lat="40.643964" lon="-3.627255">
        <ele>656.076</ele>
        <time>2015-02-15T11:27:45Z</time>
      </trkpt>
      <trkpt lat="40.643894" lon="-3.627293">
        <ele>656.195</ele>
        <time>2015-02-15T11:27:48Z</time>
      </trkpt>
      <trkpt lat="40.643826" lon="-3.627331">
        <ele>656.339</ele>
        <time>2015-02-15T11:27:51Z</time>
      </trkpt>
      <trkpt lat="40.643783" lon="-3.627349">
        <ele>656.438</ele>
        <time>2015-02-15T11:27:53Z</time>
      </trkpt>
      <trkpt lat="40.643718" lon="-3.627373">
        <ele>656.824</ele>
        <time>2015-02-15T11:27:56Z</time>
      </trkpt>
      <trkpt lat="40.643650" lon="-3.627398">
        <ele>657.195</ele>
        <time>2015-02-15T11:27:59Z</time>
      </trkpt>
      <trkpt lat="40.643581" lon="-3.627427">
        <ele>657.474</ele>
        <time>2015-02-15T11:28:02Z</time>
      </trkpt>
      <trkpt lat="40.643510" lon="-3.627458">
        <ele>657.756</ele>
        <time>2015-02-15T11:28:05Z</time>
      </trkpt>
      <trkpt lat="40.643444" lon="-3.627491">
        <ele>657.921</ele>
        <time>2015-02-15T11:28:08Z</time>
      </trkpt>
      <trkpt lat="40.643424" lon="-3.627502">
        <ele>658.007</ele>
        <time>2015-02-15T11:28:09Z</time>
      </trkpt>
      <trkpt lat="40.643362" lon="-3.627549">
        <ele>658.315</ele>
        <time>2015-02-15T11:28:12Z</time>
      </trkpt>
      <trkpt lat="40.643335" lon="-3.627554">
        <ele>658.425</ele>
        <time>2015-02-15T11:28:13Z</time>
      </trkpt>
      <trkpt lat="40.643310" lon="-3.627559">
        <ele>658.524</ele>
        <time>2015-02-15T11:28:14Z</time>
      </trkpt>
      <trkpt lat="40.643283" lon="-3.627566">
        <ele>658.658</ele>
        <time>2015-02-15T11:28:15Z</time>
      </trkpt>
      <trkpt lat="40.643218" lon="-3.627577">
        <ele>658.877</ele>
        <time>2015-02-15T11:28:18Z</time>
      </trkpt>
      <trkpt lat="40.643145" lon="-3.627581">
        <ele>659.233</ele>
        <time>2015-02-15T11:28:21Z</time>
      </trkpt>
      <trkpt lat="40.643067" lon="-3.627602">
        <ele>659.514</ele>
        <time>2015-02-15T11:28:24Z</time>
      </trkpt>
      <trkpt lat="40.643049" lon="-3.627612">
        <ele>659.627</ele>
        <time>2015-02-15T11:28:25Z</time>
      </trkpt>
      <trkpt lat="40.643011" lon="-3.627627">
        <ele>659.968</ele>
        <time>2015-02-15T11:28:27Z</time>
      </trkpt>
      <trkpt lat="40.642990" lon="-3.627633">
        <ele>660.014</ele>
        <time>2015-02-15T11:28:28Z</time>
      </trkpt>
      <trkpt lat="40.642941" lon="-3.627643">
        <ele>660.207</ele>
        <time>2015-02-15T11:28:30Z</time>
      </trkpt>
      <trkpt lat="40.642875" lon="-3.627658">
        <ele>660.680</ele>
        <time>2015-02-15T11:28:33Z</time>
      </trkpt>
      <trkpt lat="40.642825" lon="-3.627675">
        <ele>660.920</ele>
        <time>2015-02-15T11:28:35Z</time>
      </trkpt>
      <trkpt lat="40.642760" lon="-3.627706">
        <ele>661.399</ele>
        <time>2015-02-15T11:28:38Z</time>
      </trkpt>
      <trkpt lat="40.642720" lon="-3.627733">
        <ele>661.613</ele>
        <time>2015-02-15T11:28:40Z</time>
      </trkpt>
      <trkpt lat="40.642674" lon="-3.627753">
        <ele>661.982</ele>
        <time>2015-02-15T11:28:42Z</time>
      </trkpt>
      <trkpt lat="40.642628" lon="-3.627792">
        <ele>662.398</ele>
        <time>2015-02-15T11:28:45Z</time>
      </trkpt>
      <trkpt lat="40.642571" lon="-3.627824">
        <ele>662.799</ele>
        <time>2015-02-15T11:28:48Z</time>
      </trkpt>
      <trkpt lat="40.642532" lon="-3.627838">
        <ele>663.096</ele>
        <time>2015-02-15T11:28:50Z</time>
      </trkpt>
      <trkpt lat="40.642481" lon="-3.627862">
        <ele>663.231</ele>
        <time>2015-02-15T11:28:53Z</time>
      </trkpt>
      <trkpt lat="40.642429" lon="-3.627891">
        <ele>663.524</ele>
        <time>2015-02-15T11:28:56Z</time>
      </trkpt>
      <trkpt lat="40.642398" lon="-3.627904">
        <ele>663.607</ele>
        <time>2015-02-15T11:28:58Z</time>
      </trkpt>
      <trkpt lat="40.642357" lon="-3.627918">
        <ele>663.957</ele>
        <time>2015-02-15T11:29:01Z</time>
      </trkpt>
      <trkpt lat="40.642326" lon="-3.627941">
        <ele>664.147</ele>
        <time>2015-02-15T11:29:03Z</time>
      </trkpt>
      <trkpt lat="40.642305" lon="-3.627949">
        <ele>664.196</ele>
        <time>2015-02-15T11:29:04Z</time>
      </trkpt>
      <trkpt lat="40.642245" lon="-3.627968">
        <ele>664.470</ele>
        <time>2015-02-15T11:29:07Z</time>
      </trkpt>
      <trkpt lat="40.642226" lon="-3.627973">
        <ele>664.529</ele>
        <time>2015-02-15T11:29:08Z</time>
      </trkpt>
      <trkpt lat="40.642169" lon="-3.627983">
        <ele>664.745</ele>
        <time>2015-02-15T11:29:11Z</time>
      </trkpt>
      <trkpt lat="40.642113" lon="-3.628006">
        <ele>664.956</ele>
        <time>2015-02-15T11:29:14Z</time>
      </trkpt>
      <trkpt lat="40.642099" lon="-3.628017">
        <ele>665.025</ele>
        <time>2015-02-15T11:29:15Z</time>
      </trkpt>
      <trkpt lat="40.642036" lon="-3.628037">
        <ele>665.226</ele>
        <time>2015-02-15T11:29:18Z</time>
      </trkpt>
      <trkpt lat="40.642004" lon="-3.628057">
        <ele>665.408</ele>
        <time>2015-02-15T11:29:20Z</time>
      </trkpt>
      <trkpt lat="40.641970" lon="-3.628072">
        <ele>665.507</ele>
        <time>2015-02-15T11:29:23Z</time>
      </trkpt>
      <trkpt lat="40.641925" lon="-3.628096">
        <ele>665.860</ele>
        <time>2015-02-15T11:29:26Z</time>
      </trkpt>
      <trkpt lat="40.641908" lon="-3.628099">
        <ele>665.880</ele>
        <time>2015-02-15T11:29:27Z</time>
      </trkpt>
      <trkpt lat="40.641873" lon="-3.628101">
        <ele>666.059</ele>
        <time>2015-02-15T11:29:29Z</time>
      </trkpt>
      <trkpt lat="40.641832" lon="-3.628100">
        <ele>666.113</ele>
        <time>2015-02-15T11:29:31Z</time>
      </trkpt>
      <trkpt lat="40.641768" lon="-3.628102">
        <ele>666.332</ele>
        <time>2015-02-15T11:29:34Z</time>
      </trkpt>
      <trkpt lat="40.641748" lon="-3.628106">
        <ele>666.478</ele>
        <time>2015-02-15T11:29:35Z</time>
      </trkpt>
      <trkpt lat="40.641708" lon="-3.628119">
        <ele>666.529</ele>
        <time>2015-02-15T11:29:37Z</time>
      </trkpt>
      <trkpt lat="40.641668" lon="-3.628134">
        <ele>666.655</ele>
        <time>2015-02-15T11:29:39Z</time>
      </trkpt>
      <trkpt lat="40.641609" lon="-3.628165">
        <ele>666.807</ele>
        <time>2015-02-15T11:29:42Z</time>
      </trkpt>
      <trkpt lat="40.641569" lon="-3.628194">
        <ele>666.917</ele>
        <time>2015-02-15T11:29:44Z</time>
      </trkpt>
      <trkpt lat="40.641505" lon="-3.628232">
        <ele>667.107</ele>
        <time>2015-02-15T11:29:47Z</time>
      </trkpt>
      <trkpt lat="40.641446" lon="-3.628272">
        <ele>667.363</ele>
        <time>2015-02-15T11:29:50Z</time>
      </trkpt>
      <trkpt lat="40.641386" lon="-3.628301">
        <ele>667.553</ele>
        <time>2015-02-15T11:29:53Z</time>
      </trkpt>
      <trkpt lat="40.641341" lon="-3.628316">
        <ele>667.792</ele>
        <time>2015-02-15T11:29:55Z</time>
      </trkpt>
      <trkpt lat="40.641271" lon="-3.628348">
        <ele>668.066</ele>
        <time>2015-02-15T11:29:58Z</time>
      </trkpt>
      <trkpt lat="40.641178" lon="-3.628393">
        <ele>668.315</ele>
        <time>2015-02-15T11:30:01Z</time>
      </trkpt>
      <trkpt lat="40.641113" lon="-3.628434">
        <ele>668.741</ele>
        <time>2015-02-15T11:30:04Z</time>
      </trkpt>
      <trkpt lat="40.641095" lon="-3.628453">
        <ele>668.832</ele>
        <time>2015-02-15T11:30:05Z</time>
      </trkpt>
      <trkpt lat="40.641077" lon="-3.628469">
        <ele>668.965</ele>
        <time>2015-02-15T11:30:06Z</time>
      </trkpt>
      <trkpt lat="40.641011" lon="-3.628531">
        <ele>669.268</ele>
        <time>2015-02-15T11:30:09Z</time>
      </trkpt>
      <trkpt lat="40.640954" lon="-3.628600">
        <ele>669.514</ele>
        <time>2015-02-15T11:30:12Z</time>
      </trkpt>
      <trkpt lat="40.640894" lon="-3.628659">
        <ele>669.907</ele>
        <time>2015-02-15T11:30:15Z</time>
      </trkpt>
      <trkpt lat="40.640856" lon="-3.628690">
        <ele>670.154</ele>
        <time>2015-02-15T11:30:17Z</time>
      </trkpt>
      <trkpt lat="40.640785" lon="-3.628735">
        <ele>670.634</ele>
        <time>2015-02-15T11:30:20Z</time>
      </trkpt>
      <trkpt lat="40.640729" lon="-3.628748">
        <ele>670.833</ele>
        <time>2015-02-15T11:30:22Z</time>
      </trkpt>
      <trkpt lat="40.640696" lon="-3.628754">
        <ele>671.047</ele>
        <time>2015-02-15T11:30:23Z</time>
      </trkpt>
      <trkpt lat="40.640620" lon="-3.628761">
        <ele>671.336</ele>
        <time>2015-02-15T11:30:26Z</time>
      </trkpt>
      <trkpt lat="40.640575" lon="-3.628769">
        <ele>671.562</ele>
        <time>2015-02-15T11:30:28Z</time>
      </trkpt>
      <trkpt lat="40.640548" lon="-3.628770">
        <ele>671.543</ele>
        <time>2015-02-15T11:30:29Z</time>
      </trkpt>
      <trkpt lat="40.640457" lon="-3.628778">
        <ele>671.884</ele>
        <time>2015-02-15T11:30:32Z</time>
      </trkpt>
      <trkpt lat="40.640367" lon="-3.628782">
        <ele>672.007</ele>
        <time>2015-02-15T11:30:35Z</time>
      </trkpt>
      <trkpt lat="40.640308" lon="-3.628777">
        <ele>672.217</ele>
        <time>2015-02-15T11:30:37Z</time>
      </trkpt>
      <trkpt lat="40.640219" lon="-3.628778">
        <ele>672.407</ele>
        <time>2015-02-15T11:30:40Z</time>
      </trkpt>
      <trkpt lat="40.640191" lon="-3.628783">
        <ele>672.576</ele>
        <time>2015-02-15T11:30:41Z</time>
      </trkpt>
      <trkpt lat="40.640109" lon="-3.628813">
        <ele>672.716</ele>
        <time>2015-02-15T11:30:44Z</time>
      </trkpt>
      <trkpt lat="40.640062" lon="-3.628843">
        <ele>672.895</ele>
        <time>2015-02-15T11:30:46Z</time>
      </trkpt>
      <trkpt lat="40.640052" lon="-3.628878">
        <ele>672.999</ele>
        <time>2015-02-15T11:30:47Z</time>
      </trkpt>
      <trkpt lat="40.640040" lon="-3.628909">
        <ele>672.968</ele>
        <time>2015-02-15T11:30:48Z</time>
      </trkpt>
      <trkpt lat="40.640027" lon="-3.628941">
        <ele>673.094</ele>
        <time>2015-02-15T11:30:49Z</time>
      </trkpt>
      <trkpt lat="40.639999" lon="-3.629037">
        <ele>673.125</ele>
        <time>2015-02-15T11:30:52Z</time>
      </trkpt>
      <trkpt lat="40.639994" lon="-3.629083">
        <ele>673.265</ele>
        <time>2015-02-15T11:30:53Z</time>
      </trkpt>
      <trkpt lat="40.639993" lon="-3.629123">
        <ele>673.268</ele>
        <time>2015-02-15T11:30:54Z</time>
      </trkpt>
      <trkpt lat="40.639976" lon="-3.629235">
        <ele>673.414</ele>
        <time>2015-02-15T11:30:57Z</time>
      </trkpt>
      <trkpt lat="40.639960" lon="-3.629300">
        <ele>673.507</ele>
        <time>2015-02-15T11:30:59Z</time>
      </trkpt>
      <trkpt lat="40.639931" lon="-3.629401">
        <ele>673.784</ele>
        <time>2015-02-15T11:31:02Z</time>
      </trkpt>
      <trkpt lat="40.639922" lon="-3.629468">
        <ele>673.884</ele>
        <time>2015-02-15T11:31:04Z</time>
      </trkpt>
      <trkpt lat="40.639917" lon="-3.629504">
        <ele>673.873</ele>
        <time>2015-02-15T11:31:05Z</time>
      </trkpt>
      <trkpt lat="40.639921" lon="-3.629562">
        <ele>674.067</ele>
        <time>2015-02-15T11:31:07Z</time>
      </trkpt>
      <trkpt lat="40.639919" lon="-3.629652">
        <ele>674.336</ele>
        <time>2015-02-15T11:31:10Z</time>
      </trkpt>
      <trkpt lat="40.639911" lon="-3.629712">
        <ele>674.432</ele>
        <time>2015-02-15T11:31:12Z</time>
      </trkpt>
      <trkpt lat="40.639898" lon="-3.629799">
        <ele>674.773</ele>
        <time>2015-02-15T11:31:15Z</time>
      </trkpt>
      <trkpt lat="40.639886" lon="-3.629853">
        <ele>674.844</ele>
        <time>2015-02-15T11:31:17Z</time>
      </trkpt>
      <trkpt lat="40.639863" lon="-3.629906">
        <ele>674.905</ele>
        <time>2015-02-15T11:31:19Z</time>
      </trkpt>
      <trkpt lat="40.639855" lon="-3.629936">
        <ele>675.015</ele>
        <time>2015-02-15T11:31:20Z</time>
      </trkpt>
      <trkpt lat="40.639837" lon="-3.629994">
        <ele>675.207</ele>
        <time>2015-02-15T11:31:22Z</time>
      </trkpt>
      <trkpt lat="40.639802" lon="-3.630087">
        <ele>675.412</ele>
        <time>2015-02-15T11:31:25Z</time>
      </trkpt>
      <trkpt lat="40.639775" lon="-3.630143">
        <ele>675.642</ele>
        <time>2015-02-15T11:31:28Z</time>
      </trkpt>
      <trkpt lat="40.639735" lon="-3.630225">
        <ele>675.931</ele>
        <time>2015-02-15T11:31:31Z</time>
      </trkpt>
      <trkpt lat="40.639727" lon="-3.630254">
        <ele>676.095</ele>
        <time>2015-02-15T11:31:32Z</time>
      </trkpt>
      <trkpt lat="40.639690" lon="-3.630332">
        <ele>676.394</ele>
        <time>2015-02-15T11:31:35Z</time>
      </trkpt>
      <trkpt lat="40.639645" lon="-3.630415">
        <ele>676.690</ele>
        <time>2015-02-15T11:31:38Z</time>
      </trkpt>
      <trkpt lat="40.639623" lon="-3.630490">
        <ele>676.761</ele>
        <time>2015-02-15T11:31:40Z</time>
      </trkpt>
      <trkpt lat="40.639582" lon="-3.630598">
        <ele>677.034</ele>
        <time>2015-02-15T11:31:43Z</time>
      </trkpt>
      <trkpt lat="40.639574" lon="-3.630637">
        <ele>677.155</ele>
        <time>2015-02-15T11:31:44Z</time>
      </trkpt>
      <trkpt lat="40.639544" lon="-3.630743">
        <ele>677.410</ele>
        <time>2015-02-15T11:31:47Z</time>
      </trkpt>
      <trkpt lat="40.639506" lon="-3.630845">
        <ele>677.707</ele>
        <time>2015-02-15T11:31:50Z</time>
      </trkpt>
      <trkpt lat="40.639467" lon="-3.630948">
        <ele>678.031</ele>
        <time>2015-02-15T11:31:53Z</time>
      </trkpt>
      <trkpt lat="40.639429" lon="-3.631044">
        <ele>678.111</ele>
        <time>2015-02-15T11:31:56Z</time>
      </trkpt>
      <trkpt lat="40.639392" lon="-3.631140">
        <ele>678.330</ele>
        <time>2015-02-15T11:31:59Z</time>
      </trkpt>
      <trkpt lat="40.639359" lon="-3.631259">
        <ele>678.534</ele>
        <time>2015-02-15T11:32:02Z</time>
      </trkpt>
      <trkpt lat="40.639339" lon="-3.631354">
        <ele>678.883</ele>
        <time>2015-02-15T11:32:05Z</time>
      </trkpt>
      <trkpt lat="40.639318" lon="-3.631417">
        <ele>678.919</ele>
        <time>2015-02-15T11:32:07Z</time>
      </trkpt>
      <trkpt lat="40.639293" lon="-3.631515">
        <ele>679.230</ele>
        <time>2015-02-15T11:32:10Z</time>
      </trkpt>
      <trkpt lat="40.639263" lon="-3.631582">
        <ele>679.338</ele>
        <time>2015-02-15T11:32:12Z</time>
      </trkpt>
      <trkpt lat="40.639250" lon="-3.631614">
        <ele>679.470</ele>
        <time>2015-02-15T11:32:13Z</time>
      </trkpt>
      <trkpt lat="40.639238" lon="-3.631674">
        <ele>679.617</ele>
        <time>2015-02-15T11:32:15Z</time>
      </trkpt>
      <trkpt lat="40.639231" lon="-3.631710">
        <ele>679.707</ele>
        <time>2015-02-15T11:32:16Z</time>
      </trkpt>
      <trkpt lat="40.639222" lon="-3.631746">
        <ele>679.821</ele>
        <time>2015-02-15T11:32:17Z</time>
      </trkpt>
      <trkpt lat="40.639210" lon="-3.631831">
        <ele>680.041</ele>
        <time>2015-02-15T11:32:20Z</time>
      </trkpt>
      <trkpt lat="40.639210" lon="-3.631864">
        <ele>680.180</ele>
        <time>2015-02-15T11:32:21Z</time>
      </trkpt>
      <trkpt lat="40.639206" lon="-3.631954">
        <ele>680.344</ele>
        <time>2015-02-15T11:32:24Z</time>
      </trkpt>
      <trkpt lat="40.639201" lon="-3.631983">
        <ele>680.413</ele>
        <time>2015-02-15T11:32:25Z</time>
      </trkpt>
      <trkpt lat="40.639196" lon="-3.632038">
        <ele>680.689</ele>
        <time>2015-02-15T11:32:27Z</time>
      </trkpt>
      <trkpt lat="40.639181" lon="-3.632089">
        <ele>680.730</ele>
        <time>2015-02-15T11:32:29Z</time>
      </trkpt>
      <trkpt lat="40.639172" lon="-3.632117">
        <ele>680.883</ele>
        <time>2015-02-15T11:32:30Z</time>
      </trkpt>
      <trkpt lat="40.639158" lon="-3.632208">
        <ele>681.125</ele>
        <time>2015-02-15T11:32:33Z</time>
      </trkpt>
      <trkpt lat="40.639142" lon="-3.632285">
        <ele>681.417</ele>
        <time>2015-02-15T11:32:36Z</time>
      </trkpt>
      <trkpt lat="40.639129" lon="-3.632311">
        <ele>681.507</ele>
        <time>2015-02-15T11:32:37Z</time>
      </trkpt>
      <trkpt lat="40.639113" lon="-3.632341">
        <ele>681.636</ele>
        <time>2015-02-15T11:32:38Z</time>
      </trkpt>
      <trkpt lat="40.639097" lon="-3.632374">
        <ele>681.726</ele>
        <time>2015-02-15T11:32:39Z</time>
      </trkpt>
      <trkpt lat="40.639080" lon="-3.632431">
        <ele>681.945</ele>
        <time>2015-02-15T11:32:41Z</time>
      </trkpt>
      <trkpt lat="40.639080" lon="-3.632465">
        <ele>682.049</ele>
        <time>2015-02-15T11:32:42Z</time>
      </trkpt>
      <trkpt lat="40.639083" lon="-3.632495">
        <ele>682.168</ele>
        <time>2015-02-15T11:32:43Z</time>
      </trkpt>
      <trkpt lat="40.639087" lon="-3.632522">
        <ele>682.234</ele>
        <time>2015-02-15T11:32:44Z</time>
      </trkpt>
      <trkpt lat="40.639094" lon="-3.632616">
        <ele>682.415</ele>
        <time>2015-02-15T11:32:47Z</time>
      </trkpt>
      <trkpt lat="40.639114" lon="-3.632713">
        <ele>682.761</ele>
        <time>2015-02-15T11:32:50Z</time>
      </trkpt>
      <trkpt lat="40.639115" lon="-3.632776">
        <ele>682.821</ele>
        <time>2015-02-15T11:32:52Z</time>
      </trkpt>
      <trkpt lat="40.639114" lon="-3.632862">
        <ele>683.213</ele>
        <time>2015-02-15T11:32:55Z</time>
      </trkpt>
      <trkpt lat="40.639120" lon="-3.632926">
        <ele>683.407</ele>
        <time>2015-02-15T11:32:57Z</time>
      </trkpt>
      <trkpt lat="40.639128" lon="-3.633023">
        <ele>683.874</ele>
        <time>2015-02-15T11:33:00Z</time>
      </trkpt>
      <trkpt lat="40.639135" lon="-3.633052">
        <ele>683.954</ele>
        <time>2015-02-15T11:33:01Z</time>
      </trkpt>
      <trkpt lat="40.639144" lon="-3.633137">
        <ele>684.223</ele>
        <time>2015-02-15T11:33:04Z</time>
      </trkpt>
      <trkpt lat="40.639147" lon="-3.633190">
        <ele>684.487</ele>
        <time>2015-02-15T11:33:06Z</time>
      </trkpt>
      <trkpt lat="40.639151" lon="-3.633280">
        <ele>684.636</ele>
        <time>2015-02-15T11:33:09Z</time>
      </trkpt>
      <trkpt lat="40.639159" lon="-3.633372">
        <ele>684.972</ele>
        <time>2015-02-15T11:33:12Z</time>
      </trkpt>
      <trkpt lat="40.639157" lon="-3.633441">
        <ele>685.023</ele>
        <time>2015-02-15T11:33:14Z</time>
      </trkpt>
      <trkpt lat="40.639152" lon="-3.633531">
        <ele>685.171</ele>
        <time>2015-02-15T11:33:17Z</time>
      </trkpt>
      <trkpt lat="40.639145" lon="-3.633634">
        <ele>685.241</ele>
        <time>2015-02-15T11:33:20Z</time>
      </trkpt>
      <trkpt lat="40.639136" lon="-3.633698">
        <ele>685.415</ele>
        <time>2015-02-15T11:33:22Z</time>
      </trkpt>
      <trkpt lat="40.639129" lon="-3.633787">
        <ele>685.607</ele>
        <time>2015-02-15T11:33:25Z</time>
      </trkpt>
      <trkpt lat="40.639122" lon="-3.633872">
        <ele>685.735</ele>
        <time>2015-02-15T11:33:28Z</time>
      </trkpt>
      <trkpt lat="40.639125" lon="-3.633907">
        <ele>685.815</ele>
        <time>2015-02-15T11:33:29Z</time>
      </trkpt>
      <trkpt lat="40.639128" lon="-3.633940">
        <ele>685.914</ele>
        <time>2015-02-15T11:33:30Z</time>
      </trkpt>
      <trkpt lat="40.639140" lon="-3.634029">
        <ele>686.188</ele>
        <time>2015-02-15T11:33:33Z</time>
      </trkpt>
      <trkpt lat="40.639149" lon="-3.634117">
        <ele>686.387</ele>
        <time>2015-02-15T11:33:36Z</time>
      </trkpt>
      <trkpt lat="40.639157" lon="-3.634208">
        <ele>686.653</ele>
        <time>2015-02-15T11:33:40Z</time>
      </trkpt>
      <trkpt lat="40.639149" lon="-3.634243">
        <ele>686.774</ele>
        <time>2015-02-15T11:33:41Z</time>
      </trkpt>
      <trkpt lat="40.639146" lon="-3.634276">
        <ele>686.823</ele>
        <time>2015-02-15T11:33:42Z</time>
      </trkpt>
      <trkpt lat="40.639143" lon="-3.634308">
        <ele>686.983</ele>
        <time>2015-02-15T11:33:43Z</time>
      </trkpt>
      <trkpt lat="40.639141" lon="-3.634366">
        <ele>687.111</ele>
        <time>2015-02-15T11:33:45Z</time>
      </trkpt>
      <trkpt lat="40.639142" lon="-3.634480">
        <ele>687.607</ele>
        <time>2015-02-15T11:33:49Z</time>
      </trkpt>
      <trkpt lat="40.639140" lon="-3.634574">
        <ele>687.990</ele>
        <time>2015-02-15T11:33:52Z</time>
      </trkpt>
      <trkpt lat="40.639135" lon="-3.634601">
        <ele>688.020</ele>
        <time>2015-02-15T11:33:53Z</time>
      </trkpt>
      <trkpt lat="40.639122" lon="-3.634732">
        <ele>688.439</ele>
        <time>2015-02-15T11:33:56Z</time>
      </trkpt>
      <trkpt lat="40.639107" lon="-3.634827">
        <ele>688.783</ele>
        <time>2015-02-15T11:33:59Z</time>
      </trkpt>
      <trkpt lat="40.639093" lon="-3.634882">
        <ele>688.892</ele>
        <time>2015-02-15T11:34:01Z</time>
      </trkpt>
      <trkpt lat="40.639072" lon="-3.634928">
        <ele>689.028</ele>
        <time>2015-02-15T11:34:03Z</time>
      </trkpt>
      <trkpt lat="40.639056" lon="-3.634953">
        <ele>689.149</ele>
        <time>2015-02-15T11:34:04Z</time>
      </trkpt>
      <trkpt lat="40.639027" lon="-3.635027">
        <ele>689.438</ele>
        <time>2015-02-15T11:34:07Z</time>
      </trkpt>
      <trkpt lat="40.638999" lon="-3.635066">
        <ele>689.570</ele>
        <time>2015-02-15T11:34:09Z</time>
      </trkpt>
      <trkpt lat="40.638983" lon="-3.635097">
        <ele>689.717</ele>
        <time>2015-02-15T11:34:11Z</time>
      </trkpt>
      <trkpt lat="40.638938" lon="-3.635161">
        <ele>689.907</ele>
        <time>2015-02-15T11:34:14Z</time>
      </trkpt>
      <trkpt lat="40.638895" lon="-3.635223">
        <ele>690.271</ele>
        <time>2015-02-15T11:34:17Z</time>
      </trkpt>
      <trkpt lat="40.638889" lon="-3.635248">
        <ele>690.311</ele>
        <time>2015-02-15T11:34:18Z</time>
      </trkpt>
      <trkpt lat="40.638883" lon="-3.635275">
        <ele>690.410</ele>
        <time>2015-02-15T11:34:19Z</time>
      </trkpt>
      <trkpt lat="40.638872" lon="-3.635301">
        <ele>690.524</ele>
        <time>2015-02-15T11:34:20Z</time>
      </trkpt>
      <trkpt lat="40.638864" lon="-3.635348">
        <ele>690.673</ele>
        <time>2015-02-15T11:34:21Z</time>
      </trkpt>
      <trkpt lat="40.638858" lon="-3.635391">
        <ele>690.789</ele>
        <time>2015-02-15T11:34:22Z</time>
      </trkpt>
      <trkpt lat="40.638850" lon="-3.635439">
        <ele>690.830</ele>
        <time>2015-02-15T11:34:23Z</time>
      </trkpt>
      <trkpt lat="40.638826" lon="-3.635601">
        <ele>691.119</ele>
        <time>2015-02-15T11:34:26Z</time>
      </trkpt>
      <trkpt lat="40.638817" lon="-3.635660">
        <ele>691.209</ele>
        <time>2015-02-15T11:34:27Z</time>
      </trkpt>
      <trkpt lat="40.638809" lon="-3.635775">
        <ele>691.419</ele>
        <time>2015-02-15T11:34:29Z</time>
      </trkpt>
      <trkpt lat="40.638798" lon="-3.635945">
        <ele>691.607</ele>
        <time>2015-02-15T11:34:32Z</time>
      </trkpt>
      <trkpt lat="40.638779" lon="-3.635993">
        <ele>691.639</ele>
        <time>2015-02-15T11:34:33Z</time>
      </trkpt>
      <trkpt lat="40.638762" lon="-3.636027">
        <ele>691.779</ele>
        <time>2015-02-15T11:34:34Z</time>
      </trkpt>
      <trkpt lat="40.638739" lon="-3.636050">
        <ele>691.798</ele>
        <time>2015-02-15T11:34:35Z</time>
      </trkpt>
      <trkpt lat="40.638689" lon="-3.636050">
        <ele>691.892</ele>
        <time>2015-02-15T11:34:36Z</time>
      </trkpt>
      <trkpt lat="40.638651" lon="-3.636056">
        <ele>691.891</ele>
        <time>2015-02-15T11:34:37Z</time>
      </trkpt>
      <trkpt lat="40.638573" lon="-3.636058">
        <ele>691.957</ele>
        <time>2015-02-15T11:34:39Z</time>
      </trkpt>
      <trkpt lat="40.638506" lon="-3.636054">
        <ele>691.928</ele>
        <time>2015-02-15T11:34:41Z</time>
      </trkpt>
      <trkpt lat="40.638425" lon="-3.636056">
        <ele>692.019</ele>
        <time>2015-02-15T11:34:44Z</time>
      </trkpt>
      <trkpt lat="40.638342" lon="-3.636070">
        <ele>692.109</ele>
        <time>2015-02-15T11:34:47Z</time>
      </trkpt>
      <trkpt lat="40.638262" lon="-3.636097">
        <ele>692.219</ele>
        <time>2015-02-15T11:34:50Z</time>
      </trkpt>
      <trkpt lat="40.638154" lon="-3.636144">
        <ele>692.307</ele>
        <time>2015-02-15T11:34:54Z</time>
      </trkpt>
      <trkpt lat="40.638077" lon="-3.636189">
        <ele>692.429</ele>
        <time>2015-02-15T11:34:57Z</time>
      </trkpt>
      <trkpt lat="40.638005" lon="-3.636235">
        <ele>692.559</ele>
        <time>2015-02-15T11:35:00Z</time>
      </trkpt>
      <trkpt lat="40.637938" lon="-3.636282">
        <ele>692.648</ele>
        <time>2015-02-15T11:35:04Z</time>
      </trkpt>
      <trkpt lat="40.637866" lon="-3.636325">
        <ele>692.782</ele>
        <time>2015-02-15T11:35:07Z</time>
      </trkpt>
      <trkpt lat="40.637820" lon="-3.636341">
        <ele>692.791</ele>
        <time>2015-02-15T11:35:09Z</time>
      </trkpt>
      <trkpt lat="40.637729" lon="-3.636381">
        <ele>692.967</ele>
        <time>2015-02-15T11:35:13Z</time>
      </trkpt>
      <trkpt lat="40.637664" lon="-3.636403">
        <ele>693.038</ele>
        <time>2015-02-15T11:35:16Z</time>
      </trkpt>
      <trkpt lat="40.637603" lon="-3.636411">
        <ele>693.146</ele>
        <time>2015-02-15T11:35:19Z</time>
      </trkpt>
      <trkpt lat="40.637551" lon="-3.636433">
        <ele>693.288</ele>
        <time>2015-02-15T11:35:21Z</time>
      </trkpt>
      <trkpt lat="40.637529" lon="-3.636447">
        <ele>693.216</ele>
        <time>2015-02-15T11:35:22Z</time>
      </trkpt>
      <trkpt lat="40.637474" lon="-3.636486">
        <ele>693.407</ele>
        <time>2015-02-15T11:35:25Z</time>
      </trkpt>
      <trkpt lat="40.637445" lon="-3.636520">
        <ele>693.552</ele>
        <time>2015-02-15T11:35:26Z</time>
      </trkpt>
      <trkpt lat="40.637391" lon="-3.636559">
        <ele>693.812</ele>
        <time>2015-02-15T11:35:29Z</time>
      </trkpt>
      <trkpt lat="40.637338" lon="-3.636580">
        <ele>694.021</ele>
        <time>2015-02-15T11:35:31Z</time>
      </trkpt>
      <trkpt lat="40.637314" lon="-3.636578">
        <ele>694.165</ele>
        <time>2015-02-15T11:35:32Z</time>
      </trkpt>
      <trkpt lat="40.637291" lon="-3.636578">
        <ele>694.264</ele>
        <time>2015-02-15T11:35:33Z</time>
      </trkpt>
      <trkpt lat="40.637251" lon="-3.636599">
        <ele>694.530</ele>
        <time>2015-02-15T11:35:35Z</time>
      </trkpt>
      <trkpt lat="40.637213" lon="-3.636595">
        <ele>694.811</ele>
        <time>2015-02-15T11:35:37Z</time>
      </trkpt>
      <trkpt lat="40.637191" lon="-3.636596">
        <ele>695.055</ele>
        <time>2015-02-15T11:35:38Z</time>
      </trkpt>
      <trkpt lat="40.637168" lon="-3.636595">
        <ele>695.107</ele>
        <time>2015-02-15T11:35:39Z</time>
      </trkpt>
      <trkpt lat="40.637127" lon="-3.636607">
        <ele>695.417</ele>
        <time>2015-02-15T11:35:41Z</time>
      </trkpt>
      <trkpt lat="40.637089" lon="-3.636616">
        <ele>695.807</ele>
        <time>2015-02-15T11:35:43Z</time>
      </trkpt>
      <trkpt lat="40.637055" lon="-3.636637">
        <ele>696.133</ele>
        <time>2015-02-15T11:35:45Z</time>
      </trkpt>
      <trkpt lat="40.637002" lon="-3.636666">
        <ele>696.633</ele>
        <time>2015-02-15T11:35:48Z</time>
      </trkpt>
      <trkpt lat="40.636939" lon="-3.636699">
        <ele>697.012</ele>
        <time>2015-02-15T11:35:51Z</time>
      </trkpt>
      <trkpt lat="40.636906" lon="-3.636712">
        <ele>697.386</ele>
        <time>2015-02-15T11:35:53Z</time>
      </trkpt>
      <trkpt lat="40.636886" lon="-3.636710">
        <ele>697.525</ele>
        <time>2015-02-15T11:35:54Z</time>
      </trkpt>
      <trkpt lat="40.636869" lon="-3.636700">
        <ele>697.611</ele>
        <time>2015-02-15T11:35:55Z</time>
      </trkpt>
      <trkpt lat="40.636852" lon="-3.636694">
        <ele>697.752</ele>
        <time>2015-02-15T11:35:56Z</time>
      </trkpt>
      <trkpt lat="40.636802" lon="-3.636688">
        <ele>698.053</ele>
        <time>2015-02-15T11:35:58Z</time>
      </trkpt>
      <trkpt lat="40.636782" lon="-3.636687">
        <ele>698.104</ele>
        <time>2015-02-15T11:35:59Z</time>
      </trkpt>
      <trkpt lat="40.636752" lon="-3.636671">
        <ele>698.214</ele>
        <time>2015-02-15T11:36:00Z</time>
      </trkpt>
      <trkpt lat="40.636727" lon="-3.636655">
        <ele>698.307</ele>
        <time>2015-02-15T11:36:01Z</time>
      </trkpt>
      <trkpt lat="40.636699" lon="-3.636638">
        <ele>698.463</ele>
        <time>2015-02-15T11:36:02Z</time>
      </trkpt>
      <trkpt lat="40.636670" lon="-3.636628">
        <ele>698.593</ele>
        <time>2015-02-15T11:36:03Z</time>
      </trkpt>
      <trkpt lat="40.636612" lon="-3.636608">
        <ele>698.642</ele>
        <time>2015-02-15T11:36:05Z</time>
      </trkpt>
      <trkpt lat="40.636550" lon="-3.636575">
        <ele>698.886</ele>
        <time>2015-02-15T11:36:07Z</time>
      </trkpt>
      <trkpt lat="40.636523" lon="-3.636571">
        <ele>698.865</ele>
        <time>2015-02-15T11:36:08Z</time>
      </trkpt>
      <trkpt lat="40.636492" lon="-3.636565">
        <ele>698.921</ele>
        <time>2015-02-15T11:36:09Z</time>
      </trkpt>
      <trkpt lat="40.636431" lon="-3.636544">
        <ele>699.042</ele>
        <time>2015-02-15T11:36:11Z</time>
      </trkpt>
      <trkpt lat="40.636375" lon="-3.636524">
        <ele>699.143</ele>
        <time>2015-02-15T11:36:13Z</time>
      </trkpt>
      <trkpt lat="40.636275" lon="-3.636514">
        <ele>699.164</ele>
        <time>2015-02-15T11:36:16Z</time>
      </trkpt>
      <trkpt lat="40.636238" lon="-3.636517">
        <ele>699.110</ele>
        <time>2015-02-15T11:36:17Z</time>
      </trkpt>
      <trkpt lat="40.636203" lon="-3.636511">
        <ele>699.107</ele>
        <time>2015-02-15T11:36:18Z</time>
      </trkpt>
      <trkpt lat="40.636169" lon="-3.636503">
        <ele>699.182</ele>
        <time>2015-02-15T11:36:20Z</time>
      </trkpt>
      <trkpt lat="40.636130" lon="-3.636486">
        <ele>699.092</ele>
        <time>2015-02-15T11:36:20Z</time>
      </trkpt>
      <trkpt lat="40.636021" lon="-3.636445">
        <ele>699.071</ele>
        <time>2015-02-15T11:36:24Z</time>
      </trkpt>
      <trkpt lat="40.635914" lon="-3.636405">
        <ele>698.915</ele>
        <time>2015-02-15T11:36:27Z</time>
      </trkpt>
      <trkpt lat="40.635879" lon="-3.636401">
        <ele>698.864</ele>
        <time>2015-02-15T11:36:28Z</time>
      </trkpt>
      <trkpt lat="40.635770" lon="-3.636356">
        <ele>698.790</ele>
        <time>2015-02-15T11:36:31Z</time>
      </trkpt>
      <trkpt lat="40.635698" lon="-3.636327">
        <ele>698.691</ele>
        <time>2015-02-15T11:36:33Z</time>
      </trkpt>
      <trkpt lat="40.635586" lon="-3.636298">
        <ele>698.524</ele>
        <time>2015-02-15T11:36:35Z</time>
      </trkpt>
      <trkpt lat="40.635517" lon="-3.636268">
        <ele>698.404</ele>
        <time>2015-02-15T11:36:37Z</time>
      </trkpt>
      <trkpt lat="40.635478" lon="-3.636249">
        <ele>698.314</ele>
        <time>2015-02-15T11:36:38Z</time>
      </trkpt>
      <trkpt lat="40.635391" lon="-3.636217">
        <ele>698.107</ele>
        <time>2015-02-15T11:36:40Z</time>
      </trkpt>
      <trkpt lat="40.635215" lon="-3.636139">
        <ele>697.760</ele>
        <time>2015-02-15T11:36:44Z</time>
      </trkpt>
      <trkpt lat="40.635175" lon="-3.636107">
        <ele>697.610</ele>
        <time>2015-02-15T11:36:45Z</time>
      </trkpt>
      <trkpt lat="40.635113" lon="-3.636056">
        <ele>697.459</ele>
        <time>2015-02-15T11:36:47Z</time>
      </trkpt>
      <trkpt lat="40.635079" lon="-3.636033">
        <ele>697.333</ele>
        <time>2015-02-15T11:36:48Z</time>
      </trkpt>
      <trkpt lat="40.635051" lon="-3.636011">
        <ele>697.252</ele>
        <time>2015-02-15T11:36:49Z</time>
      </trkpt>
      <trkpt lat="40.635025" lon="-3.635998">
        <ele>697.158</ele>
        <time>2015-02-15T11:36:50Z</time>
      </trkpt>
      <trkpt lat="40.634977" lon="-3.635976">
        <ele>696.949</ele>
        <time>2015-02-15T11:36:52Z</time>
      </trkpt>
      <trkpt lat="40.634955" lon="-3.635954">
        <ele>696.867</ele>
        <time>2015-02-15T11:36:53Z</time>
      </trkpt>
      <trkpt lat="40.634934" lon="-3.635933">
        <ele>696.781</ele>
        <time>2015-02-15T11:36:54Z</time>
      </trkpt>
      <trkpt lat="40.634853" lon="-3.635865">
        <ele>696.419</ele>
        <time>2015-02-15T11:36:57Z</time>
      </trkpt>
      <trkpt lat="40.634778" lon="-3.635813">
        <ele>696.207</ele>
        <time>2015-02-15T11:37:00Z</time>
      </trkpt>
      <trkpt lat="40.634751" lon="-3.635804">
        <ele>696.244</ele>
        <time>2015-02-15T11:37:01Z</time>
      </trkpt>
      <trkpt lat="40.634669" lon="-3.635753">
        <ele>696.134</ele>
        <time>2015-02-15T11:37:04Z</time>
      </trkpt>
      <trkpt lat="40.634648" lon="-3.635721">
        <ele>696.123</ele>
        <time>2015-02-15T11:37:05Z</time>
      </trkpt>
      <trkpt lat="40.634591" lon="-3.635655">
        <ele>696.137</ele>
        <time>2015-02-15T11:37:08Z</time>
      </trkpt>
      <trkpt lat="40.634568" lon="-3.635638">
        <ele>696.126</ele>
        <time>2015-02-15T11:37:09Z</time>
      </trkpt>
      <trkpt lat="40.634544" lon="-3.635624">
        <ele>696.142</ele>
        <time>2015-02-15T11:37:10Z</time>
      </trkpt>
      <trkpt lat="40.634497" lon="-3.635580">
        <ele>696.133</ele>
        <time>2015-02-15T11:37:12Z</time>
      </trkpt>
      <trkpt lat="40.634462" lon="-3.635537">
        <ele>696.249</ele>
        <time>2015-02-15T11:37:14Z</time>
      </trkpt>
      <trkpt lat="40.634426" lon="-3.635484">
        <ele>696.202</ele>
        <time>2015-02-15T11:37:16Z</time>
      </trkpt>
      <trkpt lat="40.634369" lon="-3.635431">
        <ele>696.422</ele>
        <time>2015-02-15T11:37:19Z</time>
      </trkpt>
      <trkpt lat="40.634299" lon="-3.635352">
        <ele>696.507</ele>
        <time>2015-02-15T11:37:22Z</time>
      </trkpt>
      <trkpt lat="40.634279" lon="-3.635327">
        <ele>696.562</ele>
        <time>2015-02-15T11:37:23Z</time>
      </trkpt>
      <trkpt lat="40.634240" lon="-3.635276">
        <ele>696.662</ele>
        <time>2015-02-15T11:37:25Z</time>
      </trkpt>
      <trkpt lat="40.634202" lon="-3.635208">
        <ele>696.621</ele>
        <time>2015-02-15T11:37:27Z</time>
      </trkpt>
      <trkpt lat="40.634146" lon="-3.635132">
        <ele>696.785</ele>
        <time>2015-02-15T11:37:30Z</time>
      </trkpt>
      <trkpt lat="40.634123" lon="-3.635111">
        <ele>696.794</ele>
        <time>2015-02-15T11:37:31Z</time>
      </trkpt>
      <trkpt lat="40.634100" lon="-3.635103">
        <ele>696.710</ele>
        <time>2015-02-15T11:37:32Z</time>
      </trkpt>
      <trkpt lat="40.634076" lon="-3.635090">
        <ele>696.761</ele>
        <time>2015-02-15T11:37:33Z</time>
      </trkpt>
      <trkpt lat="40.634051" lon="-3.635076">
        <ele>696.779</ele>
        <time>2015-02-15T11:37:34Z</time>
      </trkpt>
      <trkpt lat="40.634029" lon="-3.635057">
        <ele>696.705</ele>
        <time>2015-02-15T11:37:35Z</time>
      </trkpt>
      <trkpt lat="40.633989" lon="-3.635021">
        <ele>696.725</ele>
        <time>2015-02-15T11:37:37Z</time>
      </trkpt>
      <trkpt lat="40.633974" lon="-3.634994">
        <ele>696.807</ele>
        <time>2015-02-15T11:37:38Z</time>
      </trkpt>
      <trkpt lat="40.633939" lon="-3.634950">
        <ele>696.965</ele>
        <time>2015-02-15T11:37:40Z</time>
      </trkpt>
      <trkpt lat="40.633895" lon="-3.634901">
        <ele>697.075</ele>
        <time>2015-02-15T11:37:42Z</time>
      </trkpt>
      <trkpt lat="40.633870" lon="-3.634884">
        <ele>697.154</ele>
        <time>2015-02-15T11:37:43Z</time>
      </trkpt>
      <trkpt lat="40.633806" lon="-3.634829">
        <ele>697.328</ele>
        <time>2015-02-15T11:37:47Z</time>
      </trkpt>
      <trkpt lat="40.633776" lon="-3.634808">
        <ele>697.367</ele>
        <time>2015-02-15T11:37:48Z</time>
      </trkpt>
      <trkpt lat="40.633719" lon="-3.634747">
        <ele>697.583</ele>
        <time>2015-02-15T11:37:50Z</time>
      </trkpt>
      <trkpt lat="40.633684" lon="-3.634715">
        <ele>697.584</ele>
        <time>2015-02-15T11:37:51Z</time>
      </trkpt>
      <trkpt lat="40.633646" lon="-3.634682">
        <ele>697.646</ele>
        <time>2015-02-15T11:37:52Z</time>
      </trkpt>
      <trkpt lat="40.633523" lon="-3.634594">
        <ele>697.788</ele>
        <time>2015-02-15T11:37:55Z</time>
      </trkpt>
      <trkpt lat="40.633435" lon="-3.634536">
        <ele>697.916</ele>
        <time>2015-02-15T11:37:57Z</time>
      </trkpt>
      <trkpt lat="40.633395" lon="-3.634492">
        <ele>697.907</ele>
        <time>2015-02-15T11:37:58Z</time>
      </trkpt>
      <trkpt lat="40.633349" lon="-3.634451">
        <ele>698.042</ele>
        <time>2015-02-15T11:37:59Z</time>
      </trkpt>
      <trkpt lat="40.633261" lon="-3.634367">
        <ele>698.122</ele>
        <time>2015-02-15T11:38:01Z</time>
      </trkpt>
      <trkpt lat="40.633126" lon="-3.634256">
        <ele>698.241</ele>
        <time>2015-02-15T11:38:03Z</time>
      </trkpt>
      <trkpt lat="40.633073" lon="-3.634225">
        <ele>698.245</ele>
        <time>2015-02-15T11:38:04Z</time>
      </trkpt>
      <trkpt lat="40.633024" lon="-3.634189">
        <ele>698.344</ele>
        <time>2015-02-15T11:38:05Z</time>
      </trkpt>
      <trkpt lat="40.632975" lon="-3.634156">
        <ele>698.320</ele>
        <time>2015-02-15T11:38:06Z</time>
      </trkpt>
      <trkpt lat="40.632887" lon="-3.634121">
        <ele>698.321</ele>
        <time>2015-02-15T11:38:08Z</time>
      </trkpt>
      <trkpt lat="40.632841" lon="-3.634112">
        <ele>698.357</ele>
        <time>2015-02-15T11:38:09Z</time>
      </trkpt>
      <trkpt lat="40.632764" lon="-3.634091">
        <ele>698.400</ele>
        <time>2015-02-15T11:38:11Z</time>
      </trkpt>
      <trkpt lat="40.632730" lon="-3.634080">
        <ele>698.420</ele>
        <time>2015-02-15T11:38:12Z</time>
      </trkpt>
      <trkpt lat="40.632696" lon="-3.634055">
        <ele>698.407</ele>
        <time>2015-02-15T11:38:13Z</time>
      </trkpt>
      <trkpt lat="40.632660" lon="-3.634010">
        <ele>698.443</ele>
        <time>2015-02-15T11:38:14Z</time>
      </trkpt>
      <trkpt lat="40.632586" lon="-3.633950">
        <ele>698.343</ele>
        <time>2015-02-15T11:38:16Z</time>
      </trkpt>
      <trkpt lat="40.632537" lon="-3.633929">
        <ele>698.312</ele>
        <time>2015-02-15T11:38:17Z</time>
      </trkpt>
      <trkpt lat="40.632456" lon="-3.633906">
        <ele>698.216</ele>
        <time>2015-02-15T11:38:19Z</time>
      </trkpt>
      <trkpt lat="40.632424" lon="-3.633883">
        <ele>698.265</ele>
        <time>2015-02-15T11:38:20Z</time>
      </trkpt>
      <trkpt lat="40.632390" lon="-3.633859">
        <ele>698.221</ele>
        <time>2015-02-15T11:38:21Z</time>
      </trkpt>
      <trkpt lat="40.632303" lon="-3.633802">
        <ele>698.242</ele>
        <time>2015-02-15T11:38:23Z</time>
      </trkpt>
      <trkpt lat="40.632265" lon="-3.633781">
        <ele>698.177</ele>
        <time>2015-02-15T11:38:24Z</time>
      </trkpt>
      <trkpt lat="40.632222" lon="-3.633759">
        <ele>698.161</ele>
        <time>2015-02-15T11:38:25Z</time>
      </trkpt>
      <trkpt lat="40.632188" lon="-3.633726">
        <ele>698.127</ele>
        <time>2015-02-15T11:38:26Z</time>
      </trkpt>
      <trkpt lat="40.632159" lon="-3.633697">
        <ele>698.107</ele>
        <time>2015-02-15T11:38:27Z</time>
      </trkpt>
      <trkpt lat="40.632053" lon="-3.633618">
        <ele>698.015</ele>
        <time>2015-02-15T11:38:30Z</time>
      </trkpt>
      <trkpt lat="40.632024" lon="-3.633590">
        <ele>697.965</ele>
        <time>2015-02-15T11:38:31Z</time>
      </trkpt>
      <trkpt lat="40.631989" lon="-3.633560">
        <ele>697.954</ele>
        <time>2015-02-15T11:38:32Z</time>
      </trkpt>
      <trkpt lat="40.631959" lon="-3.633541">
        <ele>697.888</ele>
        <time>2015-02-15T11:38:33Z</time>
      </trkpt>
      <trkpt lat="40.631927" lon="-3.633521">
        <ele>697.877</ele>
        <time>2015-02-15T11:38:34Z</time>
      </trkpt>
      <trkpt lat="40.631892" lon="-3.633516">
        <ele>697.883</ele>
        <time>2015-02-15T11:38:35Z</time>
      </trkpt>
      <trkpt lat="40.631868" lon="-3.633516">
        <ele>697.794</ele>
        <time>2015-02-15T11:38:36Z</time>
      </trkpt>
      <trkpt lat="40.631811" lon="-3.633494">
        <ele>697.676</ele>
        <time>2015-02-15T11:38:38Z</time>
      </trkpt>
      <trkpt lat="40.631780" lon="-3.633472">
        <ele>697.690</ele>
        <time>2015-02-15T11:38:39Z</time>
      </trkpt>
      <trkpt lat="40.631691" lon="-3.633423">
        <ele>697.419</ele>
        <time>2015-02-15T11:38:42Z</time>
      </trkpt>
      <trkpt lat="40.631660" lon="-3.633418">
        <ele>697.407</ele>
        <time>2015-02-15T11:38:43Z</time>
      </trkpt>
      <trkpt lat="40.631600" lon="-3.633390">
        <ele>697.265</ele>
        <time>2015-02-15T11:38:45Z</time>
      </trkpt>
      <trkpt lat="40.631495" lon="-3.633332">
        <ele>697.015</ele>
        <time>2015-02-15T11:38:49Z</time>
      </trkpt>
      <trkpt lat="40.631467" lon="-3.633328">
        <ele>697.074</ele>
        <time>2015-02-15T11:38:50Z</time>
      </trkpt>
      <trkpt lat="40.631381" lon="-3.633286">
        <ele>696.888</ele>
        <time>2015-02-15T11:38:53Z</time>
      </trkpt>
      <trkpt lat="40.631306" lon="-3.633213">
        <ele>696.617</ele>
        <time>2015-02-15T11:38:56Z</time>
      </trkpt>
      <trkpt lat="40.631261" lon="-3.633173">
        <ele>696.573</ele>
        <time>2015-02-15T11:38:58Z</time>
      </trkpt>
      <trkpt lat="40.631211" lon="-3.633150">
        <ele>696.474</ele>
        <time>2015-02-15T11:39:00Z</time>
      </trkpt>
      <trkpt lat="40.631180" lon="-3.633141">
        <ele>696.472</ele>
        <time>2015-02-15T11:39:01Z</time>
      </trkpt>
      <trkpt lat="40.631150" lon="-3.633135">
        <ele>696.313</ele>
        <time>2015-02-15T11:39:02Z</time>
      </trkpt>
      <trkpt lat="40.631063" lon="-3.633112">
        <ele>696.214</ele>
        <time>2015-02-15T11:39:05Z</time>
      </trkpt>
      <trkpt lat="40.631039" lon="-3.633097">
        <ele>696.207</ele>
        <time>2015-02-15T11:39:06Z</time>
      </trkpt>
      <trkpt lat="40.630990" lon="-3.633065">
        <ele>696.275</ele>
        <time>2015-02-15T11:39:08Z</time>
      </trkpt>
      <trkpt lat="40.630924" lon="-3.633008">
        <ele>696.265</ele>
        <time>2015-02-15T11:39:12Z</time>
      </trkpt>
      <trkpt lat="40.630884" lon="-3.632962">
        <ele>696.354</ele>
        <time>2015-02-15T11:39:14Z</time>
      </trkpt>
      <trkpt lat="40.630825" lon="-3.632912">
        <ele>696.598</ele>
        <time>2015-02-15T11:39:17Z</time>
      </trkpt>
      <trkpt lat="40.630760" lon="-3.632869">
        <ele>696.737</ele>
        <time>2015-02-15T11:39:20Z</time>
      </trkpt>
      <trkpt lat="40.630737" lon="-3.632860">
        <ele>696.833</ele>
        <time>2015-02-15T11:39:21Z</time>
      </trkpt>
      <trkpt lat="40.630661" lon="-3.632824">
        <ele>697.154</ele>
        <time>2015-02-15T11:39:24Z</time>
      </trkpt>
      <trkpt lat="40.630640" lon="-3.632798">
        <ele>697.278</ele>
        <time>2015-02-15T11:39:25Z</time>
      </trkpt>
      <trkpt lat="40.630625" lon="-3.632769">
        <ele>697.333</ele>
        <time>2015-02-15T11:39:26Z</time>
      </trkpt>
      <trkpt lat="40.630602" lon="-3.632724">
        <ele>697.426</ele>
        <time>2015-02-15T11:39:27Z</time>
      </trkpt>
      <trkpt lat="40.630579" lon="-3.632680">
        <ele>697.407</ele>
        <time>2015-02-15T11:39:28Z</time>
      </trkpt>
      <trkpt lat="40.630545" lon="-3.632630">
        <ele>697.535</ele>
        <time>2015-02-15T11:39:29Z</time>
      </trkpt>
      <trkpt lat="40.630509" lon="-3.632574">
        <ele>697.665</ele>
        <time>2015-02-15T11:39:30Z</time>
      </trkpt>
      <trkpt lat="40.630476" lon="-3.632522">
        <ele>697.774</ele>
        <time>2015-02-15T11:39:31Z</time>
      </trkpt>
      <trkpt lat="40.630434" lon="-3.632470">
        <ele>697.768</ele>
        <time>2015-02-15T11:39:32Z</time>
      </trkpt>
      <trkpt lat="40.630395" lon="-3.632434">
        <ele>697.827</ele>
        <time>2015-02-15T11:39:33Z</time>
      </trkpt>
      <trkpt lat="40.630351" lon="-3.632410">
        <ele>697.993</ele>
        <time>2015-02-15T11:39:34Z</time>
      </trkpt>
      <trkpt lat="40.630258" lon="-3.632365">
        <ele>697.984</ele>
        <time>2015-02-15T11:39:35Z</time>
      </trkpt>
      <trkpt lat="40.630218" lon="-3.632329">
        <ele>697.994</ele>
        <time>2015-02-15T11:39:36Z</time>
      </trkpt>
      <trkpt lat="40.630180" lon="-3.632283">
        <ele>698.057</ele>
        <time>2015-02-15T11:39:37Z</time>
      </trkpt>
      <trkpt lat="40.630132" lon="-3.632225">
        <ele>698.022</ele>
        <time>2015-02-15T11:39:38Z</time>
      </trkpt>
      <trkpt lat="40.630091" lon="-3.632164">
        <ele>698.007</ele>
        <time>2015-02-15T11:39:39Z</time>
      </trkpt>
      <trkpt lat="40.630048" lon="-3.632110">
        <ele>698.017</ele>
        <time>2015-02-15T11:39:40Z</time>
      </trkpt>
      <trkpt lat="40.629969" lon="-3.632013">
        <ele>698.017</ele>
        <time>2015-02-15T11:39:42Z</time>
      </trkpt>
      <trkpt lat="40.629905" lon="-3.631938">
        <ele>697.976</ele>
        <time>2015-02-15T11:39:44Z</time>
      </trkpt>
      <trkpt lat="40.629884" lon="-3.631911">
        <ele>697.920</ele>
        <time>2015-02-15T11:39:45Z</time>
      </trkpt>
      <trkpt lat="40.629869" lon="-3.631887">
        <ele>697.939</ele>
        <time>2015-02-15T11:39:46Z</time>
      </trkpt>
      <trkpt lat="40.629854" lon="-3.631867">
        <ele>697.895</ele>
        <time>2015-02-15T11:39:47Z</time>
      </trkpt>
      <trkpt lat="40.629854" lon="-3.631867">
        <ele>697.876</ele>
        <time>2015-02-15T11:39:48Z</time>
      </trkpt>
      <trkpt lat="40.629849" lon="-3.631859">
        <ele>697.818</ele>
        <time>2015-02-15T11:39:49Z</time>
      </trkpt>
      <trkpt lat="40.629830" lon="-3.631844">
        <ele>697.798</ele>
        <time>2015-02-15T11:39:51Z</time>
      </trkpt>
      <trkpt lat="40.629809" lon="-3.631804">
        <ele>697.617</ele>
        <time>2015-02-15T11:39:53Z</time>
      </trkpt>
      <trkpt lat="40.629774" lon="-3.631759">
        <ele>697.507</ele>
        <time>2015-02-15T11:39:55Z</time>
      </trkpt>
      <trkpt lat="40.629757" lon="-3.631742">
        <ele>697.519</ele>
        <time>2015-02-15T11:39:56Z</time>
      </trkpt>
      <trkpt lat="40.629737" lon="-3.631716">
        <ele>697.489</ele>
        <time>2015-02-15T11:39:57Z</time>
      </trkpt>
      <trkpt lat="40.629697" lon="-3.631673">
        <ele>697.368</ele>
        <time>2015-02-15T11:39:59Z</time>
      </trkpt>
      <trkpt lat="40.629637" lon="-3.631608">
        <ele>697.232</ele>
        <time>2015-02-15T11:40:02Z</time>
      </trkpt>
      <trkpt lat="40.629580" lon="-3.631547">
        <ele>697.071</ele>
        <time>2015-02-15T11:40:05Z</time>
      </trkpt>
      <trkpt lat="40.629559" lon="-3.631532">
        <ele>697.097</ele>
        <time>2015-02-15T11:40:06Z</time>
      </trkpt>
      <trkpt lat="40.629519" lon="-3.631502">
        <ele>696.988</ele>
        <time>2015-02-15T11:40:08Z</time>
      </trkpt>
      <trkpt lat="40.629461" lon="-3.631448">
        <ele>696.726</ele>
        <time>2015-02-15T11:40:11Z</time>
      </trkpt>
      <trkpt lat="40.629445" lon="-3.631415">
        <ele>696.747</ele>
        <time>2015-02-15T11:40:12Z</time>
      </trkpt>
      <trkpt lat="40.629426" lon="-3.631384">
        <ele>696.611</ele>
        <time>2015-02-15T11:40:13Z</time>
      </trkpt>
      <trkpt lat="40.629408" lon="-3.631361">
        <ele>696.507</ele>
        <time>2015-02-15T11:40:14Z</time>
      </trkpt>
      <trkpt lat="40.629393" lon="-3.631338">
        <ele>696.530</ele>
        <time>2015-02-15T11:40:15Z</time>
      </trkpt>
      <trkpt lat="40.629341" lon="-3.631276">
        <ele>696.330</ele>
        <time>2015-02-15T11:40:18Z</time>
      </trkpt>
      <trkpt lat="40.629307" lon="-3.631247">
        <ele>696.179</ele>
        <time>2015-02-15T11:40:20Z</time>
      </trkpt>
      <trkpt lat="40.629288" lon="-3.631228">
        <ele>696.023</ele>
        <time>2015-02-15T11:40:21Z</time>
      </trkpt>
      <trkpt lat="40.629231" lon="-3.631186">
        <ele>695.892</ele>
        <time>2015-02-15T11:40:24Z</time>
      </trkpt>
      <trkpt lat="40.629172" lon="-3.631136">
        <ele>695.698</ele>
        <time>2015-02-15T11:40:27Z</time>
      </trkpt>
      <trkpt lat="40.629129" lon="-3.631093">
        <ele>695.529</ele>
        <time>2015-02-15T11:40:29Z</time>
      </trkpt>
      <trkpt lat="40.629111" lon="-3.631085">
        <ele>695.549</ele>
        <time>2015-02-15T11:40:30Z</time>
      </trkpt>
      <trkpt lat="40.629094" lon="-3.631078">
        <ele>695.402</ele>
        <time>2015-02-15T11:40:31Z</time>
      </trkpt>
      <trkpt lat="40.629053" lon="-3.631069">
        <ele>695.422</ele>
        <time>2015-02-15T11:40:33Z</time>
      </trkpt>
      <trkpt lat="40.629000" lon="-3.631036">
        <ele>695.407</ele>
        <time>2015-02-15T11:40:36Z</time>
      </trkpt>
      <trkpt lat="40.628983" lon="-3.631011">
        <ele>695.432</ele>
        <time>2015-02-15T11:40:37Z</time>
      </trkpt>
      <trkpt lat="40.628970" lon="-3.630985">
        <ele>695.442</ele>
        <time>2015-02-15T11:40:38Z</time>
      </trkpt>
      <trkpt lat="40.628960" lon="-3.630959">
        <ele>695.581</ele>
        <time>2015-02-15T11:40:39Z</time>
      </trkpt>
      <trkpt lat="40.628929" lon="-3.630903">
        <ele>695.755</ele>
        <time>2015-02-15T11:40:42Z</time>
      </trkpt>
      <trkpt lat="40.628916" lon="-3.630875">
        <ele>695.824</ele>
        <time>2015-02-15T11:40:43Z</time>
      </trkpt>
      <trkpt lat="40.628886" lon="-3.630822">
        <ele>695.920</ele>
        <time>2015-02-15T11:40:46Z</time>
      </trkpt>
      <trkpt lat="40.628853" lon="-3.630751">
        <ele>696.141</ele>
        <time>2015-02-15T11:40:48Z</time>
      </trkpt>
      <trkpt lat="40.628834" lon="-3.630718">
        <ele>696.287</ele>
        <time>2015-02-15T11:40:49Z</time>
      </trkpt>
      <trkpt lat="40.628786" lon="-3.630648">
        <ele>696.342</ele>
        <time>2015-02-15T11:40:51Z</time>
      </trkpt>
      <trkpt lat="40.628762" lon="-3.630624">
        <ele>696.426</ele>
        <time>2015-02-15T11:40:52Z</time>
      </trkpt>
      <trkpt lat="40.628695" lon="-3.630546">
        <ele>696.707</ele>
        <time>2015-02-15T11:40:55Z</time>
      </trkpt>
      <trkpt lat="40.628649" lon="-3.630516">
        <ele>696.846</ele>
        <time>2015-02-15T11:40:57Z</time>
      </trkpt>
      <trkpt lat="40.628631" lon="-3.630506">
        <ele>696.986</ele>
        <time>2015-02-15T11:40:58Z</time>
      </trkpt>
      <trkpt lat="40.628587" lon="-3.630468">
        <ele>697.285</ele>
        <time>2015-02-15T11:41:00Z</time>
      </trkpt>
      <trkpt lat="40.628529" lon="-3.630423">
        <ele>697.569</ele>
        <time>2015-02-15T11:41:03Z</time>
      </trkpt>
      <trkpt lat="40.628489" lon="-3.630378">
        <ele>697.638</ele>
        <time>2015-02-15T11:41:04Z</time>
      </trkpt>
      <trkpt lat="40.628473" lon="-3.630353">
        <ele>697.724</ele>
        <time>2015-02-15T11:41:05Z</time>
      </trkpt>
      <trkpt lat="40.628424" lon="-3.630283">
        <ele>697.975</ele>
        <time>2015-02-15T11:41:08Z</time>
      </trkpt>
      <trkpt lat="40.628406" lon="-3.630249">
        <ele>698.076</ele>
        <time>2015-02-15T11:41:09Z</time>
      </trkpt>
      <trkpt lat="40.628366" lon="-3.630212">
        <ele>698.190</ele>
        <time>2015-02-15T11:41:11Z</time>
      </trkpt>
      <trkpt lat="40.628349" lon="-3.630195">
        <ele>698.219</ele>
        <time>2015-02-15T11:41:12Z</time>
      </trkpt>
      <trkpt lat="40.628296" lon="-3.630133">
        <ele>698.407</ele>
        <time>2015-02-15T11:41:15Z</time>
      </trkpt>
      <trkpt lat="40.628249" lon="-3.630105">
        <ele>698.585</ele>
        <time>2015-02-15T11:41:17Z</time>
      </trkpt>
      <trkpt lat="40.628229" lon="-3.630093">
        <ele>698.585</ele>
        <time>2015-02-15T11:41:18Z</time>
      </trkpt>
      <trkpt lat="40.628210" lon="-3.630087">
        <ele>698.634</ele>
        <time>2015-02-15T11:41:19Z</time>
      </trkpt>
      <trkpt lat="40.628151" lon="-3.630074">
        <ele>698.648</ele>
        <time>2015-02-15T11:41:21Z</time>
      </trkpt>
      <trkpt lat="40.628106" lon="-3.630045">
        <ele>698.677</ele>
        <time>2015-02-15T11:41:23Z</time>
      </trkpt>
      <trkpt lat="40.628084" lon="-3.630030">
        <ele>698.643</ele>
        <time>2015-02-15T11:41:24Z</time>
      </trkpt>
      <trkpt lat="40.628024" lon="-3.629992">
        <ele>698.774</ele>
        <time>2015-02-15T11:41:27Z</time>
      </trkpt>
      <trkpt lat="40.627927" lon="-3.629938">
        <ele>698.895</ele>
        <time>2015-02-15T11:41:31Z</time>
      </trkpt>
      <trkpt lat="40.627863" lon="-3.629903">
        <ele>698.849</ele>
        <time>2015-02-15T11:41:34Z</time>
      </trkpt>
      <trkpt lat="40.627846" lon="-3.629886">
        <ele>698.823</ele>
        <time>2015-02-15T11:41:35Z</time>
      </trkpt>
      <trkpt lat="40.627828" lon="-3.629878">
        <ele>698.907</ele>
        <time>2015-02-15T11:41:36Z</time>
      </trkpt>
      <trkpt lat="40.627808" lon="-3.629875">
        <ele>698.937</ele>
        <time>2015-02-15T11:41:37Z</time>
      </trkpt>
      <trkpt lat="40.627785" lon="-3.629877">
        <ele>699.027</ele>
        <time>2015-02-15T11:41:38Z</time>
      </trkpt>
      <trkpt lat="40.627768" lon="-3.629877">
        <ele>699.066</ele>
        <time>2015-02-15T11:41:39Z</time>
      </trkpt>
      <trkpt lat="40.627705" lon="-3.629851">
        <ele>699.260</ele>
        <time>2015-02-15T11:41:43Z</time>
      </trkpt>
      <trkpt lat="40.627689" lon="-3.629839">
        <ele>699.399</ele>
        <time>2015-02-15T11:41:44Z</time>
      </trkpt>
      <trkpt lat="40.627662" lon="-3.629811">
        <ele>699.545</ele>
        <time>2015-02-15T11:41:46Z</time>
      </trkpt>
      <trkpt lat="40.627647" lon="-3.629796">
        <ele>699.626</ele>
        <time>2015-02-15T11:41:47Z</time>
      </trkpt>
      <trkpt lat="40.627635" lon="-3.629784">
        <ele>699.778</ele>
        <time>2015-02-15T11:41:48Z</time>
      </trkpt>
      <trkpt lat="40.627585" lon="-3.629748">
        <ele>700.133</ele>
        <time>2015-02-15T11:41:51Z</time>
      </trkpt>
      <trkpt lat="40.627555" lon="-3.629730">
        <ele>700.326</ele>
        <time>2015-02-15T11:41:53Z</time>
      </trkpt>
      <trkpt lat="40.627509" lon="-3.629697">
        <ele>700.807</ele>
        <time>2015-02-15T11:41:56Z</time>
      </trkpt>
      <trkpt lat="40.627453" lon="-3.629660">
        <ele>701.485</ele>
        <time>2015-02-15T11:42:00Z</time>
      </trkpt>
      <trkpt lat="40.627422" lon="-3.629649">
        <ele>701.735</ele>
        <time>2015-02-15T11:42:02Z</time>
      </trkpt>
      <trkpt lat="40.627370" lon="-3.629631">
        <ele>702.234</ele>
        <time>2015-02-15T11:42:05Z</time>
      </trkpt>
      <trkpt lat="40.627331" lon="-3.629631">
        <ele>702.598</ele>
        <time>2015-02-15T11:42:07Z</time>
      </trkpt>
      <trkpt lat="40.627312" lon="-3.629634">
        <ele>702.757</ele>
        <time>2015-02-15T11:42:08Z</time>
      </trkpt>
      <trkpt lat="40.627295" lon="-3.629637">
        <ele>702.913</ele>
        <time>2015-02-15T11:42:09Z</time>
      </trkpt>
      <trkpt lat="40.627279" lon="-3.629643">
        <ele>703.064</ele>
        <time>2015-02-15T11:42:10Z</time>
      </trkpt>
      <trkpt lat="40.627262" lon="-3.629653">
        <ele>703.285</ele>
        <time>2015-02-15T11:42:11Z</time>
      </trkpt>
      <trkpt lat="40.627204" lon="-3.629667">
        <ele>703.789</ele>
        <time>2015-02-15T11:42:15Z</time>
      </trkpt>
      <trkpt lat="40.627188" lon="-3.629667">
        <ele>703.817</ele>
        <time>2015-02-15T11:42:16Z</time>
      </trkpt>
      <trkpt lat="40.627167" lon="-3.629662">
        <ele>704.007</ele>
        <time>2015-02-15T11:42:17Z</time>
      </trkpt>
      <trkpt lat="40.627117" lon="-3.629661">
        <ele>704.416</ele>
        <time>2015-02-15T11:42:20Z</time>
      </trkpt>
      <trkpt lat="40.627029" lon="-3.629659">
        <ele>705.166</ele>
        <time>2015-02-15T11:42:24Z</time>
      </trkpt>
      <trkpt lat="40.627007" lon="-3.629647">
        <ele>705.335</ele>
        <time>2015-02-15T11:42:25Z</time>
      </trkpt>
      <trkpt lat="40.626914" lon="-3.629629">
        <ele>705.889</ele>
        <time>2015-02-15T11:42:28Z</time>
      </trkpt>
      <trkpt lat="40.626893" lon="-3.629619">
        <ele>706.018</ele>
        <time>2015-02-15T11:42:29Z</time>
      </trkpt>
      <trkpt lat="40.626849" lon="-3.629598">
        <ele>706.334</ele>
        <time>2015-02-15T11:42:31Z</time>
      </trkpt>
      <trkpt lat="40.626826" lon="-3.629600">
        <ele>706.545</ele>
        <time>2015-02-15T11:42:32Z</time>
      </trkpt>
      <trkpt lat="40.626802" lon="-3.629601">
        <ele>706.737</ele>
        <time>2015-02-15T11:42:33Z</time>
      </trkpt>
      <trkpt lat="40.626780" lon="-3.629605">
        <ele>706.949</ele>
        <time>2015-02-15T11:42:34Z</time>
      </trkpt>
      <trkpt lat="40.626716" lon="-3.629621">
        <ele>707.413</ele>
        <time>2015-02-15T11:42:37Z</time>
      </trkpt>
      <trkpt lat="40.626669" lon="-3.629639">
        <ele>707.707</ele>
        <time>2015-02-15T11:42:39Z</time>
      </trkpt>
      <trkpt lat="40.626601" lon="-3.629675">
        <ele>708.211</ele>
        <time>2015-02-15T11:42:42Z</time>
      </trkpt>
      <trkpt lat="40.626580" lon="-3.629690">
        <ele>708.321</ele>
        <time>2015-02-15T11:42:43Z</time>
      </trkpt>
      <trkpt lat="40.626524" lon="-3.629737">
        <ele>708.620</ele>
        <time>2015-02-15T11:42:46Z</time>
      </trkpt>
      <trkpt lat="40.626461" lon="-3.629784">
        <ele>708.934</ele>
        <time>2015-02-15T11:42:49Z</time>
      </trkpt>
      <trkpt lat="40.626401" lon="-3.629831">
        <ele>709.233</ele>
        <time>2015-02-15T11:42:52Z</time>
      </trkpt>
      <trkpt lat="40.626379" lon="-3.629842">
        <ele>709.289</ele>
        <time>2015-02-15T11:42:53Z</time>
      </trkpt>
      <trkpt lat="40.626305" lon="-3.629885">
        <ele>709.490</ele>
        <time>2015-02-15T11:42:56Z</time>
      </trkpt>
      <trkpt lat="40.626201" lon="-3.629946">
        <ele>709.511</ele>
        <time>2015-02-15T11:43:00Z</time>
      </trkpt>
      <trkpt lat="40.626181" lon="-3.629942">
        <ele>709.521</ele>
        <time>2015-02-15T11:43:01Z</time>
      </trkpt>
      <trkpt lat="40.626157" lon="-3.629949">
        <ele>709.503</ele>
        <time>2015-02-15T11:43:02Z</time>
      </trkpt>
      <trkpt lat="40.626104" lon="-3.629984">
        <ele>709.507</ele>
        <time>2015-02-15T11:43:04Z</time>
      </trkpt>
      <trkpt lat="40.626073" lon="-3.629998">
        <ele>709.549</ele>
        <time>2015-02-15T11:43:05Z</time>
      </trkpt>
      <trkpt lat="40.626044" lon="-3.630014">
        <ele>709.649</ele>
        <time>2015-02-15T11:43:06Z</time>
      </trkpt>
      <trkpt lat="40.625987" lon="-3.630051">
        <ele>709.648</ele>
        <time>2015-02-15T11:43:08Z</time>
      </trkpt>
      <trkpt lat="40.625841" lon="-3.630125">
        <ele>709.742</ele>
        <time>2015-02-15T11:43:12Z</time>
      </trkpt>
      <trkpt lat="40.625772" lon="-3.630138">
        <ele>709.831</ele>
        <time>2015-02-15T11:43:14Z</time>
      </trkpt>
      <trkpt lat="40.625729" lon="-3.630126">
        <ele>709.897</ele>
        <time>2015-02-15T11:43:15Z</time>
      </trkpt>
      <trkpt lat="40.625681" lon="-3.630106">
        <ele>709.888</ele>
        <time>2015-02-15T11:43:16Z</time>
      </trkpt>
      <trkpt lat="40.625636" lon="-3.630083">
        <ele>709.939</ele>
        <time>2015-02-15T11:43:17Z</time>
      </trkpt>
      <trkpt lat="40.625583" lon="-3.630050">
        <ele>709.901</ele>
        <time>2015-02-15T11:43:18Z</time>
      </trkpt>
      <trkpt lat="40.625477" lon="-3.629987">
        <ele>709.921</ele>
        <time>2015-02-15T11:43:20Z</time>
      </trkpt>
      <trkpt lat="40.625372" lon="-3.629917">
        <ele>709.907</ele>
        <time>2015-02-15T11:43:22Z</time>
      </trkpt>
      <trkpt lat="40.625324" lon="-3.629878">
        <ele>709.971</ele>
        <time>2015-02-15T11:43:23Z</time>
      </trkpt>
      <trkpt lat="40.625277" lon="-3.629853">
        <ele>709.971</ele>
        <time>2015-02-15T11:43:24Z</time>
      </trkpt>
      <trkpt lat="40.625237" lon="-3.629837">
        <ele>709.980</ele>
        <time>2015-02-15T11:43:25Z</time>
      </trkpt>
      <trkpt lat="40.625197" lon="-3.629821">
        <ele>710.054</ele>
        <time>2015-02-15T11:43:26Z</time>
      </trkpt>
      <trkpt lat="40.625167" lon="-3.629813">
        <ele>710.043</ele>
        <time>2015-02-15T11:43:27Z</time>
      </trkpt>
      <trkpt lat="40.625138" lon="-3.629807">
        <ele>710.069</ele>
        <time>2015-02-15T11:43:28Z</time>
      </trkpt>
      <trkpt lat="40.625081" lon="-3.629783">
        <ele>710.040</ele>
        <time>2015-02-15T11:43:30Z</time>
      </trkpt>
      <trkpt lat="40.625026" lon="-3.629756">
        <ele>709.955</ele>
        <time>2015-02-15T11:43:33Z</time>
      </trkpt>
      <trkpt lat="40.624994" lon="-3.629742">
        <ele>709.907</ele>
        <time>2015-02-15T11:43:34Z</time>
      </trkpt>
      <trkpt lat="40.624963" lon="-3.629735">
        <ele>709.917</ele>
        <time>2015-02-15T11:43:35Z</time>
      </trkpt>
      <trkpt lat="40.624928" lon="-3.629724">
        <ele>709.807</ele>
        <time>2015-02-15T11:43:36Z</time>
      </trkpt>
      <trkpt lat="40.624886" lon="-3.629711">
        <ele>709.813</ele>
        <time>2015-02-15T11:43:37Z</time>
      </trkpt>
      <trkpt lat="40.624835" lon="-3.629694">
        <ele>709.883</ele>
        <time>2015-02-15T11:43:38Z</time>
      </trkpt>
      <trkpt lat="40.624779" lon="-3.629679">
        <ele>709.762</ele>
        <time>2015-02-15T11:43:39Z</time>
      </trkpt>
      <trkpt lat="40.624669" lon="-3.629640">
        <ele>709.796</ele>
        <time>2015-02-15T11:43:41Z</time>
      </trkpt>
      <trkpt lat="40.624619" lon="-3.629612">
        <ele>709.765</ele>
        <time>2015-02-15T11:43:42Z</time>
      </trkpt>
      <trkpt lat="40.624577" lon="-3.629590">
        <ele>709.661</ele>
        <time>2015-02-15T11:43:43Z</time>
      </trkpt>
      <trkpt lat="40.624542" lon="-3.629565">
        <ele>709.642</ele>
        <time>2015-02-15T11:43:44Z</time>
      </trkpt>
      <trkpt lat="40.624476" lon="-3.629526">
        <ele>709.643</ele>
        <time>2015-02-15T11:43:46Z</time>
      </trkpt>
      <trkpt lat="40.624415" lon="-3.629496">
        <ele>709.664</ele>
        <time>2015-02-15T11:43:48Z</time>
      </trkpt>
      <trkpt lat="40.624394" lon="-3.629489">
        <ele>709.510</ele>
        <time>2015-02-15T11:43:49Z</time>
      </trkpt>
      <trkpt lat="40.624306" lon="-3.629453">
        <ele>709.507</ele>
        <time>2015-02-15T11:43:52Z</time>
      </trkpt>
      <trkpt lat="40.624241" lon="-3.629428">
        <ele>709.512</ele>
        <time>2015-02-15T11:43:54Z</time>
      </trkpt>
      <trkpt lat="40.624128" lon="-3.629399">
        <ele>709.492</ele>
        <time>2015-02-15T11:43:56Z</time>
      </trkpt>
      <trkpt lat="40.624082" lon="-3.629407">
        <ele>709.451</ele>
        <time>2015-02-15T11:43:57Z</time>
      </trkpt>
      <trkpt lat="40.623954" lon="-3.629394">
        <ele>709.335</ele>
        <time>2015-02-15T11:44:00Z</time>
      </trkpt>
      <trkpt lat="40.623839" lon="-3.629361">
        <ele>709.224</ele>
        <time>2015-02-15T11:44:03Z</time>
      </trkpt>
      <trkpt lat="40.623749" lon="-3.629323">
        <ele>709.120</ele>
        <time>2015-02-15T11:44:05Z</time>
      </trkpt>
      <trkpt lat="40.623699" lon="-3.629305">
        <ele>709.151</ele>
        <time>2015-02-15T11:44:06Z</time>
      </trkpt>
      <trkpt lat="40.623646" lon="-3.629279">
        <ele>709.016</ele>
        <time>2015-02-15T11:44:07Z</time>
      </trkpt>
      <trkpt lat="40.623542" lon="-3.629238">
        <ele>708.876</ele>
        <time>2015-02-15T11:44:09Z</time>
      </trkpt>
      <trkpt lat="40.623443" lon="-3.629207">
        <ele>708.713</ele>
        <time>2015-02-15T11:44:11Z</time>
      </trkpt>
      <trkpt lat="40.623395" lon="-3.629197">
        <ele>708.607</ele>
        <time>2015-02-15T11:44:12Z</time>
      </trkpt>
      <trkpt lat="40.623357" lon="-3.629186">
        <ele>708.689</ele>
        <time>2015-02-15T11:44:13Z</time>
      </trkpt>
      <trkpt lat="40.623328" lon="-3.629172">
        <ele>708.569</ele>
        <time>2015-02-15T11:44:14Z</time>
      </trkpt>
      <trkpt lat="40.623303" lon="-3.629147">
        <ele>708.498</ele>
        <time>2015-02-15T11:44:15Z</time>
      </trkpt>
      <trkpt lat="40.623279" lon="-3.629121">
        <ele>708.392</ele>
        <time>2015-02-15T11:44:16Z</time>
      </trkpt>
      <trkpt lat="40.623234" lon="-3.629067">
        <ele>708.221</ele>
        <time>2015-02-15T11:44:18Z</time>
      </trkpt>
      <trkpt lat="40.623211" lon="-3.629030">
        <ele>708.127</ele>
        <time>2015-02-15T11:44:19Z</time>
      </trkpt>
      <trkpt lat="40.623184" lon="-3.629004">
        <ele>708.038</ele>
        <time>2015-02-15T11:44:20Z</time>
      </trkpt>
      <trkpt lat="40.623160" lon="-3.628984">
        <ele>708.056</ele>
        <time>2015-02-15T11:44:21Z</time>
      </trkpt>
      <trkpt lat="40.623110" lon="-3.628958">
        <ele>707.959</ele>
        <time>2015-02-15T11:44:23Z</time>
      </trkpt>
      <trkpt lat="40.623057" lon="-3.628931">
        <ele>707.814</ele>
        <time>2015-02-15T11:44:25Z</time>
      </trkpt>
      <trkpt lat="40.623004" lon="-3.628914">
        <ele>707.707</ele>
        <time>2015-02-15T11:44:27Z</time>
      </trkpt>
      <trkpt lat="40.622926" lon="-3.628899">
        <ele>707.623</ele>
        <time>2015-02-15T11:44:30Z</time>
      </trkpt>
      <trkpt lat="40.622900" lon="-3.628905">
        <ele>707.693</ele>
        <time>2015-02-15T11:44:31Z</time>
      </trkpt>
      <trkpt lat="40.622879" lon="-3.628904">
        <ele>707.662</ele>
        <time>2015-02-15T11:44:32Z</time>
      </trkpt>
      <trkpt lat="40.622819" lon="-3.628887">
        <ele>707.776</ele>
        <time>2015-02-15T11:44:35Z</time>
      </trkpt>
      <trkpt lat="40.622801" lon="-3.628874">
        <ele>707.785</ele>
        <time>2015-02-15T11:44:36Z</time>
      </trkpt>
      <trkpt lat="40.622786" lon="-3.628859">
        <ele>707.821</ele>
        <time>2015-02-15T11:44:37Z</time>
      </trkpt>
      <trkpt lat="40.622726" lon="-3.628822">
        <ele>708.062</ele>
        <time>2015-02-15T11:44:40Z</time>
      </trkpt>
      <trkpt lat="40.622709" lon="-3.628820">
        <ele>708.177</ele>
        <time>2015-02-15T11:44:41Z</time>
      </trkpt>
      <trkpt lat="40.622688" lon="-3.628823">
        <ele>708.261</ele>
        <time>2015-02-15T11:44:42Z</time>
      </trkpt>
      <trkpt lat="40.622636" lon="-3.628794">
        <ele>708.327</ele>
        <time>2015-02-15T11:44:45Z</time>
      </trkpt>
      <trkpt lat="40.622583" lon="-3.628779">
        <ele>708.407</ele>
        <time>2015-02-15T11:44:48Z</time>
      </trkpt>
      <trkpt lat="40.622520" lon="-3.628761">
        <ele>708.465</ele>
        <time>2015-02-15T11:44:51Z</time>
      </trkpt>
      <trkpt lat="40.622500" lon="-3.628763">
        <ele>708.425</ele>
        <time>2015-02-15T11:44:52Z</time>
      </trkpt>
      <trkpt lat="40.622484" lon="-3.628771">
        <ele>708.534</ele>
        <time>2015-02-15T11:44:53Z</time>
      </trkpt>
      <trkpt lat="40.622463" lon="-3.628777">
        <ele>708.568</ele>
        <time>2015-02-15T11:44:54Z</time>
      </trkpt>
      <trkpt lat="40.622445" lon="-3.628788">
        <ele>708.577</ele>
        <time>2015-02-15T11:44:55Z</time>
      </trkpt>
      <trkpt lat="40.622366" lon="-3.628802">
        <ele>708.693</ele>
        <time>2015-02-15T11:44:58Z</time>
      </trkpt>
      <trkpt lat="40.622298" lon="-3.628823">
        <ele>708.884</ele>
        <time>2015-02-15T11:45:02Z</time>
      </trkpt>
      <trkpt lat="40.622227" lon="-3.628849">
        <ele>709.013</ele>
        <time>2015-02-15T11:45:05Z</time>
      </trkpt>
      <trkpt lat="40.622153" lon="-3.628872">
        <ele>709.243</ele>
        <time>2015-02-15T11:45:08Z</time>
      </trkpt>
      <trkpt lat="40.622045" lon="-3.628904">
        <ele>709.507</ele>
        <time>2015-02-15T11:45:12Z</time>
      </trkpt>
      <trkpt lat="40.622009" lon="-3.628906">
        <ele>709.607</ele>
        <time>2015-02-15T11:45:13Z</time>
      </trkpt>
      <trkpt lat="40.621976" lon="-3.628921">
        <ele>709.619</ele>
        <time>2015-02-15T11:45:14Z</time>
      </trkpt>
      <trkpt lat="40.621906" lon="-3.628947">
        <ele>709.769</ele>
        <time>2015-02-15T11:45:15Z</time>
      </trkpt>
      <trkpt lat="40.621801" lon="-3.628994">
        <ele>709.828</ele>
        <time>2015-02-15T11:45:18Z</time>
      </trkpt>
      <trkpt lat="40.621733" lon="-3.629007">
        <ele>710.012</ele>
        <time>2015-02-15T11:45:20Z</time>
      </trkpt>
      <trkpt lat="40.621667" lon="-3.629013">
        <ele>710.161</ele>
        <time>2015-02-15T11:45:22Z</time>
      </trkpt>
      <trkpt lat="40.621603" lon="-3.629025">
        <ele>710.227</ele>
        <time>2015-02-15T11:45:24Z</time>
      </trkpt>
      <trkpt lat="40.621536" lon="-3.629051">
        <ele>710.448</ele>
        <time>2015-02-15T11:45:26Z</time>
      </trkpt>
      <trkpt lat="40.621442" lon="-3.629083">
        <ele>710.515</ele>
        <time>2015-02-15T11:45:29Z</time>
      </trkpt>
      <trkpt lat="40.621414" lon="-3.629081">
        <ele>710.665</ele>
        <time>2015-02-15T11:45:30Z</time>
      </trkpt>
      <trkpt lat="40.621381" lon="-3.629078">
        <ele>710.611</ele>
        <time>2015-02-15T11:45:31Z</time>
      </trkpt>
      <trkpt lat="40.621282" lon="-3.629087">
        <ele>710.707</ele>
        <time>2015-02-15T11:45:34Z</time>
      </trkpt>
      <trkpt lat="40.621222" lon="-3.629104">
        <ele>710.719</ele>
        <time>2015-02-15T11:45:36Z</time>
      </trkpt>
      <trkpt lat="40.621188" lon="-3.629121">
        <ele>710.789</ele>
        <time>2015-02-15T11:45:37Z</time>
      </trkpt>
      <trkpt lat="40.621090" lon="-3.629159">
        <ele>710.668</ele>
        <time>2015-02-15T11:45:40Z</time>
      </trkpt>
      <trkpt lat="40.621056" lon="-3.629167">
        <ele>710.622</ele>
        <time>2015-02-15T11:45:41Z</time>
      </trkpt>
      <trkpt lat="40.620985" lon="-3.629175">
        <ele>710.531</ele>
        <time>2015-02-15T11:45:43Z</time>
      </trkpt>
      <trkpt lat="40.620917" lon="-3.629197">
        <ele>710.517</ele>
        <time>2015-02-15T11:45:45Z</time>
      </trkpt>
      <trkpt lat="40.620823" lon="-3.629227">
        <ele>710.598</ele>
        <time>2015-02-15T11:45:48Z</time>
      </trkpt>
      <trkpt lat="40.620755" lon="-3.629240">
        <ele>710.527</ele>
        <time>2015-02-15T11:45:50Z</time>
      </trkpt>
      <trkpt lat="40.620704" lon="-3.629244">
        <ele>710.568</ele>
        <time>2015-02-15T11:45:51Z</time>
      </trkpt>
      <trkpt lat="40.620655" lon="-3.629242">
        <ele>710.514</ele>
        <time>2015-02-15T11:45:52Z</time>
      </trkpt>
      <trkpt lat="40.620609" lon="-3.629246">
        <ele>710.407</ele>
        <time>2015-02-15T11:45:53Z</time>
      </trkpt>
      <trkpt lat="40.620463" lon="-3.629246">
        <ele>710.390</ele>
        <time>2015-02-15T11:45:56Z</time>
      </trkpt>
      <trkpt lat="40.620416" lon="-3.629229">
        <ele>710.310</ele>
        <time>2015-02-15T11:45:57Z</time>
      </trkpt>
      <trkpt lat="40.620382" lon="-3.629199">
        <ele>710.289</ele>
        <time>2015-02-15T11:45:58Z</time>
      </trkpt>
      <trkpt lat="40.620346" lon="-3.629169">
        <ele>710.243</ele>
        <time>2015-02-15T11:45:59Z</time>
      </trkpt>
      <trkpt lat="40.620281" lon="-3.629110">
        <ele>710.262</ele>
        <time>2015-02-15T11:46:01Z</time>
      </trkpt>
      <trkpt lat="40.620251" lon="-3.629090">
        <ele>710.188</ele>
        <time>2015-02-15T11:46:02Z</time>
      </trkpt>
      <trkpt lat="40.620200" lon="-3.629048">
        <ele>710.179</ele>
        <time>2015-02-15T11:46:04Z</time>
      </trkpt>
      <trkpt lat="40.620120" lon="-3.628989">
        <ele>710.214</ele>
        <time>2015-02-15T11:46:07Z</time>
      </trkpt>
      <trkpt lat="40.620037" lon="-3.628938">
        <ele>710.354</ele>
        <time>2015-02-15T11:46:10Z</time>
      </trkpt>
      <trkpt lat="40.619951" lon="-3.628898">
        <ele>710.409</ele>
        <time>2015-02-15T11:46:14Z</time>
      </trkpt>
      <trkpt lat="40.619900" lon="-3.628861">
        <ele>710.607</ele>
        <time>2015-02-15T11:46:16Z</time>
      </trkpt>
      <trkpt lat="40.619823" lon="-3.628817">
        <ele>710.919</ele>
        <time>2015-02-15T11:46:19Z</time>
      </trkpt>
      <trkpt lat="40.619732" lon="-3.628753">
        <ele>711.239</ele>
        <time>2015-02-15T11:46:22Z</time>
      </trkpt>
      <trkpt lat="40.619660" lon="-3.628695">
        <ele>711.698</ele>
        <time>2015-02-15T11:46:25Z</time>
      </trkpt>
      <trkpt lat="40.619606" lon="-3.628662">
        <ele>711.862</ele>
        <time>2015-02-15T11:46:27Z</time>
      </trkpt>
      <trkpt lat="40.619529" lon="-3.628620">
        <ele>712.141</ele>
        <time>2015-02-15T11:46:30Z</time>
      </trkpt>
      <trkpt lat="40.619432" lon="-3.628580">
        <ele>712.517</ele>
        <time>2015-02-15T11:46:34Z</time>
      </trkpt>
      <trkpt lat="40.619359" lon="-3.628567">
        <ele>712.668</ele>
        <time>2015-02-15T11:46:35Z</time>
      </trkpt>
      <trkpt lat="40.619318" lon="-3.628562">
        <ele>712.793</ele>
        <time>2015-02-15T11:46:36Z</time>
      </trkpt>
      <trkpt lat="40.619276" lon="-3.628562">
        <ele>712.765</ele>
        <time>2015-02-15T11:46:37Z</time>
      </trkpt>
      <trkpt lat="40.619180" lon="-3.628561">
        <ele>712.821</ele>
        <time>2015-02-15T11:46:39Z</time>
      </trkpt>
      <trkpt lat="40.619126" lon="-3.628549">
        <ele>712.907</ele>
        <time>2015-02-15T11:46:40Z</time>
      </trkpt>
      <trkpt lat="40.619067" lon="-3.628546">
        <ele>713.017</ele>
        <time>2015-02-15T11:46:41Z</time>
      </trkpt>
      <trkpt lat="40.618952" lon="-3.628534">
        <ele>713.067</ele>
        <time>2015-02-15T11:46:43Z</time>
      </trkpt>
      <trkpt lat="40.618881" lon="-3.628520">
        <ele>713.186</ele>
        <time>2015-02-15T11:46:44Z</time>
      </trkpt>
      <trkpt lat="40.618741" lon="-3.628505">
        <ele>713.110</ele>
        <time>2015-02-15T11:46:46Z</time>
      </trkpt>
      <trkpt lat="40.618599" lon="-3.628495">
        <ele>713.119</ele>
        <time>2015-02-15T11:46:48Z</time>
      </trkpt>
      <trkpt lat="40.618543" lon="-3.628481">
        <ele>713.175</ele>
        <time>2015-02-15T11:46:49Z</time>
      </trkpt>
      <trkpt lat="40.618418" lon="-3.628460">
        <ele>713.116</ele>
        <time>2015-02-15T11:46:51Z</time>
      </trkpt>
      <trkpt lat="40.618376" lon="-3.628450">
        <ele>713.188</ele>
        <time>2015-02-15T11:46:52Z</time>
      </trkpt>
      <trkpt lat="40.618342" lon="-3.628436">
        <ele>713.224</ele>
        <time>2015-02-15T11:46:53Z</time>
      </trkpt>
      <trkpt lat="40.618310" lon="-3.628428">
        <ele>713.226</ele>
        <time>2015-02-15T11:46:54Z</time>
      </trkpt>
      <trkpt lat="40.618278" lon="-3.628427">
        <ele>713.207</ele>
        <time>2015-02-15T11:46:55Z</time>
      </trkpt>
      <trkpt lat="40.618176" lon="-3.628402">
        <ele>713.356</ele>
        <time>2015-02-15T11:46:58Z</time>
      </trkpt>
      <trkpt lat="40.618068" lon="-3.628363">
        <ele>713.426</ele>
        <time>2015-02-15T11:47:01Z</time>
      </trkpt>
      <trkpt lat="40.618007" lon="-3.628334">
        <ele>713.515</ele>
        <time>2015-02-15T11:47:03Z</time>
      </trkpt>
      <trkpt lat="40.617951" lon="-3.628307">
        <ele>713.569</ele>
        <time>2015-02-15T11:47:05Z</time>
      </trkpt>
      <trkpt lat="40.617921" lon="-3.628285">
        <ele>713.588</ele>
        <time>2015-02-15T11:47:06Z</time>
      </trkpt>
      <trkpt lat="40.617896" lon="-3.628262">
        <ele>713.544</ele>
        <time>2015-02-15T11:47:07Z</time>
      </trkpt>
      <trkpt lat="40.617848" lon="-3.628213">
        <ele>713.425</ele>
        <time>2015-02-15T11:47:09Z</time>
      </trkpt>
      <trkpt lat="40.617828" lon="-3.628189">
        <ele>713.435</ele>
        <time>2015-02-15T11:47:10Z</time>
      </trkpt>
      <trkpt lat="40.617784" lon="-3.628146">
        <ele>713.486</ele>
        <time>2015-02-15T11:47:12Z</time>
      </trkpt>
      <trkpt lat="40.617732" lon="-3.628094">
        <ele>713.414</ele>
        <time>2015-02-15T11:47:14Z</time>
      </trkpt>
      <trkpt lat="40.617677" lon="-3.628027">
        <ele>713.407</ele>
        <time>2015-02-15T11:47:16Z</time>
      </trkpt>
      <trkpt lat="40.617584" lon="-3.627894">
        <ele>713.231</ele>
        <time>2015-02-15T11:47:19Z</time>
      </trkpt>
      <trkpt lat="40.617540" lon="-3.627844">
        <ele>713.271</ele>
        <time>2015-02-15T11:47:20Z</time>
      </trkpt>
      <trkpt lat="40.617488" lon="-3.627784">
        <ele>713.130</ele>
        <time>2015-02-15T11:47:21Z</time>
      </trkpt>
      <trkpt lat="40.617435" lon="-3.627725">
        <ele>713.014</ele>
        <time>2015-02-15T11:47:22Z</time>
      </trkpt>
      <trkpt lat="40.617343" lon="-3.627592">
        <ele>712.833</ele>
        <time>2015-02-15T11:47:24Z</time>
      </trkpt>
      <trkpt lat="40.617267" lon="-3.627437">
        <ele>712.639</ele>
        <time>2015-02-15T11:47:26Z</time>
      </trkpt>
      <trkpt lat="40.617206" lon="-3.627302">
        <ele>712.470</ele>
        <time>2015-02-15T11:47:28Z</time>
      </trkpt>
      <trkpt lat="40.617174" lon="-3.627242">
        <ele>712.325</ele>
        <time>2015-02-15T11:47:29Z</time>
      </trkpt>
      <trkpt lat="40.617150" lon="-3.627180">
        <ele>712.226</ele>
        <time>2015-02-15T11:47:30Z</time>
      </trkpt>
      <trkpt lat="40.617128" lon="-3.627123">
        <ele>712.108</ele>
        <time>2015-02-15T11:47:31Z</time>
      </trkpt>
      <trkpt lat="40.617088" lon="-3.627024">
        <ele>711.907</ele>
        <time>2015-02-15T11:47:33Z</time>
      </trkpt>
      <trkpt lat="40.617058" lon="-3.626946">
        <ele>711.770</ele>
        <time>2015-02-15T11:47:36Z</time>
      </trkpt>
      <trkpt lat="40.617049" lon="-3.626900">
        <ele>711.770</ele>
        <time>2015-02-15T11:47:36Z</time>
      </trkpt>
      <trkpt lat="40.617009" lon="-3.626767">
        <ele>711.599</ele>
        <time>2015-02-15T11:47:40Z</time>
      </trkpt>
      <trkpt lat="40.616998" lon="-3.626724">
        <ele>711.413</ele>
        <time>2015-02-15T11:47:41Z</time>
      </trkpt>
      <trkpt lat="40.616979" lon="-3.626678">
        <ele>711.322</ele>
        <time>2015-02-15T11:47:42Z</time>
      </trkpt>
      <trkpt lat="40.616962" lon="-3.626592">
        <ele>711.218</ele>
        <time>2015-02-15T11:47:44Z</time>
      </trkpt>
      <trkpt lat="40.616949" lon="-3.626546">
        <ele>711.179</ele>
        <time>2015-02-15T11:47:45Z</time>
      </trkpt>
      <trkpt lat="40.616918" lon="-3.626458">
        <ele>711.139</ele>
        <time>2015-02-15T11:47:47Z</time>
      </trkpt>
      <trkpt lat="40.616913" lon="-3.626417">
        <ele>711.001</ele>
        <time>2015-02-15T11:47:48Z</time>
      </trkpt>
      <trkpt lat="40.616907" lon="-3.626380">
        <ele>711.021</ele>
        <time>2015-02-15T11:47:49Z</time>
      </trkpt>
      <trkpt lat="40.616882" lon="-3.626309">
        <ele>711.007</ele>
        <time>2015-02-15T11:47:51Z</time>
      </trkpt>
      <trkpt lat="40.616876" lon="-3.626238">
        <ele>711.091</ele>
        <time>2015-02-15T11:47:53Z</time>
      </trkpt>
      <trkpt lat="40.616879" lon="-3.626195">
        <ele>710.991</ele>
        <time>2015-02-15T11:47:54Z</time>
      </trkpt>
      <trkpt lat="40.616881" lon="-3.626085">
        <ele>710.980</ele>
        <time>2015-02-15T11:47:55Z</time>
      </trkpt>
      <trkpt lat="40.616875" lon="-3.626016">
        <ele>710.814</ele>
        <time>2015-02-15T11:47:56Z</time>
      </trkpt>
      <trkpt lat="40.616857" lon="-3.625882">
        <ele>710.763</ele>
        <time>2015-02-15T11:47:58Z</time>
      </trkpt>
      <trkpt lat="40.616847" lon="-3.625813">
        <ele>710.719</ele>
        <time>2015-02-15T11:47:59Z</time>
      </trkpt>
      <trkpt lat="40.616847" lon="-3.625769">
        <ele>710.630</ele>
        <time>2015-02-15T11:48:00Z</time>
      </trkpt>
      <trkpt lat="40.616860" lon="-3.625738">
        <ele>710.699</ele>
        <time>2015-02-15T11:48:01Z</time>
      </trkpt>
      <trkpt lat="40.616891" lon="-3.625680">
        <ele>710.507</ele>
        <time>2015-02-15T11:48:03Z</time>
      </trkpt>
      <trkpt lat="40.616917" lon="-3.625654">
        <ele>710.427</ele>
        <time>2015-02-15T11:48:04Z</time>
      </trkpt>
      <trkpt lat="40.616965" lon="-3.625651">
        <ele>710.307</ele>
        <time>2015-02-15T11:48:05Z</time>
      </trkpt>
      <trkpt lat="40.617016" lon="-3.625640">
        <ele>710.327</ele>
        <time>2015-02-15T11:48:06Z</time>
      </trkpt>
      <trkpt lat="40.617063" lon="-3.625626">
        <ele>710.227</ele>
        <time>2015-02-15T11:48:07Z</time>
      </trkpt>
      <trkpt lat="40.617110" lon="-3.625613">
        <ele>710.196</ele>
        <time>2015-02-15T11:48:08Z</time>
      </trkpt>
      <trkpt lat="40.617165" lon="-3.625593">
        <ele>710.020</ele>
        <time>2015-02-15T11:48:09Z</time>
      </trkpt>
      <trkpt lat="40.617225" lon="-3.625571">
        <ele>709.999</ele>
        <time>2015-02-15T11:48:10Z</time>
      </trkpt>
      <trkpt lat="40.617346" lon="-3.625522">
        <ele>709.635</ele>
        <time>2015-02-15T11:48:12Z</time>
      </trkpt>
      <trkpt lat="40.617465" lon="-3.625446">
        <ele>709.286</ele>
        <time>2015-02-15T11:48:14Z</time>
      </trkpt>
      <trkpt lat="40.617523" lon="-3.625391">
        <ele>709.182</ele>
        <time>2015-02-15T11:48:15Z</time>
      </trkpt>
      <trkpt lat="40.617579" lon="-3.625321">
        <ele>708.943</ele>
        <time>2015-02-15T11:48:16Z</time>
      </trkpt>
      <trkpt lat="40.617627" lon="-3.625246">
        <ele>708.717</ele>
        <time>2015-02-15T11:48:17Z</time>
      </trkpt>
      <trkpt lat="40.617670" lon="-3.625168">
        <ele>708.507</ele>
        <time>2015-02-15T11:48:18Z</time>
      </trkpt>
      <trkpt lat="40.617702" lon="-3.625098">
        <ele>708.456</ele>
        <time>2015-02-15T11:48:19Z</time>
      </trkpt>
      <trkpt lat="40.617724" lon="-3.625041">
        <ele>708.216</ele>
        <time>2015-02-15T11:48:20Z</time>
      </trkpt>
      <trkpt lat="40.617742" lon="-3.624994">
        <ele>708.165</ele>
        <time>2015-02-15T11:48:21Z</time>
      </trkpt>
      <trkpt lat="40.617752" lon="-3.624956">
        <ele>707.929</ele>
        <time>2015-02-15T11:48:22Z</time>
      </trkpt>
      <trkpt lat="40.617763" lon="-3.624928">
        <ele>707.838</ele>
        <time>2015-02-15T11:48:23Z</time>
      </trkpt>
      <trkpt lat="40.617800" lon="-3.624810">
        <ele>707.384</ele>
        <time>2015-02-15T11:48:27Z</time>
      </trkpt>
      <trkpt lat="40.617827" lon="-3.624720">
        <ele>707.055</ele>
        <time>2015-02-15T11:48:30Z</time>
      </trkpt>
      <trkpt lat="40.617831" lon="-3.624684">
        <ele>706.932</ele>
        <time>2015-02-15T11:48:31Z</time>
      </trkpt>
      <trkpt lat="40.617824" lon="-3.624655">
        <ele>706.892</ele>
        <time>2015-02-15T11:48:32Z</time>
      </trkpt>
      <trkpt lat="40.617815" lon="-3.624626">
        <ele>706.811</ele>
        <time>2015-02-15T11:48:33Z</time>
      </trkpt>
      <trkpt lat="40.617800" lon="-3.624601">
        <ele>706.807</ele>
        <time>2015-02-15T11:48:34Z</time>
      </trkpt>
      <trkpt lat="40.617777" lon="-3.624592">
        <ele>706.781</ele>
        <time>2015-02-15T11:48:35Z</time>
      </trkpt>
      <trkpt lat="40.617750" lon="-3.624593">
        <ele>706.751</ele>
        <time>2015-02-15T11:48:36Z</time>
      </trkpt>
      <trkpt lat="40.617722" lon="-3.624592">
        <ele>706.790</ele>
        <time>2015-02-15T11:48:37Z</time>
      </trkpt>
      <trkpt lat="40.617695" lon="-3.624593">
        <ele>706.614</ele>
        <time>2015-02-15T11:48:38Z</time>
      </trkpt>
      <trkpt lat="40.617642" lon="-3.624592">
        <ele>706.633</ele>
        <time>2015-02-15T11:48:40Z</time>
      </trkpt>
      <trkpt lat="40.617569" lon="-3.624581">
        <ele>706.529</ele>
        <time>2015-02-15T11:48:43Z</time>
      </trkpt>
      <trkpt lat="40.617544" lon="-3.624570">
        <ele>706.530</ele>
        <time>2015-02-15T11:48:44Z</time>
      </trkpt>
      <trkpt lat="40.617470" lon="-3.624554">
        <ele>706.524</ele>
        <time>2015-02-15T11:48:47Z</time>
      </trkpt>
      <trkpt lat="40.617422" lon="-3.624535">
        <ele>706.504</ele>
        <time>2015-02-15T11:48:49Z</time>
      </trkpt>
      <trkpt lat="40.617350" lon="-3.624501">
        <ele>706.414</ele>
        <time>2015-02-15T11:48:52Z</time>
      </trkpt>
      <trkpt lat="40.617254" lon="-3.624463">
        <ele>706.507</ele>
        <time>2015-02-15T11:48:56Z</time>
      </trkpt>
      <trkpt lat="40.617181" lon="-3.624413">
        <ele>706.790</ele>
        <time>2015-02-15T11:49:00Z</time>
      </trkpt>
      <trkpt lat="40.617159" lon="-3.624391">
        <ele>706.740</ele>
        <time>2015-02-15T11:49:01Z</time>
      </trkpt>
      <trkpt lat="40.617140" lon="-3.624368">
        <ele>706.889</ele>
        <time>2015-02-15T11:49:02Z</time>
      </trkpt>
      <trkpt lat="40.617123" lon="-3.624340">
        <ele>706.813</ele>
        <time>2015-02-15T11:49:03Z</time>
      </trkpt>
      <trkpt lat="40.617107" lon="-3.624308">
        <ele>706.962</ele>
        <time>2015-02-15T11:49:04Z</time>
      </trkpt>
      <trkpt lat="40.617092" lon="-3.624275">
        <ele>707.058</ele>
        <time>2015-02-15T11:49:05Z</time>
      </trkpt>
      <trkpt lat="40.617063" lon="-3.624207">
        <ele>707.119</ele>
        <time>2015-02-15T11:49:07Z</time>
      </trkpt>
      <trkpt lat="40.617022" lon="-3.624104">
        <ele>707.444</ele>
        <time>2015-02-15T11:49:10Z</time>
      </trkpt>
      <trkpt lat="40.616977" lon="-3.624003">
        <ele>707.805</ele>
        <time>2015-02-15T11:49:13Z</time>
      </trkpt>
      <trkpt lat="40.616933" lon="-3.623895">
        <ele>708.215</ele>
        <time>2015-02-15T11:49:16Z</time>
      </trkpt>
      <trkpt lat="40.616894" lon="-3.623791">
        <ele>708.607</ele>
        <time>2015-02-15T11:49:18Z</time>
      </trkpt>
      <trkpt lat="40.616865" lon="-3.623726">
        <ele>709.032</ele>
        <time>2015-02-15T11:49:20Z</time>
      </trkpt>
      <trkpt lat="40.616834" lon="-3.623640">
        <ele>709.392</ele>
        <time>2015-02-15T11:49:22Z</time>
      </trkpt>
      <trkpt lat="40.616771" lon="-3.623477">
        <ele>710.121</ele>
        <time>2015-02-15T11:49:26Z</time>
      </trkpt>
      <trkpt lat="40.616723" lon="-3.623353">
        <ele>710.765</ele>
        <time>2015-02-15T11:49:29Z</time>
      </trkpt>
      <trkpt lat="40.616673" lon="-3.623224">
        <ele>711.294</ele>
        <time>2015-02-15T11:49:32Z</time>
      </trkpt>
      <trkpt lat="40.616618" lon="-3.623101">
        <ele>711.710</ele>
        <time>2015-02-15T11:49:35Z</time>
      </trkpt>
      <trkpt lat="40.616561" lon="-3.622982">
        <ele>712.181</ele>
        <time>2015-02-15T11:49:38Z</time>
      </trkpt>
      <trkpt lat="40.616510" lon="-3.622855">
        <ele>712.476</ele>
        <time>2015-02-15T11:49:41Z</time>
      </trkpt>
      <trkpt lat="40.616460" lon="-3.622728">
        <ele>712.790</ele>
        <time>2015-02-15T11:49:44Z</time>
      </trkpt>
      <trkpt lat="40.616404" lon="-3.622594">
        <ele>713.119</ele>
        <time>2015-02-15T11:49:47Z</time>
      </trkpt>
      <trkpt lat="40.616373" lon="-3.622499">
        <ele>713.307</ele>
        <time>2015-02-15T11:49:49Z</time>
      </trkpt>
      <trkpt lat="40.616335" lon="-3.622408">
        <ele>713.595</ele>
        <time>2015-02-15T11:49:51Z</time>
      </trkpt>
      <trkpt lat="40.616274" lon="-3.622219">
        <ele>713.815</ele>
        <time>2015-02-15T11:49:55Z</time>
      </trkpt>
      <trkpt lat="40.616278" lon="-3.622167">
        <ele>713.834</ele>
        <time>2015-02-15T11:49:56Z</time>
      </trkpt>
      <trkpt lat="40.616275" lon="-3.622114">
        <ele>713.938</ele>
        <time>2015-02-15T11:49:57Z</time>
      </trkpt>
      <trkpt lat="40.616290" lon="-3.622064">
        <ele>713.997</ele>
        <time>2015-02-15T11:49:58Z</time>
      </trkpt>
      <trkpt lat="40.616327" lon="-3.622012">
        <ele>714.043</ele>
        <time>2015-02-15T11:49:59Z</time>
      </trkpt>
      <trkpt lat="40.616650" lon="-3.618633">
        <ele>697.028</ele>
        <time>2014-04-12T06:40:28Z</time>
      </trkpt>
      <trkpt lat="40.616519" lon="-3.619791">
        <ele>702.089</ele>
        <time>2014-04-12T06:40:48Z</time>
      </trkpt>
      <trkpt lat="40.617155" lon="-3.620542">
        <ele>704.017</ele>
        <time>2014-04-12T06:41:08Z</time>
      </trkpt>
      <trkpt lat="40.616210" lon="-3.622152">
        <ele>704.007</ele>
        <time>2014-04-12T06:41:28Z</time>
      </trkpt>
      <trkpt lat="40.617073" lon="-3.624147">
        <ele>705.098</ele>
        <time>2014-04-12T06:41:48Z</time>
      </trkpt>
      <trkpt lat="40.617383" lon="-3.624576">
        <ele>704.027</ele>
        <time>2014-04-12T06:42:08Z</time>
      </trkpt>
      <trkpt lat="40.617866" lon="-3.624560">
        <ele>701.018</ele>
        <time>2014-04-12T06:42:28Z</time>
      </trkpt>
      <trkpt lat="40.617736" lon="-3.625064">
        <ele>701.057</ele>
        <time>2014-04-12T06:42:48Z</time>
      </trkpt>
      <trkpt lat="40.617492" lon="-3.625515">
        <ele>702.092</ele>
        <time>2014-04-12T06:43:08Z</time>
      </trkpt>
      <trkpt lat="40.616767" lon="-3.625751">
        <ele>703.061</ele>
        <time>2014-04-12T06:43:28Z</time>
      </trkpt>
      <trkpt lat="40.617019" lon="-3.626717">
        <ele>701.053</ele>
        <time>2014-04-12T06:43:48Z</time>
      </trkpt>
      <trkpt lat="40.617345" lon="-3.627575">
        <ele>699.018</ele>
        <time>2014-04-12T06:44:08Z</time>
      </trkpt>
      <trkpt lat="40.618018" lon="-3.628374">
        <ele>697.098</ele>
        <time>2014-04-12T06:44:28Z</time>
      </trkpt>
      <trkpt lat="40.619500" lon="-3.628525">
        <ele>699.017</ele>
        <time>2014-04-12T06:44:48Z</time>
      </trkpt>
      <trkpt lat="40.620347" lon="-3.629318">
        <ele>702.007</ele>
        <time>2014-04-12T06:45:08Z</time>
      </trkpt>
      <trkpt lat="40.621829" lon="-3.628846">
        <ele>698.017</ele>
        <time>2014-04-12T06:45:28Z</time>
      </trkpt>
      <trkpt lat="40.622578" lon="-3.628653">
        <ele>696.086</ele>
        <time>2014-04-12T06:45:48Z</time>
      </trkpt>
      <trkpt lat="40.623979" lon="-3.629297">
        <ele>691.097</ele>
        <time>2014-04-12T06:46:08Z</time>
      </trkpt>
      <trkpt lat="40.625868" lon="-3.630048">
        <ele>701.016</ele>
        <time>2014-04-12T06:47:28Z</time>
      </trkpt>
      <trkpt lat="40.627220" lon="-3.629318">
        <ele>693.061</ele>
        <time>2014-04-12T06:47:48Z</time>
      </trkpt>
      <trkpt lat="40.628376" lon="-3.630198">
        <ele>688.020</ele>
        <time>2014-04-12T06:48:08Z</time>
      </trkpt>
      <trkpt lat="40.630021" lon="-3.632065">
        <ele>683.092</ele>
        <time>2014-04-12T06:48:28Z</time>
      </trkpt>
      <trkpt lat="40.631894" lon="-3.633503">
        <ele>686.084</ele>
        <time>2014-04-12T06:48:48Z</time>
      </trkpt>
      <trkpt lat="40.633734" lon="-3.634661">
        <ele>689.007</ele>
        <time>2014-04-12T06:48:08Z</time>
      </trkpt>
      <trkpt lat="40.634499" lon="-3.635563">
        <ele>688.017</ele>
        <time>2014-04-12T06:49:28Z</time>
      </trkpt>
      <trkpt lat="40.635444" lon="-3.636357">
        <ele>689.007</ele>
        <time>2014-04-12T06:49:48Z</time>
      </trkpt>
      <trkpt lat="40.636925" lon="-3.636764">
        <ele>690.094</ele>
        <time>2014-04-12T06:50:08Z</time>
      </trkpt>
      <trkpt lat="40.637365" lon="-3.637193">
        <ele>686.083</ele>
        <time>2014-04-12T06:52:28Z</time>
      </trkpt>
      <trkpt lat="40.637143" lon="-3.636983">
        <ele>700.614</ele>
        <time>2014-04-12T07:01:09Z</time>
      </trkpt>
      <trkpt lat="40.637314" lon="-3.637124">
        <ele>701.523</ele>
        <time>2014-04-12T07:03:31Z</time>
      </trkpt>
      <trkpt lat="40.637475" lon="-3.637249">
        <ele>701.858</ele>
        <time>2014-04-12T07:03:36Z</time>
      </trkpt>
      <trkpt lat="40.637640" lon="-3.637402">
        <ele>702.267</ele>
        <time>2014-04-12T07:03:40Z</time>
      </trkpt>
      <trkpt lat="40.637747" lon="-3.637603">
        <ele>702.629</ele>
        <time>2014-04-12T07:03:44Z</time>
      </trkpt>
      <trkpt lat="40.637884" lon="-3.637791">
        <ele>703.922</ele>
        <time>2014-04-12T07:03:48Z</time>
      </trkpt>
      <trkpt lat="40.638021" lon="-3.637969">
        <ele>703.062</ele>
        <time>2014-04-12T07:03:52Z</time>
      </trkpt>
      <trkpt lat="40.638163" lon="-3.638149">
        <ele>701.008</ele>
        <time>2014-04-12T07:03:57Z</time>
      </trkpt>
      <trkpt lat="40.638328" lon="-3.638306">
        <ele>701.107</ele>
        <time>2014-04-12T07:04:02Z</time>
      </trkpt>
      <trkpt lat="40.638492" lon="-3.638427">
        <ele>700.178</ele>
        <time>2014-04-12T07:04:06Z</time>
      </trkpt>
      <trkpt lat="40.638652" lon="-3.638558">
        <ele>698.987</ele>
        <time>2014-04-12T07:04:10Z</time>
      </trkpt>
      <trkpt lat="40.638815" lon="-3.638691">
        <ele>699.188</ele>
        <time>2014-04-12T07:04:14Z</time>
      </trkpt>
      <trkpt lat="40.638936" lon="-3.638879">
        <ele>699.217</ele>
        <time>2014-04-12T07:04:18Z</time>
      </trkpt>
      <trkpt lat="40.639002" lon="-3.639099">
        <ele>699.892</ele>
        <time>2014-04-12T07:04:22Z</time>
      </trkpt>
      <trkpt lat="40.639078" lon="-3.639327">
        <ele>700.961</ele>
        <time>2014-04-12T07:04:26Z</time>
      </trkpt>
      <trkpt lat="40.639223" lon="-3.639497">
        <ele>701.323</ele>
        <time>2014-04-12T07:04:30Z</time>
      </trkpt>
      <trkpt lat="40.639368" lon="-3.639659">
        <ele>700.028</ele>
        <time>2014-04-12T07:04:34Z</time>
      </trkpt>
      <trkpt lat="40.639486" lon="-3.639882">
        <ele>700.789</ele>
        <time>2014-04-12T07:04:39Z</time>
      </trkpt>
      <trkpt lat="40.639583" lon="-3.640107">
        <ele>699.117</ele>
        <time>2014-04-12T07:04:44Z</time>
      </trkpt>
      <trkpt lat="40.639713" lon="-3.640342">
        <ele>699.907</ele>
        <time>2014-04-12T07:04:49Z</time>
      </trkpt>
      <trkpt lat="40.639854" lon="-3.640538">
        <ele>701.528</ele>
        <time>2014-04-12T07:04:54Z</time>
      </trkpt>
      <trkpt lat="40.639954" lon="-3.640750">
        <ele>702.597</ele>
        <time>2014-04-12T07:04:58Z</time>
      </trkpt>
      <trkpt lat="40.640084" lon="-3.640978">
        <ele>702.648</ele>
        <time>2014-04-12T07:05:03Z</time>
      </trkpt>
      <trkpt lat="40.640190" lon="-3.641203">
        <ele>701.457</ele>
        <time>2014-04-12T07:05:07Z</time>
      </trkpt>
      <trkpt lat="40.640242" lon="-3.641485">
        <ele>702.322</ele>
        <time>2014-04-12T07:05:12Z</time>
      </trkpt>
      <trkpt lat="40.640329" lon="-3.641746">
        <ele>702.311</ele>
        <time>2014-04-12T07:05:16Z</time>
      </trkpt>
      <trkpt lat="40.640408" lon="-3.641977">
        <ele>702.883</ele>
        <time>2014-04-12T07:05:20Z</time>
      </trkpt>
      <trkpt lat="40.640509" lon="-3.642231">
        <ele>703.834</ele>
        <time>2014-04-12T07:05:25Z</time>
      </trkpt>
      <trkpt lat="40.640574" lon="-3.642453">
        <ele>702.255</ele>
        <time>2014-04-12T07:05:29Z</time>
      </trkpt>
      <trkpt lat="40.640649" lon="-3.642681">
        <ele>701.110</ele>
        <time>2014-04-12T07:05:33Z</time>
      </trkpt>
      <trkpt lat="40.640724" lon="-3.642933">
        <ele>700.207</ele>
        <time>2014-04-12T07:05:37Z</time>
      </trkpt>
      <trkpt lat="40.640813" lon="-3.643190">
        <ele>699.119</ele>
        <time>2014-04-12T07:05:41Z</time>
      </trkpt>
      <trkpt lat="40.640896" lon="-3.643413">
        <ele>698.938</ele>
        <time>2014-04-12T07:05:45Z</time>
      </trkpt>
      <trkpt lat="40.640992" lon="-3.643664">
        <ele>698.969</ele>
        <time>2014-04-12T07:05:49Z</time>
      </trkpt>
      <trkpt lat="40.641050" lon="-3.643920">
        <ele>697.688</ele>
        <time>2014-04-12T07:05:53Z</time>
      </trkpt>
      <trkpt lat="40.641141" lon="-3.644169">
        <ele>696.543</ele>
        <time>2014-04-12T07:05:58Z</time>
      </trkpt>
      <trkpt lat="40.641295" lon="-3.644337">
        <ele>698.882</ele>
        <time>2014-04-12T07:06:03Z</time>
      </trkpt>
      <trkpt lat="40.641465" lon="-3.644517">
        <ele>700.794</ele>
        <time>2014-04-12T07:06:09Z</time>
      </trkpt>
      <trkpt lat="40.641609" lon="-3.644704">
        <ele>702.753</ele>
        <time>2014-04-12T07:06:14Z</time>
      </trkpt>
      <trkpt lat="40.641734" lon="-3.644897">
        <ele>702.704</ele>
        <time>2014-04-12T07:06:19Z</time>
      </trkpt>
      <trkpt lat="40.641869" lon="-3.645114">
        <ele>702.714</ele>
        <time>2014-04-12T07:06:25Z</time>
      </trkpt>
      <trkpt lat="40.641971" lon="-3.645321">
        <ele>702.707</ele>
        <time>2014-04-12T07:06:30Z</time>
      </trkpt>
      <trkpt lat="40.642045" lon="-3.645565">
        <ele>703.021</ele>
        <time>2014-04-12T07:06:35Z</time>
      </trkpt>
      <trkpt lat="40.642094" lon="-3.645842">
        <ele>705.620</ele>
        <time>2014-04-12T07:06:40Z</time>
      </trkpt>
      <trkpt lat="40.642129" lon="-3.646120">
        <ele>706.391</ele>
        <time>2014-04-12T07:06:45Z</time>
      </trkpt>
      <trkpt lat="40.642197" lon="-3.646369">
        <ele>705.480</ele>
        <time>2014-04-12T07:06:50Z</time>
      </trkpt>
      <trkpt lat="40.642293" lon="-3.646608">
        <ele>706.665</ele>
        <time>2014-04-12T07:06:55Z</time>
      </trkpt>
      <trkpt lat="40.642394" lon="-3.646827">
        <ele>708.724</ele>
        <time>2014-04-12T07:07:00Z</time>
      </trkpt>
      <trkpt lat="40.642493" lon="-3.647026">
        <ele>708.576</ele>
        <time>2014-04-12T07:07:04Z</time>
      </trkpt>
      <trkpt lat="40.642630" lon="-3.647261">
        <ele>707.875</ele>
        <time>2014-04-12T07:07:09Z</time>
      </trkpt>
      <trkpt lat="40.642730" lon="-3.647474">
        <ele>707.628</ele>
        <time>2014-04-12T07:07:13Z</time>
      </trkpt>
      <trkpt lat="40.642863" lon="-3.647662">
        <ele>705.120</ele>
        <time>2014-04-12T07:07:17Z</time>
      </trkpt>
      <trkpt lat="40.643056" lon="-3.647753">
        <ele>703.907</ele>
        <time>2014-04-12T07:07:22Z</time>
      </trkpt>
      <trkpt lat="40.643212" lon="-3.647918">
        <ele>706.483</ele>
        <time>2014-04-12T07:07:27Z</time>
      </trkpt>
      <trkpt lat="40.643364" lon="-3.648120">
        <ele>709.072</ele>
        <time>2014-04-12T07:07:32Z</time>
      </trkpt>
      <trkpt lat="40.643499" lon="-3.648307">
        <ele>707.393</ele>
        <time>2014-04-12T07:07:36Z</time>
      </trkpt>
      <trkpt lat="40.643608" lon="-3.648521">
        <ele>706.892</ele>
        <time>2014-04-12T07:07:41Z</time>
      </trkpt>
      <trkpt lat="40.643733" lon="-3.648749">
        <ele>706.927</ele>
        <time>2014-04-12T07:07:47Z</time>
      </trkpt>
      <trkpt lat="40.643808" lon="-3.648972">
        <ele>706.846</ele>
        <time>2014-04-12T07:07:52Z</time>
      </trkpt>
      <trkpt lat="40.643882" lon="-3.649192">
        <ele>706.748</ele>
        <time>2014-04-12T07:07:57Z</time>
      </trkpt>
      <trkpt lat="40.643918" lon="-3.649437">
        <ele>706.321</ele>
        <time>2014-04-12T07:08:03Z</time>
      </trkpt>
      <trkpt lat="40.643908" lon="-3.649677">
        <ele>706.841</ele>
        <time>2014-04-12T07:08:07Z</time>
      </trkpt>
      <trkpt lat="40.643871" lon="-3.649937">
        <ele>709.105</ele>
        <time>2014-04-12T07:08:12Z</time>
      </trkpt>
      <trkpt lat="40.643838" lon="-3.650192">
        <ele>710.407</ele>
        <time>2014-04-12T07:08:18Z</time>
      </trkpt>
      <trkpt lat="40.643861" lon="-3.650474">
        <ele>711.018</ele>
        <time>2014-04-12T07:08:24Z</time>
      </trkpt>
      <trkpt lat="40.643961" lon="-3.650675">
        <ele>711.797</ele>
        <time>2014-04-12T07:08:29Z</time>
      </trkpt>
      <trkpt lat="40.644042" lon="-3.650887">
        <ele>712.298</ele>
        <time>2014-04-12T07:08:34Z</time>
      </trkpt>
      <trkpt lat="40.644160" lon="-3.651067">
        <ele>712.417</ele>
        <time>2014-04-12T07:08:39Z</time>
      </trkpt>
      <trkpt lat="40.644302" lon="-3.651215">
        <ele>712.382</ele>
        <time>2014-04-12T07:08:44Z</time>
      </trkpt>
      <trkpt lat="40.644452" lon="-3.651362">
        <ele>712.581</ele>
        <time>2014-04-12T07:08:50Z</time>
      </trkpt>
      <trkpt lat="40.644604" lon="-3.651544">
        <ele>712.763</ele>
        <time>2014-04-12T07:08:56Z</time>
      </trkpt>
      <trkpt lat="40.644757" lon="-3.651695">
        <ele>712.851</ele>
        <time>2014-04-12T07:09:02Z</time>
      </trkpt>
      <trkpt lat="40.644942" lon="-3.651791">
        <ele>713.201</ele>
        <time>2014-04-12T07:09:08Z</time>
      </trkpt>
      <trkpt lat="40.645127" lon="-3.651873">
        <ele>714.411</ele>
        <time>2014-04-12T07:09:15Z</time>
      </trkpt>
      <trkpt lat="40.645305" lon="-3.651974">
        <ele>715.607</ele>
        <time>2014-04-12T07:09:21Z</time>
      </trkpt>
      <trkpt lat="40.645501" lon="-3.652016">
        <ele>716.841</ele>
        <time>2014-04-12T07:09:28Z</time>
      </trkpt>
      <trkpt lat="40.645691" lon="-3.652023">
        <ele>717.480</ele>
        <time>2014-04-12T07:09:33Z</time>
      </trkpt>
      <trkpt lat="40.645895" lon="-3.652047">
        <ele>717.761</ele>
        <time>2014-04-12T07:09:39Z</time>
      </trkpt>
      <trkpt lat="40.646067" lon="-3.652122">
        <ele>718.140</ele>
        <time>2014-04-12T07:09:45Z</time>
      </trkpt>
      <trkpt lat="40.646239" lon="-3.652284">
        <ele>718.615</ele>
        <time>2014-04-12T07:09:51Z</time>
      </trkpt>
      <trkpt lat="40.646377" lon="-3.652456">
        <ele>719.024</ele>
        <time>2014-04-12T07:09:57Z</time>
      </trkpt>
      <trkpt lat="40.646494" lon="-3.652654">
        <ele>721.436</ele>
        <time>2014-04-12T07:10:02Z</time>
      </trkpt>
      <trkpt lat="40.646689" lon="-3.652782">
        <ele>721.247</ele>
        <time>2014-04-12T07:10:07Z</time>
      </trkpt>
      <trkpt lat="40.646857" lon="-3.652978">
        <ele>719.029</ele>
        <time>2014-04-12T07:10:12Z</time>
      </trkpt>
      <trkpt lat="40.646939" lon="-3.653200">
        <ele>717.221</ele>
        <time>2014-04-12T07:10:16Z</time>
      </trkpt>
      <trkpt lat="40.646901" lon="-3.653440">
        <ele>716.107</ele>
        <time>2014-04-12T07:10:19Z</time>
      </trkpt>
      <trkpt lat="40.646905" lon="-3.653696">
        <ele>716.840</ele>
        <time>2014-04-12T07:10:23Z</time>
      </trkpt>
      <trkpt lat="40.646949" lon="-3.653971">
        <ele>717.199</ele>
        <time>2014-04-12T07:10:27Z</time>
      </trkpt>
      <trkpt lat="40.647055" lon="-3.654251">
        <ele>715.220</ele>
        <time>2014-04-12T07:10:31Z</time>
      </trkpt>
      <trkpt lat="40.647223" lon="-3.654456">
        <ele>714.169</ele>
        <time>2014-04-12T07:10:35Z</time>
      </trkpt>
      <trkpt lat="40.647358" lon="-3.654616">
        <ele>712.934</ele>
        <time>2014-04-12T07:10:38Z</time>
      </trkpt>
      <trkpt lat="40.647446" lon="-3.654853">
        <ele>710.513</ele>
        <time>2014-04-12T07:10:41Z</time>
      </trkpt>
      <trkpt lat="40.647520" lon="-3.655127">
        <ele>707.965</ele>
        <time>2014-04-12T07:10:45Z</time>
      </trkpt>
      <trkpt lat="40.647618" lon="-3.655345">
        <ele>706.661</ele>
        <time>2014-04-12T07:10:49Z</time>
      </trkpt>
      <trkpt lat="40.647713" lon="-3.655550">
        <ele>705.421</ele>
        <time>2014-04-12T07:10:54Z</time>
      </trkpt>
      <trkpt lat="40.647818" lon="-3.655748">
        <ele>706.013</ele>
        <time>2014-04-12T07:10:59Z</time>
      </trkpt>
      <trkpt lat="40.647939" lon="-3.655932">
        <ele>706.907</ele>
        <time>2014-04-12T07:11:03Z</time>
      </trkpt>
      <trkpt lat="40.648074" lon="-3.656100">
        <ele>707.112</ele>
        <time>2014-04-12T07:11:07Z</time>
      </trkpt>
      <trkpt lat="40.648233" lon="-3.656247">
        <ele>706.411</ele>
        <time>2014-04-12T07:11:11Z</time>
      </trkpt>
      <trkpt lat="40.648399" lon="-3.656401">
        <ele>706.522</ele>
        <time>2014-04-12T07:11:16Z</time>
      </trkpt>
      <trkpt lat="40.648575" lon="-3.656575">
        <ele>705.661</ele>
        <time>2014-04-12T07:11:21Z</time>
      </trkpt>
      <trkpt lat="40.648748" lon="-3.656747">
        <ele>704.496</ele>
        <time>2014-04-12T07:11:25Z</time>
      </trkpt>
      <trkpt lat="40.648933" lon="-3.656918">
        <ele>704.585</ele>
        <time>2014-04-12T07:11:29Z</time>
      </trkpt>
      <trkpt lat="40.649089" lon="-3.657054">
        <ele>705.637</ele>
        <time>2014-04-12T07:11:33Z</time>
      </trkpt>
      <trkpt lat="40.649246" lon="-3.657214">
        <ele>705.684</ele>
        <time>2014-04-12T07:11:38Z</time>
      </trkpt>
      <trkpt lat="40.649391" lon="-3.657359">
        <ele>706.707</ele>
        <time>2014-04-12T07:11:43Z</time>
      </trkpt>
      <trkpt lat="40.649540" lon="-3.657510">
        <ele>706.817</ele>
        <time>2014-04-12T07:11:49Z</time>
      </trkpt>
      <trkpt lat="40.649697" lon="-3.657652">
        <ele>707.307</ele>
        <time>2014-04-12T07:11:55Z</time>
      </trkpt>
      <trkpt lat="40.649860" lon="-3.657817">
        <ele>707.794</ele>
        <time>2014-04-12T07:12:01Z</time>
      </trkpt>
      <trkpt lat="40.650013" lon="-3.657972">
        <ele>708.643</ele>
        <time>2014-04-12T07:12:06Z</time>
      </trkpt>
      <trkpt lat="40.650162" lon="-3.658117">
        <ele>709.684</ele>
        <time>2014-04-12T07:12:10Z</time>
      </trkpt>
      <trkpt lat="40.650314" lon="-3.658262">
        <ele>710.583</ele>
        <time>2014-04-12T07:12:14Z</time>
      </trkpt>
      <trkpt lat="40.650478" lon="-3.658397">
        <ele>709.578</ele>
        <time>2014-04-12T07:12:18Z</time>
      </trkpt>
      <trkpt lat="40.650664" lon="-3.658537">
        <ele>709.887</ele>
        <time>2014-04-12T07:12:23Z</time>
      </trkpt>
      <trkpt lat="40.650839" lon="-3.658691">
        <ele>709.239</ele>
        <time>2014-04-12T07:12:28Z</time>
      </trkpt>
      <trkpt lat="40.651009" lon="-3.658808">
        <ele>709.688</ele>
        <time>2014-04-12T07:12:33Z</time>
      </trkpt>
      <trkpt lat="40.651192" lon="-3.658922">
        <ele>711.624</ele>
        <time>2014-04-12T07:12:39Z</time>
      </trkpt>
      <trkpt lat="40.651374" lon="-3.659052">
        <ele>711.726</ele>
        <time>2014-04-12T07:12:45Z</time>
      </trkpt>
      <trkpt lat="40.651553" lon="-3.659153">
        <ele>711.607</ele>
        <time>2014-04-12T07:12:51Z</time>
      </trkpt>
      <trkpt lat="40.651730" lon="-3.659237">
        <ele>711.884</ele>
        <time>2014-04-12T07:12:57Z</time>
      </trkpt>
      <trkpt lat="40.651897" lon="-3.659336">
        <ele>712.313</ele>
        <time>2014-04-12T07:13:04Z</time>
      </trkpt>
      <trkpt lat="40.652073" lon="-3.659481">
        <ele>713.154</ele>
        <time>2014-04-12T07:13:11Z</time>
      </trkpt>
      <trkpt lat="40.652194" lon="-3.659669">
        <ele>713.913</ele>
        <time>2014-04-12T07:13:17Z</time>
      </trkpt>
      <trkpt lat="40.652340" lon="-3.659867">
        <ele>716.758</ele>
        <time>2014-04-12T07:13:23Z</time>
      </trkpt>
      <trkpt lat="40.652467" lon="-3.660096">
        <ele>717.617</ele>
        <time>2014-04-12T07:13:27Z</time>
      </trkpt>
      <trkpt lat="40.652533" lon="-3.660357">
        <ele>716.119</ele>
        <time>2014-04-12T07:13:30Z</time>
      </trkpt>
      <trkpt lat="40.652611" lon="-3.660652">
        <ele>714.083</ele>
        <time>2014-04-12T07:13:33Z</time>
      </trkpt>
      <trkpt lat="40.652756" lon="-3.660857">
        <ele>712.625</ele>
        <time>2014-04-12T07:13:36Z</time>
      </trkpt>
      <trkpt lat="40.652917" lon="-3.660977">
        <ele>712.217</ele>
        <time>2014-04-12T07:13:39Z</time>
      </trkpt>
      <trkpt lat="40.653086" lon="-3.661104">
        <ele>711.107</ele>
        <time>2014-04-12T07:13:43Z</time>
      </trkpt>
      <trkpt lat="40.653232" lon="-3.661251">
        <ele>711.934</ele>
        <time>2014-04-12T07:13:47Z</time>
      </trkpt>
      <trkpt lat="40.653387" lon="-3.661419">
        <ele>712.493</ele>
        <time>2014-04-12T07:13:50Z</time>
      </trkpt>
      <trkpt lat="40.653544" lon="-3.661573">
        <ele>713.014</ele>
        <time>2014-04-12T07:13:53Z</time>
      </trkpt>
      <trkpt lat="40.653774" lon="-3.661659">
        <ele>713.873</ele>
        <time>2014-04-12T07:13:57Z</time>
      </trkpt>
      <trkpt lat="40.653958" lon="-3.661732">
        <ele>714.158</ele>
        <time>2014-04-12T07:14:01Z</time>
      </trkpt>
      <trkpt lat="40.654158" lon="-3.661831">
        <ele>713.997</ele>
        <time>2014-04-12T07:14:07Z</time>
      </trkpt>
      <trkpt lat="40.654335" lon="-3.661952">
        <ele>713.899</ele>
        <time>2014-04-12T07:14:13Z</time>
      </trkpt>
      <trkpt lat="40.654497" lon="-3.662069">
        <ele>713.657</ele>
        <time>2014-04-12T07:14:18Z</time>
      </trkpt>
      <trkpt lat="40.654661" lon="-3.662209">
        <ele>712.600</ele>
        <time>2014-04-12T07:14:23Z</time>
      </trkpt>
      <trkpt lat="40.654818" lon="-3.662364">
        <ele>712.620</ele>
        <time>2014-04-12T07:14:27Z</time>
      </trkpt>
      <trkpt lat="40.654988" lon="-3.662522">
        <ele>712.007</ele>
        <time>2014-04-12T07:14:31Z</time>
      </trkpt>
      <trkpt lat="40.655187" lon="-3.662625">
        <ele>712.761</ele>
        <time>2014-04-12T07:14:35Z</time>
      </trkpt>
      <trkpt lat="40.655413" lon="-3.662615">
        <ele>713.410</ele>
        <time>2014-04-12T07:14:40Z</time>
      </trkpt>
      <trkpt lat="40.655622" lon="-3.662544">
        <ele>712.911</ele>
        <time>2014-04-12T07:14:45Z</time>
      </trkpt>
      <trkpt lat="40.655800" lon="-3.662455">
        <ele>712.440</ele>
        <time>2014-04-12T07:14:50Z</time>
      </trkpt>
      <trkpt lat="40.655998" lon="-3.662439">
        <ele>712.665</ele>
        <time>2014-04-12T07:14:56Z</time>
      </trkpt>
      <trkpt lat="40.656199" lon="-3.662551">
        <ele>713.094</ele>
        <time>2014-04-12T07:15:03Z</time>
      </trkpt>
      <trkpt lat="40.656315" lon="-3.662754">
        <ele>713.886</ele>
        <time>2014-04-12T07:15:10Z</time>
      </trkpt>
      <trkpt lat="40.656290" lon="-3.663012">
        <ele>714.435</ele>
        <time>2014-04-12T07:15:17Z</time>
      </trkpt>
      <trkpt lat="40.656224" lon="-3.663238">
        <ele>714.986</ele>
        <time>2014-04-12T07:15:24Z</time>
      </trkpt>
      <trkpt lat="40.656177" lon="-3.663483">
        <ele>716.214</ele>
        <time>2014-04-12T07:15:30Z</time>
      </trkpt>
      <trkpt lat="40.656195" lon="-3.663729">
        <ele>717.907</ele>
        <time>2014-04-12T07:15:35Z</time>
      </trkpt>
      <trkpt lat="40.656243" lon="-3.663978">
        <ele>720.639</ele>
        <time>2014-04-12T07:15:40Z</time>
      </trkpt>
      <trkpt lat="40.656333" lon="-3.664219">
        <ele>720.788</ele>
        <time>2014-04-12T07:15:46Z</time>
      </trkpt>
      <trkpt lat="40.656462" lon="-3.664405">
        <ele>721.019</ele>
        <time>2014-04-12T07:15:54Z</time>
      </trkpt>
      <trkpt lat="40.656567" lon="-3.664630">
        <ele>721.058</ele>
        <time>2014-04-12T07:16:02Z</time>
      </trkpt>
      <trkpt lat="40.656637" lon="-3.664854">
        <ele>722.473</ele>
        <time>2014-04-12T07:16:07Z</time>
      </trkpt>
      <trkpt lat="40.656696" lon="-3.665128">
        <ele>723.312</ele>
        <time>2014-04-12T07:16:11Z</time>
      </trkpt>
      <trkpt lat="40.656702" lon="-3.665421">
        <ele>722.644</ele>
        <time>2014-04-12T07:16:15Z</time>
      </trkpt>
      <trkpt lat="40.656749" lon="-3.665678">
        <ele>721.632</ele>
        <time>2014-04-12T07:16:18Z</time>
      </trkpt>
      <trkpt lat="40.656852" lon="-3.665917">
        <ele>718.692</ele>
        <time>2014-04-12T07:16:21Z</time>
      </trkpt>
      <trkpt lat="40.656938" lon="-3.666131">
        <ele>715.711</ele>
        <time>2014-04-12T07:16:24Z</time>
      </trkpt>
      <trkpt lat="40.657022" lon="-3.666378">
        <ele>713.607</ele>
        <time>2014-04-12T07:16:29Z</time>
      </trkpt>
      <trkpt lat="40.657127" lon="-3.666595">
        <ele>713.279</ele>
        <time>2014-04-12T07:16:34Z</time>
      </trkpt>
      <trkpt lat="40.657240" lon="-3.666784">
        <ele>713.578</ele>
        <time>2014-04-12T07:16:39Z</time>
      </trkpt>
      <trkpt lat="40.657368" lon="-3.666986">
        <ele>714.529</ele>
        <time>2014-04-12T07:16:45Z</time>
      </trkpt>
      <trkpt lat="40.657488" lon="-3.667173">
        <ele>715.848</ele>
        <time>2014-04-12T07:16:51Z</time>
      </trkpt>
      <trkpt lat="40.657619" lon="-3.667339">
        <ele>716.953</ele>
        <time>2014-04-12T07:16:57Z</time>
      </trkpt>
      <trkpt lat="40.657781" lon="-3.667486">
        <ele>718.422</ele>
        <time>2014-04-12T07:17:03Z</time>
      </trkpt>
      <trkpt lat="40.657960" lon="-3.667629">
        <ele>719.774</ele>
        <time>2014-04-12T07:17:10Z</time>
      </trkpt>
      <trkpt lat="40.658129" lon="-3.667797">
        <ele>721.798</ele>
        <time>2014-04-12T07:17:16Z</time>
      </trkpt>
      <trkpt lat="40.658311" lon="-3.667912">
        <ele>721.915</ele>
        <time>2014-04-12T07:17:20Z</time>
      </trkpt>
      <trkpt lat="40.658514" lon="-3.668026">
        <ele>721.326</ele>
        <time>2014-04-12T07:17:24Z</time>
      </trkpt>
      <trkpt lat="40.658703" lon="-3.668083">
        <ele>720.807</ele>
        <time>2014-04-12T07:17:28Z</time>
      </trkpt>
      <trkpt lat="40.658888" lon="-3.668164">
        <ele>720.295</ele>
        <time>2014-04-12T07:17:34Z</time>
      </trkpt>
      <trkpt lat="40.658957" lon="-3.668401">
        <ele>720.614</ele>
        <time>2014-04-12T07:17:47Z</time>
      </trkpt>
      <trkpt lat="40.658986" lon="-3.668646">
        <ele>722.065</ele>
        <time>2014-04-12T07:18:00Z</time>
      </trkpt>
      <trkpt lat="40.658964" lon="-3.668882">
        <ele>723.654</ele>
        <time>2014-04-12T07:18:13Z</time>
      </trkpt>
      <trkpt lat="40.658938" lon="-3.669119">
        <ele>725.529</ele>
        <time>2014-04-12T07:18:23Z</time>
      </trkpt>
      <trkpt lat="40.658895" lon="-3.669358">
        <ele>726.398</ele>
        <time>2014-04-12T07:18:29Z</time>
      </trkpt>
      <trkpt lat="40.658889" lon="-3.669629">
        <ele>727.250</ele>
        <time>2014-04-12T07:18:35Z</time>
      </trkpt>
      <trkpt lat="40.658942" lon="-3.669866">
        <ele>727.497</ele>
        <time>2014-04-12T07:18:41Z</time>
      </trkpt>
      <trkpt lat="40.659064" lon="-3.670057">
        <ele>727.623</ele>
        <time>2014-04-12T07:18:48Z</time>
      </trkpt>
      <trkpt lat="40.659222" lon="-3.670218">
        <ele>727.725</ele>
        <time>2014-04-12T07:18:56Z</time>
      </trkpt>
      <trkpt lat="40.659322" lon="-3.670441">
        <ele>729.107</ele>
        <time>2014-04-12T07:19:12Z</time>
      </trkpt>
      <trkpt lat="40.659412" lon="-3.670684">
        <ele>731.485</ele>
        <time>2014-04-12T07:19:17Z</time>
      </trkpt>
      <trkpt lat="40.659483" lon="-3.670949">
        <ele>730.874</ele>
        <time>2014-04-12T07:19:21Z</time>
      </trkpt>
      <trkpt lat="40.659565" lon="-3.671163">
        <ele>730.965</ele>
        <time>2014-04-12T07:19:24Z</time>
      </trkpt>
      <trkpt lat="40.659638" lon="-3.671411">
        <ele>730.024</ele>
        <time>2014-04-12T07:19:27Z</time>
      </trkpt>
      <trkpt lat="40.659699" lon="-3.671666">
        <ele>727.699</ele>
        <time>2014-04-12T07:19:30Z</time>
      </trkpt>
      <trkpt lat="40.659767" lon="-3.671893">
        <ele>725.018</ele>
        <time>2014-04-12T07:19:33Z</time>
      </trkpt>
      <trkpt lat="40.659812" lon="-3.672136">
        <ele>723.120</ele>
        <time>2014-04-12T07:19:37Z</time>
      </trkpt>
      <trkpt lat="40.659848" lon="-3.672372">
        <ele>722.477</ele>
        <time>2014-04-12T07:19:41Z</time>
      </trkpt>
      <trkpt lat="40.659926" lon="-3.672638">
        <ele>722.661</ele>
        <time>2014-04-12T07:19:46Z</time>
      </trkpt>
      <trkpt lat="40.660041" lon="-3.672841">
        <ele>723.827</ele>
        <time>2014-04-12T07:19:51Z</time>
      </trkpt>
      <trkpt lat="40.660174" lon="-3.673011">
        <ele>724.307</ele>
        <time>2014-04-12T07:19:57Z</time>
      </trkpt>
      <trkpt lat="40.660298" lon="-3.673189">
        <ele>725.023</ele>
        <time>2014-04-12T07:20:03Z</time>
      </trkpt>
      <trkpt lat="40.660427" lon="-3.673394">
        <ele>725.042</ele>
        <time>2014-04-12T07:20:11Z</time>
      </trkpt>
      <trkpt lat="40.660568" lon="-3.673570">
        <ele>725.343</ele>
        <time>2014-04-12T07:20:18Z</time>
      </trkpt>
      <trkpt lat="40.660713" lon="-3.673729">
        <ele>726.092</ele>
        <time>2014-04-12T07:20:25Z</time>
      </trkpt>
      <trkpt lat="40.660865" lon="-3.673911">
        <ele>726.937</ele>
        <time>2014-04-12T07:20:33Z</time>
      </trkpt>
      <trkpt lat="40.661013" lon="-3.674089">
        <ele>728.086</ele>
        <time>2014-04-12T07:20:40Z</time>
      </trkpt>
      <trkpt lat="40.661148" lon="-3.674250">
        <ele>728.868</ele>
        <time>2014-04-12T07:20:47Z</time>
      </trkpt>
      <trkpt lat="40.661255" lon="-3.674476">
        <ele>729.533</ele>
        <time>2014-04-12T07:20:54Z</time>
      </trkpt>
      <trkpt lat="40.661343" lon="-3.674721">
        <ele>729.923</ele>
        <time>2014-04-12T07:21:01Z</time>
      </trkpt>
      <trkpt lat="40.661461" lon="-3.674921">
        <ele>731.015</ele>
        <time>2014-04-12T07:21:10Z</time>
      </trkpt>
      <trkpt lat="40.661581" lon="-3.675117">
        <ele>731.607</ele>
        <time>2014-04-12T07:21:18Z</time>
      </trkpt>
      <trkpt lat="40.661701" lon="-3.675323">
        <ele>732.879</ele>
        <time>2014-04-12T07:21:23Z</time>
      </trkpt>
      <trkpt lat="40.661811" lon="-3.675560">
        <ele>734.548</ele>
        <time>2014-04-12T07:21:29Z</time>
      </trkpt>
      <trkpt lat="40.661886" lon="-3.675807">
        <ele>734.489</ele>
        <time>2014-04-12T07:21:35Z</time>
      </trkpt>
      <trkpt lat="40.661970" lon="-3.676041">
        <ele>734.358</ele>
        <time>2014-04-12T07:21:41Z</time>
      </trkpt>
      <trkpt lat="40.662103" lon="-3.676212">
        <ele>734.513</ele>
        <time>2014-04-12T07:21:48Z</time>
      </trkpt>
      <trkpt lat="40.662291" lon="-3.676263">
        <ele>735.122</ele>
        <time>2014-04-12T07:21:56Z</time>
      </trkpt>
      <trkpt lat="40.662484" lon="-3.676311">
        <ele>735.574</ele>
        <time>2014-04-12T07:22:04Z</time>
      </trkpt>
      <trkpt lat="40.662669" lon="-3.676346">
        <ele>736.542</ele>
        <time>2014-04-12T07:22:11Z</time>
      </trkpt>
      <trkpt lat="40.662850" lon="-3.676314">
        <ele>737.422</ele>
        <time>2014-04-12T07:22:18Z</time>
      </trkpt>
      <trkpt lat="40.663042" lon="-3.676242">
        <ele>738.214</ele>
        <time>2014-04-12T07:22:24Z</time>
      </trkpt>
      <trkpt lat="40.663233" lon="-3.676192">
        <ele>741.407</ele>
        <time>2014-04-12T07:22:29Z</time>
      </trkpt>
      <trkpt lat="40.663417" lon="-3.676155">
        <ele>742.540</ele>
        <time>2014-04-12T07:22:34Z</time>
      </trkpt>
      <trkpt lat="40.663605" lon="-3.676126">
        <ele>742.869</ele>
        <time>2014-04-12T07:22:41Z</time>
      </trkpt>
      <trkpt lat="40.663795" lon="-3.676068">
        <ele>742.360</ele>
        <time>2014-04-12T07:25:29Z</time>
      </trkpt>
      <trkpt lat="40.663967" lon="-3.675942">
        <ele>742.149</ele>
        <time>2014-04-12T07:25:35Z</time>
      </trkpt>
      <trkpt lat="40.664157" lon="-3.675836">
        <ele>742.194</ele>
        <time>2014-04-12T07:25:42Z</time>
      </trkpt>
      <trkpt lat="40.664331" lon="-3.675773">
        <ele>742.383</ele>
        <time>2014-04-12T07:25:48Z</time>
      </trkpt>
      <trkpt lat="40.664511" lon="-3.675727">
        <ele>742.315</ele>
        <time>2014-04-12T07:25:55Z</time>
      </trkpt>
      <trkpt lat="40.664692" lon="-3.675712">
        <ele>742.727</ele>
        <time>2014-04-12T07:26:01Z</time>
      </trkpt>
      <trkpt lat="40.664895" lon="-3.675679">
        <ele>743.568</ele>
        <time>2014-04-12T07:26:08Z</time>
      </trkpt>
      <trkpt lat="40.665082" lon="-3.675649">
        <ele>743.814</ele>
        <time>2014-04-12T07:26:15Z</time>
      </trkpt>
      <trkpt lat="40.665272" lon="-3.675660">
        <ele>744.007</ele>
        <time>2014-04-12T07:26:23Z</time>
      </trkpt>
      <trkpt lat="40.665473" lon="-3.675653">
        <ele>744.488</ele>
        <time>2014-04-12T07:26:33Z</time>
      </trkpt>
      <trkpt lat="40.665668" lon="-3.675624">
        <ele>745.067</ele>
        <time>2014-04-12T07:26:42Z</time>
      </trkpt>
      <trkpt lat="40.665847" lon="-3.675574">
        <ele>746.128</ele>
        <time>2014-04-12T07:26:53Z</time>
      </trkpt>
      <trkpt lat="40.666033" lon="-3.675566">
        <ele>747.787</ele>
        <time>2014-04-12T07:27:02Z</time>
      </trkpt>
      <trkpt lat="40.666221" lon="-3.675616">
        <ele>749.132</ele>
        <time>2014-04-12T07:27:13Z</time>
      </trkpt>
      <trkpt lat="40.666407" lon="-3.675681">
        <ele>750.691</ele>
        <time>2014-04-12T07:27:24Z</time>
      </trkpt>
      <trkpt lat="40.666586" lon="-3.675732">
        <ele>752.513</ele>
        <time>2014-04-12T07:27:35Z</time>
      </trkpt>
      <trkpt lat="40.666770" lon="-3.675802">
        <ele>755.197</ele>
        <time>2014-04-12T07:27:47Z</time>
      </trkpt>
      <trkpt lat="40.666951" lon="-3.675864">
        <ele>757.423</ele>
        <time>2014-04-12T07:27:58Z</time>
      </trkpt>
      <trkpt lat="40.667127" lon="-3.675933">
        <ele>759.625</ele>
        <time>2014-04-12T07:28:11Z</time>
      </trkpt>
      <trkpt lat="40.667267" lon="-3.676112">
        <ele>762.007</ele>
        <time>2014-04-12T07:28:23Z</time>
      </trkpt>
      <trkpt lat="40.667324" lon="-3.676358">
        <ele>763.845</ele>
        <time>2014-04-12T07:28:32Z</time>
      </trkpt>
      <trkpt lat="40.667416" lon="-3.676570">
        <ele>765.444</ele>
        <time>2014-04-12T07:28:43Z</time>
      </trkpt>
      <trkpt lat="40.667575" lon="-3.676731">
        <ele>767.485</ele>
        <time>2014-04-12T07:28:53Z</time>
      </trkpt>
      <trkpt lat="40.667743" lon="-3.676847">
        <ele>769.244</ele>
        <time>2014-04-12T07:29:03Z</time>
      </trkpt>
      <trkpt lat="40.667907" lon="-3.676968">
        <ele>771.349</ele>
        <time>2014-04-12T07:29:14Z</time>
      </trkpt>
      <trkpt lat="40.668075" lon="-3.677074">
        <ele>772.578</ele>
        <time>2014-04-12T07:29:25Z</time>
      </trkpt>
      <trkpt lat="40.668248" lon="-3.677182">
        <ele>773.580</ele>
        <time>2014-04-12T07:29:35Z</time>
      </trkpt>
      <trkpt lat="40.668433" lon="-3.677180">
        <ele>774.854</ele>
        <time>2014-04-12T07:29:45Z</time>
      </trkpt>
      <trkpt lat="40.668603" lon="-3.677095">
        <ele>775.356</ele>
        <time>2014-04-12T07:29:53Z</time>
      </trkpt>
      <trkpt lat="40.668780" lon="-3.677021">
        <ele>776.011</ele>
        <time>2014-04-12T07:30:01Z</time>
      </trkpt>
      <trkpt lat="40.668960" lon="-3.677113">
        <ele>776.807</ele>
        <time>2014-04-12T07:30:09Z</time>
      </trkpt>
      <trkpt lat="40.669044" lon="-3.677330">
        <ele>777.761</ele>
        <time>2014-04-12T07:30:17Z</time>
      </trkpt>
      <trkpt lat="40.669093" lon="-3.677561">
        <ele>779.080</ele>
        <time>2014-04-12T07:30:26Z</time>
      </trkpt>
      <trkpt lat="40.669144" lon="-3.677810">
        <ele>779.821</ele>
        <time>2014-04-12T07:30:36Z</time>
      </trkpt>
      <trkpt lat="40.669273" lon="-3.677980">
        <ele>780.240</ele>
        <time>2014-04-12T07:30:47Z</time>
      </trkpt>
      <trkpt lat="40.669453" lon="-3.677959">
        <ele>781.065</ele>
        <time>2014-04-12T07:30:56Z</time>
      </trkpt>
      <trkpt lat="40.669618" lon="-3.677845">
        <ele>782.454</ele>
        <time>2014-04-12T07:31:05Z</time>
      </trkpt>
      <trkpt lat="40.669811" lon="-3.677882">
        <ele>783.956</ele>
        <time>2014-04-12T07:31:14Z</time>
      </trkpt>
      <trkpt lat="40.669994" lon="-3.677923">
        <ele>784.992</ele>
        <time>2014-04-12T07:31:23Z</time>
      </trkpt>
      <trkpt lat="40.670175" lon="-3.677834">
        <ele>786.473</ele>
        <time>2014-04-12T07:31:33Z</time>
      </trkpt>
      <trkpt lat="40.670305" lon="-3.677644">
        <ele>787.020</ele>
        <time>2014-04-12T07:31:43Z</time>
      </trkpt>
      <trkpt lat="40.670465" lon="-3.677503">
        <ele>787.307</ele>
        <time>2014-04-12T07:31:53Z</time>
      </trkpt>
      <trkpt lat="40.670648" lon="-3.677508">
        <ele>788.765</ele>
        <time>2014-04-12T07:32:03Z</time>
      </trkpt>
      <trkpt lat="40.670730" lon="-3.677736">
        <ele>789.924</ele>
        <time>2014-04-12T07:32:13Z</time>
      </trkpt>
      <trkpt lat="40.670755" lon="-3.677976">
        <ele>791.115</ele>
        <time>2014-04-12T07:32:20Z</time>
      </trkpt>
      <trkpt lat="40.670952" lon="-3.678034">
        <ele>791.724</ele>
        <time>2014-04-12T07:32:27Z</time>
      </trkpt>
      <trkpt lat="40.671149" lon="-3.678122">
        <ele>792.919</ele>
        <time>2014-04-12T07:32:33Z</time>
      </trkpt>
      <trkpt lat="40.671336" lon="-3.678159">
        <ele>793.778</ele>
        <time>2014-04-12T07:32:41Z</time>
      </trkpt>
      <trkpt lat="40.671515" lon="-3.678072">
        <ele>795.160</ele>
        <time>2014-04-12T07:32:53Z</time>
      </trkpt>
      <trkpt lat="40.671683" lon="-3.677950">
        <ele>796.567</ele>
        <time>2014-04-12T07:33:05Z</time>
      </trkpt>
      <trkpt lat="40.671847" lon="-3.678061">
        <ele>797.881</ele>
        <time>2014-04-12T07:33:15Z</time>
      </trkpt>
      <trkpt lat="40.671875" lon="-3.678311">
        <ele>798.919</ele>
        <time>2014-04-12T07:33:25Z</time>
      </trkpt>
      <trkpt lat="40.671832" lon="-3.678557">
        <ele>800.407</ele>
        <time>2014-04-12T07:33:34Z</time>
      </trkpt>
      <trkpt lat="40.671859" lon="-3.678798">
        <ele>802.022</ele>
        <time>2014-04-12T07:33:45Z</time>
      </trkpt>
      <trkpt lat="40.672026" lon="-3.678889">
        <ele>803.971</ele>
        <time>2014-04-12T07:33:55Z</time>
      </trkpt>
      <trkpt lat="40.672201" lon="-3.678981">
        <ele>805.872</ele>
        <time>2014-04-12T07:34:07Z</time>
      </trkpt>
      <trkpt lat="40.672378" lon="-3.679073">
        <ele>807.661</ele>
        <time>2014-04-12T07:34:19Z</time>
      </trkpt>
      <trkpt lat="40.672545" lon="-3.679176">
        <ele>809.816</ele>
        <time>2014-04-12T07:34:32Z</time>
      </trkpt>
      <trkpt lat="40.672719" lon="-3.679262">
        <ele>812.585</ele>
        <time>2014-04-12T07:34:46Z</time>
      </trkpt>
      <trkpt lat="40.672906" lon="-3.679324">
        <ele>815.077</ele>
        <time>2014-04-12T07:34:58Z</time>
      </trkpt>
      <trkpt lat="40.673093" lon="-3.679326">
        <ele>817.557</ele>
        <time>2014-04-12T07:35:09Z</time>
      </trkpt>
      <trkpt lat="40.673279" lon="-3.679367">
        <ele>819.600</ele>
        <time>2014-04-12T07:35:19Z</time>
      </trkpt>
      <trkpt lat="40.673416" lon="-3.679550">
        <ele>821.920</ele>
        <time>2014-04-12T07:35:29Z</time>
      </trkpt>
      <trkpt lat="40.673617" lon="-3.679595">
        <ele>823.007</ele>
        <time>2014-04-12T07:35:39Z</time>
      </trkpt>
      <trkpt lat="40.673809" lon="-3.679618">
        <ele>823.691</ele>
        <time>2014-04-12T07:35:51Z</time>
      </trkpt>
      <trkpt lat="40.673983" lon="-3.679715">
        <ele>826.090</ele>
        <time>2014-04-12T07:36:03Z</time>
      </trkpt>
      <trkpt lat="40.674164" lon="-3.679797">
        <ele>828.061</ele>
        <time>2014-04-12T07:36:14Z</time>
      </trkpt>
      <trkpt lat="40.674315" lon="-3.679955">
        <ele>830.350</ele>
        <time>2014-04-12T07:36:24Z</time>
      </trkpt>
      <trkpt lat="40.674492" lon="-3.680050">
        <ele>833.015</ele>
        <time>2014-04-12T07:36:35Z</time>
      </trkpt>
      <trkpt lat="40.674658" lon="-3.679953">
        <ele>834.974</ele>
        <time>2014-04-12T07:36:46Z</time>
      </trkpt>
      <trkpt lat="40.674783" lon="-3.680134">
        <ele>837.286</ele>
        <time>2014-04-12T07:36:58Z</time>
      </trkpt>
      <trkpt lat="40.674882" lon="-3.680347">
        <ele>840.258</ele>
        <time>2014-04-12T07:37:11Z</time>
      </trkpt>
      <trkpt lat="40.675062" lon="-3.680412">
        <ele>841.952</ele>
        <time>2014-04-12T07:37:21Z</time>
      </trkpt>
      <trkpt lat="40.675256" lon="-3.680430">
        <ele>843.317</ele>
        <time>2014-04-12T07:37:30Z</time>
      </trkpt>
      <trkpt lat="40.675437" lon="-3.680412">
        <ele>845.007</ele>
        <time>2014-04-12T07:37:40Z</time>
      </trkpt>
      <trkpt lat="40.675623" lon="-3.680473">
        <ele>847.111</ele>
        <time>2014-04-12T07:37:50Z</time>
      </trkpt>
      <trkpt lat="40.675776" lon="-3.680661">
        <ele>848.540</ele>
        <time>2014-04-12T07:37:59Z</time>
      </trkpt>
      <trkpt lat="40.675962" lon="-3.680838">
        <ele>849.241</ele>
        <time>2014-04-12T07:38:04Z</time>
      </trkpt>
      <trkpt lat="40.676127" lon="-3.680943">
        <ele>848.330</ele>
        <time>2014-04-12T07:38:09Z</time>
      </trkpt>
      <trkpt lat="40.676238" lon="-3.681138">
        <ele>848.425</ele>
        <time>2014-04-12T07:38:17Z</time>
      </trkpt>
      <trkpt lat="40.676289" lon="-3.681410">
        <ele>850.594</ele>
        <time>2014-04-12T07:38:22Z</time>
      </trkpt>
      <trkpt lat="40.676358" lon="-3.681683">
        <ele>851.566</ele>
        <time>2014-04-12T07:38:27Z</time>
      </trkpt>
      <trkpt lat="40.676499" lon="-3.681858">
        <ele>852.838</ele>
        <time>2014-04-12T07:38:31Z</time>
      </trkpt>
      <trkpt lat="40.676671" lon="-3.681971">
        <ele>853.370</ele>
        <time>2014-04-12T07:38:34Z</time>
      </trkpt>
      <trkpt lat="40.676921" lon="-3.682090">
        <ele>853.417</ele>
        <time>2014-04-12T07:38:37Z</time>
      </trkpt>
      <trkpt lat="40.677099" lon="-3.682144">
        <ele>852.907</ele>
        <time>2014-04-12T07:38:39Z</time>
      </trkpt>
      <trkpt lat="40.677306" lon="-3.682212">
        <ele>850.149</ele>
        <time>2014-04-12T07:38:42Z</time>
      </trkpt>
      <trkpt lat="40.677480" lon="-3.682276">
        <ele>848.578</ele>
        <time>2014-04-12T07:38:47Z</time>
      </trkpt>
      <trkpt lat="40.677662" lon="-3.682374">
        <ele>848.739</ele>
        <time>2014-04-12T07:38:56Z</time>
      </trkpt>
      <trkpt lat="40.677846" lon="-3.682486">
        <ele>848.988</ele>
        <time>2014-04-12T07:39:03Z</time>
      </trkpt>
      <trkpt lat="40.678009" lon="-3.682621">
        <ele>849.053</ele>
        <time>2014-04-12T07:39:08Z</time>
      </trkpt>
      <trkpt lat="40.678185" lon="-3.682780">
        <ele>849.552</ele>
        <time>2014-04-12T07:39:13Z</time>
      </trkpt>
      <trkpt lat="40.678334" lon="-3.682956">
        <ele>850.894</ele>
        <time>2014-04-12T07:39:18Z</time>
      </trkpt>
      <trkpt lat="40.678461" lon="-3.683136">
        <ele>849.488</ele>
        <time>2014-04-12T07:39:22Z</time>
      </trkpt>
      <trkpt lat="40.678638" lon="-3.683289">
        <ele>847.724</ele>
        <time>2014-04-12T07:39:25Z</time>
      </trkpt>
      <trkpt lat="40.678835" lon="-3.683439">
        <ele>847.226</ele>
        <time>2014-04-12T07:39:28Z</time>
      </trkpt>
      <trkpt lat="40.678997" lon="-3.683629">
        <ele>846.907</ele>
        <time>2014-04-12T07:39:31Z</time>
      </trkpt>
      <trkpt lat="40.679140" lon="-3.683824">
        <ele>846.174</ele>
        <time>2014-04-12T07:39:34Z</time>
      </trkpt>
      <trkpt lat="40.679292" lon="-3.684026">
        <ele>845.283</ele>
        <time>2014-04-12T07:39:38Z</time>
      </trkpt>
      <trkpt lat="40.679440" lon="-3.684211">
        <ele>844.664</ele>
        <time>2014-04-12T07:39:44Z</time>
      </trkpt>
      <trkpt lat="40.679589" lon="-3.684377">
        <ele>844.813</ele>
        <time>2014-04-12T07:39:51Z</time>
      </trkpt>
      <trkpt lat="40.679762" lon="-3.684499">
        <ele>845.298</ele>
        <time>2014-04-12T07:40:00Z</time>
      </trkpt>
      <trkpt lat="40.679951" lon="-3.684539">
        <ele>845.837</ele>
        <time>2014-04-12T07:40:09Z</time>
      </trkpt>
      <trkpt lat="40.680159" lon="-3.684548">
        <ele>846.739</ele>
        <time>2014-04-12T07:40:14Z</time>
      </trkpt>
      <trkpt lat="40.680387" lon="-3.684561">
        <ele>847.025</ele>
        <time>2014-04-12T07:40:18Z</time>
      </trkpt>
      <trkpt lat="40.680591" lon="-3.684615">
        <ele>846.426</ele>
        <time>2014-04-12T07:40:21Z</time>
      </trkpt>
      <trkpt lat="40.680782" lon="-3.684714">
        <ele>845.808</ele>
        <time>2014-04-12T07:40:24Z</time>
      </trkpt>
      <trkpt lat="40.680973" lon="-3.684831">
        <ele>845.507</ele>
        <time>2014-04-12T07:40:27Z</time>
      </trkpt>
      <trkpt lat="40.681152" lon="-3.684949">
        <ele>845.138</ele>
        <time>2014-04-12T07:40:30Z</time>
      </trkpt>
      <trkpt lat="40.681344" lon="-3.685078">
        <ele>844.167</ele>
        <time>2014-04-12T07:40:34Z</time>
      </trkpt>
      <trkpt lat="40.681546" lon="-3.685185">
        <ele>843.698</ele>
        <time>2014-04-12T07:40:39Z</time>
      </trkpt>
      <trkpt lat="40.681743" lon="-3.685264">
        <ele>842.747</ele>
        <time>2014-04-12T07:40:44Z</time>
      </trkpt>
      <trkpt lat="40.681929" lon="-3.685324">
        <ele>843.432</ele>
        <time>2014-04-12T07:40:49Z</time>
      </trkpt>
      <trkpt lat="40.682110" lon="-3.685433">
        <ele>844.021</ele>
        <time>2014-04-12T07:40:55Z</time>
      </trkpt>
      <trkpt lat="40.682308" lon="-3.685559">
        <ele>845.093</ele>
        <time>2014-04-12T07:41:00Z</time>
      </trkpt>
      <trkpt lat="40.682517" lon="-3.685681">
        <ele>846.945</ele>
        <time>2014-04-12T07:41:04Z</time>
      </trkpt>
      <trkpt lat="40.682688" lon="-3.685757">
        <ele>847.147</ele>
        <time>2014-04-12T07:41:08Z</time>
      </trkpt>
      <trkpt lat="40.682895" lon="-3.685855">
        <ele>845.811</ele>
        <time>2014-04-12T07:41:13Z</time>
      </trkpt>
      <trkpt lat="40.683082" lon="-3.685935">
        <ele>845.807</ele>
        <time>2014-04-12T07:41:18Z</time>
      </trkpt>
      <trkpt lat="40.683281" lon="-3.686051">
        <ele>847.310</ele>
        <time>2014-04-12T07:41:23Z</time>
      </trkpt>
      <trkpt lat="40.683442" lon="-3.686199">
        <ele>846.939</ele>
        <time>2014-04-12T07:41:27Z</time>
      </trkpt>
      <trkpt lat="40.683584" lon="-3.686397">
        <ele>845.710</ele>
        <time>2014-04-12T07:41:33Z</time>
      </trkpt>
      <trkpt lat="40.683747" lon="-3.686600">
        <ele>843.289</ele>
        <time>2014-04-12T07:41:38Z</time>
      </trkpt>
      <trkpt lat="40.683899" lon="-3.686739">
        <ele>840.644</ele>
        <time>2014-04-12T07:41:42Z</time>
      </trkpt>
      <trkpt lat="40.684075" lon="-3.686841">
        <ele>839.513</ele>
        <time>2014-04-12T07:41:47Z</time>
      </trkpt>
      <trkpt lat="40.684268" lon="-3.686909">
        <ele>839.335</ele>
        <time>2014-04-12T07:41:52Z</time>
      </trkpt>
      <trkpt lat="40.684456" lon="-3.686971">
        <ele>839.612</ele>
        <time>2014-04-12T07:41:58Z</time>
      </trkpt>
      <trkpt lat="40.684626" lon="-3.687058">
        <ele>840.332</ele>
        <time>2014-04-12T07:42:05Z</time>
      </trkpt>
      <trkpt lat="40.684792" lon="-3.687201">
        <ele>841.305</ele>
        <time>2014-04-12T07:42:12Z</time>
      </trkpt>
      <trkpt lat="40.684946" lon="-3.687350">
        <ele>842.907</ele>
        <time>2014-04-12T07:42:20Z</time>
      </trkpt>
      <trkpt lat="40.685082" lon="-3.687517">
        <ele>844.477</ele>
        <time>2014-04-12T07:42:28Z</time>
      </trkpt>
      <trkpt lat="40.685216" lon="-3.687701">
        <ele>845.456</ele>
        <time>2014-04-12T07:42:35Z</time>
      </trkpt>
      <trkpt lat="40.685335" lon="-3.687886">
        <ele>846.227</ele>
        <time>2014-04-12T07:42:42Z</time>
      </trkpt>
      <trkpt lat="40.685445" lon="-3.688096">
        <ele>847.086</ele>
        <time>2014-04-12T07:42:49Z</time>
      </trkpt>
      <trkpt lat="40.685557" lon="-3.688283">
        <ele>847.741</ele>
        <time>2014-04-12T07:42:55Z</time>
      </trkpt>
      <trkpt lat="40.685720" lon="-3.688441">
        <ele>849.080</ele>
        <time>2014-04-12T07:43:03Z</time>
      </trkpt>
      <trkpt lat="40.685892" lon="-3.688556">
        <ele>849.992</ele>
        <time>2014-04-12T07:43:11Z</time>
      </trkpt>
      <trkpt lat="40.686058" lon="-3.688659">
        <ele>850.412</ele>
        <time>2014-04-12T07:43:19Z</time>
      </trkpt>
      <trkpt lat="40.686259" lon="-3.688691">
        <ele>851.432</ele>
        <time>2014-04-12T07:43:28Z</time>
      </trkpt>
      <trkpt lat="40.686447" lon="-3.688728">
        <ele>852.205</ele>
        <time>2014-04-12T07:43:36Z</time>
      </trkpt>
      <trkpt lat="40.686633" lon="-3.688755">
        <ele>853.007</ele>
        <time>2014-04-12T07:43:44Z</time>
      </trkpt>
      <trkpt lat="40.686829" lon="-3.688801">
        <ele>854.057</ele>
        <time>2014-04-12T07:43:53Z</time>
      </trkpt>
      <trkpt lat="40.687032" lon="-3.688814">
        <ele>855.726</ele>
        <time>2014-04-12T07:44:03Z</time>
      </trkpt>
      <trkpt lat="40.687214" lon="-3.688836">
        <ele>857.127</ele>
        <time>2014-04-12T07:44:11Z</time>
      </trkpt>
      <trkpt lat="40.687395" lon="-3.688875">
        <ele>858.296</ele>
        <time>2014-04-12T07:44:18Z</time>
      </trkpt>
      <trkpt lat="40.687585" lon="-3.688918">
        <ele>859.281</ele>
        <time>2014-04-12T07:44:25Z</time>
      </trkpt>
      <trkpt lat="40.687766" lon="-3.688956">
        <ele>860.110</ele>
        <time>2014-04-12T07:44:32Z</time>
      </trkpt>
      <trkpt lat="40.687950" lon="-3.688998">
        <ele>860.892</ele>
        <time>2014-04-12T07:44:40Z</time>
      </trkpt>
      <trkpt lat="40.688140" lon="-3.689027">
        <ele>861.392</ele>
        <time>2014-04-12T07:44:48Z</time>
      </trkpt>
      <trkpt lat="40.688325" lon="-3.689063">
        <ele>862.173</ele>
        <time>2014-04-12T07:44:56Z</time>
      </trkpt>
      <trkpt lat="40.688513" lon="-3.689078">
        <ele>862.820</ele>
        <time>2014-04-12T07:45:04Z</time>
      </trkpt>
      <trkpt lat="40.688680" lon="-3.689201">
        <ele>863.707</ele>
        <time>2014-04-12T07:45:12Z</time>
      </trkpt>
      <trkpt lat="40.688782" lon="-3.689426">
        <ele>865.465</ele>
        <time>2014-04-12T07:45:22Z</time>
      </trkpt>
      <trkpt lat="40.688812" lon="-3.689671">
        <ele>866.574</ele>
        <time>2014-04-12T07:45:29Z</time>
      </trkpt>
      <trkpt lat="40.688827" lon="-3.689909">
        <ele>867.835</ele>
        <time>2014-04-12T07:45:36Z</time>
      </trkpt>
      <trkpt lat="40.688832" lon="-3.690155">
        <ele>869.034</ele>
        <time>2014-04-12T07:45:43Z</time>
      </trkpt>
      <trkpt lat="40.688831" lon="-3.690396">
        <ele>870.529</ele>
        <time>2014-04-12T07:45:51Z</time>
      </trkpt>
      <trkpt lat="40.688819" lon="-3.690638">
        <ele>871.638</ele>
        <time>2014-04-12T07:45:58Z</time>
      </trkpt>
      <trkpt lat="40.688818" lon="-3.690908">
        <ele>872.880</ele>
        <time>2014-04-12T07:46:06Z</time>
      </trkpt>
      <trkpt lat="40.688826" lon="-3.691163">
        <ele>874.061</ele>
        <time>2014-04-12T07:46:14Z</time>
      </trkpt>
      <trkpt lat="40.688832" lon="-3.691412">
        <ele>875.121</ele>
        <time>2014-04-12T07:46:22Z</time>
      </trkpt>
      <trkpt lat="40.688845" lon="-3.691669">
        <ele>876.213</ele>
        <time>2014-04-12T07:46:30Z</time>
      </trkpt>
      <trkpt lat="40.688850" lon="-3.691907">
        <ele>877.107</ele>
        <time>2014-04-12T07:46:37Z</time>
      </trkpt>
      <trkpt lat="40.688854" lon="-3.692155">
        <ele>878.212</ele>
        <time>2014-04-12T07:46:44Z</time>
      </trkpt>
      <trkpt lat="40.688862" lon="-3.692402">
        <ele>879.141</ele>
        <time>2014-04-12T07:46:53Z</time>
      </trkpt>
      <trkpt lat="40.688901" lon="-3.692640">
        <ele>880.082</ele>
        <time>2014-04-12T07:47:00Z</time>
      </trkpt>
      <trkpt lat="40.688977" lon="-3.692875">
        <ele>880.521</ele>
        <time>2014-04-12T07:47:07Z</time>
      </trkpt>
      <trkpt lat="40.689009" lon="-3.693110">
        <ele>881.276</ele>
        <time>2014-04-12T07:47:13Z</time>
      </trkpt>
      <trkpt lat="40.688904" lon="-3.693364">
        <ele>883.495</ele>
        <time>2014-04-12T07:47:19Z</time>
      </trkpt>
      <trkpt lat="40.688841" lon="-3.693598">
        <ele>884.597</ele>
        <time>2014-04-12T07:47:25Z</time>
      </trkpt>
      <trkpt lat="40.688922" lon="-3.693852">
        <ele>885.355</ele>
        <time>2014-04-12T07:47:33Z</time>
      </trkpt>
      <trkpt lat="40.689087" lon="-3.694022">
        <ele>885.707</ele>
        <time>2014-04-12T07:47:40Z</time>
      </trkpt>
      <trkpt lat="40.689193" lon="-3.694239">
        <ele>886.417</ele>
        <time>2014-04-12T07:47:47Z</time>
      </trkpt>
      <trkpt lat="40.689299" lon="-3.694471">
        <ele>886.907</ele>
        <time>2014-04-12T07:47:54Z</time>
      </trkpt>
      <trkpt lat="40.689433" lon="-3.694656">
        <ele>887.481</ele>
        <time>2014-04-12T07:48:01Z</time>
      </trkpt>
      <trkpt lat="40.689516" lon="-3.694888">
        <ele>887.940</ele>
        <time>2014-04-12T07:48:09Z</time>
      </trkpt>
      <trkpt lat="40.689551" lon="-3.695155">
        <ele>888.291</ele>
        <time>2014-04-12T07:48:15Z</time>
      </trkpt>
      <trkpt lat="40.689620" lon="-3.695393">
        <ele>888.670</ele>
        <time>2014-04-12T07:48:21Z</time>
      </trkpt>
      <trkpt lat="40.689747" lon="-3.695574">
        <ele>888.795</ele>
        <time>2014-04-12T07:48:28Z</time>
      </trkpt>
      <trkpt lat="40.689902" lon="-3.695758">
        <ele>888.454</ele>
        <time>2014-04-12T07:48:35Z</time>
      </trkpt>
      <trkpt lat="40.690055" lon="-3.695906">
        <ele>888.486</ele>
        <time>2014-04-12T07:48:41Z</time>
      </trkpt>
      <trkpt lat="40.690213" lon="-3.696027">
        <ele>888.749</ele>
        <time>2014-04-12T07:48:45Z</time>
      </trkpt>
      <trkpt lat="40.690358" lon="-3.696242">
        <ele>888.902</ele>
        <time>2014-04-12T07:48:49Z</time>
      </trkpt>
      <trkpt lat="40.690476" lon="-3.696440">
        <ele>888.122</ele>
        <time>2014-04-12T07:48:53Z</time>
      </trkpt>
      <trkpt lat="40.690612" lon="-3.696656">
        <ele>886.607</ele>
        <time>2014-04-12T07:48:58Z</time>
      </trkpt>
      <trkpt lat="40.690725" lon="-3.696854">
        <ele>888.570</ele>
        <time>2014-04-12T07:49:03Z</time>
      </trkpt>
      <trkpt lat="40.690751" lon="-3.697122">
        <ele>886.849</ele>
        <time>2014-04-12T07:49:08Z</time>
      </trkpt>
      <trkpt lat="40.690699" lon="-3.697384">
        <ele>886.490</ele>
        <time>2014-04-12T07:49:14Z</time>
      </trkpt>
      <trkpt lat="40.690645" lon="-3.697620">
        <ele>886.819</ele>
        <time>2014-04-12T07:49:20Z</time>
      </trkpt>
      <trkpt lat="40.690627" lon="-3.697890">
        <ele>888.084</ele>
        <time>2014-04-12T07:49:27Z</time>
      </trkpt>
      <trkpt lat="40.690614" lon="-3.698128">
        <ele>889.193</ele>
        <time>2014-04-12T07:49:33Z</time>
      </trkpt>
      <trkpt lat="40.690560" lon="-3.698360">
        <ele>890.075</ele>
        <time>2014-04-12T07:49:39Z</time>
      </trkpt>
      <trkpt lat="40.690519" lon="-3.698638">
        <ele>891.094</ele>
        <time>2014-04-12T07:49:45Z</time>
      </trkpt>
      <trkpt lat="40.690522" lon="-3.698894">
        <ele>891.657</ele>
        <time>2014-04-12T07:49:50Z</time>
      </trkpt>
      <trkpt lat="40.690547" lon="-3.699144">
        <ele>891.822</ele>
        <time>2014-04-12T07:49:56Z</time>
      </trkpt>
      <trkpt lat="40.690603" lon="-3.699386">
        <ele>891.807</ele>
        <time>2014-04-12T07:50:02Z</time>
      </trkpt>
      <trkpt lat="40.690675" lon="-3.699603">
        <ele>892.035</ele>
        <time>2014-04-12T07:50:09Z</time>
      </trkpt>
      <trkpt lat="40.690754" lon="-3.699819">
        <ele>892.434</ele>
        <time>2014-04-12T07:50:17Z</time>
      </trkpt>
      <trkpt lat="40.690776" lon="-3.700081">
        <ele>892.955</ele>
        <time>2014-04-12T07:50:24Z</time>
      </trkpt>
      <trkpt lat="40.690846" lon="-3.700332">
        <ele>893.464</ele>
        <time>2014-04-12T07:50:32Z</time>
      </trkpt>
      <trkpt lat="40.690868" lon="-3.700567">
        <ele>893.629</ele>
        <time>2014-04-12T07:50:39Z</time>
      </trkpt>
      <trkpt lat="40.690797" lon="-3.700809">
        <ele>894.038</ele>
        <time>2014-04-12T07:50:46Z</time>
      </trkpt>
      <trkpt lat="40.690746" lon="-3.701061">
        <ele>894.730</ele>
        <time>2014-04-12T07:50:53Z</time>
      </trkpt>
      <trkpt lat="40.690687" lon="-3.701326">
        <ele>895.487</ele>
        <time>2014-04-12T07:51:00Z</time>
      </trkpt>
      <trkpt lat="40.690561" lon="-3.701520">
        <ele>895.642</ele>
        <time>2014-04-12T07:51:06Z</time>
      </trkpt>
      <trkpt lat="40.690389" lon="-3.701598">
        <ele>896.226</ele>
        <time>2014-04-12T07:51:13Z</time>
      </trkpt>
      <trkpt lat="40.690200" lon="-3.701700">
        <ele>897.507</ele>
        <time>2014-04-12T07:51:23Z</time>
      </trkpt>
      <trkpt lat="40.690024" lon="-3.701813">
        <ele>898.584</ele>
        <time>2014-04-12T07:51:33Z</time>
      </trkpt>
      <trkpt lat="40.689878" lon="-3.701966">
        <ele>899.993</ele>
        <time>2014-04-12T07:51:43Z</time>
      </trkpt>
      <trkpt lat="40.689765" lon="-3.702159">
        <ele>901.624</ele>
        <time>2014-04-12T07:51:51Z</time>
      </trkpt>
      <trkpt lat="40.689658" lon="-3.702361">
        <ele>903.293</ele>
        <time>2014-04-12T07:51:59Z</time>
      </trkpt>
      <trkpt lat="40.689615" lon="-3.702598">
        <ele>904.818</ele>
        <time>2014-04-12T07:52:06Z</time>
      </trkpt>
      <trkpt lat="40.689611" lon="-3.702834">
        <ele>906.947</ele>
        <time>2014-04-12T07:52:15Z</time>
      </trkpt>
      <trkpt lat="40.689633" lon="-3.703078">
        <ele>909.029</ele>
        <time>2014-04-12T07:52:23Z</time>
      </trkpt>
      <trkpt lat="40.689703" lon="-3.703339">
        <ele>910.434</ele>
        <time>2014-04-12T07:52:31Z</time>
      </trkpt>
      <trkpt lat="40.689786" lon="-3.703578">
        <ele>911.555</ele>
        <time>2014-04-12T07:52:38Z</time>
      </trkpt>
      <trkpt lat="40.689836" lon="-3.703844">
        <ele>912.510</ele>
        <time>2014-04-12T07:52:46Z</time>
      </trkpt>
      <trkpt lat="40.689871" lon="-3.704082">
        <ele>912.907</ele>
        <time>2014-04-12T07:52:53Z</time>
      </trkpt>
      <trkpt lat="40.689905" lon="-3.704346">
        <ele>913.829</ele>
        <time>2014-04-12T07:53:01Z</time>
      </trkpt>
      <trkpt lat="40.689924" lon="-3.704608">
        <ele>914.718</ele>
        <time>2014-04-12T07:53:10Z</time>
      </trkpt>
      <trkpt lat="40.689959" lon="-3.704872">
        <ele>915.069</ele>
        <time>2014-04-12T07:53:18Z</time>
      </trkpt>
      <trkpt lat="40.689997" lon="-3.705125">
        <ele>915.288</ele>
        <time>2014-04-12T07:53:25Z</time>
      </trkpt>
      <trkpt lat="40.690030" lon="-3.705368">
        <ele>915.343</ele>
        <time>2014-04-12T07:53:31Z</time>
      </trkpt>
      <trkpt lat="40.690086" lon="-3.705633">
        <ele>915.512</ele>
        <time>2014-04-12T07:53:38Z</time>
      </trkpt>
      <trkpt lat="40.690098" lon="-3.705877">
        <ele>915.714</ele>
        <time>2014-04-12T07:53:45Z</time>
      </trkpt>
      <trkpt lat="40.690131" lon="-3.706139">
        <ele>915.884</ele>
        <time>2014-04-12T07:53:52Z</time>
      </trkpt>
      <trkpt lat="40.690154" lon="-3.706375">
        <ele>916.007</ele>
        <time>2014-04-12T07:53:58Z</time>
      </trkpt>
      <trkpt lat="40.690115" lon="-3.706615">
        <ele>916.617</ele>
        <time>2014-04-12T07:54:05Z</time>
      </trkpt>
      <trkpt lat="40.690063" lon="-3.706865">
        <ele>917.707</ele>
        <time>2014-04-12T07:54:12Z</time>
      </trkpt>
      <trkpt lat="40.689981" lon="-3.707118">
        <ele>919.994</ele>
        <time>2014-04-12T07:54:18Z</time>
      </trkpt>
      <trkpt lat="40.689862" lon="-3.707355">
        <ele>924.053</ele>
        <time>2014-04-12T07:54:23Z</time>
      </trkpt>
      <trkpt lat="40.689717" lon="-3.707575">
        <ele>925.664</ele>
        <time>2014-04-12T07:54:27Z</time>
      </trkpt>
      <trkpt lat="40.689567" lon="-3.707769">
        <ele>927.173</ele>
        <time>2014-04-12T07:54:30Z</time>
      </trkpt>
      <trkpt lat="40.689414" lon="-3.707986">
        <ele>926.428</ele>
        <time>2014-04-12T07:54:33Z</time>
      </trkpt>
      <trkpt lat="40.689282" lon="-3.708215">
        <ele>923.667</ele>
        <time>2014-04-12T07:54:36Z</time>
      </trkpt>
      <trkpt lat="40.689131" lon="-3.708455">
        <ele>919.719</ele>
        <time>2014-04-12T07:54:39Z</time>
      </trkpt>
      <trkpt lat="40.688995" lon="-3.708667">
        <ele>917.288</ele>
        <time>2014-04-12T07:54:42Z</time>
      </trkpt>
      <trkpt lat="40.688877" lon="-3.708926">
        <ele>915.624</ele>
        <time>2014-04-12T07:54:46Z</time>
      </trkpt>
      <trkpt lat="40.688826" lon="-3.709182">
        <ele>915.626</ele>
        <time>2014-04-12T07:54:51Z</time>
      </trkpt>
      <trkpt lat="40.688769" lon="-3.709431">
        <ele>915.707</ele>
        <time>2014-04-12T07:54:56Z</time>
      </trkpt>
      <trkpt lat="40.688710" lon="-3.709660">
        <ele>915.734</ele>
        <time>2014-04-12T07:55:01Z</time>
      </trkpt>
      <trkpt lat="40.688649" lon="-3.709911">
        <ele>915.943</ele>
        <time>2014-04-12T07:55:07Z</time>
      </trkpt>
      <trkpt lat="40.688577" lon="-3.710151">
        <ele>916.354</ele>
        <time>2014-04-12T07:55:13Z</time>
      </trkpt>
      <trkpt lat="40.688513" lon="-3.710421">
        <ele>916.743</ele>
        <time>2014-04-12T07:55:20Z</time>
      </trkpt>
      <trkpt lat="40.688504" lon="-3.710698">
        <ele>917.358</ele>
        <time>2014-04-12T07:55:28Z</time>
      </trkpt>
      <trkpt lat="40.688481" lon="-3.710970">
        <ele>917.827</ele>
        <time>2014-04-12T07:55:35Z</time>
      </trkpt>
      <trkpt lat="40.688330" lon="-3.711111">
        <ele>918.579</ele>
        <time>2014-04-12T07:55:40Z</time>
      </trkpt>
      <trkpt lat="40.688153" lon="-3.711189">
        <ele>919.338</ele>
        <time>2014-04-12T07:55:45Z</time>
      </trkpt>
      <trkpt lat="40.687965" lon="-3.711308">
        <ele>919.870</ele>
        <time>2014-04-12T07:55:52Z</time>
      </trkpt>
      <trkpt lat="40.687820" lon="-3.711477">
        <ele>920.217</ele>
        <time>2014-04-12T07:55:58Z</time>
      </trkpt>
      <trkpt lat="40.687706" lon="-3.711697">
        <ele>921.007</ele>
        <time>2014-04-12T07:56:05Z</time>
      </trkpt>
      <trkpt lat="40.687598" lon="-3.711929">
        <ele>922.259</ele>
        <time>2014-04-12T07:56:12Z</time>
      </trkpt>
      <trkpt lat="40.687488" lon="-3.712142">
        <ele>923.168</ele>
        <time>2014-04-12T07:56:19Z</time>
      </trkpt>
      <trkpt lat="40.687364" lon="-3.712324">
        <ele>923.849</ele>
        <time>2014-04-12T07:56:26Z</time>
      </trkpt>
      <trkpt lat="40.687248" lon="-3.712507">
        <ele>924.768</ele>
        <time>2014-04-12T07:56:33Z</time>
      </trkpt>
      <trkpt lat="40.687119" lon="-3.712705">
        <ele>925.113</ele>
        <time>2014-04-12T07:56:40Z</time>
      </trkpt>
      <trkpt lat="40.686994" lon="-3.712920">
        <ele>925.272</ele>
        <time>2014-04-12T07:56:48Z</time>
      </trkpt>
      <trkpt lat="40.686902" lon="-3.713139">
        <ele>925.914</ele>
        <time>2014-04-12T07:56:56Z</time>
      </trkpt>
      <trkpt lat="40.686820" lon="-3.713358">
        <ele>926.969</ele>
        <time>2014-04-12T07:57:03Z</time>
      </trkpt>
      <trkpt lat="40.686707" lon="-3.713581">
        <ele>928.404</ele>
        <time>2014-04-12T07:57:12Z</time>
      </trkpt>
      <trkpt lat="40.686584" lon="-3.713764">
        <ele>929.524</ele>
        <time>2014-04-12T07:57:19Z</time>
      </trkpt>
      <trkpt lat="40.686449" lon="-3.713951">
        <ele>931.007</ele>
        <time>2014-04-12T07:57:26Z</time>
      </trkpt>
      <trkpt lat="40.686311" lon="-3.714135">
        <ele>931.952</ele>
        <time>2014-04-12T07:57:33Z</time>
      </trkpt>
      <trkpt lat="40.686180" lon="-3.714333">
        <ele>932.951</ele>
        <time>2014-04-12T07:57:40Z</time>
      </trkpt>
      <trkpt lat="40.686064" lon="-3.714514">
        <ele>934.072</ele>
        <time>2014-04-12T07:57:46Z</time>
      </trkpt>
      <trkpt lat="40.685933" lon="-3.714704">
        <ele>935.081</ele>
        <time>2014-04-12T07:57:52Z</time>
      </trkpt>
      <trkpt lat="40.685795" lon="-3.714907">
        <ele>935.786</ele>
        <time>2014-04-12T07:57:58Z</time>
      </trkpt>
      <trkpt lat="40.685664" lon="-3.715122">
        <ele>936.675</ele>
        <time>2014-04-12T07:58:04Z</time>
      </trkpt>
      <trkpt lat="40.685576" lon="-3.715354">
        <ele>937.447</ele>
        <time>2014-04-12T07:58:10Z</time>
      </trkpt>
      <trkpt lat="40.685541" lon="-3.715606">
        <ele>938.092</ele>
        <time>2014-04-12T07:58:16Z</time>
      </trkpt>
      <trkpt lat="40.685521" lon="-3.715853">
        <ele>938.773</ele>
        <time>2014-04-12T07:58:21Z</time>
      </trkpt>
      <trkpt lat="40.685518" lon="-3.716116">
        <ele>940.320</ele>
        <time>2014-04-12T07:58:26Z</time>
      </trkpt>
      <trkpt lat="40.685529" lon="-3.716392">
        <ele>941.507</ele>
        <time>2014-04-12T07:58:31Z</time>
      </trkpt>
      <trkpt lat="40.685535" lon="-3.716639">
        <ele>942.915</ele>
        <time>2014-04-12T07:58:36Z</time>
      </trkpt>
      <trkpt lat="40.685504" lon="-3.716906">
        <ele>944.144</ele>
        <time>2014-04-12T07:58:41Z</time>
      </trkpt>
      <trkpt lat="40.685449" lon="-3.717168">
        <ele>944.125</ele>
        <time>2014-04-12T07:58:46Z</time>
      </trkpt>
      <trkpt lat="40.685383" lon="-3.717436">
        <ele>945.194</ele>
        <time>2014-04-12T07:58:51Z</time>
      </trkpt>
      <trkpt lat="40.685311" lon="-3.717687">
        <ele>945.959</ele>
        <time>2014-04-12T07:58:56Z</time>
      </trkpt>
      <trkpt lat="40.685224" lon="-3.717904">
        <ele>946.548</ele>
        <time>2014-04-12T07:59:01Z</time>
      </trkpt>
      <trkpt lat="40.685134" lon="-3.718119">
        <ele>945.420</ele>
        <time>2014-04-12T07:59:06Z</time>
      </trkpt>
      <trkpt lat="40.685056" lon="-3.718338">
        <ele>945.191</ele>
        <time>2014-04-12T07:59:11Z</time>
      </trkpt>
      <trkpt lat="40.684962" lon="-3.718592">
        <ele>943.181</ele>
        <time>2014-04-12T07:59:17Z</time>
      </trkpt>
      <trkpt lat="40.684871" lon="-3.718852">
        <ele>942.119</ele>
        <time>2014-04-12T07:59:23Z</time>
      </trkpt>
      <trkpt lat="40.684788" lon="-3.719068">
        <ele>941.807</ele>
        <time>2014-04-12T07:59:28Z</time>
      </trkpt>
      <trkpt lat="40.684790" lon="-3.719323">
        <ele>941.775</ele>
        <time>2014-04-12T07:59:34Z</time>
      </trkpt>
      <trkpt lat="40.684988" lon="-3.719273">
        <ele>941.414</ele>
        <time>2014-04-12T07:59:43Z</time>
      </trkpt>
      <trkpt lat="40.685181" lon="-3.719197">
        <ele>941.325</ele>
        <time>2014-04-12T07:59:51Z</time>
      </trkpt>
      <trkpt lat="40.685368" lon="-3.719112">
        <ele>941.814</ele>
        <time>2014-04-12T07:59:59Z</time>
      </trkpt>
      <trkpt lat="40.685541" lon="-3.719030">
        <ele>942.639</ele>
        <time>2014-04-12T08:00:06Z</time>
      </trkpt>
      <trkpt lat="40.685734" lon="-3.718967">
        <ele>943.498</ele>
        <time>2014-04-12T08:00:14Z</time>
      </trkpt>
      <trkpt lat="40.685926" lon="-3.718862">
        <ele>943.980</ele>
        <time>2014-04-12T08:00:22Z</time>
      </trkpt>
      <trkpt lat="40.686090" lon="-3.718754">
        <ele>944.346</ele>
        <time>2014-04-12T08:00:29Z</time>
      </trkpt>
      <trkpt lat="40.686263" lon="-3.718683">
        <ele>944.988</ele>
        <time>2014-04-12T08:00:35Z</time>
      </trkpt>
      <trkpt lat="40.686445" lon="-3.718637">
        <ele>945.316</ele>
        <time>2014-04-12T08:00:41Z</time>
      </trkpt>
      <trkpt lat="40.686650" lon="-3.718613">
        <ele>946.207</ele>
        <time>2014-04-12T08:00:50Z</time>
      </trkpt>
      <trkpt lat="40.686851" lon="-3.718635">
        <ele>947.030</ele>
        <time>2014-04-12T08:00:57Z</time>
      </trkpt>
      <trkpt lat="40.687043" lon="-3.718691">
        <ele>947.839</ele>
        <time>2014-04-12T08:01:04Z</time>
      </trkpt>
      <trkpt lat="40.687222" lon="-3.718755">
        <ele>948.270</ele>
        <time>2014-04-12T08:01:11Z</time>
      </trkpt>
      <trkpt lat="40.687415" lon="-3.718835">
        <ele>948.439</ele>
        <time>2014-04-12T08:01:19Z</time>
      </trkpt>
      <trkpt lat="40.687594" lon="-3.718899">
        <ele>949.014</ele>
        <time>2014-04-12T08:01:28Z</time>
      </trkpt>
      <trkpt lat="40.687788" lon="-3.718981">
        <ele>950.113</ele>
        <time>2014-04-12T08:01:37Z</time>
      </trkpt>
      <trkpt lat="40.687981" lon="-3.719072">
        <ele>951.575</ele>
        <time>2014-04-12T08:01:43Z</time>
      </trkpt>
      <trkpt lat="40.688149" lon="-3.719165">
        <ele>953.287</ele>
        <time>2014-04-12T08:01:50Z</time>
      </trkpt>
      <trkpt lat="40.688312" lon="-3.719292">
        <ele>954.542</ele>
        <time>2014-04-12T08:01:57Z</time>
      </trkpt>
      <trkpt lat="40.688480" lon="-3.719425">
        <ele>955.826</ele>
        <time>2014-04-12T08:02:04Z</time>
      </trkpt>
      <trkpt lat="40.688640" lon="-3.719563">
        <ele>956.707</ele>
        <time>2014-04-12T08:02:11Z</time>
      </trkpt>
      <trkpt lat="40.688795" lon="-3.719723">
        <ele>957.534</ele>
        <time>2014-04-12T08:02:18Z</time>
      </trkpt>
      <trkpt lat="40.688953" lon="-3.719887">
        <ele>958.423</ele>
        <time>2014-04-12T08:02:26Z</time>
      </trkpt>
      <trkpt lat="40.689095" lon="-3.720048">
        <ele>959.634</ele>
        <time>2014-04-12T08:02:33Z</time>
      </trkpt>
      <trkpt lat="40.689245" lon="-3.720200">
        <ele>960.963</ele>
        <time>2014-04-12T08:02:46Z</time>
      </trkpt>
      <trkpt lat="40.689427" lon="-3.720281">
        <ele>961.768</ele>
        <time>2014-04-12T08:02:55Z</time>
      </trkpt>
      <trkpt lat="40.689603" lon="-3.720400">
        <ele>962.257</ele>
        <time>2014-04-12T08:03:03Z</time>
      </trkpt>
      <trkpt lat="40.689780" lon="-3.720501">
        <ele>963.089</ele>
        <time>2014-04-12T08:03:11Z</time>
      </trkpt>
      <trkpt lat="40.689973" lon="-3.720486">
        <ele>964.662</ele>
        <time>2014-04-12T08:03:20Z</time>
      </trkpt>
      <trkpt lat="40.689954" lon="-3.720243">
        <ele>964.583</ele>
        <time>2014-04-12T08:06:55Z</time>
      </trkpt>
      <trkpt lat="40.689910" lon="-3.719984">
        <ele>964.511</ele>
        <time>2014-04-12T08:07:02Z</time>
      </trkpt>
      <trkpt lat="40.689954" lon="-3.719717">
        <ele>964.807</ele>
        <time>2014-04-12T08:07:09Z</time>
      </trkpt>
      <trkpt lat="40.690064" lon="-3.719500">
        <ele>965.032</ele>
        <time>2014-04-12T08:07:15Z</time>
      </trkpt>
      <trkpt lat="40.690122" lon="-3.719230">
        <ele>964.151</ele>
        <time>2014-04-12T08:07:20Z</time>
      </trkpt>
      <trkpt lat="40.690163" lon="-3.718998">
        <ele>965.322</ele>
        <time>2014-04-12T08:07:24Z</time>
      </trkpt>
      <trkpt lat="40.690214" lon="-3.718758">
        <ele>964.971</ele>
        <time>2014-04-12T08:07:29Z</time>
      </trkpt>
      <trkpt lat="40.690283" lon="-3.718532">
        <ele>963.256</ele>
        <time>2014-04-12T08:07:34Z</time>
      </trkpt>
      <trkpt lat="40.690391" lon="-3.718266">
        <ele>964.215</ele>
        <time>2014-04-12T08:07:39Z</time>
      </trkpt>
      <trkpt lat="40.690474" lon="-3.718009">
        <ele>965.327</ele>
        <time>2014-04-12T08:07:44Z</time>
      </trkpt>
      <trkpt lat="40.690535" lon="-3.717741">
        <ele>965.456</ele>
        <time>2014-04-12T08:07:49Z</time>
      </trkpt>
      <trkpt lat="40.690633" lon="-3.717490">
        <ele>963.059</ele>
        <time>2014-04-12T08:07:54Z</time>
      </trkpt>
      <trkpt lat="40.690747" lon="-3.717288">
        <ele>961.814</ele>
        <time>2014-04-12T08:07:59Z</time>
      </trkpt>
      <trkpt lat="40.690892" lon="-3.717094">
        <ele>962.007</ele>
        <time>2014-04-12T08:08:04Z</time>
      </trkpt>
      <trkpt lat="40.691033" lon="-3.716883">
        <ele>962.051</ele>
        <time>2014-04-12T08:08:09Z</time>
      </trkpt>
      <trkpt lat="40.691181" lon="-3.716723">
        <ele>962.480</ele>
        <time>2014-04-12T08:08:14Z</time>
      </trkpt>
      <trkpt lat="40.691349" lon="-3.716608">
        <ele>963.791</ele>
        <time>2014-04-12T08:08:19Z</time>
      </trkpt>
      <trkpt lat="40.691505" lon="-3.716485">
        <ele>964.290</ele>
        <time>2014-04-12T08:08:23Z</time>
      </trkpt>
      <trkpt lat="40.691614" lon="-3.716271">
        <ele>964.245</ele>
        <time>2014-04-12T08:08:26Z</time>
      </trkpt>
      <trkpt lat="40.691712" lon="-3.716029">
        <ele>964.284</ele>
        <time>2014-04-12T08:08:29Z</time>
      </trkpt>
      <trkpt lat="40.691800" lon="-3.715785">
        <ele>963.696</ele>
        <time>2014-04-12T08:08:32Z</time>
      </trkpt>
      <trkpt lat="40.691882" lon="-3.715558">
        <ele>962.233</ele>
        <time>2014-04-12T08:08:35Z</time>
      </trkpt>
      <trkpt lat="40.691981" lon="-3.715327">
        <ele>961.123</ele>
        <time>2014-04-12T08:08:38Z</time>
      </trkpt>
      <trkpt lat="40.692126" lon="-3.715057">
        <ele>959.715</ele>
        <time>2014-04-12T08:08:41Z</time>
      </trkpt>
      <trkpt lat="40.692266" lon="-3.714768">
        <ele>956.507</ele>
        <time>2014-04-12T08:08:44Z</time>
      </trkpt>
      <trkpt lat="40.692371" lon="-3.714466">
        <ele>952.989</ele>
        <time>2014-04-12T08:08:47Z</time>
      </trkpt>
      <trkpt lat="40.692498" lon="-3.714197">
        <ele>948.328</ele>
        <time>2014-04-12T08:08:50Z</time>
      </trkpt>
      <trkpt lat="40.692732" lon="-3.714091">
        <ele>943.299</ele>
        <time>2014-04-12T08:08:53Z</time>
      </trkpt>
      <trkpt lat="40.692929" lon="-3.714174">
        <ele>939.468</ele>
        <time>2014-04-12T08:08:56Z</time>
      </trkpt>
      <trkpt lat="40.693111" lon="-3.714319">
        <ele>938.293</ele>
        <time>2014-04-12T08:09:00Z</time>
      </trkpt>
      <trkpt lat="40.693294" lon="-3.714335">
        <ele>938.452</ele>
        <time>2014-04-12T08:09:05Z</time>
      </trkpt>
      <trkpt lat="40.693461" lon="-3.714228">
        <ele>939.074</ele>
        <time>2014-04-12T08:09:14Z</time>
      </trkpt>
      <trkpt lat="40.693611" lon="-3.714074">
        <ele>940.985</ele>
        <time>2014-04-12T08:09:23Z</time>
      </trkpt>
      <trkpt lat="40.693773" lon="-3.713954">
        <ele>943.089</ele>
        <time>2014-04-12T08:09:34Z</time>
      </trkpt>
      <trkpt lat="40.693955" lon="-3.713959">
        <ele>945.317</ele>
        <time>2014-04-12T08:09:44Z</time>
      </trkpt>
      <trkpt lat="40.694138" lon="-3.713985">
        <ele>947.407</ele>
        <time>2014-04-12T08:09:54Z</time>
      </trkpt>
      <trkpt lat="40.694312" lon="-3.714051">
        <ele>949.564</ele>
        <time>2014-04-12T08:10:05Z</time>
      </trkpt>
      <trkpt lat="40.694502" lon="-3.714005">
        <ele>951.983</ele>
        <time>2014-04-12T08:10:16Z</time>
      </trkpt>
      <trkpt lat="40.694677" lon="-3.713921">
        <ele>953.874</ele>
        <time>2014-04-12T08:10:26Z</time>
      </trkpt>
      <trkpt lat="40.694846" lon="-3.713826">
        <ele>955.273</ele>
        <time>2014-04-12T08:10:34Z</time>
      </trkpt>
      <trkpt lat="40.695033" lon="-3.713740">
        <ele>956.528</ele>
        <time>2014-04-12T08:10:42Z</time>
      </trkpt>
      <trkpt lat="40.695212" lon="-3.713647">
        <ele>958.217</ele>
        <time>2014-04-12T08:10:51Z</time>
      </trkpt>
      <trkpt lat="40.695395" lon="-3.713544">
        <ele>960.249</ele>
        <time>2014-04-12T08:11:01Z</time>
      </trkpt>
      <trkpt lat="40.695587" lon="-3.713467">
        <ele>961.863</ele>
        <time>2014-04-12T08:11:10Z</time>
      </trkpt>
      <trkpt lat="40.695762" lon="-3.713389">
        <ele>962.644</ele>
        <time>2014-04-12T08:11:19Z</time>
      </trkpt>
      <trkpt lat="40.695935" lon="-3.713315">
        <ele>963.518</ele>
        <time>2014-04-12T08:11:27Z</time>
      </trkpt>
      <trkpt lat="40.696127" lon="-3.713249">
        <ele>964.307</ele>
        <time>2014-04-12T08:11:35Z</time>
      </trkpt>
      <trkpt lat="40.696321" lon="-3.713201">
        <ele>965.392</ele>
        <time>2014-04-12T08:11:43Z</time>
      </trkpt>
      <trkpt lat="40.696519" lon="-3.713192">
        <ele>966.381</ele>
        <time>2014-04-12T08:11:51Z</time>
      </trkpt>
      <trkpt lat="40.696715" lon="-3.713218">
        <ele>967.322</ele>
        <time>2014-04-12T08:12:00Z</time>
      </trkpt>
      <trkpt lat="40.696907" lon="-3.713209">
        <ele>968.381</ele>
        <time>2014-04-12T08:12:09Z</time>
      </trkpt>
      <trkpt lat="40.697096" lon="-3.713244">
        <ele>969.846</ele>
        <time>2014-04-12T08:12:18Z</time>
      </trkpt>
      <trkpt lat="40.697299" lon="-3.713193">
        <ele>971.345</ele>
        <time>2014-04-12T08:12:26Z</time>
      </trkpt>
      <trkpt lat="40.697472" lon="-3.713066">
        <ele>973.057</ele>
        <time>2014-04-12T08:12:34Z</time>
      </trkpt>
      <trkpt lat="40.697659" lon="-3.713048">
        <ele>974.454</ele>
        <time>2014-04-12T08:12:42Z</time>
      </trkpt>
      <trkpt lat="40.697849" lon="-3.713072">
        <ele>976.356</ele>
        <time>2014-04-12T08:12:51Z</time>
      </trkpt>
      <trkpt lat="40.698044" lon="-3.713098">
        <ele>977.811</ele>
        <time>2014-04-12T08:12:59Z</time>
      </trkpt>
      <trkpt lat="40.698224" lon="-3.713113">
        <ele>979.007</ele>
        <time>2014-04-12T08:13:05Z</time>
      </trkpt>
      <trkpt lat="40.698420" lon="-3.713133">
        <ele>980.491</ele>
        <time>2014-04-12T08:13:13Z</time>
      </trkpt>
      <trkpt lat="40.698618" lon="-3.713112">
        <ele>981.430</ele>
        <time>2014-04-12T08:13:20Z</time>
      </trkpt>
      <trkpt lat="40.698803" lon="-3.713042">
        <ele>982.391</ele>
        <time>2014-04-12T08:13:27Z</time>
      </trkpt>
      <trkpt lat="40.699002" lon="-3.712941">
        <ele>982.940</ele>
        <time>2014-04-12T08:13:35Z</time>
      </trkpt>
      <trkpt lat="40.699192" lon="-3.712848">
        <ele>983.555</ele>
        <time>2014-04-12T08:13:42Z</time>
      </trkpt>
      <trkpt lat="40.699373" lon="-3.712773">
        <ele>984.034</ele>
        <time>2014-04-12T08:13:48Z</time>
      </trkpt>
      <trkpt lat="40.699569" lon="-3.712711">
        <ele>984.696</ele>
        <time>2014-04-12T08:13:55Z</time>
      </trkpt>
      <trkpt lat="40.699749" lon="-3.712662">
        <ele>985.386</ele>
        <time>2014-04-12T08:14:01Z</time>
      </trkpt>
      <trkpt lat="40.699934" lon="-3.712624">
        <ele>986.060</ele>
        <time>2014-04-12T08:14:07Z</time>
      </trkpt>
      <trkpt lat="40.700118" lon="-3.712571">
        <ele>986.426</ele>
        <time>2014-04-12T08:14:14Z</time>
      </trkpt>
      <trkpt lat="40.700313" lon="-3.712487">
        <ele>987.107</ele>
        <time>2014-04-12T08:14:22Z</time>
      </trkpt>
      <trkpt lat="40.700487" lon="-3.712386">
        <ele>987.634</ele>
        <time>2014-04-12T08:14:28Z</time>
      </trkpt>
      <trkpt lat="40.700669" lon="-3.712232">
        <ele>988.263</ele>
        <time>2014-04-12T08:14:35Z</time>
      </trkpt>
      <trkpt lat="40.700820" lon="-3.712097">
        <ele>989.824</ele>
        <time>2014-04-12T08:14:40Z</time>
      </trkpt>
      <trkpt lat="40.700956" lon="-3.711885">
        <ele>990.293</ele>
        <time>2014-04-12T08:17:23Z</time>
      </trkpt>
      <trkpt lat="40.701091" lon="-3.711710">
        <ele>990.378</ele>
        <time>2014-04-12T08:17:27Z</time>
      </trkpt>
      <trkpt lat="40.701249" lon="-3.711489">
        <ele>989.697</ele>
        <time>2014-04-12T08:17:32Z</time>
      </trkpt>
      <trkpt lat="40.701410" lon="-3.711285">
        <ele>989.689</ele>
        <time>2014-04-12T08:17:36Z</time>
      </trkpt>
      <trkpt lat="40.701527" lon="-3.711100">
        <ele>988.134</ele>
        <time>2014-04-12T08:17:39Z</time>
      </trkpt>
      <trkpt lat="40.701661" lon="-3.710884">
        <ele>985.755</ele>
        <time>2014-04-12T08:17:42Z</time>
      </trkpt>
      <trkpt lat="40.701845" lon="-3.710646">
        <ele>984.010</ele>
        <time>2014-04-12T08:17:45Z</time>
      </trkpt>
      <trkpt lat="40.702008" lon="-3.710473">
        <ele>982.907</ele>
        <time>2014-04-12T08:17:47Z</time>
      </trkpt>
      <trkpt lat="40.702185" lon="-3.710300">
        <ele>982.259</ele>
        <time>2014-04-12T08:17:49Z</time>
      </trkpt>
      <trkpt lat="40.702339" lon="-3.710151">
        <ele>981.598</ele>
        <time>2014-04-12T08:17:51Z</time>
      </trkpt>
      <trkpt lat="40.702512" lon="-3.709981">
        <ele>980.489</ele>
        <time>2014-04-12T08:17:54Z</time>
      </trkpt>
      <trkpt lat="40.702689" lon="-3.709852">
        <ele>979.098</ele>
        <time>2014-04-12T08:17:58Z</time>
      </trkpt>
      <trkpt lat="40.702884" lon="-3.709766">
        <ele>978.093</ele>
        <time>2014-04-12T08:18:02Z</time>
      </trkpt>
      <trkpt lat="40.703058" lon="-3.709690">
        <ele>976.412</ele>
        <time>2014-04-12T08:18:06Z</time>
      </trkpt>
      <trkpt lat="40.703225" lon="-3.709591">
        <ele>976.074</ele>
        <time>2014-04-12T08:18:12Z</time>
      </trkpt>
      <trkpt lat="40.703389" lon="-3.709479">
        <ele>975.958</ele>
        <time>2014-04-12T08:18:18Z</time>
      </trkpt>
      <trkpt lat="40.703568" lon="-3.709340">
        <ele>975.752</ele>
        <time>2014-04-12T08:18:24Z</time>
      </trkpt>
      <trkpt lat="40.703760" lon="-3.709227">
        <ele>975.517</ele>
        <time>2014-04-12T08:18:30Z</time>
      </trkpt>
      <trkpt lat="40.703946" lon="-3.709146">
        <ele>974.807</ele>
        <time>2014-04-12T08:18:36Z</time>
      </trkpt>
      <trkpt lat="40.704112" lon="-3.709047">
        <ele>974.671</ele>
        <time>2014-04-12T08:18:42Z</time>
      </trkpt>
      <trkpt lat="40.704284" lon="-3.708906">
        <ele>975.010</ele>
        <time>2014-04-12T08:18:50Z</time>
      </trkpt>
      <trkpt lat="40.704468" lon="-3.708774">
        <ele>975.291</ele>
        <time>2014-04-12T08:18:57Z</time>
      </trkpt>
      <trkpt lat="40.704651" lon="-3.708641">
        <ele>975.610</ele>
        <time>2014-04-12T08:19:03Z</time>
      </trkpt>
      <trkpt lat="40.704820" lon="-3.708484">
        <ele>975.855</ele>
        <time>2014-04-12T08:19:07Z</time>
      </trkpt>
      <trkpt lat="40.704977" lon="-3.708328">
        <ele>975.654</ele>
        <time>2014-04-12T08:19:11Z</time>
      </trkpt>
      <trkpt lat="40.705168" lon="-3.708149">
        <ele>975.896</ele>
        <time>2014-04-12T08:19:15Z</time>
      </trkpt>
      <trkpt lat="40.705322" lon="-3.707998">
        <ele>974.757</ele>
        <time>2014-04-12T08:19:18Z</time>
      </trkpt>
      <trkpt lat="40.705479" lon="-3.707855">
        <ele>973.100</ele>
        <time>2014-04-12T08:19:21Z</time>
      </trkpt>
      <trkpt lat="40.705654" lon="-3.707746">
        <ele>971.720</ele>
        <time>2014-04-12T08:19:24Z</time>
      </trkpt>
      <trkpt lat="40.705879" lon="-3.707746">
        <ele>970.807</ele>
        <time>2014-04-12T08:19:27Z</time>
      </trkpt>
      <trkpt lat="40.706072" lon="-3.707692">
        <ele>970.541</ele>
        <time>2014-04-12T08:19:30Z</time>
      </trkpt>
      <trkpt lat="40.706238" lon="-3.707531">
        <ele>969.350</ele>
        <time>2014-04-12T08:19:34Z</time>
      </trkpt>
      <trkpt lat="40.706378" lon="-3.707379">
        <ele>968.731</ele>
        <time>2014-04-12T08:19:40Z</time>
      </trkpt>
      <trkpt lat="40.706553" lon="-3.707293">
        <ele>969.310</ele>
        <time>2014-04-12T08:19:47Z</time>
      </trkpt>
      <trkpt lat="40.706747" lon="-3.707243">
        <ele>970.945</ele>
        <time>2014-04-12T08:19:56Z</time>
      </trkpt>
      <trkpt lat="40.706940" lon="-3.707199">
        <ele>972.434</ele>
        <time>2014-04-12T08:20:05Z</time>
      </trkpt>
      <trkpt lat="40.707121" lon="-3.707142">
        <ele>973.816</ele>
        <time>2014-04-12T08:20:13Z</time>
      </trkpt>
      <trkpt lat="40.707301" lon="-3.707074">
        <ele>975.776</ele>
        <time>2014-04-12T08:20:23Z</time>
      </trkpt>
      <trkpt lat="40.707496" lon="-3.707045">
        <ele>977.390</ele>
        <time>2014-04-12T08:20:33Z</time>
      </trkpt>
      <trkpt lat="40.707677" lon="-3.707031">
        <ele>978.919</ele>
        <time>2014-04-12T08:20:43Z</time>
      </trkpt>
      <trkpt lat="40.707858" lon="-3.707041">
        <ele>980.307</ele>
        <time>2014-04-12T08:20:52Z</time>
      </trkpt>
      <trkpt lat="40.708043" lon="-3.707037">
        <ele>981.973</ele>
        <time>2014-04-12T08:21:01Z</time>
      </trkpt>
      <trkpt lat="40.708231" lon="-3.707052">
        <ele>984.452</ele>
        <time>2014-04-12T08:21:12Z</time>
      </trkpt>
      <trkpt lat="40.708425" lon="-3.707014">
        <ele>987.063</ele>
        <time>2014-04-12T08:21:21Z</time>
      </trkpt>
      <trkpt lat="40.708610" lon="-3.706977">
        <ele>988.832</ele>
        <time>2014-04-12T08:21:30Z</time>
      </trkpt>
      <trkpt lat="40.708796" lon="-3.706926">
        <ele>990.927</ele>
        <time>2014-04-12T08:21:39Z</time>
      </trkpt>
      <trkpt lat="40.708993" lon="-3.706883">
        <ele>993.496</ele>
        <time>2014-04-12T08:21:49Z</time>
      </trkpt>
      <trkpt lat="40.709178" lon="-3.706845">
        <ele>994.498</ele>
        <time>2014-04-12T08:21:57Z</time>
      </trkpt>
      <trkpt lat="40.709375" lon="-3.706761">
        <ele>995.752</ele>
        <time>2014-04-12T08:22:05Z</time>
      </trkpt>
      <trkpt lat="40.709555" lon="-3.706668">
        <ele>996.553</ele>
        <time>2014-04-12T08:22:14Z</time>
      </trkpt>
      <trkpt lat="40.709725" lon="-3.706569">
        <ele>997.308</ele>
        <time>2014-04-12T08:22:22Z</time>
      </trkpt>
      <trkpt lat="40.709883" lon="-3.706430">
        <ele>998.607</ele>
        <time>2014-04-12T08:22:30Z</time>
      </trkpt>
      <trkpt lat="40.710059" lon="-3.706316">
        <ele>1000.061</ele>
        <time>2014-04-12T08:22:39Z</time>
      </trkpt>
      <trkpt lat="40.710256" lon="-3.706240">
        <ele>1000.230</ele>
        <time>2014-04-12T08:22:47Z</time>
      </trkpt>
      <trkpt lat="40.710438" lon="-3.706170">
        <ele>1001.371</ele>
        <time>2014-04-12T08:22:55Z</time>
      </trkpt>
      <trkpt lat="40.710635" lon="-3.706091">
        <ele>1002.970</ele>
        <time>2014-04-12T08:23:03Z</time>
      </trkpt>
      <trkpt lat="40.710823" lon="-3.706068">
        <ele>1004.065</ele>
        <time>2014-04-12T08:23:10Z</time>
      </trkpt>
      <trkpt lat="40.711021" lon="-3.706081">
        <ele>1005.774</ele>
        <time>2014-04-12T08:23:18Z</time>
      </trkpt>
      <trkpt lat="40.711215" lon="-3.706105">
        <ele>1007.376</ele>
        <time>2014-04-12T08:23:26Z</time>
      </trkpt>
      <trkpt lat="40.711416" lon="-3.706083">
        <ele>1008.667</ele>
        <time>2014-04-12T08:23:34Z</time>
      </trkpt>
      <trkpt lat="40.711600" lon="-3.706006">
        <ele>1010.081</ele>
        <time>2014-04-12T08:23:41Z</time>
      </trkpt>
      <trkpt lat="40.711790" lon="-3.705954">
        <ele>1011.219</ele>
        <time>2014-04-12T08:23:48Z</time>
      </trkpt>
      <trkpt lat="40.711971" lon="-3.705870">
        <ele>1012.007</ele>
        <time>2014-04-12T08:23:55Z</time>
      </trkpt>
      <trkpt lat="40.712156" lon="-3.705813">
        <ele>1012.562</ele>
        <time>2014-04-12T08:24:02Z</time>
      </trkpt>
      <trkpt lat="40.712345" lon="-3.705684">
        <ele>1014.271</ele>
        <time>2014-04-12T08:24:11Z</time>
      </trkpt>
      <trkpt lat="40.712516" lon="-3.705553">
        <ele>1014.962</ele>
        <time>2014-04-12T08:24:19Z</time>
      </trkpt>
      <trkpt lat="40.712683" lon="-3.705405">
        <ele>1015.811</ele>
        <time>2014-04-12T08:24:26Z</time>
      </trkpt>
      <trkpt lat="40.712839" lon="-3.705259">
        <ele>1016.736</ele>
        <time>2014-04-12T08:24:34Z</time>
      </trkpt>
      <trkpt lat="40.712993" lon="-3.705130">
        <ele>1017.395</ele>
        <time>2014-04-12T08:24:41Z</time>
      </trkpt>
      <trkpt lat="40.713139" lon="-3.704970">
        <ele>1018.567</ele>
        <time>2014-04-12T08:24:48Z</time>
      </trkpt>
      <trkpt lat="40.713286" lon="-3.704792">
        <ele>1019.879</ele>
        <time>2014-04-12T08:24:55Z</time>
      </trkpt>
      <trkpt lat="40.713415" lon="-3.704604">
        <ele>1020.805</ele>
        <time>2014-04-12T08:25:03Z</time>
      </trkpt>
      <trkpt lat="40.713552" lon="-3.704386">
        <ele>1021.525</ele>
        <time>2014-04-12T08:25:10Z</time>
      </trkpt>
      <trkpt lat="40.713708" lon="-3.704223">
        <ele>1021.707</ele>
        <time>2014-04-12T08:25:17Z</time>
      </trkpt>
      <trkpt lat="40.713883" lon="-3.704092">
        <ele>1022.333</ele>
        <time>2014-04-12T08:25:25Z</time>
      </trkpt>
      <trkpt lat="40.714054" lon="-3.703933">
        <ele>1022.872</ele>
        <time>2014-04-12T08:25:31Z</time>
      </trkpt>
      <trkpt lat="40.714192" lon="-3.703751">
        <ele>1023.673</ele>
        <time>2014-04-12T08:25:38Z</time>
      </trkpt>
      <trkpt lat="40.714361" lon="-3.703613">
        <ele>1024.652</ele>
        <time>2014-04-12T08:25:46Z</time>
      </trkpt>
      <trkpt lat="40.714523" lon="-3.703450">
        <ele>1026.197</ele>
        <time>2014-04-12T08:25:54Z</time>
      </trkpt>
      <trkpt lat="40.714717" lon="-3.703445">
        <ele>1027.416</ele>
        <time>2014-04-12T08:26:00Z</time>
      </trkpt>
      <trkpt lat="40.714900" lon="-3.703497">
        <ele>1028.038</ele>
        <time>2014-04-12T08:26:05Z</time>
      </trkpt>
      <trkpt lat="40.715093" lon="-3.703610">
        <ele>1028.971</ele>
        <time>2014-04-12T08:26:12Z</time>
      </trkpt>
      <trkpt lat="40.715271" lon="-3.703735">
        <ele>1029.641</ele>
        <time>2014-04-12T08:26:19Z</time>
      </trkpt>
      <trkpt lat="40.715440" lon="-3.703823">
        <ele>1030.415</ele>
        <time>2014-04-12T08:26:26Z</time>
      </trkpt>
      <trkpt lat="40.715616" lon="-3.703873">
        <ele>1031.307</ele>
        <time>2014-04-12T08:26:31Z</time>
      </trkpt>
      <trkpt lat="40.715840" lon="-3.703848">
        <ele>1034.553</ele>
        <time>2014-04-12T08:26:36Z</time>
      </trkpt>
      <trkpt lat="40.716056" lon="-3.703802">
        <ele>1034.272</ele>
        <time>2014-04-12T08:26:41Z</time>
      </trkpt>
      <trkpt lat="40.716254" lon="-3.703864">
        <ele>1033.643</ele>
        <time>2014-04-12T08:26:47Z</time>
      </trkpt>
      <trkpt lat="40.716424" lon="-3.703955">
        <ele>1033.722</ele>
        <time>2014-04-12T08:26:54Z</time>
      </trkpt>
      <trkpt lat="40.716599" lon="-3.704074">
        <ele>1033.977</ele>
        <time>2014-04-12T08:27:02Z</time>
      </trkpt>
      <trkpt lat="40.716637" lon="-3.704322">
        <ele>1034.876</ele>
        <time>2014-04-12T08:27:13Z</time>
      </trkpt>
      <trkpt lat="40.716524" lon="-3.704524">
        <ele>1035.398</ele>
        <time>2014-04-12T08:27:18Z</time>
      </trkpt>
      <trkpt lat="40.716415" lon="-3.704756">
        <ele>1035.917</ele>
        <time>2014-04-12T08:27:24Z</time>
      </trkpt>
      <trkpt lat="40.716296" lon="-3.704951">
        <ele>1037.487</ele>
        <time>2014-04-12T08:27:29Z</time>
      </trkpt>
      <trkpt lat="40.716095" lon="-3.705103">
        <ele>1040.015</ele>
        <time>2014-04-12T08:27:35Z</time>
      </trkpt>
      <trkpt lat="40.715952" lon="-3.705263">
        <ele>1040.107</ele>
        <time>2014-04-12T08:27:38Z</time>
      </trkpt>
      <trkpt lat="40.715865" lon="-3.705483">
        <ele>1039.597</ele>
        <time>2014-04-12T08:27:41Z</time>
      </trkpt>
      <trkpt lat="40.715810" lon="-3.705780">
        <ele>1038.256</ele>
        <time>2014-04-12T08:27:45Z</time>
      </trkpt>
      <trkpt lat="40.715659" lon="-3.705967">
        <ele>1036.557</ele>
        <time>2014-04-12T08:27:49Z</time>
      </trkpt>
      <trkpt lat="40.715523" lon="-3.706172">
        <ele>1034.266</ele>
        <time>2014-04-12T08:27:53Z</time>
      </trkpt>
      <trkpt lat="40.715329" lon="-3.706347">
        <ele>1033.231</ele>
        <time>2014-04-12T08:27:57Z</time>
      </trkpt>
      <trkpt lat="40.715143" lon="-3.706429">
        <ele>1032.950</ele>
        <time>2014-04-12T08:28:01Z</time>
      </trkpt>
      <trkpt lat="40.714996" lon="-3.706589">
        <ele>1032.852</ele>
        <time>2014-04-12T08:28:06Z</time>
      </trkpt>
      <trkpt lat="40.714878" lon="-3.706783">
        <ele>1032.172</ele>
        <time>2014-04-12T08:28:10Z</time>
      </trkpt>
      <trkpt lat="40.714796" lon="-3.706994">
        <ele>1028.413</ele>
        <time>2014-04-12T08:28:14Z</time>
      </trkpt>
      <trkpt lat="40.714701" lon="-3.707236">
        <ele>1024.914</ele>
        <time>2014-04-12T08:28:19Z</time>
      </trkpt>
      <trkpt lat="40.714598" lon="-3.707440">
        <ele>1024.607</ele>
        <time>2014-04-12T08:28:23Z</time>
      </trkpt>
      <trkpt lat="40.714452" lon="-3.707602">
        <ele>1023.863</ele>
        <time>2014-04-12T08:28:27Z</time>
      </trkpt>
      <trkpt lat="40.714283" lon="-3.707794">
        <ele>1024.792</ele>
        <time>2014-04-12T08:28:31Z</time>
      </trkpt>
      <trkpt lat="40.714148" lon="-3.707985">
        <ele>1025.083</ele>
        <time>2014-04-12T08:28:34Z</time>
      </trkpt>
      <trkpt lat="40.714008" lon="-3.708192">
        <ele>1024.092</ele>
        <time>2014-04-12T08:28:37Z</time>
      </trkpt>
      <trkpt lat="40.713865" lon="-3.708399">
        <ele>1022.237</ele>
        <time>2014-04-12T08:28:40Z</time>
      </trkpt>
      <trkpt lat="40.713732" lon="-3.708617">
        <ele>1021.316</ele>
        <time>2014-04-12T08:28:43Z</time>
      </trkpt>
      <trkpt lat="40.713590" lon="-3.708842">
        <ele>1020.398</ele>
        <time>2014-04-12T08:28:46Z</time>
      </trkpt>
      <trkpt lat="40.713458" lon="-3.709060">
        <ele>1019.163</ele>
        <time>2014-04-12T08:28:49Z</time>
      </trkpt>
      <trkpt lat="40.713323" lon="-3.709273">
        <ele>1017.844</ele>
        <time>2014-04-12T08:28:52Z</time>
      </trkpt>
      <trkpt lat="40.713214" lon="-3.709501">
        <ele>1016.018</ele>
        <time>2014-04-12T08:28:55Z</time>
      </trkpt>
      <trkpt lat="40.713138" lon="-3.709734">
        <ele>1015.007</ele>
        <time>2014-04-12T08:28:58Z</time>
      </trkpt>
      <trkpt lat="40.713067" lon="-3.709972">
        <ele>1016.592</ele>
        <time>2014-04-12T08:29:02Z</time>
      </trkpt>
      <trkpt lat="40.712991" lon="-3.710201">
        <ele>1017.661</ele>
        <time>2014-04-12T08:29:06Z</time>
      </trkpt>
      <trkpt lat="40.712904" lon="-3.710470">
        <ele>1015.742</ele>
        <time>2014-04-12T08:29:10Z</time>
      </trkpt>
      <trkpt lat="40.712832" lon="-3.710691">
        <ele>1015.221</ele>
        <time>2014-04-12T08:29:14Z</time>
      </trkpt>
      <trkpt lat="40.712768" lon="-3.710958">
        <ele>1016.186</ele>
        <time>2014-04-12T08:29:18Z</time>
      </trkpt>
      <trkpt lat="40.712740" lon="-3.711208">
        <ele>1016.165</ele>
        <time>2014-04-12T08:29:22Z</time>
      </trkpt>
      <trkpt lat="40.712743" lon="-3.711452">
        <ele>1017.597</ele>
        <time>2014-04-12T08:29:26Z</time>
      </trkpt>
      <trkpt lat="40.712702" lon="-3.711716">
        <ele>1019.818</ele>
        <time>2014-04-12T08:29:31Z</time>
      </trkpt>
      <trkpt lat="40.712589" lon="-3.711959">
        <ele>1019.298</ele>
        <time>2014-04-12T08:29:36Z</time>
      </trkpt>
      <trkpt lat="40.712509" lon="-3.712211">
        <ele>1018.217</ele>
        <time>2014-04-12T08:29:41Z</time>
      </trkpt>
      <trkpt lat="40.712410" lon="-3.712472">
        <ele>1016.907</ele>
        <time>2014-04-12T08:29:46Z</time>
      </trkpt>
      <trkpt lat="40.712301" lon="-3.712711">
        <ele>1016.147</ele>
        <time>2014-04-12T08:29:50Z</time>
      </trkpt>
      <trkpt lat="40.712176" lon="-3.712907">
        <ele>1017.076</ele>
        <time>2014-04-12T08:29:54Z</time>
      </trkpt>
      <trkpt lat="40.712073" lon="-3.713111">
        <ele>1016.687</ele>
        <time>2014-04-12T08:29:58Z</time>
      </trkpt>
      <trkpt lat="40.711948" lon="-3.713290">
        <ele>1017.596</ele>
        <time>2014-04-12T08:30:03Z</time>
      </trkpt>
      <trkpt lat="40.711811" lon="-3.713493">
        <ele>1018.481</ele>
        <time>2014-04-12T08:30:08Z</time>
      </trkpt>
      <trkpt lat="40.711634" lon="-3.713578">
        <ele>1017.850</ele>
        <time>2014-04-12T08:30:12Z</time>
      </trkpt>
      <trkpt lat="40.711454" lon="-3.713597">
        <ele>1017.772</ele>
        <time>2014-04-12T08:30:16Z</time>
      </trkpt>
      <trkpt lat="40.711274" lon="-3.713778">
        <ele>1017.959</ele>
        <time>2014-04-12T08:30:21Z</time>
      </trkpt>
      <trkpt lat="40.711090" lon="-3.713938">
        <ele>1017.903</ele>
        <time>2014-04-12T08:30:26Z</time>
      </trkpt>
      <trkpt lat="40.710930" lon="-3.714126">
        <ele>1018.323</ele>
        <time>2014-04-12T08:30:31Z</time>
      </trkpt>
      <trkpt lat="40.710849" lon="-3.714350">
        <ele>1017.507</ele>
        <time>2014-04-12T08:30:36Z</time>
      </trkpt>
      <trkpt lat="40.710733" lon="-3.714546">
        <ele>1015.441</ele>
        <time>2014-04-12T08:30:42Z</time>
      </trkpt>
      <trkpt lat="40.710668" lon="-3.714794">
        <ele>1016.880</ele>
        <time>2014-04-12T08:30:47Z</time>
      </trkpt>
      <trkpt lat="40.710597" lon="-3.715015">
        <ele>1016.811</ele>
        <time>2014-04-12T08:30:52Z</time>
      </trkpt>
      <trkpt lat="40.710463" lon="-3.715226">
        <ele>1017.470</ele>
        <time>2014-04-12T08:30:58Z</time>
      </trkpt>
      <trkpt lat="40.710302" lon="-3.715396">
        <ele>1019.295</ele>
        <time>2014-04-12T08:31:03Z</time>
      </trkpt>
      <trkpt lat="40.710104" lon="-3.715510">
        <ele>1018.154</ele>
        <time>2014-04-12T08:31:08Z</time>
      </trkpt>
      <trkpt lat="40.709984" lon="-3.715704">
        <ele>1018.126</ele>
        <time>2014-04-12T08:31:14Z</time>
      </trkpt>
      <trkpt lat="40.709923" lon="-3.715934">
        <ele>1018.547</ele>
        <time>2014-04-12T08:31:21Z</time>
      </trkpt>
      <trkpt lat="40.709875" lon="-3.716194">
        <ele>1018.929</ele>
        <time>2014-04-12T08:31:29Z</time>
      </trkpt>
      <trkpt lat="40.709848" lon="-3.716457">
        <ele>1019.821</ele>
        <time>2014-04-12T08:31:39Z</time>
      </trkpt>
      <trkpt lat="40.709808" lon="-3.716706">
        <ele>1020.707</ele>
        <time>2014-04-12T08:31:49Z</time>
      </trkpt>
      <trkpt lat="40.709846" lon="-3.716941">
        <ele>1021.960</ele>
        <time>2014-04-12T08:31:59Z</time>
      </trkpt>
      <trkpt lat="40.709871" lon="-3.717188">
        <ele>1022.849</ele>
        <time>2014-04-12T08:32:09Z</time>
      </trkpt>
      <trkpt lat="40.709875" lon="-3.717429">
        <ele>1024.220</ele>
        <time>2014-04-12T08:32:17Z</time>
      </trkpt>
      <trkpt lat="40.709850" lon="-3.717664">
        <ele>1026.199</ele>
        <time>2014-04-12T08:32:26Z</time>
      </trkpt>
      <trkpt lat="40.709788" lon="-3.717908">
        <ele>1027.244</ele>
        <time>2014-04-12T08:32:34Z</time>
      </trkpt>
      <trkpt lat="40.709711" lon="-3.718153">
        <ele>1028.523</ele>
        <time>2014-04-12T08:32:44Z</time>
      </trkpt>
      <trkpt lat="40.709614" lon="-3.718388">
        <ele>1030.335</ele>
        <time>2014-04-12T08:32:53Z</time>
      </trkpt>
      <trkpt lat="40.709463" lon="-3.718549">
        <ele>1031.671</ele>
        <time>2014-04-12T08:33:00Z</time>
      </trkpt>
      <trkpt lat="40.709294" lon="-3.718649">
        <ele>1037.641</ele>
        <time>2014-04-12T08:35:55Z</time>
      </trkpt>
      <trkpt lat="40.709122" lon="-3.718805">
        <ele>1037.715</ele>
        <time>2014-04-12T08:36:01Z</time>
      </trkpt>
      <trkpt lat="40.708959" lon="-3.718946">
        <ele>1037.907</ele>
        <time>2014-04-12T08:36:07Z</time>
      </trkpt>
      <trkpt lat="40.708790" lon="-3.719112">
        <ele>1040.753</ele>
        <time>2014-04-12T08:36:13Z</time>
      </trkpt>
      <trkpt lat="40.708657" lon="-3.719304">
        <ele>1041.342</ele>
        <time>2014-04-12T08:36:18Z</time>
      </trkpt>
      <trkpt lat="40.708549" lon="-3.719527">
        <ele>1039.773</ele>
        <time>2014-04-12T08:36:23Z</time>
      </trkpt>
      <trkpt lat="40.708504" lon="-3.719763">
        <ele>1039.812</ele>
        <time>2014-04-12T08:36:28Z</time>
      </trkpt>
      <trkpt lat="40.708529" lon="-3.720000">
        <ele>1039.547</ele>
        <time>2014-04-12T08:36:40Z</time>
      </trkpt>
      <trkpt lat="40.708469" lon="-3.720225">
        <ele>1037.616</ele>
        <time>2014-04-12T08:38:40Z</time>
      </trkpt>
      <trkpt lat="40.708251" lon="-3.720222">
        <ele>1036.538</ele>
        <time>2014-04-12T08:38:46Z</time>
      </trkpt>
      <trkpt lat="40.708059" lon="-3.720238">
        <ele>1036.018</ele>
        <time>2014-04-12T08:38:51Z</time>
      </trkpt>
      <trkpt lat="40.707857" lon="-3.720307">
        <ele>1035.798</ele>
        <time>2014-04-12T08:38:58Z</time>
      </trkpt>
      <trkpt lat="40.707686" lon="-3.720435">
        <ele>1035.617</ele>
        <time>2014-04-12T08:39:05Z</time>
      </trkpt>
      <trkpt lat="40.707537" lon="-3.720635">
        <ele>1035.707</ele>
        <time>2014-04-12T08:39:11Z</time>
      </trkpt>
      <trkpt lat="40.707399" lon="-3.720798">
        <ele>1035.397</ele>
        <time>2014-04-12T08:39:15Z</time>
      </trkpt>
      <trkpt lat="40.707272" lon="-3.721004">
        <ele>1035.676</ele>
        <time>2014-04-12T08:39:20Z</time>
      </trkpt>
      <trkpt lat="40.707142" lon="-3.721252">
        <ele>1036.537</ele>
        <time>2014-04-12T08:39:25Z</time>
      </trkpt>
      <trkpt lat="40.706989" lon="-3.721430">
        <ele>1038.156</ele>
        <time>2014-04-12T08:39:29Z</time>
      </trkpt>
      <trkpt lat="40.706854" lon="-3.721630">
        <ele>1038.711</ele>
        <time>2014-04-12T08:39:34Z</time>
      </trkpt>
      <trkpt lat="40.706855" lon="-3.721890">
        <ele>1037.190</ele>
        <time>2014-04-12T08:39:39Z</time>
      </trkpt>
      <trkpt lat="40.706887" lon="-3.722145">
        <ele>1032.912</ele>
        <time>2014-04-12T08:39:43Z</time>
      </trkpt>
      <trkpt lat="40.706910" lon="-3.722420">
        <ele>1029.646</ele>
        <time>2014-04-12T08:39:48Z</time>
      </trkpt>
      <trkpt lat="40.706980" lon="-3.722669">
        <ele>1028.288</ele>
        <time>2014-04-12T08:39:53Z</time>
      </trkpt>
      <trkpt lat="40.707072" lon="-3.722901">
        <ele>1026.116</ele>
        <time>2014-04-12T08:39:57Z</time>
      </trkpt>
      <trkpt lat="40.707070" lon="-3.723154">
        <ele>1023.507</ele>
        <time>2014-04-12T08:40:01Z</time>
      </trkpt>
      <trkpt lat="40.707219" lon="-3.723344">
        <ele>1020.060</ele>
        <time>2014-04-12T08:40:07Z</time>
      </trkpt>
      <trkpt lat="40.707260" lon="-3.723619">
        <ele>1016.019</ele>
        <time>2014-04-12T08:40:11Z</time>
      </trkpt>
      <trkpt lat="40.707286" lon="-3.723891">
        <ele>1011.650</ele>
        <time>2014-04-12T08:40:15Z</time>
      </trkpt>
      <trkpt lat="40.707415" lon="-3.724077">
        <ele>1009.299</ele>
        <time>2014-04-12T08:40:19Z</time>
      </trkpt>
      <trkpt lat="40.707504" lon="-3.724296">
        <ele>1006.974</ele>
        <time>2014-04-12T08:40:23Z</time>
      </trkpt>
      <trkpt lat="40.707593" lon="-3.724554">
        <ele>1006.243</ele>
        <time>2014-04-12T08:40:29Z</time>
      </trkpt>
      <trkpt lat="40.707619" lon="-3.724805">
        <ele>1007.125</ele>
        <time>2014-04-12T08:40:34Z</time>
      </trkpt>
      <trkpt lat="40.707623" lon="-3.725079">
        <ele>1005.712</ele>
        <time>2014-04-12T08:40:39Z</time>
      </trkpt>
      <trkpt lat="40.707631" lon="-3.725355">
        <ele>1004.832</ele>
        <time>2014-04-12T08:40:43Z</time>
      </trkpt>
      <trkpt lat="40.707645" lon="-3.725633">
        <ele>1004.505</ele>
        <time>2014-04-12T08:40:47Z</time>
      </trkpt>
      <trkpt lat="40.707663" lon="-3.725907">
        <ele>1004.307</ele>
        <time>2014-04-12T08:40:52Z</time>
      </trkpt>
      <trkpt lat="40.707655" lon="-3.726183">
        <ele>1005.157</ele>
        <time>2014-04-12T08:40:57Z</time>
      </trkpt>
      <trkpt lat="40.707560" lon="-3.726409">
        <ele>1005.816</ele>
        <time>2014-04-12T08:41:01Z</time>
      </trkpt>
      <trkpt lat="40.707423" lon="-3.726604">
        <ele>1005.627</ele>
        <time>2014-04-12T08:41:05Z</time>
      </trkpt>
      <trkpt lat="40.707324" lon="-3.726828">
        <ele>1004.536</ele>
        <time>2014-04-12T08:41:09Z</time>
      </trkpt>
      <trkpt lat="40.707222" lon="-3.727102">
        <ele>1003.491</ele>
        <time>2014-04-12T08:41:13Z</time>
      </trkpt>
      <trkpt lat="40.707104" lon="-3.727351">
        <ele>1003.920</ele>
        <time>2014-04-12T08:41:16Z</time>
      </trkpt>
      <trkpt lat="40.706953" lon="-3.727584">
        <ele>1003.662</ele>
        <time>2014-04-12T08:41:19Z</time>
      </trkpt>
      <trkpt lat="40.706779" lon="-3.727809">
        <ele>1002.519</ele>
        <time>2014-04-12T08:41:22Z</time>
      </trkpt>
      <trkpt lat="40.706596" lon="-3.728016">
        <ele>1000.309</ele>
        <time>2014-04-12T08:41:25Z</time>
      </trkpt>
      <trkpt lat="40.706413" lon="-3.728199">
        <ele>998.619</ele>
        <time>2014-04-12T08:41:28Z</time>
      </trkpt>
      <trkpt lat="40.706240" lon="-3.728360">
        <ele>998.707</ele>
        <time>2014-04-12T08:41:31Z</time>
      </trkpt>
      <trkpt lat="40.706079" lon="-3.728532">
        <ele>998.987</ele>
        <time>2014-04-12T08:41:34Z</time>
      </trkpt>
      <trkpt lat="40.705931" lon="-3.728749">
        <ele>997.616</ele>
        <time>2014-04-12T08:41:37Z</time>
      </trkpt>
      <trkpt lat="40.705831" lon="-3.728967">
        <ele>994.527</ele>
        <time>2014-04-12T08:41:40Z</time>
      </trkpt>
      <trkpt lat="40.705687" lon="-3.729217">
        <ele>992.816</ele>
        <time>2014-04-12T08:41:44Z</time>
      </trkpt>
      <trkpt lat="40.705569" lon="-3.729398">
        <ele>993.991</ele>
        <time>2014-04-12T08:41:47Z</time>
      </trkpt>
      <trkpt lat="40.705460" lon="-3.729616">
        <ele>994.410</ele>
        <time>2014-04-12T08:41:50Z</time>
      </trkpt>
      <trkpt lat="40.705453" lon="-3.729945">
        <ele>993.932</ele>
        <time>2014-04-12T08:41:54Z</time>
      </trkpt>
      <trkpt lat="40.705443" lon="-3.730240">
        <ele>991.197</ele>
        <time>2014-04-12T08:41:57Z</time>
      </trkpt>
      <trkpt lat="40.705418" lon="-3.730553">
        <ele>988.223</ele>
        <time>2014-04-12T08:42:00Z</time>
      </trkpt>
      <trkpt lat="40.705407" lon="-3.730847">
        <ele>986.425</ele>
        <time>2014-04-12T08:42:03Z</time>
      </trkpt>
      <trkpt lat="40.705408" lon="-3.731123">
        <ele>985.007</ele>
        <time>2014-04-12T08:42:06Z</time>
      </trkpt>
      <trkpt lat="40.705412" lon="-3.731416">
        <ele>984.695</ele>
        <time>2014-04-12T08:42:09Z</time>
      </trkpt>
      <trkpt lat="40.705373" lon="-3.731700">
        <ele>985.194</ele>
        <time>2014-04-12T08:42:12Z</time>
      </trkpt>
      <trkpt lat="40.705268" lon="-3.731934">
        <ele>983.765</ele>
        <time>2014-04-12T08:42:15Z</time>
      </trkpt>
      <trkpt lat="40.705107" lon="-3.732178">
        <ele>979.794</ele>
        <time>2014-04-12T08:42:18Z</time>
      </trkpt>
      <trkpt lat="40.704958" lon="-3.732423">
        <ele>976.659</ele>
        <time>2014-04-12T08:42:21Z</time>
      </trkpt>
      <trkpt lat="40.704838" lon="-3.732656">
        <ele>975.578</ele>
        <time>2014-04-12T08:42:24Z</time>
      </trkpt>
      <trkpt lat="40.704726" lon="-3.732929">
        <ele>974.090</ele>
        <time>2014-04-12T08:42:27Z</time>
      </trkpt>
      <trkpt lat="40.704645" lon="-3.733186">
        <ele>971.857</ele>
        <time>2014-04-12T08:42:30Z</time>
      </trkpt>
      <trkpt lat="40.704553" lon="-3.733465">
        <ele>969.400</ele>
        <time>2014-04-12T08:42:33Z</time>
      </trkpt>
      <trkpt lat="40.704472" lon="-3.733768">
        <ele>966.620</ele>
        <time>2014-04-12T08:42:36Z</time>
      </trkpt>
      <trkpt lat="40.704428" lon="-3.733999">
        <ele>964.907</ele>
        <time>2014-04-12T08:42:38Z</time>
      </trkpt>
      <trkpt lat="40.704370" lon="-3.734293">
        <ele>963.791</ele>
        <time>2014-04-12T08:42:41Z</time>
      </trkpt>
      <trkpt lat="40.704297" lon="-3.734516">
        <ele>962.750</ele>
        <time>2014-04-12T08:42:43Z</time>
      </trkpt>
      <trkpt lat="40.704173" lon="-3.734814">
        <ele>959.211</ele>
        <time>2014-04-12T08:42:46Z</time>
      </trkpt>
      <trkpt lat="40.704108" lon="-3.735046">
        <ele>957.080</ele>
        <time>2014-04-12T08:42:48Z</time>
      </trkpt>
      <trkpt lat="40.704068" lon="-3.735284">
        <ele>955.255</ele>
        <time>2014-04-12T08:42:50Z</time>
      </trkpt>
      <trkpt lat="40.704034" lon="-3.735612">
        <ele>952.984</ele>
        <time>2014-04-12T08:42:53Z</time>
      </trkpt>
      <trkpt lat="40.703967" lon="-3.735878">
        <ele>952.076</ele>
        <time>2014-04-12T08:42:56Z</time>
      </trkpt>
      <trkpt lat="40.703849" lon="-3.736119">
        <ele>953.049</ele>
        <time>2014-04-12T08:42:59Z</time>
      </trkpt>
      <trkpt lat="40.703700" lon="-3.736312">
        <ele>954.202</ele>
        <time>2014-04-12T08:43:02Z</time>
      </trkpt>
      <trkpt lat="40.703593" lon="-3.736521">
        <ele>954.822</ele>
        <time>2014-04-12T08:43:32Z</time>
      </trkpt>
      <trkpt lat="40.703526" lon="-3.736755">
        <ele>952.707</ele>
        <time>2014-04-12T08:43:38Z</time>
      </trkpt>
      <trkpt lat="40.703419" lon="-3.736956">
        <ele>950.110</ele>
        <time>2014-04-12T08:43:43Z</time>
      </trkpt>
      <trkpt lat="40.703389" lon="-3.737247">
        <ele>948.539</ele>
        <time>2014-04-12T08:43:48Z</time>
      </trkpt>
      <trkpt lat="40.703459" lon="-3.737493">
        <ele>944.710</ele>
        <time>2014-04-12T08:43:52Z</time>
      </trkpt>
      <trkpt lat="40.703559" lon="-3.737773">
        <ele>942.469</ele>
        <time>2014-04-12T08:43:56Z</time>
      </trkpt>
      <trkpt lat="40.703641" lon="-3.737993">
        <ele>940.164</ele>
        <time>2014-04-12T08:43:59Z</time>
      </trkpt>
      <trkpt lat="40.703717" lon="-3.738263">
        <ele>936.883</ele>
        <time>2014-04-12T08:44:03Z</time>
      </trkpt>
      <trkpt lat="40.703784" lon="-3.738557">
        <ele>932.525</ele>
        <time>2014-04-12T08:44:07Z</time>
      </trkpt>
      <trkpt lat="40.703838" lon="-3.738795">
        <ele>928.723</ele>
        <time>2014-04-12T08:44:10Z</time>
      </trkpt>
      <trkpt lat="40.703890" lon="-3.739072">
        <ele>925.683</ele>
        <time>2014-04-12T08:44:13Z</time>
      </trkpt>
      <trkpt lat="40.703918" lon="-3.739340">
        <ele>922.611</ele>
        <time>2014-04-12T08:44:16Z</time>
      </trkpt>
      <trkpt lat="40.703917" lon="-3.739616">
        <ele>921.007</ele>
        <time>2014-04-12T08:44:22Z</time>
      </trkpt>
      <trkpt lat="40.703965" lon="-3.739871">
        <ele>921.238</ele>
        <time>2014-04-12T08:44:29Z</time>
      </trkpt>
      <trkpt lat="40.703984" lon="-3.740106">
        <ele>921.877</ele>
        <time>2014-04-12T08:44:39Z</time>
      </trkpt>
      <trkpt lat="40.704031" lon="-3.740354">
        <ele>922.818</ele>
        <time>2014-04-12T08:44:48Z</time>
      </trkpt>
      <trkpt lat="40.704062" lon="-3.740609">
        <ele>923.757</ele>
        <time>2014-04-12T08:44:56Z</time>
      </trkpt>
      <trkpt lat="40.704073" lon="-3.740862">
        <ele>925.072</ele>
        <time>2014-04-12T08:45:06Z</time>
      </trkpt>
      <trkpt lat="40.704044" lon="-3.741120">
        <ele>926.531</ele>
        <time>2014-04-12T08:45:15Z</time>
      </trkpt>
      <trkpt lat="40.703975" lon="-3.741364">
        <ele>928.483</ele>
        <time>2014-04-12T08:45:26Z</time>
      </trkpt>
      <trkpt lat="40.703892" lon="-3.741596">
        <ele>930.045</ele>
        <time>2014-04-12T08:45:36Z</time>
      </trkpt>
      <trkpt lat="40.703848" lon="-3.741835">
        <ele>932.047</ele>
        <time>2014-04-12T08:45:46Z</time>
      </trkpt>
      <trkpt lat="40.703857" lon="-3.742079">
        <ele>933.611</ele>
        <time>2014-04-12T08:45:54Z</time>
      </trkpt>
      <trkpt lat="40.703935" lon="-3.742315">
        <ele>937.807</ele>
        <time>2014-04-12T08:46:05Z</time>
      </trkpt>
      <trkpt lat="40.704020" lon="-3.742525">
        <ele>940.880</ele>
        <time>2014-04-12T08:46:17Z</time>
      </trkpt>
      <trkpt lat="40.704154" lon="-3.742689">
        <ele>943.239</ele>
        <time>2014-04-12T08:46:28Z</time>
      </trkpt>
      <trkpt lat="40.704224" lon="-3.742923">
        <ele>945.220</ele>
        <time>2014-04-12T08:46:38Z</time>
      </trkpt>
      <trkpt lat="40.704197" lon="-3.743164">
        <ele>946.539</ele>
        <time>2014-04-12T08:46:48Z</time>
      </trkpt>
      <trkpt lat="40.704114" lon="-3.743387">
        <ele>946.834</ele>
        <time>2014-04-12T08:46:57Z</time>
      </trkpt>
      <trkpt lat="40.703969" lon="-3.743552">
        <ele>947.753</ele>
        <time>2014-04-12T08:47:05Z</time>
      </trkpt>
      <trkpt lat="40.703774" lon="-3.743635">
        <ele>950.625</ele>
        <time>2014-04-12T08:47:10Z</time>
      </trkpt>
      <trkpt lat="40.703591" lon="-3.743618">
        <ele>952.789</ele>
        <time>2014-04-12T08:47:15Z</time>
      </trkpt>
      <trkpt lat="40.703412" lon="-3.743580">
        <ele>953.906</ele>
        <time>2014-04-12T08:47:23Z</time>
      </trkpt>
      <trkpt lat="40.703222" lon="-3.743555">
        <ele>955.326</ele>
        <time>2014-04-12T08:47:31Z</time>
      </trkpt>
      <trkpt lat="40.703052" lon="-3.743676">
        <ele>956.107</ele>
        <time>2014-04-12T08:47:39Z</time>
      </trkpt>
      <trkpt lat="40.702909" lon="-3.743829">
        <ele>956.784</ele>
        <time>2014-04-12T08:47:46Z</time>
      </trkpt>
      <trkpt lat="40.702751" lon="-3.743985">
        <ele>958.033</ele>
        <time>2014-04-12T08:47:54Z</time>
      </trkpt>
      <trkpt lat="40.702595" lon="-3.744144">
        <ele>959.344</ele>
        <time>2014-04-12T08:48:03Z</time>
      </trkpt>
      <trkpt lat="40.702448" lon="-3.744300">
        <ele>960.643</ele>
        <time>2014-04-12T08:48:10Z</time>
      </trkpt>
      <trkpt lat="40.702302" lon="-3.744439">
        <ele>961.688</ele>
        <time>2014-04-12T08:48:17Z</time>
      </trkpt>
      <trkpt lat="40.702124" lon="-3.744575">
        <ele>962.327</ele>
        <time>2014-04-12T08:48:23Z</time>
      </trkpt>
      <trkpt lat="40.701945" lon="-3.744701">
        <ele>962.739</ele>
        <time>2014-04-12T08:48:28Z</time>
      </trkpt>
      <trkpt lat="40.701791" lon="-3.744842">
        <ele>962.978</ele>
        <time>2014-04-12T08:48:32Z</time>
      </trkpt>
      <trkpt lat="40.701633" lon="-3.745017">
        <ele>963.133</ele>
        <time>2014-04-12T08:48:38Z</time>
      </trkpt>
      <trkpt lat="40.701498" lon="-3.745200">
        <ele>963.226</ele>
        <time>2014-04-12T08:48:44Z</time>
      </trkpt>
      <trkpt lat="40.701354" lon="-3.745395">
        <ele>963.607</ele>
        <time>2014-04-12T08:48:50Z</time>
      </trkpt>
      <trkpt lat="40.701227" lon="-3.745605">
        <ele>964.133</ele>
        <time>2014-04-12T08:48:56Z</time>
      </trkpt>
      <trkpt lat="40.701118" lon="-3.745798">
        <ele>964.862</ele>
        <time>2014-04-12T08:49:03Z</time>
      </trkpt>
      <trkpt lat="40.700987" lon="-3.745977">
        <ele>965.593</ele>
        <time>2014-04-12T08:49:09Z</time>
      </trkpt>
      <trkpt lat="40.700869" lon="-3.746207">
        <ele>967.012</ele>
        <time>2014-04-12T08:49:16Z</time>
      </trkpt>
      <trkpt lat="40.700758" lon="-3.746414">
        <ele>969.997</ele>
        <time>2014-04-12T08:49:21Z</time>
      </trkpt>
      <trkpt lat="40.700632" lon="-3.746640">
        <ele>970.456</ele>
        <time>2014-04-12T08:49:26Z</time>
      </trkpt>
      <trkpt lat="40.700503" lon="-3.746887">
        <ele>970.588</ele>
        <time>2014-04-12T08:49:30Z</time>
      </trkpt>
      <trkpt lat="40.700386" lon="-3.747170">
        <ele>971.512</ele>
        <time>2014-04-12T08:49:34Z</time>
      </trkpt>
      <trkpt lat="40.700286" lon="-3.747388">
        <ele>970.932</ele>
        <time>2014-04-12T08:49:37Z</time>
      </trkpt>
      <trkpt lat="40.700186" lon="-3.747597">
        <ele>969.105</ele>
        <time>2014-04-12T08:49:40Z</time>
      </trkpt>
      <trkpt lat="40.700075" lon="-3.747786">
        <ele>967.407</ele>
        <time>2014-04-12T08:49:43Z</time>
      </trkpt>
      <trkpt lat="40.699961" lon="-3.747994">
        <ele>966.127</ele>
        <time>2014-04-12T08:49:46Z</time>
      </trkpt>
      <trkpt lat="40.699855" lon="-3.748203">
        <ele>964.796</ele>
        <time>2014-04-12T08:49:49Z</time>
      </trkpt>
      <trkpt lat="40.699727" lon="-3.748453">
        <ele>963.447</ele>
        <time>2014-04-12T08:49:53Z</time>
      </trkpt>
      <trkpt lat="40.699612" lon="-3.748677">
        <ele>963.236</ele>
        <time>2014-04-12T08:49:57Z</time>
      </trkpt>
      <trkpt lat="40.699430" lon="-3.748733">
        <ele>965.371</ele>
        <time>2014-04-12T08:50:05Z</time>
      </trkpt>
      <trkpt lat="40.699273" lon="-3.748539">
        <ele>967.960</ele>
        <time>2014-04-12T08:50:10Z</time>
      </trkpt>
      <trkpt lat="40.699090" lon="-3.748632">
        <ele>965.712</ele>
        <time>2014-04-12T08:50:15Z</time>
      </trkpt>
      <trkpt lat="40.698917" lon="-3.748834">
        <ele>962.869</ele>
        <time>2014-04-12T08:50:19Z</time>
      </trkpt>
      <trkpt lat="40.698766" lon="-3.749008">
        <ele>960.904</ele>
        <time>2014-04-12T08:50:23Z</time>
      </trkpt>
      <trkpt lat="40.698861" lon="-3.749211">
        <ele>959.424</ele>
        <time>2014-04-12T08:50:42Z</time>
      </trkpt>
      <trkpt lat="40.698945" lon="-3.749433">
        <ele>959.207</ele>
        <time>2014-04-12T08:50:48Z</time>
      </trkpt>
      <trkpt lat="40.698942" lon="-3.749680">
        <ele>959.252</ele>
        <time>2014-04-12T08:50:54Z</time>
      </trkpt>
      <trkpt lat="40.698796" lon="-3.749875">
        <ele>958.971</ele>
        <time>2014-04-12T08:52:06Z</time>
      </trkpt>
      <trkpt lat="40.698615" lon="-3.749966">
        <ele>957.042</ele>
        <time>2014-04-12T08:52:11Z</time>
      </trkpt>
      <trkpt lat="40.698421" lon="-3.750050">
        <ele>957.161</ele>
        <time>2014-04-12T08:52:15Z</time>
      </trkpt>
      <trkpt lat="40.698239" lon="-3.750141">
        <ele>957.716</ele>
        <time>2014-04-12T08:52:19Z</time>
      </trkpt>
      <trkpt lat="40.698031" lon="-3.750246">
        <ele>958.295</ele>
        <time>2014-04-12T08:52:23Z</time>
      </trkpt>
      <trkpt lat="40.697830" lon="-3.750350">
        <ele>958.157</ele>
        <time>2014-04-12T08:52:27Z</time>
      </trkpt>
      <trkpt lat="40.697646" lon="-3.750488">
        <ele>957.222</ele>
        <time>2014-04-12T08:52:31Z</time>
      </trkpt>
      <trkpt lat="40.697464" lon="-3.750648">
        <ele>957.262</ele>
        <time>2014-04-12T08:52:35Z</time>
      </trkpt>
      <trkpt lat="40.697308" lon="-3.750820">
        <ele>957.108</ele>
        <time>2014-04-12T08:52:39Z</time>
      </trkpt>
      <trkpt lat="40.697145" lon="-3.750992">
        <ele>958.007</ele>
        <time>2014-04-12T08:52:44Z</time>
      </trkpt>
      <trkpt lat="40.696965" lon="-3.751156">
        <ele>959.038</ele>
        <time>2014-04-12T08:52:49Z</time>
      </trkpt>
      <trkpt lat="40.696774" lon="-3.751263">
        <ele>958.577</ele>
        <time>2014-04-12T08:52:53Z</time>
      </trkpt>
      <trkpt lat="40.696587" lon="-3.751320">
        <ele>957.748</ele>
        <time>2014-04-12T08:52:56Z</time>
      </trkpt>
      <trkpt lat="40.696352" lon="-3.751326">
        <ele>957.147</ele>
        <time>2014-04-12T08:53:00Z</time>
      </trkpt>
      <trkpt lat="40.696166" lon="-3.751251">
        <ele>955.932</ele>
        <time>2014-04-12T08:53:03Z</time>
      </trkpt>
      <trkpt lat="40.695987" lon="-3.751145">
        <ele>954.141</ele>
        <time>2014-04-12T08:53:06Z</time>
      </trkpt>
      <trkpt lat="40.695812" lon="-3.751047">
        <ele>952.433</ele>
        <time>2014-04-12T08:53:09Z</time>
      </trkpt>
      <trkpt lat="40.695608" lon="-3.750988">
        <ele>948.816</ele>
        <time>2014-04-12T08:53:12Z</time>
      </trkpt>
      <trkpt lat="40.695392" lon="-3.750937">
        <ele>945.376</ele>
        <time>2014-04-12T08:53:15Z</time>
      </trkpt>
      <trkpt lat="40.695170" lon="-3.750855">
        <ele>942.613</ele>
        <time>2014-04-12T08:53:18Z</time>
      </trkpt>
      <trkpt lat="40.694966" lon="-3.750756">
        <ele>940.007</ele>
        <time>2014-04-12T08:53:21Z</time>
      </trkpt>
      <trkpt lat="40.694785" lon="-3.750685">
        <ele>937.927</ele>
        <time>2014-04-12T08:53:24Z</time>
      </trkpt>
      <trkpt lat="40.694589" lon="-3.750640">
        <ele>936.586</ele>
        <time>2014-04-12T08:53:27Z</time>
      </trkpt>
      <trkpt lat="40.694376" lon="-3.750617">
        <ele>935.247</ele>
        <time>2014-04-12T08:53:30Z</time>
      </trkpt>
      <trkpt lat="40.694189" lon="-3.750666">
        <ele>932.816</ele>
        <time>2014-04-12T08:53:33Z</time>
      </trkpt>
      <trkpt lat="40.694008" lon="-3.750754">
        <ele>928.531</ele>
        <time>2014-04-12T08:53:36Z</time>
      </trkpt>
      <trkpt lat="40.693822" lon="-3.750832">
        <ele>925.590</ele>
        <time>2014-04-12T08:53:39Z</time>
      </trkpt>
      <trkpt lat="40.693644" lon="-3.750899">
        <ele>924.192</ele>
        <time>2014-04-12T08:53:44Z</time>
      </trkpt>
      <trkpt lat="40.693454" lon="-3.750990">
        <ele>924.841</ele>
        <time>2014-04-12T08:53:52Z</time>
      </trkpt>
      <trkpt lat="40.693284" lon="-3.751077">
        <ele>926.181</ele>
        <time>2014-04-12T08:54:01Z</time>
      </trkpt>
      <trkpt lat="40.693097" lon="-3.751174">
        <ele>927.409</ele>
        <time>2014-04-12T08:54:10Z</time>
      </trkpt>
      <trkpt lat="40.692918" lon="-3.751254">
        <ele>929.607</ele>
        <time>2014-04-12T08:54:22Z</time>
      </trkpt>
      <trkpt lat="40.692725" lon="-3.751309">
        <ele>931.470</ele>
        <time>2014-04-12T08:54:33Z</time>
      </trkpt>
      <trkpt lat="40.692578" lon="-3.751461">
        <ele>933.269</ele>
        <time>2014-04-12T08:54:41Z</time>
      </trkpt>
      <trkpt lat="40.692395" lon="-3.751509">
        <ele>935.640</ele>
        <time>2014-04-12T08:54:52Z</time>
      </trkpt>
      <trkpt lat="40.692206" lon="-3.751457">
        <ele>937.849</ele>
        <time>2014-04-12T08:55:03Z</time>
      </trkpt>
      <trkpt lat="40.692026" lon="-3.751410">
        <ele>939.114</ele>
        <time>2014-04-12T08:55:12Z</time>
      </trkpt>
      <trkpt lat="40.691824" lon="-3.751433">
        <ele>940.553</ele>
        <time>2014-04-12T08:55:22Z</time>
      </trkpt>
      <trkpt lat="40.691632" lon="-3.751508">
        <ele>941.965</ele>
        <time>2014-04-12T08:55:30Z</time>
      </trkpt>
      <trkpt lat="40.691440" lon="-3.751526">
        <ele>943.095</ele>
        <time>2014-04-12T08:55:37Z</time>
      </trkpt>
      <trkpt lat="40.691235" lon="-3.751459">
        <ele>944.249</ele>
        <time>2014-04-12T08:55:44Z</time>
      </trkpt>
      <trkpt lat="40.691030" lon="-3.751468">
        <ele>945.323</ele>
        <time>2014-04-12T08:55:51Z</time>
      </trkpt>
      <trkpt lat="40.690846" lon="-3.751484">
        <ele>946.807</ele>
        <time>2014-04-12T08:55:58Z</time>
      </trkpt>
      <trkpt lat="40.690655" lon="-3.751474">
        <ele>948.365</ele>
        <time>2014-04-12T08:56:04Z</time>
      </trkpt>
      <trkpt lat="40.690449" lon="-3.751487">
        <ele>948.534</ele>
        <time>2014-04-12T08:56:09Z</time>
      </trkpt>
      <trkpt lat="40.690265" lon="-3.751488">
        <ele>946.575</ele>
        <time>2014-04-12T08:56:13Z</time>
      </trkpt>
      <trkpt lat="40.690028" lon="-3.751476">
        <ele>946.924</ele>
        <time>2014-04-12T08:56:17Z</time>
      </trkpt>
      <trkpt lat="40.689810" lon="-3.751470">
        <ele>947.229</ele>
        <time>2014-04-12T08:56:22Z</time>
      </trkpt>
      <trkpt lat="40.689625" lon="-3.751425">
        <ele>947.898</ele>
        <time>2014-04-12T08:56:27Z</time>
      </trkpt>
      <trkpt lat="40.689501" lon="-3.751251">
        <ele>946.360</ele>
        <time>2014-04-12T08:56:31Z</time>
      </trkpt>
      <trkpt lat="40.689377" lon="-3.751045">
        <ele>945.779</ele>
        <time>2014-04-12T08:56:35Z</time>
      </trkpt>
      <trkpt lat="40.689289" lon="-3.750839">
        <ele>945.105</ele>
        <time>2014-04-12T08:56:39Z</time>
      </trkpt>
      <trkpt lat="40.689219" lon="-3.750620">
        <ele>945.825</ele>
        <time>2014-04-12T08:56:43Z</time>
      </trkpt>
      <trkpt lat="40.689144" lon="-3.750390">
        <ele>946.207</ele>
        <time>2014-04-12T08:56:47Z</time>
      </trkpt>
      <trkpt lat="40.689093" lon="-3.750156">
        <ele>944.753</ele>
        <time>2014-04-12T08:56:51Z</time>
      </trkpt>
      <trkpt lat="40.689033" lon="-3.749896">
        <ele>945.182</ele>
        <time>2014-04-12T08:56:56Z</time>
      </trkpt>
      <trkpt lat="40.688980" lon="-3.749655">
        <ele>946.033</ele>
        <time>2014-04-12T08:57:00Z</time>
      </trkpt>
      <trkpt lat="40.688890" lon="-3.749393">
        <ele>944.662</ele>
        <time>2014-04-12T08:57:05Z</time>
      </trkpt>
      <trkpt lat="40.688802" lon="-3.749130">
        <ele>940.687</ele>
        <time>2014-04-12T08:57:09Z</time>
      </trkpt>
      <trkpt lat="40.688711" lon="-3.748883">
        <ele>937.366</ele>
        <time>2014-04-12T08:57:12Z</time>
      </trkpt>
      <trkpt lat="40.688612" lon="-3.748626">
        <ele>934.458</ele>
        <time>2014-04-12T08:57:15Z</time>
      </trkpt>
      <trkpt lat="40.688502" lon="-3.748359">
        <ele>932.137</ele>
        <time>2014-04-12T08:57:18Z</time>
      </trkpt>
      <trkpt lat="40.688394" lon="-3.748095">
        <ele>930.449</ele>
        <time>2014-04-12T08:57:21Z</time>
      </trkpt>
      <trkpt lat="40.688316" lon="-3.747815">
        <ele>928.713</ele>
        <time>2014-04-12T08:57:24Z</time>
      </trkpt>
      <trkpt lat="40.688255" lon="-3.747518">
        <ele>927.107</ele>
        <time>2014-04-12T08:57:27Z</time>
      </trkpt>
      <trkpt lat="40.688181" lon="-3.747228">
        <ele>926.539</ele>
        <time>2014-04-12T08:57:30Z</time>
      </trkpt>
      <trkpt lat="40.688117" lon="-3.746916">
        <ele>925.858</ele>
        <time>2014-04-12T08:57:33Z</time>
      </trkpt>
      <trkpt lat="40.688050" lon="-3.746621">
        <ele>924.369</ele>
        <time>2014-04-12T08:57:36Z</time>
      </trkpt>
      <trkpt lat="40.687985" lon="-3.746344">
        <ele>922.918</ele>
        <time>2014-04-12T08:57:39Z</time>
      </trkpt>
      <trkpt lat="40.687922" lon="-3.746083">
        <ele>921.833</ele>
        <time>2014-04-12T08:57:42Z</time>
      </trkpt>
      <trkpt lat="40.687851" lon="-3.745853">
        <ele>920.752</ele>
        <time>2014-04-12T08:57:45Z</time>
      </trkpt>
      <trkpt lat="40.687750" lon="-3.745580">
        <ele>920.864</ele>
        <time>2014-04-12T08:57:49Z</time>
      </trkpt>
      <trkpt lat="40.687654" lon="-3.745293">
        <ele>921.399</ele>
        <time>2014-04-12T08:57:53Z</time>
      </trkpt>
      <trkpt lat="40.687569" lon="-3.745007">
        <ele>922.107</ele>
        <time>2014-04-12T08:57:57Z</time>
      </trkpt>
      <trkpt lat="40.687465" lon="-3.744780">
        <ele>921.327</ele>
        <time>2014-04-12T08:58:01Z</time>
      </trkpt>
      <trkpt lat="40.687395" lon="-3.744554">
        <ele>920.307</ele>
        <time>2014-04-12T08:58:05Z</time>
      </trkpt>
      <trkpt lat="40.687242" lon="-3.744327">
        <ele>922.535</ele>
        <time>2014-04-12T08:58:10Z</time>
      </trkpt>
      <trkpt lat="40.687018" lon="-3.744233">
        <ele>923.544</ele>
        <time>2014-04-12T08:58:14Z</time>
      </trkpt>
      <trkpt lat="40.686830" lon="-3.744179">
        <ele>924.185</ele>
        <time>2014-04-12T08:58:17Z</time>
      </trkpt>
      <trkpt lat="40.686614" lon="-3.744075">
        <ele>926.144</ele>
        <time>2014-04-12T08:58:21Z</time>
      </trkpt>
      <trkpt lat="40.686458" lon="-3.743885">
        <ele>926.269</ele>
        <time>2014-04-12T08:58:25Z</time>
      </trkpt>
      <trkpt lat="40.686321" lon="-3.743660">
        <ele>927.848</ele>
        <time>2014-04-12T08:58:29Z</time>
      </trkpt>
      <trkpt lat="40.686150" lon="-3.743473">
        <ele>928.260</ele>
        <time>2014-04-12T08:58:33Z</time>
      </trkpt>
      <trkpt lat="40.685987" lon="-3.743370">
        <ele>927.176</ele>
        <time>2014-04-12T08:58:36Z</time>
      </trkpt>
      <trkpt lat="40.685834" lon="-3.743231">
        <ele>926.290</ele>
        <time>2014-04-12T08:58:39Z</time>
      </trkpt>
      <trkpt lat="40.685643" lon="-3.743042">
        <ele>925.619</ele>
        <time>2014-04-12T08:58:43Z</time>
      </trkpt>
      <trkpt lat="40.685470" lon="-3.742946">
        <ele>925.707</ele>
        <time>2014-04-12T08:58:46Z</time>
      </trkpt>
      <trkpt lat="40.685271" lon="-3.742748">
        <ele>923.523</ele>
        <time>2014-04-12T08:58:49Z</time>
      </trkpt>
      <trkpt lat="40.685089" lon="-3.742580">
        <ele>919.992</ele>
        <time>2014-04-12T08:58:52Z</time>
      </trkpt>
      <trkpt lat="40.684910" lon="-3.742389">
        <ele>915.293</ele>
        <time>2014-04-12T08:58:56Z</time>
      </trkpt>
      <trkpt lat="40.684729" lon="-3.742333">
        <ele>907.622</ele>
        <time>2014-04-12T09:07:50Z</time>
      </trkpt>
      <trkpt lat="40.684526" lon="-3.742385">
        <ele>908.987</ele>
        <time>2014-04-12T09:07:58Z</time>
      </trkpt>
      <trkpt lat="40.684326" lon="-3.742511">
        <ele>912.056</ele>
        <time>2014-04-12T09:08:03Z</time>
      </trkpt>
      <trkpt lat="40.684149" lon="-3.742465">
        <ele>912.188</ele>
        <time>2014-04-12T09:08:07Z</time>
      </trkpt>
      <trkpt lat="40.683989" lon="-3.742288">
        <ele>911.976</ele>
        <time>2014-04-12T09:08:12Z</time>
      </trkpt>
      <trkpt lat="40.683904" lon="-3.742058">
        <ele>912.590</ele>
        <time>2014-04-12T09:08:18Z</time>
      </trkpt>
      <trkpt lat="40.683920" lon="-3.741791">
        <ele>912.219</ele>
        <time>2014-04-12T09:08:24Z</time>
      </trkpt>
      <trkpt lat="40.683975" lon="-3.741559">
        <ele>911.207</ele>
        <time>2014-04-12T09:08:29Z</time>
      </trkpt>
      <trkpt lat="40.684041" lon="-3.741321">
        <ele>906.093</ele>
        <time>2014-04-12T09:08:34Z</time>
      </trkpt>
      <trkpt lat="40.684101" lon="-3.741062">
        <ele>900.962</ele>
        <time>2014-04-12T09:08:39Z</time>
      </trkpt>
      <trkpt lat="40.684119" lon="-3.740802">
        <ele>896.973</ele>
        <time>2014-04-12T09:08:43Z</time>
      </trkpt>
      <trkpt lat="40.684075" lon="-3.740549">
        <ele>893.762</ele>
        <time>2014-04-12T09:08:48Z</time>
      </trkpt>
      <trkpt lat="40.684037" lon="-3.740315">
        <ele>892.047</ele>
        <time>2014-04-12T09:08:52Z</time>
      </trkpt>
      <trkpt lat="40.684036" lon="-3.740073">
        <ele>890.486</ele>
        <time>2014-04-12T09:08:56Z</time>
      </trkpt>
      <trkpt lat="40.683998" lon="-3.739833">
        <ele>885.468</ele>
        <time>2014-04-12T09:09:01Z</time>
      </trkpt>
      <trkpt lat="40.683778" lon="-3.739687">
        <ele>883.619</ele>
        <time>2014-04-12T09:09:05Z</time>
      </trkpt>
      <trkpt lat="40.683559" lon="-3.739584">
        <ele>881.309</ele>
        <time>2014-04-12T09:09:08Z</time>
      </trkpt>
      <trkpt lat="40.683364" lon="-3.739466">
        <ele>879.019</ele>
        <time>2014-04-12T09:09:11Z</time>
      </trkpt>
      <trkpt lat="40.683194" lon="-3.739274">
        <ele>877.307</ele>
        <time>2014-04-12T09:09:14Z</time>
      </trkpt>
      <trkpt lat="40.683081" lon="-3.739062">
        <ele>876.847</ele>
        <time>2014-04-12T09:09:17Z</time>
      </trkpt>
      <trkpt lat="40.683007" lon="-3.738784">
        <ele>876.976</ele>
        <time>2014-04-12T09:09:21Z</time>
      </trkpt>
      <trkpt lat="40.682963" lon="-3.738532">
        <ele>877.527</ele>
        <time>2014-04-12T09:09:25Z</time>
      </trkpt>
      <trkpt lat="40.682916" lon="-3.738259">
        <ele>877.376</ele>
        <time>2014-04-12T09:09:29Z</time>
      </trkpt>
      <trkpt lat="40.682862" lon="-3.738020">
        <ele>877.491</ele>
        <time>2014-04-12T09:09:33Z</time>
      </trkpt>
      <trkpt lat="40.682824" lon="-3.737736">
        <ele>877.370</ele>
        <time>2014-04-12T09:09:38Z</time>
      </trkpt>
      <trkpt lat="40.682766" lon="-3.737489">
        <ele>876.162</ele>
        <time>2014-04-12T09:09:43Z</time>
      </trkpt>
      <trkpt lat="40.682677" lon="-3.737239">
        <ele>876.974</ele>
        <time>2014-04-12T09:09:47Z</time>
      </trkpt>
      <trkpt lat="40.682559" lon="-3.737013">
        <ele>877.856</ele>
        <time>2014-04-12T09:09:50Z</time>
      </trkpt>
      <trkpt lat="40.682395" lon="-3.736761">
        <ele>877.321</ele>
        <time>2014-04-12T09:09:53Z</time>
      </trkpt>
      <trkpt lat="40.682224" lon="-3.736525">
        <ele>876.507</ele>
        <time>2014-04-12T09:09:56Z</time>
      </trkpt>
      <trkpt lat="40.682060" lon="-3.736308">
        <ele>874.643</ele>
        <time>2014-04-12T09:09:59Z</time>
      </trkpt>
      <trkpt lat="40.681854" lon="-3.736075">
        <ele>872.122</ele>
        <time>2014-04-12T09:10:02Z</time>
      </trkpt>
      <trkpt lat="40.681617" lon="-3.735947">
        <ele>870.783</ele>
        <time>2014-04-12T09:10:05Z</time>
      </trkpt>
      <trkpt lat="40.681441" lon="-3.735869">
        <ele>869.322</ele>
        <time>2014-04-12T09:10:07Z</time>
      </trkpt>
      <trkpt lat="40.681201" lon="-3.735781">
        <ele>867.427</ele>
        <time>2014-04-12T09:10:10Z</time>
      </trkpt>
      <trkpt lat="40.681006" lon="-3.735739">
        <ele>866.676</ele>
        <time>2014-04-12T09:10:13Z</time>
      </trkpt>
      <trkpt lat="40.680831" lon="-3.735812">
        <ele>864.918</ele>
        <time>2014-04-12T09:10:16Z</time>
      </trkpt>
      <trkpt lat="40.680678" lon="-3.735968">
        <ele>863.464</ele>
        <time>2014-04-12T09:10:19Z</time>
      </trkpt>
      <trkpt lat="40.680498" lon="-3.736046">
        <ele>862.306</ele>
        <time>2014-04-12T09:10:22Z</time>
      </trkpt>
      <trkpt lat="40.680299" lon="-3.736137">
        <ele>860.016</ele>
        <time>2014-04-12T09:10:26Z</time>
      </trkpt>
      <trkpt lat="40.680298" lon="-3.736415">
        <ele>859.007</ele>
        <time>2014-04-12T09:10:31Z</time>
      </trkpt>
      <trkpt lat="40.680223" lon="-3.736637">
        <ele>858.852</ele>
        <time>2014-04-12T09:10:35Z</time>
      </trkpt>
      <trkpt lat="40.680152" lon="-3.736864">
        <ele>860.141</ele>
        <time>2014-04-12T09:10:39Z</time>
      </trkpt>
      <trkpt lat="40.680055" lon="-3.737093">
        <ele>860.112</ele>
        <time>2014-04-12T09:10:43Z</time>
      </trkpt>
      <trkpt lat="40.679884" lon="-3.737247">
        <ele>858.941</ele>
        <time>2014-04-12T09:10:48Z</time>
      </trkpt>
      <trkpt lat="40.679694" lon="-3.737250">
        <ele>859.226</ele>
        <time>2014-04-12T09:10:53Z</time>
      </trkpt>
      <trkpt lat="40.679465" lon="-3.737174">
        <ele>861.095</ele>
        <time>2014-04-12T09:10:57Z</time>
      </trkpt>
      <trkpt lat="40.679279" lon="-3.737259">
        <ele>860.747</ele>
        <time>2014-04-12T09:11:00Z</time>
      </trkpt>
      <trkpt lat="40.679112" lon="-3.737411">
        <ele>858.848</ele>
        <time>2014-04-12T09:11:03Z</time>
      </trkpt>
      <trkpt lat="40.678968" lon="-3.737560">
        <ele>857.561</ele>
        <time>2014-04-12T09:11:06Z</time>
      </trkpt>
      <trkpt lat="40.678797" lon="-3.737653">
        <ele>855.817</ele>
        <time>2014-04-12T09:11:09Z</time>
      </trkpt>
      <trkpt lat="40.678613" lon="-3.737647">
        <ele>855.307</ele>
        <time>2014-04-12T09:11:13Z</time>
      </trkpt>
      <trkpt lat="40.678426" lon="-3.737634">
        <ele>855.880</ele>
        <time>2014-04-12T09:11:17Z</time>
      </trkpt>
      <trkpt lat="40.678198" lon="-3.737616">
        <ele>854.849</ele>
        <time>2014-04-12T09:11:21Z</time>
      </trkpt>
      <trkpt lat="40.678006" lon="-3.737609">
        <ele>854.650</ele>
        <time>2014-04-12T09:11:24Z</time>
      </trkpt>
      <trkpt lat="40.677808" lon="-3.737626">
        <ele>854.699</ele>
        <time>2014-04-12T09:11:27Z</time>
      </trkpt>
      <trkpt lat="40.677618" lon="-3.737633">
        <ele>855.184</ele>
        <time>2014-04-12T09:11:30Z</time>
      </trkpt>
      <trkpt lat="40.677400" lon="-3.737642">
        <ele>857.293</ele>
        <time>2014-04-12T09:11:34Z</time>
      </trkpt>
      <trkpt lat="40.677198" lon="-3.737662">
        <ele>859.235</ele>
        <time>2014-04-12T09:11:39Z</time>
      </trkpt>
      <trkpt lat="40.677003" lon="-3.737729">
        <ele>859.662</ele>
        <time>2014-04-12T09:11:45Z</time>
      </trkpt>
      <trkpt lat="40.676805" lon="-3.737787">
        <ele>860.183</ele>
        <time>2014-04-12T09:11:51Z</time>
      </trkpt>
      <trkpt lat="40.676639" lon="-3.737633">
        <ele>860.111</ele>
        <time>2014-04-12T09:11:56Z</time>
      </trkpt>
      <trkpt lat="40.676421" lon="-3.737447">
        <ele>859.207</ele>
        <time>2014-04-12T09:12:00Z</time>
      </trkpt>
      <trkpt lat="40.676178" lon="-3.737430">
        <ele>857.662</ele>
        <time>2014-04-12T09:12:03Z</time>
      </trkpt>
      <trkpt lat="40.675972" lon="-3.737411">
        <ele>855.261</ele>
        <time>2014-04-12T09:12:06Z</time>
      </trkpt>
      <trkpt lat="40.675756" lon="-3.737365">
        <ele>853.972</ele>
        <time>2014-04-12T09:12:09Z</time>
      </trkpt>
      <trkpt lat="40.675522" lon="-3.737320">
        <ele>852.271</ele>
        <time>2014-04-12T09:12:12Z</time>
      </trkpt>
      <trkpt lat="40.675315" lon="-3.737305">
        <ele>850.816</ele>
        <time>2014-04-12T09:12:15Z</time>
      </trkpt>
      <trkpt lat="40.675099" lon="-3.737329">
        <ele>849.365</ele>
        <time>2014-04-12T09:12:19Z</time>
      </trkpt>
      <trkpt lat="40.674856" lon="-3.737380">
        <ele>848.387</ele>
        <time>2014-04-12T09:12:23Z</time>
      </trkpt>
      <trkpt lat="40.674672" lon="-3.737388">
        <ele>848.616</ele>
        <time>2014-04-12T09:12:26Z</time>
      </trkpt>
      <trkpt lat="40.674437" lon="-3.737400">
        <ele>848.976</ele>
        <time>2014-04-12T09:12:30Z</time>
      </trkpt>
      <trkpt lat="40.674202" lon="-3.737417">
        <ele>849.213</ele>
        <time>2014-04-12T09:12:34Z</time>
      </trkpt>
      <trkpt lat="40.674017" lon="-3.737404">
        <ele>848.807</ele>
        <time>2014-04-12T09:12:37Z</time>
      </trkpt>
      <trkpt lat="40.673826" lon="-3.737374">
        <ele>848.357</ele>
        <time>2014-04-12T09:12:40Z</time>
      </trkpt>
      <trkpt lat="40.673627" lon="-3.737352">
        <ele>848.456</ele>
        <time>2014-04-12T09:12:43Z</time>
      </trkpt>
      <trkpt lat="40.673401" lon="-3.737348">
        <ele>849.047</ele>
        <time>2014-04-12T09:12:47Z</time>
      </trkpt>
      <trkpt lat="40.673214" lon="-3.737385">
        <ele>848.846</ele>
        <time>2014-04-12T09:12:50Z</time>
      </trkpt>
      <trkpt lat="40.673024" lon="-3.737394">
        <ele>848.051</ele>
        <time>2014-04-12T09:12:53Z</time>
      </trkpt>
      <trkpt lat="40.672853" lon="-3.737317">
        <ele>847.560</ele>
        <time>2014-04-12T09:12:56Z</time>
      </trkpt>
      <trkpt lat="40.672622" lon="-3.737341">
        <ele>845.562</ele>
        <time>2014-04-12T09:13:00Z</time>
      </trkpt>
      <trkpt lat="40.672440" lon="-3.737416">
        <ele>845.415</ele>
        <time>2014-04-12T09:13:03Z</time>
      </trkpt>
      <trkpt lat="40.672255" lon="-3.737467">
        <ele>846.165</ele>
        <time>2014-04-12T09:13:06Z</time>
      </trkpt>
      <trkpt lat="40.672040" lon="-3.737508">
        <ele>846.211</ele>
        <time>2014-04-12T09:13:09Z</time>
      </trkpt>
      <trkpt lat="40.671827" lon="-3.737572">
        <ele>845.907</ele>
        <time>2014-04-12T09:13:12Z</time>
      </trkpt>
      <trkpt lat="40.671642" lon="-3.737674">
        <ele>846.777</ele>
        <time>2014-04-12T09:13:15Z</time>
      </trkpt>
      <trkpt lat="40.671431" lon="-3.737750">
        <ele>845.786</ele>
        <time>2014-04-12T09:13:19Z</time>
      </trkpt>
      <trkpt lat="40.671242" lon="-3.737697">
        <ele>844.837</ele>
        <time>2014-04-12T09:13:22Z</time>
      </trkpt>
      <trkpt lat="40.671033" lon="-3.737587">
        <ele>845.236</ele>
        <time>2014-04-12T09:13:26Z</time>
      </trkpt>
      <trkpt lat="40.670814" lon="-3.737562">
        <ele>845.081</ele>
        <time>2014-04-12T09:13:30Z</time>
      </trkpt>
      <trkpt lat="40.670578" lon="-3.737539">
        <ele>844.440</ele>
        <time>2014-04-12T09:13:34Z</time>
      </trkpt>
      <trkpt lat="40.670368" lon="-3.737507">
        <ele>844.892</ele>
        <time>2014-04-12T09:13:38Z</time>
      </trkpt>
      <trkpt lat="40.670185" lon="-3.737464">
        <ele>845.776</ele>
        <time>2014-04-12T09:13:41Z</time>
      </trkpt>
      <trkpt lat="40.669955" lon="-3.737369">
        <ele>845.790</ele>
        <time>2014-04-12T09:13:45Z</time>
      </trkpt>
      <trkpt lat="40.669769" lon="-3.737270">
        <ele>844.519</ele>
        <time>2014-04-12T09:13:48Z</time>
      </trkpt>
      <trkpt lat="40.669604" lon="-3.737150">
        <ele>844.407</ele>
        <time>2014-04-12T09:13:51Z</time>
      </trkpt>
      <trkpt lat="40.669448" lon="-3.736999">
        <ele>844.233</ele>
        <time>2014-04-12T09:13:54Z</time>
      </trkpt>
      <trkpt lat="40.669264" lon="-3.736833">
        <ele>844.432</ele>
        <time>2014-04-12T09:13:58Z</time>
      </trkpt>
      <trkpt lat="40.669047" lon="-3.736756">
        <ele>845.433</ele>
        <time>2014-04-12T09:14:02Z</time>
      </trkpt>
      <trkpt lat="40.668868" lon="-3.736717">
        <ele>844.872</ele>
        <time>2014-04-12T09:14:05Z</time>
      </trkpt>
      <trkpt lat="40.668646" lon="-3.736636">
        <ele>842.327</ele>
        <time>2014-04-12T09:14:09Z</time>
      </trkpt>
      <trkpt lat="40.668442" lon="-3.736495">
        <ele>840.316</ele>
        <time>2014-04-12T09:14:13Z</time>
      </trkpt>
      <trkpt lat="40.668277" lon="-3.736300">
        <ele>840.978</ele>
        <time>2014-04-12T09:14:18Z</time>
      </trkpt>
      <trkpt lat="40.668132" lon="-3.736132">
        <ele>841.289</ele>
        <time>2014-04-12T09:14:24Z</time>
      </trkpt>
      <trkpt lat="40.667971" lon="-3.736022">
        <ele>841.606</ele>
        <time>2014-04-12T09:14:29Z</time>
      </trkpt>
      <trkpt lat="40.667776" lon="-3.736080">
        <ele>842.926</ele>
        <time>2014-04-12T09:14:34Z</time>
      </trkpt>
      <trkpt lat="40.667580" lon="-3.736002">
        <ele>845.307</ele>
        <time>2014-04-12T09:14:39Z</time>
      </trkpt>
      <trkpt lat="40.667477" lon="-3.735801">
        <ele>847.434</ele>
        <time>2014-04-12T09:14:44Z</time>
      </trkpt>
      <trkpt lat="40.667341" lon="-3.735579">
        <ele>847.643</ele>
        <time>2014-04-12T09:14:50Z</time>
      </trkpt>
      <trkpt lat="40.667164" lon="-3.735428">
        <ele>847.794</ele>
        <time>2014-04-12T09:14:58Z</time>
      </trkpt>
      <trkpt lat="40.666965" lon="-3.735417">
        <ele>847.873</ele>
        <time>2014-04-12T09:15:04Z</time>
      </trkpt>
      <trkpt lat="40.666775" lon="-3.735344">
        <ele>848.188</ele>
        <time>2014-04-12T09:15:10Z</time>
      </trkpt>
      <trkpt lat="40.666570" lon="-3.735288">
        <ele>848.887</ele>
        <time>2014-04-12T09:15:16Z</time>
      </trkpt>
      <trkpt lat="40.666387" lon="-3.735291">
        <ele>850.069</ele>
        <time>2014-04-12T09:15:21Z</time>
      </trkpt>
      <trkpt lat="40.666186" lon="-3.735290">
        <ele>850.518</ele>
        <time>2014-04-12T09:15:27Z</time>
      </trkpt>
      <trkpt lat="40.666000" lon="-3.735295">
        <ele>850.898</ele>
        <time>2014-04-12T09:15:34Z</time>
      </trkpt>
      <trkpt lat="40.665814" lon="-3.735278">
        <ele>851.517</ele>
        <time>2014-04-12T09:15:41Z</time>
      </trkpt>
      <trkpt lat="40.665619" lon="-3.735258">
        <ele>852.907</ele>
        <time>2014-04-12T09:15:50Z</time>
      </trkpt>
      <trkpt lat="40.665426" lon="-3.735241">
        <ele>854.017</ele>
        <time>2014-04-12T09:15:59Z</time>
      </trkpt>
      <trkpt lat="40.665230" lon="-3.735242">
        <ele>855.126</ele>
        <time>2014-04-12T09:16:07Z</time>
      </trkpt>
      <trkpt lat="40.665045" lon="-3.735238">
        <ele>856.067</ele>
        <time>2014-04-12T09:16:13Z</time>
      </trkpt>
      <trkpt lat="40.664852" lon="-3.735251">
        <ele>857.236</ele>
        <time>2014-04-12T09:16:19Z</time>
      </trkpt>
      <trkpt lat="40.664655" lon="-3.735269">
        <ele>858.391</ele>
        <time>2014-04-12T09:16:26Z</time>
      </trkpt>
      <trkpt lat="40.664468" lon="-3.735298">
        <ele>859.150</ele>
        <time>2014-04-12T09:16:34Z</time>
      </trkpt>
      <trkpt lat="40.664281" lon="-3.735353">
        <ele>860.332</ele>
        <time>2014-04-12T09:16:39Z</time>
      </trkpt>
      <trkpt lat="40.664104" lon="-3.735474">
        <ele>862.093</ele>
        <time>2014-04-12T09:16:45Z</time>
      </trkpt>
      <trkpt lat="40.663978" lon="-3.735646">
        <ele>862.465</ele>
        <time>2014-04-12T09:16:51Z</time>
      </trkpt>
      <trkpt lat="40.663837" lon="-3.735842">
        <ele>863.821</ele>
        <time>2014-04-12T09:16:56Z</time>
      </trkpt>
      <trkpt lat="40.663689" lon="-3.736040">
        <ele>864.407</ele>
        <time>2014-04-12T09:17:00Z</time>
      </trkpt>
      <trkpt lat="40.663557" lon="-3.736252">
        <ele>864.475</ele>
        <time>2014-04-12T09:17:04Z</time>
      </trkpt>
      <trkpt lat="40.663419" lon="-3.736486">
        <ele>866.074</ele>
        <time>2014-04-12T09:17:09Z</time>
      </trkpt>
      <trkpt lat="40.663297" lon="-3.736687">
        <ele>865.975</ele>
        <time>2014-04-12T09:17:13Z</time>
      </trkpt>
      <trkpt lat="40.663162" lon="-3.736889">
        <ele>863.834</ele>
        <time>2014-04-12T09:17:17Z</time>
      </trkpt>
      <trkpt lat="40.663012" lon="-3.737061">
        <ele>862.059</ele>
        <time>2014-04-12T09:17:21Z</time>
      </trkpt>
      <trkpt lat="40.662845" lon="-3.737150">
        <ele>861.348</ele>
        <time>2014-04-12T09:17:24Z</time>
      </trkpt>
      <trkpt lat="40.662669" lon="-3.737228">
        <ele>860.410</ele>
        <time>2014-04-12T09:17:27Z</time>
      </trkpt>
      <trkpt lat="40.662486" lon="-3.737307">
        <ele>858.673</ele>
        <time>2014-04-12T09:17:30Z</time>
      </trkpt>
      <trkpt lat="40.662293" lon="-3.737354">
        <ele>857.185</ele>
        <time>2014-04-12T09:17:33Z</time>
      </trkpt>
      <trkpt lat="40.662084" lon="-3.737379">
        <ele>855.313</ele>
        <time>2014-04-12T09:17:36Z</time>
      </trkpt>
      <trkpt lat="40.661879" lon="-3.737399">
        <ele>854.307</ele>
        <time>2014-04-12T09:17:39Z</time>
      </trkpt>
      <trkpt lat="40.661680" lon="-3.737401">
        <ele>855.933</ele>
        <time>2014-04-12T09:17:42Z</time>
      </trkpt>
      <trkpt lat="40.661490" lon="-3.737374">
        <ele>856.792</ele>
        <time>2014-04-12T09:17:45Z</time>
      </trkpt>
      <trkpt lat="40.661261" lon="-3.737351">
        <ele>855.623</ele>
        <time>2014-04-12T09:17:48Z</time>
      </trkpt>
      <trkpt lat="40.661037" lon="-3.737332">
        <ele>853.062</ele>
        <time>2014-04-12T09:17:51Z</time>
      </trkpt>
      <trkpt lat="40.660838" lon="-3.737330">
        <ele>851.947</ele>
        <time>2014-04-12T09:17:54Z</time>
      </trkpt>
      <trkpt lat="40.660615" lon="-3.737302">
        <ele>851.326</ele>
        <time>2014-04-12T09:17:57Z</time>
      </trkpt>
      <trkpt lat="40.660410" lon="-3.737253">
        <ele>849.288</ele>
        <time>2014-04-12T09:18:00Z</time>
      </trkpt>
      <trkpt lat="40.660232" lon="-3.737209">
        <ele>846.112</ele>
        <time>2014-04-12T09:18:03Z</time>
      </trkpt>
      <trkpt lat="40.660014" lon="-3.737069">
        <ele>845.532</ele>
        <time>2014-04-12T09:18:07Z</time>
      </trkpt>
      <trkpt lat="40.659835" lon="-3.736930">
        <ele>846.605</ele>
        <time>2014-04-12T09:18:10Z</time>
      </trkpt>
      <trkpt lat="40.659620" lon="-3.736845">
        <ele>846.507</ele>
        <time>2014-04-12T09:18:13Z</time>
      </trkpt>
      <trkpt lat="40.659414" lon="-3.736821">
        <ele>846.347</ele>
        <time>2014-04-12T09:18:16Z</time>
      </trkpt>
      <trkpt lat="40.659203" lon="-3.736856">
        <ele>845.456</ele>
        <time>2014-04-12T09:18:20Z</time>
      </trkpt>
      <trkpt lat="40.658989" lon="-3.736845">
        <ele>845.387</ele>
        <time>2014-04-12T09:18:23Z</time>
      </trkpt>
      <trkpt lat="40.658748" lon="-3.736784">
        <ele>844.496</ele>
        <time>2014-04-12T09:18:26Z</time>
      </trkpt>
      <trkpt lat="40.658487" lon="-3.736804">
        <ele>842.491</ele>
        <time>2014-04-12T09:18:29Z</time>
      </trkpt>
      <trkpt lat="40.658250" lon="-3.736842">
        <ele>840.530</ele>
        <time>2014-04-12T09:18:32Z</time>
      </trkpt>
      <trkpt lat="40.658050" lon="-3.736920">
        <ele>839.782</ele>
        <time>2014-04-12T09:18:35Z</time>
      </trkpt>
      <trkpt lat="40.657842" lon="-3.737029">
        <ele>838.038</ele>
        <time>2014-04-12T09:18:38Z</time>
      </trkpt>
      <trkpt lat="40.657602" lon="-3.737127">
        <ele>835.670</ele>
        <time>2014-04-12T09:18:41Z</time>
      </trkpt>
      <trkpt lat="40.657379" lon="-3.737204">
        <ele>833.717</ele>
        <time>2014-04-12T09:18:44Z</time>
      </trkpt>
      <trkpt lat="40.657165" lon="-3.737281">
        <ele>831.607</ele>
        <time>2014-04-12T09:18:47Z</time>
      </trkpt>
      <trkpt lat="40.656988" lon="-3.737332">
        <ele>830.939</ele>
        <time>2014-04-12T09:18:49Z</time>
      </trkpt>
      <trkpt lat="40.656803" lon="-3.737363">
        <ele>831.428</ele>
        <time>2014-04-12T09:18:52Z</time>
      </trkpt>
      <trkpt lat="40.656622" lon="-3.737371">
        <ele>830.989</ele>
        <time>2014-04-12T09:18:55Z</time>
      </trkpt>
      <trkpt lat="40.656413" lon="-3.737267">
        <ele>833.698</ele>
        <time>2014-04-12T09:19:00Z</time>
      </trkpt>
      <trkpt lat="40.656230" lon="-3.737215">
        <ele>836.563</ele>
        <time>2014-04-12T09:19:03Z</time>
      </trkpt>
      <trkpt lat="40.656014" lon="-3.737210">
        <ele>838.172</ele>
        <time>2014-04-12T09:19:06Z</time>
      </trkpt>
      <trkpt lat="40.655811" lon="-3.737211">
        <ele>838.334</ele>
        <time>2014-04-12T09:19:09Z</time>
      </trkpt>
      <trkpt lat="40.655594" lon="-3.737222">
        <ele>837.218</ele>
        <time>2014-04-12T09:19:12Z</time>
      </trkpt>
      <trkpt lat="40.655355" lon="-3.737221">
        <ele>836.098</ele>
        <time>2014-04-12T09:19:15Z</time>
      </trkpt>
      <trkpt lat="40.655171" lon="-3.737210">
        <ele>835.117</ele>
        <time>2014-04-12T09:19:17Z</time>
      </trkpt>
      <trkpt lat="40.654972" lon="-3.737185">
        <ele>833.307</ele>
        <time>2014-04-12T09:19:19Z</time>
      </trkpt>
      <trkpt lat="40.654770" lon="-3.737099">
        <ele>831.497</ele>
        <time>2014-04-12T09:19:21Z</time>
      </trkpt>
      <trkpt lat="40.654563" lon="-3.737030">
        <ele>829.976</ele>
        <time>2014-04-12T09:19:23Z</time>
      </trkpt>
      <trkpt lat="40.654352" lon="-3.736985">
        <ele>828.577</ele>
        <time>2014-04-12T09:19:25Z</time>
      </trkpt>
      <trkpt lat="40.654113" lon="-3.736877">
        <ele>826.966</ele>
        <time>2014-04-12T09:19:28Z</time>
      </trkpt>
      <trkpt lat="40.653923" lon="-3.736705">
        <ele>826.861</ele>
        <time>2014-04-12T09:19:31Z</time>
      </trkpt>
      <trkpt lat="40.653721" lon="-3.736517">
        <ele>827.430</ele>
        <time>2014-04-12T09:19:34Z</time>
      </trkpt>
      <trkpt lat="40.653495" lon="-3.736347">
        <ele>826.632</ele>
        <time>2014-04-12T09:19:37Z</time>
      </trkpt>
      <trkpt lat="40.653248" lon="-3.736231">
        <ele>825.697</ele>
        <time>2014-04-12T09:19:40Z</time>
      </trkpt>
      <trkpt lat="40.653003" lon="-3.736169">
        <ele>825.523</ele>
        <time>2014-04-12T09:19:43Z</time>
      </trkpt>
      <trkpt lat="40.652768" lon="-3.736136">
        <ele>824.325</ele>
        <time>2014-04-12T09:19:46Z</time>
      </trkpt>
      <trkpt lat="40.652526" lon="-3.736115">
        <ele>822.407</ele>
        <time>2014-04-12T09:19:49Z</time>
      </trkpt>
      <trkpt lat="40.652288" lon="-3.736083">
        <ele>820.525</ele>
        <time>2014-04-12T09:19:52Z</time>
      </trkpt>
      <trkpt lat="40.652050" lon="-3.736012">
        <ele>818.714</ele>
        <time>2014-04-12T09:19:55Z</time>
      </trkpt>
      <trkpt lat="40.651835" lon="-3.735885">
        <ele>817.535</ele>
        <time>2014-04-12T09:19:58Z</time>
      </trkpt>
      <trkpt lat="40.651619" lon="-3.735795">
        <ele>815.834</ele>
        <time>2014-04-12T09:20:01Z</time>
      </trkpt>
      <trkpt lat="40.651399" lon="-3.735797">
        <ele>813.789</ele>
        <time>2014-04-12T09:20:04Z</time>
      </trkpt>
      <trkpt lat="40.651199" lon="-3.735792">
        <ele>811.428</ele>
        <time>2014-04-12T09:20:07Z</time>
      </trkpt>
      <trkpt lat="40.650977" lon="-3.735733">
        <ele>809.370</ele>
        <time>2014-04-12T09:20:11Z</time>
      </trkpt>
      <trkpt lat="40.650765" lon="-3.735673">
        <ele>810.044</ele>
        <time>2014-04-12T09:20:15Z</time>
      </trkpt>
      <trkpt lat="40.650788" lon="-3.735371">
        <ele>811.105</ele>
        <time>2014-04-12T09:20:20Z</time>
      </trkpt>
      <trkpt lat="40.650901" lon="-3.735164">
        <ele>807.015</ele>
        <time>2014-04-12T09:20:24Z</time>
      </trkpt>
      <trkpt lat="40.651033" lon="-3.734931">
        <ele>804.407</ele>
        <time>2014-04-12T09:20:28Z</time>
      </trkpt>
      <trkpt lat="40.651179" lon="-3.734737">
        <ele>803.010</ele>
        <time>2014-04-12T09:20:31Z</time>
      </trkpt>
      <trkpt lat="40.651353" lon="-3.734523">
        <ele>801.439</ele>
        <time>2014-04-12T09:20:34Z</time>
      </trkpt>
      <trkpt lat="40.651475" lon="-3.734230">
        <ele>800.620</ele>
        <time>2014-04-12T09:20:37Z</time>
      </trkpt>
      <trkpt lat="40.651484" lon="-3.733901">
        <ele>799.369</ele>
        <time>2014-04-12T09:20:40Z</time>
      </trkpt>
      <trkpt lat="40.651392" lon="-3.733647">
        <ele>798.214</ele>
        <time>2014-04-12T09:20:43Z</time>
      </trkpt>
      <trkpt lat="40.651238" lon="-3.733415">
        <ele>798.363</ele>
        <time>2014-04-12T09:20:47Z</time>
      </trkpt>
      <trkpt lat="40.651098" lon="-3.733264">
        <ele>797.295</ele>
        <time>2014-04-12T09:20:50Z</time>
      </trkpt>
      <trkpt lat="40.650946" lon="-3.733103">
        <ele>795.119</ele>
        <time>2014-04-12T09:20:53Z</time>
      </trkpt>
      <trkpt lat="40.650786" lon="-3.732944">
        <ele>793.309</ele>
        <time>2014-04-12T09:20:56Z</time>
      </trkpt>
      <trkpt lat="40.650607" lon="-3.732745">
        <ele>791.519</ele>
        <time>2014-04-12T09:21:00Z</time>
      </trkpt>
      <trkpt lat="40.650464" lon="-3.732557">
        <ele>791.407</ele>
        <time>2014-04-12T09:21:03Z</time>
      </trkpt>
      <trkpt lat="40.650290" lon="-3.732368">
        <ele>791.277</ele>
        <time>2014-04-12T09:21:06Z</time>
      </trkpt>
      <trkpt lat="40.650111" lon="-3.732230">
        <ele>789.876</ele>
        <time>2014-04-12T09:21:09Z</time>
      </trkpt>
      <trkpt lat="40.649941" lon="-3.732115">
        <ele>788.417</ele>
        <time>2014-04-12T09:21:13Z</time>
      </trkpt>
      <trkpt lat="40.649963" lon="-3.731876">
        <ele>787.996</ele>
        <time>2014-04-12T09:21:18Z</time>
      </trkpt>
      <trkpt lat="40.650106" lon="-3.731673">
        <ele>785.961</ele>
        <time>2014-04-12T09:21:22Z</time>
      </trkpt>
      <trkpt lat="40.650237" lon="-3.731500">
        <ele>782.050</ele>
        <time>2014-04-12T09:21:26Z</time>
      </trkpt>
      <trkpt lat="40.650390" lon="-3.731307">
        <ele>780.442</ele>
        <time>2014-04-12T09:21:30Z</time>
      </trkpt>
      <trkpt lat="40.650528" lon="-3.731122">
        <ele>779.767</ele>
        <time>2014-04-12T09:21:33Z</time>
      </trkpt>
      <trkpt lat="40.650673" lon="-3.730923">
        <ele>778.981</ele>
        <time>2014-04-12T09:21:36Z</time>
      </trkpt>
      <trkpt lat="40.650807" lon="-3.730698">
        <ele>777.319</ele>
        <time>2014-04-12T09:21:39Z</time>
      </trkpt>
      <trkpt lat="40.650934" lon="-3.730454">
        <ele>776.407</ele>
        <time>2014-04-12T09:21:42Z</time>
      </trkpt>
      <trkpt lat="40.651047" lon="-3.730170">
        <ele>776.112</ele>
        <time>2014-04-12T09:21:45Z</time>
      </trkpt>
      <trkpt lat="40.651132" lon="-3.729954">
        <ele>775.321</ele>
        <time>2014-04-12T09:21:47Z</time>
      </trkpt>
      <trkpt lat="40.651201" lon="-3.729735">
        <ele>774.322</ele>
        <time>2014-04-12T09:21:49Z</time>
      </trkpt>
      <trkpt lat="40.651261" lon="-3.729396">
        <ele>773.341</ele>
        <time>2014-04-12T09:21:52Z</time>
      </trkpt>
      <trkpt lat="40.651275" lon="-3.729083">
        <ele>772.726</ele>
        <time>2014-04-12T09:21:55Z</time>
      </trkpt>
      <trkpt lat="40.651274" lon="-3.728784">
        <ele>771.285</ele>
        <time>2014-04-12T09:21:58Z</time>
      </trkpt>
      <trkpt lat="40.651258" lon="-3.728453">
        <ele>769.167</ele>
        <time>2014-04-12T09:22:01Z</time>
      </trkpt>
      <trkpt lat="40.651243" lon="-3.728153">
        <ele>768.478</ele>
        <time>2014-04-12T09:22:04Z</time>
      </trkpt>
      <trkpt lat="40.651240" lon="-3.727850">
        <ele>768.833</ele>
        <time>2014-04-12T09:22:07Z</time>
      </trkpt>
      <trkpt lat="40.651233" lon="-3.727522">
        <ele>768.226</ele>
        <time>2014-04-12T09:22:10Z</time>
      </trkpt>
      <trkpt lat="40.651213" lon="-3.727183">
        <ele>766.607</ele>
        <time>2014-04-12T09:22:13Z</time>
      </trkpt>
      <trkpt lat="40.651173" lon="-3.726819">
        <ele>764.693</ele>
        <time>2014-04-12T09:22:16Z</time>
      </trkpt>
      <trkpt lat="40.651151" lon="-3.726563">
        <ele>762.622</ele>
        <time>2014-04-12T09:22:18Z</time>
      </trkpt>
      <trkpt lat="40.651138" lon="-3.726316">
        <ele>760.263</ele>
        <time>2014-04-12T09:22:20Z</time>
      </trkpt>
      <trkpt lat="40.651117" lon="-3.725988">
        <ele>757.082</ele>
        <time>2014-04-12T09:22:23Z</time>
      </trkpt>
      <trkpt lat="40.651068" lon="-3.725708">
        <ele>755.057</ele>
        <time>2014-04-12T09:22:26Z</time>
      </trkpt>
      <trkpt lat="40.651020" lon="-3.725437">
        <ele>753.816</ele>
        <time>2014-04-12T09:22:29Z</time>
      </trkpt>
      <trkpt lat="40.650987" lon="-3.725146">
        <ele>751.958</ele>
        <time>2014-04-12T09:22:32Z</time>
      </trkpt>
      <trkpt lat="40.650994" lon="-3.724841">
        <ele>750.139</ele>
        <time>2014-04-12T09:22:35Z</time>
      </trkpt>
      <trkpt lat="40.651034" lon="-3.724530">
        <ele>748.801</ele>
        <time>2014-04-12T09:22:38Z</time>
      </trkpt>
      <trkpt lat="40.651101" lon="-3.724239">
        <ele>748.221</ele>
        <time>2014-04-12T09:22:41Z</time>
      </trkpt>
      <trkpt lat="40.651205" lon="-3.723966">
        <ele>747.507</ele>
        <time>2014-04-12T09:22:44Z</time>
      </trkpt>
      <trkpt lat="40.651241" lon="-3.723691">
        <ele>747.219</ele>
        <time>2014-04-12T09:22:48Z</time>
      </trkpt>
      <trkpt lat="40.651191" lon="-3.723387">
        <ele>745.328</ele>
        <time>2014-04-12T09:22:52Z</time>
      </trkpt>
      <trkpt lat="40.651163" lon="-3.723095">
        <ele>744.139</ele>
        <time>2014-04-12T09:22:56Z</time>
      </trkpt>
      <trkpt lat="40.651232" lon="-3.722836">
        <ele>743.938</ele>
        <time>2014-04-12T09:22:59Z</time>
      </trkpt>
      <trkpt lat="40.651339" lon="-3.722625">
        <ele>743.373</ele>
        <time>2014-04-12T09:23:02Z</time>
      </trkpt>
      <trkpt lat="40.651509" lon="-3.722432">
        <ele>743.542</ele>
        <time>2014-04-12T09:23:05Z</time>
      </trkpt>
      <trkpt lat="40.651657" lon="-3.722205">
        <ele>743.164</ele>
        <time>2014-04-12T09:23:08Z</time>
      </trkpt>
      <trkpt lat="40.651715" lon="-3.721949">
        <ele>743.649</ele>
        <time>2014-04-12T09:23:11Z</time>
      </trkpt>
      <trkpt lat="40.651810" lon="-3.721691">
        <ele>743.602</ele>
        <time>2014-04-12T09:23:14Z</time>
      </trkpt>
      <trkpt lat="40.651942" lon="-3.721436">
        <ele>742.122</ele>
        <time>2014-04-12T09:23:17Z</time>
      </trkpt>
      <trkpt lat="40.652014" lon="-3.721171">
        <ele>740.607</ele>
        <time>2014-04-12T09:23:20Z</time>
      </trkpt>
      <trkpt lat="40.652041" lon="-3.720880">
        <ele>740.440</ele>
        <time>2014-04-12T09:23:23Z</time>
      </trkpt>
      <trkpt lat="40.652126" lon="-3.720618">
        <ele>739.539</ele>
        <time>2014-04-12T09:23:26Z</time>
      </trkpt>
      <trkpt lat="40.652246" lon="-3.720375">
        <ele>738.960</ele>
        <time>2014-04-12T09:23:29Z</time>
      </trkpt>
      <trkpt lat="40.652272" lon="-3.720093">
        <ele>739.339</ele>
        <time>2014-04-12T09:23:32Z</time>
      </trkpt>
      <trkpt lat="40.652226" lon="-3.719809">
        <ele>738.614</ele>
        <time>2014-04-12T09:23:35Z</time>
      </trkpt>
      <trkpt lat="40.652258" lon="-3.719513">
        <ele>738.013</ele>
        <time>2014-04-12T09:23:38Z</time>
      </trkpt>
      <trkpt lat="40.652302" lon="-3.719268">
        <ele>737.535</ele>
        <time>2014-04-12T09:23:41Z</time>
      </trkpt>
      <trkpt lat="40.652240" lon="-3.719003">
        <ele>735.846</ele>
        <time>2014-04-12T09:23:46Z</time>
      </trkpt>
      <trkpt lat="40.652073" lon="-3.718843">
        <ele>734.188</ele>
        <time>2014-04-12T09:23:51Z</time>
      </trkpt>
      <trkpt lat="40.651891" lon="-3.718819">
        <ele>733.216</ele>
        <time>2014-04-12T09:23:55Z</time>
      </trkpt>
      <trkpt lat="40.651696" lon="-3.718847">
        <ele>734.207</ele>
        <time>2014-04-12T09:24:00Z</time>
      </trkpt>
      <trkpt lat="40.651490" lon="-3.718898">
        <ele>734.830</ele>
        <time>2014-04-12T09:24:07Z</time>
      </trkpt>
      <trkpt lat="40.651298" lon="-3.718992">
        <ele>734.129</ele>
        <time>2014-04-12T09:24:12Z</time>
      </trkpt>
      <trkpt lat="40.651140" lon="-3.718875">
        <ele>733.320</ele>
        <time>2014-04-12T09:24:18Z</time>
      </trkpt>
      <trkpt lat="40.651142" lon="-3.718603">
        <ele>734.289</ele>
        <time>2014-04-12T09:24:23Z</time>
      </trkpt>
      <trkpt lat="40.651154" lon="-3.718343">
        <ele>734.074</ele>
        <time>2014-04-12T09:24:28Z</time>
      </trkpt>
      <trkpt lat="40.651123" lon="-3.718099">
        <ele>733.693</ele>
        <time>2014-04-12T09:24:33Z</time>
      </trkpt>
      <trkpt lat="40.651062" lon="-3.717864">
        <ele>733.745</ele>
        <time>2014-04-12T09:24:39Z</time>
      </trkpt>
      <trkpt lat="40.650962" lon="-3.717631">
        <ele>734.232</ele>
        <time>2014-04-12T09:24:46Z</time>
      </trkpt>
      <trkpt lat="40.650765" lon="-3.717662">
        <ele>734.892</ele>
        <time>2014-04-12T09:24:52Z</time>
      </trkpt>
      <trkpt lat="40.650627" lon="-3.717854">
        <ele>735.711</ele>
        <time>2014-04-12T09:24:59Z</time>
      </trkpt>
      <trkpt lat="40.650501" lon="-3.718046">
        <ele>736.607</ele>
        <time>2014-04-12T09:25:05Z</time>
      </trkpt>
      <trkpt lat="40.650324" lon="-3.718167">
        <ele>737.649</ele>
        <time>2014-04-12T09:25:11Z</time>
      </trkpt>
      <trkpt lat="40.650168" lon="-3.718337">
        <ele>738.748</ele>
        <time>2014-04-12T09:25:18Z</time>
      </trkpt>
      <trkpt lat="40.650087" lon="-3.718551">
        <ele>739.569</ele>
        <time>2014-04-12T09:25:24Z</time>
      </trkpt>
      <trkpt lat="40.650010" lon="-3.718788">
        <ele>740.358</ele>
        <time>2014-04-12T09:25:31Z</time>
      </trkpt>
      <trkpt lat="40.649914" lon="-3.719020">
        <ele>741.473</ele>
        <time>2014-04-12T09:25:38Z</time>
      </trkpt>
      <trkpt lat="40.649739" lon="-3.719156">
        <ele>742.812</ele>
        <time>2014-04-12T09:25:46Z</time>
      </trkpt>
      <trkpt lat="40.649541" lon="-3.719096">
        <ele>743.584</ele>
        <time>2014-04-12T09:25:53Z</time>
      </trkpt>
      <trkpt lat="40.649416" lon="-3.718887">
        <ele>744.519</ele>
        <time>2014-04-12T09:26:00Z</time>
      </trkpt>
      <trkpt lat="40.649242" lon="-3.718796">
        <ele>745.409</ele>
        <time>2014-04-12T09:26:07Z</time>
      </trkpt>
      <trkpt lat="40.649075" lon="-3.718915">
        <ele>746.219</ele>
        <time>2014-04-12T09:26:13Z</time>
      </trkpt>
      <trkpt lat="40.649004" lon="-3.719136">
        <ele>747.707</ele>
        <time>2014-04-12T09:26:18Z</time>
      </trkpt>
      <trkpt lat="40.648896" lon="-3.719328">
        <ele>752.697</ele>
        <time>2014-04-12T09:26:23Z</time>
      </trkpt>
      <trkpt lat="40.648719" lon="-3.719401">
        <ele>753.116</ele>
        <time>2014-04-12T09:26:28Z</time>
      </trkpt>
      <trkpt lat="40.648523" lon="-3.719449">
        <ele>752.517</ele>
        <time>2014-04-12T09:26:33Z</time>
      </trkpt>
      <trkpt lat="40.648376" lon="-3.719597">
        <ele>752.176</ele>
        <time>2014-04-12T09:26:37Z</time>
      </trkpt>
      <trkpt lat="40.648183" lon="-3.719701">
        <ele>753.041</ele>
        <time>2014-04-12T09:26:42Z</time>
      </trkpt>
      <trkpt lat="40.647966" lon="-3.719736">
        <ele>751.960</ele>
        <time>2014-04-12T09:26:46Z</time>
      </trkpt>
      <trkpt lat="40.647756" lon="-3.719604">
        <ele>751.432</ele>
        <time>2014-04-12T09:26:50Z</time>
      </trkpt>
      <trkpt lat="40.647611" lon="-3.719377">
        <ele>751.491</ele>
        <time>2014-04-12T09:26:54Z</time>
      </trkpt>
      <trkpt lat="40.647673" lon="-3.719150">
        <ele>750.581</ele>
        <time>2014-04-12T09:26:59Z</time>
      </trkpt>
      <trkpt lat="40.647802" lon="-3.718934">
        <ele>749.919</ele>
        <time>2014-04-12T09:27:04Z</time>
      </trkpt>
      <trkpt lat="40.647894" lon="-3.718709">
        <ele>749.807</ele>
        <time>2014-04-12T09:27:09Z</time>
      </trkpt>
      <trkpt lat="40.647979" lon="-3.718499">
        <ele>749.365</ele>
        <time>2014-04-12T09:27:14Z</time>
      </trkpt>
      <trkpt lat="40.647976" lon="-3.718250">
        <ele>749.214</ele>
        <time>2014-04-12T09:27:20Z</time>
      </trkpt>
      <trkpt lat="40.647802" lon="-3.718152">
        <ele>749.975</ele>
        <time>2014-04-12T09:27:25Z</time>
      </trkpt>
      <trkpt lat="40.647609" lon="-3.718213">
        <ele>749.864</ele>
        <time>2014-04-12T09:27:29Z</time>
      </trkpt>
      <trkpt lat="40.647382" lon="-3.718286">
        <ele>749.959</ele>
        <time>2014-04-12T09:27:33Z</time>
      </trkpt>
      <trkpt lat="40.647219" lon="-3.718111">
        <ele>752.838</ele>
        <time>2014-04-12T09:27:38Z</time>
      </trkpt>
      <trkpt lat="40.647064" lon="-3.717951">
        <ele>756.290</ele>
        <time>2014-04-12T09:27:43Z</time>
      </trkpt>
      <trkpt lat="40.646883" lon="-3.718039">
        <ele>756.312</ele>
        <time>2014-04-12T09:27:47Z</time>
      </trkpt>
      <trkpt lat="40.646728" lon="-3.718190">
        <ele>754.632</ele>
        <time>2014-04-12T09:27:51Z</time>
      </trkpt>
      <trkpt lat="40.646592" lon="-3.718348">
        <ele>753.005</ele>
        <time>2014-04-12T09:27:55Z</time>
      </trkpt>
      <trkpt lat="40.646394" lon="-3.718372">
        <ele>754.307</ele>
        <time>2014-04-12T09:28:00Z</time>
      </trkpt>
      <trkpt lat="40.646307" lon="-3.718160">
        <ele>754.977</ele>
        <time>2014-04-12T09:28:04Z</time>
      </trkpt>
      <trkpt lat="40.646209" lon="-3.717920">
        <ele>754.696</ele>
        <time>2014-04-12T09:28:08Z</time>
      </trkpt>
      <trkpt lat="40.646093" lon="-3.717681">
        <ele>756.437</ele>
        <time>2014-04-12T09:28:13Z</time>
      </trkpt>
      <trkpt lat="40.645964" lon="-3.717477">
        <ele>758.936</ele>
        <time>2014-04-12T09:28:18Z</time>
      </trkpt>
      <trkpt lat="40.645816" lon="-3.717325">
        <ele>761.891</ele>
        <time>2014-04-12T09:28:23Z</time>
      </trkpt>
      <trkpt lat="40.645639" lon="-3.717213">
        <ele>762.560</ele>
        <time>2014-04-12T09:28:28Z</time>
      </trkpt>
      <trkpt lat="40.645449" lon="-3.717188">
        <ele>763.312</ele>
        <time>2014-04-12T09:28:33Z</time>
      </trkpt>
      <trkpt lat="40.645270" lon="-3.717145">
        <ele>762.888</ele>
        <time>2014-04-12T09:28:40Z</time>
      </trkpt>
      <trkpt lat="40.645210" lon="-3.716904">
        <ele>761.924</ele>
        <time>2014-04-12T09:28:45Z</time>
      </trkpt>
      <trkpt lat="40.645137" lon="-3.716641">
        <ele>761.526</ele>
        <time>2014-04-12T09:28:50Z</time>
      </trkpt>
      <trkpt lat="40.645077" lon="-3.716388">
        <ele>761.507</ele>
        <time>2014-04-12T09:28:54Z</time>
      </trkpt>
      <trkpt lat="40.644997" lon="-3.716147">
        <ele>760.884</ele>
        <time>2014-04-12T09:28:58Z</time>
      </trkpt>
      <trkpt lat="40.644920" lon="-3.715927">
        <ele>759.833</ele>
        <time>2014-04-12T09:29:01Z</time>
      </trkpt>
      <trkpt lat="40.644849" lon="-3.715699">
        <ele>759.494</ele>
        <time>2014-04-12T09:29:04Z</time>
      </trkpt>
      <trkpt lat="40.644772" lon="-3.715472">
        <ele>759.083</ele>
        <time>2014-04-12T09:29:07Z</time>
      </trkpt>
      <trkpt lat="40.644689" lon="-3.715244">
        <ele>757.158</ele>
        <time>2014-04-12T09:29:10Z</time>
      </trkpt>
      <trkpt lat="40.644593" lon="-3.715030">
        <ele>754.587</ele>
        <time>2014-04-12T09:29:13Z</time>
      </trkpt>
      <trkpt lat="40.644491" lon="-3.714816">
        <ele>752.759</ele>
        <time>2014-04-12T09:29:16Z</time>
      </trkpt>
      <trkpt lat="40.644390" lon="-3.714595">
        <ele>751.852</ele>
        <time>2014-04-12T09:29:19Z</time>
      </trkpt>
      <trkpt lat="40.644296" lon="-3.714381">
        <ele>751.453</ele>
        <time>2014-04-12T09:29:22Z</time>
      </trkpt>
      <trkpt lat="40.644197" lon="-3.714112">
        <ele>751.908</ele>
        <time>2014-04-12T09:29:26Z</time>
      </trkpt>
      <trkpt lat="40.644111" lon="-3.713886">
        <ele>752.707</ele>
        <time>2014-04-12T09:29:29Z</time>
      </trkpt>
      <trkpt lat="40.643999" lon="-3.713643">
        <ele>752.841</ele>
        <time>2014-04-12T09:29:32Z</time>
      </trkpt>
      <trkpt lat="40.643889" lon="-3.713415">
        <ele>751.930</ele>
        <time>2014-04-12T09:29:35Z</time>
      </trkpt>
      <trkpt lat="40.643789" lon="-3.713173">
        <ele>750.711</ele>
        <time>2014-04-12T09:29:38Z</time>
      </trkpt>
      <trkpt lat="40.643709" lon="-3.712918">
        <ele>750.630</ele>
        <time>2014-04-12T09:29:41Z</time>
      </trkpt>
      <trkpt lat="40.643640" lon="-3.712653">
        <ele>750.525</ele>
        <time>2014-04-12T09:29:44Z</time>
      </trkpt>
      <trkpt lat="40.643567" lon="-3.712393">
        <ele>749.454</ele>
        <time>2014-04-12T09:29:47Z</time>
      </trkpt>
      <trkpt lat="40.643523" lon="-3.712156">
        <ele>748.796</ele>
        <time>2014-04-12T09:29:50Z</time>
      </trkpt>
      <trkpt lat="40.643481" lon="-3.711892">
        <ele>747.017</ele>
        <time>2014-04-12T09:29:53Z</time>
      </trkpt>
      <trkpt lat="40.643456" lon="-3.711648">
        <ele>745.687</ele>
        <time>2014-04-12T09:29:56Z</time>
      </trkpt>
      <trkpt lat="40.643447" lon="-3.711397">
        <ele>745.515</ele>
        <time>2014-04-12T09:29:59Z</time>
      </trkpt>
      <trkpt lat="40.643446" lon="-3.711084">
        <ele>744.507</ele>
        <time>2014-04-12T09:30:03Z</time>
      </trkpt>
      <trkpt lat="40.643444" lon="-3.710840">
        <ele>744.527</ele>
        <time>2014-04-12T09:30:06Z</time>
      </trkpt>
      <trkpt lat="40.643433" lon="-3.710596">
        <ele>745.596</ele>
        <time>2014-04-12T09:30:09Z</time>
      </trkpt>
      <trkpt lat="40.643399" lon="-3.710292">
        <ele>746.547</ele>
        <time>2014-04-12T09:30:13Z</time>
      </trkpt>
      <trkpt lat="40.643358" lon="-3.710055">
        <ele>746.436</ele>
        <time>2014-04-12T09:30:16Z</time>
      </trkpt>
      <trkpt lat="40.643306" lon="-3.709803">
        <ele>746.791</ele>
        <time>2014-04-12T09:30:19Z</time>
      </trkpt>
      <trkpt lat="40.643236" lon="-3.709566">
        <ele>747.160</ele>
        <time>2014-04-12T09:30:22Z</time>
      </trkpt>
      <trkpt lat="40.643161" lon="-3.709338">
        <ele>746.542</ele>
        <time>2014-04-12T09:30:25Z</time>
      </trkpt>
      <trkpt lat="40.643052" lon="-3.709077">
        <ele>746.489</ele>
        <time>2014-04-12T09:30:29Z</time>
      </trkpt>
      <trkpt lat="40.642938" lon="-3.708823">
        <ele>745.706</ele>
        <time>2014-04-12T09:30:32Z</time>
      </trkpt>
      <trkpt lat="40.642828" lon="-3.708546">
        <ele>745.226</ele>
        <time>2014-04-12T09:30:35Z</time>
      </trkpt>
      <trkpt lat="40.642702" lon="-3.708280">
        <ele>743.607</ele>
        <time>2014-04-12T09:30:38Z</time>
      </trkpt>
      <trkpt lat="40.642523" lon="-3.708100">
        <ele>741.714</ele>
        <time>2014-04-12T09:30:41Z</time>
      </trkpt>
      <trkpt lat="40.642324" lon="-3.707962">
        <ele>740.923</ele>
        <time>2014-04-12T09:30:44Z</time>
      </trkpt>
      <trkpt lat="40.642141" lon="-3.707844">
        <ele>739.734</ele>
        <time>2014-04-12T09:30:47Z</time>
      </trkpt>
      <trkpt lat="40.641965" lon="-3.707688">
        <ele>739.533</ele>
        <time>2014-04-12T09:30:50Z</time>
      </trkpt>
      <trkpt lat="40.641810" lon="-3.707513">
        <ele>738.338</ele>
        <time>2014-04-12T09:30:53Z</time>
      </trkpt>
      <trkpt lat="40.641651" lon="-3.707282">
        <ele>738.127</ele>
        <time>2014-04-12T09:30:57Z</time>
      </trkpt>
      <trkpt lat="40.641514" lon="-3.707090">
        <ele>737.859</ele>
        <time>2014-04-12T09:31:00Z</time>
      </trkpt>
      <trkpt lat="40.641361" lon="-3.706863">
        <ele>737.935</ele>
        <time>2014-04-12T09:31:04Z</time>
      </trkpt>
      <trkpt lat="40.641246" lon="-3.706665">
        <ele>737.886</ele>
        <time>2014-04-12T09:31:07Z</time>
      </trkpt>
      <trkpt lat="40.641145" lon="-3.706398">
        <ele>736.814</ele>
        <time>2014-04-12T09:31:11Z</time>
      </trkpt>
      <trkpt lat="40.641147" lon="-3.706120">
        <ele>735.807</ele>
        <time>2014-04-12T09:31:15Z</time>
      </trkpt>
      <trkpt lat="40.641193" lon="-3.705828">
        <ele>735.379</ele>
        <time>2014-04-12T09:31:19Z</time>
      </trkpt>
      <trkpt lat="40.641236" lon="-3.705578">
        <ele>735.748</ele>
        <time>2014-04-12T09:31:23Z</time>
      </trkpt>
      <trkpt lat="40.641278" lon="-3.705343">
        <ele>736.299</ele>
        <time>2014-04-12T09:31:27Z</time>
      </trkpt>
      <trkpt lat="40.641325" lon="-3.705105">
        <ele>737.328</ele>
        <time>2014-04-12T09:31:31Z</time>
      </trkpt>
      <trkpt lat="40.641379" lon="-3.704877">
        <ele>737.533</ele>
        <time>2014-04-12T09:31:35Z</time>
      </trkpt>
      <trkpt lat="40.641431" lon="-3.704602">
        <ele>738.152</ele>
        <time>2014-04-12T09:31:40Z</time>
      </trkpt>
      <trkpt lat="40.641487" lon="-3.704314">
        <ele>736.434</ele>
        <time>2014-04-12T09:31:45Z</time>
      </trkpt>
      <trkpt lat="40.641506" lon="-3.704014">
        <ele>737.279</ele>
        <time>2014-04-12T09:31:50Z</time>
      </trkpt>
      <trkpt lat="40.641541" lon="-3.703726">
        <ele>737.005</ele>
        <time>2014-04-12T09:31:54Z</time>
      </trkpt>
      <trkpt lat="40.641669" lon="-3.703493">
        <ele>735.325</ele>
        <time>2014-04-12T09:31:58Z</time>
      </trkpt>
      <trkpt lat="40.641842" lon="-3.703303">
        <ele>733.107</ele>
        <time>2014-04-12T09:32:02Z</time>
      </trkpt>
      <trkpt lat="40.641949" lon="-3.703028">
        <ele>732.373</ele>
        <time>2014-04-12T09:32:06Z</time>
      </trkpt>
      <trkpt lat="40.642107" lon="-3.702828">
        <ele>730.922</ele>
        <time>2014-04-12T09:32:10Z</time>
      </trkpt>
      <trkpt lat="40.642228" lon="-3.702596">
        <ele>729.683</ele>
        <time>2014-04-12T09:32:14Z</time>
      </trkpt>
      <trkpt lat="40.642362" lon="-3.702404">
        <ele>728.152</ele>
        <time>2014-04-12T09:32:18Z</time>
      </trkpt>
      <trkpt lat="40.642491" lon="-3.702161">
        <ele>728.167</ele>
        <time>2014-04-12T09:32:22Z</time>
      </trkpt>
      <trkpt lat="40.642646" lon="-3.701960">
        <ele>728.616</ele>
        <time>2014-04-12T09:32:26Z</time>
      </trkpt>
      <trkpt lat="40.642818" lon="-3.701773">
        <ele>730.298</ele>
        <time>2014-04-12T09:32:30Z</time>
      </trkpt>
      <trkpt lat="40.642965" lon="-3.701630">
        <ele>731.231</ele>
        <time>2014-04-12T09:32:34Z</time>
      </trkpt>
      <trkpt lat="40.643091" lon="-3.701427">
        <ele>732.161</ele>
        <time>2014-04-12T09:32:39Z</time>
      </trkpt>
      <trkpt lat="40.643164" lon="-3.701145">
        <ele>731.007</ele>
        <time>2014-04-12T09:32:44Z</time>
      </trkpt>
      <trkpt lat="40.643116" lon="-3.700878">
        <ele>729.607</ele>
        <time>2014-04-12T09:32:48Z</time>
      </trkpt>
      <trkpt lat="40.643034" lon="-3.700579">
        <ele>728.149</ele>
        <time>2014-04-12T09:32:52Z</time>
      </trkpt>
      <trkpt lat="40.642968" lon="-3.700357">
        <ele>727.638</ele>
        <time>2014-04-12T09:32:55Z</time>
      </trkpt>
      <trkpt lat="40.642885" lon="-3.700067">
        <ele>727.819</ele>
        <time>2014-04-12T09:32:59Z</time>
      </trkpt>
      <trkpt lat="40.642868" lon="-3.699828">
        <ele>727.498</ele>
        <time>2014-04-12T09:33:02Z</time>
      </trkpt>
      <trkpt lat="40.642838" lon="-3.699583">
        <ele>726.953</ele>
        <time>2014-04-12T09:33:05Z</time>
      </trkpt>
      <trkpt lat="40.642804" lon="-3.699335">
        <ele>725.422</ele>
        <time>2014-04-12T09:33:08Z</time>
      </trkpt>
      <trkpt lat="40.642787" lon="-3.699074">
        <ele>723.524</ele>
        <time>2014-04-12T09:33:11Z</time>
      </trkpt>
      <trkpt lat="40.642789" lon="-3.698821">
        <ele>723.093</ele>
        <time>2014-04-12T09:33:14Z</time>
      </trkpt>
      <trkpt lat="40.642805" lon="-3.698556">
        <ele>723.565</ele>
        <time>2014-04-12T09:33:17Z</time>
      </trkpt>
      <trkpt lat="40.642844" lon="-3.698277">
        <ele>723.621</ele>
        <time>2014-04-12T09:33:20Z</time>
      </trkpt>
      <trkpt lat="40.642870" lon="-3.697990">
        <ele>722.507</ele>
        <time>2014-04-12T09:33:23Z</time>
      </trkpt>
      <trkpt lat="40.642890" lon="-3.697708">
        <ele>721.355</ele>
        <time>2014-04-12T09:33:26Z</time>
      </trkpt>
      <trkpt lat="40.642903" lon="-3.697425">
        <ele>720.434</ele>
        <time>2014-04-12T09:33:29Z</time>
      </trkpt>
      <trkpt lat="40.642915" lon="-3.697116">
        <ele>718.765</ele>
        <time>2014-04-12T09:33:32Z</time>
      </trkpt>
      <trkpt lat="40.642898" lon="-3.696806">
        <ele>716.634</ele>
        <time>2014-04-12T09:33:35Z</time>
      </trkpt>
      <trkpt lat="40.642888" lon="-3.696520">
        <ele>715.319</ele>
        <time>2014-04-12T09:33:38Z</time>
      </trkpt>
      <trkpt lat="40.642883" lon="-3.696233">
        <ele>714.898</ele>
        <time>2014-04-12T09:33:41Z</time>
      </trkpt>
      <trkpt lat="40.642892" lon="-3.695967">
        <ele>714.330</ele>
        <time>2014-04-12T09:33:44Z</time>
      </trkpt>
      <trkpt lat="40.642914" lon="-3.695696">
        <ele>714.236</ele>
        <time>2014-04-12T09:33:47Z</time>
      </trkpt>
      <trkpt lat="40.642928" lon="-3.695452">
        <ele>714.017</ele>
        <time>2014-04-12T09:33:50Z</time>
      </trkpt>
      <trkpt lat="40.642927" lon="-3.695167">
        <ele>713.718</ele>
        <time>2014-04-12T09:33:53Z</time>
      </trkpt>
      <trkpt lat="40.642894" lon="-3.694879">
        <ele>712.907</ele>
        <time>2014-04-12T09:33:56Z</time>
      </trkpt>
      <trkpt lat="40.642774" lon="-3.694600">
        <ele>710.319</ele>
        <time>2014-04-12T09:33:59Z</time>
      </trkpt>
      <trkpt lat="40.642614" lon="-3.694315">
        <ele>706.728</ele>
        <time>2014-04-12T09:34:02Z</time>
      </trkpt>
      <trkpt lat="40.642505" lon="-3.694002">
        <ele>702.019</ele>
        <time>2014-04-12T09:34:05Z</time>
      </trkpt>
      <trkpt lat="40.642460" lon="-3.693746">
        <ele>699.418</ele>
        <time>2014-04-12T09:34:07Z</time>
      </trkpt>
      <trkpt lat="40.642447" lon="-3.693487">
        <ele>697.353</ele>
        <time>2014-04-12T09:34:09Z</time>
      </trkpt>
      <trkpt lat="40.642476" lon="-3.693230">
        <ele>695.222</ele>
        <time>2014-04-12T09:34:11Z</time>
      </trkpt>
      <trkpt lat="40.642578" lon="-3.692956">
        <ele>693.044</ele>
        <time>2014-04-12T09:34:14Z</time>
      </trkpt>
      <trkpt lat="40.642682" lon="-3.692728">
        <ele>690.569</ele>
        <time>2014-04-12T09:34:17Z</time>
      </trkpt>
      <trkpt lat="40.642681" lon="-3.692474">
        <ele>687.704</ele>
        <time>2014-04-12T09:34:20Z</time>
      </trkpt>
      <trkpt lat="40.642678" lon="-3.692165">
        <ele>685.624</ele>
        <time>2014-04-12T09:34:24Z</time>
      </trkpt>
      <trkpt lat="40.642645" lon="-3.691871">
        <ele>685.407</ele>
        <time>2014-04-12T09:34:28Z</time>
      </trkpt>
      <trkpt lat="40.642542" lon="-3.691640">
        <ele>687.222</ele>
        <time>2014-04-12T09:34:33Z</time>
      </trkpt>
      <trkpt lat="40.642421" lon="-3.691435">
        <ele>687.461</ele>
        <time>2014-04-12T09:34:38Z</time>
      </trkpt>
      <trkpt lat="40.642274" lon="-3.691252">
        <ele>688.382</ele>
        <time>2014-04-12T09:34:43Z</time>
      </trkpt>
      <trkpt lat="40.642231" lon="-3.690980">
        <ele>687.941</ele>
        <time>2014-04-12T09:34:49Z</time>
      </trkpt>
      <trkpt lat="40.642303" lon="-3.690742">
        <ele>688.536</ele>
        <time>2014-04-12T09:34:55Z</time>
      </trkpt>
      <trkpt lat="40.642359" lon="-3.690505">
        <ele>688.475</ele>
        <time>2014-04-12T09:35:01Z</time>
      </trkpt>
      <trkpt lat="40.642413" lon="-3.690254">
        <ele>688.587</ele>
        <time>2014-04-12T09:35:08Z</time>
      </trkpt>
      <trkpt lat="40.642464" lon="-3.689982">
        <ele>688.855</ele>
        <time>2014-04-12T09:35:15Z</time>
      </trkpt>
      <trkpt lat="40.642500" lon="-3.689724">
        <ele>688.607</ele>
        <time>2014-04-12T09:35:21Z</time>
      </trkpt>
      <trkpt lat="40.642546" lon="-3.689478">
        <ele>689.617</ele>
        <time>2014-04-12T09:35:29Z</time>
      </trkpt>
      <trkpt lat="40.642635" lon="-3.689232">
        <ele>690.307</ele>
        <time>2014-04-12T09:35:36Z</time>
      </trkpt>
      <trkpt lat="40.642816" lon="-3.689132">
        <ele>690.951</ele>
        <time>2014-04-12T09:35:43Z</time>
      </trkpt>
      <trkpt lat="40.642999" lon="-3.689062">
        <ele>691.390</ele>
        <time>2014-04-12T09:35:52Z</time>
      </trkpt>
      <trkpt lat="40.643147" lon="-3.688918">
        <ele>691.941</ele>
        <time>2014-04-12T09:36:00Z</time>
      </trkpt>
      <trkpt lat="40.643287" lon="-3.688729">
        <ele>692.640</ele>
        <time>2014-04-12T09:36:09Z</time>
      </trkpt>
      <trkpt lat="40.643411" lon="-3.688525">
        <ele>693.565</ele>
        <time>2014-04-12T09:36:18Z</time>
      </trkpt>
      <trkpt lat="40.643515" lon="-3.688304">
        <ele>694.734</ele>
        <time>2014-04-12T09:36:27Z</time>
      </trkpt>
      <trkpt lat="40.643583" lon="-3.688080">
        <ele>695.596</ele>
        <time>2014-04-12T09:36:35Z</time>
      </trkpt>
      <trkpt lat="40.643621" lon="-3.687848">
        <ele>696.613</ele>
        <time>2014-04-12T09:36:43Z</time>
      </trkpt>
      <trkpt lat="40.643631" lon="-3.687611">
        <ele>697.943</ele>
        <time>2014-04-12T09:36:51Z</time>
      </trkpt>
      <trkpt lat="40.643627" lon="-3.687369">
        <ele>698.807</ele>
        <time>2014-04-12T09:37:01Z</time>
      </trkpt>
      <trkpt lat="40.643612" lon="-3.687131">
        <ele>700.507</ele>
        <time>2014-04-12T09:37:10Z</time>
      </trkpt>
      <trkpt lat="40.643594" lon="-3.686882">
        <ele>702.167</ele>
        <time>2014-04-12T09:37:21Z</time>
      </trkpt>
      <trkpt lat="40.643583" lon="-3.686639">
        <ele>703.966</ele>
        <time>2014-04-12T09:37:31Z</time>
      </trkpt>
      <trkpt lat="40.643562" lon="-3.686392">
        <ele>706.327</ele>
        <time>2014-04-12T09:37:42Z</time>
      </trkpt>
      <trkpt lat="40.643556" lon="-3.686154">
        <ele>709.226</ele>
        <time>2014-04-12T09:37:53Z</time>
      </trkpt>
      <trkpt lat="40.643547" lon="-3.685891">
        <ele>711.481</ele>
        <time>2014-04-12T09:38:04Z</time>
      </trkpt>
      <trkpt lat="40.643511" lon="-3.685655">
        <ele>713.970</ele>
        <time>2014-04-12T09:38:15Z</time>
      </trkpt>
      <trkpt lat="40.643464" lon="-3.685403">
        <ele>716.612</ele>
        <time>2014-04-12T09:38:25Z</time>
      </trkpt>
      <trkpt lat="40.643427" lon="-3.685158">
        <ele>717.865</ele>
        <time>2014-04-12T09:38:34Z</time>
      </trkpt>
      <trkpt lat="40.643388" lon="-3.684913">
        <ele>718.568</ele>
        <time>2014-04-12T09:38:44Z</time>
      </trkpt>
      <trkpt lat="40.643362" lon="-3.684679">
        <ele>719.414</ele>
        <time>2014-04-12T09:38:54Z</time>
      </trkpt>
      <trkpt lat="40.643322" lon="-3.684444">
        <ele>720.507</ele>
        <time>2014-04-12T09:39:04Z</time>
      </trkpt>
      <trkpt lat="40.643245" lon="-3.684205">
        <ele>722.842</ele>
        <time>2014-04-12T09:39:15Z</time>
      </trkpt>
      <trkpt lat="40.643265" lon="-3.683953">
        <ele>724.821</ele>
        <time>2014-04-12T09:39:24Z</time>
      </trkpt>
      <trkpt lat="40.643348" lon="-3.683714">
        <ele>725.652</ele>
        <time>2014-04-12T09:39:32Z</time>
      </trkpt>
      <trkpt lat="40.643456" lon="-3.683503">
        <ele>726.211</ele>
        <time>2014-04-12T09:39:40Z</time>
      </trkpt>
      <trkpt lat="40.643569" lon="-3.683266">
        <ele>727.746</ele>
        <time>2014-04-12T09:39:49Z</time>
      </trkpt>
      <trkpt lat="40.643681" lon="-3.683071">
        <ele>727.895</ele>
        <time>2014-04-12T09:39:53Z</time>
      </trkpt>
      <trkpt lat="40.643782" lon="-3.682871">
        <ele>727.647</ele>
        <time>2014-04-12T09:39:56Z</time>
      </trkpt>
      <trkpt lat="40.643880" lon="-3.682664">
        <ele>727.736</ele>
        <time>2014-04-12T09:39:59Z</time>
      </trkpt>
      <trkpt lat="40.643987" lon="-3.682417">
        <ele>727.717</ele>
        <time>2014-04-12T09:40:03Z</time>
      </trkpt>
      <trkpt lat="40.644097" lon="-3.682175">
        <ele>728.818</ele>
        <time>2014-04-12T09:40:08Z</time>
      </trkpt>
      <trkpt lat="40.644217" lon="-3.681962">
        <ele>730.407</ele>
        <time>2014-04-12T09:40:13Z</time>
      </trkpt>
      <trkpt lat="40.644351" lon="-3.681792">
        <ele>731.159</ele>
        <time>2014-04-12T09:40:18Z</time>
      </trkpt>
      <trkpt lat="40.644488" lon="-3.681624">
        <ele>731.148</ele>
        <time>2014-04-12T09:40:23Z</time>
      </trkpt>
      <trkpt lat="40.644622" lon="-3.681444">
        <ele>731.489</ele>
        <time>2014-04-12T09:40:28Z</time>
      </trkpt>
      <trkpt lat="40.644729" lon="-3.681201">
        <ele>732.588</ele>
        <time>2014-04-12T09:40:33Z</time>
      </trkpt>
      <trkpt lat="40.644801" lon="-3.680978">
        <ele>732.153</ele>
        <time>2014-04-12T09:40:37Z</time>
      </trkpt>
      <trkpt lat="40.644867" lon="-3.680728">
        <ele>731.162</ele>
        <time>2014-04-12T09:40:41Z</time>
      </trkpt>
      <trkpt lat="40.644886" lon="-3.680487">
        <ele>729.394</ele>
        <time>2014-04-12T09:40:45Z</time>
      </trkpt>
      <trkpt lat="40.644881" lon="-3.680240">
        <ele>729.336</ele>
        <time>2014-04-12T09:40:49Z</time>
      </trkpt>
      <trkpt lat="40.644899" lon="-3.679987">
        <ele>729.917</ele>
        <time>2014-04-12T09:40:53Z</time>
      </trkpt>
      <trkpt lat="40.644935" lon="-3.679748">
        <ele>728.818</ele>
        <time>2014-04-12T09:40:57Z</time>
      </trkpt>
      <trkpt lat="40.644994" lon="-3.679468">
        <ele>727.007</ele>
        <time>2014-04-12T09:41:02Z</time>
      </trkpt>
      <trkpt lat="40.645070" lon="-3.679185">
        <ele>727.549</ele>
        <time>2014-04-12T09:41:07Z</time>
      </trkpt>
      <trkpt lat="40.645100" lon="-3.678947">
        <ele>726.988</ele>
        <time>2014-04-12T09:41:10Z</time>
      </trkpt>
      <trkpt lat="40.645117" lon="-3.678683">
        <ele>726.469</ele>
        <time>2014-04-12T09:41:13Z</time>
      </trkpt>
      <trkpt lat="40.645103" lon="-3.678402">
        <ele>725.678</ele>
        <time>2014-04-12T09:41:16Z</time>
      </trkpt>
      <trkpt lat="40.645089" lon="-3.678112">
        <ele>724.893</ele>
        <time>2014-04-12T09:41:19Z</time>
      </trkpt>
      <trkpt lat="40.645093" lon="-3.677820">
        <ele>724.382</ele>
        <time>2014-04-12T09:41:22Z</time>
      </trkpt>
      <trkpt lat="40.645134" lon="-3.677576">
        <ele>724.594</ele>
        <time>2014-04-12T09:41:25Z</time>
      </trkpt>
      <trkpt lat="40.645195" lon="-3.677337">
        <ele>724.041</ele>
        <time>2014-04-12T09:41:28Z</time>
      </trkpt>
      <trkpt lat="40.645259" lon="-3.677096">
        <ele>723.081</ele>
        <time>2014-04-12T09:41:31Z</time>
      </trkpt>
      <trkpt lat="40.645318" lon="-3.676863">
        <ele>721.309</ele>
        <time>2014-04-12T09:41:34Z</time>
      </trkpt>
      <trkpt lat="40.645389" lon="-3.676625">
        <ele>719.607</ele>
        <time>2014-04-12T09:41:37Z</time>
      </trkpt>
      <trkpt lat="40.645476" lon="-3.676381">
        <ele>717.760</ele>
        <time>2014-04-12T09:41:40Z</time>
      </trkpt>
      <trkpt lat="40.645570" lon="-3.676156">
        <ele>716.099</ele>
        <time>2014-04-12T09:41:43Z</time>
      </trkpt>
      <trkpt lat="40.645682" lon="-3.675890">
        <ele>713.940</ele>
        <time>2014-04-12T09:41:47Z</time>
      </trkpt>
      <trkpt lat="40.645755" lon="-3.675617">
        <ele>715.459</ele>
        <time>2014-04-12T09:41:51Z</time>
      </trkpt>
      <trkpt lat="40.645782" lon="-3.675355">
        <ele>716.414</ele>
        <time>2014-04-12T09:41:55Z</time>
      </trkpt>
      <trkpt lat="40.645819" lon="-3.675071">
        <ele>717.043</ele>
        <time>2014-04-12T09:41:59Z</time>
      </trkpt>
      <trkpt lat="40.645864" lon="-3.674772">
        <ele>717.145</ele>
        <time>2014-04-12T09:42:03Z</time>
      </trkpt>
      <trkpt lat="40.645905" lon="-3.674500">
        <ele>717.445</ele>
        <time>2014-04-12T09:42:07Z</time>
      </trkpt>
      <trkpt lat="40.645937" lon="-3.674258">
        <ele>717.347</ele>
        <time>2014-04-12T09:42:11Z</time>
      </trkpt>
      <trkpt lat="40.645962" lon="-3.673971">
        <ele>716.411</ele>
        <time>2014-04-12T09:42:15Z</time>
      </trkpt>
      <trkpt lat="40.645960" lon="-3.673724">
        <ele>715.707</ele>
        <time>2014-04-12T09:42:18Z</time>
      </trkpt>
      <trkpt lat="40.645969" lon="-3.673424">
        <ele>715.890</ele>
        <time>2014-04-12T09:42:22Z</time>
      </trkpt>
      <trkpt lat="40.645976" lon="-3.673134">
        <ele>715.919</ele>
        <time>2014-04-12T09:42:26Z</time>
      </trkpt>
      <trkpt lat="40.645982" lon="-3.672891">
        <ele>716.140</ele>
        <time>2014-04-12T09:42:29Z</time>
      </trkpt>
      <trkpt lat="40.645998" lon="-3.672654">
        <ele>715.059</ele>
        <time>2014-04-12T09:42:32Z</time>
      </trkpt>
      <trkpt lat="40.646033" lon="-3.672365">
        <ele>712.934</ele>
        <time>2014-04-12T09:42:35Z</time>
      </trkpt>
      <trkpt lat="40.646082" lon="-3.672099">
        <ele>711.053</ele>
        <time>2014-04-12T09:42:38Z</time>
      </trkpt>
      <trkpt lat="40.646121" lon="-3.671817">
        <ele>709.815</ele>
        <time>2014-04-12T09:42:41Z</time>
      </trkpt>
      <trkpt lat="40.646155" lon="-3.671538">
        <ele>708.157</ele>
        <time>2014-04-12T09:42:44Z</time>
      </trkpt>
      <trkpt lat="40.646187" lon="-3.671238">
        <ele>708.400</ele>
        <time>2014-04-12T09:42:47Z</time>
      </trkpt>
      <trkpt lat="40.646215" lon="-3.670926">
        <ele>708.320</ele>
        <time>2014-04-12T09:42:50Z</time>
      </trkpt>
      <trkpt lat="40.646258" lon="-3.670591">
        <ele>707.407</ele>
        <time>2014-04-12T09:42:53Z</time>
      </trkpt>
      <trkpt lat="40.646297" lon="-3.670354">
        <ele>705.851</ele>
        <time>2014-04-12T09:42:55Z</time>
      </trkpt>
      <trkpt lat="40.646344" lon="-3.670114">
        <ele>704.580</ele>
        <time>2014-04-12T09:42:57Z</time>
      </trkpt>
      <trkpt lat="40.646398" lon="-3.669885">
        <ele>702.971</ele>
        <time>2014-04-12T09:42:59Z</time>
      </trkpt>
      <trkpt lat="40.646457" lon="-3.669655">
        <ele>701.250</ele>
        <time>2014-04-12T09:43:01Z</time>
      </trkpt>
      <trkpt lat="40.646519" lon="-3.669424">
        <ele>699.485</ele>
        <time>2014-04-12T09:43:03Z</time>
      </trkpt>
      <trkpt lat="40.646609" lon="-3.669081">
        <ele>697.924</ele>
        <time>2014-04-12T09:43:06Z</time>
      </trkpt>
      <trkpt lat="40.646677" lon="-3.668825">
        <ele>697.026</ele>
        <time>2014-04-12T09:43:08Z</time>
      </trkpt>
      <trkpt lat="40.646743" lon="-3.668558">
        <ele>695.896</ele>
        <time>2014-04-12T09:43:10Z</time>
      </trkpt>
      <trkpt lat="40.646792" lon="-3.668299">
        <ele>694.231</ele>
        <time>2014-04-12T09:43:12Z</time>
      </trkpt>
      <trkpt lat="40.646834" lon="-3.668033">
        <ele>692.624</ele>
        <time>2014-04-12T09:43:14Z</time>
      </trkpt>
      <trkpt lat="40.646867" lon="-3.667781">
        <ele>691.307</ele>
        <time>2014-04-12T09:43:16Z</time>
      </trkpt>
      <trkpt lat="40.646899" lon="-3.667529">
        <ele>690.265</ele>
        <time>2014-04-12T09:43:18Z</time>
      </trkpt>
      <trkpt lat="40.646919" lon="-3.667285">
        <ele>689.334</ele>
        <time>2014-04-12T09:43:20Z</time>
      </trkpt>
      <trkpt lat="40.646934" lon="-3.666934">
        <ele>687.615</ele>
        <time>2014-04-12T09:43:23Z</time>
      </trkpt>
      <trkpt lat="40.646919" lon="-3.666594">
        <ele>685.924</ele>
        <time>2014-04-12T09:43:26Z</time>
      </trkpt>
      <trkpt lat="40.646972" lon="-3.666283">
        <ele>684.729</ele>
        <time>2014-04-12T09:43:29Z</time>
      </trkpt>
      <trkpt lat="40.647027" lon="-3.666006">
        <ele>683.238</ele>
        <time>2014-04-12T09:43:32Z</time>
      </trkpt>
      <trkpt lat="40.647052" lon="-3.665728">
        <ele>682.170</ele>
        <time>2014-04-12T09:43:35Z</time>
      </trkpt>
      <trkpt lat="40.647060" lon="-3.665438">
        <ele>682.324</ele>
        <time>2014-04-12T09:43:38Z</time>
      </trkpt>
      <trkpt lat="40.647012" lon="-3.665149">
        <ele>681.704</ele>
        <time>2014-04-12T09:43:41Z</time>
      </trkpt>
      <trkpt lat="40.646938" lon="-3.664903">
        <ele>679.714</ele>
        <time>2014-04-12T09:43:44Z</time>
      </trkpt>
      <trkpt lat="40.646868" lon="-3.664661">
        <ele>678.307</ele>
        <time>2014-04-12T09:43:47Z</time>
      </trkpt>
      <trkpt lat="40.646802" lon="-3.664371">
        <ele>677.748</ele>
        <time>2014-04-12T09:43:51Z</time>
      </trkpt>
      <trkpt lat="40.646744" lon="-3.664136">
        <ele>677.647</ele>
        <time>2014-04-12T09:43:55Z</time>
      </trkpt>
      <trkpt lat="40.646711" lon="-3.663865">
        <ele>679.048</ele>
        <time>2014-04-12T09:44:00Z</time>
      </trkpt>
      <trkpt lat="40.646748" lon="-3.663607">
        <ele>679.877</ele>
        <time>2014-04-12T09:44:04Z</time>
      </trkpt>
      <trkpt lat="40.646772" lon="-3.663351">
        <ele>680.142</ele>
        <time>2014-04-12T09:44:08Z</time>
      </trkpt>
      <trkpt lat="40.646730" lon="-3.663073">
        <ele>680.361</ele>
        <time>2014-04-12T09:44:12Z</time>
      </trkpt>
      <trkpt lat="40.646688" lon="-3.662816">
        <ele>677.513</ele>
        <time>2014-04-12T09:44:16Z</time>
      </trkpt>
      <trkpt lat="40.646647" lon="-3.662562">
        <ele>675.831</ele>
        <time>2014-04-12T09:44:20Z</time>
      </trkpt>
      <trkpt lat="40.646586" lon="-3.662309">
        <ele>676.261</ele>
        <time>2014-04-12T09:44:24Z</time>
      </trkpt>
      <trkpt lat="40.646511" lon="-3.662040">
        <ele>676.607</ele>
        <time>2014-04-12T09:44:28Z</time>
      </trkpt>
      <trkpt lat="40.646447" lon="-3.661793">
        <ele>676.907</ele>
        <time>2014-04-12T09:44:32Z</time>
      </trkpt>
      <trkpt lat="40.646403" lon="-3.661513">
        <ele>677.699</ele>
        <time>2014-04-12T09:44:36Z</time>
      </trkpt>
      <trkpt lat="40.646386" lon="-3.661276">
        <ele>677.898</ele>
        <time>2014-04-12T09:44:39Z</time>
      </trkpt>
      <trkpt lat="40.646417" lon="-3.660999">
        <ele>675.979</ele>
        <time>2014-04-12T09:44:43Z</time>
      </trkpt>
      <trkpt lat="40.646502" lon="-3.660739">
        <ele>674.468</ele>
        <time>2014-04-12T09:44:47Z</time>
      </trkpt>
      <trkpt lat="40.646590" lon="-3.660521">
        <ele>674.113</ele>
        <time>2014-04-12T09:44:51Z</time>
      </trkpt>
      <trkpt lat="40.646711" lon="-3.660323">
        <ele>675.432</ele>
        <time>2014-04-12T09:44:55Z</time>
      </trkpt>
      <trkpt lat="40.646757" lon="-3.660089">
        <ele>674.484</ele>
        <time>2014-04-12T09:44:59Z</time>
      </trkpt>
      <trkpt lat="40.646646" lon="-3.659874">
        <ele>672.418</ele>
        <time>2014-04-12T09:45:03Z</time>
      </trkpt>
      <trkpt lat="40.646567" lon="-3.659620">
        <ele>670.798</ele>
        <time>2014-04-12T09:45:09Z</time>
      </trkpt>
      <trkpt lat="40.646580" lon="-3.659381">
        <ele>671.317</ele>
        <time>2014-04-12T09:45:14Z</time>
      </trkpt>
      <trkpt lat="40.646610" lon="-3.659128">
        <ele>672.307</ele>
        <time>2014-04-12T09:45:19Z</time>
      </trkpt>
      <trkpt lat="40.646657" lon="-3.658878">
        <ele>672.167</ele>
        <time>2014-04-12T09:45:24Z</time>
      </trkpt>
      <trkpt lat="40.646679" lon="-3.658605">
        <ele>672.376</ele>
        <time>2014-04-12T09:45:30Z</time>
      </trkpt>
      <trkpt lat="40.646705" lon="-3.658340">
        <ele>672.697</ele>
        <time>2014-04-12T09:45:36Z</time>
      </trkpt>
      <trkpt lat="40.646750" lon="-3.658084">
        <ele>672.946</ele>
        <time>2014-04-12T09:45:43Z</time>
      </trkpt>
      <trkpt lat="40.646772" lon="-3.657832">
        <ele>674.031</ele>
        <time>2014-04-12T09:45:52Z</time>
      </trkpt>
      <trkpt lat="40.646789" lon="-3.657591">
        <ele>675.240</ele>
        <time>2014-04-12T09:46:00Z</time>
      </trkpt>
      <trkpt lat="40.646790" lon="-3.657345">
        <ele>676.492</ele>
        <time>2014-04-12T09:46:08Z</time>
      </trkpt>
      <trkpt lat="40.646787" lon="-3.657088">
        <ele>677.988</ele>
        <time>2014-04-12T09:46:17Z</time>
      </trkpt>
      <trkpt lat="40.646797" lon="-3.656833">
        <ele>679.024</ele>
        <time>2014-04-12T09:46:25Z</time>
      </trkpt>
      <trkpt lat="40.646791" lon="-3.656590">
        <ele>680.126</ele>
        <time>2014-04-12T09:46:33Z</time>
      </trkpt>
      <trkpt lat="40.646814" lon="-3.656354">
        <ele>681.207</ele>
        <time>2014-04-12T09:46:42Z</time>
      </trkpt>
      <trkpt lat="40.646892" lon="-3.656114">
        <ele>682.854</ele>
        <time>2014-04-12T09:46:52Z</time>
      </trkpt>
      <trkpt lat="40.647046" lon="-3.655975">
        <ele>685.133</ele>
        <time>2014-04-12T09:47:02Z</time>
      </trkpt>
      <trkpt lat="40.647168" lon="-3.655794">
        <ele>687.364</ele>
        <time>2014-04-12T09:47:12Z</time>
      </trkpt>
      <trkpt lat="40.647257" lon="-3.655589">
        <ele>689.083</ele>
        <time>2014-04-12T09:47:22Z</time>
      </trkpt>
      <trkpt lat="40.647351" lon="-3.655382">
        <ele>691.328</ele>
        <time>2014-04-12T09:47:32Z</time>
      </trkpt>
      <trkpt lat="40.647449" lon="-3.655169">
        <ele>693.027</ele>
        <time>2014-04-12T09:47:41Z</time>
      </trkpt>
      <trkpt lat="40.647466" lon="-3.654922">
        <ele>694.349</ele>
        <time>2014-04-12T09:47:50Z</time>
      </trkpt>
      <trkpt lat="40.647416" lon="-3.654683">
        <ele>695.463</ele>
        <time>2014-04-12T09:47:59Z</time>
      </trkpt>
      <trkpt lat="40.647310" lon="-3.654481">
        <ele>696.244</ele>
        <time>2014-04-12T09:48:06Z</time>
      </trkpt>
      <trkpt lat="40.647158" lon="-3.654317">
        <ele>697.118</ele>
        <time>2014-04-12T09:48:14Z</time>
      </trkpt>
      <trkpt lat="40.647032" lon="-3.654118">
        <ele>697.807</ele>
        <time>2014-04-12T09:48:21Z</time>
      </trkpt>
      <trkpt lat="40.646958" lon="-3.653881">
        <ele>698.892</ele>
        <time>2014-04-12T09:48:29Z</time>
      </trkpt>
      <trkpt lat="40.646995" lon="-3.653638">
        <ele>699.681</ele>
        <time>2014-04-12T09:48:37Z</time>
      </trkpt>
      <trkpt lat="40.647034" lon="-3.653396">
        <ele>700.292</ele>
        <time>2014-04-12T09:48:45Z</time>
      </trkpt>
      <trkpt lat="40.647017" lon="-3.653138">
        <ele>701.431</ele>
        <time>2014-04-12T09:48:54Z</time>
      </trkpt>
      <trkpt lat="40.646907" lon="-3.652941">
        <ele>702.846</ele>
        <time>2014-04-12T09:49:02Z</time>
      </trkpt>
      <trkpt lat="40.646747" lon="-3.652807">
        <ele>704.045</ele>
        <time>2014-04-12T09:49:10Z</time>
      </trkpt>
      <trkpt lat="40.646570" lon="-3.652708">
        <ele>705.157</ele>
        <time>2014-04-12T09:49:18Z</time>
      </trkpt>
      <trkpt lat="40.646421" lon="-3.652557">
        <ele>706.449</ele>
        <time>2014-04-12T09:49:26Z</time>
      </trkpt>
      <trkpt lat="40.646295" lon="-3.652353">
        <ele>707.502</ele>
        <time>2014-04-12T09:49:34Z</time>
      </trkpt>
      <trkpt lat="40.646140" lon="-3.652175">
        <ele>708.222</ele>
        <time>2014-04-12T09:49:40Z</time>
      </trkpt>
      <trkpt lat="40.645952" lon="-3.652086">
        <ele>709.407</ele>
        <time>2014-04-12T09:49:46Z</time>
      </trkpt>
      <trkpt lat="40.645768" lon="-3.652067">
        <ele>711.680</ele>
        <time>2014-04-12T09:49:50Z</time>
      </trkpt>
      <trkpt lat="40.645572" lon="-3.652075">
        <ele>712.029</ele>
        <time>2014-04-12T09:49:54Z</time>
      </trkpt>
      <trkpt lat="40.645389" lon="-3.652058">
        <ele>712.780</ele>
        <time>2014-04-12T09:49:58Z</time>
      </trkpt>
      <trkpt lat="40.645209" lon="-3.651998">
        <ele>713.339</ele>
        <time>2014-04-12T09:50:02Z</time>
      </trkpt>
      <trkpt lat="40.645032" lon="-3.651866">
        <ele>711.634</ele>
        <time>2014-04-12T09:50:06Z</time>
      </trkpt>
      <trkpt lat="40.644857" lon="-3.651799">
        <ele>711.213</ele>
        <time>2014-04-12T09:50:09Z</time>
      </trkpt>
      <trkpt lat="40.644653" lon="-3.651656">
        <ele>710.315</ele>
        <time>2014-04-12T09:50:13Z</time>
      </trkpt>
      <trkpt lat="40.644445" lon="-3.651531">
        <ele>708.688</ele>
        <time>2014-04-12T09:50:17Z</time>
      </trkpt>
      <trkpt lat="40.644314" lon="-3.651359">
        <ele>707.824</ele>
        <time>2014-04-12T09:50:20Z</time>
      </trkpt>
      <trkpt lat="40.644172" lon="-3.651187">
        <ele>707.826</ele>
        <time>2014-04-12T09:50:23Z</time>
      </trkpt>
      <trkpt lat="40.644057" lon="-3.651000">
        <ele>707.507</ele>
        <time>2014-04-12T09:50:26Z</time>
      </trkpt>
      <trkpt lat="40.643951" lon="-3.650745">
        <ele>706.074</ele>
        <time>2014-04-12T09:50:30Z</time>
      </trkpt>
      <trkpt lat="40.643847" lon="-3.650478">
        <ele>706.693</ele>
        <time>2014-04-12T09:50:34Z</time>
      </trkpt>
      <trkpt lat="40.643835" lon="-3.650197">
        <ele>707.374</ele>
        <time>2014-04-12T09:50:38Z</time>
      </trkpt>
      <trkpt lat="40.643871" lon="-3.649897">
        <ele>706.953</ele>
        <time>2014-04-12T09:50:42Z</time>
      </trkpt>
      <trkpt lat="40.643897" lon="-3.649609">
        <ele>705.388</ele>
        <time>2014-04-12T09:50:46Z</time>
      </trkpt>
      <trkpt lat="40.643895" lon="-3.649359">
        <ele>704.517</ele>
        <time>2014-04-12T09:50:50Z</time>
      </trkpt>
      <trkpt lat="40.643860" lon="-3.649125">
        <ele>704.249</ele>
        <time>2014-04-12T09:50:54Z</time>
      </trkpt>
      <trkpt lat="40.643756" lon="-3.648857">
        <ele>704.022</ele>
        <time>2014-04-12T09:50:58Z</time>
      </trkpt>
      <trkpt lat="40.643625" lon="-3.648606">
        <ele>703.862</ele>
        <time>2014-04-12T09:51:02Z</time>
      </trkpt>
      <trkpt lat="40.643456" lon="-3.648385">
        <ele>702.108</ele>
        <time>2014-04-12T09:51:06Z</time>
      </trkpt>
      <trkpt lat="40.643296" lon="-3.648181">
        <ele>701.607</ele>
        <time>2014-04-12T09:51:10Z</time>
      </trkpt>
      <trkpt lat="40.643173" lon="-3.647997">
        <ele>701.448</ele>
        <time>2014-04-12T09:51:14Z</time>
      </trkpt>
      <trkpt lat="40.643031" lon="-3.647802">
        <ele>699.967</ele>
        <time>2014-04-12T09:51:18Z</time>
      </trkpt>
      <trkpt lat="40.642857" lon="-3.647655">
        <ele>698.688</ele>
        <time>2014-04-12T09:51:22Z</time>
      </trkpt>
      <trkpt lat="40.642690" lon="-3.647530">
        <ele>696.627</ele>
        <time>2014-04-12T09:51:26Z</time>
      </trkpt>
      <trkpt lat="40.642489" lon="-3.647434">
        <ele>695.932</ele>
        <time>2014-04-12T09:51:30Z</time>
      </trkpt>
      <trkpt lat="40.642330" lon="-3.647241">
        <ele>695.981</ele>
        <time>2014-04-12T09:51:35Z</time>
      </trkpt>
      <trkpt lat="40.642237" lon="-3.646974">
        <ele>696.013</ele>
        <time>2014-04-12T09:51:40Z</time>
      </trkpt>
      <trkpt lat="40.642143" lon="-3.646754">
        <ele>697.537</ele>
        <time>2014-04-12T09:51:45Z</time>
      </trkpt>
      <trkpt lat="40.642084" lon="-3.646522">
        <ele>699.949</ele>
        <time>2014-04-12T09:51:50Z</time>
      </trkpt>
      <trkpt lat="40.642072" lon="-3.646265">
        <ele>700.013</ele>
        <time>2014-04-12T09:51:54Z</time>
      </trkpt>
      <trkpt lat="40.642065" lon="-3.646010">
        <ele>700.007</ele>
        <time>2014-04-12T09:51:58Z</time>
      </trkpt>
      <trkpt lat="40.642055" lon="-3.645760">
        <ele>699.919</ele>
        <time>2014-04-12T09:52:02Z</time>
      </trkpt>
      <trkpt lat="40.642006" lon="-3.645492">
        <ele>700.718</ele>
        <time>2014-04-12T09:52:07Z</time>
      </trkpt>
      <trkpt lat="40.641892" lon="-3.645228">
        <ele>700.469</ele>
        <time>2014-04-12T09:52:12Z</time>
      </trkpt>
      <trkpt lat="40.641765" lon="-3.644990">
        <ele>701.698</ele>
        <time>2014-04-12T09:52:16Z</time>
      </trkpt>
      <trkpt lat="40.641619" lon="-3.644782">
        <ele>700.673</ele>
        <time>2014-04-12T09:52:20Z</time>
      </trkpt>
      <trkpt lat="40.641453" lon="-3.644592">
        <ele>699.562</ele>
        <time>2014-04-12T09:52:24Z</time>
      </trkpt>
      <trkpt lat="40.641306" lon="-3.644397">
        <ele>699.934</ele>
        <time>2014-04-12T09:52:27Z</time>
      </trkpt>
      <trkpt lat="40.641184" lon="-3.644212">
        <ele>698.832</ele>
        <time>2014-04-12T09:52:30Z</time>
      </trkpt>
      <trkpt lat="40.641058" lon="-3.644022">
        <ele>696.892</ele>
        <time>2014-04-12T09:52:33Z</time>
      </trkpt>
      <trkpt lat="40.640969" lon="-3.643737">
        <ele>695.911</ele>
        <time>2014-04-12T09:52:37Z</time>
      </trkpt>
      <trkpt lat="40.640898" lon="-3.643466">
        <ele>695.407</ele>
        <time>2014-04-12T09:52:41Z</time>
      </trkpt>
      <trkpt lat="40.640817" lon="-3.643227">
        <ele>693.229</ele>
        <time>2014-04-12T09:52:45Z</time>
      </trkpt>
      <trkpt lat="40.640742" lon="-3.642983">
        <ele>693.078</ele>
        <time>2014-04-12T09:52:49Z</time>
      </trkpt>
      <trkpt lat="40.640675" lon="-3.642748">
        <ele>692.469</ele>
        <time>2014-04-12T09:52:53Z</time>
      </trkpt>
      <trkpt lat="40.640614" lon="-3.642522">
        <ele>693.218</ele>
        <time>2014-04-12T09:52:57Z</time>
      </trkpt>
      <trkpt lat="40.640541" lon="-3.642305">
        <ele>693.943</ele>
        <time>2014-04-12T09:53:01Z</time>
      </trkpt>
      <trkpt lat="40.640433" lon="-3.642061">
        <ele>696.582</ele>
        <time>2014-04-12T09:53:06Z</time>
      </trkpt>
      <trkpt lat="40.640331" lon="-3.641856">
        <ele>697.914</ele>
        <time>2014-04-12T09:53:10Z</time>
      </trkpt>
      <trkpt lat="40.640234" lon="-3.641603">
        <ele>697.355</ele>
        <time>2014-04-12T09:53:14Z</time>
      </trkpt>
      <trkpt lat="40.640183" lon="-3.641326">
        <ele>698.007</ele>
        <time>2014-04-12T09:53:18Z</time>
      </trkpt>
      <trkpt lat="40.640106" lon="-3.641098">
        <ele>698.517</ele>
        <time>2014-04-12T09:53:22Z</time>
      </trkpt>
      <trkpt lat="40.639985" lon="-3.640869">
        <ele>698.207</ele>
        <time>2014-04-12T09:53:27Z</time>
      </trkpt>
      <trkpt lat="40.639897" lon="-3.640648">
        <ele>697.081</ele>
        <time>2014-04-12T09:53:31Z</time>
      </trkpt>
      <trkpt lat="40.639757" lon="-3.640474">
        <ele>695.920</ele>
        <time>2014-04-12T09:53:35Z</time>
      </trkpt>
      <trkpt lat="40.639636" lon="-3.640235">
        <ele>695.221</ele>
        <time>2014-04-12T09:53:39Z</time>
      </trkpt>
      <trkpt lat="40.639524" lon="-3.639992">
        <ele>694.350</ele>
        <time>2014-04-12T09:53:43Z</time>
      </trkpt>
      <trkpt lat="40.639407" lon="-3.639730">
        <ele>693.495</ele>
        <time>2014-04-12T09:53:47Z</time>
      </trkpt>
      <trkpt lat="40.639282" lon="-3.639551">
        <ele>693.894</ele>
        <time>2014-04-12T09:53:50Z</time>
      </trkpt>
      <trkpt lat="40.639101" lon="-3.639353">
        <ele>693.756</ele>
        <time>2014-04-12T09:53:54Z</time>
      </trkpt>
      <trkpt lat="40.639000" lon="-3.639095">
        <ele>693.796</ele>
        <time>2014-04-12T09:53:58Z</time>
      </trkpt>
      <trkpt lat="40.638914" lon="-3.638830">
        <ele>693.631</ele>
        <time>2014-04-12T09:54:02Z</time>
      </trkpt>
      <trkpt lat="40.638735" lon="-3.638652">
        <ele>693.724</ele>
        <time>2014-04-12T09:54:06Z</time>
      </trkpt>
      <trkpt lat="40.638543" lon="-3.638491">
        <ele>694.107</ele>
        <time>2014-04-12T09:54:10Z</time>
      </trkpt>
      <trkpt lat="40.638352" lon="-3.638348">
        <ele>694.765</ele>
        <time>2014-04-12T09:54:14Z</time>
      </trkpt>
      <trkpt lat="40.638177" lon="-3.638210">
        <ele>694.444</ele>
        <time>2014-04-12T09:54:18Z</time>
      </trkpt>
      <trkpt lat="40.638014" lon="-3.638005">
        <ele>694.345</ele>
        <time>2014-04-12T09:54:22Z</time>
      </trkpt>
      <trkpt lat="40.637892" lon="-3.637817">
        <ele>696.284</ele>
        <time>2014-04-12T09:54:26Z</time>
      </trkpt>
      <trkpt lat="40.637755" lon="-3.637640">
        <ele>696.229</ele>
        <time>2014-04-12T09:54:30Z</time>
      </trkpt>
      <trkpt lat="40.637631" lon="-3.637440">
        <ele>695.078</ele>
        <time>2014-04-12T09:54:34Z</time>
      </trkpt>
      <trkpt lat="40.637467" lon="-3.637270">
        <ele>694.450</ele>
        <time>2014-04-12T09:54:40Z</time>
      </trkpt>
      <trkpt lat="40.637313" lon="-3.637139">
        <ele>694.511</ele>
        <time>2014-04-12T09:54:47Z</time>
      </trkpt>
      <trkpt lat="40.637149" lon="-3.637003">
        <ele>694.621</ele>
        <time>2014-04-12T09:54:53Z</time>
      </trkpt>
      <trkpt lat="40.636994" lon="-3.636837">
        <ele>694.903</ele>
        <time>2014-04-12T09:55:00Z</time>
      </trkpt>
      <trkpt lat="40.636808" lon="-3.636681">
        <ele>696.407</ele>
        <time>2014-04-12T09:55:06Z</time>
      </trkpt>
      <trkpt lat="40.636612" lon="-3.636589">
        <ele>697.097</ele>
        <time>2014-04-12T09:55:12Z</time>
      </trkpt>
      <trkpt lat="40.636398" lon="-3.636521">
        <ele>695.866</ele>
        <time>2014-04-12T09:55:17Z</time>
      </trkpt>
      <trkpt lat="40.636188" lon="-3.636489">
        <ele>694.567</ele>
        <time>2014-04-12T09:55:22Z</time>
      </trkpt>
      <trkpt lat="40.635971" lon="-3.636425">
        <ele>695.926</ele>
        <time>2014-04-12T09:55:27Z</time>
      </trkpt>
      <trkpt lat="40.635767" lon="-3.636332">
        <ele>698.631</ele>
        <time>2014-04-12T09:55:32Z</time>
      </trkpt>
      <trkpt lat="40.635567" lon="-3.636289">
        <ele>698.080</ele>
        <time>2014-04-12T09:55:37Z</time>
      </trkpt>
      <trkpt lat="40.635367" lon="-3.636216">
        <ele>695.572</ele>
        <time>2014-04-12T09:55:41Z</time>
      </trkpt>
      <trkpt lat="40.635161" lon="-3.636109">
        <ele>694.994</ele>
        <time>2014-04-12T09:55:46Z</time>
      </trkpt>
      <trkpt lat="40.634971" lon="-3.635985">
        <ele>694.857</ele>
        <time>2014-04-12T09:55:51Z</time>
      </trkpt>
      <trkpt lat="40.634818" lon="-3.635842">
        <ele>694.622</ele>
        <time>2014-04-12T09:55:57Z</time>
      </trkpt>
      <trkpt lat="40.634659" lon="-3.635714">
        <ele>694.307</ele>
        <time>2014-04-12T09:56:02Z</time>
      </trkpt>
      <trkpt lat="40.634480" lon="-3.635560">
        <ele>694.335</ele>
        <time>2014-04-12T09:56:08Z</time>
      </trkpt>
      <trkpt lat="40.634325" lon="-3.635386">
        <ele>694.354</ele>
        <time>2014-04-12T09:56:14Z</time>
      </trkpt>
      <trkpt lat="40.634193" lon="-3.635169">
        <ele>694.295</ele>
        <time>2014-04-12T09:56:21Z</time>
      </trkpt>
      <trkpt lat="40.634040" lon="-3.635038">
        <ele>694.374</ele>
        <time>2014-04-12T09:56:27Z</time>
      </trkpt>
      <trkpt lat="40.633904" lon="-3.634877">
        <ele>694.659</ele>
        <time>2014-04-12T09:56:33Z</time>
      </trkpt>
      <trkpt lat="40.633751" lon="-3.634726">
        <ele>694.998</ele>
        <time>2014-04-12T09:56:38Z</time>
      </trkpt>
      <trkpt lat="40.633590" lon="-3.634591">
        <ele>694.080</ele>
        <time>2014-04-12T09:56:42Z</time>
      </trkpt>
      <trkpt lat="40.633398" lon="-3.634465">
        <ele>692.623</ele>
        <time>2014-04-12T09:56:46Z</time>
      </trkpt>
      <trkpt lat="40.633202" lon="-3.634297">
        <ele>692.283</ele>
        <time>2014-04-12T09:56:50Z</time>
      </trkpt>
      <trkpt lat="40.632998" lon="-3.634151">
        <ele>692.311</ele>
        <time>2014-04-12T09:56:54Z</time>
      </trkpt>
      <trkpt lat="40.632813" lon="-3.634110">
        <ele>692.607</ele>
        <time>2014-04-12T09:56:58Z</time>
      </trkpt>
      <trkpt lat="40.632631" lon="-3.633979">
        <ele>691.768</ele>
        <time>2014-04-12T09:57:03Z</time>
      </trkpt>
      <trkpt lat="40.632448" lon="-3.633904">
        <ele>691.117</ele>
        <time>2014-04-12T09:57:07Z</time>
      </trkpt>
      <trkpt lat="40.632264" lon="-3.633769">
        <ele>690.748</ele>
        <time>2014-04-12T09:57:12Z</time>
      </trkpt>
      <trkpt lat="40.632074" lon="-3.633619">
        <ele>688.267</ele>
        <time>2014-04-12T09:57:17Z</time>
      </trkpt>
      <trkpt lat="40.631910" lon="-3.633519">
        <ele>688.052</ele>
        <time>2014-04-12T09:57:21Z</time>
      </trkpt>
      <trkpt lat="40.631711" lon="-3.633401">
        <ele>688.571</ele>
        <time>2014-04-12T09:57:27Z</time>
      </trkpt>
      <trkpt lat="40.631534" lon="-3.633316">
        <ele>688.243</ele>
        <time>2014-04-12T09:57:32Z</time>
      </trkpt>
      <trkpt lat="40.631344" lon="-3.633218">
        <ele>688.313</ele>
        <time>2014-04-12T09:57:38Z</time>
      </trkpt>
      <trkpt lat="40.631177" lon="-3.633103">
        <ele>689.343</ele>
        <time>2014-04-12T09:57:43Z</time>
      </trkpt>
      <trkpt lat="40.630990" lon="-3.633019">
        <ele>689.407</ele>
        <time>2014-04-12T09:57:48Z</time>
      </trkpt>
      <trkpt lat="40.630820" lon="-3.632879">
        <ele>690.607</ele>
        <time>2014-04-12T09:57:55Z</time>
      </trkpt>
      <trkpt lat="40.630638" lon="-3.632771">
        <ele>694.267</ele>
        <time>2014-04-12T09:58:01Z</time>
      </trkpt>
      <trkpt lat="40.630525" lon="-3.632582">
        <ele>696.186</ele>
        <time>2014-04-12T09:58:05Z</time>
      </trkpt>
      <trkpt lat="40.630371" lon="-3.632426">
        <ele>694.977</ele>
        <time>2014-04-12T09:58:08Z</time>
      </trkpt>
      <trkpt lat="40.630185" lon="-3.632304">
        <ele>692.976</ele>
        <time>2014-04-12T09:58:11Z</time>
      </trkpt>
      <trkpt lat="40.630026" lon="-3.632108">
        <ele>691.021</ele>
        <time>2014-04-12T09:58:14Z</time>
      </trkpt>
      <trkpt lat="40.629863" lon="-3.631906">
        <ele>691.170</ele>
        <time>2014-04-12T09:58:17Z</time>
      </trkpt>
      <trkpt lat="40.629720" lon="-3.631720">
        <ele>690.992</ele>
        <time>2014-04-12T09:58:20Z</time>
      </trkpt>
      <trkpt lat="40.629561" lon="-3.631520">
        <ele>689.211</ele>
        <time>2014-04-12T09:58:25Z</time>
      </trkpt>
      <trkpt lat="40.629437" lon="-3.631349">
        <ele>688.921</ele>
        <time>2014-04-12T09:58:31Z</time>
      </trkpt>
      <trkpt lat="40.629275" lon="-3.631189">
        <ele>688.803</ele>
        <time>2014-04-12T09:58:38Z</time>
      </trkpt>
      <trkpt lat="40.629107" lon="-3.631072">
        <ele>688.707</ele>
        <time>2014-04-12T09:58:44Z</time>
      </trkpt>
      <trkpt lat="40.628956" lon="-3.630942">
        <ele>689.367</ele>
        <time>2014-04-12T09:58:50Z</time>
      </trkpt>
      <trkpt lat="40.628848" lon="-3.630740">
        <ele>692.656</ele>
        <time>2014-04-12T09:58:55Z</time>
      </trkpt>
      <trkpt lat="40.628717" lon="-3.630563">
        <ele>693.927</ele>
        <time>2014-04-12T09:59:00Z</time>
      </trkpt>
      <trkpt lat="40.628539" lon="-3.630432">
        <ele>694.346</ele>
        <time>2014-04-12T09:59:05Z</time>
      </trkpt>
      <trkpt lat="40.628409" lon="-3.630268">
        <ele>693.931</ele>
        <time>2014-04-12T09:59:10Z</time>
      </trkpt>
      <trkpt lat="40.628272" lon="-3.630108">
        <ele>694.280</ele>
        <time>2014-04-12T09:59:15Z</time>
      </trkpt>
      <trkpt lat="40.628086" lon="-3.630017">
        <ele>695.192</ele>
        <time>2014-04-12T09:59:20Z</time>
      </trkpt>
      <trkpt lat="40.627914" lon="-3.629923">
        <ele>695.376</ele>
        <time>2014-04-12T09:59:26Z</time>
      </trkpt>
      <trkpt lat="40.627725" lon="-3.629856">
        <ele>695.390</ele>
        <time>2014-04-12T09:59:32Z</time>
      </trkpt>
      <trkpt lat="40.627553" lon="-3.629733">
        <ele>695.819</ele>
        <time>2014-04-12T09:59:40Z</time>
      </trkpt>
      <trkpt lat="40.627386" lon="-3.629635">
        <ele>696.307</ele>
        <time>2014-04-12T09:59:47Z</time>
      </trkpt>
      <trkpt lat="40.627201" lon="-3.629646">
        <ele>696.853</ele>
        <time>2014-04-12T09:59:56Z</time>
      </trkpt>
      <trkpt lat="40.627019" lon="-3.629652">
        <ele>697.752</ele>
        <time>2014-04-12T10:00:03Z</time>
      </trkpt>
      <trkpt lat="40.626827" lon="-3.629586">
        <ele>698.833</ele>
        <time>2014-04-12T10:00:12Z</time>
      </trkpt>
      <trkpt lat="40.626634" lon="-3.629658">
        <ele>699.762</ele>
        <time>2014-04-12T10:00:20Z</time>
      </trkpt>
      <trkpt lat="40.626472" lon="-3.629816">
        <ele>700.847</ele>
        <time>2014-04-12T10:00:28Z</time>
      </trkpt>
      <trkpt lat="40.626285" lon="-3.629934">
        <ele>702.496</ele>
        <time>2014-04-12T10:00:36Z</time>
      </trkpt>
      <trkpt lat="40.626114" lon="-3.630024">
        <ele>703.448</ele>
        <time>2014-04-12T10:00:42Z</time>
      </trkpt>
      <trkpt lat="40.625932" lon="-3.630116">
        <ele>704.151</ele>
        <time>2014-04-12T10:00:48Z</time>
      </trkpt>
      <trkpt lat="40.625752" lon="-3.630137">
        <ele>705.501</ele>
        <time>2014-04-12T10:00:52Z</time>
      </trkpt>
      <trkpt lat="40.625538" lon="-3.630041">
        <ele>707.411</ele>
        <time>2014-04-12T10:00:56Z</time>
      </trkpt>
      <trkpt lat="40.625369" lon="-3.629934">
        <ele>707.407</ele>
        <time>2014-04-12T10:00:59Z</time>
      </trkpt>
      <trkpt lat="40.625202" lon="-3.629825">
        <ele>706.361</ele>
        <time>2014-04-12T10:01:03Z</time>
      </trkpt>
      <trkpt lat="40.625025" lon="-3.629752">
        <ele>705.450</ele>
        <time>2014-04-12T10:01:07Z</time>
      </trkpt>
      <trkpt lat="40.624806" lon="-3.629677">
        <ele>704.091</ele>
        <time>2014-04-12T10:01:11Z</time>
      </trkpt>
      <trkpt lat="40.624606" lon="-3.629621">
        <ele>703.690</ele>
        <time>2014-04-12T10:01:14Z</time>
      </trkpt>
      <trkpt lat="40.624402" lon="-3.629513">
        <ele>703.225</ele>
        <time>2014-04-12T10:01:18Z</time>
      </trkpt>
      <trkpt lat="40.624209" lon="-3.629441">
        <ele>702.954</ele>
        <time>2014-04-12T10:01:27Z</time>
      </trkpt>
      <trkpt lat="40.623993" lon="-3.629422">
        <ele>703.976</ele>
        <time>2014-04-12T10:01:34Z</time>
      </trkpt>
      <trkpt lat="40.623818" lon="-3.629342">
        <ele>706.257</ele>
        <time>2014-04-12T10:01:38Z</time>
      </trkpt>
      <trkpt lat="40.623646" lon="-3.629271">
        <ele>706.700</ele>
        <time>2014-04-12T10:01:41Z</time>
      </trkpt>
      <trkpt lat="40.623446" lon="-3.629218">
        <ele>706.520</ele>
        <time>2014-04-12T10:01:44Z</time>
      </trkpt>
      <trkpt lat="40.623278" lon="-3.629108">
        <ele>705.907</ele>
        <time>2014-04-12T10:01:47Z</time>
      </trkpt>
      <trkpt lat="40.623113" lon="-3.628980">
        <ele>706.121</ele>
        <time>2014-04-12T10:01:51Z</time>
      </trkpt>
      <trkpt lat="40.622935" lon="-3.628922">
        <ele>706.290</ele>
        <time>2014-04-12T10:01:55Z</time>
      </trkpt>
      <trkpt lat="40.622745" lon="-3.628843">
        <ele>705.341</ele>
        <time>2014-04-12T10:02:00Z</time>
      </trkpt>
      <trkpt lat="40.622540" lon="-3.628782">
        <ele>705.070</ele>
        <time>2014-04-12T10:02:06Z</time>
      </trkpt>
      <trkpt lat="40.622350" lon="-3.628820">
        <ele>704.895</ele>
        <time>2014-04-12T10:02:14Z</time>
      </trkpt>
      <trkpt lat="40.622174" lon="-3.628889">
        <ele>705.564</ele>
        <time>2014-04-12T10:02:21Z</time>
      </trkpt>
      <trkpt lat="40.621985" lon="-3.628924">
        <ele>706.656</ele>
        <time>2014-04-12T10:02:27Z</time>
      </trkpt>
      <trkpt lat="40.621801" lon="-3.629018">
        <ele>707.034</ele>
        <time>2014-04-12T10:02:34Z</time>
      </trkpt>
      <trkpt lat="40.621599" lon="-3.629057">
        <ele>707.355</ele>
        <time>2014-04-12T10:02:40Z</time>
      </trkpt>
      <trkpt lat="40.621410" lon="-3.629095">
        <ele>707.510</ele>
        <time>2014-04-12T10:02:44Z</time>
      </trkpt>
      <trkpt lat="40.621218" lon="-3.629113">
        <ele>708.507</ele>
        <time>2014-04-12T10:02:49Z</time>
      </trkpt>
      <trkpt lat="40.621031" lon="-3.629182">
        <ele>709.169</ele>
        <time>2014-04-12T10:02:54Z</time>
      </trkpt>
      <trkpt lat="40.620828" lon="-3.629237">
        <ele>710.298</ele>
        <time>2014-04-12T10:02:59Z</time>
      </trkpt>
      <trkpt lat="40.620623" lon="-3.629264">
        <ele>711.349</ele>
        <time>2014-04-12T10:03:03Z</time>
      </trkpt>
      <trkpt lat="40.620434" lon="-3.629258">
        <ele>710.158</ele>
        <time>2014-04-12T10:03:06Z</time>
      </trkpt>
      <trkpt lat="40.620259" lon="-3.629126">
        <ele>708.323</ele>
        <time>2014-04-12T10:03:10Z</time>
      </trkpt>
      <trkpt lat="40.620070" lon="-3.629021">
        <ele>708.062</ele>
        <time>2014-04-12T10:03:16Z</time>
      </trkpt>
      <trkpt lat="40.619894" lon="-3.628896">
        <ele>708.154</ele>
        <time>2014-04-12T10:03:22Z</time>
      </trkpt>
      <trkpt lat="40.619729" lon="-3.628761">
        <ele>708.371</ele>
        <time>2014-04-12T10:03:28Z</time>
      </trkpt>
      <trkpt lat="40.619566" lon="-3.628647">
        <ele>709.941</ele>
        <time>2014-04-12T10:03:33Z</time>
      </trkpt>
      <trkpt lat="40.619341" lon="-3.628590">
        <ele>713.715</ele>
        <time>2014-04-12T10:03:38Z</time>
      </trkpt>
      <trkpt lat="40.619127" lon="-3.628556">
        <ele>715.407</ele>
        <time>2014-04-12T10:03:41Z</time>
      </trkpt>
      <trkpt lat="40.618944" lon="-3.628527">
        <ele>715.353</ele>
        <time>2014-04-12T10:03:43Z</time>
      </trkpt>
      <trkpt lat="40.618686" lon="-3.628505">
        <ele>712.432</ele>
        <time>2014-04-12T10:03:46Z</time>
      </trkpt>
      <trkpt lat="40.618429" lon="-3.628461">
        <ele>709.373</ele>
        <time>2014-04-12T10:03:49Z</time>
      </trkpt>
      <trkpt lat="40.618245" lon="-3.628424">
        <ele>708.632</ele>
        <time>2014-04-12T10:03:52Z</time>
      </trkpt>
      <trkpt lat="40.618062" lon="-3.628373">
        <ele>708.597</ele>
        <time>2014-04-12T10:03:57Z</time>
      </trkpt>
      <trkpt lat="40.617873" lon="-3.628245">
        <ele>708.966</ele>
        <time>2014-04-12T10:04:02Z</time>
      </trkpt>
      <trkpt lat="40.617720" lon="-3.628089">
        <ele>709.278</ele>
        <time>2014-04-12T10:04:07Z</time>
      </trkpt>
      <trkpt lat="40.617595" lon="-3.627876">
        <ele>707.923</ele>
        <time>2014-04-12T10:04:11Z</time>
      </trkpt>
      <trkpt lat="40.617427" lon="-3.627676">
        <ele>706.883</ele>
        <time>2014-04-12T10:04:14Z</time>
      </trkpt>
      <trkpt lat="40.617275" lon="-3.627448">
        <ele>705.911</ele>
        <time>2014-04-12T10:04:17Z</time>
      </trkpt>
      <trkpt lat="40.617173" lon="-3.627215">
        <ele>705.107</ele>
        <time>2014-04-12T10:04:20Z</time>
      </trkpt>
      <trkpt lat="40.617078" lon="-3.626994">
        <ele>704.838</ele>
        <time>2014-04-12T10:04:24Z</time>
      </trkpt>
      <trkpt lat="40.616998" lon="-3.626733">
        <ele>705.377</ele>
        <time>2014-04-12T10:04:30Z</time>
      </trkpt>
      <trkpt lat="40.616966" lon="-3.626494">
        <ele>706.588</ele>
        <time>2014-04-12T10:04:35Z</time>
      </trkpt>
      <trkpt lat="40.616922" lon="-3.626237">
        <ele>708.237</ele>
        <time>2014-04-12T10:04:40Z</time>
      </trkpt>
      <trkpt lat="40.616924" lon="-3.625994">
        <ele>706.712</ele>
        <time>2014-04-12T10:04:44Z</time>
      </trkpt>
      <trkpt lat="40.616905" lon="-3.625710">
        <ele>705.021</ele>
        <time>2014-04-12T10:04:48Z</time>
      </trkpt>
      <trkpt lat="40.617074" lon="-3.625606">
        <ele>704.023</ele>
        <time>2014-04-12T10:04:56Z</time>
      </trkpt>
      <trkpt lat="40.617252" lon="-3.625550">
        <ele>706.912</ele>
        <time>2014-04-12T10:05:00Z</time>
      </trkpt>
      <trkpt lat="40.617447" lon="-3.625465">
        <ele>706.432</ele>
        <time>2014-04-12T10:05:04Z</time>
      </trkpt>
      <trkpt lat="40.617583" lon="-3.625297">
        <ele>704.105</ele>
        <time>2014-04-12T10:05:07Z</time>
      </trkpt>
      <trkpt lat="40.617696" lon="-3.625039">
        <ele>701.507</ele>
        <time>2014-04-12T10:05:11Z</time>
      </trkpt>
      <trkpt lat="40.617771" lon="-3.624800">
        <ele>701.087</ele>
        <time>2014-04-12T10:05:17Z</time>
      </trkpt>
      <trkpt lat="40.617605" lon="-3.624623">
        <ele>703.336</ele>
        <time>2014-04-12T10:05:27Z</time>
      </trkpt>
      <trkpt lat="40.617410" lon="-3.624559">
        <ele>704.727</ele>
        <time>2014-04-12T10:05:32Z</time>
      </trkpt>
      <trkpt lat="40.617207" lon="-3.624493">
        <ele>705.616</ele>
        <time>2014-04-12T10:05:38Z</time>
      </trkpt>
      <trkpt lat="40.617080" lon="-3.624325">
        <ele>709.781</ele>
        <time>2014-04-12T10:05:43Z</time>
      </trkpt>
      <trkpt lat="40.616987" lon="-3.624100">
        <ele>710.610</ele>
        <time>2014-04-12T10:05:48Z</time>
      </trkpt>
      <trkpt lat="40.616897" lon="-3.623846">
        <ele>710.182</ele>
        <time>2014-04-12T10:05:53Z</time>
      </trkpt>
      <trkpt lat="40.616817" lon="-3.623624">
        <ele>707.531</ele>
        <time>2014-04-12T10:05:57Z</time>
      </trkpt>
      <trkpt lat="40.616724" lon="-3.623393">
        <ele>706.261</ele>
        <time>2014-04-12T10:06:02Z</time>
      </trkpt>
      <trkpt lat="40.616641" lon="-3.623176">
        <ele>707.607</ele>
        <time>2014-04-12T10:06:06Z</time>
      </trkpt>
      <trkpt lat="40.616532" lon="-3.622926">
        <ele>708.707</ele>
        <time>2014-04-12T10:06:11Z</time>
      </trkpt>
      <trkpt lat="40.616427" lon="-3.622681">
        <ele>708.649</ele>
        <time>2014-04-12T10:06:16Z</time>
      </trkpt>
      <trkpt lat="40.616344" lon="-3.622451">
        <ele>708.618</ele>
        <time>2014-04-12T10:06:21Z</time>
      </trkpt>
      <trkpt lat="40.616270" lon="-3.622184">
        <ele>708.879</ele>
        <time>2014-04-12T10:06:26Z</time>
      </trkpt>
      <trkpt lat="40.616351" lon="-3.621962">
        <ele>708.588</ele>
        <time>2014-04-12T10:06:30Z</time>
      </trkpt>
      <trkpt lat="40.616452" lon="-3.621754">
        <ele>708.553</ele>
        <time>2014-04-12T10:06:34Z</time>
      </trkpt>
      <trkpt lat="40.616560" lon="-3.621547">
        <ele>707.432</ele>
        <time>2014-04-12T10:06:38Z</time>
      </trkpt>
      <trkpt lat="40.616679" lon="-3.621329">
        <ele>706.284</ele>
        <time>2014-04-12T10:06:42Z</time>
      </trkpt>
      <trkpt lat="40.616802" lon="-3.621100">
        <ele>706.949</ele>
        <time>2014-04-12T10:06:46Z</time>
      </trkpt>
      <trkpt lat="40.616932" lon="-3.620862">
        <ele>707.902</ele>
        <time>2014-04-12T10:06:50Z</time>
      </trkpt>
      <trkpt lat="40.617030" lon="-3.620641">
        <ele>706.922</ele>
        <time>2014-04-12T10:06:54Z</time>
      </trkpt>
      <trkpt lat="40.616921" lon="-3.620396">
        <ele>707.007</ele>
        <time>2014-04-12T10:06:58Z</time>
      </trkpt>
      <trkpt lat="40.616786" lon="-3.620188">
        <ele>707.560</ele>
        <time>2014-04-12T10:07:01Z</time>
      </trkpt>
      <trkpt lat="40.616639" lon="-3.619956">
        <ele>706.989</ele>
        <time>2014-04-12T10:07:04Z</time>
      </trkpt>
      <trkpt lat="40.616532" lon="-3.619733">
        <ele>706.150</ele>
        <time>2014-04-12T10:07:07Z</time>
      </trkpt>
      <trkpt lat="40.616566" lon="-3.619455">
        <ele>705.469</ele>
        <time>2014-04-12T10:07:10Z</time>
      </trkpt>
      <trkpt lat="40.616632" lon="-3.619164">
        <ele>703.074</ele>
        <time>2014-04-12T10:07:13Z</time>
      </trkpt>
      <trkpt lat="40.616699" lon="-3.618861">
        <ele>700.353</ele>
        <time>2014-04-12T10:07:16Z</time>
      </trkpt>
      <trkpt lat="40.616876" lon="-3.618796">
        <ele>697.865</ele>
        <time>2014-04-12T10:07:59Z</time>
      </trkpt>
      <trkpt lat="40.617023" lon="-3.618935">
        <ele>698.453</ele>
        <time>2014-04-12T10:08:08Z</time>
      </trkpt>
      <trkpt lat="40.617206" lon="-3.619000">
        <ele>698.704</ele>
        <time>2014-04-12T10:08:35Z</time>
      </trkpt>
    </trkseg>
  </trk>
</gpx>
